<?xml version='1.0' encoding='UTF-8'?><gpx version="1.1" creator="JPX - https://github.com/jenetics/jpx" xmlns="http://www.topografix.com/GPX/1/1"><trk><trkseg><trkpt lat="43.7659358" lon="11.2023862"><ele>41.0</ele><time>2026-05-01T08:09:11.062Z</time></trkpt><trkpt lat="43.765918" lon="11.202471"><ele>41.0</ele><time>2026-05-01T08:09:30.734Z</time></trkpt><trkpt lat="43.7659754" lon="11.2024179"><ele>41.0</ele><time>2026-05-01T08:10:37.737Z</time></trkpt><trkpt lat="43.7658899" lon="11.2023655"><ele>41.0</ele><time>2026-05-01T08:11:55.799Z</time></trkpt><trkpt lat="43.7658234" lon="11.202404"><ele>41.0</ele><time>2026-05-01T08:11:59.802Z</time></trkpt><trkpt lat="43.7657737" lon="11.2024688"><ele>41.0</ele><time>2026-05-01T08:12:05.736Z</time></trkpt><trkpt lat="43.7657417" lon="11.2025967"><ele>41.0</ele><time>2026-05-01T08:13:05.726Z</time></trkpt><trkpt lat="43.76573" lon="11.2027033"><ele>41.0</ele><time>2026-05-01T08:13:08.727Z</time></trkpt><trkpt lat="43.765695" lon="11.2027817"><ele>41.0</ele><time>2026-05-01T08:13:10.727Z</time></trkpt><trkpt lat="43.76565" lon="11.2028833"><ele>41.0</ele><time>2026-05-01T08:13:12.727Z</time></trkpt><trkpt lat="43.76561" lon="11.203"><ele>41.0</ele><time>2026-05-01T08:13:14.728Z</time></trkpt><trkpt lat="43.7655683" lon="11.2031167"><ele>41.0</ele><time>2026-05-01T08:13:16.726Z</time></trkpt><trkpt lat="43.7655017" lon="11.2032333"><ele>40.8</ele><time>2026-05-01T08:13:18.729Z</time></trkpt><trkpt lat="43.765445" lon="11.2033433"><ele>40.599999999999994</ele><time>2026-05-01T08:13:20.728Z</time></trkpt><trkpt lat="43.765395" lon="11.2034783"><ele>40.4</ele><time>2026-05-01T08:13:22.726Z</time></trkpt><trkpt lat="43.76536" lon="11.203555"><ele>40.2</ele><time>2026-05-01T08:13:23.728Z</time></trkpt><trkpt lat="43.7653017" lon="11.203685"><ele>40.0</ele><time>2026-05-01T08:13:25.726Z</time></trkpt><trkpt lat="43.7652633" lon="11.2037667"><ele>40.0</ele><time>2026-05-01T08:13:27.726Z</time></trkpt><trkpt lat="43.7652883" lon="11.20389"><ele>40.0</ele><time>2026-05-01T08:13:31.727Z</time></trkpt><trkpt lat="43.7653717" lon="11.2039867"><ele>40.0</ele><time>2026-05-01T08:13:33.727Z</time></trkpt><trkpt lat="43.7654667" lon="11.20409"><ele>40.0</ele><time>2026-05-01T08:13:35.728Z</time></trkpt><trkpt lat="43.7655183" lon="11.20414"><ele>40.0</ele><time>2026-05-01T08:13:36.726Z</time></trkpt><trkpt lat="43.7655733" lon="11.2041883"><ele>40.2</ele><time>2026-05-01T08:13:37.726Z</time></trkpt><trkpt lat="43.7656283" lon="11.204235"><ele>40.4</ele><time>2026-05-01T08:13:38.726Z</time></trkpt><trkpt lat="43.7656817" lon="11.204285"><ele>40.599999999999994</ele><time>2026-05-01T08:13:39.727Z</time></trkpt><trkpt lat="43.765785" lon="11.2043767"><ele>40.8</ele><time>2026-05-01T08:13:41.727Z</time></trkpt><trkpt lat="43.765885" lon="11.2044633"><ele>41.0</ele><time>2026-05-01T08:13:43.727Z</time></trkpt><trkpt lat="43.76599" lon="11.2045567"><ele>40.857142857142854</ele><time>2026-05-01T08:13:45.727Z</time></trkpt><trkpt lat="43.76605" lon="11.2045983"><ele>40.714285714285715</ele><time>2026-05-01T08:13:46.726Z</time></trkpt><trkpt lat="43.7661067" lon="11.2046467"><ele>40.57142857142857</ele><time>2026-05-01T08:13:47.727Z</time></trkpt><trkpt lat="43.7661617" lon="11.2047"><ele>40.42857142857143</ele><time>2026-05-01T08:13:48.728Z</time></trkpt><trkpt lat="43.7662133" lon="11.20475"><ele>40.285714285714285</ele><time>2026-05-01T08:13:49.727Z</time></trkpt><trkpt lat="43.766265" lon="11.2048017"><ele>40.14285714285714</ele><time>2026-05-01T08:13:50.728Z</time></trkpt><trkpt lat="43.7663217" lon="11.2048467"><ele>40.0</ele><time>2026-05-01T08:13:51.725Z</time></trkpt><trkpt lat="43.7664167" lon="11.204925"><ele>40.0</ele><time>2026-05-01T08:13:53.728Z</time></trkpt><trkpt lat="43.766485" lon="11.20492"><ele>40.0</ele><time>2026-05-01T08:13:55.727Z</time></trkpt><trkpt lat="43.7665283" lon="11.204805"><ele>40.0</ele><time>2026-05-01T08:13:57.727Z</time></trkpt><trkpt lat="43.76656" lon="11.2047267"><ele>40.0</ele><time>2026-05-01T08:13:58.727Z</time></trkpt><trkpt lat="43.7665967" lon="11.2046467"><ele>40.0</ele><time>2026-05-01T08:13:59.727Z</time></trkpt><trkpt lat="43.766635" lon="11.20456"><ele>40.0</ele><time>2026-05-01T08:14:00.727Z</time></trkpt><trkpt lat="43.7666717" lon="11.20447"><ele>40.0</ele><time>2026-05-01T08:14:01.726Z</time></trkpt><trkpt lat="43.76671" lon="11.2043717"><ele>40.0</ele><time>2026-05-01T08:14:02.727Z</time></trkpt><trkpt lat="43.76675" lon="11.2042683"><ele>40.0</ele><time>2026-05-01T08:14:03.728Z</time></trkpt><trkpt lat="43.766795" lon="11.2041633"><ele>40.0</ele><time>2026-05-01T08:14:04.727Z</time></trkpt><trkpt lat="43.7668417" lon="11.20406"><ele>40.0</ele><time>2026-05-01T08:14:05.727Z</time></trkpt><trkpt lat="43.76689" lon="11.2039633"><ele>40.0</ele><time>2026-05-01T08:14:06.727Z</time></trkpt><trkpt lat="43.7669367" lon="11.2038633"><ele>40.0</ele><time>2026-05-01T08:14:07.727Z</time></trkpt><trkpt lat="43.7669817" lon="11.2037617"><ele>40.333333333333336</ele><time>2026-05-01T08:14:08.726Z</time></trkpt><trkpt lat="43.76703" lon="11.2036583"><ele>40.66666666666667</ele><time>2026-05-01T08:14:09.726Z</time></trkpt><trkpt lat="43.7670733" lon="11.20356"><ele>41.0</ele><time>2026-05-01T08:14:10.726Z</time></trkpt><trkpt lat="43.7671183" lon="11.2034683"><ele>41.333333333333336</ele><time>2026-05-01T08:14:11.726Z</time></trkpt><trkpt lat="43.7671617" lon="11.2033817"><ele>41.666666666666664</ele><time>2026-05-01T08:14:12.727Z</time></trkpt><trkpt lat="43.7672017" lon="11.2033033"><ele>42.0</ele><time>2026-05-01T08:14:13.727Z</time></trkpt><trkpt lat="43.7672333" lon="11.203225"><ele>42.166666666666664</ele><time>2026-05-01T08:14:14.727Z</time></trkpt><trkpt lat="43.7672817" lon="11.2030783"><ele>42.333333333333336</ele><time>2026-05-01T08:14:16.727Z</time></trkpt><trkpt lat="43.7673183" lon="11.202995"><ele>42.5</ele><time>2026-05-01T08:14:18.727Z</time></trkpt><trkpt lat="43.7673183" lon="11.2028833"><ele>42.66666666666667</ele><time>2026-05-01T08:14:21.727Z</time></trkpt><trkpt lat="43.76724" lon="11.202775"><ele>42.833333333333336</ele><time>2026-05-01T08:14:23.726Z</time></trkpt><trkpt lat="43.76718" lon="11.2027283"><ele>43.0</ele><time>2026-05-01T08:14:24.728Z</time></trkpt><trkpt lat="43.7671133" lon="11.2026783"><ele>43.0</ele><time>2026-05-01T08:14:25.726Z</time></trkpt><trkpt lat="43.7670417" lon="11.2026267"><ele>43.0</ele><time>2026-05-01T08:14:26.726Z</time></trkpt><trkpt lat="43.7669667" lon="11.2025683"><ele>43.0</ele><time>2026-05-01T08:14:27.727Z</time></trkpt><trkpt lat="43.7669" lon="11.20251"><ele>43.0</ele><time>2026-05-01T08:14:28.726Z</time></trkpt><trkpt lat="43.7668267" lon="11.2024483"><ele>43.0</ele><time>2026-05-01T08:14:29.727Z</time></trkpt><trkpt lat="43.766745" lon="11.2024"><ele>43.0</ele><time>2026-05-01T08:14:30.726Z</time></trkpt><trkpt lat="43.7666717" lon="11.2023367"><ele>42.599999999999994</ele><time>2026-05-01T08:14:31.727Z</time></trkpt><trkpt lat="43.7665933" lon="11.2022783"><ele>42.199999999999996</ele><time>2026-05-01T08:14:32.727Z</time></trkpt><trkpt lat="43.7665133" lon="11.2022133"><ele>41.8</ele><time>2026-05-01T08:14:33.727Z</time></trkpt><trkpt lat="43.7664367" lon="11.202145"><ele>41.4</ele><time>2026-05-01T08:14:34.726Z</time></trkpt><trkpt lat="43.76636" lon="11.202065"><ele>41.0</ele><time>2026-05-01T08:14:35.727Z</time></trkpt><trkpt lat="43.7662833" lon="11.20199"><ele>41.0</ele><time>2026-05-01T08:14:36.726Z</time></trkpt><trkpt lat="43.7662033" lon="11.201915"><ele>41.0</ele><time>2026-05-01T08:14:37.726Z</time></trkpt><trkpt lat="43.7661233" lon="11.20184"><ele>41.0</ele><time>2026-05-01T08:14:38.728Z</time></trkpt><trkpt lat="43.76604" lon="11.2017633"><ele>41.0</ele><time>2026-05-01T08:14:39.727Z</time></trkpt><trkpt lat="43.7659633" lon="11.2016833"><ele>41.0</ele><time>2026-05-01T08:14:40.726Z</time></trkpt><trkpt lat="43.7658817" lon="11.201615"><ele>40.8</ele><time>2026-05-01T08:14:41.728Z</time></trkpt><trkpt lat="43.7658" lon="11.2015467"><ele>40.599999999999994</ele><time>2026-05-01T08:14:42.726Z</time></trkpt><trkpt lat="43.7657183" lon="11.2014783"><ele>40.4</ele><time>2026-05-01T08:14:43.727Z</time></trkpt><trkpt lat="43.7656383" lon="11.2013883"><ele>40.2</ele><time>2026-05-01T08:14:44.726Z</time></trkpt><trkpt lat="43.765555" lon="11.2013083"><ele>40.0</ele><time>2026-05-01T08:14:45.729Z</time></trkpt><trkpt lat="43.76547" lon="11.20123"><ele>40.4</ele><time>2026-05-01T08:14:46.727Z</time></trkpt><trkpt lat="43.7653833" lon="11.2011517"><ele>40.8</ele><time>2026-05-01T08:14:47.728Z</time></trkpt><trkpt lat="43.765295" lon="11.2010717"><ele>41.2</ele><time>2026-05-01T08:14:48.727Z</time></trkpt><trkpt lat="43.7652067" lon="11.20099"><ele>41.6</ele><time>2026-05-01T08:14:49.727Z</time></trkpt><trkpt lat="43.7651167" lon="11.2009117"><ele>42.0</ele><time>2026-05-01T08:14:50.728Z</time></trkpt><trkpt lat="43.7650283" lon="11.20083"><ele>42.0</ele><time>2026-05-01T08:14:51.728Z</time></trkpt><trkpt lat="43.764945" lon="11.2007483"><ele>42.0</ele><time>2026-05-01T08:14:52.728Z</time></trkpt><trkpt lat="43.7648667" lon="11.2006783"><ele>42.0</ele><time>2026-05-01T08:14:53.727Z</time></trkpt><trkpt lat="43.764795" lon="11.2006117"><ele>42.0</ele><time>2026-05-01T08:14:54.726Z</time></trkpt><trkpt lat="43.764735" lon="11.2005517"><ele>42.0</ele><time>2026-05-01T08:14:55.727Z</time></trkpt><trkpt lat="43.7646833" lon="11.2004967"><ele>42.0</ele><time>2026-05-01T08:14:56.726Z</time></trkpt><trkpt lat="43.7646" lon="11.2003933"><ele>41.8</ele><time>2026-05-01T08:14:58.726Z</time></trkpt><trkpt lat="43.7645717" lon="11.200315"><ele>41.6</ele><time>2026-05-01T08:14:59.727Z</time></trkpt><trkpt lat="43.764575" lon="11.200135"><ele>41.4</ele><time>2026-05-01T08:15:01.727Z</time></trkpt><trkpt lat="43.7646033" lon="11.20002"><ele>41.199999999999996</ele><time>2026-05-01T08:15:02.727Z</time></trkpt><trkpt lat="43.7646483" lon="11.199895"><ele>41.0</ele><time>2026-05-01T08:15:03.725Z</time></trkpt><trkpt lat="43.7646867" lon="11.1997683"><ele>40.599999999999994</ele><time>2026-05-01T08:15:04.727Z</time></trkpt><trkpt lat="43.764705" lon="11.199635"><ele>40.199999999999996</ele><time>2026-05-01T08:15:05.727Z</time></trkpt><trkpt lat="43.7646867" lon="11.1995"><ele>39.8</ele><time>2026-05-01T08:15:06.727Z</time></trkpt><trkpt lat="43.764655" lon="11.199365"><ele>39.4</ele><time>2026-05-01T08:15:07.728Z</time></trkpt><trkpt lat="43.7646117" lon="11.1992167"><ele>39.0</ele><time>2026-05-01T08:15:08.728Z</time></trkpt><trkpt lat="43.7645617" lon="11.199065"><ele>39.25</ele><time>2026-05-01T08:15:09.727Z</time></trkpt><trkpt lat="43.7645033" lon="11.1989067"><ele>39.5</ele><time>2026-05-01T08:15:10.729Z</time></trkpt><trkpt lat="43.76445" lon="11.1987433"><ele>39.75</ele><time>2026-05-01T08:15:11.727Z</time></trkpt><trkpt lat="43.7644033" lon="11.1985767"><ele>40.0</ele><time>2026-05-01T08:15:12.728Z</time></trkpt><trkpt lat="43.7643583" lon="11.19841"><ele>39.75</ele><time>2026-05-01T08:15:13.727Z</time></trkpt><trkpt lat="43.7643117" lon="11.1982483"><ele>39.5</ele><time>2026-05-01T08:15:14.728Z</time></trkpt><trkpt lat="43.76427" lon="11.198085"><ele>39.25</ele><time>2026-05-01T08:15:15.727Z</time></trkpt><trkpt lat="43.7642283" lon="11.1979267"><ele>39.0</ele><time>2026-05-01T08:15:16.727Z</time></trkpt><trkpt lat="43.7641867" lon="11.1977717"><ele>39.0</ele><time>2026-05-01T08:15:17.728Z</time></trkpt><trkpt lat="43.76415" lon="11.197615"><ele>39.0</ele><time>2026-05-01T08:15:18.727Z</time></trkpt><trkpt lat="43.76412" lon="11.1974567"><ele>39.0</ele><time>2026-05-01T08:15:19.726Z</time></trkpt><trkpt lat="43.7640967" lon="11.1972917"><ele>39.0</ele><time>2026-05-01T08:15:20.728Z</time></trkpt><trkpt lat="43.7640767" lon="11.19713"><ele>39.0</ele><time>2026-05-01T08:15:21.728Z</time></trkpt><trkpt lat="43.7640583" lon="11.1969717"><ele>39.0</ele><time>2026-05-01T08:15:22.727Z</time></trkpt><trkpt lat="43.7640317" lon="11.196815"><ele>39.0</ele><time>2026-05-01T08:15:23.728Z</time></trkpt><trkpt lat="43.7639917" lon="11.19666"><ele>39.0</ele><time>2026-05-01T08:15:24.727Z</time></trkpt><trkpt lat="43.76394" lon="11.19651"><ele>39.25</ele><time>2026-05-01T08:15:25.727Z</time></trkpt><trkpt lat="43.7638817" lon="11.196365"><ele>39.5</ele><time>2026-05-01T08:15:26.727Z</time></trkpt><trkpt lat="43.7638183" lon="11.1962233"><ele>39.75</ele><time>2026-05-01T08:15:27.727Z</time></trkpt><trkpt lat="43.76375" lon="11.1960767"><ele>40.0</ele><time>2026-05-01T08:15:28.726Z</time></trkpt><trkpt lat="43.7636833" lon="11.195925"><ele>40.0</ele><time>2026-05-01T08:15:29.727Z</time></trkpt><trkpt lat="43.7636183" lon="11.1957633"><ele>40.0</ele><time>2026-05-01T08:15:30.727Z</time></trkpt><trkpt lat="43.76356" lon="11.1955883"><ele>40.0</ele><time>2026-05-01T08:15:31.727Z</time></trkpt><trkpt lat="43.763505" lon="11.1954067"><ele>40.0</ele><time>2026-05-01T08:15:32.726Z</time></trkpt><trkpt lat="43.763455" lon="11.195215"><ele>40.333333333333336</ele><time>2026-05-01T08:15:33.728Z</time></trkpt><trkpt lat="43.7634033" lon="11.1950217"><ele>40.666666666666664</ele><time>2026-05-01T08:15:34.726Z</time></trkpt><trkpt lat="43.7633533" lon="11.194825"><ele>41.0</ele><time>2026-05-01T08:15:35.727Z</time></trkpt><trkpt lat="43.763305" lon="11.1946183"><ele>41.33333333333333</ele><time>2026-05-01T08:15:36.727Z</time></trkpt><trkpt lat="43.763255" lon="11.19442"><ele>41.666666666666664</ele><time>2026-05-01T08:15:37.727Z</time></trkpt><trkpt lat="43.7632133" lon="11.194215"><ele>42.0</ele><time>2026-05-01T08:15:38.728Z</time></trkpt><trkpt lat="43.7631767" lon="11.194005"><ele>42.0</ele><time>2026-05-01T08:15:39.728Z</time></trkpt><trkpt lat="43.7631433" lon="11.1937883"><ele>42.0</ele><time>2026-05-01T08:15:40.728Z</time></trkpt><trkpt lat="43.7631117" lon="11.193575"><ele>42.0</ele><time>2026-05-01T08:15:41.727Z</time></trkpt><trkpt lat="43.76308" lon="11.1933633"><ele>41.333333333333336</ele><time>2026-05-01T08:15:42.726Z</time></trkpt><trkpt lat="43.7630483" lon="11.1931533"><ele>40.66666666666667</ele><time>2026-05-01T08:15:43.727Z</time></trkpt><trkpt lat="43.763015" lon="11.1929417"><ele>40.0</ele><time>2026-05-01T08:15:44.727Z</time></trkpt><trkpt lat="43.7629817" lon="11.1927317"><ele>40.0</ele><time>2026-05-01T08:15:45.729Z</time></trkpt><trkpt lat="43.76295" lon="11.1925233"><ele>40.0</ele><time>2026-05-01T08:15:46.727Z</time></trkpt><trkpt lat="43.7629283" lon="11.19232"><ele>40.0</ele><time>2026-05-01T08:15:47.728Z</time></trkpt><trkpt lat="43.7629" lon="11.19212"><ele>40.0</ele><time>2026-05-01T08:15:48.727Z</time></trkpt><trkpt lat="43.7628717" lon="11.19193"><ele>40.25</ele><time>2026-05-01T08:15:49.727Z</time></trkpt><trkpt lat="43.7628467" lon="11.19175"><ele>40.5</ele><time>2026-05-01T08:15:50.728Z</time></trkpt><trkpt lat="43.762825" lon="11.1915783"><ele>40.75</ele><time>2026-05-01T08:15:51.728Z</time></trkpt><trkpt lat="43.7628" lon="11.1914183"><ele>41.0</ele><time>2026-05-01T08:15:52.727Z</time></trkpt><trkpt lat="43.76278" lon="11.1912683"><ele>41.0</ele><time>2026-05-01T08:15:53.728Z</time></trkpt><trkpt lat="43.76276" lon="11.19112"><ele>41.0</ele><time>2026-05-01T08:15:54.728Z</time></trkpt><trkpt lat="43.76274" lon="11.1909967"><ele>41.0</ele><time>2026-05-01T08:15:55.726Z</time></trkpt><trkpt lat="43.7627217" lon="11.1908867"><ele>41.0</ele><time>2026-05-01T08:15:56.726Z</time></trkpt><trkpt lat="43.7627067" lon="11.19079"><ele>41.0</ele><time>2026-05-01T08:15:57.727Z</time></trkpt><trkpt lat="43.762685" lon="11.1906867"><ele>41.0</ele><time>2026-05-01T08:15:59.727Z</time></trkpt><trkpt lat="43.762675" lon="11.1905917"><ele>41.0</ele><time>2026-05-01T08:16:02.727Z</time></trkpt><trkpt lat="43.7626817" lon="11.1904833"><ele>41.0</ele><time>2026-05-01T08:16:04.727Z</time></trkpt><trkpt lat="43.7627033" lon="11.1903083"><ele>41.0</ele><time>2026-05-01T08:16:06.728Z</time></trkpt><trkpt lat="43.7627067" lon="11.1902167"><ele>41.0</ele><time>2026-05-01T08:16:07.727Z</time></trkpt><trkpt lat="43.7626917" lon="11.1901233"><ele>41.0</ele><time>2026-05-01T08:16:08.727Z</time></trkpt><trkpt lat="43.762665" lon="11.1900183"><ele>41.0</ele><time>2026-05-01T08:16:09.726Z</time></trkpt><trkpt lat="43.7626083" lon="11.1899133"><ele>41.0</ele><time>2026-05-01T08:16:10.727Z</time></trkpt><trkpt lat="43.7625533" lon="11.1898"><ele>41.0</ele><time>2026-05-01T08:16:11.727Z</time></trkpt><trkpt lat="43.7625067" lon="11.1896767"><ele>41.0</ele><time>2026-05-01T08:16:12.726Z</time></trkpt><trkpt lat="43.7624767" lon="11.18954"><ele>41.0</ele><time>2026-05-01T08:16:13.727Z</time></trkpt><trkpt lat="43.7624533" lon="11.1894017"><ele>41.0</ele><time>2026-05-01T08:16:14.727Z</time></trkpt><trkpt lat="43.76243" lon="11.1892583"><ele>41.0</ele><time>2026-05-01T08:16:15.727Z</time></trkpt><trkpt lat="43.7624033" lon="11.1891"><ele>41.0</ele><time>2026-05-01T08:16:16.727Z</time></trkpt><trkpt lat="43.762375" lon="11.1889433"><ele>41.0</ele><time>2026-05-01T08:16:17.728Z</time></trkpt><trkpt lat="43.7623483" lon="11.1887817"><ele>41.0</ele><time>2026-05-01T08:16:18.726Z</time></trkpt><trkpt lat="43.7623233" lon="11.188615"><ele>40.75</ele><time>2026-05-01T08:16:19.727Z</time></trkpt><trkpt lat="43.7622883" lon="11.188445"><ele>40.5</ele><time>2026-05-01T08:16:20.728Z</time></trkpt><trkpt lat="43.762255" lon="11.1882683"><ele>40.25</ele><time>2026-05-01T08:16:21.728Z</time></trkpt><trkpt lat="43.7622167" lon="11.1880883"><ele>40.0</ele><time>2026-05-01T08:16:22.727Z</time></trkpt><trkpt lat="43.7621733" lon="11.1879133"><ele>40.0</ele><time>2026-05-01T08:16:23.728Z</time></trkpt><trkpt lat="43.7621233" lon="11.1877383"><ele>40.0</ele><time>2026-05-01T08:16:24.728Z</time></trkpt><trkpt lat="43.7620683" lon="11.1875683"><ele>40.0</ele><time>2026-05-01T08:16:25.728Z</time></trkpt><trkpt lat="43.762015" lon="11.1874017"><ele>40.0</ele><time>2026-05-01T08:16:26.728Z</time></trkpt><trkpt lat="43.7619567" lon="11.1872367"><ele>40.0</ele><time>2026-05-01T08:16:27.727Z</time></trkpt><trkpt lat="43.7619" lon="11.187075"><ele>40.0</ele><time>2026-05-01T08:16:28.727Z</time></trkpt><trkpt lat="43.7618433" lon="11.1869117"><ele>40.0</ele><time>2026-05-01T08:16:29.726Z</time></trkpt><trkpt lat="43.7617867" lon="11.18675"><ele>40.0</ele><time>2026-05-01T08:16:30.728Z</time></trkpt><trkpt lat="43.7617317" lon="11.1865933"><ele>40.0</ele><time>2026-05-01T08:16:31.728Z</time></trkpt><trkpt lat="43.7616733" lon="11.1864433"><ele>40.0</ele><time>2026-05-01T08:16:32.728Z</time></trkpt><trkpt lat="43.7616117" lon="11.1863017"><ele>40.0</ele><time>2026-05-01T08:16:33.728Z</time></trkpt><trkpt lat="43.76155" lon="11.18617"><ele>40.0</ele><time>2026-05-01T08:16:34.726Z</time></trkpt><trkpt lat="43.761485" lon="11.1860433"><ele>40.0</ele><time>2026-05-01T08:16:35.727Z</time></trkpt><trkpt lat="43.76142" lon="11.18593"><ele>40.0</ele><time>2026-05-01T08:16:36.727Z</time></trkpt><trkpt lat="43.7613567" lon="11.1858367"><ele>40.0</ele><time>2026-05-01T08:16:37.726Z</time></trkpt><trkpt lat="43.7613017" lon="11.1857517"><ele>40.0</ele><time>2026-05-01T08:16:38.728Z</time></trkpt><trkpt lat="43.76126" lon="11.18567"><ele>40.0</ele><time>2026-05-01T08:16:39.728Z</time></trkpt><trkpt lat="43.7612283" lon="11.1855717"><ele>40.0</ele><time>2026-05-01T08:16:40.725Z</time></trkpt><trkpt lat="43.7612167" lon="11.18545"><ele>40.2</ele><time>2026-05-01T08:16:41.726Z</time></trkpt><trkpt lat="43.7612233" lon="11.1853233"><ele>40.4</ele><time>2026-05-01T08:16:42.727Z</time></trkpt><trkpt lat="43.76127" lon="11.185195"><ele>40.599999999999994</ele><time>2026-05-01T08:16:43.728Z</time></trkpt><trkpt lat="43.7613483" lon="11.1850917"><ele>40.8</ele><time>2026-05-01T08:16:44.728Z</time></trkpt><trkpt lat="43.7614267" lon="11.184985"><ele>41.0</ele><time>2026-05-01T08:16:45.727Z</time></trkpt><trkpt lat="43.76151" lon="11.1848717"><ele>41.199999999999996</ele><time>2026-05-01T08:16:46.727Z</time></trkpt><trkpt lat="43.761595" lon="11.18476"><ele>41.4</ele><time>2026-05-01T08:16:47.726Z</time></trkpt><trkpt lat="43.7616683" lon="11.184645"><ele>41.6</ele><time>2026-05-01T08:16:48.728Z</time></trkpt><trkpt lat="43.76174" lon="11.1845333"><ele>41.8</ele><time>2026-05-01T08:16:49.73Z</time></trkpt><trkpt lat="43.761805" lon="11.184425"><ele>42.0</ele><time>2026-05-01T08:16:50.729Z</time></trkpt><trkpt lat="43.7618617" lon="11.1843183"><ele>41.833333333333336</ele><time>2026-05-01T08:16:51.73Z</time></trkpt><trkpt lat="43.7619217" lon="11.184225"><ele>41.666666666666664</ele><time>2026-05-01T08:16:52.728Z</time></trkpt><trkpt lat="43.761975" lon="11.18413"><ele>41.5</ele><time>2026-05-01T08:16:53.729Z</time></trkpt><trkpt lat="43.762035" lon="11.1840317"><ele>41.33333333333333</ele><time>2026-05-01T08:16:54.728Z</time></trkpt><trkpt lat="43.7620817" lon="11.1839383"><ele>41.166666666666664</ele><time>2026-05-01T08:16:55.729Z</time></trkpt><trkpt lat="43.76213" lon="11.1838467"><ele>41.0</ele><time>2026-05-01T08:16:56.728Z</time></trkpt><trkpt lat="43.7621733" lon="11.1837683"><ele>41.0</ele><time>2026-05-01T08:16:57.726Z</time></trkpt><trkpt lat="43.7622233" lon="11.1836933"><ele>41.0</ele><time>2026-05-01T08:16:58.728Z</time></trkpt><trkpt lat="43.762265" lon="11.1836217"><ele>41.0</ele><time>2026-05-01T08:16:59.727Z</time></trkpt><trkpt lat="43.76231" lon="11.1834983"><ele>41.0</ele><time>2026-05-01T08:17:01.728Z</time></trkpt><trkpt lat="43.76231" lon="11.1833917"><ele>41.0</ele><time>2026-05-01T08:17:03.73Z</time></trkpt><trkpt lat="43.7622517" lon="11.183295"><ele>41.0</ele><time>2026-05-01T08:17:05.728Z</time></trkpt><trkpt lat="43.7621967" lon="11.1832467"><ele>41.0</ele><time>2026-05-01T08:17:06.728Z</time></trkpt><trkpt lat="43.7621333" lon="11.1831917"><ele>41.0</ele><time>2026-05-01T08:17:07.728Z</time></trkpt><trkpt lat="43.7620683" lon="11.1831317"><ele>41.0</ele><time>2026-05-01T08:17:08.728Z</time></trkpt><trkpt lat="43.7619933" lon="11.1830767"><ele>41.0</ele><time>2026-05-01T08:17:09.729Z</time></trkpt><trkpt lat="43.761915" lon="11.183015"><ele>41.0</ele><time>2026-05-01T08:17:10.726Z</time></trkpt><trkpt lat="43.761825" lon="11.18295"><ele>41.0</ele><time>2026-05-01T08:17:11.728Z</time></trkpt><trkpt lat="43.7617267" lon="11.1828717"><ele>41.25</ele><time>2026-05-01T08:17:12.726Z</time></trkpt><trkpt lat="43.7616233" lon="11.1827933"><ele>41.5</ele><time>2026-05-01T08:17:13.728Z</time></trkpt><trkpt lat="43.7615233" lon="11.1827083"><ele>41.75</ele><time>2026-05-01T08:17:14.728Z</time></trkpt><trkpt lat="43.761425" lon="11.1826183"><ele>42.0</ele><time>2026-05-01T08:17:15.728Z</time></trkpt><trkpt lat="43.7613267" lon="11.1825283"><ele>42.0</ele><time>2026-05-01T08:17:16.728Z</time></trkpt><trkpt lat="43.7612317" lon="11.1824467"><ele>42.0</ele><time>2026-05-01T08:17:17.729Z</time></trkpt><trkpt lat="43.76113" lon="11.1823617"><ele>42.0</ele><time>2026-05-01T08:17:18.728Z</time></trkpt><trkpt lat="43.7610217" lon="11.1822917"><ele>42.0</ele><time>2026-05-01T08:17:19.729Z</time></trkpt><trkpt lat="43.7609217" lon="11.18221"><ele>41.75</ele><time>2026-05-01T08:17:20.727Z</time></trkpt><trkpt lat="43.760825" lon="11.18213"><ele>41.5</ele><time>2026-05-01T08:17:21.728Z</time></trkpt><trkpt lat="43.7607233" lon="11.1820517"><ele>41.25</ele><time>2026-05-01T08:17:22.726Z</time></trkpt><trkpt lat="43.7606217" lon="11.1819717"><ele>41.0</ele><time>2026-05-01T08:17:23.729Z</time></trkpt><trkpt lat="43.7605183" lon="11.1818917"><ele>41.0</ele><time>2026-05-01T08:17:24.727Z</time></trkpt><trkpt lat="43.7604167" lon="11.1818117"><ele>41.0</ele><time>2026-05-01T08:17:25.728Z</time></trkpt><trkpt lat="43.760315" lon="11.1817317"><ele>41.0</ele><time>2026-05-01T08:17:26.728Z</time></trkpt><trkpt lat="43.7602117" lon="11.1816533"><ele>41.0</ele><time>2026-05-01T08:17:27.727Z</time></trkpt><trkpt lat="43.760115" lon="11.1815767"><ele>41.5</ele><time>2026-05-01T08:17:28.728Z</time></trkpt><trkpt lat="43.7600267" lon="11.18151"><ele>42.0</ele><time>2026-05-01T08:17:29.729Z</time></trkpt><trkpt lat="43.7599483" lon="11.181445"><ele>42.5</ele><time>2026-05-01T08:17:30.73Z</time></trkpt><trkpt lat="43.7598833" lon="11.18139"><ele>43.0</ele><time>2026-05-01T08:17:31.726Z</time></trkpt><trkpt lat="43.7598283" lon="11.18134"><ele>43.5</ele><time>2026-05-01T08:17:32.729Z</time></trkpt><trkpt lat="43.7597417" lon="11.18126"><ele>44.0</ele><time>2026-05-01T08:17:34.727Z</time></trkpt><trkpt lat="43.759685" lon="11.1812183"><ele>44.0</ele><time>2026-05-01T08:17:37.727Z</time></trkpt><trkpt lat="43.759615" lon="11.1811983"><ele>44.0</ele><time>2026-05-01T08:17:58.729Z</time></trkpt><trkpt lat="43.75955" lon="11.1811417"><ele>44.0</ele><time>2026-05-01T08:18:00.728Z</time></trkpt><trkpt lat="43.75945" lon="11.1810983"><ele>44.0</ele><time>2026-05-01T08:18:02.729Z</time></trkpt><trkpt lat="43.759345" lon="11.1810433"><ele>44.0</ele><time>2026-05-01T08:18:04.728Z</time></trkpt><trkpt lat="43.759225" lon="11.1809583"><ele>44.6</ele><time>2026-05-01T08:18:06.729Z</time></trkpt><trkpt lat="43.7591517" lon="11.18091"><ele>45.2</ele><time>2026-05-01T08:18:07.728Z</time></trkpt><trkpt lat="43.7590733" lon="11.18085"><ele>45.800000000000004</ele><time>2026-05-01T08:18:08.729Z</time></trkpt><trkpt lat="43.758985" lon="11.180795"><ele>46.400000000000006</ele><time>2026-05-01T08:18:09.727Z</time></trkpt><trkpt lat="43.7588967" lon="11.180715"><ele>47.0</ele><time>2026-05-01T08:18:10.728Z</time></trkpt><trkpt lat="43.7588117" lon="11.1806283"><ele>47.400000000000006</ele><time>2026-05-01T08:18:11.729Z</time></trkpt><trkpt lat="43.7587283" lon="11.18054"><ele>47.800000000000004</ele><time>2026-05-01T08:18:12.727Z</time></trkpt><trkpt lat="43.7586517" lon="11.1804467"><ele>48.2</ele><time>2026-05-01T08:18:13.729Z</time></trkpt><trkpt lat="43.7585717" lon="11.1803633"><ele>48.6</ele><time>2026-05-01T08:18:14.729Z</time></trkpt><trkpt lat="43.7584933" lon="11.1802817"><ele>49.0</ele><time>2026-05-01T08:18:15.729Z</time></trkpt><trkpt lat="43.7584133" lon="11.1801917"><ele>48.0</ele><time>2026-05-01T08:18:16.726Z</time></trkpt><trkpt lat="43.7583383" lon="11.1800867"><ele>47.0</ele><time>2026-05-01T08:18:17.729Z</time></trkpt><trkpt lat="43.7582633" lon="11.1799783"><ele>46.0</ele><time>2026-05-01T08:18:18.729Z</time></trkpt><trkpt lat="43.7581867" lon="11.1798683"><ele>45.0</ele><time>2026-05-01T08:18:19.728Z</time></trkpt><trkpt lat="43.7581133" lon="11.1797617"><ele>44.0</ele><time>2026-05-01T08:18:20.729Z</time></trkpt><trkpt lat="43.7580317" lon="11.1796633"><ele>44.0</ele><time>2026-05-01T08:18:21.728Z</time></trkpt><trkpt lat="43.7579367" lon="11.179585"><ele>44.0</ele><time>2026-05-01T08:18:22.729Z</time></trkpt><trkpt lat="43.7578433" lon="11.1795033"><ele>44.0</ele><time>2026-05-01T08:18:23.728Z</time></trkpt><trkpt lat="43.757755" lon="11.1794333"><ele>44.0</ele><time>2026-05-01T08:18:24.728Z</time></trkpt><trkpt lat="43.7576817" lon="11.179355"><ele>44.0</ele><time>2026-05-01T08:18:25.728Z</time></trkpt><trkpt lat="43.7576117" lon="11.17929"><ele>43.400000000000006</ele><time>2026-05-01T08:18:26.728Z</time></trkpt><trkpt lat="43.75755" lon="11.1792417"><ele>42.8</ele><time>2026-05-01T08:18:27.727Z</time></trkpt><trkpt lat="43.7574433" lon="11.1792417"><ele>42.2</ele><time>2026-05-01T08:18:29.728Z</time></trkpt><trkpt lat="43.7573983" lon="11.17936"><ele>41.599999999999994</ele><time>2026-05-01T08:18:30.728Z</time></trkpt><trkpt lat="43.7573417" lon="11.17949"><ele>41.0</ele><time>2026-05-01T08:18:31.727Z</time></trkpt><trkpt lat="43.757285" lon="11.17963"><ele>41.0</ele><time>2026-05-01T08:18:32.726Z</time></trkpt><trkpt lat="43.75723" lon="11.179775"><ele>41.0</ele><time>2026-05-01T08:18:33.726Z</time></trkpt><trkpt lat="43.75716" lon="11.1799167"><ele>41.0</ele><time>2026-05-01T08:18:34.726Z</time></trkpt><trkpt lat="43.7570867" lon="11.1800617"><ele>41.0</ele><time>2026-05-01T08:18:35.727Z</time></trkpt><trkpt lat="43.7570283" lon="11.1802183"><ele>41.5</ele><time>2026-05-01T08:18:36.727Z</time></trkpt><trkpt lat="43.7569783" lon="11.1803783"><ele>42.0</ele><time>2026-05-01T08:18:37.727Z</time></trkpt><trkpt lat="43.7569267" lon="11.180535"><ele>42.5</ele><time>2026-05-01T08:18:38.726Z</time></trkpt><trkpt lat="43.7568717" lon="11.1806783"><ele>43.0</ele><time>2026-05-01T08:18:39.727Z</time></trkpt><trkpt lat="43.7568167" lon="11.1808117"><ele>43.2</ele><time>2026-05-01T08:18:40.727Z</time></trkpt><trkpt lat="43.7567617" lon="11.180935"><ele>43.4</ele><time>2026-05-01T08:18:41.727Z</time></trkpt><trkpt lat="43.7567067" lon="11.1810517"><ele>43.6</ele><time>2026-05-01T08:18:42.726Z</time></trkpt><trkpt lat="43.7566517" lon="11.1811617"><ele>43.800000000000004</ele><time>2026-05-01T08:18:43.726Z</time></trkpt><trkpt lat="43.7565967" lon="11.18127"><ele>44.0</ele><time>2026-05-01T08:18:44.727Z</time></trkpt><trkpt lat="43.7565333" lon="11.1813583"><ele>44.0</ele><time>2026-05-01T08:18:45.727Z</time></trkpt><trkpt lat="43.7564667" lon="11.18145"><ele>44.0</ele><time>2026-05-01T08:18:46.727Z</time></trkpt><trkpt lat="43.756415" lon="11.18154"><ele>44.0</ele><time>2026-05-01T08:18:47.728Z</time></trkpt><trkpt lat="43.75638" lon="11.1816233"><ele>44.0</ele><time>2026-05-01T08:18:48.727Z</time></trkpt><trkpt lat="43.75633" lon="11.1816983"><ele>44.0</ele><time>2026-05-01T08:18:49.728Z</time></trkpt><trkpt lat="43.7562517" lon="11.18169"><ele>44.0</ele><time>2026-05-01T08:18:50.729Z</time></trkpt><trkpt lat="43.756175" lon="11.1816867"><ele>44.0</ele><time>2026-05-01T08:18:51.728Z</time></trkpt><trkpt lat="43.7560917" lon="11.1816533"><ele>44.0</ele><time>2026-05-01T08:18:52.727Z</time></trkpt><trkpt lat="43.7560033" lon="11.181585"><ele>44.0</ele><time>2026-05-01T08:18:53.727Z</time></trkpt><trkpt lat="43.755925" lon="11.18154"><ele>44.0</ele><time>2026-05-01T08:18:54.727Z</time></trkpt><trkpt lat="43.75585" lon="11.1815"><ele>44.0</ele><time>2026-05-01T08:18:55.726Z</time></trkpt><trkpt lat="43.7557583" lon="11.1815283"><ele>44.0</ele><time>2026-05-01T08:18:56.728Z</time></trkpt><trkpt lat="43.7556733" lon="11.1815717"><ele>44.400000000000006</ele><time>2026-05-01T08:18:57.728Z</time></trkpt><trkpt lat="43.7555967" lon="11.1816367"><ele>44.8</ele><time>2026-05-01T08:18:58.727Z</time></trkpt><trkpt lat="43.7555117" lon="11.1817317"><ele>45.2</ele><time>2026-05-01T08:18:59.728Z</time></trkpt><trkpt lat="43.7554167" lon="11.18185"><ele>45.599999999999994</ele><time>2026-05-01T08:19:00.727Z</time></trkpt><trkpt lat="43.755335" lon="11.1819667"><ele>46.0</ele><time>2026-05-01T08:19:01.729Z</time></trkpt><trkpt lat="43.7552417" lon="11.1820817"><ele>46.0</ele><time>2026-05-01T08:19:02.727Z</time></trkpt><trkpt lat="43.7551367" lon="11.1822033"><ele>46.0</ele><time>2026-05-01T08:19:03.727Z</time></trkpt><trkpt lat="43.7550383" lon="11.1823183"><ele>46.0</ele><time>2026-05-01T08:19:04.728Z</time></trkpt><trkpt lat="43.7549467" lon="11.18242"><ele>46.0</ele><time>2026-05-01T08:19:05.727Z</time></trkpt><trkpt lat="43.7548567" lon="11.1825183"><ele>46.0</ele><time>2026-05-01T08:19:06.728Z</time></trkpt><trkpt lat="43.7547717" lon="11.1826067"><ele>46.0</ele><time>2026-05-01T08:19:07.728Z</time></trkpt><trkpt lat="43.7546933" lon="11.182695"><ele>46.0</ele><time>2026-05-01T08:19:08.727Z</time></trkpt><trkpt lat="43.75463" lon="11.1827883"><ele>46.0</ele><time>2026-05-01T08:19:09.727Z</time></trkpt><trkpt lat="43.7545833" lon="11.1828917"><ele>46.0</ele><time>2026-05-01T08:19:10.728Z</time></trkpt><trkpt lat="43.754515" lon="11.1830117"><ele>46.0</ele><time>2026-05-01T08:19:11.727Z</time></trkpt><trkpt lat="43.7544533" lon="11.18313"><ele>46.0</ele><time>2026-05-01T08:19:12.729Z</time></trkpt><trkpt lat="43.75438" lon="11.1832433"><ele>46.0</ele><time>2026-05-01T08:19:13.727Z</time></trkpt><trkpt lat="43.7542917" lon="11.1833533"><ele>46.0</ele><time>2026-05-01T08:19:14.727Z</time></trkpt><trkpt lat="43.75421" lon="11.18346"><ele>46.0</ele><time>2026-05-01T08:19:15.727Z</time></trkpt><trkpt lat="43.7541267" lon="11.1835667"><ele>46.199999999999996</ele><time>2026-05-01T08:19:16.729Z</time></trkpt><trkpt lat="43.75405" lon="11.18368"><ele>46.4</ele><time>2026-05-01T08:19:17.727Z</time></trkpt><trkpt lat="43.7539883" lon="11.18381"><ele>46.6</ele><time>2026-05-01T08:19:18.728Z</time></trkpt><trkpt lat="43.7539433" lon="11.18394"><ele>46.8</ele><time>2026-05-01T08:19:19.727Z</time></trkpt><trkpt lat="43.7538967" lon="11.18406"><ele>47.0</ele><time>2026-05-01T08:19:20.729Z</time></trkpt><trkpt lat="43.75386" lon="11.1841817"><ele>47.166666666666664</ele><time>2026-05-01T08:19:21.727Z</time></trkpt><trkpt lat="43.753815" lon="11.1842967"><ele>47.33333333333333</ele><time>2026-05-01T08:19:22.727Z</time></trkpt><trkpt lat="43.7537583" lon="11.1843867"><ele>47.5</ele><time>2026-05-01T08:19:23.728Z</time></trkpt><trkpt lat="43.7536967" lon="11.184465"><ele>47.666666666666664</ele><time>2026-05-01T08:19:24.729Z</time></trkpt><trkpt lat="43.75362" lon="11.1845283"><ele>47.833333333333336</ele><time>2026-05-01T08:19:25.728Z</time></trkpt><trkpt lat="43.753545" lon="11.184585"><ele>48.0</ele><time>2026-05-01T08:19:26.727Z</time></trkpt><trkpt lat="43.7534783" lon="11.1846517"><ele>47.833333333333336</ele><time>2026-05-01T08:19:27.728Z</time></trkpt><trkpt lat="43.75342" lon="11.184735"><ele>47.666666666666664</ele><time>2026-05-01T08:19:28.727Z</time></trkpt><trkpt lat="43.7533633" lon="11.1848233"><ele>47.5</ele><time>2026-05-01T08:19:29.727Z</time></trkpt><trkpt lat="43.7533117" lon="11.1849117"><ele>47.33333333333333</ele><time>2026-05-01T08:19:30.726Z</time></trkpt><trkpt lat="43.753265" lon="11.184995"><ele>47.166666666666664</ele><time>2026-05-01T08:19:31.728Z</time></trkpt><trkpt lat="43.75321" lon="11.1851233"><ele>47.0</ele><time>2026-05-01T08:19:33.728Z</time></trkpt><trkpt lat="43.7531567" lon="11.1852383"><ele>47.0</ele><time>2026-05-01T08:19:35.728Z</time></trkpt><trkpt lat="43.75312" lon="11.1853133"><ele>47.0</ele><time>2026-05-01T08:19:36.726Z</time></trkpt><trkpt lat="43.7530717" lon="11.1854017"><ele>47.0</ele><time>2026-05-01T08:19:37.727Z</time></trkpt><trkpt lat="43.753015" lon="11.1855"><ele>47.0</ele><time>2026-05-01T08:19:38.728Z</time></trkpt><trkpt lat="43.7529667" lon="11.1855967"><ele>47.0</ele><time>2026-05-01T08:19:39.727Z</time></trkpt><trkpt lat="43.75293" lon="11.1856867"><ele>47.0</ele><time>2026-05-01T08:19:40.727Z</time></trkpt><trkpt lat="43.7528783" lon="11.1857517"><ele>47.0</ele><time>2026-05-01T08:19:41.727Z</time></trkpt><trkpt lat="43.752825" lon="11.185815"><ele>47.0</ele><time>2026-05-01T08:19:42.727Z</time></trkpt><trkpt lat="43.7527617" lon="11.1858633"><ele>47.0</ele><time>2026-05-01T08:19:43.728Z</time></trkpt><trkpt lat="43.7526583" lon="11.1859267"><ele>47.0</ele><time>2026-05-01T08:19:45.727Z</time></trkpt><trkpt lat="43.752545" lon="11.1859633"><ele>47.0</ele><time>2026-05-01T08:19:47.727Z</time></trkpt><trkpt lat="43.7524383" lon="11.1859183"><ele>47.166666666666664</ele><time>2026-05-01T08:19:49.728Z</time></trkpt><trkpt lat="43.752345" lon="11.1858467"><ele>47.33333333333333</ele><time>2026-05-01T08:19:51.726Z</time></trkpt><trkpt lat="43.7522517" lon="11.1858067"><ele>47.5</ele><time>2026-05-01T08:19:53.728Z</time></trkpt><trkpt lat="43.7521817" lon="11.1858083"><ele>47.666666666666664</ele><time>2026-05-01T08:19:55.728Z</time></trkpt><trkpt lat="43.752115" lon="11.1858683"><ele>47.833333333333336</ele><time>2026-05-01T08:19:58.728Z</time></trkpt><trkpt lat="43.7520633" lon="11.1859417"><ele>48.0</ele><time>2026-05-01T08:20:01.726Z</time></trkpt><trkpt lat="43.7520283" lon="11.1860233"><ele>48.0</ele><time>2026-05-01T08:20:04.728Z</time></trkpt><trkpt lat="43.7519683" lon="11.1861267"><ele>48.0</ele><time>2026-05-01T08:20:07.728Z</time></trkpt><trkpt lat="43.7519183" lon="11.1861867"><ele>48.0</ele><time>2026-05-01T08:20:09.728Z</time></trkpt><trkpt lat="43.7518533" lon="11.1862717"><ele>48.0</ele><time>2026-05-01T08:20:12.729Z</time></trkpt><trkpt lat="43.7517867" lon="11.186335"><ele>48.0</ele><time>2026-05-01T08:20:14.729Z</time></trkpt><trkpt lat="43.7517217" lon="11.1864367"><ele>48.0</ele><time>2026-05-01T08:20:16.727Z</time></trkpt><trkpt lat="43.751675" lon="11.1865283"><ele>47.833333333333336</ele><time>2026-05-01T08:20:18.726Z</time></trkpt><trkpt lat="43.7516217" lon="11.1865983"><ele>47.666666666666664</ele><time>2026-05-01T08:20:20.727Z</time></trkpt><trkpt lat="43.751535" lon="11.1866283"><ele>47.5</ele><time>2026-05-01T08:20:22.727Z</time></trkpt><trkpt lat="43.7514633" lon="11.1866167"><ele>47.33333333333333</ele><time>2026-05-01T08:20:23.727Z</time></trkpt><trkpt lat="43.7513667" lon="11.186525"><ele>47.166666666666664</ele><time>2026-05-01T08:20:25.728Z</time></trkpt><trkpt lat="43.7513083" lon="11.1864567"><ele>47.0</ele><time>2026-05-01T08:20:26.727Z</time></trkpt><trkpt lat="43.7512417" lon="11.1863767"><ele>47.0</ele><time>2026-05-01T08:20:27.726Z</time></trkpt><trkpt lat="43.7511633" lon="11.1862867"><ele>47.0</ele><time>2026-05-01T08:20:28.729Z</time></trkpt><trkpt lat="43.7510783" lon="11.1861767"><ele>47.0</ele><time>2026-05-01T08:20:29.727Z</time></trkpt><trkpt lat="43.7509883" lon="11.1860583"><ele>47.0</ele><time>2026-05-01T08:20:30.728Z</time></trkpt><trkpt lat="43.750895" lon="11.1859417"><ele>47.0</ele><time>2026-05-01T08:20:31.727Z</time></trkpt><trkpt lat="43.7508017" lon="11.1858283"><ele>47.0</ele><time>2026-05-01T08:20:32.729Z</time></trkpt><trkpt lat="43.7507117" lon="11.185715"><ele>47.0</ele><time>2026-05-01T08:20:33.728Z</time></trkpt><trkpt lat="43.750625" lon="11.1856"><ele>47.0</ele><time>2026-05-01T08:20:34.728Z</time></trkpt><trkpt lat="43.7505217" lon="11.1854883"><ele>47.0</ele><time>2026-05-01T08:20:35.729Z</time></trkpt><trkpt lat="43.7504433" lon="11.1853683"><ele>47.0</ele><time>2026-05-01T08:20:36.728Z</time></trkpt><trkpt lat="43.7503617" lon="11.1852533"><ele>47.0</ele><time>2026-05-01T08:20:37.728Z</time></trkpt><trkpt lat="43.7502783" lon="11.1851333"><ele>47.0</ele><time>2026-05-01T08:20:38.728Z</time></trkpt><trkpt lat="43.7502" lon="11.1850083"><ele>47.5</ele><time>2026-05-01T08:20:39.727Z</time></trkpt><trkpt lat="43.75012" lon="11.18488"><ele>48.0</ele><time>2026-05-01T08:20:40.727Z</time></trkpt><trkpt lat="43.75004" lon="11.184755"><ele>48.5</ele><time>2026-05-01T08:20:41.727Z</time></trkpt><trkpt lat="43.74996" lon="11.184635"><ele>49.0</ele><time>2026-05-01T08:20:42.729Z</time></trkpt><trkpt lat="43.74988" lon="11.1845117"><ele>49.0</ele><time>2026-05-01T08:20:43.728Z</time></trkpt><trkpt lat="43.7497983" lon="11.1843933"><ele>49.0</ele><time>2026-05-01T08:20:44.729Z</time></trkpt><trkpt lat="43.749715" lon="11.1842817"><ele>49.0</ele><time>2026-05-01T08:20:45.728Z</time></trkpt><trkpt lat="43.7496317" lon="11.1841667"><ele>49.0</ele><time>2026-05-01T08:20:46.728Z</time></trkpt><trkpt lat="43.7495517" lon="11.1840517"><ele>49.0</ele><time>2026-05-01T08:20:47.726Z</time></trkpt><trkpt lat="43.7494633" lon="11.1839333"><ele>49.0</ele><time>2026-05-01T08:20:48.727Z</time></trkpt><trkpt lat="43.7493767" lon="11.18381"><ele>49.0</ele><time>2026-05-01T08:20:49.728Z</time></trkpt><trkpt lat="43.7492833" lon="11.18368"><ele>49.0</ele><time>2026-05-01T08:20:50.728Z</time></trkpt><trkpt lat="43.7492017" lon="11.1835383"><ele>49.0</ele><time>2026-05-01T08:20:51.728Z</time></trkpt><trkpt lat="43.7491083" lon="11.1834067"><ele>49.0</ele><time>2026-05-01T08:20:52.727Z</time></trkpt><trkpt lat="43.749015" lon="11.1832767"><ele>49.0</ele><time>2026-05-01T08:20:53.728Z</time></trkpt><trkpt lat="43.7489133" lon="11.18315"><ele>49.0</ele><time>2026-05-01T08:20:54.727Z</time></trkpt><trkpt lat="43.7488133" lon="11.1830267"><ele>49.25</ele><time>2026-05-01T08:20:55.728Z</time></trkpt><trkpt lat="43.7487033" lon="11.182925"><ele>49.5</ele><time>2026-05-01T08:20:56.728Z</time></trkpt><trkpt lat="43.74859" lon="11.18283"><ele>49.75</ele><time>2026-05-01T08:20:57.726Z</time></trkpt><trkpt lat="43.748475" lon="11.18274"><ele>50.0</ele><time>2026-05-01T08:20:58.727Z</time></trkpt><trkpt lat="43.7483583" lon="11.1826517"><ele>50.0</ele><time>2026-05-01T08:20:59.731Z</time></trkpt><trkpt lat="43.7482417" lon="11.1825617"><ele>50.0</ele><time>2026-05-01T08:21:00.728Z</time></trkpt><trkpt lat="43.74812" lon="11.182465"><ele>50.0</ele><time>2026-05-01T08:21:01.727Z</time></trkpt><trkpt lat="43.747995" lon="11.1823583"><ele>50.0</ele><time>2026-05-01T08:21:02.727Z</time></trkpt><trkpt lat="43.7478733" lon="11.1822533"><ele>50.0</ele><time>2026-05-01T08:21:03.727Z</time></trkpt><trkpt lat="43.747745" lon="11.1821567"><ele>50.0</ele><time>2026-05-01T08:21:04.728Z</time></trkpt><trkpt lat="43.747625" lon="11.1820517"><ele>50.0</ele><time>2026-05-01T08:21:05.728Z</time></trkpt><trkpt lat="43.7475083" lon="11.1819417"><ele>50.0</ele><time>2026-05-01T08:21:06.727Z</time></trkpt><trkpt lat="43.7473917" lon="11.1818167"><ele>50.0</ele><time>2026-05-01T08:21:07.727Z</time></trkpt><trkpt lat="43.7472867" lon="11.1816867"><ele>50.0</ele><time>2026-05-01T08:21:08.728Z</time></trkpt><trkpt lat="43.7471883" lon="11.1815533"><ele>50.0</ele><time>2026-05-01T08:21:09.729Z</time></trkpt><trkpt lat="43.7470933" lon="11.181415"><ele>50.0</ele><time>2026-05-01T08:21:10.727Z</time></trkpt><trkpt lat="43.7470033" lon="11.1812717"><ele>50.25</ele><time>2026-05-01T08:21:11.728Z</time></trkpt><trkpt lat="43.7469117" lon="11.1811417"><ele>50.5</ele><time>2026-05-01T08:21:12.726Z</time></trkpt><trkpt lat="43.74682" lon="11.1810167"><ele>50.75</ele><time>2026-05-01T08:21:13.726Z</time></trkpt><trkpt lat="43.7467267" lon="11.180895"><ele>51.0</ele><time>2026-05-01T08:21:14.727Z</time></trkpt><trkpt lat="43.7466433" lon="11.1807633"><ele>51.0</ele><time>2026-05-01T08:21:15.726Z</time></trkpt><trkpt lat="43.74656" lon="11.18063"><ele>51.0</ele><time>2026-05-01T08:21:16.728Z</time></trkpt><trkpt lat="43.74648" lon="11.1804867"><ele>51.0</ele><time>2026-05-01T08:21:17.728Z</time></trkpt><trkpt lat="43.7464067" lon="11.180335"><ele>51.0</ele><time>2026-05-01T08:21:18.728Z</time></trkpt><trkpt lat="43.7463333" lon="11.18019"><ele>51.0</ele><time>2026-05-01T08:21:19.728Z</time></trkpt><trkpt lat="43.746255" lon="11.1800583"><ele>51.0</ele><time>2026-05-01T08:21:20.728Z</time></trkpt><trkpt lat="43.7461767" lon="11.179925"><ele>51.0</ele><time>2026-05-01T08:21:21.726Z</time></trkpt><trkpt lat="43.7460983" lon="11.1797933"><ele>51.0</ele><time>2026-05-01T08:21:22.728Z</time></trkpt><trkpt lat="43.7460117" lon="11.1796633"><ele>51.25</ele><time>2026-05-01T08:21:23.727Z</time></trkpt><trkpt lat="43.7459167" lon="11.1795283"><ele>51.5</ele><time>2026-05-01T08:21:24.728Z</time></trkpt><trkpt lat="43.7458067" lon="11.1793917"><ele>51.75</ele><time>2026-05-01T08:21:25.726Z</time></trkpt><trkpt lat="43.7456883" lon="11.1792567"><ele>52.0</ele><time>2026-05-01T08:21:26.728Z</time></trkpt><trkpt lat="43.7455567" lon="11.1791233"><ele>52.666666666666664</ele><time>2026-05-01T08:21:27.728Z</time></trkpt><trkpt lat="43.7454167" lon="11.1789967"><ele>53.33333333333333</ele><time>2026-05-01T08:21:28.728Z</time></trkpt><trkpt lat="43.7452733" lon="11.1788733"><ele>54.0</ele><time>2026-05-01T08:21:29.727Z</time></trkpt><trkpt lat="43.7451267" lon="11.178745"><ele>54.33333333333333</ele><time>2026-05-01T08:21:30.729Z</time></trkpt><trkpt lat="43.7449833" lon="11.1786067"><ele>54.666666666666664</ele><time>2026-05-01T08:21:31.727Z</time></trkpt><trkpt lat="43.7448483" lon="11.1784517"><ele>55.0</ele><time>2026-05-01T08:21:32.727Z</time></trkpt><trkpt lat="43.7447267" lon="11.178275"><ele>56.0</ele><time>2026-05-01T08:21:33.727Z</time></trkpt><trkpt lat="43.744615" lon="11.1780867"><ele>57.0</ele><time>2026-05-01T08:21:34.727Z</time></trkpt><trkpt lat="43.7445083" lon="11.1778867"><ele>58.0</ele><time>2026-05-01T08:21:35.727Z</time></trkpt><trkpt lat="43.744405" lon="11.177675"><ele>59.0</ele><time>2026-05-01T08:21:36.727Z</time></trkpt><trkpt lat="43.7443033" lon="11.17745"><ele>60.0</ele><time>2026-05-01T08:21:37.728Z</time></trkpt><trkpt lat="43.744195" lon="11.17723"><ele>61.0</ele><time>2026-05-01T08:21:38.728Z</time></trkpt><trkpt lat="43.7440833" lon="11.1770117"><ele>61.0</ele><time>2026-05-01T08:21:39.729Z</time></trkpt><trkpt lat="43.743965" lon="11.1767917"><ele>61.0</ele><time>2026-05-01T08:21:40.727Z</time></trkpt><trkpt lat="43.7438433" lon="11.1765883"><ele>61.0</ele><time>2026-05-01T08:21:41.728Z</time></trkpt><trkpt lat="43.7437033" lon="11.1764133"><ele>60.33333333333333</ele><time>2026-05-01T08:21:42.728Z</time></trkpt><trkpt lat="43.7435483" lon="11.1762733"><ele>59.66666666666667</ele><time>2026-05-01T08:21:43.729Z</time></trkpt><trkpt lat="43.7433783" lon="11.1761617"><ele>59.0</ele><time>2026-05-01T08:21:44.728Z</time></trkpt><trkpt lat="43.7431933" lon="11.17607"><ele>61.0</ele><time>2026-05-01T08:21:45.727Z</time></trkpt><trkpt lat="43.743005" lon="11.1759833"><ele>63.0</ele><time>2026-05-01T08:21:46.727Z</time></trkpt><trkpt lat="43.74282" lon="11.1758983"><ele>65.0</ele><time>2026-05-01T08:21:47.728Z</time></trkpt><trkpt lat="43.74263" lon="11.1758167"><ele>65.0</ele><time>2026-05-01T08:21:48.728Z</time></trkpt><trkpt lat="43.7424417" lon="11.1757283"><ele>65.0</ele><time>2026-05-01T08:21:49.728Z</time></trkpt><trkpt lat="43.74226" lon="11.1756317"><ele>65.0</ele><time>2026-05-01T08:21:50.728Z</time></trkpt><trkpt lat="43.7420817" lon="11.175535"><ele>65.0</ele><time>2026-05-01T08:21:51.728Z</time></trkpt><trkpt lat="43.74191" lon="11.1754183"><ele>65.0</ele><time>2026-05-01T08:21:52.728Z</time></trkpt><trkpt lat="43.7417367" lon="11.1752933"><ele>65.0</ele><time>2026-05-01T08:21:53.727Z</time></trkpt><trkpt lat="43.7415667" lon="11.17516"><ele>66.66666666666667</ele><time>2026-05-01T08:21:54.726Z</time></trkpt><trkpt lat="43.7413967" lon="11.1750217"><ele>68.33333333333333</ele><time>2026-05-01T08:21:55.728Z</time></trkpt><trkpt lat="43.74123" lon="11.17487"><ele>70.0</ele><time>2026-05-01T08:21:56.728Z</time></trkpt><trkpt lat="43.7410633" lon="11.1747167"><ele>70.33333333333333</ele><time>2026-05-01T08:21:57.728Z</time></trkpt><trkpt lat="43.740895" lon="11.1745733"><ele>70.66666666666667</ele><time>2026-05-01T08:21:58.728Z</time></trkpt><trkpt lat="43.7407267" lon="11.174445"><ele>71.0</ele><time>2026-05-01T08:21:59.729Z</time></trkpt><trkpt lat="43.7405567" lon="11.1743233"><ele>71.0</ele><time>2026-05-01T08:22:00.727Z</time></trkpt><trkpt lat="43.7403883" lon="11.1742183"><ele>71.0</ele><time>2026-05-01T08:22:01.727Z</time></trkpt><trkpt lat="43.7402183" lon="11.17412"><ele>71.0</ele><time>2026-05-01T08:22:02.727Z</time></trkpt><trkpt lat="43.7400383" lon="11.1740333"><ele>70.33333333333334</ele><time>2026-05-01T08:22:03.727Z</time></trkpt><trkpt lat="43.7398683" lon="11.1739233"><ele>69.66666666666667</ele><time>2026-05-01T08:22:04.726Z</time></trkpt><trkpt lat="43.7397067" lon="11.17381"><ele>69.0</ele><time>2026-05-01T08:22:05.727Z</time></trkpt><trkpt lat="43.7395517" lon="11.1737017"><ele>69.0</ele><time>2026-05-01T08:22:06.727Z</time></trkpt><trkpt lat="43.7394067" lon="11.1736"><ele>69.0</ele><time>2026-05-01T08:22:07.728Z</time></trkpt><trkpt lat="43.7392733" lon="11.1735017"><ele>69.0</ele><time>2026-05-01T08:22:08.728Z</time></trkpt><trkpt lat="43.7391667" lon="11.1733883"><ele>69.0</ele><time>2026-05-01T08:22:09.729Z</time></trkpt><trkpt lat="43.7390833" lon="11.173255"><ele>69.5</ele><time>2026-05-01T08:22:10.727Z</time></trkpt><trkpt lat="43.739015" lon="11.173095"><ele>70.0</ele><time>2026-05-01T08:22:11.728Z</time></trkpt><trkpt lat="43.738975" lon="11.1728933"><ele>70.5</ele><time>2026-05-01T08:22:12.728Z</time></trkpt><trkpt lat="43.73896" lon="11.1726717"><ele>71.0</ele><time>2026-05-01T08:22:13.727Z</time></trkpt><trkpt lat="43.7389617" lon="11.1724483"><ele>74.33333333333334</ele><time>2026-05-01T08:22:14.728Z</time></trkpt><trkpt lat="43.738995" lon="11.17224"><ele>77.66666666666667</ele><time>2026-05-01T08:22:15.728Z</time></trkpt><trkpt lat="43.739075" lon="11.17205"><ele>81.0</ele><time>2026-05-01T08:22:16.727Z</time></trkpt><trkpt lat="43.739185" lon="11.17189"><ele>81.0</ele><time>2026-05-01T08:22:17.728Z</time></trkpt><trkpt lat="43.7393167" lon="11.1717633"><ele>81.0</ele><time>2026-05-01T08:22:18.728Z</time></trkpt><trkpt lat="43.7394633" lon="11.17166"><ele>81.0</ele><time>2026-05-01T08:22:19.727Z</time></trkpt><trkpt lat="43.7396033" lon="11.171545"><ele>83.0</ele><time>2026-05-01T08:22:20.726Z</time></trkpt><trkpt lat="43.73973" lon="11.1713967"><ele>85.0</ele><time>2026-05-01T08:22:21.728Z</time></trkpt><trkpt lat="43.7398483" lon="11.17122"><ele>87.0</ele><time>2026-05-01T08:22:22.727Z</time></trkpt><trkpt lat="43.73997" lon="11.1710483"><ele>87.0</ele><time>2026-05-01T08:22:23.728Z</time></trkpt><trkpt lat="43.7400883" lon="11.1708867"><ele>87.0</ele><time>2026-05-01T08:22:24.727Z</time></trkpt><trkpt lat="43.7401933" lon="11.1707383"><ele>87.0</ele><time>2026-05-01T08:22:25.727Z</time></trkpt><trkpt lat="43.7402833" lon="11.1706017"><ele>88.0</ele><time>2026-05-01T08:22:26.728Z</time></trkpt><trkpt lat="43.7403517" lon="11.170455"><ele>89.0</ele><time>2026-05-01T08:22:27.728Z</time></trkpt><trkpt lat="43.740395" lon="11.1703033"><ele>90.0</ele><time>2026-05-01T08:22:28.727Z</time></trkpt><trkpt lat="43.7404067" lon="11.170145"><ele>91.0</ele><time>2026-05-01T08:22:29.728Z</time></trkpt><trkpt lat="43.7403933" lon="11.1699967"><ele>91.0</ele><time>2026-05-01T08:22:30.727Z</time></trkpt><trkpt lat="43.7403483" lon="11.1698717"><ele>91.0</ele><time>2026-05-01T08:22:31.727Z</time></trkpt><trkpt lat="43.7402767" lon="11.1697833"><ele>91.0</ele><time>2026-05-01T08:22:32.727Z</time></trkpt><trkpt lat="43.7401933" lon="11.1697167"><ele>91.0</ele><time>2026-05-01T08:22:33.726Z</time></trkpt><trkpt lat="43.740105" lon="11.169685"><ele>91.0</ele><time>2026-05-01T08:22:34.729Z</time></trkpt><trkpt lat="43.7400117" lon="11.16968"><ele>92.5</ele><time>2026-05-01T08:22:35.728Z</time></trkpt><trkpt lat="43.7399233" lon="11.1696883"><ele>94.0</ele><time>2026-05-01T08:22:36.729Z</time></trkpt><trkpt lat="43.7398217" lon="11.1697283"><ele>95.5</ele><time>2026-05-01T08:22:37.728Z</time></trkpt><trkpt lat="43.739685" lon="11.1698517"><ele>97.0</ele><time>2026-05-01T08:22:38.727Z</time></trkpt><trkpt lat="43.7395467" lon="11.1699833"><ele>97.0</ele><time>2026-05-01T08:22:39.728Z</time></trkpt><trkpt lat="43.7394133" lon="11.170115"><ele>97.0</ele><time>2026-05-01T08:22:40.728Z</time></trkpt><trkpt lat="43.7392717" lon="11.1702067"><ele>97.0</ele><time>2026-05-01T08:22:41.728Z</time></trkpt><trkpt lat="43.739125" lon="11.17025"><ele>100.66666666666667</ele><time>2026-05-01T08:22:42.728Z</time></trkpt><trkpt lat="43.7389783" lon="11.1702367"><ele>104.33333333333334</ele><time>2026-05-01T08:22:43.726Z</time></trkpt><trkpt lat="43.7388283" lon="11.17017"><ele>108.0</ele><time>2026-05-01T08:22:44.728Z</time></trkpt><trkpt lat="43.7386733" lon="11.1700767"><ele>108.33333333333334</ele><time>2026-05-01T08:22:45.727Z</time></trkpt><trkpt lat="43.73852" lon="11.1699517"><ele>108.66666666666667</ele><time>2026-05-01T08:22:46.726Z</time></trkpt><trkpt lat="43.7383583" lon="11.1698017"><ele>109.0</ele><time>2026-05-01T08:22:47.728Z</time></trkpt><trkpt lat="43.7381917" lon="11.169625"><ele>114.0</ele><time>2026-05-01T08:22:48.728Z</time></trkpt><trkpt lat="43.7380183" lon="11.1694633"><ele>119.0</ele><time>2026-05-01T08:22:49.728Z</time></trkpt><trkpt lat="43.7378367" lon="11.1693383"><ele>124.0</ele><time>2026-05-01T08:22:50.728Z</time></trkpt><trkpt lat="43.73764" lon="11.1692583"><ele>124.33333333333334</ele><time>2026-05-01T08:22:51.727Z</time></trkpt><trkpt lat="43.73744" lon="11.1692067"><ele>124.66666666666666</ele><time>2026-05-01T08:22:52.728Z</time></trkpt><trkpt lat="43.73724" lon="11.1691617"><ele>125.0</ele><time>2026-05-01T08:22:53.73Z</time></trkpt><trkpt lat="43.7370483" lon="11.1690917"><ele>128.66666666666666</ele><time>2026-05-01T08:22:54.728Z</time></trkpt><trkpt lat="43.7368683" lon="11.1689917"><ele>132.33333333333334</ele><time>2026-05-01T08:22:55.727Z</time></trkpt><trkpt lat="43.7366983" lon="11.1688583"><ele>136.0</ele><time>2026-05-01T08:22:56.727Z</time></trkpt><trkpt lat="43.7365367" lon="11.16869"><ele>136.0</ele><time>2026-05-01T08:22:57.727Z</time></trkpt><trkpt lat="43.73639" lon="11.168485"><ele>136.0</ele><time>2026-05-01T08:22:58.727Z</time></trkpt><trkpt lat="43.7362483" lon="11.1682517"><ele>136.0</ele><time>2026-05-01T08:22:59.728Z</time></trkpt><trkpt lat="43.7361117" lon="11.1680167"><ele>138.33333333333334</ele><time>2026-05-01T08:23:00.728Z</time></trkpt><trkpt lat="43.73597" lon="11.1677817"><ele>140.66666666666666</ele><time>2026-05-01T08:23:01.728Z</time></trkpt><trkpt lat="43.73583" lon="11.1675467"><ele>143.0</ele><time>2026-05-01T08:23:02.728Z</time></trkpt><trkpt lat="43.7356983" lon="11.1673217"><ele>147.0</ele><time>2026-05-01T08:23:03.727Z</time></trkpt><trkpt lat="43.7355867" lon="11.167095"><ele>151.0</ele><time>2026-05-01T08:23:04.726Z</time></trkpt><trkpt lat="43.735495" lon="11.1668617"><ele>155.0</ele><time>2026-05-01T08:23:05.727Z</time></trkpt><trkpt lat="43.73543" lon="11.1666033"><ele>155.66666666666666</ele><time>2026-05-01T08:23:06.728Z</time></trkpt><trkpt lat="43.73539" lon="11.1663333"><ele>156.33333333333334</ele><time>2026-05-01T08:23:07.728Z</time></trkpt><trkpt lat="43.7353717" lon="11.16605"><ele>157.0</ele><time>2026-05-01T08:23:08.727Z</time></trkpt><trkpt lat="43.7353717" lon="11.16576"><ele>158.0</ele><time>2026-05-01T08:23:09.727Z</time></trkpt><trkpt lat="43.7353933" lon="11.1654533"><ele>159.0</ele><time>2026-05-01T08:23:10.727Z</time></trkpt><trkpt lat="43.7354133" lon="11.1651433"><ele>160.0</ele><time>2026-05-01T08:23:11.727Z</time></trkpt><trkpt lat="43.7354283" lon="11.164835"><ele>163.0</ele><time>2026-05-01T08:23:12.728Z</time></trkpt><trkpt lat="43.7354417" lon="11.1645317"><ele>166.0</ele><time>2026-05-01T08:23:13.727Z</time></trkpt><trkpt lat="43.7354617" lon="11.1642333"><ele>169.0</ele><time>2026-05-01T08:23:14.727Z</time></trkpt><trkpt lat="43.7354867" lon="11.16394"><ele>170.33333333333334</ele><time>2026-05-01T08:23:15.726Z</time></trkpt><trkpt lat="43.7355367" lon="11.1636483"><ele>171.66666666666666</ele><time>2026-05-01T08:23:16.728Z</time></trkpt><trkpt lat="43.7355983" lon="11.1633667"><ele>173.0</ele><time>2026-05-01T08:23:17.728Z</time></trkpt><trkpt lat="43.7356667" lon="11.163085"><ele>173.0</ele><time>2026-05-01T08:23:18.728Z</time></trkpt><trkpt lat="43.7357367" lon="11.1628"><ele>173.0</ele><time>2026-05-01T08:23:19.728Z</time></trkpt><trkpt lat="43.7358083" lon="11.1625183"><ele>173.0</ele><time>2026-05-01T08:23:20.728Z</time></trkpt><trkpt lat="43.7358767" lon="11.1622317"><ele>173.0</ele><time>2026-05-01T08:23:21.727Z</time></trkpt><trkpt lat="43.7359233" lon="11.1619317"><ele>173.0</ele><time>2026-05-01T08:23:22.728Z</time></trkpt><trkpt lat="43.7359517" lon="11.1616217"><ele>173.0</ele><time>2026-05-01T08:23:23.728Z</time></trkpt><trkpt lat="43.7359667" lon="11.1613167"><ele>174.0</ele><time>2026-05-01T08:23:24.728Z</time></trkpt><trkpt lat="43.7359833" lon="11.161015"><ele>175.0</ele><time>2026-05-01T08:23:25.728Z</time></trkpt><trkpt lat="43.736" lon="11.1607183"><ele>176.0</ele><time>2026-05-01T08:23:26.729Z</time></trkpt><trkpt lat="43.73601" lon="11.1604367"><ele>177.66666666666666</ele><time>2026-05-01T08:23:27.727Z</time></trkpt><trkpt lat="43.736" lon="11.160165"><ele>179.33333333333334</ele><time>2026-05-01T08:23:28.728Z</time></trkpt><trkpt lat="43.7359667" lon="11.159895"><ele>181.0</ele><time>2026-05-01T08:23:29.727Z</time></trkpt><trkpt lat="43.7359067" lon="11.15963"><ele>183.33333333333334</ele><time>2026-05-01T08:23:30.728Z</time></trkpt><trkpt lat="43.735815" lon="11.1593833"><ele>185.66666666666666</ele><time>2026-05-01T08:23:31.726Z</time></trkpt><trkpt lat="43.7357" lon="11.159145"><ele>188.0</ele><time>2026-05-01T08:23:32.728Z</time></trkpt><trkpt lat="43.7355833" lon="11.1589217"><ele>189.0</ele><time>2026-05-01T08:23:33.727Z</time></trkpt><trkpt lat="43.735465" lon="11.158725"><ele>190.0</ele><time>2026-05-01T08:23:34.728Z</time></trkpt><trkpt lat="43.735335" lon="11.15857"><ele>191.0</ele><time>2026-05-01T08:23:35.727Z</time></trkpt><trkpt lat="43.735185" lon="11.15847"><ele>194.0</ele><time>2026-05-01T08:23:36.728Z</time></trkpt><trkpt lat="43.73502" lon="11.1584217"><ele>197.0</ele><time>2026-05-01T08:23:37.728Z</time></trkpt><trkpt lat="43.7348433" lon="11.1583783"><ele>200.0</ele><time>2026-05-01T08:23:38.727Z</time></trkpt><trkpt lat="43.7346533" lon="11.1583417"><ele>200.0</ele><time>2026-05-01T08:23:39.729Z</time></trkpt><trkpt lat="43.73446" lon="11.15829"><ele>200.0</ele><time>2026-05-01T08:23:40.727Z</time></trkpt><trkpt lat="43.7342733" lon="11.1582283"><ele>200.0</ele><time>2026-05-01T08:23:41.728Z</time></trkpt><trkpt lat="43.734095" lon="11.1581433"><ele>205.33333333333334</ele><time>2026-05-01T08:23:42.728Z</time></trkpt><trkpt lat="43.73393" lon="11.1580333"><ele>210.66666666666669</ele><time>2026-05-01T08:23:43.727Z</time></trkpt><trkpt lat="43.7337817" lon="11.157895"><ele>216.0</ele><time>2026-05-01T08:23:44.729Z</time></trkpt><trkpt lat="43.73366" lon="11.1577267"><ele>216.0</ele><time>2026-05-01T08:23:45.728Z</time></trkpt><trkpt lat="43.733565" lon="11.1575417"><ele>216.0</ele><time>2026-05-01T08:23:46.727Z</time></trkpt><trkpt lat="43.7334933" lon="11.1573483"><ele>216.0</ele><time>2026-05-01T08:23:47.728Z</time></trkpt><trkpt lat="43.7334283" lon="11.1571633"><ele>218.5</ele><time>2026-05-01T08:23:48.727Z</time></trkpt><trkpt lat="43.7333767" lon="11.1569733"><ele>221.0</ele><time>2026-05-01T08:23:49.728Z</time></trkpt><trkpt lat="43.733335" lon="11.15678"><ele>223.5</ele><time>2026-05-01T08:23:50.728Z</time></trkpt><trkpt lat="43.7333017" lon="11.1565817"><ele>226.0</ele><time>2026-05-01T08:23:51.726Z</time></trkpt><trkpt lat="43.7332867" lon="11.1563733"><ele>227.66666666666666</ele><time>2026-05-01T08:23:52.727Z</time></trkpt><trkpt lat="43.7332883" lon="11.1561667"><ele>229.33333333333331</ele><time>2026-05-01T08:23:53.727Z</time></trkpt><trkpt lat="43.733305" lon="11.155955"><ele>231.0</ele><time>2026-05-01T08:23:54.727Z</time></trkpt><trkpt lat="43.7333233" lon="11.1557383"><ele>234.33333333333331</ele><time>2026-05-01T08:23:55.728Z</time></trkpt><trkpt lat="43.73335" lon="11.1555267"><ele>237.66666666666666</ele><time>2026-05-01T08:23:56.727Z</time></trkpt><trkpt lat="43.733375" lon="11.1553033"><ele>241.0</ele><time>2026-05-01T08:23:57.728Z</time></trkpt><trkpt lat="43.7334" lon="11.1550667"><ele>243.0</ele><time>2026-05-01T08:23:58.729Z</time></trkpt><trkpt lat="43.7334333" lon="11.154835"><ele>245.0</ele><time>2026-05-01T08:23:59.728Z</time></trkpt><trkpt lat="43.7334667" lon="11.1545933"><ele>247.0</ele><time>2026-05-01T08:24:00.729Z</time></trkpt><trkpt lat="43.733495" lon="11.154355"><ele>247.0</ele><time>2026-05-01T08:24:01.726Z</time></trkpt><trkpt lat="43.7335367" lon="11.15412"><ele>247.0</ele><time>2026-05-01T08:24:02.728Z</time></trkpt><trkpt lat="43.73357" lon="11.1538817"><ele>247.0</ele><time>2026-05-01T08:24:03.728Z</time></trkpt><trkpt lat="43.7335933" lon="11.1536483"><ele>247.0</ele><time>2026-05-01T08:24:04.728Z</time></trkpt><trkpt lat="43.7336167" lon="11.153415"><ele>247.0</ele><time>2026-05-01T08:24:05.728Z</time></trkpt><trkpt lat="43.7336417" lon="11.15319"><ele>247.0</ele><time>2026-05-01T08:24:06.727Z</time></trkpt><trkpt lat="43.73367" lon="11.1529683"><ele>247.0</ele><time>2026-05-01T08:24:07.728Z</time></trkpt><trkpt lat="43.733695" lon="11.152755"><ele>247.0</ele><time>2026-05-01T08:24:08.728Z</time></trkpt><trkpt lat="43.733735" lon="11.152535"><ele>247.0</ele><time>2026-05-01T08:24:09.727Z</time></trkpt><trkpt lat="43.7337767" lon="11.152335"><ele>252.33333333333331</ele><time>2026-05-01T08:24:10.728Z</time></trkpt><trkpt lat="43.7338383" lon="11.1521417"><ele>257.6666666666667</ele><time>2026-05-01T08:24:11.727Z</time></trkpt><trkpt lat="43.7339117" lon="11.1519567"><ele>263.0</ele><time>2026-05-01T08:24:12.728Z</time></trkpt><trkpt lat="43.7340183" lon="11.1518167"><ele>263.0</ele><time>2026-05-01T08:24:13.728Z</time></trkpt><trkpt lat="43.7340967" lon="11.1516717"><ele>263.0</ele><time>2026-05-01T08:24:14.728Z</time></trkpt><trkpt lat="43.7341567" lon="11.1515317"><ele>263.0</ele><time>2026-05-01T08:24:15.727Z</time></trkpt><trkpt lat="43.73417" lon="11.151355"><ele>263.0</ele><time>2026-05-01T08:24:16.728Z</time></trkpt><trkpt lat="43.7341533" lon="11.1511783"><ele>263.75</ele><time>2026-05-01T08:24:17.727Z</time></trkpt><trkpt lat="43.7341067" lon="11.15102"><ele>264.5</ele><time>2026-05-01T08:24:18.727Z</time></trkpt><trkpt lat="43.73403" lon="11.150885"><ele>265.25</ele><time>2026-05-01T08:24:19.727Z</time></trkpt><trkpt lat="43.73391" lon="11.1507867"><ele>266.0</ele><time>2026-05-01T08:24:20.728Z</time></trkpt><trkpt lat="43.7337783" lon="11.1507267"><ele>268.0</ele><time>2026-05-01T08:24:21.728Z</time></trkpt><trkpt lat="43.73365" lon="11.1507067"><ele>270.0</ele><time>2026-05-01T08:24:22.728Z</time></trkpt><trkpt lat="43.73351" lon="11.150725"><ele>272.0</ele><time>2026-05-01T08:24:23.727Z</time></trkpt><trkpt lat="43.7333767" lon="11.1507417"><ele>274.0</ele><time>2026-05-01T08:24:24.727Z</time></trkpt><trkpt lat="43.7332617" lon="11.15072"><ele>269.3333333333333</ele><time>2026-05-01T08:24:25.727Z</time></trkpt><trkpt lat="43.7331117" lon="11.1506817"><ele>264.6666666666667</ele><time>2026-05-01T08:24:26.728Z</time></trkpt><trkpt lat="43.7329617" lon="11.1506283"><ele>260.0</ele><time>2026-05-01T08:24:27.728Z</time></trkpt><trkpt lat="43.7328233" lon="11.15055"><ele>265.0</ele><time>2026-05-01T08:24:28.727Z</time></trkpt><trkpt lat="43.732705" lon="11.1504283"><ele>270.0</ele><time>2026-05-01T08:24:29.727Z</time></trkpt><trkpt lat="43.7325717" lon="11.1502733"><ele>275.0</ele><time>2026-05-01T08:24:30.727Z</time></trkpt><trkpt lat="43.732485" lon="11.1500733"><ele>275.0</ele><time>2026-05-01T08:24:31.728Z</time></trkpt><trkpt lat="43.7323367" lon="11.1499017"><ele>275.0</ele><time>2026-05-01T08:24:32.726Z</time></trkpt><trkpt lat="43.73219" lon="11.149735"><ele>275.0</ele><time>2026-05-01T08:24:33.727Z</time></trkpt><trkpt lat="43.7320217" lon="11.14959"><ele>273.0</ele><time>2026-05-01T08:24:34.728Z</time></trkpt><trkpt lat="43.7318233" lon="11.1495"><ele>271.0</ele><time>2026-05-01T08:24:35.728Z</time></trkpt><trkpt lat="43.73165" lon="11.1494067"><ele>269.0</ele><time>2026-05-01T08:24:36.727Z</time></trkpt><trkpt lat="43.7314617" lon="11.1493467"><ele>269.0</ele><time>2026-05-01T08:24:37.729Z</time></trkpt><trkpt lat="43.73126" lon="11.1493167"><ele>269.0</ele><time>2026-05-01T08:24:38.728Z</time></trkpt><trkpt lat="43.7310583" lon="11.1492833"><ele>269.0</ele><time>2026-05-01T08:24:39.727Z</time></trkpt><trkpt lat="43.7308517" lon="11.1492267"><ele>271.33333333333337</ele><time>2026-05-01T08:24:40.728Z</time></trkpt><trkpt lat="43.7306483" lon="11.1491467"><ele>273.6666666666667</ele><time>2026-05-01T08:24:41.726Z</time></trkpt><trkpt lat="43.7304433" lon="11.1490533"><ele>276.0</ele><time>2026-05-01T08:24:42.728Z</time></trkpt><trkpt lat="43.7302383" lon="11.1489583"><ele>271.0</ele><time>2026-05-01T08:24:43.728Z</time></trkpt><trkpt lat="43.7300283" lon="11.1488683"><ele>266.0</ele><time>2026-05-01T08:24:44.729Z</time></trkpt><trkpt lat="43.7298283" lon="11.1487933"><ele>261.0</ele><time>2026-05-01T08:24:45.728Z</time></trkpt><trkpt lat="43.7296133" lon="11.148715"><ele>261.0</ele><time>2026-05-01T08:24:46.728Z</time></trkpt><trkpt lat="43.7294" lon="11.1486367"><ele>261.0</ele><time>2026-05-01T08:24:47.727Z</time></trkpt><trkpt lat="43.72919" lon="11.14857"><ele>261.0</ele><time>2026-05-01T08:24:48.726Z</time></trkpt><trkpt lat="43.7289767" lon="11.148495"><ele>267.0</ele><time>2026-05-01T08:24:49.727Z</time></trkpt><trkpt lat="43.7287617" lon="11.1484283"><ele>273.0</ele><time>2026-05-01T08:24:50.729Z</time></trkpt><trkpt lat="43.7285317" lon="11.148385"><ele>277.0</ele><time>2026-05-01T08:24:51.727Z</time></trkpt><trkpt lat="43.72832" lon="11.148325"><ele>281.0</ele><time>2026-05-01T08:24:52.728Z</time></trkpt><trkpt lat="43.7281183" lon="11.1482683"><ele>285.0</ele><time>2026-05-01T08:24:53.729Z</time></trkpt><trkpt lat="43.7279167" lon="11.148235"><ele>286.3333333333333</ele><time>2026-05-01T08:24:54.728Z</time></trkpt><trkpt lat="43.727715" lon="11.14824"><ele>287.66666666666663</ele><time>2026-05-01T08:24:55.728Z</time></trkpt><trkpt lat="43.72753" lon="11.1482767"><ele>289.0</ele><time>2026-05-01T08:24:56.728Z</time></trkpt><trkpt lat="43.727355" lon="11.1483117"><ele>289.0</ele><time>2026-05-01T08:24:57.728Z</time></trkpt><trkpt lat="43.7271733" lon="11.1483083"><ele>289.0</ele><time>2026-05-01T08:24:58.728Z</time></trkpt><trkpt lat="43.7269933" lon="11.14826"><ele>289.0</ele><time>2026-05-01T08:24:59.727Z</time></trkpt><trkpt lat="43.7268367" lon="11.1481533"><ele>287.3333333333333</ele><time>2026-05-01T08:25:00.728Z</time></trkpt><trkpt lat="43.7266783" lon="11.1480217"><ele>285.6666666666667</ele><time>2026-05-01T08:25:01.727Z</time></trkpt><trkpt lat="43.7265167" lon="11.1478767"><ele>284.0</ele><time>2026-05-01T08:25:02.727Z</time></trkpt><trkpt lat="43.7263533" lon="11.14773"><ele>284.0</ele><time>2026-05-01T08:25:03.728Z</time></trkpt><trkpt lat="43.7261867" lon="11.1475917"><ele>284.0</ele><time>2026-05-01T08:25:04.728Z</time></trkpt><trkpt lat="43.726025" lon="11.147475"><ele>284.0</ele><time>2026-05-01T08:25:05.728Z</time></trkpt><trkpt lat="43.7258683" lon="11.1473883"><ele>286.0</ele><time>2026-05-01T08:25:06.727Z</time></trkpt><trkpt lat="43.7257183" lon="11.14735"><ele>288.0</ele><time>2026-05-01T08:25:07.729Z</time></trkpt><trkpt lat="43.7255633" lon="11.1473683"><ele>290.0</ele><time>2026-05-01T08:25:08.728Z</time></trkpt><trkpt lat="43.725395" lon="11.1474333"><ele>294.0</ele><time>2026-05-01T08:25:09.726Z</time></trkpt><trkpt lat="43.725225" lon="11.1474967"><ele>298.0</ele><time>2026-05-01T08:25:10.726Z</time></trkpt><trkpt lat="43.7250533" lon="11.147545"><ele>302.0</ele><time>2026-05-01T08:25:11.728Z</time></trkpt><trkpt lat="43.72489" lon="11.147555"><ele>302.0</ele><time>2026-05-01T08:25:12.727Z</time></trkpt><trkpt lat="43.7247267" lon="11.147525"><ele>302.0</ele><time>2026-05-01T08:25:13.728Z</time></trkpt><trkpt lat="43.7245667" lon="11.1474483"><ele>302.0</ele><time>2026-05-01T08:25:14.728Z</time></trkpt><trkpt lat="43.7244133" lon="11.1473417"><ele>300.0</ele><time>2026-05-01T08:25:15.728Z</time></trkpt><trkpt lat="43.72427" lon="11.147205"><ele>298.0</ele><time>2026-05-01T08:25:16.727Z</time></trkpt><trkpt lat="43.72414" lon="11.1470417"><ele>296.0</ele><time>2026-05-01T08:25:17.728Z</time></trkpt><trkpt lat="43.72401" lon="11.14686"><ele>296.0</ele><time>2026-05-01T08:25:18.727Z</time></trkpt><trkpt lat="43.7238767" lon="11.1466733"><ele>296.0</ele><time>2026-05-01T08:25:19.728Z</time></trkpt><trkpt lat="43.723745" lon="11.1464933"><ele>296.0</ele><time>2026-05-01T08:25:20.729Z</time></trkpt><trkpt lat="43.7236133" lon="11.14631"><ele>296.6666666666667</ele><time>2026-05-01T08:25:21.727Z</time></trkpt><trkpt lat="43.7234867" lon="11.14614"><ele>297.3333333333333</ele><time>2026-05-01T08:25:22.728Z</time></trkpt><trkpt lat="43.723365" lon="11.1459783"><ele>298.0</ele><time>2026-05-01T08:25:23.727Z</time></trkpt><trkpt lat="43.72325" lon="11.145825"><ele>300.0</ele><time>2026-05-01T08:25:24.727Z</time></trkpt><trkpt lat="43.7231383" lon="11.1456833"><ele>302.0</ele><time>2026-05-01T08:25:25.728Z</time></trkpt><trkpt lat="43.7230317" lon="11.145545"><ele>304.0</ele><time>2026-05-01T08:25:26.727Z</time></trkpt><trkpt lat="43.7229217" lon="11.1454183"><ele>306.0</ele><time>2026-05-01T08:25:27.727Z</time></trkpt><trkpt lat="43.7227917" lon="11.1453183"><ele>306.3333333333333</ele><time>2026-05-01T08:25:28.729Z</time></trkpt><trkpt lat="43.7226483" lon="11.14526"><ele>306.66666666666663</ele><time>2026-05-01T08:25:29.728Z</time></trkpt><trkpt lat="43.72249" lon="11.145245"><ele>307.0</ele><time>2026-05-01T08:25:30.728Z</time></trkpt><trkpt lat="43.722335" lon="11.145275"><ele>307.0</ele><time>2026-05-01T08:25:31.728Z</time></trkpt><trkpt lat="43.722175" lon="11.1453483"><ele>307.0</ele><time>2026-05-01T08:25:32.727Z</time></trkpt><trkpt lat="43.722015" lon="11.1454133"><ele>307.0</ele><time>2026-05-01T08:25:33.727Z</time></trkpt><trkpt lat="43.7218533" lon="11.1454633"><ele>306.66666666666663</ele><time>2026-05-01T08:25:34.728Z</time></trkpt><trkpt lat="43.721695" lon="11.14547"><ele>306.3333333333333</ele><time>2026-05-01T08:25:35.728Z</time></trkpt><trkpt lat="43.72154" lon="11.1454267"><ele>306.0</ele><time>2026-05-01T08:25:36.727Z</time></trkpt><trkpt lat="43.721385" lon="11.1453583"><ele>306.0</ele><time>2026-05-01T08:25:37.729Z</time></trkpt><trkpt lat="43.7212383" lon="11.145295"><ele>306.0</ele><time>2026-05-01T08:25:38.729Z</time></trkpt><trkpt lat="43.721095" lon="11.145255"><ele>306.0</ele><time>2026-05-01T08:25:39.728Z</time></trkpt><trkpt lat="43.7209533" lon="11.1452617"><ele>306.0</ele><time>2026-05-01T08:25:40.728Z</time></trkpt><trkpt lat="43.7208117" lon="11.1452783"><ele>306.6666666666667</ele><time>2026-05-01T08:25:41.727Z</time></trkpt><trkpt lat="43.7206617" lon="11.1453733"><ele>307.33333333333337</ele><time>2026-05-01T08:25:42.727Z</time></trkpt><trkpt lat="43.720505" lon="11.1454733"><ele>308.0</ele><time>2026-05-01T08:25:43.727Z</time></trkpt><trkpt lat="43.7203367" lon="11.1455583"><ele>308.33333333333337</ele><time>2026-05-01T08:25:44.728Z</time></trkpt><trkpt lat="43.72017" lon="11.145595"><ele>308.6666666666667</ele><time>2026-05-01T08:25:45.727Z</time></trkpt><trkpt lat="43.7199917" lon="11.1455933"><ele>309.0</ele><time>2026-05-01T08:25:46.729Z</time></trkpt><trkpt lat="43.71982" lon="11.14555"><ele>309.0</ele><time>2026-05-01T08:25:47.728Z</time></trkpt><trkpt lat="43.7196567" lon="11.145465"><ele>309.0</ele><time>2026-05-01T08:25:48.728Z</time></trkpt><trkpt lat="43.7195033" lon="11.145375"><ele>309.0</ele><time>2026-05-01T08:25:49.729Z</time></trkpt><trkpt lat="43.7193567" lon="11.1453183"><ele>308.5</ele><time>2026-05-01T08:25:50.728Z</time></trkpt><trkpt lat="43.7192183" lon="11.14528"><ele>308.0</ele><time>2026-05-01T08:25:51.728Z</time></trkpt><trkpt lat="43.7190917" lon="11.1453083"><ele>307.5</ele><time>2026-05-01T08:25:52.728Z</time></trkpt><trkpt lat="43.7189633" lon="11.1454217"><ele>307.0</ele><time>2026-05-01T08:25:53.727Z</time></trkpt><trkpt lat="43.7188517" lon="11.1455533"><ele>307.0</ele><time>2026-05-01T08:25:54.728Z</time></trkpt><trkpt lat="43.7187233" lon="11.1456333"><ele>307.0</ele><time>2026-05-01T08:25:55.728Z</time></trkpt><trkpt lat="43.7185667" lon="11.145705"><ele>307.0</ele><time>2026-05-01T08:25:56.727Z</time></trkpt><trkpt lat="43.7183967" lon="11.1457067"><ele>309.3333333333333</ele><time>2026-05-01T08:25:57.729Z</time></trkpt><trkpt lat="43.7182183" lon="11.1456833"><ele>311.6666666666667</ele><time>2026-05-01T08:25:58.727Z</time></trkpt><trkpt lat="43.7180333" lon="11.14568"><ele>314.0</ele><time>2026-05-01T08:25:59.728Z</time></trkpt><trkpt lat="43.717855" lon="11.1456817"><ele>314.0</ele><time>2026-05-01T08:26:00.728Z</time></trkpt><trkpt lat="43.7176817" lon="11.1456933"><ele>314.0</ele><time>2026-05-01T08:26:01.726Z</time></trkpt><trkpt lat="43.7175133" lon="11.1456633"><ele>314.0</ele><time>2026-05-01T08:26:02.73Z</time></trkpt><trkpt lat="43.7173667" lon="11.1455683"><ele>314.0</ele><time>2026-05-01T08:26:03.727Z</time></trkpt><trkpt lat="43.7172283" lon="11.1454417"><ele>314.0</ele><time>2026-05-01T08:26:04.727Z</time></trkpt><trkpt lat="43.7170817" lon="11.1452967"><ele>314.0</ele><time>2026-05-01T08:26:05.727Z</time></trkpt><trkpt lat="43.7169333" lon="11.145125"><ele>311.0</ele><time>2026-05-01T08:26:06.727Z</time></trkpt><trkpt lat="43.7167933" lon="11.1449417"><ele>308.0</ele><time>2026-05-01T08:26:07.73Z</time></trkpt><trkpt lat="43.71666" lon="11.1447433"><ele>305.0</ele><time>2026-05-01T08:26:08.729Z</time></trkpt><trkpt lat="43.71654" lon="11.144535"><ele>305.0</ele><time>2026-05-01T08:26:09.728Z</time></trkpt><trkpt lat="43.71642" lon="11.14432"><ele>305.0</ele><time>2026-05-01T08:26:10.728Z</time></trkpt><trkpt lat="43.7163" lon="11.1441033"><ele>305.0</ele><time>2026-05-01T08:26:11.73Z</time></trkpt><trkpt lat="43.716185" lon="11.1438967"><ele>308.0</ele><time>2026-05-01T08:26:12.729Z</time></trkpt><trkpt lat="43.716075" lon="11.143695"><ele>311.0</ele><time>2026-05-01T08:26:13.726Z</time></trkpt><trkpt lat="43.7159767" lon="11.14349"><ele>314.0</ele><time>2026-05-01T08:26:14.728Z</time></trkpt><trkpt lat="43.7159017" lon="11.1432667"><ele>304.0</ele><time>2026-05-01T08:26:15.728Z</time></trkpt><trkpt lat="43.7158517" lon="11.1430383"><ele>294.0</ele><time>2026-05-01T08:26:16.729Z</time></trkpt><trkpt lat="43.715825" lon="11.142815"><ele>284.0</ele><time>2026-05-01T08:26:17.727Z</time></trkpt><trkpt lat="43.7157983" lon="11.1426067"><ele>284.0</ele><time>2026-05-01T08:26:18.727Z</time></trkpt><trkpt lat="43.71577" lon="11.142395"><ele>284.0</ele><time>2026-05-01T08:26:19.728Z</time></trkpt><trkpt lat="43.7157117" lon="11.14221"><ele>284.0</ele><time>2026-05-01T08:26:20.728Z</time></trkpt><trkpt lat="43.71562" lon="11.1420517"><ele>284.0</ele><time>2026-05-01T08:26:21.726Z</time></trkpt><trkpt lat="43.715485" lon="11.1419383"><ele>283.0</ele><time>2026-05-01T08:26:22.727Z</time></trkpt><trkpt lat="43.7153183" lon="11.1418483"><ele>282.0</ele><time>2026-05-01T08:26:23.727Z</time></trkpt><trkpt lat="43.715145" lon="11.1417533"><ele>281.0</ele><time>2026-05-01T08:26:24.729Z</time></trkpt><trkpt lat="43.71497" lon="11.1416517"><ele>278.0</ele><time>2026-05-01T08:26:25.728Z</time></trkpt><trkpt lat="43.714795" lon="11.14155"><ele>275.0</ele><time>2026-05-01T08:26:26.729Z</time></trkpt><trkpt lat="43.7146217" lon="11.141445"><ele>272.0</ele><time>2026-05-01T08:26:27.728Z</time></trkpt><trkpt lat="43.7144517" lon="11.141305"><ele>270.0</ele><time>2026-05-01T08:26:28.726Z</time></trkpt><trkpt lat="43.71429" lon="11.1411533"><ele>268.0</ele><time>2026-05-01T08:26:29.729Z</time></trkpt><trkpt lat="43.71414" lon="11.1409833"><ele>266.0</ele><time>2026-05-01T08:26:30.73Z</time></trkpt><trkpt lat="43.714005" lon="11.140795"><ele>262.6666666666667</ele><time>2026-05-01T08:26:31.729Z</time></trkpt><trkpt lat="43.7138733" lon="11.1406033"><ele>259.3333333333333</ele><time>2026-05-01T08:26:32.728Z</time></trkpt><trkpt lat="43.7137467" lon="11.14042"><ele>256.0</ele><time>2026-05-01T08:26:33.728Z</time></trkpt><trkpt lat="43.71362" lon="11.1402483"><ele>257.66666666666663</ele><time>2026-05-01T08:26:34.73Z</time></trkpt><trkpt lat="43.71349" lon="11.1400883"><ele>259.3333333333333</ele><time>2026-05-01T08:26:35.729Z</time></trkpt><trkpt lat="43.7133533" lon="11.13995"><ele>261.0</ele><time>2026-05-01T08:26:36.728Z</time></trkpt><trkpt lat="43.713205" lon="11.139845"><ele>257.3333333333333</ele><time>2026-05-01T08:26:37.728Z</time></trkpt><trkpt lat="43.7130383" lon="11.1397733"><ele>253.66666666666666</ele><time>2026-05-01T08:26:38.728Z</time></trkpt><trkpt lat="43.7128567" lon="11.1397317"><ele>250.0</ele><time>2026-05-01T08:26:39.728Z</time></trkpt><trkpt lat="43.7126667" lon="11.13972"><ele>250.0</ele><time>2026-05-01T08:26:40.728Z</time></trkpt><trkpt lat="43.7124767" lon="11.1397117"><ele>250.0</ele><time>2026-05-01T08:26:41.727Z</time></trkpt><trkpt lat="43.7122883" lon="11.1397033"><ele>250.0</ele><time>2026-05-01T08:26:42.727Z</time></trkpt><trkpt lat="43.7121083" lon="11.139655"><ele>250.0</ele><time>2026-05-01T08:26:43.729Z</time></trkpt><trkpt lat="43.7119317" lon="11.1395733"><ele>250.0</ele><time>2026-05-01T08:26:44.729Z</time></trkpt><trkpt lat="43.7117633" lon="11.139455"><ele>250.0</ele><time>2026-05-01T08:26:45.727Z</time></trkpt><trkpt lat="43.7115983" lon="11.13932"><ele>250.66666666666666</ele><time>2026-05-01T08:26:46.728Z</time></trkpt><trkpt lat="43.711435" lon="11.139175"><ele>251.33333333333331</ele><time>2026-05-01T08:26:47.728Z</time></trkpt><trkpt lat="43.7112733" lon="11.1390183"><ele>252.0</ele><time>2026-05-01T08:26:48.729Z</time></trkpt><trkpt lat="43.711115" lon="11.138855"><ele>251.66666666666669</ele><time>2026-05-01T08:26:49.729Z</time></trkpt><trkpt lat="43.710955" lon="11.138685"><ele>251.33333333333334</ele><time>2026-05-01T08:26:50.728Z</time></trkpt><trkpt lat="43.7108033" lon="11.1385033"><ele>251.0</ele><time>2026-05-01T08:26:51.728Z</time></trkpt><trkpt lat="43.7106467" lon="11.1383217"><ele>249.0</ele><time>2026-05-01T08:26:52.728Z</time></trkpt><trkpt lat="43.7104967" lon="11.1381433"><ele>247.0</ele><time>2026-05-01T08:26:53.729Z</time></trkpt><trkpt lat="43.71034" lon="11.1379767"><ele>245.0</ele><time>2026-05-01T08:26:54.727Z</time></trkpt><trkpt lat="43.7101883" lon="11.1378083"><ele>245.0</ele><time>2026-05-01T08:26:55.729Z</time></trkpt><trkpt lat="43.7100433" lon="11.1376417"><ele>245.0</ele><time>2026-05-01T08:26:56.729Z</time></trkpt><trkpt lat="43.7099033" lon="11.1374817"><ele>245.0</ele><time>2026-05-01T08:26:57.727Z</time></trkpt><trkpt lat="43.7097633" lon="11.1373367"><ele>242.0</ele><time>2026-05-01T08:26:58.728Z</time></trkpt><trkpt lat="43.70962" lon="11.1372117"><ele>239.0</ele><time>2026-05-01T08:26:59.728Z</time></trkpt><trkpt lat="43.7094733" lon="11.1371"><ele>236.0</ele><time>2026-05-01T08:27:00.729Z</time></trkpt><trkpt lat="43.7093183" lon="11.13701"><ele>235.33333333333334</ele><time>2026-05-01T08:27:01.727Z</time></trkpt><trkpt lat="43.70916" lon="11.13694"><ele>234.66666666666669</ele><time>2026-05-01T08:27:02.728Z</time></trkpt><trkpt lat="43.709" lon="11.1368667"><ele>234.0</ele><time>2026-05-01T08:27:03.727Z</time></trkpt><trkpt lat="43.70885" lon="11.1367867"><ele>234.0</ele><time>2026-05-01T08:27:04.728Z</time></trkpt><trkpt lat="43.7087067" lon="11.136705"><ele>234.0</ele><time>2026-05-01T08:27:05.729Z</time></trkpt><trkpt lat="43.7085667" lon="11.1366283"><ele>234.0</ele><time>2026-05-01T08:27:06.728Z</time></trkpt><trkpt lat="43.7084233" lon="11.13657"><ele>230.5</ele><time>2026-05-01T08:27:07.729Z</time></trkpt><trkpt lat="43.708275" lon="11.1365167"><ele>227.0</ele><time>2026-05-01T08:27:08.73Z</time></trkpt><trkpt lat="43.7081367" lon="11.13645"><ele>223.5</ele><time>2026-05-01T08:27:09.729Z</time></trkpt><trkpt lat="43.7079983" lon="11.1363817"><ele>220.0</ele><time>2026-05-01T08:27:10.728Z</time></trkpt><trkpt lat="43.7078633" lon="11.1363233"><ele>220.25</ele><time>2026-05-01T08:27:11.728Z</time></trkpt><trkpt lat="43.7077367" lon="11.1362633"><ele>220.5</ele><time>2026-05-01T08:27:12.728Z</time></trkpt><trkpt lat="43.707605" lon="11.136195"><ele>220.75</ele><time>2026-05-01T08:27:13.727Z</time></trkpt><trkpt lat="43.7074833" lon="11.1360983"><ele>221.0</ele><time>2026-05-01T08:27:14.727Z</time></trkpt><trkpt lat="43.70736" lon="11.1359883"><ele>221.0</ele><time>2026-05-01T08:27:15.728Z</time></trkpt><trkpt lat="43.7072417" lon="11.1358733"><ele>221.0</ele><time>2026-05-01T08:27:16.728Z</time></trkpt><trkpt lat="43.7071167" lon="11.1357617"><ele>221.0</ele><time>2026-05-01T08:27:17.728Z</time></trkpt><trkpt lat="43.7069867" lon="11.13567"><ele>221.0</ele><time>2026-05-01T08:27:18.727Z</time></trkpt><trkpt lat="43.706845" lon="11.1355917"><ele>217.66666666666669</ele><time>2026-05-01T08:27:19.729Z</time></trkpt><trkpt lat="43.706695" lon="11.13552"><ele>214.33333333333331</ele><time>2026-05-01T08:27:20.729Z</time></trkpt><trkpt lat="43.70654" lon="11.1354583"><ele>211.0</ele><time>2026-05-01T08:27:21.728Z</time></trkpt><trkpt lat="43.706385" lon="11.1354017"><ele>211.0</ele><time>2026-05-01T08:27:22.729Z</time></trkpt><trkpt lat="43.7062333" lon="11.135345"><ele>211.0</ele><time>2026-05-01T08:27:23.729Z</time></trkpt><trkpt lat="43.70608" lon="11.1352983"><ele>211.0</ele><time>2026-05-01T08:27:24.729Z</time></trkpt><trkpt lat="43.70593" lon="11.1352467"><ele>210.33333333333331</ele><time>2026-05-01T08:27:25.729Z</time></trkpt><trkpt lat="43.7057783" lon="11.1352133"><ele>209.66666666666669</ele><time>2026-05-01T08:27:26.728Z</time></trkpt><trkpt lat="43.7056267" lon="11.13518"><ele>209.0</ele><time>2026-05-01T08:27:27.728Z</time></trkpt><trkpt lat="43.70548" lon="11.1351433"><ele>209.0</ele><time>2026-05-01T08:27:28.729Z</time></trkpt><trkpt lat="43.705345" lon="11.1350883"><ele>209.0</ele><time>2026-05-01T08:27:29.727Z</time></trkpt><trkpt lat="43.7052217" lon="11.1350167"><ele>209.0</ele><time>2026-05-01T08:27:30.73Z</time></trkpt><trkpt lat="43.7051183" lon="11.1349033"><ele>209.0</ele><time>2026-05-01T08:27:31.727Z</time></trkpt><trkpt lat="43.70503" lon="11.13478"><ele>204.75</ele><time>2026-05-01T08:27:32.728Z</time></trkpt><trkpt lat="43.704965" lon="11.134625"><ele>200.5</ele><time>2026-05-01T08:27:33.728Z</time></trkpt><trkpt lat="43.704935" lon="11.1344383"><ele>196.25</ele><time>2026-05-01T08:27:34.727Z</time></trkpt><trkpt lat="43.704925" lon="11.1342467"><ele>192.0</ele><time>2026-05-01T08:27:35.726Z</time></trkpt><trkpt lat="43.70495" lon="11.1340533"><ele>189.75</ele><time>2026-05-01T08:27:36.727Z</time></trkpt><trkpt lat="43.7050033" lon="11.1338733"><ele>187.5</ele><time>2026-05-01T08:27:37.727Z</time></trkpt><trkpt lat="43.7050817" lon="11.13371"><ele>185.25</ele><time>2026-05-01T08:27:38.727Z</time></trkpt><trkpt lat="43.7051717" lon="11.1335583"><ele>183.0</ele><time>2026-05-01T08:27:39.728Z</time></trkpt><trkpt lat="43.7052683" lon="11.1334083"><ele>183.0</ele><time>2026-05-01T08:27:40.727Z</time></trkpt><trkpt lat="43.7053533" lon="11.1332483"><ele>183.0</ele><time>2026-05-01T08:27:41.727Z</time></trkpt><trkpt lat="43.7054133" lon="11.1330817"><ele>183.0</ele><time>2026-05-01T08:27:42.727Z</time></trkpt><trkpt lat="43.7054567" lon="11.1328967"><ele>183.0</ele><time>2026-05-01T08:27:43.728Z</time></trkpt><trkpt lat="43.7054717" lon="11.1326933"><ele>180.0</ele><time>2026-05-01T08:27:44.728Z</time></trkpt><trkpt lat="43.705455" lon="11.1324817"><ele>177.0</ele><time>2026-05-01T08:27:45.727Z</time></trkpt><trkpt lat="43.70541" lon="11.132275"><ele>174.0</ele><time>2026-05-01T08:27:46.727Z</time></trkpt><trkpt lat="43.7053433" lon="11.1320783"><ele>173.66666666666666</ele><time>2026-05-01T08:27:47.727Z</time></trkpt><trkpt lat="43.70526" lon="11.131885"><ele>173.33333333333331</ele><time>2026-05-01T08:27:48.727Z</time></trkpt><trkpt lat="43.7051683" lon="11.1317"><ele>173.0</ele><time>2026-05-01T08:27:49.727Z</time></trkpt><trkpt lat="43.705065" lon="11.13153"><ele>173.0</ele><time>2026-05-01T08:27:50.728Z</time></trkpt><trkpt lat="43.70496" lon="11.1313733"><ele>173.0</ele><time>2026-05-01T08:27:51.727Z</time></trkpt><trkpt lat="43.70486" lon="11.131225"><ele>173.0</ele><time>2026-05-01T08:27:52.727Z</time></trkpt><trkpt lat="43.7047733" lon="11.13108"><ele>173.0</ele><time>2026-05-01T08:27:53.728Z</time></trkpt><trkpt lat="43.7046983" lon="11.1309267"><ele>173.0</ele><time>2026-05-01T08:27:54.728Z</time></trkpt><trkpt lat="43.7046483" lon="11.1307767"><ele>173.0</ele><time>2026-05-01T08:27:55.729Z</time></trkpt><trkpt lat="43.7046317" lon="11.130615"><ele>173.0</ele><time>2026-05-01T08:27:56.728Z</time></trkpt><trkpt lat="43.704655" lon="11.1304533"><ele>173.0</ele><time>2026-05-01T08:27:57.727Z</time></trkpt><trkpt lat="43.7047033" lon="11.1302967"><ele>172.0</ele><time>2026-05-01T08:27:58.728Z</time></trkpt><trkpt lat="43.7047817" lon="11.130155"><ele>171.0</ele><time>2026-05-01T08:27:59.728Z</time></trkpt><trkpt lat="43.7048783" lon="11.1300117"><ele>170.0</ele><time>2026-05-01T08:28:00.728Z</time></trkpt><trkpt lat="43.70497" lon="11.1298583"><ele>169.0</ele><time>2026-05-01T08:28:01.728Z</time></trkpt><trkpt lat="43.7050383" lon="11.12968"><ele>168.25</ele><time>2026-05-01T08:28:02.728Z</time></trkpt><trkpt lat="43.705075" lon="11.12949"><ele>167.5</ele><time>2026-05-01T08:28:03.728Z</time></trkpt><trkpt lat="43.7050783" lon="11.1292883"><ele>166.75</ele><time>2026-05-01T08:28:04.728Z</time></trkpt><trkpt lat="43.7050567" lon="11.1290783"><ele>166.0</ele><time>2026-05-01T08:28:05.727Z</time></trkpt><trkpt lat="43.7050233" lon="11.1288617"><ele>165.66666666666669</ele><time>2026-05-01T08:28:06.727Z</time></trkpt><trkpt lat="43.7049867" lon="11.1286467"><ele>165.33333333333334</ele><time>2026-05-01T08:28:07.728Z</time></trkpt><trkpt lat="43.70495" lon="11.1284283"><ele>165.0</ele><time>2026-05-01T08:28:08.727Z</time></trkpt><trkpt lat="43.7049217" lon="11.12822"><ele>164.0</ele><time>2026-05-01T08:28:09.728Z</time></trkpt><trkpt lat="43.7048933" lon="11.1280117"><ele>163.0</ele><time>2026-05-01T08:28:10.727Z</time></trkpt><trkpt lat="43.7048783" lon="11.12781"><ele>162.0</ele><time>2026-05-01T08:28:11.728Z</time></trkpt><trkpt lat="43.7048667" lon="11.1276083"><ele>161.0</ele><time>2026-05-01T08:28:12.728Z</time></trkpt><trkpt lat="43.7048333" lon="11.1274033"><ele>158.66666666666666</ele><time>2026-05-01T08:28:13.728Z</time></trkpt><trkpt lat="43.7047883" lon="11.127205"><ele>156.33333333333334</ele><time>2026-05-01T08:28:14.727Z</time></trkpt><trkpt lat="43.7047217" lon="11.1270233"><ele>154.0</ele><time>2026-05-01T08:28:15.728Z</time></trkpt><trkpt lat="43.7046467" lon="11.1268383"><ele>154.0</ele><time>2026-05-01T08:28:16.727Z</time></trkpt><trkpt lat="43.7045683" lon="11.12665"><ele>154.0</ele><time>2026-05-01T08:28:17.728Z</time></trkpt><trkpt lat="43.7044883" lon="11.1264567"><ele>154.0</ele><time>2026-05-01T08:28:18.729Z</time></trkpt><trkpt lat="43.7044083" lon="11.1262583"><ele>152.0</ele><time>2026-05-01T08:28:19.727Z</time></trkpt><trkpt lat="43.704325" lon="11.1260583"><ele>150.0</ele><time>2026-05-01T08:28:20.73Z</time></trkpt><trkpt lat="43.704245" lon="11.1258617"><ele>148.0</ele><time>2026-05-01T08:28:21.728Z</time></trkpt><trkpt lat="43.7041683" lon="11.125665"><ele>146.66666666666669</ele><time>2026-05-01T08:28:22.728Z</time></trkpt><trkpt lat="43.7041" lon="11.12547"><ele>145.33333333333334</ele><time>2026-05-01T08:28:23.728Z</time></trkpt><trkpt lat="43.7040433" lon="11.1252667"><ele>144.0</ele><time>2026-05-01T08:28:24.727Z</time></trkpt><trkpt lat="43.7039933" lon="11.1250667"><ele>142.66666666666666</ele><time>2026-05-01T08:28:25.729Z</time></trkpt><trkpt lat="43.7039483" lon="11.1248667"><ele>141.33333333333331</ele><time>2026-05-01T08:28:26.728Z</time></trkpt><trkpt lat="43.7039033" lon="11.12466"><ele>140.0</ele><time>2026-05-01T08:28:27.728Z</time></trkpt><trkpt lat="43.70386" lon="11.1244533"><ele>140.0</ele><time>2026-05-01T08:28:28.728Z</time></trkpt><trkpt lat="43.7038133" lon="11.124245"><ele>140.0</ele><time>2026-05-01T08:28:29.728Z</time></trkpt><trkpt lat="43.7037683" lon="11.1240383"><ele>140.0</ele><time>2026-05-01T08:28:30.727Z</time></trkpt><trkpt lat="43.7037217" lon="11.12383"><ele>140.0</ele><time>2026-05-01T08:28:31.727Z</time></trkpt><trkpt lat="43.703675" lon="11.1236233"><ele>140.0</ele><time>2026-05-01T08:28:32.728Z</time></trkpt><trkpt lat="43.7036167" lon="11.123425"><ele>140.0</ele><time>2026-05-01T08:28:33.728Z</time></trkpt><trkpt lat="43.70354" lon="11.1232433"><ele>142.66666666666666</ele><time>2026-05-01T08:28:34.729Z</time></trkpt><trkpt lat="43.7034433" lon="11.1230683"><ele>145.33333333333334</ele><time>2026-05-01T08:28:35.728Z</time></trkpt><trkpt lat="43.7033183" lon="11.1229083"><ele>148.0</ele><time>2026-05-01T08:28:36.728Z</time></trkpt><trkpt lat="43.7031733" lon="11.122735"><ele>148.0</ele><time>2026-05-01T08:28:37.727Z</time></trkpt><trkpt lat="43.70302" lon="11.1225517"><ele>148.0</ele><time>2026-05-01T08:28:38.728Z</time></trkpt><trkpt lat="43.702855" lon="11.1223383"><ele>148.0</ele><time>2026-05-01T08:28:39.728Z</time></trkpt><trkpt lat="43.7026933" lon="11.1221267"><ele>147.33333333333334</ele><time>2026-05-01T08:28:40.727Z</time></trkpt><trkpt lat="43.7025317" lon="11.1219383"><ele>146.66666666666666</ele><time>2026-05-01T08:28:41.728Z</time></trkpt><trkpt lat="43.7023633" lon="11.1217817"><ele>146.0</ele><time>2026-05-01T08:28:42.728Z</time></trkpt><trkpt lat="43.7022033" lon="11.12164"><ele>146.0</ele><time>2026-05-01T08:28:43.726Z</time></trkpt><trkpt lat="43.7020483" lon="11.1215133"><ele>146.0</ele><time>2026-05-01T08:28:44.729Z</time></trkpt><trkpt lat="43.7019083" lon="11.121375"><ele>146.0</ele><time>2026-05-01T08:28:45.728Z</time></trkpt><trkpt lat="43.7017833" lon="11.1212233"><ele>146.0</ele><time>2026-05-01T08:28:46.728Z</time></trkpt><trkpt lat="43.70169" lon="11.12105"><ele>146.0</ele><time>2026-05-01T08:28:47.728Z</time></trkpt><trkpt lat="43.70163" lon="11.1208433"><ele>146.0</ele><time>2026-05-01T08:28:48.728Z</time></trkpt><trkpt lat="43.70157" lon="11.1206417"><ele>143.0</ele><time>2026-05-01T08:28:49.727Z</time></trkpt><trkpt lat="43.7015033" lon="11.1204367"><ele>140.0</ele><time>2026-05-01T08:28:50.728Z</time></trkpt><trkpt lat="43.7014117" lon="11.12024"><ele>137.0</ele><time>2026-05-01T08:28:51.728Z</time></trkpt><trkpt lat="43.7012933" lon="11.1200767"><ele>137.0</ele><time>2026-05-01T08:28:52.728Z</time></trkpt><trkpt lat="43.7011467" lon="11.1199583"><ele>137.0</ele><time>2026-05-01T08:28:53.727Z</time></trkpt><trkpt lat="43.7009633" lon="11.11989"><ele>137.0</ele><time>2026-05-01T08:28:54.727Z</time></trkpt><trkpt lat="43.700765" lon="11.1198433"><ele>136.0</ele><time>2026-05-01T08:28:55.728Z</time></trkpt><trkpt lat="43.7005717" lon="11.1197767"><ele>135.0</ele><time>2026-05-01T08:28:56.728Z</time></trkpt><trkpt lat="43.7003733" lon="11.1196867"><ele>134.0</ele><time>2026-05-01T08:28:57.727Z</time></trkpt><trkpt lat="43.7001817" lon="11.1195883"><ele>134.0</ele><time>2026-05-01T08:28:58.726Z</time></trkpt><trkpt lat="43.69999" lon="11.119485"><ele>134.0</ele><time>2026-05-01T08:28:59.727Z</time></trkpt><trkpt lat="43.6998017" lon="11.1193733"><ele>134.0</ele><time>2026-05-01T08:29:00.728Z</time></trkpt><trkpt lat="43.6996217" lon="11.1192567"><ele>134.0</ele><time>2026-05-01T08:29:01.728Z</time></trkpt><trkpt lat="43.6994483" lon="11.1191333"><ele>134.0</ele><time>2026-05-01T08:29:02.728Z</time></trkpt><trkpt lat="43.6992783" lon="11.11902"><ele>134.0</ele><time>2026-05-01T08:29:03.727Z</time></trkpt><trkpt lat="43.6991133" lon="11.11891"><ele>134.66666666666666</ele><time>2026-05-01T08:29:04.728Z</time></trkpt><trkpt lat="43.6989583" lon="11.118805"><ele>135.33333333333334</ele><time>2026-05-01T08:29:05.728Z</time></trkpt><trkpt lat="43.698815" lon="11.1186983"><ele>136.0</ele><time>2026-05-01T08:29:06.728Z</time></trkpt><trkpt lat="43.698685" lon="11.1185617"><ele>133.0</ele><time>2026-05-01T08:29:07.729Z</time></trkpt><trkpt lat="43.6985683" lon="11.1184017"><ele>130.0</ele><time>2026-05-01T08:29:08.728Z</time></trkpt><trkpt lat="43.6984517" lon="11.1182383"><ele>127.0</ele><time>2026-05-01T08:29:09.727Z</time></trkpt><trkpt lat="43.6983283" lon="11.1180833"><ele>125.0</ele><time>2026-05-01T08:29:10.727Z</time></trkpt><trkpt lat="43.6982017" lon="11.1179383"><ele>123.0</ele><time>2026-05-01T08:29:11.727Z</time></trkpt><trkpt lat="43.6980633" lon="11.11781"><ele>121.0</ele><time>2026-05-01T08:29:12.728Z</time></trkpt><trkpt lat="43.6979183" lon="11.11771"><ele>121.0</ele><time>2026-05-01T08:29:13.727Z</time></trkpt><trkpt lat="43.6977717" lon="11.117615"><ele>121.0</ele><time>2026-05-01T08:29:14.727Z</time></trkpt><trkpt lat="43.6976267" lon="11.1175183"><ele>121.0</ele><time>2026-05-01T08:29:15.727Z</time></trkpt><trkpt lat="43.6974883" lon="11.1174083"><ele>118.75</ele><time>2026-05-01T08:29:16.728Z</time></trkpt><trkpt lat="43.6973683" lon="11.117285"><ele>116.5</ele><time>2026-05-01T08:29:17.728Z</time></trkpt><trkpt lat="43.6972717" lon="11.11715"><ele>114.25</ele><time>2026-05-01T08:29:18.727Z</time></trkpt><trkpt lat="43.6971917" lon="11.11701"><ele>112.0</ele><time>2026-05-01T08:29:19.728Z</time></trkpt><trkpt lat="43.697125" lon="11.1168533"><ele>112.0</ele><time>2026-05-01T08:29:20.728Z</time></trkpt><trkpt lat="43.69707" lon="11.11667"><ele>112.0</ele><time>2026-05-01T08:29:21.728Z</time></trkpt><trkpt lat="43.6970217" lon="11.1164717"><ele>112.0</ele><time>2026-05-01T08:29:22.728Z</time></trkpt><trkpt lat="43.6969817" lon="11.116255"><ele>112.0</ele><time>2026-05-01T08:29:23.728Z</time></trkpt><trkpt lat="43.6969483" lon="11.1160317"><ele>112.0</ele><time>2026-05-01T08:29:24.728Z</time></trkpt><trkpt lat="43.6969217" lon="11.1158083"><ele>112.0</ele><time>2026-05-01T08:29:25.727Z</time></trkpt><trkpt lat="43.6969133" lon="11.1155783"><ele>112.0</ele><time>2026-05-01T08:29:26.727Z</time></trkpt><trkpt lat="43.6969183" lon="11.1153467"><ele>112.0</ele><time>2026-05-01T08:29:27.728Z</time></trkpt><trkpt lat="43.6969433" lon="11.1151117"><ele>112.0</ele><time>2026-05-01T08:29:28.727Z</time></trkpt><trkpt lat="43.6969717" lon="11.1148817"><ele>106.66666666666667</ele><time>2026-05-01T08:29:29.727Z</time></trkpt><trkpt lat="43.6969967" lon="11.11466"><ele>101.33333333333334</ele><time>2026-05-01T08:29:30.727Z</time></trkpt><trkpt lat="43.6970083" lon="11.1144483"><ele>96.0</ele><time>2026-05-01T08:29:31.728Z</time></trkpt><trkpt lat="43.697005" lon="11.11423"><ele>94.33333333333333</ele><time>2026-05-01T08:29:32.728Z</time></trkpt><trkpt lat="43.69698" lon="11.1140167"><ele>92.66666666666666</ele><time>2026-05-01T08:29:33.728Z</time></trkpt><trkpt lat="43.6969317" lon="11.1137933"><ele>91.0</ele><time>2026-05-01T08:29:34.728Z</time></trkpt><trkpt lat="43.6968717" lon="11.1135633"><ele>92.0</ele><time>2026-05-01T08:29:35.726Z</time></trkpt><trkpt lat="43.69679" lon="11.113345"><ele>93.0</ele><time>2026-05-01T08:29:36.728Z</time></trkpt><trkpt lat="43.6966983" lon="11.11312"><ele>94.0</ele><time>2026-05-01T08:29:37.728Z</time></trkpt><trkpt lat="43.6966033" lon="11.112895"><ele>94.0</ele><time>2026-05-01T08:29:38.729Z</time></trkpt><trkpt lat="43.696515" lon="11.112675"><ele>94.0</ele><time>2026-05-01T08:29:39.728Z</time></trkpt><trkpt lat="43.6964133" lon="11.1124533"><ele>94.0</ele><time>2026-05-01T08:29:40.728Z</time></trkpt><trkpt lat="43.6963117" lon="11.112235"><ele>93.0</ele><time>2026-05-01T08:29:41.728Z</time></trkpt><trkpt lat="43.6962217" lon="11.11202"><ele>92.0</ele><time>2026-05-01T08:29:42.728Z</time></trkpt><trkpt lat="43.696125" lon="11.1118217"><ele>91.0</ele><time>2026-05-01T08:29:43.729Z</time></trkpt><trkpt lat="43.6960383" lon="11.1116183"><ele>89.0</ele><time>2026-05-01T08:29:44.729Z</time></trkpt><trkpt lat="43.69597" lon="11.1114133"><ele>87.0</ele><time>2026-05-01T08:29:45.729Z</time></trkpt><trkpt lat="43.6959083" lon="11.1112033"><ele>85.0</ele><time>2026-05-01T08:29:46.728Z</time></trkpt><trkpt lat="43.6958467" lon="11.1109933"><ele>85.0</ele><time>2026-05-01T08:29:47.728Z</time></trkpt><trkpt lat="43.6957867" lon="11.1107817"><ele>85.0</ele><time>2026-05-01T08:29:48.727Z</time></trkpt><trkpt lat="43.695725" lon="11.1105817"><ele>85.0</ele><time>2026-05-01T08:29:49.727Z</time></trkpt><trkpt lat="43.695645" lon="11.1103967"><ele>83.0</ele><time>2026-05-01T08:29:50.728Z</time></trkpt><trkpt lat="43.6955567" lon="11.11023"><ele>81.0</ele><time>2026-05-01T08:29:51.728Z</time></trkpt><trkpt lat="43.6954517" lon="11.110085"><ele>79.0</ele><time>2026-05-01T08:29:52.727Z</time></trkpt><trkpt lat="43.6953333" lon="11.1099483"><ele>78.0</ele><time>2026-05-01T08:29:53.727Z</time></trkpt><trkpt lat="43.6952183" lon="11.1098217"><ele>77.0</ele><time>2026-05-01T08:29:54.728Z</time></trkpt><trkpt lat="43.695105" lon="11.109695"><ele>76.0</ele><time>2026-05-01T08:29:55.727Z</time></trkpt><trkpt lat="43.6949933" lon="11.1095717"><ele>75.0</ele><time>2026-05-01T08:29:56.729Z</time></trkpt><trkpt lat="43.6948867" lon="11.1094567"><ele>75.0</ele><time>2026-05-01T08:29:57.728Z</time></trkpt><trkpt lat="43.6947933" lon="11.1093533"><ele>75.0</ele><time>2026-05-01T08:29:58.728Z</time></trkpt><trkpt lat="43.6947117" lon="11.1092667"><ele>75.0</ele><time>2026-05-01T08:29:59.728Z</time></trkpt><trkpt lat="43.6946417" lon="11.1091917"><ele>75.0</ele><time>2026-05-01T08:30:00.728Z</time></trkpt><trkpt lat="43.6945833" lon="11.1091267"><ele>75.0</ele><time>2026-05-01T08:30:01.729Z</time></trkpt><trkpt lat="43.6945" lon="11.1090367"><ele>74.5</ele><time>2026-05-01T08:30:03.728Z</time></trkpt><trkpt lat="43.6944383" lon="11.1090133"><ele>74.0</ele><time>2026-05-01T08:30:23.729Z</time></trkpt><trkpt lat="43.69436" lon="11.109065"><ele>73.5</ele><time>2026-05-01T08:30:26.729Z</time></trkpt><trkpt lat="43.694315" lon="11.10915"><ele>73.0</ele><time>2026-05-01T08:30:27.728Z</time></trkpt><trkpt lat="43.69427" lon="11.109255"><ele>72.5</ele><time>2026-05-01T08:30:28.728Z</time></trkpt><trkpt lat="43.6942083" lon="11.1093967"><ele>72.0</ele><time>2026-05-01T08:30:29.729Z</time></trkpt><trkpt lat="43.6941433" lon="11.1095467"><ele>71.75</ele><time>2026-05-01T08:30:30.729Z</time></trkpt><trkpt lat="43.6940767" lon="11.1097"><ele>71.5</ele><time>2026-05-01T08:30:31.728Z</time></trkpt><trkpt lat="43.6940133" lon="11.1098467"><ele>71.25</ele><time>2026-05-01T08:30:32.729Z</time></trkpt><trkpt lat="43.6939583" lon="11.109995"><ele>71.0</ele><time>2026-05-01T08:30:33.727Z</time></trkpt><trkpt lat="43.6939117" lon="11.1101517"><ele>71.66666666666667</ele><time>2026-05-01T08:30:34.728Z</time></trkpt><trkpt lat="43.6938667" lon="11.11034"><ele>72.33333333333333</ele><time>2026-05-01T08:30:35.728Z</time></trkpt><trkpt lat="43.6938233" lon="11.1105583"><ele>73.0</ele><time>2026-05-01T08:30:36.728Z</time></trkpt><trkpt lat="43.6937817" lon="11.1107967"><ele>73.66666666666666</ele><time>2026-05-01T08:30:37.727Z</time></trkpt><trkpt lat="43.6937383" lon="11.111045"><ele>74.33333333333333</ele><time>2026-05-01T08:30:38.728Z</time></trkpt><trkpt lat="43.69369" lon="11.1112917"><ele>75.0</ele><time>2026-05-01T08:30:39.727Z</time></trkpt><trkpt lat="43.6936383" lon="11.111535"><ele>74.0</ele><time>2026-05-01T08:30:40.727Z</time></trkpt><trkpt lat="43.6935633" lon="11.1117683"><ele>73.0</ele><time>2026-05-01T08:30:41.729Z</time></trkpt><trkpt lat="43.69346" lon="11.1119867"><ele>72.0</ele><time>2026-05-01T08:30:42.729Z</time></trkpt><trkpt lat="43.693345" lon="11.1122"><ele>73.66666666666667</ele><time>2026-05-01T08:30:43.728Z</time></trkpt><trkpt lat="43.6932183" lon="11.11242"><ele>75.33333333333334</ele><time>2026-05-01T08:30:44.727Z</time></trkpt><trkpt lat="43.693095" lon="11.1126417"><ele>77.0</ele><time>2026-05-01T08:30:45.729Z</time></trkpt><trkpt lat="43.6929717" lon="11.112855"><ele>77.0</ele><time>2026-05-01T08:30:46.728Z</time></trkpt><trkpt lat="43.6928433" lon="11.11305"><ele>77.0</ele><time>2026-05-01T08:30:47.728Z</time></trkpt><trkpt lat="43.6927017" lon="11.113235"><ele>77.0</ele><time>2026-05-01T08:30:48.728Z</time></trkpt><trkpt lat="43.69256" lon="11.1134183"><ele>75.66666666666667</ele><time>2026-05-01T08:30:49.728Z</time></trkpt><trkpt lat="43.6924217" lon="11.113605"><ele>74.33333333333333</ele><time>2026-05-01T08:30:50.728Z</time></trkpt><trkpt lat="43.6922833" lon="11.1137983"><ele>73.0</ele><time>2026-05-01T08:30:51.727Z</time></trkpt><trkpt lat="43.69215" lon="11.1139933"><ele>74.33333333333333</ele><time>2026-05-01T08:30:52.729Z</time></trkpt><trkpt lat="43.6920167" lon="11.1141917"><ele>75.66666666666667</ele><time>2026-05-01T08:30:53.727Z</time></trkpt><trkpt lat="43.6918867" lon="11.1143933"><ele>77.0</ele><time>2026-05-01T08:30:54.728Z</time></trkpt><trkpt lat="43.6917617" lon="11.1146017"><ele>75.0</ele><time>2026-05-01T08:30:55.728Z</time></trkpt><trkpt lat="43.6916367" lon="11.1148233"><ele>73.0</ele><time>2026-05-01T08:30:56.729Z</time></trkpt><trkpt lat="43.6915217" lon="11.1150433"><ele>71.0</ele><time>2026-05-01T08:30:57.728Z</time></trkpt><trkpt lat="43.691415" lon="11.1152683"><ele>71.0</ele><time>2026-05-01T08:30:58.728Z</time></trkpt><trkpt lat="43.6913117" lon="11.115505"><ele>71.0</ele><time>2026-05-01T08:30:59.729Z</time></trkpt><trkpt lat="43.691215" lon="11.1157383"><ele>71.0</ele><time>2026-05-01T08:31:00.728Z</time></trkpt><trkpt lat="43.6911233" lon="11.1159667"><ele>71.0</ele><time>2026-05-01T08:31:01.728Z</time></trkpt><trkpt lat="43.691035" lon="11.1161933"><ele>71.0</ele><time>2026-05-01T08:31:02.728Z</time></trkpt><trkpt lat="43.6909667" lon="11.1164267"><ele>71.0</ele><time>2026-05-01T08:31:03.728Z</time></trkpt><trkpt lat="43.6909033" lon="11.1166633"><ele>71.0</ele><time>2026-05-01T08:31:04.728Z</time></trkpt><trkpt lat="43.69084" lon="11.1169"><ele>71.0</ele><time>2026-05-01T08:31:05.728Z</time></trkpt><trkpt lat="43.6907717" lon="11.1171267"><ele>71.0</ele><time>2026-05-01T08:31:06.728Z</time></trkpt><trkpt lat="43.6906883" lon="11.1173383"><ele>71.0</ele><time>2026-05-01T08:31:07.728Z</time></trkpt><trkpt lat="43.6905917" lon="11.11754"><ele>71.0</ele><time>2026-05-01T08:31:08.728Z</time></trkpt><trkpt lat="43.690495" lon="11.1177333"><ele>71.0</ele><time>2026-05-01T08:31:09.728Z</time></trkpt><trkpt lat="43.690395" lon="11.1179167"><ele>71.0</ele><time>2026-05-01T08:31:10.726Z</time></trkpt><trkpt lat="43.6902867" lon="11.1180933"><ele>71.0</ele><time>2026-05-01T08:31:11.728Z</time></trkpt><trkpt lat="43.6901717" lon="11.1182533"><ele>71.0</ele><time>2026-05-01T08:31:12.727Z</time></trkpt><trkpt lat="43.6900483" lon="11.1183933"><ele>71.25</ele><time>2026-05-01T08:31:13.728Z</time></trkpt><trkpt lat="43.6899217" lon="11.1185117"><ele>71.5</ele><time>2026-05-01T08:31:14.727Z</time></trkpt><trkpt lat="43.6898017" lon="11.1186217"><ele>71.75</ele><time>2026-05-01T08:31:15.728Z</time></trkpt><trkpt lat="43.6896783" lon="11.1187217"><ele>72.0</ele><time>2026-05-01T08:31:16.727Z</time></trkpt><trkpt lat="43.6895683" lon="11.1188283"><ele>72.0</ele><time>2026-05-01T08:31:17.728Z</time></trkpt><trkpt lat="43.6894783" lon="11.1189483"><ele>72.0</ele><time>2026-05-01T08:31:18.728Z</time></trkpt><trkpt lat="43.6894067" lon="11.1190883"><ele>72.0</ele><time>2026-05-01T08:31:19.726Z</time></trkpt><trkpt lat="43.6893583" lon="11.1192433"><ele>72.0</ele><time>2026-05-01T08:31:20.728Z</time></trkpt><trkpt lat="43.68935" lon="11.11941"><ele>72.0</ele><time>2026-05-01T08:31:21.726Z</time></trkpt><trkpt lat="43.68934" lon="11.1196"><ele>72.0</ele><time>2026-05-01T08:31:22.726Z</time></trkpt><trkpt lat="43.6893567" lon="11.1198033"><ele>72.0</ele><time>2026-05-01T08:31:23.728Z</time></trkpt><trkpt lat="43.68937" lon="11.120015"><ele>72.0</ele><time>2026-05-01T08:31:24.727Z</time></trkpt><trkpt lat="43.6893733" lon="11.1202283"><ele>72.0</ele><time>2026-05-01T08:31:25.727Z</time></trkpt><trkpt lat="43.68935" lon="11.1204367"><ele>72.0</ele><time>2026-05-01T08:31:26.726Z</time></trkpt><trkpt lat="43.6893217" lon="11.120645"><ele>72.0</ele><time>2026-05-01T08:31:27.726Z</time></trkpt><trkpt lat="43.6892767" lon="11.1208467"><ele>72.25</ele><time>2026-05-01T08:31:28.728Z</time></trkpt><trkpt lat="43.68923" lon="11.121035"><ele>72.5</ele><time>2026-05-01T08:31:29.727Z</time></trkpt><trkpt lat="43.689195" lon="11.1212117"><ele>72.75</ele><time>2026-05-01T08:31:30.727Z</time></trkpt><trkpt lat="43.68916" lon="11.1213783"><ele>73.0</ele><time>2026-05-01T08:31:31.727Z</time></trkpt><trkpt lat="43.68912" lon="11.1215417"><ele>73.25</ele><time>2026-05-01T08:31:32.727Z</time></trkpt><trkpt lat="43.6890817" lon="11.1217083"><ele>73.5</ele><time>2026-05-01T08:31:33.727Z</time></trkpt><trkpt lat="43.6890367" lon="11.12187"><ele>73.75</ele><time>2026-05-01T08:31:34.727Z</time></trkpt><trkpt lat="43.6889617" lon="11.1220117"><ele>74.0</ele><time>2026-05-01T08:31:35.727Z</time></trkpt><trkpt lat="43.688865" lon="11.1221417"><ele>74.0</ele><time>2026-05-01T08:31:36.726Z</time></trkpt><trkpt lat="43.68875" lon="11.1222683"><ele>74.0</ele><time>2026-05-01T08:31:37.726Z</time></trkpt><trkpt lat="43.68863" lon="11.1223933"><ele>74.0</ele><time>2026-05-01T08:31:38.728Z</time></trkpt><trkpt lat="43.6885067" lon="11.1225167"><ele>74.0</ele><time>2026-05-01T08:31:39.727Z</time></trkpt><trkpt lat="43.6884" lon="11.1226417"><ele>74.25</ele><time>2026-05-01T08:31:40.727Z</time></trkpt><trkpt lat="43.6883017" lon="11.1227767"><ele>74.5</ele><time>2026-05-01T08:31:41.726Z</time></trkpt><trkpt lat="43.6882183" lon="11.1229233"><ele>74.75</ele><time>2026-05-01T08:31:42.726Z</time></trkpt><trkpt lat="43.6881283" lon="11.1230717"><ele>75.0</ele><time>2026-05-01T08:31:43.726Z</time></trkpt><trkpt lat="43.6880333" lon="11.1232217"><ele>74.75</ele><time>2026-05-01T08:31:44.726Z</time></trkpt><trkpt lat="43.6879333" lon="11.1233683"><ele>74.5</ele><time>2026-05-01T08:31:45.725Z</time></trkpt><trkpt lat="43.6878333" lon="11.1235067"><ele>74.25</ele><time>2026-05-01T08:31:46.725Z</time></trkpt><trkpt lat="43.6877283" lon="11.1236467"><ele>74.0</ele><time>2026-05-01T08:31:47.725Z</time></trkpt><trkpt lat="43.68763" lon="11.1237833"><ele>74.0</ele><time>2026-05-01T08:31:48.726Z</time></trkpt><trkpt lat="43.68753" lon="11.123915"><ele>74.0</ele><time>2026-05-01T08:31:49.725Z</time></trkpt><trkpt lat="43.6874483" lon="11.1240333"><ele>74.0</ele><time>2026-05-01T08:31:50.726Z</time></trkpt><trkpt lat="43.6873583" lon="11.1241583"><ele>74.0</ele><time>2026-05-01T08:31:51.726Z</time></trkpt><trkpt lat="43.6872583" lon="11.1242867"><ele>73.75</ele><time>2026-05-01T08:31:52.726Z</time></trkpt><trkpt lat="43.6871667" lon="11.1244133"><ele>73.5</ele><time>2026-05-01T08:31:53.728Z</time></trkpt><trkpt lat="43.6870617" lon="11.12455"><ele>73.25</ele><time>2026-05-01T08:31:54.728Z</time></trkpt><trkpt lat="43.6869633" lon="11.124685"><ele>73.0</ele><time>2026-05-01T08:31:55.728Z</time></trkpt><trkpt lat="43.6868567" lon="11.1248133"><ele>74.0</ele><time>2026-05-01T08:31:56.728Z</time></trkpt><trkpt lat="43.6867583" lon="11.12494"><ele>75.0</ele><time>2026-05-01T08:31:57.729Z</time></trkpt><trkpt lat="43.6866667" lon="11.1250583"><ele>76.0</ele><time>2026-05-01T08:31:58.727Z</time></trkpt><trkpt lat="43.686575" lon="11.1251767"><ele>77.0</ele><time>2026-05-01T08:31:59.727Z</time></trkpt><trkpt lat="43.6864883" lon="11.1252967"><ele>77.0</ele><time>2026-05-01T08:32:00.727Z</time></trkpt><trkpt lat="43.6863933" lon="11.125415"><ele>77.0</ele><time>2026-05-01T08:32:01.727Z</time></trkpt><trkpt lat="43.6863017" lon="11.125525"><ele>77.0</ele><time>2026-05-01T08:32:02.728Z</time></trkpt><trkpt lat="43.6862017" lon="11.1256317"><ele>77.0</ele><time>2026-05-01T08:32:03.727Z</time></trkpt><trkpt lat="43.6861117" lon="11.1257167"><ele>77.2</ele><time>2026-05-01T08:32:04.726Z</time></trkpt><trkpt lat="43.6860167" lon="11.1258067"><ele>77.4</ele><time>2026-05-01T08:32:05.726Z</time></trkpt><trkpt lat="43.6859217" lon="11.1258917"><ele>77.6</ele><time>2026-05-01T08:32:06.726Z</time></trkpt><trkpt lat="43.685825" lon="11.1259717"><ele>77.8</ele><time>2026-05-01T08:32:07.726Z</time></trkpt><trkpt lat="43.685765" lon="11.12605"><ele>78.0</ele><time>2026-05-01T08:32:08.727Z</time></trkpt><trkpt lat="43.6856767" lon="11.12613"><ele>78.0</ele><time>2026-05-01T08:32:09.726Z</time></trkpt><trkpt lat="43.68558" lon="11.1262167"><ele>78.0</ele><time>2026-05-01T08:32:10.727Z</time></trkpt><trkpt lat="43.685485" lon="11.126315"><ele>78.0</ele><time>2026-05-01T08:32:11.728Z</time></trkpt><trkpt lat="43.6853917" lon="11.1264017"><ele>78.0</ele><time>2026-05-01T08:32:12.727Z</time></trkpt><trkpt lat="43.6853183" lon="11.126475"><ele>78.0</ele><time>2026-05-01T08:32:13.727Z</time></trkpt><trkpt lat="43.6852383" lon="11.1265517"><ele>78.33333333333333</ele><time>2026-05-01T08:32:14.727Z</time></trkpt><trkpt lat="43.6851617" lon="11.1266233"><ele>78.66666666666667</ele><time>2026-05-01T08:32:15.726Z</time></trkpt><trkpt lat="43.6850917" lon="11.1266933"><ele>79.0</ele><time>2026-05-01T08:32:16.726Z</time></trkpt><trkpt lat="43.6850317" lon="11.1267567"><ele>79.33333333333334</ele><time>2026-05-01T08:32:17.727Z</time></trkpt><trkpt lat="43.684975" lon="11.1268167"><ele>79.66666666666667</ele><time>2026-05-01T08:32:18.727Z</time></trkpt><trkpt lat="43.6848967" lon="11.1269167"><ele>80.0</ele><time>2026-05-01T08:32:20.727Z</time></trkpt><trkpt lat="43.68483" lon="11.127005"><ele>80.0</ele><time>2026-05-01T08:32:22.726Z</time></trkpt><trkpt lat="43.6847867" lon="11.1270717"><ele>80.0</ele><time>2026-05-01T08:32:24.728Z</time></trkpt><trkpt lat="43.6847217" lon="11.1271283"><ele>80.0</ele><time>2026-05-01T08:32:26.728Z</time></trkpt><trkpt lat="43.68466" lon="11.127195"><ele>80.0</ele><time>2026-05-01T08:32:29.726Z</time></trkpt><trkpt lat="43.6846083" lon="11.127285"><ele>80.0</ele><time>2026-05-01T08:32:32.726Z</time></trkpt><trkpt lat="43.6845683" lon="11.127405"><ele>80.0</ele><time>2026-05-01T08:32:34.726Z</time></trkpt><trkpt lat="43.68452" lon="11.127515"><ele>80.33333333333334</ele><time>2026-05-01T08:32:36.728Z</time></trkpt><trkpt lat="43.684445" lon="11.1275967"><ele>80.66666666666667</ele><time>2026-05-01T08:32:38.727Z</time></trkpt><trkpt lat="43.6843717" lon="11.1276483"><ele>81.0</ele><time>2026-05-01T08:32:40.727Z</time></trkpt><trkpt lat="43.6842667" lon="11.1276317"><ele>81.33333333333333</ele><time>2026-05-01T08:32:42.727Z</time></trkpt><trkpt lat="43.6842067" lon="11.1275833"><ele>81.66666666666666</ele><time>2026-05-01T08:32:43.729Z</time></trkpt><trkpt lat="43.68414" lon="11.127505"><ele>82.0</ele><time>2026-05-01T08:32:44.727Z</time></trkpt><trkpt lat="43.6840717" lon="11.1274"><ele>81.75</ele><time>2026-05-01T08:32:45.725Z</time></trkpt><trkpt lat="43.6839867" lon="11.12728"><ele>81.5</ele><time>2026-05-01T08:32:46.725Z</time></trkpt><trkpt lat="43.6838933" lon="11.12713"><ele>81.25</ele><time>2026-05-01T08:32:47.725Z</time></trkpt><trkpt lat="43.6838217" lon="11.1269817"><ele>81.0</ele><time>2026-05-01T08:32:48.726Z</time></trkpt><trkpt lat="43.6837483" lon="11.12681"><ele>81.0</ele><time>2026-05-01T08:32:49.724Z</time></trkpt><trkpt lat="43.68369" lon="11.1266167"><ele>81.0</ele><time>2026-05-01T08:32:50.726Z</time></trkpt><trkpt lat="43.68362" lon="11.126425"><ele>81.0</ele><time>2026-05-01T08:32:51.725Z</time></trkpt><trkpt lat="43.6835433" lon="11.1262333"><ele>79.33333333333333</ele><time>2026-05-01T08:32:52.726Z</time></trkpt><trkpt lat="43.68345" lon="11.1260517"><ele>77.66666666666666</ele><time>2026-05-01T08:32:53.726Z</time></trkpt><trkpt lat="43.68335" lon="11.1258817"><ele>76.0</ele><time>2026-05-01T08:32:54.726Z</time></trkpt><trkpt lat="43.6832533" lon="11.1257283"><ele>76.0</ele><time>2026-05-01T08:32:55.726Z</time></trkpt><trkpt lat="43.6831533" lon="11.1255767"><ele>76.0</ele><time>2026-05-01T08:32:56.726Z</time></trkpt><trkpt lat="43.68305" lon="11.1254367"><ele>76.0</ele><time>2026-05-01T08:32:57.724Z</time></trkpt><trkpt lat="43.6829417" lon="11.1253"><ele>76.0</ele><time>2026-05-01T08:32:58.726Z</time></trkpt><trkpt lat="43.6828333" lon="11.1251567"><ele>76.0</ele><time>2026-05-01T08:32:59.727Z</time></trkpt><trkpt lat="43.6827217" lon="11.1250067"><ele>76.0</ele><time>2026-05-01T08:33:00.725Z</time></trkpt><trkpt lat="43.682615" lon="11.1248533"><ele>76.0</ele><time>2026-05-01T08:33:01.726Z</time></trkpt><trkpt lat="43.682505" lon="11.1247033"><ele>76.0</ele><time>2026-05-01T08:33:02.725Z</time></trkpt><trkpt lat="43.6823967" lon="11.1245517"><ele>76.0</ele><time>2026-05-01T08:33:03.727Z</time></trkpt><trkpt lat="43.6822883" lon="11.1243967"><ele>76.0</ele><time>2026-05-01T08:33:04.726Z</time></trkpt><trkpt lat="43.6821817" lon="11.1242417"><ele>76.0</ele><time>2026-05-01T08:33:05.726Z</time></trkpt><trkpt lat="43.6820783" lon="11.124085"><ele>76.0</ele><time>2026-05-01T08:33:06.727Z</time></trkpt><trkpt lat="43.6819767" lon="11.1239333"><ele>76.0</ele><time>2026-05-01T08:33:07.727Z</time></trkpt><trkpt lat="43.6818767" lon="11.12378"><ele>76.0</ele><time>2026-05-01T08:33:08.726Z</time></trkpt><trkpt lat="43.6817817" lon="11.1236267"><ele>76.0</ele><time>2026-05-01T08:33:09.728Z</time></trkpt><trkpt lat="43.6816883" lon="11.123465"><ele>76.0</ele><time>2026-05-01T08:33:10.727Z</time></trkpt><trkpt lat="43.681595" lon="11.1233033"><ele>76.0</ele><time>2026-05-01T08:33:11.728Z</time></trkpt><trkpt lat="43.6815067" lon="11.1231417"><ele>77.25</ele><time>2026-05-01T08:33:12.727Z</time></trkpt><trkpt lat="43.6814233" lon="11.12299"><ele>78.5</ele><time>2026-05-01T08:33:13.726Z</time></trkpt><trkpt lat="43.6813367" lon="11.1228267"><ele>79.75</ele><time>2026-05-01T08:33:14.728Z</time></trkpt><trkpt lat="43.6812533" lon="11.12267"><ele>81.0</ele><time>2026-05-01T08:33:15.726Z</time></trkpt><trkpt lat="43.6811667" lon="11.1225083"><ele>81.66666666666667</ele><time>2026-05-01T08:33:16.727Z</time></trkpt><trkpt lat="43.68107" lon="11.122345"><ele>82.33333333333334</ele><time>2026-05-01T08:33:17.726Z</time></trkpt><trkpt lat="43.6809667" lon="11.12218"><ele>83.0</ele><time>2026-05-01T08:33:18.728Z</time></trkpt><trkpt lat="43.68086" lon="11.1220333"><ele>83.0</ele><time>2026-05-01T08:33:19.727Z</time></trkpt><trkpt lat="43.68075" lon="11.1219"><ele>83.0</ele><time>2026-05-01T08:33:20.728Z</time></trkpt><trkpt lat="43.680635" lon="11.121765"><ele>83.0</ele><time>2026-05-01T08:33:21.727Z</time></trkpt><trkpt lat="43.6805233" lon="11.1216317"><ele>83.0</ele><time>2026-05-01T08:33:22.727Z</time></trkpt><trkpt lat="43.6804183" lon="11.1215"><ele>84.33333333333334</ele><time>2026-05-01T08:33:23.728Z</time></trkpt><trkpt lat="43.6803117" lon="11.1213683"><ele>85.66666666666667</ele><time>2026-05-01T08:33:24.727Z</time></trkpt><trkpt lat="43.6801967" lon="11.1212367"><ele>87.0</ele><time>2026-05-01T08:33:25.726Z</time></trkpt><trkpt lat="43.6800683" lon="11.1210967"><ele>88.66666666666667</ele><time>2026-05-01T08:33:26.728Z</time></trkpt><trkpt lat="43.6799183" lon="11.120945"><ele>90.33333333333334</ele><time>2026-05-01T08:33:27.726Z</time></trkpt><trkpt lat="43.679755" lon="11.1207533"><ele>92.0</ele><time>2026-05-01T08:33:28.727Z</time></trkpt><trkpt lat="43.6795783" lon="11.1205517"><ele>98.0</ele><time>2026-05-01T08:33:29.726Z</time></trkpt><trkpt lat="43.6793833" lon="11.120335"><ele>104.0</ele><time>2026-05-01T08:33:30.726Z</time></trkpt><trkpt lat="43.67919" lon="11.1201233"><ele>104.0</ele><time>2026-05-01T08:33:31.727Z</time></trkpt><trkpt lat="43.6790117" lon="11.1199167"><ele>104.0</ele><time>2026-05-01T08:33:32.726Z</time></trkpt><trkpt lat="43.6788467" lon="11.119725"><ele>104.0</ele><time>2026-05-01T08:33:33.726Z</time></trkpt><trkpt lat="43.6786967" lon="11.11954"><ele>107.0</ele><time>2026-05-01T08:33:34.727Z</time></trkpt><trkpt lat="43.67856" lon="11.1193683"><ele>110.0</ele><time>2026-05-01T08:33:35.726Z</time></trkpt><trkpt lat="43.678445" lon="11.1191917"><ele>113.0</ele><time>2026-05-01T08:33:36.727Z</time></trkpt><trkpt lat="43.6783517" lon="11.119015"><ele>115.25</ele><time>2026-05-01T08:33:37.726Z</time></trkpt><trkpt lat="43.6782883" lon="11.118835"><ele>117.5</ele><time>2026-05-01T08:33:38.726Z</time></trkpt><trkpt lat="43.6782417" lon="11.1186633"><ele>119.75</ele><time>2026-05-01T08:33:39.727Z</time></trkpt><trkpt lat="43.6782267" lon="11.11849"><ele>122.0</ele><time>2026-05-01T08:33:40.726Z</time></trkpt><trkpt lat="43.67824" lon="11.1183167"><ele>123.75</ele><time>2026-05-01T08:33:41.727Z</time></trkpt><trkpt lat="43.67826" lon="11.1181433"><ele>125.5</ele><time>2026-05-01T08:33:42.728Z</time></trkpt><trkpt lat="43.678285" lon="11.1179567"><ele>127.25</ele><time>2026-05-01T08:33:43.727Z</time></trkpt><trkpt lat="43.6783067" lon="11.11777"><ele>129.0</ele><time>2026-05-01T08:33:44.726Z</time></trkpt><trkpt lat="43.6783133" lon="11.11759"><ele>129.0</ele><time>2026-05-01T08:33:45.727Z</time></trkpt><trkpt lat="43.6783033" lon="11.1174167"><ele>129.0</ele><time>2026-05-01T08:33:46.726Z</time></trkpt><trkpt lat="43.67825" lon="11.1172367"><ele>129.0</ele><time>2026-05-01T08:33:47.727Z</time></trkpt><trkpt lat="43.6781767" lon="11.1170283"><ele>129.0</ele><time>2026-05-01T08:33:48.728Z</time></trkpt><trkpt lat="43.678105" lon="11.1167833"><ele>134.66666666666666</ele><time>2026-05-01T08:33:49.728Z</time></trkpt><trkpt lat="43.6780383" lon="11.1165233"><ele>140.33333333333331</ele><time>2026-05-01T08:33:50.729Z</time></trkpt><trkpt lat="43.67797" lon="11.1162483"><ele>146.0</ele><time>2026-05-01T08:33:51.728Z</time></trkpt><trkpt lat="43.6779033" lon="11.1159633"><ele>144.33333333333331</ele><time>2026-05-01T08:33:52.727Z</time></trkpt><trkpt lat="43.67785" lon="11.1156817"><ele>142.66666666666666</ele><time>2026-05-01T08:33:53.726Z</time></trkpt><trkpt lat="43.6778067" lon="11.1154167"><ele>141.0</ele><time>2026-05-01T08:33:54.728Z</time></trkpt><trkpt lat="43.677765" lon="11.11517"><ele>141.0</ele><time>2026-05-01T08:33:55.726Z</time></trkpt><trkpt lat="43.6777233" lon="11.1149567"><ele>141.0</ele><time>2026-05-01T08:33:56.726Z</time></trkpt><trkpt lat="43.6776633" lon="11.1147783"><ele>141.0</ele><time>2026-05-01T08:33:57.726Z</time></trkpt><trkpt lat="43.6775817" lon="11.11462"><ele>141.0</ele><time>2026-05-01T08:33:58.726Z</time></trkpt><trkpt lat="43.6774683" lon="11.114525"><ele>144.66666666666666</ele><time>2026-05-01T08:33:59.727Z</time></trkpt><trkpt lat="43.6773167" lon="11.1144783"><ele>148.33333333333331</ele><time>2026-05-01T08:34:00.728Z</time></trkpt><trkpt lat="43.6771383" lon="11.11443"><ele>152.0</ele><time>2026-05-01T08:34:01.728Z</time></trkpt><trkpt lat="43.676955" lon="11.114385"><ele>151.33333333333331</ele><time>2026-05-01T08:34:02.728Z</time></trkpt><trkpt lat="43.6767733" lon="11.11433"><ele>150.66666666666666</ele><time>2026-05-01T08:34:03.728Z</time></trkpt><trkpt lat="43.6766033" lon="11.1142467"><ele>150.0</ele><time>2026-05-01T08:34:04.728Z</time></trkpt><trkpt lat="43.6764367" lon="11.114155"><ele>152.0</ele><time>2026-05-01T08:34:05.726Z</time></trkpt><trkpt lat="43.67628" lon="11.1140233"><ele>154.0</ele><time>2026-05-01T08:34:06.727Z</time></trkpt><trkpt lat="43.6761333" lon="11.1138717"><ele>156.0</ele><time>2026-05-01T08:34:07.727Z</time></trkpt><trkpt lat="43.6760083" lon="11.11369"><ele>156.0</ele><time>2026-05-01T08:34:08.728Z</time></trkpt><trkpt lat="43.6758933" lon="11.113495"><ele>156.0</ele><time>2026-05-01T08:34:09.729Z</time></trkpt><trkpt lat="43.6757917" lon="11.11332"><ele>156.0</ele><time>2026-05-01T08:34:10.727Z</time></trkpt><trkpt lat="43.6757083" lon="11.1131583"><ele>158.2</ele><time>2026-05-01T08:34:11.727Z</time></trkpt><trkpt lat="43.6756533" lon="11.1130083"><ele>160.39999999999998</ele><time>2026-05-01T08:34:12.728Z</time></trkpt><trkpt lat="43.6756333" lon="11.1128683"><ele>162.6</ele><time>2026-05-01T08:34:13.726Z</time></trkpt><trkpt lat="43.6756667" lon="11.1127383"><ele>164.79999999999998</ele><time>2026-05-01T08:34:14.727Z</time></trkpt><trkpt lat="43.6757367" lon="11.1126383"><ele>167.0</ele><time>2026-05-01T08:34:15.729Z</time></trkpt><trkpt lat="43.6758333" lon="11.1125833"><ele>167.0</ele><time>2026-05-01T08:34:16.726Z</time></trkpt><trkpt lat="43.6759517" lon="11.1126033"><ele>167.0</ele><time>2026-05-01T08:34:17.727Z</time></trkpt><trkpt lat="43.6760617" lon="11.112675"><ele>167.0</ele><time>2026-05-01T08:34:18.729Z</time></trkpt><trkpt lat="43.6761617" lon="11.1128133"><ele>167.0</ele><time>2026-05-01T08:34:19.727Z</time></trkpt><trkpt lat="43.6762583" lon="11.1129633"><ele>167.0</ele><time>2026-05-01T08:34:20.727Z</time></trkpt><trkpt lat="43.6763583" lon="11.1131033"><ele>167.0</ele><time>2026-05-01T08:34:21.728Z</time></trkpt><trkpt lat="43.6764667" lon="11.1132117"><ele>167.0</ele><time>2026-05-01T08:34:22.728Z</time></trkpt><trkpt lat="43.6765917" lon="11.11328"><ele>167.0</ele><time>2026-05-01T08:34:23.727Z</time></trkpt><trkpt lat="43.6767167" lon="11.1132967"><ele>167.0</ele><time>2026-05-01T08:34:24.727Z</time></trkpt><trkpt lat="43.6768433" lon="11.1132583"><ele>167.0</ele><time>2026-05-01T08:34:25.726Z</time></trkpt><trkpt lat="43.6770233" lon="11.1131517"><ele>167.0</ele><time>2026-05-01T08:34:26.728Z</time></trkpt><trkpt lat="43.677205" lon="11.1130733"><ele>170.33333333333331</ele><time>2026-05-01T08:34:27.727Z</time></trkpt><trkpt lat="43.6773867" lon="11.11302"><ele>173.66666666666666</ele><time>2026-05-01T08:34:28.726Z</time></trkpt><trkpt lat="43.6775683" lon="11.112995"><ele>177.0</ele><time>2026-05-01T08:34:29.728Z</time></trkpt><trkpt lat="43.6777567" lon="11.11298"><ele>178.66666666666666</ele><time>2026-05-01T08:34:30.726Z</time></trkpt><trkpt lat="43.6779417" lon="11.1129917"><ele>180.33333333333331</ele><time>2026-05-01T08:34:31.727Z</time></trkpt><trkpt lat="43.6781067" lon="11.113035"><ele>182.0</ele><time>2026-05-01T08:34:32.727Z</time></trkpt><trkpt lat="43.678255" lon="11.11311"><ele>182.0</ele><time>2026-05-01T08:34:33.728Z</time></trkpt><trkpt lat="43.6783833" lon="11.1131767"><ele>182.0</ele><time>2026-05-01T08:34:34.727Z</time></trkpt><trkpt lat="43.678495" lon="11.113215"><ele>182.0</ele><time>2026-05-01T08:34:35.727Z</time></trkpt><trkpt lat="43.6785933" lon="11.1132083"><ele>182.0</ele><time>2026-05-01T08:34:36.727Z</time></trkpt><trkpt lat="43.67867" lon="11.113145"><ele>182.0</ele><time>2026-05-01T08:34:37.727Z</time></trkpt><trkpt lat="43.6787183" lon="11.113035"><ele>182.0</ele><time>2026-05-01T08:34:38.728Z</time></trkpt><trkpt lat="43.678705" lon="11.1129083"><ele>182.0</ele><time>2026-05-01T08:34:39.727Z</time></trkpt><trkpt lat="43.6786317" lon="11.1127733"><ele>182.0</ele><time>2026-05-01T08:34:40.727Z</time></trkpt><trkpt lat="43.678515" lon="11.1126433"><ele>182.0</ele><time>2026-05-01T08:34:41.729Z</time></trkpt><trkpt lat="43.6783817" lon="11.112525"><ele>183.33333333333331</ele><time>2026-05-01T08:34:42.728Z</time></trkpt><trkpt lat="43.6782367" lon="11.1123967"><ele>184.66666666666666</ele><time>2026-05-01T08:34:43.728Z</time></trkpt><trkpt lat="43.678095" lon="11.11224"><ele>186.0</ele><time>2026-05-01T08:34:44.729Z</time></trkpt><trkpt lat="43.6779667" lon="11.1120567"><ele>186.0</ele><time>2026-05-01T08:34:45.728Z</time></trkpt><trkpt lat="43.6778433" lon="11.111865"><ele>186.0</ele><time>2026-05-01T08:34:46.727Z</time></trkpt><trkpt lat="43.6777183" lon="11.1116783"><ele>186.0</ele><time>2026-05-01T08:34:47.727Z</time></trkpt><trkpt lat="43.6775917" lon="11.1114933"><ele>185.33333333333334</ele><time>2026-05-01T08:34:48.726Z</time></trkpt><trkpt lat="43.67744" lon="11.1113433"><ele>184.66666666666669</ele><time>2026-05-01T08:34:49.728Z</time></trkpt><trkpt lat="43.6772633" lon="11.1112433"><ele>184.0</ele><time>2026-05-01T08:34:50.727Z</time></trkpt><trkpt lat="43.6770917" lon="11.1111483"><ele>186.33333333333334</ele><time>2026-05-01T08:34:51.727Z</time></trkpt><trkpt lat="43.6769083" lon="11.1110667"><ele>188.66666666666666</ele><time>2026-05-01T08:34:52.728Z</time></trkpt><trkpt lat="43.67673" lon="11.1109583"><ele>191.0</ele><time>2026-05-01T08:34:53.727Z</time></trkpt><trkpt lat="43.6765633" lon="11.1108217"><ele>190.66666666666666</ele><time>2026-05-01T08:34:54.727Z</time></trkpt><trkpt lat="43.6764067" lon="11.1106583"><ele>190.33333333333334</ele><time>2026-05-01T08:34:55.727Z</time></trkpt><trkpt lat="43.6762583" lon="11.110475"><ele>190.0</ele><time>2026-05-01T08:34:56.729Z</time></trkpt><trkpt lat="43.6761133" lon="11.1102867"><ele>192.0</ele><time>2026-05-01T08:34:57.726Z</time></trkpt><trkpt lat="43.6759717" lon="11.1100967"><ele>194.0</ele><time>2026-05-01T08:34:58.727Z</time></trkpt><trkpt lat="43.6758283" lon="11.10991"><ele>196.0</ele><time>2026-05-01T08:34:59.732Z</time></trkpt><trkpt lat="43.6756917" lon="11.1097233"><ele>196.0</ele><time>2026-05-01T08:35:00.727Z</time></trkpt><trkpt lat="43.6755567" lon="11.1095467"><ele>196.0</ele><time>2026-05-01T08:35:01.728Z</time></trkpt><trkpt lat="43.6754233" lon="11.1093983"><ele>196.0</ele><time>2026-05-01T08:35:02.728Z</time></trkpt><trkpt lat="43.67528" lon="11.1092733"><ele>199.0</ele><time>2026-05-01T08:35:03.728Z</time></trkpt><trkpt lat="43.675125" lon="11.1091717"><ele>202.0</ele><time>2026-05-01T08:35:04.727Z</time></trkpt><trkpt lat="43.6749633" lon="11.1090817"><ele>205.0</ele><time>2026-05-01T08:35:05.728Z</time></trkpt><trkpt lat="43.6748033" lon="11.109"><ele>206.66666666666666</ele><time>2026-05-01T08:35:06.728Z</time></trkpt><trkpt lat="43.6746517" lon="11.1089117"><ele>208.33333333333331</ele><time>2026-05-01T08:35:07.728Z</time></trkpt><trkpt lat="43.674505" lon="11.1088133"><ele>210.0</ele><time>2026-05-01T08:35:08.728Z</time></trkpt><trkpt lat="43.67437" lon="11.1086917"><ele>211.33333333333331</ele><time>2026-05-01T08:35:09.728Z</time></trkpt><trkpt lat="43.674245" lon="11.1085333"><ele>212.66666666666666</ele><time>2026-05-01T08:35:10.728Z</time></trkpt><trkpt lat="43.674135" lon="11.1083533"><ele>214.0</ele><time>2026-05-01T08:35:11.727Z</time></trkpt><trkpt lat="43.6740333" lon="11.10816"><ele>214.0</ele><time>2026-05-01T08:35:12.727Z</time></trkpt><trkpt lat="43.673935" lon="11.1079617"><ele>214.0</ele><time>2026-05-01T08:35:13.727Z</time></trkpt><trkpt lat="43.6738367" lon="11.1077733"><ele>214.0</ele><time>2026-05-01T08:35:14.727Z</time></trkpt><trkpt lat="43.6737383" lon="11.1075867"><ele>212.0</ele><time>2026-05-01T08:35:15.728Z</time></trkpt><trkpt lat="43.6736517" lon="11.1073867"><ele>210.0</ele><time>2026-05-01T08:35:16.727Z</time></trkpt><trkpt lat="43.673555" lon="11.1071767"><ele>208.0</ele><time>2026-05-01T08:35:17.726Z</time></trkpt><trkpt lat="43.6734717" lon="11.106965"><ele>211.0</ele><time>2026-05-01T08:35:18.727Z</time></trkpt><trkpt lat="43.6733917" lon="11.106755"><ele>214.0</ele><time>2026-05-01T08:35:19.727Z</time></trkpt><trkpt lat="43.6733067" lon="11.1065433"><ele>217.0</ele><time>2026-05-01T08:35:20.727Z</time></trkpt><trkpt lat="43.6732233" lon="11.1063383"><ele>217.0</ele><time>2026-05-01T08:35:21.726Z</time></trkpt><trkpt lat="43.67314" lon="11.1061433"><ele>217.0</ele><time>2026-05-01T08:35:22.727Z</time></trkpt><trkpt lat="43.6730583" lon="11.1059567"><ele>217.0</ele><time>2026-05-01T08:35:23.726Z</time></trkpt><trkpt lat="43.6729867" lon="11.1057767"><ele>215.0</ele><time>2026-05-01T08:35:24.728Z</time></trkpt><trkpt lat="43.6729167" lon="11.10559"><ele>213.0</ele><time>2026-05-01T08:35:25.727Z</time></trkpt><trkpt lat="43.67286" lon="11.1053933"><ele>211.0</ele><time>2026-05-01T08:35:26.726Z</time></trkpt><trkpt lat="43.6728083" lon="11.105195"><ele>211.75</ele><time>2026-05-01T08:35:27.726Z</time></trkpt><trkpt lat="43.6727667" lon="11.1049983"><ele>212.5</ele><time>2026-05-01T08:35:28.727Z</time></trkpt><trkpt lat="43.6727333" lon="11.1048117"><ele>213.25</ele><time>2026-05-01T08:35:29.726Z</time></trkpt><trkpt lat="43.6726933" lon="11.1046333"><ele>214.0</ele><time>2026-05-01T08:35:30.726Z</time></trkpt><trkpt lat="43.6726567" lon="11.1044733"><ele>214.0</ele><time>2026-05-01T08:35:31.727Z</time></trkpt><trkpt lat="43.6726233" lon="11.1043333"><ele>213.99999999999997</ele><time>2026-05-01T08:35:32.728Z</time></trkpt><trkpt lat="43.67259" lon="11.1041967"><ele>213.99999999999997</ele><time>2026-05-01T08:35:33.727Z</time></trkpt><trkpt lat="43.6725617" lon="11.1040683"><ele>214.0</ele><time>2026-05-01T08:35:34.726Z</time></trkpt><trkpt lat="43.672535" lon="11.10395"><ele>214.0</ele><time>2026-05-01T08:35:35.726Z</time></trkpt><trkpt lat="43.6725133" lon="11.1038433"><ele>214.2857142857143</ele><time>2026-05-01T08:35:36.725Z</time></trkpt><trkpt lat="43.6724933" lon="11.10374"><ele>214.57142857142858</ele><time>2026-05-01T08:35:37.727Z</time></trkpt><trkpt lat="43.6724683" lon="11.10364"><ele>214.85714285714286</ele><time>2026-05-01T08:35:38.728Z</time></trkpt><trkpt lat="43.6724433" lon="11.1035467"><ele>215.14285714285717</ele><time>2026-05-01T08:35:39.726Z</time></trkpt><trkpt lat="43.6724217" lon="11.1034533"><ele>215.42857142857142</ele><time>2026-05-01T08:35:40.726Z</time></trkpt><trkpt lat="43.6724067" lon="11.1033533"><ele>215.71428571428572</ele><time>2026-05-01T08:35:41.727Z</time></trkpt><trkpt lat="43.6723867" lon="11.1032533"><ele>216.0</ele><time>2026-05-01T08:35:42.728Z</time></trkpt><trkpt lat="43.6723617" lon="11.103145"><ele>216.33333333333334</ele><time>2026-05-01T08:35:43.728Z</time></trkpt><trkpt lat="43.67233" lon="11.1030317"><ele>216.66666666666669</ele><time>2026-05-01T08:35:44.728Z</time></trkpt><trkpt lat="43.6722967" lon="11.1029267"><ele>217.0</ele><time>2026-05-01T08:35:45.727Z</time></trkpt><trkpt lat="43.6722683" lon="11.1028283"><ele>217.33333333333334</ele><time>2026-05-01T08:35:46.727Z</time></trkpt><trkpt lat="43.6722367" lon="11.1027217"><ele>217.66666666666669</ele><time>2026-05-01T08:35:47.727Z</time></trkpt><trkpt lat="43.6721967" lon="11.1026033"><ele>218.0</ele><time>2026-05-01T08:35:48.728Z</time></trkpt><trkpt lat="43.6721533" lon="11.1024717"><ele>218.0</ele><time>2026-05-01T08:35:49.727Z</time></trkpt><trkpt lat="43.6721117" lon="11.1023317"><ele>218.0</ele><time>2026-05-01T08:35:50.727Z</time></trkpt><trkpt lat="43.6720717" lon="11.1021817"><ele>218.0</ele><time>2026-05-01T08:35:51.726Z</time></trkpt><trkpt lat="43.6720417" lon="11.1020367"><ele>218.0</ele><time>2026-05-01T08:35:52.729Z</time></trkpt><trkpt lat="43.6720283" lon="11.101895"><ele>218.0</ele><time>2026-05-01T08:35:53.727Z</time></trkpt><trkpt lat="43.6720233" lon="11.10178"><ele>218.00000000000003</ele><time>2026-05-01T08:35:54.727Z</time></trkpt><trkpt lat="43.6720233" lon="11.101675"><ele>218.0</ele><time>2026-05-01T08:35:55.726Z</time></trkpt><trkpt lat="43.6720267" lon="11.10157"><ele>218.0</ele><time>2026-05-01T08:35:56.73Z</time></trkpt><trkpt lat="43.6720283" lon="11.1014633"><ele>218.0</ele><time>2026-05-01T08:35:57.727Z</time></trkpt><trkpt lat="43.672035" lon="11.1013533"><ele>218.00000000000003</ele><time>2026-05-01T08:35:58.727Z</time></trkpt><trkpt lat="43.67204" lon="11.1012317"><ele>218.0</ele><time>2026-05-01T08:35:59.727Z</time></trkpt><trkpt lat="43.67204" lon="11.1010967"><ele>217.60000000000002</ele><time>2026-05-01T08:36:00.727Z</time></trkpt><trkpt lat="43.6720383" lon="11.100965"><ele>217.20000000000002</ele><time>2026-05-01T08:36:01.726Z</time></trkpt><trkpt lat="43.672025" lon="11.1008333"><ele>216.8</ele><time>2026-05-01T08:36:02.727Z</time></trkpt><trkpt lat="43.6719967" lon="11.1007033"><ele>216.4</ele><time>2026-05-01T08:36:03.727Z</time></trkpt><trkpt lat="43.671955" lon="11.1005683"><ele>216.0</ele><time>2026-05-01T08:36:04.728Z</time></trkpt><trkpt lat="43.6718983" lon="11.1004383"><ele>214.25</ele><time>2026-05-01T08:36:05.727Z</time></trkpt><trkpt lat="43.6718533" lon="11.1003067"><ele>212.5</ele><time>2026-05-01T08:36:06.727Z</time></trkpt><trkpt lat="43.6717817" lon="11.10017"><ele>210.75</ele><time>2026-05-01T08:36:07.727Z</time></trkpt><trkpt lat="43.6717017" lon="11.1000383"><ele>209.0</ele><time>2026-05-01T08:36:08.73Z</time></trkpt><trkpt lat="43.67161" lon="11.0999217"><ele>210.25</ele><time>2026-05-01T08:36:09.727Z</time></trkpt><trkpt lat="43.6715033" lon="11.0998183"><ele>211.5</ele><time>2026-05-01T08:36:10.726Z</time></trkpt><trkpt lat="43.6713917" lon="11.0997083"><ele>212.75</ele><time>2026-05-01T08:36:11.727Z</time></trkpt><trkpt lat="43.6712733" lon="11.099595"><ele>214.0</ele><time>2026-05-01T08:36:12.727Z</time></trkpt><trkpt lat="43.6711517" lon="11.0994817"><ele>210.0</ele><time>2026-05-01T08:36:13.728Z</time></trkpt><trkpt lat="43.6710233" lon="11.0993633"><ele>206.0</ele><time>2026-05-01T08:36:14.729Z</time></trkpt><trkpt lat="43.6708967" lon="11.0992383"><ele>202.0</ele><time>2026-05-01T08:36:15.728Z</time></trkpt><trkpt lat="43.670775" lon="11.0990983"><ele>204.66666666666666</ele><time>2026-05-01T08:36:16.727Z</time></trkpt><trkpt lat="43.6706583" lon="11.0989433"><ele>207.33333333333331</ele><time>2026-05-01T08:36:17.728Z</time></trkpt><trkpt lat="43.6705517" lon="11.0987683"><ele>210.0</ele><time>2026-05-01T08:36:18.728Z</time></trkpt><trkpt lat="43.6704517" lon="11.09859"><ele>210.0</ele><time>2026-05-01T08:36:19.727Z</time></trkpt><trkpt lat="43.6703567" lon="11.0984083"><ele>210.0</ele><time>2026-05-01T08:36:20.728Z</time></trkpt><trkpt lat="43.6702733" lon="11.0982367"><ele>210.0</ele><time>2026-05-01T08:36:21.727Z</time></trkpt><trkpt lat="43.67021" lon="11.0980683"><ele>210.0</ele><time>2026-05-01T08:36:22.727Z</time></trkpt><trkpt lat="43.6701767" lon="11.0978983"><ele>207.75</ele><time>2026-05-01T08:36:23.729Z</time></trkpt><trkpt lat="43.6701783" lon="11.09772"><ele>205.5</ele><time>2026-05-01T08:36:24.729Z</time></trkpt><trkpt lat="43.6702217" lon="11.0975267"><ele>203.25</ele><time>2026-05-01T08:36:25.726Z</time></trkpt><trkpt lat="43.67028" lon="11.09732"><ele>201.0</ele><time>2026-05-01T08:36:26.727Z</time></trkpt><trkpt lat="43.6703383" lon="11.0971033"><ele>201.0</ele><time>2026-05-01T08:36:27.725Z</time></trkpt><trkpt lat="43.6703983" lon="11.0968867"><ele>201.0</ele><time>2026-05-01T08:36:28.726Z</time></trkpt><trkpt lat="43.670435" lon="11.0966583"><ele>201.0</ele><time>2026-05-01T08:36:29.727Z</time></trkpt><trkpt lat="43.6704517" lon="11.096425"><ele>200.66666666666669</ele><time>2026-05-01T08:36:30.726Z</time></trkpt><trkpt lat="43.6704467" lon="11.0961933"><ele>200.33333333333334</ele><time>2026-05-01T08:36:31.727Z</time></trkpt><trkpt lat="43.6704233" lon="11.095975"><ele>200.0</ele><time>2026-05-01T08:36:32.728Z</time></trkpt><trkpt lat="43.6703767" lon="11.09577"><ele>199.75</ele><time>2026-05-01T08:36:33.726Z</time></trkpt><trkpt lat="43.6703233" lon="11.09558"><ele>199.5</ele><time>2026-05-01T08:36:34.727Z</time></trkpt><trkpt lat="43.6702767" lon="11.0954017"><ele>199.25</ele><time>2026-05-01T08:36:35.727Z</time></trkpt><trkpt lat="43.670255" lon="11.0952283"><ele>199.0</ele><time>2026-05-01T08:36:36.727Z</time></trkpt><trkpt lat="43.6702733" lon="11.0950583"><ele>197.0</ele><time>2026-05-01T08:36:37.727Z</time></trkpt><trkpt lat="43.670335" lon="11.0948967"><ele>195.0</ele><time>2026-05-01T08:36:38.727Z</time></trkpt><trkpt lat="43.67042" lon="11.0947383"><ele>193.0</ele><time>2026-05-01T08:36:39.727Z</time></trkpt><trkpt lat="43.6705167" lon="11.09457"><ele>191.0</ele><time>2026-05-01T08:36:40.727Z</time></trkpt><trkpt lat="43.670615" lon="11.0943967"><ele>191.0</ele><time>2026-05-01T08:36:41.726Z</time></trkpt><trkpt lat="43.6706967" lon="11.09419"><ele>191.0</ele><time>2026-05-01T08:36:42.727Z</time></trkpt><trkpt lat="43.670765" lon="11.09397"><ele>191.0</ele><time>2026-05-01T08:36:43.726Z</time></trkpt><trkpt lat="43.67083" lon="11.0937467"><ele>188.0</ele><time>2026-05-01T08:36:44.728Z</time></trkpt><trkpt lat="43.670885" lon="11.09352"><ele>185.0</ele><time>2026-05-01T08:36:45.727Z</time></trkpt><trkpt lat="43.6709383" lon="11.0933083"><ele>182.0</ele><time>2026-05-01T08:36:46.727Z</time></trkpt><trkpt lat="43.6709783" lon="11.093105"><ele>181.0</ele><time>2026-05-01T08:36:47.728Z</time></trkpt><trkpt lat="43.6709983" lon="11.0929017"><ele>180.0</ele><time>2026-05-01T08:36:48.727Z</time></trkpt><trkpt lat="43.6709983" lon="11.0926883"><ele>179.0</ele><time>2026-05-01T08:36:49.727Z</time></trkpt><trkpt lat="43.6709833" lon="11.0924833"><ele>178.75</ele><time>2026-05-01T08:36:50.726Z</time></trkpt><trkpt lat="43.6709533" lon="11.0922833"><ele>178.5</ele><time>2026-05-01T08:36:51.727Z</time></trkpt><trkpt lat="43.6709133" lon="11.092085"><ele>178.25</ele><time>2026-05-01T08:36:52.726Z</time></trkpt><trkpt lat="43.6708683" lon="11.0919033"><ele>178.0</ele><time>2026-05-01T08:36:53.728Z</time></trkpt><trkpt lat="43.67081" lon="11.09173"><ele>178.25</ele><time>2026-05-01T08:36:54.727Z</time></trkpt><trkpt lat="43.6707533" lon="11.0915717"><ele>178.5</ele><time>2026-05-01T08:36:55.727Z</time></trkpt><trkpt lat="43.6706883" lon="11.0914283"><ele>178.75</ele><time>2026-05-01T08:36:56.727Z</time></trkpt><trkpt lat="43.67063" lon="11.091285"><ele>179.0</ele><time>2026-05-01T08:36:57.726Z</time></trkpt><trkpt lat="43.6705717" lon="11.0911417"><ele>179.0</ele><time>2026-05-01T08:36:58.727Z</time></trkpt><trkpt lat="43.6704883" lon="11.09102"><ele>179.0</ele><time>2026-05-01T08:36:59.727Z</time></trkpt><trkpt lat="43.6703817" lon="11.0909317"><ele>179.0</ele><time>2026-05-01T08:37:00.727Z</time></trkpt><trkpt lat="43.670265" lon="11.0908733"><ele>179.0</ele><time>2026-05-01T08:37:01.728Z</time></trkpt><trkpt lat="43.67014" lon="11.090835"><ele>178.75</ele><time>2026-05-01T08:37:02.728Z</time></trkpt><trkpt lat="43.6700183" lon="11.0907983"><ele>178.5</ele><time>2026-05-01T08:37:03.727Z</time></trkpt><trkpt lat="43.6699067" lon="11.090735"><ele>178.25</ele><time>2026-05-01T08:37:04.728Z</time></trkpt><trkpt lat="43.669805" lon="11.0906333"><ele>178.0</ele><time>2026-05-01T08:37:05.727Z</time></trkpt><trkpt lat="43.6697233" lon="11.09051"><ele>178.0</ele><time>2026-05-01T08:37:06.728Z</time></trkpt><trkpt lat="43.6696533" lon="11.0903633"><ele>178.0</ele><time>2026-05-01T08:37:07.727Z</time></trkpt><trkpt lat="43.6695917" lon="11.09021"><ele>178.0</ele><time>2026-05-01T08:37:08.728Z</time></trkpt><trkpt lat="43.6695267" lon="11.09006"><ele>178.0</ele><time>2026-05-01T08:37:09.727Z</time></trkpt><trkpt lat="43.6694583" lon="11.0899083"><ele>175.0</ele><time>2026-05-01T08:37:10.726Z</time></trkpt><trkpt lat="43.6693833" lon="11.08976"><ele>172.0</ele><time>2026-05-01T08:37:11.729Z</time></trkpt><trkpt lat="43.6693033" lon="11.08962"><ele>169.0</ele><time>2026-05-01T08:37:12.727Z</time></trkpt><trkpt lat="43.6691967" lon="11.089515"><ele>166.0</ele><time>2026-05-01T08:37:13.727Z</time></trkpt><trkpt lat="43.669075" lon="11.0893867"><ele>166.0</ele><time>2026-05-01T08:37:14.727Z</time></trkpt><trkpt lat="43.6689317" lon="11.08925"><ele>166.0</ele><time>2026-05-01T08:37:15.726Z</time></trkpt><trkpt lat="43.6687683" lon="11.0890933"><ele>166.0</ele><time>2026-05-01T08:37:16.729Z</time></trkpt><trkpt lat="43.6686067" lon="11.08892"><ele>163.66666666666669</ele><time>2026-05-01T08:37:17.726Z</time></trkpt><trkpt lat="43.6684583" lon="11.0887317"><ele>161.33333333333334</ele><time>2026-05-01T08:37:18.727Z</time></trkpt><trkpt lat="43.66832" lon="11.08852"><ele>159.0</ele><time>2026-05-01T08:37:19.727Z</time></trkpt><trkpt lat="43.6681867" lon="11.0883067"><ele>161.0</ele><time>2026-05-01T08:37:20.728Z</time></trkpt><trkpt lat="43.6680533" lon="11.088085"><ele>163.0</ele><time>2026-05-01T08:37:21.728Z</time></trkpt><trkpt lat="43.6679117" lon="11.0878683"><ele>165.0</ele><time>2026-05-01T08:37:22.726Z</time></trkpt><trkpt lat="43.66776" lon="11.0876667"><ele>162.33333333333334</ele><time>2026-05-01T08:37:23.726Z</time></trkpt><trkpt lat="43.6676033" lon="11.0874783"><ele>159.66666666666669</ele><time>2026-05-01T08:37:24.727Z</time></trkpt><trkpt lat="43.6674433" lon="11.0873033"><ele>157.0</ele><time>2026-05-01T08:37:25.726Z</time></trkpt><trkpt lat="43.6672883" lon="11.0871367"><ele>157.0</ele><time>2026-05-01T08:37:26.728Z</time></trkpt><trkpt lat="43.6671467" lon="11.0869667"><ele>157.0</ele><time>2026-05-01T08:37:27.727Z</time></trkpt><trkpt lat="43.667025" lon="11.0867783"><ele>157.0</ele><time>2026-05-01T08:37:28.727Z</time></trkpt><trkpt lat="43.6669283" lon="11.08657"><ele>151.0</ele><time>2026-05-01T08:37:29.728Z</time></trkpt><trkpt lat="43.666855" lon="11.08633"><ele>145.0</ele><time>2026-05-01T08:37:30.728Z</time></trkpt><trkpt lat="43.666785" lon="11.0860817"><ele>139.0</ele><time>2026-05-01T08:37:31.727Z</time></trkpt><trkpt lat="43.666725" lon="11.08583"><ele>139.33333333333334</ele><time>2026-05-01T08:37:32.727Z</time></trkpt><trkpt lat="43.66666" lon="11.0856"><ele>139.66666666666666</ele><time>2026-05-01T08:37:33.725Z</time></trkpt><trkpt lat="43.6666" lon="11.08538"><ele>140.0</ele><time>2026-05-01T08:37:34.728Z</time></trkpt><trkpt lat="43.6665567" lon="11.0851633"><ele>140.0</ele><time>2026-05-01T08:37:35.727Z</time></trkpt><trkpt lat="43.6665433" lon="11.0849517"><ele>140.0</ele><time>2026-05-01T08:37:36.727Z</time></trkpt><trkpt lat="43.6665717" lon="11.0847467"><ele>140.0</ele><time>2026-05-01T08:37:37.729Z</time></trkpt><trkpt lat="43.66663" lon="11.0845583"><ele>137.33333333333331</ele><time>2026-05-01T08:37:38.728Z</time></trkpt><trkpt lat="43.6667217" lon="11.0843817"><ele>134.66666666666666</ele><time>2026-05-01T08:37:39.727Z</time></trkpt><trkpt lat="43.666855" lon="11.0842233"><ele>132.0</ele><time>2026-05-01T08:37:40.728Z</time></trkpt><trkpt lat="43.6669833" lon="11.0840533"><ele>132.0</ele><time>2026-05-01T08:37:41.728Z</time></trkpt><trkpt lat="43.6671133" lon="11.0838733"><ele>132.0</ele><time>2026-05-01T08:37:42.728Z</time></trkpt><trkpt lat="43.6672433" lon="11.0836867"><ele>132.0</ele><time>2026-05-01T08:37:43.728Z</time></trkpt><trkpt lat="43.66737" lon="11.0835017"><ele>132.0</ele><time>2026-05-01T08:37:44.727Z</time></trkpt><trkpt lat="43.6675017" lon="11.0833233"><ele>132.0</ele><time>2026-05-01T08:37:45.728Z</time></trkpt><trkpt lat="43.6676267" lon="11.0831633"><ele>132.0</ele><time>2026-05-01T08:37:46.727Z</time></trkpt><trkpt lat="43.66775" lon="11.0830167"><ele>131.25</ele><time>2026-05-01T08:37:47.728Z</time></trkpt><trkpt lat="43.6678517" lon="11.082885"><ele>130.5</ele><time>2026-05-01T08:37:48.728Z</time></trkpt><trkpt lat="43.667915" lon="11.0827433"><ele>129.75</ele><time>2026-05-01T08:37:49.729Z</time></trkpt><trkpt lat="43.6679533" lon="11.0825733"><ele>129.0</ele><time>2026-05-01T08:37:50.728Z</time></trkpt><trkpt lat="43.6679667" lon="11.0824233"><ele>127.6</ele><time>2026-05-01T08:37:51.728Z</time></trkpt><trkpt lat="43.667955" lon="11.0822917"><ele>126.2</ele><time>2026-05-01T08:37:52.728Z</time></trkpt><trkpt lat="43.667875" lon="11.0822067"><ele>124.79999999999998</ele><time>2026-05-01T08:37:53.727Z</time></trkpt><trkpt lat="43.66779" lon="11.0821367"><ele>123.39999999999999</ele><time>2026-05-01T08:37:54.728Z</time></trkpt><trkpt lat="43.66764" lon="11.0821783"><ele>122.0</ele><time>2026-05-01T08:37:55.728Z</time></trkpt><trkpt lat="43.66746" lon="11.0822667"><ele>122.0</ele><time>2026-05-01T08:37:56.727Z</time></trkpt><trkpt lat="43.6672017" lon="11.0824283"><ele>122.0</ele><time>2026-05-01T08:37:57.727Z</time></trkpt><trkpt lat="43.667015" lon="11.0825167"><ele>119.66666666666666</ele><time>2026-05-01T08:37:58.727Z</time></trkpt><trkpt lat="43.6668283" lon="11.0826083"><ele>117.33333333333334</ele><time>2026-05-01T08:37:59.727Z</time></trkpt><trkpt lat="43.6666633" lon="11.082685"><ele>115.0</ele><time>2026-05-01T08:38:00.727Z</time></trkpt><trkpt lat="43.66651" lon="11.0827567"><ele>115.0</ele><time>2026-05-01T08:38:01.728Z</time></trkpt><trkpt lat="43.666355" lon="11.0828367"><ele>115.0</ele><time>2026-05-01T08:38:02.727Z</time></trkpt><trkpt lat="43.6662083" lon="11.0829083"><ele>115.0</ele><time>2026-05-01T08:38:03.726Z</time></trkpt><trkpt lat="43.6660717" lon="11.0829767"><ele>115.25</ele><time>2026-05-01T08:38:04.727Z</time></trkpt><trkpt lat="43.6659367" lon="11.0830583"><ele>115.5</ele><time>2026-05-01T08:38:05.727Z</time></trkpt><trkpt lat="43.6658083" lon="11.0831633"><ele>115.75</ele><time>2026-05-01T08:38:06.727Z</time></trkpt><trkpt lat="43.6656883" lon="11.08328"><ele>116.0</ele><time>2026-05-01T08:38:07.728Z</time></trkpt><trkpt lat="43.665575" lon="11.0833967"><ele>116.0</ele><time>2026-05-01T08:38:08.727Z</time></trkpt><trkpt lat="43.6654667" lon="11.083515"><ele>116.0</ele><time>2026-05-01T08:38:09.727Z</time></trkpt><trkpt lat="43.6653583" lon="11.083635"><ele>116.0</ele><time>2026-05-01T08:38:10.726Z</time></trkpt><trkpt lat="43.6652633" lon="11.0837433"><ele>116.0</ele><time>2026-05-01T08:38:11.727Z</time></trkpt><trkpt lat="43.6651717" lon="11.0838483"><ele>114.19999999999999</ele><time>2026-05-01T08:38:12.728Z</time></trkpt><trkpt lat="43.6650933" lon="11.0839417"><ele>112.39999999999999</ele><time>2026-05-01T08:38:13.727Z</time></trkpt><trkpt lat="43.665025" lon="11.0840333"><ele>110.6</ele><time>2026-05-01T08:38:14.728Z</time></trkpt><trkpt lat="43.66495" lon="11.08412"><ele>108.8</ele><time>2026-05-01T08:38:15.728Z</time></trkpt><trkpt lat="43.6648767" lon="11.0842"><ele>107.0</ele><time>2026-05-01T08:38:16.726Z</time></trkpt><trkpt lat="43.664815" lon="11.084275"><ele>106.83333333333333</ele><time>2026-05-01T08:38:17.728Z</time></trkpt><trkpt lat="43.66476" lon="11.08434"><ele>106.66666666666666</ele><time>2026-05-01T08:38:18.728Z</time></trkpt><trkpt lat="43.6646617" lon="11.08445"><ele>106.5</ele><time>2026-05-01T08:38:20.728Z</time></trkpt><trkpt lat="43.6646067" lon="11.0844983"><ele>106.33333333333334</ele><time>2026-05-01T08:38:21.727Z</time></trkpt><trkpt lat="43.6645517" lon="11.0845467"><ele>106.16666666666667</ele><time>2026-05-01T08:38:22.727Z</time></trkpt><trkpt lat="43.6644867" lon="11.0845967"><ele>106.0</ele><time>2026-05-01T08:38:23.726Z</time></trkpt><trkpt lat="43.6644067" lon="11.0846483"><ele>104.75</ele><time>2026-05-01T08:38:24.727Z</time></trkpt><trkpt lat="43.6643067" lon="11.084705"><ele>103.5</ele><time>2026-05-01T08:38:25.727Z</time></trkpt><trkpt lat="43.6641967" lon="11.084755"><ele>102.25</ele><time>2026-05-01T08:38:26.727Z</time></trkpt><trkpt lat="43.6640967" lon="11.08481"><ele>101.0</ele><time>2026-05-01T08:38:27.726Z</time></trkpt><trkpt lat="43.66398" lon="11.0848533"><ele>101.0</ele><time>2026-05-01T08:38:28.727Z</time></trkpt><trkpt lat="43.6638533" lon="11.0848667"><ele>101.0</ele><time>2026-05-01T08:38:29.728Z</time></trkpt><trkpt lat="43.6637267" lon="11.0848417"><ele>101.0</ele><time>2026-05-01T08:38:30.727Z</time></trkpt><trkpt lat="43.6635983" lon="11.0848033"><ele>101.0</ele><time>2026-05-01T08:38:31.727Z</time></trkpt><trkpt lat="43.6634733" lon="11.0847533"><ele>100.0</ele><time>2026-05-01T08:38:32.728Z</time></trkpt><trkpt lat="43.663345" lon="11.0847"><ele>99.0</ele><time>2026-05-01T08:38:33.727Z</time></trkpt><trkpt lat="43.6632083" lon="11.0846633"><ele>98.0</ele><time>2026-05-01T08:38:34.726Z</time></trkpt><trkpt lat="43.6630683" lon="11.0846267"><ele>97.0</ele><time>2026-05-01T08:38:35.727Z</time></trkpt><trkpt lat="43.6629233" lon="11.084585"><ele>98.0</ele><time>2026-05-01T08:38:36.728Z</time></trkpt><trkpt lat="43.662775" lon="11.0845583"><ele>99.0</ele><time>2026-05-01T08:38:37.727Z</time></trkpt><trkpt lat="43.6626083" lon="11.08454"><ele>100.0</ele><time>2026-05-01T08:38:38.728Z</time></trkpt><trkpt lat="43.662445" lon="11.0845283"><ele>100.0</ele><time>2026-05-01T08:38:39.727Z</time></trkpt><trkpt lat="43.6622867" lon="11.0845283"><ele>100.0</ele><time>2026-05-01T08:38:40.727Z</time></trkpt><trkpt lat="43.6621167" lon="11.0845367"><ele>100.0</ele><time>2026-05-01T08:38:41.727Z</time></trkpt><trkpt lat="43.6619567" lon="11.0845383"><ele>100.25</ele><time>2026-05-01T08:38:42.726Z</time></trkpt><trkpt lat="43.66181" lon="11.08454"><ele>100.5</ele><time>2026-05-01T08:38:43.725Z</time></trkpt><trkpt lat="43.6616667" lon="11.0845517"><ele>100.75</ele><time>2026-05-01T08:38:44.728Z</time></trkpt><trkpt lat="43.66154" lon="11.084575"><ele>101.0</ele><time>2026-05-01T08:38:45.727Z</time></trkpt><trkpt lat="43.66142" lon="11.0845867"><ele>101.0</ele><time>2026-05-01T08:38:46.727Z</time></trkpt><trkpt lat="43.6613017" lon="11.084565"><ele>101.0</ele><time>2026-05-01T08:38:47.726Z</time></trkpt><trkpt lat="43.6611783" lon="11.0845067"><ele>101.0</ele><time>2026-05-01T08:38:48.728Z</time></trkpt><trkpt lat="43.6610383" lon="11.0844533"><ele>101.0</ele><time>2026-05-01T08:38:49.728Z</time></trkpt><trkpt lat="43.6608917" lon="11.08442"><ele>99.66666666666666</ele><time>2026-05-01T08:38:50.727Z</time></trkpt><trkpt lat="43.6607383" lon="11.0843833"><ele>98.33333333333334</ele><time>2026-05-01T08:38:51.728Z</time></trkpt><trkpt lat="43.6605817" lon="11.0843583"><ele>97.0</ele><time>2026-05-01T08:38:52.727Z</time></trkpt><trkpt lat="43.6604183" lon="11.08434"><ele>97.66666666666667</ele><time>2026-05-01T08:38:53.727Z</time></trkpt><trkpt lat="43.660255" lon="11.0843233"><ele>98.33333333333334</ele><time>2026-05-01T08:38:54.728Z</time></trkpt><trkpt lat="43.660085" lon="11.0842983"><ele>99.0</ele><time>2026-05-01T08:38:55.727Z</time></trkpt><trkpt lat="43.6599133" lon="11.0842633"><ele>99.0</ele><time>2026-05-01T08:38:56.728Z</time></trkpt><trkpt lat="43.65974" lon="11.0842183"><ele>99.0</ele><time>2026-05-01T08:38:57.726Z</time></trkpt><trkpt lat="43.659565" lon="11.0841783"><ele>99.0</ele><time>2026-05-01T08:38:58.727Z</time></trkpt><trkpt lat="43.6593933" lon="11.08413"><ele>99.33333333333334</ele><time>2026-05-01T08:38:59.727Z</time></trkpt><trkpt lat="43.6592183" lon="11.0840917"><ele>99.66666666666667</ele><time>2026-05-01T08:39:00.726Z</time></trkpt><trkpt lat="43.6590467" lon="11.0840567"><ele>100.0</ele><time>2026-05-01T08:39:01.727Z</time></trkpt><trkpt lat="43.65888" lon="11.08402"><ele>100.0</ele><time>2026-05-01T08:39:02.727Z</time></trkpt><trkpt lat="43.6587117" lon="11.0839817"><ele>100.0</ele><time>2026-05-01T08:39:03.728Z</time></trkpt><trkpt lat="43.658545" lon="11.0839367"><ele>100.0</ele><time>2026-05-01T08:39:04.726Z</time></trkpt><trkpt lat="43.658375" lon="11.0838967"><ele>100.66666666666667</ele><time>2026-05-01T08:39:05.727Z</time></trkpt><trkpt lat="43.65821" lon="11.0838617"><ele>101.33333333333334</ele><time>2026-05-01T08:39:06.727Z</time></trkpt><trkpt lat="43.6580433" lon="11.0838333"><ele>102.0</ele><time>2026-05-01T08:39:07.729Z</time></trkpt><trkpt lat="43.6578833" lon="11.0838017"><ele>102.66666666666666</ele><time>2026-05-01T08:39:08.728Z</time></trkpt><trkpt lat="43.657725" lon="11.0837717"><ele>103.33333333333333</ele><time>2026-05-01T08:39:09.727Z</time></trkpt><trkpt lat="43.6575717" lon="11.0837417"><ele>104.0</ele><time>2026-05-01T08:39:10.727Z</time></trkpt><trkpt lat="43.65742" lon="11.083725"><ele>104.0</ele><time>2026-05-01T08:39:11.728Z</time></trkpt><trkpt lat="43.6572683" lon="11.0837383"><ele>104.0</ele><time>2026-05-01T08:39:12.727Z</time></trkpt><trkpt lat="43.657115" lon="11.083765"><ele>104.0</ele><time>2026-05-01T08:39:13.726Z</time></trkpt><trkpt lat="43.6569683" lon="11.08381"><ele>104.5</ele><time>2026-05-01T08:39:14.728Z</time></trkpt><trkpt lat="43.6568333" lon="11.0838667"><ele>105.0</ele><time>2026-05-01T08:39:15.728Z</time></trkpt><trkpt lat="43.65671" lon="11.0839283"><ele>105.5</ele><time>2026-05-01T08:39:16.725Z</time></trkpt><trkpt lat="43.6566" lon="11.08399"><ele>106.0</ele><time>2026-05-01T08:39:17.728Z</time></trkpt><trkpt lat="43.6565017" lon="11.0840467"><ele>105.8</ele><time>2026-05-01T08:39:18.727Z</time></trkpt><trkpt lat="43.6564167" lon="11.0841"><ele>105.6</ele><time>2026-05-01T08:39:19.728Z</time></trkpt><trkpt lat="43.6563383" lon="11.0841467"><ele>105.4</ele><time>2026-05-01T08:39:20.728Z</time></trkpt><trkpt lat="43.6562583" lon="11.0841933"><ele>105.2</ele><time>2026-05-01T08:39:21.727Z</time></trkpt><trkpt lat="43.6561733" lon="11.08425"><ele>105.0</ele><time>2026-05-01T08:39:22.727Z</time></trkpt><trkpt lat="43.6560917" lon="11.0843233"><ele>106.0</ele><time>2026-05-01T08:39:23.726Z</time></trkpt><trkpt lat="43.6560083" lon="11.0844117"><ele>107.0</ele><time>2026-05-01T08:39:24.727Z</time></trkpt><trkpt lat="43.65592" lon="11.084525"><ele>108.0</ele><time>2026-05-01T08:39:25.727Z</time></trkpt><trkpt lat="43.6558333" lon="11.084665"><ele>109.0</ele><time>2026-05-01T08:39:26.728Z</time></trkpt><trkpt lat="43.655755" lon="11.0848133"><ele>109.0</ele><time>2026-05-01T08:39:27.728Z</time></trkpt><trkpt lat="43.65568" lon="11.084965"><ele>109.0</ele><time>2026-05-01T08:39:28.727Z</time></trkpt><trkpt lat="43.6556217" lon="11.0851117"><ele>109.0</ele><time>2026-05-01T08:39:29.726Z</time></trkpt><trkpt lat="43.655565" lon="11.08525"><ele>109.0</ele><time>2026-05-01T08:39:30.728Z</time></trkpt><trkpt lat="43.6555067" lon="11.085375"><ele>109.0</ele><time>2026-05-01T08:39:31.727Z</time></trkpt><trkpt lat="43.6554383" lon="11.0854917"><ele>109.0</ele><time>2026-05-01T08:39:32.728Z</time></trkpt><trkpt lat="43.65536" lon="11.0856017"><ele>109.0</ele><time>2026-05-01T08:39:33.727Z</time></trkpt><trkpt lat="43.65527" lon="11.0857233"><ele>109.0</ele><time>2026-05-01T08:39:34.727Z</time></trkpt><trkpt lat="43.6551717" lon="11.085855"><ele>112.33333333333334</ele><time>2026-05-01T08:39:35.728Z</time></trkpt><trkpt lat="43.655055" lon="11.0859933"><ele>115.66666666666666</ele><time>2026-05-01T08:39:36.727Z</time></trkpt><trkpt lat="43.654915" lon="11.086135"><ele>119.0</ele><time>2026-05-01T08:39:37.727Z</time></trkpt><trkpt lat="43.6547533" lon="11.0862867"><ele>119.0</ele><time>2026-05-01T08:39:38.726Z</time></trkpt><trkpt lat="43.6545783" lon="11.08643"><ele>119.0</ele><time>2026-05-01T08:39:39.727Z</time></trkpt><trkpt lat="43.6543933" lon="11.086575"><ele>119.0</ele><time>2026-05-01T08:39:40.726Z</time></trkpt><trkpt lat="43.6542017" lon="11.086715"><ele>122.0</ele><time>2026-05-01T08:39:41.727Z</time></trkpt><trkpt lat="43.654" lon="11.0868633"><ele>125.0</ele><time>2026-05-01T08:39:42.728Z</time></trkpt><trkpt lat="43.653795" lon="11.087005"><ele>130.5</ele><time>2026-05-01T08:39:43.727Z</time></trkpt><trkpt lat="43.6535867" lon="11.087145"><ele>136.0</ele><time>2026-05-01T08:39:44.726Z</time></trkpt><trkpt lat="43.6533867" lon="11.0872817"><ele>136.0</ele><time>2026-05-01T08:39:45.727Z</time></trkpt><trkpt lat="43.6531933" lon="11.087415"><ele>136.0</ele><time>2026-05-01T08:39:46.726Z</time></trkpt><trkpt lat="43.65301" lon="11.0875467"><ele>136.0</ele><time>2026-05-01T08:39:47.727Z</time></trkpt><trkpt lat="43.6528333" lon="11.0876717"><ele>136.66666666666669</ele><time>2026-05-01T08:39:48.728Z</time></trkpt><trkpt lat="43.6526683" lon="11.087785"><ele>137.33333333333334</ele><time>2026-05-01T08:39:49.728Z</time></trkpt><trkpt lat="43.6525167" lon="11.087875"><ele>138.0</ele><time>2026-05-01T08:39:50.726Z</time></trkpt><trkpt lat="43.65238" lon="11.0879433"><ele>138.0</ele><time>2026-05-01T08:39:51.727Z</time></trkpt><trkpt lat="43.65226" lon="11.0879917"><ele>138.0</ele><time>2026-05-01T08:39:52.727Z</time></trkpt><trkpt lat="43.6521533" lon="11.0880133"><ele>138.0</ele><time>2026-05-01T08:39:53.728Z</time></trkpt><trkpt lat="43.6520583" lon="11.0880083"><ele>138.0</ele><time>2026-05-01T08:39:54.728Z</time></trkpt><trkpt lat="43.65197" lon="11.0879767"><ele>138.0</ele><time>2026-05-01T08:39:55.726Z</time></trkpt><trkpt lat="43.6518967" lon="11.08791"><ele>139.66666666666666</ele><time>2026-05-01T08:39:56.728Z</time></trkpt><trkpt lat="43.65184" lon="11.08782"><ele>141.33333333333334</ele><time>2026-05-01T08:39:57.727Z</time></trkpt><trkpt lat="43.651835" lon="11.0877"><ele>143.0</ele><time>2026-05-01T08:39:58.727Z</time></trkpt><trkpt lat="43.65185" lon="11.087595"><ele>144.66666666666669</ele><time>2026-05-01T08:39:59.728Z</time></trkpt><trkpt lat="43.6518983" lon="11.08749"><ele>146.33333333333334</ele><time>2026-05-01T08:40:00.726Z</time></trkpt><trkpt lat="43.6519683" lon="11.0874033"><ele>148.0</ele><time>2026-05-01T08:40:01.728Z</time></trkpt><trkpt lat="43.65208" lon="11.0873267"><ele>148.0</ele><time>2026-05-01T08:40:02.728Z</time></trkpt><trkpt lat="43.6521833" lon="11.0872667"><ele>148.0</ele><time>2026-05-01T08:40:03.727Z</time></trkpt><trkpt lat="43.65228" lon="11.08719"><ele>148.0</ele><time>2026-05-01T08:40:04.726Z</time></trkpt><trkpt lat="43.6523567" lon="11.0870983"><ele>148.0</ele><time>2026-05-01T08:40:05.728Z</time></trkpt><trkpt lat="43.65242" lon="11.0869817"><ele>148.0</ele><time>2026-05-01T08:40:06.728Z</time></trkpt><trkpt lat="43.65246" lon="11.086835"><ele>148.0</ele><time>2026-05-01T08:40:07.726Z</time></trkpt><trkpt lat="43.6524867" lon="11.0866833"><ele>148.0</ele><time>2026-05-01T08:40:08.726Z</time></trkpt><trkpt lat="43.6525067" lon="11.08653"><ele>148.0</ele><time>2026-05-01T08:40:09.727Z</time></trkpt><trkpt lat="43.65252" lon="11.0863867"><ele>148.0</ele><time>2026-05-01T08:40:10.726Z</time></trkpt><trkpt lat="43.6525367" lon="11.086245"><ele>148.0</ele><time>2026-05-01T08:40:11.726Z</time></trkpt><trkpt lat="43.65257" lon="11.08611"><ele>148.20000000000002</ele><time>2026-05-01T08:40:12.728Z</time></trkpt><trkpt lat="43.6526233" lon="11.0859933"><ele>148.4</ele><time>2026-05-01T08:40:13.727Z</time></trkpt><trkpt lat="43.6527" lon="11.0859"><ele>148.60000000000002</ele><time>2026-05-01T08:40:14.727Z</time></trkpt><trkpt lat="43.6527917" lon="11.0858283"><ele>148.8</ele><time>2026-05-01T08:40:15.725Z</time></trkpt><trkpt lat="43.6528883" lon="11.0857617"><ele>149.0</ele><time>2026-05-01T08:40:16.725Z</time></trkpt><trkpt lat="43.65299" lon="11.085695"><ele>150.0</ele><time>2026-05-01T08:40:17.727Z</time></trkpt><trkpt lat="43.65309" lon="11.0856317"><ele>151.0</ele><time>2026-05-01T08:40:18.727Z</time></trkpt><trkpt lat="43.6531867" lon="11.0855667"><ele>152.0</ele><time>2026-05-01T08:40:19.727Z</time></trkpt><trkpt lat="43.6532717" lon="11.0854983"><ele>153.0</ele><time>2026-05-01T08:40:20.727Z</time></trkpt><trkpt lat="43.65335" lon="11.08542"><ele>154.0</ele><time>2026-05-01T08:40:21.727Z</time></trkpt><trkpt lat="43.6534117" lon="11.085315"><ele>154.0</ele><time>2026-05-01T08:40:22.727Z</time></trkpt><trkpt lat="43.6534417" lon="11.0851917"><ele>154.0</ele><time>2026-05-01T08:40:23.726Z</time></trkpt><trkpt lat="43.6534533" lon="11.0850617"><ele>154.0</ele><time>2026-05-01T08:40:24.727Z</time></trkpt><trkpt lat="43.65344" lon="11.0849317"><ele>154.0</ele><time>2026-05-01T08:40:25.727Z</time></trkpt><trkpt lat="43.6534083" lon="11.0847983"><ele>154.0</ele><time>2026-05-01T08:40:26.728Z</time></trkpt><trkpt lat="43.653345" lon="11.0847083"><ele>153.2</ele><time>2026-05-01T08:40:27.727Z</time></trkpt><trkpt lat="43.653265" lon="11.0846333"><ele>152.4</ele><time>2026-05-01T08:40:28.727Z</time></trkpt><trkpt lat="43.6531533" lon="11.0845967"><ele>151.6</ele><time>2026-05-01T08:40:29.727Z</time></trkpt><trkpt lat="43.6530467" lon="11.0845817"><ele>150.8</ele><time>2026-05-01T08:40:30.726Z</time></trkpt><trkpt lat="43.6529317" lon="11.0845983"><ele>150.0</ele><time>2026-05-01T08:40:31.726Z</time></trkpt><trkpt lat="43.6528233" lon="11.0846333"><ele>152.0</ele><time>2026-05-01T08:40:32.728Z</time></trkpt><trkpt lat="43.6527133" lon="11.08468"><ele>154.0</ele><time>2026-05-01T08:40:33.727Z</time></trkpt><trkpt lat="43.6525967" lon="11.0847333"><ele>156.0</ele><time>2026-05-01T08:40:34.727Z</time></trkpt><trkpt lat="43.6524783" lon="11.0847833"><ele>158.0</ele><time>2026-05-01T08:40:35.727Z</time></trkpt><trkpt lat="43.6523667" lon="11.0848367"><ele>158.0</ele><time>2026-05-01T08:40:36.727Z</time></trkpt><trkpt lat="43.6522567" lon="11.0848917"><ele>158.0</ele><time>2026-05-01T08:40:37.727Z</time></trkpt><trkpt lat="43.6521383" lon="11.0849817"><ele>158.0</ele><time>2026-05-01T08:40:38.728Z</time></trkpt><trkpt lat="43.6520133" lon="11.085095"><ele>158.0</ele><time>2026-05-01T08:40:39.726Z</time></trkpt><trkpt lat="43.6518917" lon="11.0852233"><ele>161.25</ele><time>2026-05-01T08:40:40.726Z</time></trkpt><trkpt lat="43.6517783" lon="11.0853617"><ele>164.5</ele><time>2026-05-01T08:40:41.726Z</time></trkpt><trkpt lat="43.65168" lon="11.085485"><ele>167.75</ele><time>2026-05-01T08:40:42.727Z</time></trkpt><trkpt lat="43.6515917" lon="11.0855917"><ele>171.0</ele><time>2026-05-01T08:40:43.726Z</time></trkpt><trkpt lat="43.6515117" lon="11.0856683"><ele>171.0</ele><time>2026-05-01T08:40:44.727Z</time></trkpt><trkpt lat="43.6514317" lon="11.085695"><ele>171.0</ele><time>2026-05-01T08:40:45.727Z</time></trkpt><trkpt lat="43.6513617" lon="11.0856333"><ele>171.0</ele><time>2026-05-01T08:40:46.726Z</time></trkpt><trkpt lat="43.6513117" lon="11.0855517"><ele>171.0</ele><time>2026-05-01T08:40:47.727Z</time></trkpt><trkpt lat="43.6513167" lon="11.0854183"><ele>171.0</ele><time>2026-05-01T08:40:48.727Z</time></trkpt><trkpt lat="43.65132" lon="11.085295"><ele>171.0</ele><time>2026-05-01T08:40:49.727Z</time></trkpt><trkpt lat="43.6513167" lon="11.0851517"><ele>171.0</ele><time>2026-05-01T08:40:50.727Z</time></trkpt><trkpt lat="43.6512917" lon="11.0850117"><ele>171.0</ele><time>2026-05-01T08:40:51.727Z</time></trkpt><trkpt lat="43.6512483" lon="11.084885"><ele>171.0</ele><time>2026-05-01T08:40:52.727Z</time></trkpt><trkpt lat="43.6511733" lon="11.084795"><ele>171.0</ele><time>2026-05-01T08:40:53.728Z</time></trkpt><trkpt lat="43.65105" lon="11.0847317"><ele>171.0</ele><time>2026-05-01T08:40:54.728Z</time></trkpt><trkpt lat="43.6509067" lon="11.08471"><ele>174.33333333333334</ele><time>2026-05-01T08:40:55.728Z</time></trkpt><trkpt lat="43.65075" lon="11.0847"><ele>177.66666666666669</ele><time>2026-05-01T08:40:56.726Z</time></trkpt><trkpt lat="43.650585" lon="11.0846917"><ele>181.0</ele><time>2026-05-01T08:40:57.726Z</time></trkpt><trkpt lat="43.65042" lon="11.08469"><ele>183.66666666666669</ele><time>2026-05-01T08:40:58.727Z</time></trkpt><trkpt lat="43.6502517" lon="11.084695"><ele>186.33333333333334</ele><time>2026-05-01T08:40:59.728Z</time></trkpt><trkpt lat="43.6500833" lon="11.0847083"><ele>189.0</ele><time>2026-05-01T08:41:00.728Z</time></trkpt><trkpt lat="43.6499233" lon="11.0847467"><ele>189.0</ele><time>2026-05-01T08:41:01.728Z</time></trkpt><trkpt lat="43.6497667" lon="11.0847967"><ele>189.0</ele><time>2026-05-01T08:41:02.726Z</time></trkpt><trkpt lat="43.6496317" lon="11.0848467"><ele>189.0</ele><time>2026-05-01T08:41:03.727Z</time></trkpt><trkpt lat="43.6495033" lon="11.08492"><ele>189.0</ele><time>2026-05-01T08:41:04.727Z</time></trkpt><trkpt lat="43.6493883" lon="11.085005"><ele>192.25</ele><time>2026-05-01T08:41:05.728Z</time></trkpt><trkpt lat="43.6493283" lon="11.08512"><ele>195.5</ele><time>2026-05-01T08:41:06.728Z</time></trkpt><trkpt lat="43.649285" lon="11.0852833"><ele>198.75</ele><time>2026-05-01T08:41:07.728Z</time></trkpt><trkpt lat="43.649225" lon="11.0854467"><ele>202.0</ele><time>2026-05-01T08:41:08.727Z</time></trkpt><trkpt lat="43.6491767" lon="11.0855883"><ele>202.0</ele><time>2026-05-01T08:41:09.728Z</time></trkpt><trkpt lat="43.6491083" lon="11.0856983"><ele>202.0</ele><time>2026-05-01T08:41:10.726Z</time></trkpt><trkpt lat="43.6490167" lon="11.0857583"><ele>202.0</ele><time>2026-05-01T08:41:11.727Z</time></trkpt><trkpt lat="43.6489033" lon="11.085765"><ele>202.0</ele><time>2026-05-01T08:41:12.728Z</time></trkpt><trkpt lat="43.6487733" lon="11.08572"><ele>202.0</ele><time>2026-05-01T08:41:13.727Z</time></trkpt><trkpt lat="43.6486467" lon="11.0856317"><ele>202.0</ele><time>2026-05-01T08:41:14.727Z</time></trkpt><trkpt lat="43.6485333" lon="11.0855233"><ele>202.0</ele><time>2026-05-01T08:41:15.726Z</time></trkpt><trkpt lat="43.6484517" lon="11.0853683"><ele>202.0</ele><time>2026-05-01T08:41:16.726Z</time></trkpt><trkpt lat="43.64838" lon="11.0851933"><ele>202.33333333333331</ele><time>2026-05-01T08:41:17.728Z</time></trkpt><trkpt lat="43.648315" lon="11.0849917"><ele>202.66666666666669</ele><time>2026-05-01T08:41:18.728Z</time></trkpt><trkpt lat="43.64825" lon="11.0847717"><ele>203.0</ele><time>2026-05-01T08:41:19.726Z</time></trkpt><trkpt lat="43.64818" lon="11.0845433"><ele>203.0</ele><time>2026-05-01T08:41:20.728Z</time></trkpt><trkpt lat="43.6481067" lon="11.0843133"><ele>203.0</ele><time>2026-05-01T08:41:21.726Z</time></trkpt><trkpt lat="43.64803" lon="11.0840917"><ele>203.0</ele><time>2026-05-01T08:41:22.727Z</time></trkpt><trkpt lat="43.64796" lon="11.0838633"><ele>201.33333333333334</ele><time>2026-05-01T08:41:23.728Z</time></trkpt><trkpt lat="43.6478867" lon="11.0836317"><ele>199.66666666666669</ele><time>2026-05-01T08:41:24.728Z</time></trkpt><trkpt lat="43.6478133" lon="11.0833967"><ele>198.0</ele><time>2026-05-01T08:41:25.727Z</time></trkpt><trkpt lat="43.6477417" lon="11.083165"><ele>202.33333333333331</ele><time>2026-05-01T08:41:26.729Z</time></trkpt><trkpt lat="43.64767" lon="11.08293"><ele>206.66666666666666</ele><time>2026-05-01T08:41:27.727Z</time></trkpt><trkpt lat="43.6476017" lon="11.0826917"><ele>211.0</ele><time>2026-05-01T08:41:28.728Z</time></trkpt><trkpt lat="43.6475433" lon="11.0824483"><ele>211.66666666666666</ele><time>2026-05-01T08:41:29.729Z</time></trkpt><trkpt lat="43.64749" lon="11.0822033"><ele>212.33333333333331</ele><time>2026-05-01T08:41:30.729Z</time></trkpt><trkpt lat="43.6474417" lon="11.0819567"><ele>213.0</ele><time>2026-05-01T08:41:31.728Z</time></trkpt><trkpt lat="43.647385" lon="11.0817167"><ele>210.0</ele><time>2026-05-01T08:41:32.728Z</time></trkpt><trkpt lat="43.6473183" lon="11.0814833"><ele>207.0</ele><time>2026-05-01T08:41:33.728Z</time></trkpt><trkpt lat="43.647235" lon="11.0812617"><ele>204.0</ele><time>2026-05-01T08:41:34.727Z</time></trkpt><trkpt lat="43.64713" lon="11.0810417"><ele>204.0</ele><time>2026-05-01T08:41:35.728Z</time></trkpt><trkpt lat="43.647005" lon="11.0808417"><ele>204.0</ele><time>2026-05-01T08:41:36.726Z</time></trkpt><trkpt lat="43.6468667" lon="11.080655"><ele>204.0</ele><time>2026-05-01T08:41:37.727Z</time></trkpt><trkpt lat="43.6467183" lon="11.0804667"><ele>205.33333333333331</ele><time>2026-05-01T08:41:38.728Z</time></trkpt><trkpt lat="43.6465733" lon="11.0802817"><ele>206.66666666666666</ele><time>2026-05-01T08:41:39.728Z</time></trkpt><trkpt lat="43.6464417" lon="11.080075"><ele>208.0</ele><time>2026-05-01T08:41:40.727Z</time></trkpt><trkpt lat="43.64633" lon="11.0798533"><ele>208.0</ele><time>2026-05-01T08:41:41.727Z</time></trkpt><trkpt lat="43.6462333" lon="11.0796217"><ele>208.0</ele><time>2026-05-01T08:41:42.728Z</time></trkpt><trkpt lat="43.64616" lon="11.079375"><ele>208.0</ele><time>2026-05-01T08:41:43.727Z</time></trkpt><trkpt lat="43.6461" lon="11.0791233"><ele>214.0</ele><time>2026-05-01T08:41:44.728Z</time></trkpt><trkpt lat="43.6460517" lon="11.07887"><ele>220.0</ele><time>2026-05-01T08:41:45.729Z</time></trkpt><trkpt lat="43.6460067" lon="11.078615"><ele>226.0</ele><time>2026-05-01T08:41:46.728Z</time></trkpt><trkpt lat="43.6459633" lon="11.0783617"><ele>226.0</ele><time>2026-05-01T08:41:47.728Z</time></trkpt><trkpt lat="43.6459167" lon="11.07811"><ele>226.0</ele><time>2026-05-01T08:41:48.727Z</time></trkpt><trkpt lat="43.645865" lon="11.077865"><ele>226.0</ele><time>2026-05-01T08:41:49.725Z</time></trkpt><trkpt lat="43.6458083" lon="11.0776283"><ele>226.66666666666666</ele><time>2026-05-01T08:41:50.727Z</time></trkpt><trkpt lat="43.6457533" lon="11.0773983"><ele>227.33333333333331</ele><time>2026-05-01T08:41:51.727Z</time></trkpt><trkpt lat="43.6456983" lon="11.077175"><ele>228.0</ele><time>2026-05-01T08:41:52.728Z</time></trkpt><trkpt lat="43.6456467" lon="11.0769617"><ele>228.0</ele><time>2026-05-01T08:41:53.727Z</time></trkpt><trkpt lat="43.645605" lon="11.0767583"><ele>228.0</ele><time>2026-05-01T08:41:54.727Z</time></trkpt><trkpt lat="43.6455683" lon="11.0765633"><ele>228.0</ele><time>2026-05-01T08:41:55.728Z</time></trkpt><trkpt lat="43.6455333" lon="11.0763717"><ele>228.0</ele><time>2026-05-01T08:41:56.729Z</time></trkpt><trkpt lat="43.6454983" lon="11.0761783"><ele>227.75</ele><time>2026-05-01T08:41:57.727Z</time></trkpt><trkpt lat="43.6454667" lon="11.07598"><ele>227.5</ele><time>2026-05-01T08:41:58.727Z</time></trkpt><trkpt lat="43.6454317" lon="11.075785"><ele>227.25</ele><time>2026-05-01T08:41:59.727Z</time></trkpt><trkpt lat="43.6453983" lon="11.0755917"><ele>227.0</ele><time>2026-05-01T08:42:00.728Z</time></trkpt><trkpt lat="43.6453667" lon="11.0753983"><ele>227.5</ele><time>2026-05-01T08:42:01.729Z</time></trkpt><trkpt lat="43.6453383" lon="11.075215"><ele>228.0</ele><time>2026-05-01T08:42:02.728Z</time></trkpt><trkpt lat="43.64531" lon="11.075035"><ele>228.5</ele><time>2026-05-01T08:42:03.728Z</time></trkpt><trkpt lat="43.64529" lon="11.0748617"><ele>229.0</ele><time>2026-05-01T08:42:04.729Z</time></trkpt><trkpt lat="43.6452683" lon="11.0747033"><ele>230.2</ele><time>2026-05-01T08:42:05.726Z</time></trkpt><trkpt lat="43.6452533" lon="11.074565"><ele>231.39999999999998</ele><time>2026-05-01T08:42:06.728Z</time></trkpt><trkpt lat="43.6452417" lon="11.0744367"><ele>232.6</ele><time>2026-05-01T08:42:07.727Z</time></trkpt><trkpt lat="43.64523" lon="11.07431"><ele>233.8</ele><time>2026-05-01T08:42:08.729Z</time></trkpt><trkpt lat="43.6452183" lon="11.0741933"><ele>235.0</ele><time>2026-05-01T08:42:09.728Z</time></trkpt><trkpt lat="43.6452083" lon="11.0740867"><ele>234.99999999999997</ele><time>2026-05-01T08:42:10.727Z</time></trkpt><trkpt lat="43.645195" lon="11.0739883"><ele>235.0</ele><time>2026-05-01T08:42:11.727Z</time></trkpt><trkpt lat="43.6451817" lon="11.0738817"><ele>235.0</ele><time>2026-05-01T08:42:12.727Z</time></trkpt><trkpt lat="43.6451717" lon="11.0737767"><ele>235.0</ele><time>2026-05-01T08:42:13.729Z</time></trkpt><trkpt lat="43.6451617" lon="11.07367"><ele>234.99999999999997</ele><time>2026-05-01T08:42:14.727Z</time></trkpt><trkpt lat="43.6451517" lon="11.0735617"><ele>235.0</ele><time>2026-05-01T08:42:15.727Z</time></trkpt><trkpt lat="43.6451367" lon="11.073435"><ele>235.0</ele><time>2026-05-01T08:42:16.727Z</time></trkpt><trkpt lat="43.6451183" lon="11.073295"><ele>235.0</ele><time>2026-05-01T08:42:17.728Z</time></trkpt><trkpt lat="43.6450983" lon="11.073145"><ele>235.0</ele><time>2026-05-01T08:42:18.727Z</time></trkpt><trkpt lat="43.645075" lon="11.072985"><ele>235.0</ele><time>2026-05-01T08:42:19.727Z</time></trkpt><trkpt lat="43.6450483" lon="11.0728283"><ele>235.0</ele><time>2026-05-01T08:42:20.728Z</time></trkpt><trkpt lat="43.6450267" lon="11.07268"><ele>234.6</ele><time>2026-05-01T08:42:21.728Z</time></trkpt><trkpt lat="43.6450083" lon="11.0725417"><ele>234.2</ele><time>2026-05-01T08:42:22.726Z</time></trkpt><trkpt lat="43.6449867" lon="11.0724067"><ele>233.8</ele><time>2026-05-01T08:42:23.726Z</time></trkpt><trkpt lat="43.644965" lon="11.0722767"><ele>233.4</ele><time>2026-05-01T08:42:24.728Z</time></trkpt><trkpt lat="43.64494" lon="11.0721483"><ele>233.0</ele><time>2026-05-01T08:42:25.728Z</time></trkpt><trkpt lat="43.644915" lon="11.072015"><ele>232.8</ele><time>2026-05-01T08:42:26.728Z</time></trkpt><trkpt lat="43.6448733" lon="11.0718917"><ele>232.60000000000002</ele><time>2026-05-01T08:42:27.727Z</time></trkpt><trkpt lat="43.64483" lon="11.0717667"><ele>232.39999999999998</ele><time>2026-05-01T08:42:28.727Z</time></trkpt><trkpt lat="43.6447833" lon="11.0716467"><ele>232.2</ele><time>2026-05-01T08:42:29.728Z</time></trkpt><trkpt lat="43.644735" lon="11.071535"><ele>232.0</ele><time>2026-05-01T08:42:30.726Z</time></trkpt><trkpt lat="43.644685" lon="11.0714417"><ele>231.83333333333331</ele><time>2026-05-01T08:42:31.728Z</time></trkpt><trkpt lat="43.64464" lon="11.0713567"><ele>231.66666666666666</ele><time>2026-05-01T08:42:32.727Z</time></trkpt><trkpt lat="43.6445983" lon="11.071285"><ele>231.5</ele><time>2026-05-01T08:42:33.728Z</time></trkpt><trkpt lat="43.6445317" lon="11.071165"><ele>231.33333333333331</ele><time>2026-05-01T08:42:35.728Z</time></trkpt><trkpt lat="43.6444717" lon="11.0710283"><ele>231.16666666666666</ele><time>2026-05-01T08:42:37.728Z</time></trkpt><trkpt lat="43.64445" lon="11.07094"><ele>231.0</ele><time>2026-05-01T08:42:38.727Z</time></trkpt><trkpt lat="43.6444317" lon="11.070855"><ele>231.0</ele><time>2026-05-01T08:42:39.727Z</time></trkpt><trkpt lat="43.6444333" lon="11.0707667"><ele>231.00000000000003</ele><time>2026-05-01T08:42:40.727Z</time></trkpt><trkpt lat="43.6444567" lon="11.07067"><ele>231.00000000000003</ele><time>2026-05-01T08:42:41.727Z</time></trkpt><trkpt lat="43.6444933" lon="11.0705483"><ele>231.0</ele><time>2026-05-01T08:42:42.729Z</time></trkpt><trkpt lat="43.64454" lon="11.0704033"><ele>231.0</ele><time>2026-05-01T08:42:43.728Z</time></trkpt><trkpt lat="43.6445833" lon="11.07027"><ele>230.75</ele><time>2026-05-01T08:42:44.73Z</time></trkpt><trkpt lat="43.644625" lon="11.07013"><ele>230.5</ele><time>2026-05-01T08:42:45.727Z</time></trkpt><trkpt lat="43.6446683" lon="11.06999"><ele>230.25</ele><time>2026-05-01T08:42:46.726Z</time></trkpt><trkpt lat="43.6447067" lon="11.0698417"><ele>230.0</ele><time>2026-05-01T08:42:47.727Z</time></trkpt><trkpt lat="43.6447367" lon="11.0696867"><ele>229.8</ele><time>2026-05-01T08:42:48.727Z</time></trkpt><trkpt lat="43.6447667" lon="11.0695367"><ele>229.6</ele><time>2026-05-01T08:42:49.727Z</time></trkpt><trkpt lat="43.6447917" lon="11.0693917"><ele>229.39999999999998</ele><time>2026-05-01T08:42:50.728Z</time></trkpt><trkpt lat="43.6448167" lon="11.0692517"><ele>229.2</ele><time>2026-05-01T08:42:51.726Z</time></trkpt><trkpt lat="43.6448383" lon="11.06911"><ele>229.0</ele><time>2026-05-01T08:42:52.729Z</time></trkpt><trkpt lat="43.64486" lon="11.0689667"><ele>229.0</ele><time>2026-05-01T08:42:53.728Z</time></trkpt><trkpt lat="43.6448867" lon="11.06882"><ele>228.99999999999997</ele><time>2026-05-01T08:42:54.728Z</time></trkpt><trkpt lat="43.6449183" lon="11.0686783"><ele>228.99999999999997</ele><time>2026-05-01T08:42:55.727Z</time></trkpt><trkpt lat="43.644955" lon="11.0685283"><ele>229.0</ele><time>2026-05-01T08:42:56.728Z</time></trkpt><trkpt lat="43.6450033" lon="11.06838"><ele>229.0</ele><time>2026-05-01T08:42:57.727Z</time></trkpt><trkpt lat="43.6450517" lon="11.0682283"><ele>228.25</ele><time>2026-05-01T08:42:58.728Z</time></trkpt><trkpt lat="43.6450933" lon="11.068085"><ele>227.5</ele><time>2026-05-01T08:42:59.728Z</time></trkpt><trkpt lat="43.6451483" lon="11.0679467"><ele>226.75</ele><time>2026-05-01T08:43:00.727Z</time></trkpt><trkpt lat="43.6452117" lon="11.0678133"><ele>226.0</ele><time>2026-05-01T08:43:01.726Z</time></trkpt><trkpt lat="43.6452783" lon="11.0676867"><ele>226.60000000000002</ele><time>2026-05-01T08:43:02.728Z</time></trkpt><trkpt lat="43.645345" lon="11.067565"><ele>227.20000000000002</ele><time>2026-05-01T08:43:03.726Z</time></trkpt><trkpt lat="43.6454067" lon="11.0674467"><ele>227.79999999999998</ele><time>2026-05-01T08:43:04.727Z</time></trkpt><trkpt lat="43.645465" lon="11.0673367"><ele>228.39999999999998</ele><time>2026-05-01T08:43:05.726Z</time></trkpt><trkpt lat="43.64552" lon="11.0672417"><ele>229.0</ele><time>2026-05-01T08:43:06.729Z</time></trkpt><trkpt lat="43.6455633" lon="11.0671467"><ele>229.71428571428572</ele><time>2026-05-01T08:43:07.725Z</time></trkpt><trkpt lat="43.64561" lon="11.0670633"><ele>230.42857142857144</ele><time>2026-05-01T08:43:08.726Z</time></trkpt><trkpt lat="43.64565" lon="11.0669867"><ele>231.14285714285717</ele><time>2026-05-01T08:43:09.726Z</time></trkpt><trkpt lat="43.64569" lon="11.0669083"><ele>231.85714285714286</ele><time>2026-05-01T08:43:10.727Z</time></trkpt><trkpt lat="43.64573" lon="11.0668267"><ele>232.5714285714286</ele><time>2026-05-01T08:43:11.731Z</time></trkpt><trkpt lat="43.64577" lon="11.06675"><ele>233.2857142857143</ele><time>2026-05-01T08:43:12.726Z</time></trkpt><trkpt lat="43.6457983" lon="11.0666683"><ele>234.0</ele><time>2026-05-01T08:43:13.725Z</time></trkpt><trkpt lat="43.6458417" lon="11.066515"><ele>234.0</ele><time>2026-05-01T08:43:15.726Z</time></trkpt><trkpt lat="43.6458733" lon="11.06637"><ele>234.0</ele><time>2026-05-01T08:43:17.725Z</time></trkpt><trkpt lat="43.6458933" lon="11.0662833"><ele>234.0</ele><time>2026-05-01T08:43:18.726Z</time></trkpt><trkpt lat="43.6459083" lon="11.0661817"><ele>234.0</ele><time>2026-05-01T08:43:19.725Z</time></trkpt><trkpt lat="43.645925" lon="11.0660533"><ele>234.0</ele><time>2026-05-01T08:43:20.727Z</time></trkpt><trkpt lat="43.6459317" lon="11.0659167"><ele>234.0</ele><time>2026-05-01T08:43:21.727Z</time></trkpt><trkpt lat="43.645935" lon="11.065775"><ele>233.79999999999998</ele><time>2026-05-01T08:43:22.725Z</time></trkpt><trkpt lat="43.645945" lon="11.0656367"><ele>233.59999999999997</ele><time>2026-05-01T08:43:23.725Z</time></trkpt><trkpt lat="43.64594" lon="11.065495"><ele>233.4</ele><time>2026-05-01T08:43:24.727Z</time></trkpt><trkpt lat="43.64594" lon="11.0653417"><ele>233.2</ele><time>2026-05-01T08:43:25.729Z</time></trkpt><trkpt lat="43.6459367" lon="11.065175"><ele>233.0</ele><time>2026-05-01T08:43:26.727Z</time></trkpt><trkpt lat="43.6459317" lon="11.0649983"><ele>232.75</ele><time>2026-05-01T08:43:27.727Z</time></trkpt><trkpt lat="43.645935" lon="11.0648133"><ele>232.5</ele><time>2026-05-01T08:43:28.727Z</time></trkpt><trkpt lat="43.6459333" lon="11.0646317"><ele>232.25</ele><time>2026-05-01T08:43:29.725Z</time></trkpt><trkpt lat="43.6459333" lon="11.0644717"><ele>232.0</ele><time>2026-05-01T08:43:30.726Z</time></trkpt><trkpt lat="43.64593" lon="11.0643267"><ele>232.0</ele><time>2026-05-01T08:43:31.726Z</time></trkpt><trkpt lat="43.6459283" lon="11.0641967"><ele>232.0</ele><time>2026-05-01T08:43:32.727Z</time></trkpt><trkpt lat="43.6459333" lon="11.06407"><ele>232.0</ele><time>2026-05-01T08:43:33.726Z</time></trkpt><trkpt lat="43.64594" lon="11.06394"><ele>232.0</ele><time>2026-05-01T08:43:34.725Z</time></trkpt><trkpt lat="43.6459467" lon="11.063805"><ele>232.0</ele><time>2026-05-01T08:43:35.727Z</time></trkpt><trkpt lat="43.645955" lon="11.063655"><ele>231.0</ele><time>2026-05-01T08:43:36.726Z</time></trkpt><trkpt lat="43.645965" lon="11.0634767"><ele>230.0</ele><time>2026-05-01T08:43:37.726Z</time></trkpt><trkpt lat="43.6459917" lon="11.0632767"><ele>229.0</ele><time>2026-05-01T08:43:38.725Z</time></trkpt><trkpt lat="43.6460167" lon="11.0630867"><ele>228.0</ele><time>2026-05-01T08:43:39.725Z</time></trkpt><trkpt lat="43.646045" lon="11.06291"><ele>227.8</ele><time>2026-05-01T08:43:40.726Z</time></trkpt><trkpt lat="43.6460717" lon="11.0627567"><ele>227.60000000000002</ele><time>2026-05-01T08:43:41.726Z</time></trkpt><trkpt lat="43.6460917" lon="11.0626233"><ele>227.39999999999998</ele><time>2026-05-01T08:43:42.725Z</time></trkpt><trkpt lat="43.6461" lon="11.062495"><ele>227.2</ele><time>2026-05-01T08:43:43.727Z</time></trkpt><trkpt lat="43.6461" lon="11.0623583"><ele>227.0</ele><time>2026-05-01T08:43:44.728Z</time></trkpt><trkpt lat="43.6460817" lon="11.06221"><ele>227.0</ele><time>2026-05-01T08:43:45.726Z</time></trkpt><trkpt lat="43.64604" lon="11.0620433"><ele>227.0</ele><time>2026-05-01T08:43:46.725Z</time></trkpt><trkpt lat="43.6459983" lon="11.0618733"><ele>227.0</ele><time>2026-05-01T08:43:47.726Z</time></trkpt><trkpt lat="43.6459567" lon="11.0617017"><ele>227.0</ele><time>2026-05-01T08:43:48.727Z</time></trkpt><trkpt lat="43.645905" lon="11.061535"><ele>227.2</ele><time>2026-05-01T08:43:49.725Z</time></trkpt><trkpt lat="43.6458583" lon="11.0613833"><ele>227.39999999999998</ele><time>2026-05-01T08:43:50.726Z</time></trkpt><trkpt lat="43.645815" lon="11.06124"><ele>227.60000000000002</ele><time>2026-05-01T08:43:51.726Z</time></trkpt><trkpt lat="43.6457683" lon="11.0611117"><ele>227.8</ele><time>2026-05-01T08:43:52.726Z</time></trkpt><trkpt lat="43.6457233" lon="11.0609867"><ele>228.0</ele><time>2026-05-01T08:43:53.726Z</time></trkpt><trkpt lat="43.64568" lon="11.06086"><ele>227.25</ele><time>2026-05-01T08:43:54.725Z</time></trkpt><trkpt lat="43.645635" lon="11.060725"><ele>226.5</ele><time>2026-05-01T08:43:55.726Z</time></trkpt><trkpt lat="43.6455883" lon="11.0605817"><ele>225.75</ele><time>2026-05-01T08:43:56.726Z</time></trkpt><trkpt lat="43.6455367" lon="11.0604333"><ele>225.0</ele><time>2026-05-01T08:43:57.726Z</time></trkpt><trkpt lat="43.6454883" lon="11.0602817"><ele>225.0</ele><time>2026-05-01T08:43:58.725Z</time></trkpt><trkpt lat="43.6454383" lon="11.060145"><ele>225.0</ele><time>2026-05-01T08:43:59.726Z</time></trkpt><trkpt lat="43.6453917" lon="11.0600083"><ele>225.0</ele><time>2026-05-01T08:44:00.725Z</time></trkpt><trkpt lat="43.6453467" lon="11.05987"><ele>225.0</ele><time>2026-05-01T08:44:01.726Z</time></trkpt><trkpt lat="43.64529" lon="11.05974"><ele>225.0</ele><time>2026-05-01T08:44:02.726Z</time></trkpt><trkpt lat="43.6452333" lon="11.0596083"><ele>224.75</ele><time>2026-05-01T08:44:03.726Z</time></trkpt><trkpt lat="43.6451767" lon="11.05947"><ele>224.5</ele><time>2026-05-01T08:44:04.726Z</time></trkpt><trkpt lat="43.64512" lon="11.0593367"><ele>224.25</ele><time>2026-05-01T08:44:05.726Z</time></trkpt><trkpt lat="43.64507" lon="11.0591933"><ele>224.0</ele><time>2026-05-01T08:44:06.726Z</time></trkpt><trkpt lat="43.6450183" lon="11.05905"><ele>222.0</ele><time>2026-05-01T08:44:07.726Z</time></trkpt><trkpt lat="43.6449633" lon="11.0589133"><ele>220.0</ele><time>2026-05-01T08:44:08.727Z</time></trkpt><trkpt lat="43.6449083" lon="11.0587683"><ele>218.0</ele><time>2026-05-01T08:44:09.726Z</time></trkpt><trkpt lat="43.6448467" lon="11.0586217"><ele>216.0</ele><time>2026-05-01T08:44:10.726Z</time></trkpt><trkpt lat="43.6447817" lon="11.05847"><ele>216.0</ele><time>2026-05-01T08:44:11.725Z</time></trkpt><trkpt lat="43.6447133" lon="11.0583083"><ele>216.0</ele><time>2026-05-01T08:44:12.726Z</time></trkpt><trkpt lat="43.6446467" lon="11.0580967"><ele>216.0</ele><time>2026-05-01T08:44:13.726Z</time></trkpt><trkpt lat="43.6445783" lon="11.05787"><ele>215.66666666666669</ele><time>2026-05-01T08:44:14.727Z</time></trkpt><trkpt lat="43.6445283" lon="11.0576317"><ele>215.33333333333334</ele><time>2026-05-01T08:44:15.726Z</time></trkpt><trkpt lat="43.6444733" lon="11.05737"><ele>215.0</ele><time>2026-05-01T08:44:16.726Z</time></trkpt><trkpt lat="43.6444167" lon="11.0571183"><ele>215.0</ele><time>2026-05-01T08:44:17.726Z</time></trkpt><trkpt lat="43.6443583" lon="11.0568683"><ele>215.0</ele><time>2026-05-01T08:44:18.726Z</time></trkpt><trkpt lat="43.6443033" lon="11.0566283"><ele>215.0</ele><time>2026-05-01T08:44:19.727Z</time></trkpt><trkpt lat="43.6442467" lon="11.0563983"><ele>212.66666666666669</ele><time>2026-05-01T08:44:20.726Z</time></trkpt><trkpt lat="43.64419" lon="11.0561817"><ele>210.33333333333331</ele><time>2026-05-01T08:44:21.725Z</time></trkpt><trkpt lat="43.6441383" lon="11.0559617"><ele>208.0</ele><time>2026-05-01T08:44:22.726Z</time></trkpt><trkpt lat="43.64409" lon="11.0557467"><ele>206.33333333333331</ele><time>2026-05-01T08:44:23.725Z</time></trkpt><trkpt lat="43.64406" lon="11.0555367"><ele>204.66666666666669</ele><time>2026-05-01T08:44:24.725Z</time></trkpt><trkpt lat="43.6440433" lon="11.05533"><ele>203.0</ele><time>2026-05-01T08:44:25.725Z</time></trkpt><trkpt lat="43.64405" lon="11.0551033"><ele>201.66666666666669</ele><time>2026-05-01T08:44:26.727Z</time></trkpt><trkpt lat="43.6440733" lon="11.0548583"><ele>200.33333333333331</ele><time>2026-05-01T08:44:27.726Z</time></trkpt><trkpt lat="43.6441067" lon="11.0546233"><ele>199.0</ele><time>2026-05-01T08:44:28.727Z</time></trkpt><trkpt lat="43.6441517" lon="11.0544017"><ele>199.0</ele><time>2026-05-01T08:44:29.727Z</time></trkpt><trkpt lat="43.6441917" lon="11.05421"><ele>199.0</ele><time>2026-05-01T08:44:30.726Z</time></trkpt><trkpt lat="43.6442267" lon="11.0540317"><ele>199.0</ele><time>2026-05-01T08:44:31.725Z</time></trkpt><trkpt lat="43.6442517" lon="11.0538583"><ele>199.0</ele><time>2026-05-01T08:44:32.727Z</time></trkpt><trkpt lat="43.6442633" lon="11.0536817"><ele>199.5</ele><time>2026-05-01T08:44:33.727Z</time></trkpt><trkpt lat="43.64426" lon="11.0534917"><ele>200.0</ele><time>2026-05-01T08:44:34.727Z</time></trkpt><trkpt lat="43.6442383" lon="11.053295"><ele>200.5</ele><time>2026-05-01T08:44:35.727Z</time></trkpt><trkpt lat="43.6442083" lon="11.0530983"><ele>201.0</ele><time>2026-05-01T08:44:36.727Z</time></trkpt><trkpt lat="43.644175" lon="11.0529017"><ele>202.75</ele><time>2026-05-01T08:44:37.726Z</time></trkpt><trkpt lat="43.6441433" lon="11.05271"><ele>204.5</ele><time>2026-05-01T08:44:38.727Z</time></trkpt><trkpt lat="43.6441167" lon="11.052515"><ele>206.25</ele><time>2026-05-01T08:44:39.726Z</time></trkpt><trkpt lat="43.644095" lon="11.0523167"><ele>208.0</ele><time>2026-05-01T08:44:40.726Z</time></trkpt><trkpt lat="43.6440717" lon="11.0521133"><ele>208.66666666666666</ele><time>2026-05-01T08:44:41.728Z</time></trkpt><trkpt lat="43.6440483" lon="11.051905"><ele>209.33333333333331</ele><time>2026-05-01T08:44:42.727Z</time></trkpt><trkpt lat="43.64403" lon="11.0516983"><ele>210.0</ele><time>2026-05-01T08:44:43.727Z</time></trkpt><trkpt lat="43.6440067" lon="11.051495"><ele>210.25</ele><time>2026-05-01T08:44:44.728Z</time></trkpt><trkpt lat="43.64397" lon="11.0513033"><ele>210.5</ele><time>2026-05-01T08:44:45.728Z</time></trkpt><trkpt lat="43.643905" lon="11.0511367"><ele>210.75</ele><time>2026-05-01T08:44:46.728Z</time></trkpt><trkpt lat="43.643825" lon="11.050985"><ele>211.0</ele><time>2026-05-01T08:44:47.728Z</time></trkpt><trkpt lat="43.64374" lon="11.0508367"><ele>210.25</ele><time>2026-05-01T08:44:48.73Z</time></trkpt><trkpt lat="43.6436683" lon="11.050685"><ele>209.5</ele><time>2026-05-01T08:44:49.727Z</time></trkpt><trkpt lat="43.643615" lon="11.0505167"><ele>208.75</ele><time>2026-05-01T08:44:50.728Z</time></trkpt><trkpt lat="43.6435733" lon="11.0503417"><ele>208.0</ele><time>2026-05-01T08:44:51.729Z</time></trkpt><trkpt lat="43.643545" lon="11.0501567"><ele>206.75</ele><time>2026-05-01T08:44:52.727Z</time></trkpt><trkpt lat="43.6435283" lon="11.04997"><ele>205.5</ele><time>2026-05-01T08:44:53.728Z</time></trkpt><trkpt lat="43.6435167" lon="11.049785"><ele>204.25</ele><time>2026-05-01T08:44:54.728Z</time></trkpt><trkpt lat="43.6435117" lon="11.0495967"><ele>203.0</ele><time>2026-05-01T08:44:55.728Z</time></trkpt><trkpt lat="43.64352" lon="11.04941"><ele>203.0</ele><time>2026-05-01T08:44:56.729Z</time></trkpt><trkpt lat="43.643545" lon="11.049225"><ele>203.0</ele><time>2026-05-01T08:44:57.728Z</time></trkpt><trkpt lat="43.6435867" lon="11.0490467"><ele>203.0</ele><time>2026-05-01T08:44:58.727Z</time></trkpt><trkpt lat="43.6436417" lon="11.0488733"><ele>203.0</ele><time>2026-05-01T08:44:59.727Z</time></trkpt><trkpt lat="43.6436917" lon="11.0486967"><ele>202.75</ele><time>2026-05-01T08:45:00.729Z</time></trkpt><trkpt lat="43.6437433" lon="11.048525"><ele>202.5</ele><time>2026-05-01T08:45:01.728Z</time></trkpt><trkpt lat="43.643795" lon="11.048355"><ele>202.25</ele><time>2026-05-01T08:45:02.727Z</time></trkpt><trkpt lat="43.6438517" lon="11.04819"><ele>202.0</ele><time>2026-05-01T08:45:03.726Z</time></trkpt><trkpt lat="43.64392" lon="11.048025"><ele>202.0</ele><time>2026-05-01T08:45:04.728Z</time></trkpt><trkpt lat="43.64399" lon="11.0478617"><ele>202.0</ele><time>2026-05-01T08:45:05.728Z</time></trkpt><trkpt lat="43.6440583" lon="11.0477"><ele>202.0</ele><time>2026-05-01T08:45:06.727Z</time></trkpt><trkpt lat="43.64412" lon="11.047535"><ele>202.0</ele><time>2026-05-01T08:45:07.728Z</time></trkpt><trkpt lat="43.6441717" lon="11.0473667"><ele>201.0</ele><time>2026-05-01T08:45:08.727Z</time></trkpt><trkpt lat="43.6442067" lon="11.0472017"><ele>200.0</ele><time>2026-05-01T08:45:09.728Z</time></trkpt><trkpt lat="43.6442333" lon="11.047045"><ele>199.0</ele><time>2026-05-01T08:45:10.728Z</time></trkpt><trkpt lat="43.644255" lon="11.0469"><ele>198.0</ele><time>2026-05-01T08:45:11.727Z</time></trkpt><trkpt lat="43.64428" lon="11.0467817"><ele>197.0</ele><time>2026-05-01T08:45:12.728Z</time></trkpt><trkpt lat="43.6442983" lon="11.0466533"><ele>195.6</ele><time>2026-05-01T08:45:13.727Z</time></trkpt><trkpt lat="43.6443167" lon="11.0465217"><ele>194.2</ele><time>2026-05-01T08:45:14.728Z</time></trkpt><trkpt lat="43.6443333" lon="11.0463833"><ele>192.8</ele><time>2026-05-01T08:45:15.727Z</time></trkpt><trkpt lat="43.6443517" lon="11.0462367"><ele>191.4</ele><time>2026-05-01T08:45:16.726Z</time></trkpt><trkpt lat="43.6443883" lon="11.0460733"><ele>190.0</ele><time>2026-05-01T08:45:17.727Z</time></trkpt><trkpt lat="43.6444267" lon="11.0459133"><ele>190.25</ele><time>2026-05-01T08:45:18.728Z</time></trkpt><trkpt lat="43.6444733" lon="11.0457567"><ele>190.5</ele><time>2026-05-01T08:45:19.727Z</time></trkpt><trkpt lat="43.6445267" lon="11.0456167"><ele>190.75</ele><time>2026-05-01T08:45:20.728Z</time></trkpt><trkpt lat="43.64458" lon="11.0454783"><ele>191.0</ele><time>2026-05-01T08:45:21.728Z</time></trkpt><trkpt lat="43.6446383" lon="11.0453417"><ele>191.0</ele><time>2026-05-01T08:45:22.726Z</time></trkpt><trkpt lat="43.6446933" lon="11.0451933"><ele>191.0</ele><time>2026-05-01T08:45:23.727Z</time></trkpt><trkpt lat="43.644735" lon="11.04502"><ele>191.0</ele><time>2026-05-01T08:45:24.727Z</time></trkpt><trkpt lat="43.6447667" lon="11.0448033"><ele>191.0</ele><time>2026-05-01T08:45:25.728Z</time></trkpt><trkpt lat="43.6447967" lon="11.0445533"><ele>191.33333333333331</ele><time>2026-05-01T08:45:26.728Z</time></trkpt><trkpt lat="43.6448367" lon="11.0442883"><ele>191.66666666666666</ele><time>2026-05-01T08:45:27.729Z</time></trkpt><trkpt lat="43.6448833" lon="11.0440217"><ele>192.0</ele><time>2026-05-01T08:45:28.727Z</time></trkpt><trkpt lat="43.6449217" lon="11.0437467"><ele>192.33333333333331</ele><time>2026-05-01T08:45:29.728Z</time></trkpt><trkpt lat="43.6449483" lon="11.04346"><ele>192.66666666666666</ele><time>2026-05-01T08:45:30.726Z</time></trkpt><trkpt lat="43.6449567" lon="11.0431783"><ele>193.0</ele><time>2026-05-01T08:45:31.728Z</time></trkpt><trkpt lat="43.6449583" lon="11.0429083"><ele>193.0</ele><time>2026-05-01T08:45:32.729Z</time></trkpt><trkpt lat="43.6449683" lon="11.0426383"><ele>193.0</ele><time>2026-05-01T08:45:33.728Z</time></trkpt><trkpt lat="43.6449867" lon="11.0423633"><ele>193.0</ele><time>2026-05-01T08:45:34.729Z</time></trkpt><trkpt lat="43.645015" lon="11.0420933"><ele>193.0</ele><time>2026-05-01T08:45:35.727Z</time></trkpt><trkpt lat="43.645035" lon="11.0418417"><ele>193.0</ele><time>2026-05-01T08:45:36.726Z</time></trkpt><trkpt lat="43.6450583" lon="11.04161"><ele>193.0</ele><time>2026-05-01T08:45:37.728Z</time></trkpt><trkpt lat="43.6450617" lon="11.0414"><ele>192.0</ele><time>2026-05-01T08:45:38.728Z</time></trkpt><trkpt lat="43.64503" lon="11.0412133"><ele>191.0</ele><time>2026-05-01T08:45:39.727Z</time></trkpt><trkpt lat="43.6449733" lon="11.0410417"><ele>190.0</ele><time>2026-05-01T08:45:40.728Z</time></trkpt><trkpt lat="43.644875" lon="11.04089"><ele>189.0</ele><time>2026-05-01T08:45:41.728Z</time></trkpt><trkpt lat="43.6447467" lon="11.04076"><ele>187.33333333333334</ele><time>2026-05-01T08:45:42.727Z</time></trkpt><trkpt lat="43.6446033" lon="11.040625"><ele>185.66666666666669</ele><time>2026-05-01T08:45:43.727Z</time></trkpt><trkpt lat="43.6444533" lon="11.0404833"><ele>184.0</ele><time>2026-05-01T08:45:44.728Z</time></trkpt><trkpt lat="43.644305" lon="11.04034"><ele>184.0</ele><time>2026-05-01T08:45:45.726Z</time></trkpt><trkpt lat="43.644155" lon="11.0401867"><ele>184.0</ele><time>2026-05-01T08:45:46.728Z</time></trkpt><trkpt lat="43.64401" lon="11.04002"><ele>184.0</ele><time>2026-05-01T08:45:47.728Z</time></trkpt><trkpt lat="43.643875" lon="11.039835"><ele>183.33333333333334</ele><time>2026-05-01T08:45:48.728Z</time></trkpt><trkpt lat="43.6437667" lon="11.0396283"><ele>182.66666666666666</ele><time>2026-05-01T08:45:49.728Z</time></trkpt><trkpt lat="43.6436833" lon="11.0394"><ele>182.0</ele><time>2026-05-01T08:45:50.728Z</time></trkpt><trkpt lat="43.643625" lon="11.039155"><ele>185.33333333333331</ele><time>2026-05-01T08:45:51.727Z</time></trkpt><trkpt lat="43.64357" lon="11.0389"><ele>188.66666666666666</ele><time>2026-05-01T08:45:52.728Z</time></trkpt><trkpt lat="43.6435033" lon="11.0386367"><ele>192.0</ele><time>2026-05-01T08:45:53.727Z</time></trkpt><trkpt lat="43.64343" lon="11.03837"><ele>189.0</ele><time>2026-05-01T08:45:54.728Z</time></trkpt><trkpt lat="43.6433383" lon="11.038105"><ele>186.0</ele><time>2026-05-01T08:45:55.728Z</time></trkpt><trkpt lat="43.64323" lon="11.03785"><ele>183.0</ele><time>2026-05-01T08:45:56.728Z</time></trkpt><trkpt lat="43.6431183" lon="11.0376033"><ele>184.66666666666666</ele><time>2026-05-01T08:45:57.728Z</time></trkpt><trkpt lat="43.6430017" lon="11.0373567"><ele>186.33333333333331</ele><time>2026-05-01T08:45:58.727Z</time></trkpt><trkpt lat="43.642885" lon="11.0371033"><ele>188.0</ele><time>2026-05-01T08:45:59.726Z</time></trkpt><trkpt lat="43.6427667" lon="11.0368467"><ele>187.33333333333331</ele><time>2026-05-01T08:46:00.727Z</time></trkpt><trkpt lat="43.6426467" lon="11.03659"><ele>186.66666666666666</ele><time>2026-05-01T08:46:01.728Z</time></trkpt><trkpt lat="43.6425267" lon="11.0363333"><ele>186.0</ele><time>2026-05-01T08:46:02.727Z</time></trkpt><trkpt lat="43.6424067" lon="11.0360767"><ele>186.0</ele><time>2026-05-01T08:46:03.727Z</time></trkpt><trkpt lat="43.6422833" lon="11.0358217"><ele>186.0</ele><time>2026-05-01T08:46:04.728Z</time></trkpt><trkpt lat="43.6421583" lon="11.03557"><ele>186.0</ele><time>2026-05-01T08:46:05.727Z</time></trkpt><trkpt lat="43.6420367" lon="11.0353117"><ele>186.33333333333334</ele><time>2026-05-01T08:46:06.728Z</time></trkpt><trkpt lat="43.641915" lon="11.03506"><ele>186.66666666666669</ele><time>2026-05-01T08:46:07.727Z</time></trkpt><trkpt lat="43.6417983" lon="11.0348117"><ele>187.0</ele><time>2026-05-01T08:46:08.728Z</time></trkpt><trkpt lat="43.641685" lon="11.0345733"><ele>187.0</ele><time>2026-05-01T08:46:09.726Z</time></trkpt><trkpt lat="43.641575" lon="11.0343367"><ele>187.0</ele><time>2026-05-01T08:46:10.728Z</time></trkpt><trkpt lat="43.6414667" lon="11.03411"><ele>187.0</ele><time>2026-05-01T08:46:11.729Z</time></trkpt><trkpt lat="43.6413617" lon="11.0338783"><ele>189.33333333333334</ele><time>2026-05-01T08:46:12.728Z</time></trkpt><trkpt lat="43.641265" lon="11.03364"><ele>191.66666666666669</ele><time>2026-05-01T08:46:13.726Z</time></trkpt><trkpt lat="43.6411667" lon="11.0334083"><ele>194.0</ele><time>2026-05-01T08:46:14.728Z</time></trkpt><trkpt lat="43.6410717" lon="11.0331683"><ele>189.33333333333334</ele><time>2026-05-01T08:46:15.727Z</time></trkpt><trkpt lat="43.6409767" lon="11.032925"><ele>184.66666666666669</ele><time>2026-05-01T08:46:16.727Z</time></trkpt><trkpt lat="43.6408783" lon="11.0326833"><ele>180.0</ele><time>2026-05-01T08:46:17.727Z</time></trkpt><trkpt lat="43.6407817" lon="11.03244"><ele>179.0</ele><time>2026-05-01T08:46:18.727Z</time></trkpt><trkpt lat="43.6406817" lon="11.0321983"><ele>178.0</ele><time>2026-05-01T08:46:19.728Z</time></trkpt><trkpt lat="43.640585" lon="11.03195"><ele>177.0</ele><time>2026-05-01T08:46:20.728Z</time></trkpt><trkpt lat="43.6404883" lon="11.031695"><ele>175.0</ele><time>2026-05-01T08:46:21.727Z</time></trkpt><trkpt lat="43.6403917" lon="11.0314417"><ele>173.0</ele><time>2026-05-01T08:46:22.727Z</time></trkpt><trkpt lat="43.6402967" lon="11.031195"><ele>171.0</ele><time>2026-05-01T08:46:23.726Z</time></trkpt><trkpt lat="43.6402033" lon="11.0309433"><ele>166.33333333333334</ele><time>2026-05-01T08:46:24.728Z</time></trkpt><trkpt lat="43.6401067" lon="11.0307"><ele>161.66666666666669</ele><time>2026-05-01T08:46:25.728Z</time></trkpt><trkpt lat="43.6400117" lon="11.0304583"><ele>157.0</ele><time>2026-05-01T08:46:26.728Z</time></trkpt><trkpt lat="43.6399217" lon="11.0302283"><ele>157.0</ele><time>2026-05-01T08:46:27.728Z</time></trkpt><trkpt lat="43.63983" lon="11.030005"><ele>157.0</ele><time>2026-05-01T08:46:28.728Z</time></trkpt><trkpt lat="43.63974" lon="11.0297883"><ele>157.0</ele><time>2026-05-01T08:46:29.728Z</time></trkpt><trkpt lat="43.6396583" lon="11.0295733"><ele>156.0</ele><time>2026-05-01T08:46:30.728Z</time></trkpt><trkpt lat="43.6395783" lon="11.0293667"><ele>155.0</ele><time>2026-05-01T08:46:31.727Z</time></trkpt><trkpt lat="43.6395033" lon="11.0291683"><ele>154.0</ele><time>2026-05-01T08:46:32.728Z</time></trkpt><trkpt lat="43.6394317" lon="11.02898"><ele>154.0</ele><time>2026-05-01T08:46:33.727Z</time></trkpt><trkpt lat="43.6393617" lon="11.0288033"><ele>154.0</ele><time>2026-05-01T08:46:34.728Z</time></trkpt><trkpt lat="43.6393" lon="11.028635"><ele>154.0</ele><time>2026-05-01T08:46:35.726Z</time></trkpt><trkpt lat="43.6392433" lon="11.02848"><ele>154.0</ele><time>2026-05-01T08:46:36.728Z</time></trkpt><trkpt lat="43.6391967" lon="11.0283417"><ele>153.0</ele><time>2026-05-01T08:46:37.728Z</time></trkpt><trkpt lat="43.6391567" lon="11.0282117"><ele>152.0</ele><time>2026-05-01T08:46:38.728Z</time></trkpt><trkpt lat="43.639125" lon="11.028075"><ele>151.0</ele><time>2026-05-01T08:46:39.728Z</time></trkpt><trkpt lat="43.6391167" lon="11.0279467"><ele>150.0</ele><time>2026-05-01T08:46:40.726Z</time></trkpt><trkpt lat="43.6391233" lon="11.0278317"><ele>149.0</ele><time>2026-05-01T08:46:41.727Z</time></trkpt><trkpt lat="43.63912" lon="11.0277367"><ele>149.0</ele><time>2026-05-01T08:46:42.728Z</time></trkpt><trkpt lat="43.639105" lon="11.02764"><ele>149.0</ele><time>2026-05-01T08:46:43.727Z</time></trkpt><trkpt lat="43.6390067" lon="11.0275217"><ele>149.0</ele><time>2026-05-01T08:46:45.73Z</time></trkpt><trkpt lat="43.6389117" lon="11.0274667"><ele>149.0</ele><time>2026-05-01T08:46:46.728Z</time></trkpt><trkpt lat="43.63883" lon="11.0273733"><ele>149.0</ele><time>2026-05-01T08:46:47.728Z</time></trkpt><trkpt lat="43.6387467" lon="11.0272567"><ele>148.25</ele><time>2026-05-01T08:46:48.728Z</time></trkpt><trkpt lat="43.6386667" lon="11.02711"><ele>147.5</ele><time>2026-05-01T08:46:49.727Z</time></trkpt><trkpt lat="43.6385833" lon="11.0269583"><ele>146.75</ele><time>2026-05-01T08:46:50.727Z</time></trkpt><trkpt lat="43.6384983" lon="11.0267967"><ele>146.0</ele><time>2026-05-01T08:46:51.727Z</time></trkpt><trkpt lat="43.638415" lon="11.0266333"><ele>145.0</ele><time>2026-05-01T08:46:52.728Z</time></trkpt><trkpt lat="43.6383283" lon="11.0264783"><ele>144.0</ele><time>2026-05-01T08:46:53.728Z</time></trkpt><trkpt lat="43.6382467" lon="11.02632"><ele>143.0</ele><time>2026-05-01T08:46:54.729Z</time></trkpt><trkpt lat="43.63817" lon="11.026165"><ele>142.0</ele><time>2026-05-01T08:46:55.727Z</time></trkpt><trkpt lat="43.6380967" lon="11.026015"><ele>142.0</ele><time>2026-05-01T08:46:56.728Z</time></trkpt><trkpt lat="43.6380233" lon="11.0258667"><ele>142.0</ele><time>2026-05-01T08:46:57.727Z</time></trkpt><trkpt lat="43.6379517" lon="11.02572"><ele>142.0</ele><time>2026-05-01T08:46:58.727Z</time></trkpt><trkpt lat="43.6378817" lon="11.0255733"><ele>142.0</ele><time>2026-05-01T08:46:59.727Z</time></trkpt><trkpt lat="43.637815" lon="11.0254417"><ele>142.6</ele><time>2026-05-01T08:47:00.728Z</time></trkpt><trkpt lat="43.6377533" lon="11.02532"><ele>143.2</ele><time>2026-05-01T08:47:01.727Z</time></trkpt><trkpt lat="43.6376983" lon="11.0252167"><ele>143.8</ele><time>2026-05-01T08:47:02.727Z</time></trkpt><trkpt lat="43.637655" lon="11.025115"><ele>144.4</ele><time>2026-05-01T08:47:03.727Z</time></trkpt><trkpt lat="43.63761" lon="11.025005"><ele>145.0</ele><time>2026-05-01T08:47:04.728Z</time></trkpt><trkpt lat="43.637555" lon="11.0248983"><ele>145.25</ele><time>2026-05-01T08:47:05.728Z</time></trkpt><trkpt lat="43.6374933" lon="11.02478"><ele>145.5</ele><time>2026-05-01T08:47:06.728Z</time></trkpt><trkpt lat="43.63742" lon="11.0246583"><ele>145.75</ele><time>2026-05-01T08:47:07.728Z</time></trkpt><trkpt lat="43.637335" lon="11.0245367"><ele>146.0</ele><time>2026-05-01T08:47:08.728Z</time></trkpt><trkpt lat="43.6372367" lon="11.0244233"><ele>146.0</ele><time>2026-05-01T08:47:09.727Z</time></trkpt><trkpt lat="43.637125" lon="11.024345"><ele>146.0</ele><time>2026-05-01T08:47:10.728Z</time></trkpt><trkpt lat="43.6370167" lon="11.0242767"><ele>146.0</ele><time>2026-05-01T08:47:11.728Z</time></trkpt><trkpt lat="43.6369183" lon="11.0242217"><ele>146.0</ele><time>2026-05-01T08:47:12.727Z</time></trkpt><trkpt lat="43.63683" lon="11.0241683"><ele>146.0</ele><time>2026-05-01T08:47:13.727Z</time></trkpt><trkpt lat="43.6367533" lon="11.0241283"><ele>145.66666666666666</ele><time>2026-05-01T08:47:14.726Z</time></trkpt><trkpt lat="43.6366817" lon="11.0240867"><ele>145.33333333333331</ele><time>2026-05-01T08:47:15.727Z</time></trkpt><trkpt lat="43.63661" lon="11.0240433"><ele>145.0</ele><time>2026-05-01T08:47:16.727Z</time></trkpt><trkpt lat="43.63653" lon="11.0239933"><ele>144.66666666666666</ele><time>2026-05-01T08:47:17.728Z</time></trkpt><trkpt lat="43.6364517" lon="11.0239367"><ele>144.33333333333334</ele><time>2026-05-01T08:47:18.727Z</time></trkpt><trkpt lat="43.6363667" lon="11.0238583"><ele>144.0</ele><time>2026-05-01T08:47:19.728Z</time></trkpt><trkpt lat="43.6362767" lon="11.0237633"><ele>144.0</ele><time>2026-05-01T08:47:20.727Z</time></trkpt><trkpt lat="43.6361833" lon="11.0236567"><ele>144.0</ele><time>2026-05-01T08:47:21.727Z</time></trkpt><trkpt lat="43.6360867" lon="11.02354"><ele>144.0</ele><time>2026-05-01T08:47:22.727Z</time></trkpt><trkpt lat="43.6359933" lon="11.0234183"><ele>144.0</ele><time>2026-05-01T08:47:23.727Z</time></trkpt><trkpt lat="43.635895" lon="11.02329"><ele>144.0</ele><time>2026-05-01T08:47:24.727Z</time></trkpt><trkpt lat="43.6358" lon="11.023155"><ele>144.0</ele><time>2026-05-01T08:47:25.728Z</time></trkpt><trkpt lat="43.635705" lon="11.023005"><ele>144.0</ele><time>2026-05-01T08:47:26.728Z</time></trkpt><trkpt lat="43.63562" lon="11.02285"><ele>144.0</ele><time>2026-05-01T08:47:27.728Z</time></trkpt><trkpt lat="43.6355417" lon="11.0226783"><ele>144.0</ele><time>2026-05-01T08:47:28.728Z</time></trkpt><trkpt lat="43.6354617" lon="11.0225033"><ele>144.0</ele><time>2026-05-01T08:47:29.728Z</time></trkpt><trkpt lat="43.635385" lon="11.0223317"><ele>144.0</ele><time>2026-05-01T08:47:30.727Z</time></trkpt><trkpt lat="43.6353167" lon="11.0221567"><ele>144.0</ele><time>2026-05-01T08:47:31.729Z</time></trkpt><trkpt lat="43.63526" lon="11.0219833"><ele>145.5</ele><time>2026-05-01T08:47:32.728Z</time></trkpt><trkpt lat="43.6352167" lon="11.0218017"><ele>147.0</ele><time>2026-05-01T08:47:33.728Z</time></trkpt><trkpt lat="43.63519" lon="11.0216183"><ele>148.5</ele><time>2026-05-01T08:47:34.728Z</time></trkpt><trkpt lat="43.6351717" lon="11.021435"><ele>150.0</ele><time>2026-05-01T08:47:35.728Z</time></trkpt><trkpt lat="43.6351617" lon="11.0212467"><ele>151.5</ele><time>2026-05-01T08:47:36.727Z</time></trkpt><trkpt lat="43.6351533" lon="11.021045"><ele>153.0</ele><time>2026-05-01T08:47:37.728Z</time></trkpt><trkpt lat="43.635145" lon="11.02085"><ele>154.5</ele><time>2026-05-01T08:47:38.728Z</time></trkpt><trkpt lat="43.6351417" lon="11.0206583"><ele>156.0</ele><time>2026-05-01T08:47:39.727Z</time></trkpt><trkpt lat="43.6351383" lon="11.0204783"><ele>157.25</ele><time>2026-05-01T08:47:40.726Z</time></trkpt><trkpt lat="43.6351333" lon="11.0203"><ele>158.5</ele><time>2026-05-01T08:47:41.727Z</time></trkpt><trkpt lat="43.6351317" lon="11.0201367"><ele>159.75</ele><time>2026-05-01T08:47:42.728Z</time></trkpt><trkpt lat="43.635125" lon="11.0199767"><ele>161.0</ele><time>2026-05-01T08:47:43.727Z</time></trkpt><trkpt lat="43.6351217" lon="11.0198217"><ele>161.20000000000002</ele><time>2026-05-01T08:47:44.728Z</time></trkpt><trkpt lat="43.635115" lon="11.0196717"><ele>161.4</ele><time>2026-05-01T08:47:45.727Z</time></trkpt><trkpt lat="43.6351017" lon="11.0195267"><ele>161.6</ele><time>2026-05-01T08:47:46.727Z</time></trkpt><trkpt lat="43.6350867" lon="11.0193933"><ele>161.8</ele><time>2026-05-01T08:47:47.727Z</time></trkpt><trkpt lat="43.6350717" lon="11.019255"><ele>162.0</ele><time>2026-05-01T08:47:48.728Z</time></trkpt><trkpt lat="43.6350717" lon="11.0191033"><ele>162.0</ele><time>2026-05-01T08:47:49.728Z</time></trkpt><trkpt lat="43.6350867" lon="11.018935"><ele>162.0</ele><time>2026-05-01T08:47:50.728Z</time></trkpt><trkpt lat="43.6351" lon="11.018765"><ele>162.0</ele><time>2026-05-01T08:47:51.727Z</time></trkpt><trkpt lat="43.6351183" lon="11.0186083"><ele>162.0</ele><time>2026-05-01T08:47:52.727Z</time></trkpt><trkpt lat="43.6351367" lon="11.0184583"><ele>161.5</ele><time>2026-05-01T08:47:53.728Z</time></trkpt><trkpt lat="43.6351467" lon="11.0183017"><ele>161.0</ele><time>2026-05-01T08:47:54.728Z</time></trkpt><trkpt lat="43.6351617" lon="11.0181383"><ele>160.5</ele><time>2026-05-01T08:47:55.728Z</time></trkpt><trkpt lat="43.6351717" lon="11.01797"><ele>160.0</ele><time>2026-05-01T08:47:56.728Z</time></trkpt><trkpt lat="43.6351817" lon="11.0177967"><ele>160.0</ele><time>2026-05-01T08:47:57.727Z</time></trkpt><trkpt lat="43.6351867" lon="11.017615"><ele>160.0</ele><time>2026-05-01T08:47:58.727Z</time></trkpt><trkpt lat="43.6352033" lon="11.0174267"><ele>160.0</ele><time>2026-05-01T08:47:59.727Z</time></trkpt><trkpt lat="43.6352317" lon="11.01724"><ele>160.0</ele><time>2026-05-01T08:48:00.728Z</time></trkpt><trkpt lat="43.635275" lon="11.017065"><ele>159.75</ele><time>2026-05-01T08:48:01.728Z</time></trkpt><trkpt lat="43.6353467" lon="11.0168967"><ele>159.5</ele><time>2026-05-01T08:48:02.728Z</time></trkpt><trkpt lat="43.6354267" lon="11.01674"><ele>159.25</ele><time>2026-05-01T08:48:03.728Z</time></trkpt><trkpt lat="43.6355267" lon="11.0166"><ele>159.0</ele><time>2026-05-01T08:48:04.727Z</time></trkpt><trkpt lat="43.6356283" lon="11.0164517"><ele>160.0</ele><time>2026-05-01T08:48:05.727Z</time></trkpt><trkpt lat="43.63574" lon="11.0163217"><ele>161.0</ele><time>2026-05-01T08:48:06.728Z</time></trkpt><trkpt lat="43.635865" lon="11.016215"><ele>162.0</ele><time>2026-05-01T08:48:07.726Z</time></trkpt><trkpt lat="43.6359933" lon="11.016125"><ele>163.0</ele><time>2026-05-01T08:48:08.727Z</time></trkpt><trkpt lat="43.6361167" lon="11.0160333"><ele>161.25</ele><time>2026-05-01T08:48:09.727Z</time></trkpt><trkpt lat="43.6362317" lon="11.01594"><ele>159.5</ele><time>2026-05-01T08:48:10.728Z</time></trkpt><trkpt lat="43.63633" lon="11.0158217"><ele>157.75</ele><time>2026-05-01T08:48:11.726Z</time></trkpt><trkpt lat="43.636415" lon="11.0156817"><ele>156.0</ele><time>2026-05-01T08:48:12.729Z</time></trkpt><trkpt lat="43.6364967" lon="11.0155283"><ele>155.5</ele><time>2026-05-01T08:48:13.728Z</time></trkpt><trkpt lat="43.6365567" lon="11.0153533"><ele>155.0</ele><time>2026-05-01T08:48:14.728Z</time></trkpt><trkpt lat="43.6366217" lon="11.01518"><ele>154.5</ele><time>2026-05-01T08:48:15.728Z</time></trkpt><trkpt lat="43.6367067" lon="11.0150133"><ele>154.0</ele><time>2026-05-01T08:48:16.727Z</time></trkpt><trkpt lat="43.6368017" lon="11.014855"><ele>152.33333333333334</ele><time>2026-05-01T08:48:17.727Z</time></trkpt><trkpt lat="43.6369167" lon="11.014715"><ele>150.66666666666666</ele><time>2026-05-01T08:48:18.727Z</time></trkpt><trkpt lat="43.637055" lon="11.014595"><ele>149.0</ele><time>2026-05-01T08:48:19.729Z</time></trkpt><trkpt lat="43.6372233" lon="11.0144933"><ele>148.66666666666666</ele><time>2026-05-01T08:48:20.728Z</time></trkpt><trkpt lat="43.6374067" lon="11.01442"><ele>148.33333333333334</ele><time>2026-05-01T08:48:21.727Z</time></trkpt><trkpt lat="43.637605" lon="11.0143567"><ele>148.0</ele><time>2026-05-01T08:48:22.727Z</time></trkpt><trkpt lat="43.6378033" lon="11.0143083"><ele>149.66666666666669</ele><time>2026-05-01T08:48:23.727Z</time></trkpt><trkpt lat="43.6380017" lon="11.0142517"><ele>151.33333333333334</ele><time>2026-05-01T08:48:24.73Z</time></trkpt><trkpt lat="43.6381983" lon="11.0141783"><ele>153.0</ele><time>2026-05-01T08:48:25.728Z</time></trkpt><trkpt lat="43.6383733" lon="11.014055"><ele>153.0</ele><time>2026-05-01T08:48:26.728Z</time></trkpt><trkpt lat="43.6385317" lon="11.0138883"><ele>153.0</ele><time>2026-05-01T08:48:27.729Z</time></trkpt><trkpt lat="43.638665" lon="11.0136817"><ele>153.0</ele><time>2026-05-01T08:48:28.728Z</time></trkpt><trkpt lat="43.63877" lon="11.0134417"><ele>158.0</ele><time>2026-05-01T08:48:29.727Z</time></trkpt><trkpt lat="43.638835" lon="11.0131783"><ele>163.0</ele><time>2026-05-01T08:48:30.728Z</time></trkpt><trkpt lat="43.6388583" lon="11.012895"><ele>168.0</ele><time>2026-05-01T08:48:31.728Z</time></trkpt><trkpt lat="43.63885" lon="11.01261"><ele>167.66666666666666</ele><time>2026-05-01T08:48:32.728Z</time></trkpt><trkpt lat="43.6388367" lon="11.0123117"><ele>167.33333333333331</ele><time>2026-05-01T08:48:33.727Z</time></trkpt><trkpt lat="43.638825" lon="11.0120117"><ele>167.0</ele><time>2026-05-01T08:48:34.728Z</time></trkpt><trkpt lat="43.6388167" lon="11.011725"><ele>166.66666666666666</ele><time>2026-05-01T08:48:35.727Z</time></trkpt><trkpt lat="43.6388067" lon="11.0114483"><ele>166.33333333333334</ele><time>2026-05-01T08:48:36.727Z</time></trkpt><trkpt lat="43.63879" lon="11.0111833"><ele>166.0</ele><time>2026-05-01T08:48:37.726Z</time></trkpt><trkpt lat="43.638765" lon="11.010945"><ele>166.0</ele><time>2026-05-01T08:48:38.727Z</time></trkpt><trkpt lat="43.6387283" lon="11.0107333"><ele>166.0</ele><time>2026-05-01T08:48:39.727Z</time></trkpt><trkpt lat="43.6386767" lon="11.0105433"><ele>166.0</ele><time>2026-05-01T08:48:40.727Z</time></trkpt><trkpt lat="43.63861" lon="11.0103717"><ele>166.0</ele><time>2026-05-01T08:48:41.726Z</time></trkpt><trkpt lat="43.6385267" lon="11.0102117"><ele>162.33333333333334</ele><time>2026-05-01T08:48:42.726Z</time></trkpt><trkpt lat="43.6384333" lon="11.0100417"><ele>158.66666666666666</ele><time>2026-05-01T08:48:43.727Z</time></trkpt><trkpt lat="43.63832" lon="11.0098733"><ele>155.0</ele><time>2026-05-01T08:48:44.727Z</time></trkpt><trkpt lat="43.638185" lon="11.00971"><ele>155.0</ele><time>2026-05-01T08:48:45.728Z</time></trkpt><trkpt lat="43.638025" lon="11.0095483"><ele>155.0</ele><time>2026-05-01T08:48:46.728Z</time></trkpt><trkpt lat="43.6378567" lon="11.009385"><ele>155.0</ele><time>2026-05-01T08:48:47.726Z</time></trkpt><trkpt lat="43.63769" lon="11.0092033"><ele>150.0</ele><time>2026-05-01T08:48:48.727Z</time></trkpt><trkpt lat="43.6375233" lon="11.00901"><ele>145.0</ele><time>2026-05-01T08:48:49.728Z</time></trkpt><trkpt lat="43.637355" lon="11.00881"><ele>140.0</ele><time>2026-05-01T08:48:50.728Z</time></trkpt><trkpt lat="43.637185" lon="11.00861"><ele>140.0</ele><time>2026-05-01T08:48:51.728Z</time></trkpt><trkpt lat="43.6370067" lon="11.0084183"><ele>140.0</ele><time>2026-05-01T08:48:52.726Z</time></trkpt><trkpt lat="43.6368317" lon="11.0082217"><ele>140.5</ele><time>2026-05-01T08:48:53.727Z</time></trkpt><trkpt lat="43.6366633" lon="11.0080133"><ele>141.0</ele><time>2026-05-01T08:48:54.728Z</time></trkpt><trkpt lat="43.6365033" lon="11.0077967"><ele>141.0</ele><time>2026-05-01T08:48:55.727Z</time></trkpt><trkpt lat="43.6363633" lon="11.0075717"><ele>141.0</ele><time>2026-05-01T08:48:56.728Z</time></trkpt><trkpt lat="43.6362217" lon="11.0073433"><ele>141.0</ele><time>2026-05-01T08:48:57.727Z</time></trkpt><trkpt lat="43.6360933" lon="11.0071017"><ele>143.66666666666666</ele><time>2026-05-01T08:48:58.728Z</time></trkpt><trkpt lat="43.6359667" lon="11.0068717"><ele>146.33333333333331</ele><time>2026-05-01T08:48:59.728Z</time></trkpt><trkpt lat="43.635835" lon="11.00664"><ele>149.0</ele><time>2026-05-01T08:49:00.727Z</time></trkpt><trkpt lat="43.6356867" lon="11.0064333"><ele>149.33333333333331</ele><time>2026-05-01T08:49:01.727Z</time></trkpt><trkpt lat="43.6355217" lon="11.0062533"><ele>149.66666666666666</ele><time>2026-05-01T08:49:02.729Z</time></trkpt><trkpt lat="43.6353417" lon="11.0060967"><ele>150.0</ele><time>2026-05-01T08:49:03.729Z</time></trkpt><trkpt lat="43.6351533" lon="11.005975"><ele>152.66666666666666</ele><time>2026-05-01T08:49:04.726Z</time></trkpt><trkpt lat="43.6349567" lon="11.005885"><ele>155.33333333333331</ele><time>2026-05-01T08:49:05.727Z</time></trkpt><trkpt lat="43.6347583" lon="11.0058217"><ele>158.0</ele><time>2026-05-01T08:49:06.729Z</time></trkpt><trkpt lat="43.63455" lon="11.005775"><ele>162.0</ele><time>2026-05-01T08:49:07.728Z</time></trkpt><trkpt lat="43.6343633" lon="11.00573"><ele>166.0</ele><time>2026-05-01T08:49:08.727Z</time></trkpt><trkpt lat="43.6341867" lon="11.00567"><ele>170.0</ele><time>2026-05-01T08:49:09.728Z</time></trkpt><trkpt lat="43.6340217" lon="11.0055633"><ele>170.0</ele><time>2026-05-01T08:49:10.727Z</time></trkpt><trkpt lat="43.6338783" lon="11.0054133"><ele>170.0</ele><time>2026-05-01T08:49:11.729Z</time></trkpt><trkpt lat="43.63375" lon="11.005225"><ele>170.0</ele><time>2026-05-01T08:49:12.728Z</time></trkpt><trkpt lat="43.6336467" lon="11.005"><ele>168.66666666666666</ele><time>2026-05-01T08:49:13.729Z</time></trkpt><trkpt lat="43.6335633" lon="11.004765"><ele>167.33333333333334</ele><time>2026-05-01T08:49:14.729Z</time></trkpt><trkpt lat="43.63351" lon="11.0045417"><ele>166.0</ele><time>2026-05-01T08:49:15.728Z</time></trkpt><trkpt lat="43.6334967" lon="11.00431"><ele>165.33333333333334</ele><time>2026-05-01T08:49:16.728Z</time></trkpt><trkpt lat="43.633515" lon="11.0040717"><ele>164.66666666666666</ele><time>2026-05-01T08:49:17.729Z</time></trkpt><trkpt lat="43.633525" lon="11.00385"><ele>164.0</ele><time>2026-05-01T08:49:18.729Z</time></trkpt><trkpt lat="43.63353" lon="11.0036217"><ele>163.0</ele><time>2026-05-01T08:49:19.729Z</time></trkpt><trkpt lat="43.6331767" lon="11.0025933"><ele>164.0</ele><time>2026-05-01T08:49:23.728Z</time></trkpt><trkpt lat="43.6331117" lon="11.0024333"><ele>165.0</ele><time>2026-05-01T08:49:24.728Z</time></trkpt><trkpt lat="43.63301" lon="11.0022367"><ele>166.0</ele><time>2026-05-01T08:49:25.728Z</time></trkpt><trkpt lat="43.63289" lon="11.0020233"><ele>162.33333333333334</ele><time>2026-05-01T08:49:26.726Z</time></trkpt><trkpt lat="43.6327817" lon="11.001805"><ele>158.66666666666666</ele><time>2026-05-01T08:49:27.727Z</time></trkpt><trkpt lat="43.632655" lon="11.00159"><ele>155.0</ele><time>2026-05-01T08:49:28.727Z</time></trkpt><trkpt lat="43.63253" lon="11.001365"><ele>151.0</ele><time>2026-05-01T08:49:29.726Z</time></trkpt><trkpt lat="43.6322233" lon="11.00068"><ele>151.0</ele><time>2026-05-01T08:49:32.118Z</time></trkpt><trkpt lat="43.63202" lon="11.0002633"><ele>151.0</ele><time>2026-05-01T08:49:33.726Z</time></trkpt><trkpt lat="43.631885" lon="11.0000533"><ele>149.66666666666669</ele><time>2026-05-01T08:49:34.728Z</time></trkpt><trkpt lat="43.6317467" lon="10.9998583"><ele>148.33333333333334</ele><time>2026-05-01T08:49:35.727Z</time></trkpt><trkpt lat="43.6316167" lon="10.999645"><ele>147.0</ele><time>2026-05-01T08:49:36.727Z</time></trkpt><trkpt lat="43.6315" lon="10.9994367"><ele>147.0</ele><time>2026-05-01T08:49:37.726Z</time></trkpt><trkpt lat="43.6313883" lon="10.9992367"><ele>147.0</ele><time>2026-05-01T08:49:38.726Z</time></trkpt><trkpt lat="43.6312883" lon="10.998995"><ele>147.0</ele><time>2026-05-01T08:49:39.728Z</time></trkpt><trkpt lat="43.6311933" lon="10.99876"><ele>146.0</ele><time>2026-05-01T08:49:40.727Z</time></trkpt><trkpt lat="43.6311083" lon="10.998505"><ele>145.0</ele><time>2026-05-01T08:49:41.728Z</time></trkpt><trkpt lat="43.6310283" lon="10.9982467"><ele>144.0</ele><time>2026-05-01T08:49:42.728Z</time></trkpt><trkpt lat="43.6309517" lon="10.99798"><ele>144.0</ele><time>2026-05-01T08:49:43.728Z</time></trkpt><trkpt lat="43.6308767" lon="10.9977033"><ele>144.0</ele><time>2026-05-01T08:49:44.727Z</time></trkpt><trkpt lat="43.6307817" lon="10.9974383"><ele>144.0</ele><time>2026-05-01T08:49:45.728Z</time></trkpt><trkpt lat="43.63067" lon="10.9971883"><ele>143.5</ele><time>2026-05-01T08:49:46.727Z</time></trkpt><trkpt lat="43.6305383" lon="10.99695"><ele>143.0</ele><time>2026-05-01T08:49:47.728Z</time></trkpt><trkpt lat="43.630245" lon="10.9965017"><ele>142.0</ele><time>2026-05-01T08:49:49.728Z</time></trkpt><trkpt lat="43.6300833" lon="10.9962833"><ele>141.0</ele><time>2026-05-01T08:49:50.727Z</time></trkpt><trkpt lat="43.6299183" lon="10.996065"><ele>141.0</ele><time>2026-05-01T08:49:51.728Z</time></trkpt><trkpt lat="43.629755" lon="10.9958533"><ele>141.0</ele><time>2026-05-01T08:49:52.728Z</time></trkpt><trkpt lat="43.629595" lon="10.99564"><ele>141.0</ele><time>2026-05-01T08:49:53.728Z</time></trkpt><trkpt lat="43.62944" lon="10.9954317"><ele>142.0</ele><time>2026-05-01T08:49:54.728Z</time></trkpt><trkpt lat="43.6292967" lon="10.9952183"><ele>143.0</ele><time>2026-05-01T08:49:55.728Z</time></trkpt><trkpt lat="43.6291617" lon="10.99499"><ele>144.0</ele><time>2026-05-01T08:49:56.73Z</time></trkpt><trkpt lat="43.629035" lon="10.9947533"><ele>144.33333333333334</ele><time>2026-05-01T08:49:57.727Z</time></trkpt><trkpt lat="43.6289083" lon="10.994515"><ele>144.66666666666669</ele><time>2026-05-01T08:49:58.728Z</time></trkpt><trkpt lat="43.628785" lon="10.9942717"><ele>145.0</ele><time>2026-05-01T08:49:59.726Z</time></trkpt><trkpt lat="43.6286717" lon="10.9940233"><ele>143.33333333333334</ele><time>2026-05-01T08:50:00.728Z</time></trkpt><trkpt lat="43.6285667" lon="10.9937683"><ele>141.66666666666666</ele><time>2026-05-01T08:50:01.728Z</time></trkpt><trkpt lat="43.62848" lon="10.9935017"><ele>140.0</ele><time>2026-05-01T08:50:02.728Z</time></trkpt><trkpt lat="43.6284083" lon="10.9932317"><ele>140.0</ele><time>2026-05-01T08:50:03.727Z</time></trkpt><trkpt lat="43.6283433" lon="10.99295"><ele>140.0</ele><time>2026-05-01T08:50:04.727Z</time></trkpt><trkpt lat="43.628285" lon="10.9926633"><ele>140.0</ele><time>2026-05-01T08:50:05.728Z</time></trkpt><trkpt lat="43.62823" lon="10.9923733"><ele>139.33333333333331</ele><time>2026-05-01T08:50:06.728Z</time></trkpt><trkpt lat="43.6281833" lon="10.9920767"><ele>138.66666666666666</ele><time>2026-05-01T08:50:07.728Z</time></trkpt><trkpt lat="43.62813" lon="10.9917917"><ele>138.0</ele><time>2026-05-01T08:50:08.728Z</time></trkpt><trkpt lat="43.6280833" lon="10.9915133"><ele>137.33333333333334</ele><time>2026-05-01T08:50:09.728Z</time></trkpt><trkpt lat="43.62803" lon="10.9912567"><ele>136.66666666666669</ele><time>2026-05-01T08:50:10.726Z</time></trkpt><trkpt lat="43.62796" lon="10.9910283"><ele>136.0</ele><time>2026-05-01T08:50:11.726Z</time></trkpt><trkpt lat="43.627865" lon="10.9908217"><ele>134.0</ele><time>2026-05-01T08:50:12.728Z</time></trkpt><trkpt lat="43.62774" lon="10.9906417"><ele>132.0</ele><time>2026-05-01T08:50:13.727Z</time></trkpt><trkpt lat="43.627585" lon="10.990475"><ele>130.0</ele><time>2026-05-01T08:50:14.727Z</time></trkpt><trkpt lat="43.62742" lon="10.9903317"><ele>130.0</ele><time>2026-05-01T08:50:15.727Z</time></trkpt><trkpt lat="43.6272417" lon="10.9902017"><ele>130.0</ele><time>2026-05-01T08:50:16.728Z</time></trkpt><trkpt lat="43.6270733" lon="10.9900767"><ele>130.0</ele><time>2026-05-01T08:50:17.727Z</time></trkpt><trkpt lat="43.6269083" lon="10.9899667"><ele>128.33333333333334</ele><time>2026-05-01T08:50:18.727Z</time></trkpt><trkpt lat="43.6267417" lon="10.989875"><ele>126.66666666666666</ele><time>2026-05-01T08:50:19.728Z</time></trkpt><trkpt lat="43.6265667" lon="10.98982"><ele>125.0</ele><time>2026-05-01T08:50:20.727Z</time></trkpt><trkpt lat="43.6263867" lon="10.9897983"><ele>125.0</ele><time>2026-05-01T08:50:21.729Z</time></trkpt><trkpt lat="43.6261983" lon="10.989805"><ele>125.0</ele><time>2026-05-01T08:50:22.727Z</time></trkpt><trkpt lat="43.626005" lon="10.989825"><ele>125.0</ele><time>2026-05-01T08:50:23.728Z</time></trkpt><trkpt lat="43.62581" lon="10.9898383"><ele>124.0</ele><time>2026-05-01T08:50:24.729Z</time></trkpt><trkpt lat="43.6256133" lon="10.9898533"><ele>123.0</ele><time>2026-05-01T08:50:25.728Z</time></trkpt><trkpt lat="43.6254183" lon="10.9898567"><ele>122.0</ele><time>2026-05-01T08:50:26.728Z</time></trkpt><trkpt lat="43.6252267" lon="10.9898383"><ele>122.0</ele><time>2026-05-01T08:50:27.729Z</time></trkpt><trkpt lat="43.6250367" lon="10.9897967"><ele>122.0</ele><time>2026-05-01T08:50:28.728Z</time></trkpt><trkpt lat="43.62485" lon="10.9897233"><ele>122.0</ele><time>2026-05-01T08:50:29.728Z</time></trkpt><trkpt lat="43.6246683" lon="10.9896133"><ele>122.0</ele><time>2026-05-01T08:50:30.728Z</time></trkpt><trkpt lat="43.6244933" lon="10.9894917"><ele>122.0</ele><time>2026-05-01T08:50:31.728Z</time></trkpt><trkpt lat="43.6243283" lon="10.9893233"><ele>122.0</ele><time>2026-05-01T08:50:32.727Z</time></trkpt><trkpt lat="43.6241717" lon="10.9891367"><ele>119.66666666666666</ele><time>2026-05-01T08:50:33.728Z</time></trkpt><trkpt lat="43.6240217" lon="10.9889417"><ele>117.33333333333334</ele><time>2026-05-01T08:50:34.727Z</time></trkpt><trkpt lat="43.62387" lon="10.988755"><ele>115.0</ele><time>2026-05-01T08:50:35.728Z</time></trkpt><trkpt lat="43.6237083" lon="10.9885883"><ele>114.66666666666667</ele><time>2026-05-01T08:50:36.727Z</time></trkpt><trkpt lat="43.623535" lon="10.9884683"><ele>114.33333333333334</ele><time>2026-05-01T08:50:37.728Z</time></trkpt><trkpt lat="43.62334" lon="10.9884117"><ele>114.0</ele><time>2026-05-01T08:50:38.728Z</time></trkpt><trkpt lat="43.62315" lon="10.9883867"><ele>114.0</ele><time>2026-05-01T08:50:39.728Z</time></trkpt><trkpt lat="43.622955" lon="10.988365"><ele>114.0</ele><time>2026-05-01T08:50:40.728Z</time></trkpt><trkpt lat="43.62275" lon="10.988345"><ele>114.0</ele><time>2026-05-01T08:50:41.727Z</time></trkpt><trkpt lat="43.6225367" lon="10.9883217"><ele>116.0</ele><time>2026-05-01T08:50:42.728Z</time></trkpt><trkpt lat="43.62232" lon="10.9882983"><ele>118.0</ele><time>2026-05-01T08:50:43.728Z</time></trkpt><trkpt lat="43.6221" lon="10.9882817"><ele>120.0</ele><time>2026-05-01T08:50:44.727Z</time></trkpt><trkpt lat="43.6218783" lon="10.9882633"><ele>120.0</ele><time>2026-05-01T08:50:45.728Z</time></trkpt><trkpt lat="43.6216583" lon="10.9882417"><ele>120.0</ele><time>2026-05-01T08:50:46.728Z</time></trkpt><trkpt lat="43.6214417" lon="10.9881933"><ele>120.0</ele><time>2026-05-01T08:50:47.727Z</time></trkpt><trkpt lat="43.6212317" lon="10.98811"><ele>121.66666666666666</ele><time>2026-05-01T08:50:48.728Z</time></trkpt><trkpt lat="43.6210367" lon="10.98797"><ele>123.33333333333333</ele><time>2026-05-01T08:50:49.727Z</time></trkpt><trkpt lat="43.620855" lon="10.9878033"><ele>125.0</ele><time>2026-05-01T08:50:50.728Z</time></trkpt><trkpt lat="43.620685" lon="10.9875983"><ele>123.5</ele><time>2026-05-01T08:50:51.727Z</time></trkpt><trkpt lat="43.6205267" lon="10.9873733"><ele>122.0</ele><time>2026-05-01T08:50:52.728Z</time></trkpt><trkpt lat="43.62037" lon="10.98714"><ele>122.5</ele><time>2026-05-01T08:50:53.727Z</time></trkpt><trkpt lat="43.6202117" lon="10.9868983"><ele>123.0</ele><time>2026-05-01T08:50:54.728Z</time></trkpt><trkpt lat="43.6200583" lon="10.9866617"><ele>121.5</ele><time>2026-05-01T08:50:55.728Z</time></trkpt><trkpt lat="43.6199017" lon="10.98642"><ele>120.0</ele><time>2026-05-01T08:50:56.727Z</time></trkpt><trkpt lat="43.6197433" lon="10.9861867"><ele>120.0</ele><time>2026-05-01T08:50:57.728Z</time></trkpt><trkpt lat="43.6195833" lon="10.9859733"><ele>120.0</ele><time>2026-05-01T08:50:58.727Z</time></trkpt><trkpt lat="43.6194133" lon="10.9857767"><ele>120.0</ele><time>2026-05-01T08:50:59.729Z</time></trkpt><trkpt lat="43.6192283" lon="10.9856033"><ele>119.33333333333334</ele><time>2026-05-01T08:51:00.73Z</time></trkpt><trkpt lat="43.61904" lon="10.9854383"><ele>118.66666666666667</ele><time>2026-05-01T08:51:01.726Z</time></trkpt><trkpt lat="43.618855" lon="10.98528"><ele>118.0</ele><time>2026-05-01T08:51:02.727Z</time></trkpt><trkpt lat="43.6186783" lon="10.98513"><ele>119.66666666666667</ele><time>2026-05-01T08:51:03.727Z</time></trkpt><trkpt lat="43.6184983" lon="10.9849883"><ele>121.33333333333334</ele><time>2026-05-01T08:51:04.728Z</time></trkpt><trkpt lat="43.6183117" lon="10.9848617"><ele>123.0</ele><time>2026-05-01T08:51:05.728Z</time></trkpt><trkpt lat="43.6181183" lon="10.98476"><ele>123.0</ele><time>2026-05-01T08:51:06.728Z</time></trkpt><trkpt lat="43.6179167" lon="10.98468"><ele>123.0</ele><time>2026-05-01T08:51:07.727Z</time></trkpt><trkpt lat="43.6177083" lon="10.98461"><ele>123.0</ele><time>2026-05-01T08:51:08.727Z</time></trkpt><trkpt lat="43.6175017" lon="10.9845417"><ele>123.33333333333334</ele><time>2026-05-01T08:51:09.727Z</time></trkpt><trkpt lat="43.6173" lon="10.9844633"><ele>123.66666666666667</ele><time>2026-05-01T08:51:10.728Z</time></trkpt><trkpt lat="43.61711" lon="10.9843733"><ele>124.0</ele><time>2026-05-01T08:51:11.728Z</time></trkpt><trkpt lat="43.6169367" lon="10.984265"><ele>127.33333333333334</ele><time>2026-05-01T08:51:12.727Z</time></trkpt><trkpt lat="43.6167667" lon="10.98417"><ele>130.66666666666666</ele><time>2026-05-01T08:51:13.728Z</time></trkpt><trkpt lat="43.6165917" lon="10.9840617"><ele>134.0</ele><time>2026-05-01T08:51:14.728Z</time></trkpt><trkpt lat="43.6164233" lon="10.983945"><ele>134.0</ele><time>2026-05-01T08:51:15.727Z</time></trkpt><trkpt lat="43.616265" lon="10.9838267"><ele>134.0</ele><time>2026-05-01T08:51:16.727Z</time></trkpt><trkpt lat="43.6161117" lon="10.9837167"><ele>134.0</ele><time>2026-05-01T08:51:17.727Z</time></trkpt><trkpt lat="43.6159683" lon="10.9836133"><ele>133.33333333333331</ele><time>2026-05-01T08:51:18.728Z</time></trkpt><trkpt lat="43.6158333" lon="10.9835183"><ele>132.66666666666666</ele><time>2026-05-01T08:51:19.727Z</time></trkpt><trkpt lat="43.615705" lon="10.9834133"><ele>132.0</ele><time>2026-05-01T08:51:20.728Z</time></trkpt><trkpt lat="43.615585" lon="10.98329"><ele>133.33333333333334</ele><time>2026-05-01T08:51:21.727Z</time></trkpt><trkpt lat="43.61548" lon="10.9831433"><ele>134.66666666666669</ele><time>2026-05-01T08:51:22.728Z</time></trkpt><trkpt lat="43.6153983" lon="10.98296"><ele>136.0</ele><time>2026-05-01T08:51:23.727Z</time></trkpt><trkpt lat="43.6153267" lon="10.9827667"><ele>136.0</ele><time>2026-05-01T08:51:24.728Z</time></trkpt><trkpt lat="43.6152667" lon="10.9825767"><ele>136.0</ele><time>2026-05-01T08:51:25.727Z</time></trkpt><trkpt lat="43.6152267" lon="10.982375"><ele>136.0</ele><time>2026-05-01T08:51:26.727Z</time></trkpt><trkpt lat="43.6152017" lon="10.9821683"><ele>136.0</ele><time>2026-05-01T08:51:27.729Z</time></trkpt><trkpt lat="43.6151933" lon="10.9819583"><ele>136.0</ele><time>2026-05-01T08:51:28.728Z</time></trkpt><trkpt lat="43.6151833" lon="10.9817467"><ele>136.0</ele><time>2026-05-01T08:51:29.728Z</time></trkpt><trkpt lat="43.6151667" lon="10.9815283"><ele>135.33333333333334</ele><time>2026-05-01T08:51:30.727Z</time></trkpt><trkpt lat="43.6151367" lon="10.9813167"><ele>134.66666666666666</ele><time>2026-05-01T08:51:31.728Z</time></trkpt><trkpt lat="43.6150867" lon="10.981115"><ele>134.0</ele><time>2026-05-01T08:51:32.728Z</time></trkpt><trkpt lat="43.6150217" lon="10.9809283"><ele>132.25</ele><time>2026-05-01T08:51:33.728Z</time></trkpt><trkpt lat="43.6149417" lon="10.9807617"><ele>130.5</ele><time>2026-05-01T08:51:34.728Z</time></trkpt><trkpt lat="43.61485" lon="10.9806067"><ele>128.75</ele><time>2026-05-01T08:51:35.727Z</time></trkpt><trkpt lat="43.6147433" lon="10.9804533"><ele>127.0</ele><time>2026-05-01T08:51:36.729Z</time></trkpt><trkpt lat="43.6146167" lon="10.9802967"><ele>124.33333333333334</ele><time>2026-05-01T08:51:37.728Z</time></trkpt><trkpt lat="43.6144717" lon="10.98013"><ele>121.66666666666666</ele><time>2026-05-01T08:51:38.728Z</time></trkpt><trkpt lat="43.614305" lon="10.9799533"><ele>119.0</ele><time>2026-05-01T08:51:39.728Z</time></trkpt><trkpt lat="43.6141417" lon="10.979765"><ele>119.0</ele><time>2026-05-01T08:51:40.727Z</time></trkpt><trkpt lat="43.61398" lon="10.9795767"><ele>119.0</ele><time>2026-05-01T08:51:41.727Z</time></trkpt><trkpt lat="43.6138083" lon="10.9793983"><ele>119.0</ele><time>2026-05-01T08:51:42.727Z</time></trkpt><trkpt lat="43.6136433" lon="10.9792133"><ele>118.66666666666666</ele><time>2026-05-01T08:51:43.729Z</time></trkpt><trkpt lat="43.6134917" lon="10.979035"><ele>118.33333333333334</ele><time>2026-05-01T08:51:44.728Z</time></trkpt><trkpt lat="43.6133567" lon="10.9788433"><ele>118.0</ele><time>2026-05-01T08:51:45.727Z</time></trkpt><trkpt lat="43.61324" lon="10.9786417"><ele>118.0</ele><time>2026-05-01T08:51:46.728Z</time></trkpt><trkpt lat="43.6131367" lon="10.9784333"><ele>118.0</ele><time>2026-05-01T08:51:47.728Z</time></trkpt><trkpt lat="43.6130483" lon="10.9782217"><ele>118.0</ele><time>2026-05-01T08:51:48.727Z</time></trkpt><trkpt lat="43.6129717" lon="10.978005"><ele>117.0</ele><time>2026-05-01T08:51:49.728Z</time></trkpt><trkpt lat="43.6128967" lon="10.9777817"><ele>116.0</ele><time>2026-05-01T08:51:50.727Z</time></trkpt><trkpt lat="43.6128083" lon="10.97756"><ele>115.0</ele><time>2026-05-01T08:51:51.728Z</time></trkpt><trkpt lat="43.61272" lon="10.97733"><ele>117.0</ele><time>2026-05-01T08:51:52.728Z</time></trkpt><trkpt lat="43.6126267" lon="10.9771117"><ele>119.0</ele><time>2026-05-01T08:51:53.728Z</time></trkpt><trkpt lat="43.6125333" lon="10.9769033"><ele>121.0</ele><time>2026-05-01T08:51:54.727Z</time></trkpt><trkpt lat="43.612425" lon="10.976705"><ele>120.33333333333334</ele><time>2026-05-01T08:51:55.728Z</time></trkpt><trkpt lat="43.6123083" lon="10.97652"><ele>119.66666666666666</ele><time>2026-05-01T08:51:56.728Z</time></trkpt><trkpt lat="43.61218" lon="10.9763383"><ele>119.0</ele><time>2026-05-01T08:51:57.728Z</time></trkpt><trkpt lat="43.6120417" lon="10.9761617"><ele>118.33333333333333</ele><time>2026-05-01T08:51:58.728Z</time></trkpt><trkpt lat="43.6118967" lon="10.976005"><ele>117.66666666666666</ele><time>2026-05-01T08:51:59.727Z</time></trkpt><trkpt lat="43.61175" lon="10.9758567"><ele>117.0</ele><time>2026-05-01T08:52:00.728Z</time></trkpt><trkpt lat="43.611595" lon="10.9757217"><ele>116.0</ele><time>2026-05-01T08:52:01.729Z</time></trkpt><trkpt lat="43.611435" lon="10.9755967"><ele>115.0</ele><time>2026-05-01T08:52:02.729Z</time></trkpt><trkpt lat="43.61127" lon="10.9754883"><ele>114.0</ele><time>2026-05-01T08:52:03.727Z</time></trkpt><trkpt lat="43.6111083" lon="10.9753817"><ele>113.33333333333334</ele><time>2026-05-01T08:52:04.727Z</time></trkpt><trkpt lat="43.61095" lon="10.9752767"><ele>112.66666666666667</ele><time>2026-05-01T08:52:05.727Z</time></trkpt><trkpt lat="43.6108117" lon="10.9751383"><ele>112.0</ele><time>2026-05-01T08:52:06.727Z</time></trkpt><trkpt lat="43.6106867" lon="10.97498"><ele>112.0</ele><time>2026-05-01T08:52:07.727Z</time></trkpt><trkpt lat="43.6105567" lon="10.9748267"><ele>112.0</ele><time>2026-05-01T08:52:08.726Z</time></trkpt><trkpt lat="43.6104333" lon="10.9746533"><ele>112.0</ele><time>2026-05-01T08:52:09.726Z</time></trkpt><trkpt lat="43.6103133" lon="10.9744933"><ele>111.0</ele><time>2026-05-01T08:52:10.726Z</time></trkpt><trkpt lat="43.6101833" lon="10.97435"><ele>110.0</ele><time>2026-05-01T08:52:11.726Z</time></trkpt><trkpt lat="43.6100517" lon="10.9742183"><ele>109.0</ele><time>2026-05-01T08:52:12.726Z</time></trkpt><trkpt lat="43.60992" lon="10.9740983"><ele>109.0</ele><time>2026-05-01T08:52:13.728Z</time></trkpt><trkpt lat="43.6097883" lon="10.9739867"><ele>109.0</ele><time>2026-05-01T08:52:14.727Z</time></trkpt><trkpt lat="43.6096633" lon="10.9738917"><ele>109.0</ele><time>2026-05-01T08:52:15.728Z</time></trkpt><trkpt lat="43.609545" lon="10.9738067"><ele>109.0</ele><time>2026-05-01T08:52:16.729Z</time></trkpt><trkpt lat="43.6094433" lon="10.9737283"><ele>107.00000000000001</ele><time>2026-05-01T08:52:17.727Z</time></trkpt><trkpt lat="43.6093467" lon="10.97366"><ele>105.0</ele><time>2026-05-01T08:52:18.728Z</time></trkpt><trkpt lat="43.6092683" lon="10.97359"><ele>103.0</ele><time>2026-05-01T08:52:19.728Z</time></trkpt><trkpt lat="43.6091983" lon="10.9735283"><ele>101.0</ele><time>2026-05-01T08:52:20.727Z</time></trkpt><trkpt lat="43.6091417" lon="10.97346"><ele>99.00000000000001</ele><time>2026-05-01T08:52:21.728Z</time></trkpt><trkpt lat="43.6090983" lon="10.9733833"><ele>97.0</ele><time>2026-05-01T08:52:22.728Z</time></trkpt><trkpt lat="43.60904" lon="10.973275"><ele>97.0</ele><time>2026-05-01T08:52:24.727Z</time></trkpt><trkpt lat="43.608965" lon="10.9731833"><ele>97.0</ele><time>2026-05-01T08:52:27.727Z</time></trkpt><trkpt lat="43.608865" lon="10.973125"><ele>97.0</ele><time>2026-05-01T08:52:29.727Z</time></trkpt><trkpt lat="43.60879" lon="10.9730967"><ele>97.0</ele><time>2026-05-01T08:52:30.728Z</time></trkpt><trkpt lat="43.608695" lon="10.9730617"><ele>97.0</ele><time>2026-05-01T08:52:31.728Z</time></trkpt><trkpt lat="43.6086" lon="10.9730217"><ele>96.16666666666667</ele><time>2026-05-01T08:52:32.729Z</time></trkpt><trkpt lat="43.6085033" lon="10.97298"><ele>95.33333333333334</ele><time>2026-05-01T08:52:33.727Z</time></trkpt><trkpt lat="43.608415" lon="10.972945"><ele>94.5</ele><time>2026-05-01T08:52:34.729Z</time></trkpt><trkpt lat="43.6083317" lon="10.9729"><ele>93.66666666666667</ele><time>2026-05-01T08:52:35.73Z</time></trkpt><trkpt lat="43.6082533" lon="10.972855"><ele>92.83333333333334</ele><time>2026-05-01T08:52:36.729Z</time></trkpt><trkpt lat="43.60818" lon="10.9728167"><ele>92.0</ele><time>2026-05-01T08:52:37.728Z</time></trkpt><trkpt lat="43.6081117" lon="10.9727917"><ele>92.0</ele><time>2026-05-01T08:52:38.728Z</time></trkpt><trkpt lat="43.6079967" lon="10.9727583"><ele>92.0</ele><time>2026-05-01T08:52:40.728Z</time></trkpt><trkpt lat="43.6078917" lon="10.9727617"><ele>92.0</ele><time>2026-05-01T08:52:42.726Z</time></trkpt><trkpt lat="43.6077683" lon="10.9727767"><ele>92.0</ele><time>2026-05-01T08:52:44.728Z</time></trkpt><trkpt lat="43.607695" lon="10.9727933"><ele>92.0</ele><time>2026-05-01T08:52:45.728Z</time></trkpt><trkpt lat="43.6076167" lon="10.9728383"><ele>92.0</ele><time>2026-05-01T08:52:46.728Z</time></trkpt><trkpt lat="43.6075133" lon="10.97296"><ele>92.0</ele><time>2026-05-01T08:52:47.727Z</time></trkpt><trkpt lat="43.6074117" lon="10.9731167"><ele>92.0</ele><time>2026-05-01T08:52:48.727Z</time></trkpt><trkpt lat="43.6073117" lon="10.973295"><ele>86.0</ele><time>2026-05-01T08:52:49.726Z</time></trkpt><trkpt lat="43.60721" lon="10.9734733"><ele>80.0</ele><time>2026-05-01T08:52:50.727Z</time></trkpt><trkpt lat="43.607105" lon="10.97366"><ele>74.0</ele><time>2026-05-01T08:52:51.727Z</time></trkpt><trkpt lat="43.6070083" lon="10.97384"><ele>71.66666666666667</ele><time>2026-05-01T08:52:52.727Z</time></trkpt><trkpt lat="43.6069283" lon="10.97404"><ele>69.33333333333333</ele><time>2026-05-01T08:52:53.728Z</time></trkpt><trkpt lat="43.606855" lon="10.97424"><ele>67.0</ele><time>2026-05-01T08:52:54.726Z</time></trkpt><trkpt lat="43.60679" lon="10.974445"><ele>67.0</ele><time>2026-05-01T08:52:55.727Z</time></trkpt><trkpt lat="43.6067267" lon="10.974655"><ele>67.0</ele><time>2026-05-01T08:52:56.727Z</time></trkpt><trkpt lat="43.606665" lon="10.9748667"><ele>67.0</ele><time>2026-05-01T08:52:57.726Z</time></trkpt><trkpt lat="43.6065983" lon="10.9750717"><ele>64.0</ele><time>2026-05-01T08:52:58.727Z</time></trkpt><trkpt lat="43.606525" lon="10.9752633"><ele>61.0</ele><time>2026-05-01T08:52:59.726Z</time></trkpt><trkpt lat="43.606445" lon="10.97544"><ele>58.0</ele><time>2026-05-01T08:53:00.728Z</time></trkpt><trkpt lat="43.6063517" lon="10.9755983"><ele>58.0</ele><time>2026-05-01T08:53:01.727Z</time></trkpt><trkpt lat="43.60624" lon="10.97573"><ele>58.0</ele><time>2026-05-01T08:53:02.727Z</time></trkpt><trkpt lat="43.606105" lon="10.9758383"><ele>58.0</ele><time>2026-05-01T08:53:03.728Z</time></trkpt><trkpt lat="43.60596" lon="10.97593"><ele>56.0</ele><time>2026-05-01T08:53:04.726Z</time></trkpt><trkpt lat="43.6058067" lon="10.9759967"><ele>54.0</ele><time>2026-05-01T08:53:05.727Z</time></trkpt><trkpt lat="43.60565" lon="10.9760383"><ele>52.0</ele><time>2026-05-01T08:53:06.728Z</time></trkpt><trkpt lat="43.6054867" lon="10.9760617"><ele>51.666666666666664</ele><time>2026-05-01T08:53:07.727Z</time></trkpt><trkpt lat="43.6053167" lon="10.9760583"><ele>51.33333333333333</ele><time>2026-05-01T08:53:08.727Z</time></trkpt><trkpt lat="43.6051517" lon="10.9760317"><ele>51.0</ele><time>2026-05-01T08:53:09.727Z</time></trkpt><trkpt lat="43.60499" lon="10.9759967"><ele>51.0</ele><time>2026-05-01T08:53:10.727Z</time></trkpt><trkpt lat="43.6048433" lon="10.9759533"><ele>51.0</ele><time>2026-05-01T08:53:11.726Z</time></trkpt><trkpt lat="43.604705" lon="10.9759133"><ele>51.0</ele><time>2026-05-01T08:53:12.727Z</time></trkpt><trkpt lat="43.6045783" lon="10.9758717"><ele>51.0</ele><time>2026-05-01T08:53:13.726Z</time></trkpt><trkpt lat="43.6044683" lon="10.97583"><ele>51.166666666666664</ele><time>2026-05-01T08:53:14.728Z</time></trkpt><trkpt lat="43.60437" lon="10.9758033"><ele>51.33333333333333</ele><time>2026-05-01T08:53:15.727Z</time></trkpt><trkpt lat="43.6042867" lon="10.9757783"><ele>51.5</ele><time>2026-05-01T08:53:16.728Z</time></trkpt><trkpt lat="43.6042167" lon="10.9757583"><ele>51.666666666666664</ele><time>2026-05-01T08:53:17.727Z</time></trkpt><trkpt lat="43.604125" lon="10.9757333"><ele>51.83333333333333</ele><time>2026-05-01T08:53:19.726Z</time></trkpt><trkpt lat="43.604045" lon="10.9756983"><ele>52.0</ele><time>2026-05-01T08:53:22.728Z</time></trkpt><trkpt lat="43.6039533" lon="10.97567"><ele>52.0</ele><time>2026-05-01T08:54:10.726Z</time></trkpt><trkpt lat="43.6038517" lon="10.9756417"><ele>52.0</ele><time>2026-05-01T08:54:12.727Z</time></trkpt><trkpt lat="43.60375" lon="10.9756133"><ele>52.0</ele><time>2026-05-01T08:54:14.727Z</time></trkpt><trkpt lat="43.6036133" lon="10.9755767"><ele>52.0</ele><time>2026-05-01T08:54:16.726Z</time></trkpt><trkpt lat="43.6035283" lon="10.9755467"><ele>52.0</ele><time>2026-05-01T08:54:17.727Z</time></trkpt><trkpt lat="43.60344" lon="10.9755217"><ele>52.0</ele><time>2026-05-01T08:54:18.727Z</time></trkpt><trkpt lat="43.6033433" lon="10.975495"><ele>52.0</ele><time>2026-05-01T08:54:19.728Z</time></trkpt><trkpt lat="43.603235" lon="10.9754683"><ele>52.0</ele><time>2026-05-01T08:54:20.729Z</time></trkpt><trkpt lat="43.603115" lon="10.9754383"><ele>52.0</ele><time>2026-05-01T08:54:21.728Z</time></trkpt><trkpt lat="43.6029917" lon="10.9754017"><ele>52.0</ele><time>2026-05-01T08:54:22.726Z</time></trkpt><trkpt lat="43.6028617" lon="10.9753633"><ele>52.0</ele><time>2026-05-01T08:54:23.727Z</time></trkpt><trkpt lat="43.6027233" lon="10.9753167"><ele>52.0</ele><time>2026-05-01T08:54:24.727Z</time></trkpt><trkpt lat="43.6025783" lon="10.975275"><ele>52.0</ele><time>2026-05-01T08:54:25.726Z</time></trkpt><trkpt lat="43.6024283" lon="10.9752317"><ele>53.0</ele><time>2026-05-01T08:54:26.728Z</time></trkpt><trkpt lat="43.602275" lon="10.9751867"><ele>54.0</ele><time>2026-05-01T08:54:27.727Z</time></trkpt><trkpt lat="43.6021167" lon="10.9751417"><ele>55.0</ele><time>2026-05-01T08:54:28.727Z</time></trkpt><trkpt lat="43.6019583" lon="10.975095"><ele>54.0</ele><time>2026-05-01T08:54:29.728Z</time></trkpt><trkpt lat="43.6018" lon="10.9750517"><ele>53.0</ele><time>2026-05-01T08:54:30.727Z</time></trkpt><trkpt lat="43.60164" lon="10.9750083"><ele>52.0</ele><time>2026-05-01T08:54:31.727Z</time></trkpt><trkpt lat="43.6014817" lon="10.9749667"><ele>52.0</ele><time>2026-05-01T08:54:32.728Z</time></trkpt><trkpt lat="43.6013167" lon="10.974925"><ele>52.0</ele><time>2026-05-01T08:54:33.727Z</time></trkpt><trkpt lat="43.6011583" lon="10.97488"><ele>52.0</ele><time>2026-05-01T08:54:34.728Z</time></trkpt><trkpt lat="43.600995" lon="10.974845"><ele>52.666666666666664</ele><time>2026-05-01T08:54:35.727Z</time></trkpt><trkpt lat="43.600835" lon="10.97481"><ele>53.33333333333333</ele><time>2026-05-01T08:54:36.726Z</time></trkpt><trkpt lat="43.6006617" lon="10.97479"><ele>54.0</ele><time>2026-05-01T08:54:37.727Z</time></trkpt><trkpt lat="43.600495" lon="10.9747733"><ele>56.33333333333333</ele><time>2026-05-01T08:54:38.728Z</time></trkpt><trkpt lat="43.6003233" lon="10.9747717"><ele>58.666666666666664</ele><time>2026-05-01T08:54:39.727Z</time></trkpt><trkpt lat="43.60015" lon="10.97477"><ele>61.0</ele><time>2026-05-01T08:54:40.728Z</time></trkpt><trkpt lat="43.59999" lon="10.9747717"><ele>61.0</ele><time>2026-05-01T08:54:41.728Z</time></trkpt><trkpt lat="43.5998367" lon="10.974765"><ele>61.0</ele><time>2026-05-01T08:54:42.726Z</time></trkpt><trkpt lat="43.599695" lon="10.9747517"><ele>61.0</ele><time>2026-05-01T08:54:43.727Z</time></trkpt><trkpt lat="43.59956" lon="10.9747283"><ele>61.0</ele><time>2026-05-01T08:54:44.727Z</time></trkpt><trkpt lat="43.599425" lon="10.9746967"><ele>60.5</ele><time>2026-05-01T08:54:45.727Z</time></trkpt><trkpt lat="43.5993" lon="10.974675"><ele>60.0</ele><time>2026-05-01T08:54:46.727Z</time></trkpt><trkpt lat="43.5991767" lon="10.974645"><ele>59.5</ele><time>2026-05-01T08:54:47.729Z</time></trkpt><trkpt lat="43.5990483" lon="10.97461"><ele>59.0</ele><time>2026-05-01T08:54:48.727Z</time></trkpt><trkpt lat="43.5989133" lon="10.9745767"><ele>59.0</ele><time>2026-05-01T08:54:49.727Z</time></trkpt><trkpt lat="43.5987733" lon="10.9745367"><ele>59.0</ele><time>2026-05-01T08:54:50.728Z</time></trkpt><trkpt lat="43.598635" lon="10.974485"><ele>59.0</ele><time>2026-05-01T08:54:51.726Z</time></trkpt><trkpt lat="43.598495" lon="10.9744217"><ele>59.0</ele><time>2026-05-01T08:54:52.726Z</time></trkpt><trkpt lat="43.5983567" lon="10.974335"><ele>59.333333333333336</ele><time>2026-05-01T08:54:53.728Z</time></trkpt><trkpt lat="43.59822" lon="10.9742333"><ele>59.66666666666667</ele><time>2026-05-01T08:54:54.726Z</time></trkpt><trkpt lat="43.5980833" lon="10.974115"><ele>60.0</ele><time>2026-05-01T08:54:55.728Z</time></trkpt><trkpt lat="43.59795" lon="10.9739833"><ele>58.0</ele><time>2026-05-01T08:54:56.728Z</time></trkpt><trkpt lat="43.5978167" lon="10.9738433"><ele>56.0</ele><time>2026-05-01T08:54:57.726Z</time></trkpt><trkpt lat="43.5976833" lon="10.9737033"><ele>54.0</ele><time>2026-05-01T08:54:58.727Z</time></trkpt><trkpt lat="43.5975483" lon="10.9735533"><ele>54.0</ele><time>2026-05-01T08:54:59.726Z</time></trkpt><trkpt lat="43.59741" lon="10.973395"><ele>54.0</ele><time>2026-05-01T08:55:00.728Z</time></trkpt><trkpt lat="43.5972683" lon="10.97324"><ele>54.0</ele><time>2026-05-01T08:55:01.727Z</time></trkpt><trkpt lat="43.5971283" lon="10.973095"><ele>52.66666666666667</ele><time>2026-05-01T08:55:02.728Z</time></trkpt><trkpt lat="43.5969917" lon="10.9729517"><ele>51.333333333333336</ele><time>2026-05-01T08:55:03.727Z</time></trkpt><trkpt lat="43.5968533" lon="10.9728183"><ele>50.0</ele><time>2026-05-01T08:55:04.726Z</time></trkpt><trkpt lat="43.5967117" lon="10.9726883"><ele>50.0</ele><time>2026-05-01T08:55:05.727Z</time></trkpt><trkpt lat="43.596565" lon="10.972565"><ele>50.0</ele><time>2026-05-01T08:55:06.729Z</time></trkpt><trkpt lat="43.59641" lon="10.9724667"><ele>50.0</ele><time>2026-05-01T08:55:07.727Z</time></trkpt><trkpt lat="43.596255" lon="10.972375"><ele>50.66666666666667</ele><time>2026-05-01T08:55:08.727Z</time></trkpt><trkpt lat="43.596095" lon="10.972305"><ele>51.33333333333333</ele><time>2026-05-01T08:55:09.729Z</time></trkpt><trkpt lat="43.5959317" lon="10.9722533"><ele>52.0</ele><time>2026-05-01T08:55:10.726Z</time></trkpt><trkpt lat="43.5957617" lon="10.9722133"><ele>52.0</ele><time>2026-05-01T08:55:11.727Z</time></trkpt><trkpt lat="43.5955917" lon="10.972185"><ele>52.0</ele><time>2026-05-01T08:55:12.728Z</time></trkpt><trkpt lat="43.59542" lon="10.9721717"><ele>52.0</ele><time>2026-05-01T08:55:13.729Z</time></trkpt><trkpt lat="43.5952517" lon="10.972165"><ele>52.0</ele><time>2026-05-01T08:55:14.729Z</time></trkpt><trkpt lat="43.5950767" lon="10.972165"><ele>52.0</ele><time>2026-05-01T08:55:15.727Z</time></trkpt><trkpt lat="43.5949033" lon="10.9721667"><ele>52.0</ele><time>2026-05-01T08:55:16.727Z</time></trkpt><trkpt lat="43.59473" lon="10.972165"><ele>52.0</ele><time>2026-05-01T08:55:17.728Z</time></trkpt><trkpt lat="43.5945633" lon="10.9721683"><ele>52.0</ele><time>2026-05-01T08:55:18.726Z</time></trkpt><trkpt lat="43.5943983" lon="10.9721767"><ele>52.0</ele><time>2026-05-01T08:55:19.727Z</time></trkpt><trkpt lat="43.594235" lon="10.972185"><ele>51.666666666666664</ele><time>2026-05-01T08:55:20.728Z</time></trkpt><trkpt lat="43.5940733" lon="10.9721967"><ele>51.33333333333333</ele><time>2026-05-01T08:55:21.731Z</time></trkpt><trkpt lat="43.59392" lon="10.9722033"><ele>51.0</ele><time>2026-05-01T08:55:22.728Z</time></trkpt><trkpt lat="43.5937733" lon="10.9722117"><ele>50.75</ele><time>2026-05-01T08:55:23.728Z</time></trkpt><trkpt lat="43.593635" lon="10.9722183"><ele>50.5</ele><time>2026-05-01T08:55:24.726Z</time></trkpt><trkpt lat="43.5935133" lon="10.9722233"><ele>50.25</ele><time>2026-05-01T08:55:25.727Z</time></trkpt><trkpt lat="43.5934033" lon="10.97223"><ele>50.0</ele><time>2026-05-01T08:55:26.728Z</time></trkpt><trkpt lat="43.593315" lon="10.9722333"><ele>50.00000000000001</ele><time>2026-05-01T08:55:27.727Z</time></trkpt><trkpt lat="43.5932433" lon="10.9722333"><ele>50.0</ele><time>2026-05-01T08:55:28.727Z</time></trkpt><trkpt lat="43.5931517" lon="10.9722283"><ele>50.0</ele><time>2026-05-01T08:55:30.726Z</time></trkpt><trkpt lat="43.593085" lon="10.9722083"><ele>50.0</ele><time>2026-05-01T08:55:34.728Z</time></trkpt><trkpt lat="43.593005" lon="10.972145"><ele>50.00000000000001</ele><time>2026-05-01T08:55:37.727Z</time></trkpt><trkpt lat="43.5929483" lon="10.9721067"><ele>50.0</ele><time>2026-05-01T08:55:38.728Z</time></trkpt><trkpt lat="43.5928783" lon="10.9720717"><ele>50.16666666666667</ele><time>2026-05-01T08:55:39.729Z</time></trkpt><trkpt lat="43.5928117" lon="10.9720567"><ele>50.333333333333336</ele><time>2026-05-01T08:55:40.726Z</time></trkpt><trkpt lat="43.5927383" lon="10.9720583"><ele>50.5</ele><time>2026-05-01T08:55:41.728Z</time></trkpt><trkpt lat="43.5926617" lon="10.9720917"><ele>50.66666666666667</ele><time>2026-05-01T08:55:42.727Z</time></trkpt><trkpt lat="43.5925767" lon="10.9721567"><ele>50.833333333333336</ele><time>2026-05-01T08:55:43.728Z</time></trkpt><trkpt lat="43.5924733" lon="10.9722083"><ele>51.0</ele><time>2026-05-01T08:55:44.73Z</time></trkpt><trkpt lat="43.5923533" lon="10.97223"><ele>51.0</ele><time>2026-05-01T08:55:45.726Z</time></trkpt><trkpt lat="43.592205" lon="10.97224"><ele>51.0</ele><time>2026-05-01T08:55:46.727Z</time></trkpt><trkpt lat="43.59203" lon="10.97223"><ele>51.0</ele><time>2026-05-01T08:55:47.727Z</time></trkpt><trkpt lat="43.591835" lon="10.9722017"><ele>50.66666666666667</ele><time>2026-05-01T08:55:48.728Z</time></trkpt><trkpt lat="43.5916233" lon="10.9721683"><ele>50.333333333333336</ele><time>2026-05-01T08:55:49.727Z</time></trkpt><trkpt lat="43.591405" lon="10.9721283"><ele>50.0</ele><time>2026-05-01T08:55:50.731Z</time></trkpt><trkpt lat="43.5911817" lon="10.9720917"><ele>50.66666666666667</ele><time>2026-05-01T08:55:51.726Z</time></trkpt><trkpt lat="43.5909667" lon="10.9720517"><ele>51.33333333333333</ele><time>2026-05-01T08:55:52.727Z</time></trkpt><trkpt lat="43.5907633" lon="10.97201"><ele>52.0</ele><time>2026-05-01T08:55:53.729Z</time></trkpt><trkpt lat="43.5905767" lon="10.97197"><ele>52.0</ele><time>2026-05-01T08:55:54.729Z</time></trkpt><trkpt lat="43.5904" lon="10.9719267"><ele>52.0</ele><time>2026-05-01T08:55:55.726Z</time></trkpt><trkpt lat="43.5902383" lon="10.97188"><ele>52.0</ele><time>2026-05-01T08:55:56.728Z</time></trkpt><trkpt lat="43.59009" lon="10.9718217"><ele>52.0</ele><time>2026-05-01T08:55:57.728Z</time></trkpt><trkpt lat="43.5899667" lon="10.9717517"><ele>52.0</ele><time>2026-05-01T08:55:58.727Z</time></trkpt><trkpt lat="43.5898683" lon="10.971645"><ele>52.0</ele><time>2026-05-01T08:55:59.729Z</time></trkpt><trkpt lat="43.5897867" lon="10.9715333"><ele>52.0</ele><time>2026-05-01T08:56:00.726Z</time></trkpt><trkpt lat="43.5897117" lon="10.971415"><ele>51.8</ele><time>2026-05-01T08:56:01.726Z</time></trkpt><trkpt lat="43.589625" lon="10.9713233"><ele>51.6</ele><time>2026-05-01T08:56:02.726Z</time></trkpt><trkpt lat="43.5895217" lon="10.971275"><ele>51.4</ele><time>2026-05-01T08:56:03.726Z</time></trkpt><trkpt lat="43.58942" lon="10.9712517"><ele>51.199999999999996</ele><time>2026-05-01T08:56:04.727Z</time></trkpt><trkpt lat="43.589305" lon="10.971275"><ele>51.0</ele><time>2026-05-01T08:56:05.728Z</time></trkpt><trkpt lat="43.589185" lon="10.9712833"><ele>51.5</ele><time>2026-05-01T08:56:06.726Z</time></trkpt><trkpt lat="43.5890567" lon="10.971255"><ele>52.0</ele><time>2026-05-01T08:56:07.727Z</time></trkpt><trkpt lat="43.5889267" lon="10.971185"><ele>52.5</ele><time>2026-05-01T08:56:08.727Z</time></trkpt><trkpt lat="43.5888" lon="10.9710833"><ele>53.0</ele><time>2026-05-01T08:56:09.727Z</time></trkpt><trkpt lat="43.5886733" lon="10.97097"><ele>53.333333333333336</ele><time>2026-05-01T08:56:10.727Z</time></trkpt><trkpt lat="43.588545" lon="10.9708433"><ele>53.66666666666667</ele><time>2026-05-01T08:56:11.728Z</time></trkpt><trkpt lat="43.588415" lon="10.9707167"><ele>54.0</ele><time>2026-05-01T08:56:12.729Z</time></trkpt><trkpt lat="43.5882833" lon="10.9705783"><ele>54.0</ele><time>2026-05-01T08:56:13.728Z</time></trkpt><trkpt lat="43.58815" lon="10.9704383"><ele>54.0</ele><time>2026-05-01T08:56:14.728Z</time></trkpt><trkpt lat="43.588015" lon="10.9702933"><ele>54.0</ele><time>2026-05-01T08:56:15.727Z</time></trkpt><trkpt lat="43.5878783" lon="10.9701433"><ele>55.33333333333333</ele><time>2026-05-01T08:56:16.727Z</time></trkpt><trkpt lat="43.587745" lon="10.9699917"><ele>56.666666666666664</ele><time>2026-05-01T08:56:17.727Z</time></trkpt><trkpt lat="43.5876133" lon="10.9698417"><ele>58.0</ele><time>2026-05-01T08:56:18.728Z</time></trkpt><trkpt lat="43.5874817" lon="10.9696967"><ele>58.0</ele><time>2026-05-01T08:56:19.727Z</time></trkpt><trkpt lat="43.5873517" lon="10.9695583"><ele>58.0</ele><time>2026-05-01T08:56:20.728Z</time></trkpt><trkpt lat="43.587225" lon="10.9694233"><ele>58.0</ele><time>2026-05-01T08:56:21.727Z</time></trkpt><trkpt lat="43.5871017" lon="10.96929"><ele>57.0</ele><time>2026-05-01T08:56:22.727Z</time></trkpt><trkpt lat="43.586985" lon="10.969165"><ele>56.0</ele><time>2026-05-01T08:56:23.726Z</time></trkpt><trkpt lat="43.5868767" lon="10.96904"><ele>55.0</ele><time>2026-05-01T08:56:24.728Z</time></trkpt><trkpt lat="43.5867767" lon="10.9689233"><ele>54.0</ele><time>2026-05-01T08:56:25.728Z</time></trkpt><trkpt lat="43.58668" lon="10.9688133"><ele>54.0</ele><time>2026-05-01T08:56:26.726Z</time></trkpt><trkpt lat="43.58659" lon="10.9687183"><ele>54.00000000000001</ele><time>2026-05-01T08:56:27.726Z</time></trkpt><trkpt lat="43.58651" lon="10.9686317"><ele>54.00000000000001</ele><time>2026-05-01T08:56:28.726Z</time></trkpt><trkpt lat="43.586435" lon="10.9685483"><ele>54.0</ele><time>2026-05-01T08:56:29.727Z</time></trkpt><trkpt lat="43.5863683" lon="10.9684567"><ele>54.0</ele><time>2026-05-01T08:56:30.728Z</time></trkpt><trkpt lat="43.5863133" lon="10.9683533"><ele>54.0</ele><time>2026-05-01T08:56:31.728Z</time></trkpt><trkpt lat="43.5862817" lon="10.9682267"><ele>54.00000000000001</ele><time>2026-05-01T08:56:32.726Z</time></trkpt><trkpt lat="43.58627" lon="10.9680983"><ele>54.00000000000001</ele><time>2026-05-01T08:56:33.726Z</time></trkpt><trkpt lat="43.5862883" lon="10.9679567"><ele>54.0</ele><time>2026-05-01T08:56:34.727Z</time></trkpt><trkpt lat="43.586315" lon="10.9678133"><ele>54.0</ele><time>2026-05-01T08:56:35.727Z</time></trkpt><trkpt lat="43.586355" lon="10.9676583"><ele>54.25</ele><time>2026-05-01T08:56:36.726Z</time></trkpt><trkpt lat="43.5864017" lon="10.9674967"><ele>54.5</ele><time>2026-05-01T08:56:37.727Z</time></trkpt><trkpt lat="43.5864483" lon="10.9673283"><ele>54.75</ele><time>2026-05-01T08:56:38.727Z</time></trkpt><trkpt lat="43.5864967" lon="10.9671583"><ele>55.0</ele><time>2026-05-01T08:56:39.727Z</time></trkpt><trkpt lat="43.5865433" lon="10.9669983"><ele>55.0</ele><time>2026-05-01T08:56:40.729Z</time></trkpt><trkpt lat="43.5865917" lon="10.96684"><ele>55.0</ele><time>2026-05-01T08:56:41.728Z</time></trkpt><trkpt lat="43.5866417" lon="10.96667"><ele>55.0</ele><time>2026-05-01T08:56:42.728Z</time></trkpt><trkpt lat="43.586695" lon="10.9664867"><ele>55.0</ele><time>2026-05-01T08:56:43.727Z</time></trkpt><trkpt lat="43.5867533" lon="10.9662933"><ele>55.0</ele><time>2026-05-01T08:56:44.727Z</time></trkpt><trkpt lat="43.586805" lon="10.9660867"><ele>55.0</ele><time>2026-05-01T08:56:45.728Z</time></trkpt><trkpt lat="43.5868383" lon="10.9658717"><ele>55.0</ele><time>2026-05-01T08:56:46.727Z</time></trkpt><trkpt lat="43.5868583" lon="10.96565"><ele>55.0</ele><time>2026-05-01T08:56:47.728Z</time></trkpt><trkpt lat="43.586875" lon="10.9654317"><ele>55.0</ele><time>2026-05-01T08:56:48.727Z</time></trkpt><trkpt lat="43.5868683" lon="10.96522"><ele>55.0</ele><time>2026-05-01T08:56:49.726Z</time></trkpt><trkpt lat="43.5868467" lon="10.9650133"><ele>55.33333333333333</ele><time>2026-05-01T08:56:50.726Z</time></trkpt><trkpt lat="43.5868133" lon="10.9648"><ele>55.66666666666667</ele><time>2026-05-01T08:56:51.728Z</time></trkpt><trkpt lat="43.58676" lon="10.9646017"><ele>56.0</ele><time>2026-05-01T08:56:52.728Z</time></trkpt><trkpt lat="43.5866967" lon="10.9644033"><ele>56.0</ele><time>2026-05-01T08:56:53.728Z</time></trkpt><trkpt lat="43.5866167" lon="10.9642133"><ele>56.0</ele><time>2026-05-01T08:56:54.728Z</time></trkpt><trkpt lat="43.5865267" lon="10.96403"><ele>56.0</ele><time>2026-05-01T08:56:55.727Z</time></trkpt><trkpt lat="43.58643" lon="10.9638483"><ele>56.333333333333336</ele><time>2026-05-01T08:56:56.729Z</time></trkpt><trkpt lat="43.5863317" lon="10.963675"><ele>56.66666666666667</ele><time>2026-05-01T08:56:57.726Z</time></trkpt><trkpt lat="43.5862317" lon="10.9635083"><ele>57.0</ele><time>2026-05-01T08:56:58.726Z</time></trkpt><trkpt lat="43.586135" lon="10.963335"><ele>57.33333333333333</ele><time>2026-05-01T08:56:59.729Z</time></trkpt><trkpt lat="43.5860367" lon="10.9631517"><ele>57.666666666666664</ele><time>2026-05-01T08:57:00.728Z</time></trkpt><trkpt lat="43.5859333" lon="10.9629767"><ele>58.0</ele><time>2026-05-01T08:57:01.727Z</time></trkpt><trkpt lat="43.5858317" lon="10.962795"><ele>58.0</ele><time>2026-05-01T08:57:02.726Z</time></trkpt><trkpt lat="43.5857317" lon="10.96261"><ele>58.0</ele><time>2026-05-01T08:57:03.727Z</time></trkpt><trkpt lat="43.5856317" lon="10.9624317"><ele>58.0</ele><time>2026-05-01T08:57:04.728Z</time></trkpt><trkpt lat="43.5855317" lon="10.9622633"><ele>58.25</ele><time>2026-05-01T08:57:05.728Z</time></trkpt><trkpt lat="43.585435" lon="10.9621067"><ele>58.5</ele><time>2026-05-01T08:57:06.727Z</time></trkpt><trkpt lat="43.5853417" lon="10.961955"><ele>58.75</ele><time>2026-05-01T08:57:07.729Z</time></trkpt><trkpt lat="43.5852383" lon="10.96182"><ele>59.0</ele><time>2026-05-01T08:57:08.728Z</time></trkpt><trkpt lat="43.585135" lon="10.9616817"><ele>59.333333333333336</ele><time>2026-05-01T08:57:09.727Z</time></trkpt><trkpt lat="43.5850267" lon="10.9615433"><ele>59.66666666666667</ele><time>2026-05-01T08:57:10.728Z</time></trkpt><trkpt lat="43.5849033" lon="10.9614133"><ele>60.0</ele><time>2026-05-01T08:57:11.727Z</time></trkpt><trkpt lat="43.5847683" lon="10.9612867"><ele>60.0</ele><time>2026-05-01T08:57:12.727Z</time></trkpt><trkpt lat="43.5846183" lon="10.9611683"><ele>60.0</ele><time>2026-05-01T08:57:13.729Z</time></trkpt><trkpt lat="43.5844633" lon="10.9610433"><ele>60.0</ele><time>2026-05-01T08:57:14.728Z</time></trkpt><trkpt lat="43.5842917" lon="10.9609083"><ele>61.0</ele><time>2026-05-01T08:57:15.727Z</time></trkpt><trkpt lat="43.5841167" lon="10.9607633"><ele>62.0</ele><time>2026-05-01T08:57:16.729Z</time></trkpt><trkpt lat="43.5839467" lon="10.9606133"><ele>63.0</ele><time>2026-05-01T08:57:17.729Z</time></trkpt><trkpt lat="43.583785" lon="10.9604533"><ele>62.33333333333333</ele><time>2026-05-01T08:57:18.728Z</time></trkpt><trkpt lat="43.5836367" lon="10.960275"><ele>61.666666666666664</ele><time>2026-05-01T08:57:19.727Z</time></trkpt><trkpt lat="43.5834967" lon="10.9600833"><ele>61.0</ele><time>2026-05-01T08:57:20.728Z</time></trkpt><trkpt lat="43.5833717" lon="10.95987"><ele>61.0</ele><time>2026-05-01T08:57:21.727Z</time></trkpt><trkpt lat="43.5832617" lon="10.9596367"><ele>61.0</ele><time>2026-05-01T08:57:22.728Z</time></trkpt><trkpt lat="43.5831733" lon="10.95939"><ele>61.0</ele><time>2026-05-01T08:57:23.728Z</time></trkpt><trkpt lat="43.5830933" lon="10.9591283"><ele>61.33333333333333</ele><time>2026-05-01T08:57:24.727Z</time></trkpt><trkpt lat="43.5830133" lon="10.95885"><ele>61.66666666666667</ele><time>2026-05-01T08:57:25.728Z</time></trkpt><trkpt lat="43.5829283" lon="10.9585667"><ele>62.0</ele><time>2026-05-01T08:57:26.728Z</time></trkpt><trkpt lat="43.5828383" lon="10.9582733"><ele>62.0</ele><time>2026-05-01T08:57:27.728Z</time></trkpt><trkpt lat="43.582745" lon="10.9579767"><ele>62.0</ele><time>2026-05-01T08:57:28.726Z</time></trkpt><trkpt lat="43.582655" lon="10.95768"><ele>63.0</ele><time>2026-05-01T08:57:29.727Z</time></trkpt><trkpt lat="43.5825683" lon="10.9573817"><ele>64.0</ele><time>2026-05-01T08:57:30.727Z</time></trkpt><trkpt lat="43.582485" lon="10.957085"><ele>64.0</ele><time>2026-05-01T08:57:31.726Z</time></trkpt><trkpt lat="43.5824033" lon="10.9567933"><ele>64.0</ele><time>2026-05-01T08:57:32.728Z</time></trkpt><trkpt lat="43.5823233" lon="10.956495"><ele>64.0</ele><time>2026-05-01T08:57:33.728Z</time></trkpt><trkpt lat="43.5822433" lon="10.9561917"><ele>64.0</ele><time>2026-05-01T08:57:34.726Z</time></trkpt><trkpt lat="43.5821583" lon="10.955895"><ele>64.0</ele><time>2026-05-01T08:57:35.726Z</time></trkpt><trkpt lat="43.5820767" lon="10.955615"><ele>64.0</ele><time>2026-05-01T08:57:36.726Z</time></trkpt><trkpt lat="43.582" lon="10.9553483"><ele>64.0</ele><time>2026-05-01T08:57:37.726Z</time></trkpt><trkpt lat="43.5819267" lon="10.955095"><ele>64.0</ele><time>2026-05-01T08:57:38.728Z</time></trkpt><trkpt lat="43.5818533" lon="10.9548483"><ele>64.0</ele><time>2026-05-01T08:57:39.727Z</time></trkpt><trkpt lat="43.58177" lon="10.9546117"><ele>64.0</ele><time>2026-05-01T08:57:40.729Z</time></trkpt><trkpt lat="43.58167" lon="10.9543917"><ele>64.66666666666666</ele><time>2026-05-01T08:57:41.728Z</time></trkpt><trkpt lat="43.5815417" lon="10.954185"><ele>65.33333333333333</ele><time>2026-05-01T08:57:42.727Z</time></trkpt><trkpt lat="43.581385" lon="10.9539967"><ele>66.0</ele><time>2026-05-01T08:57:43.728Z</time></trkpt><trkpt lat="43.5812" lon="10.953825"><ele>68.0</ele><time>2026-05-01T08:57:44.728Z</time></trkpt><trkpt lat="43.5809983" lon="10.953675"><ele>70.0</ele><time>2026-05-01T08:57:45.727Z</time></trkpt><trkpt lat="43.5808017" lon="10.9535317"><ele>70.0</ele><time>2026-05-01T08:57:46.729Z</time></trkpt><trkpt lat="43.5806017" lon="10.9533917"><ele>70.0</ele><time>2026-05-01T08:57:47.727Z</time></trkpt><trkpt lat="43.580405" lon="10.95324"><ele>71.5</ele><time>2026-05-01T08:57:48.727Z</time></trkpt><trkpt lat="43.5802167" lon="10.9530567"><ele>73.0</ele><time>2026-05-01T08:57:49.728Z</time></trkpt><trkpt lat="43.58005" lon="10.952845"><ele>73.0</ele><time>2026-05-01T08:57:50.728Z</time></trkpt><trkpt lat="43.57991" lon="10.9526"><ele>73.0</ele><time>2026-05-01T08:57:51.728Z</time></trkpt><trkpt lat="43.5797883" lon="10.9523333"><ele>76.0</ele><time>2026-05-01T08:57:52.729Z</time></trkpt><trkpt lat="43.5796633" lon="10.952055"><ele>79.0</ele><time>2026-05-01T08:57:53.728Z</time></trkpt><trkpt lat="43.5795333" lon="10.9517833"><ele>85.0</ele><time>2026-05-01T08:57:54.728Z</time></trkpt><trkpt lat="43.579405" lon="10.95152"><ele>91.0</ele><time>2026-05-01T08:57:55.727Z</time></trkpt><trkpt lat="43.5792567" lon="10.9512817"><ele>91.0</ele><time>2026-05-01T08:57:56.727Z</time></trkpt><trkpt lat="43.579095" lon="10.9510717"><ele>91.0</ele><time>2026-05-01T08:57:57.727Z</time></trkpt><trkpt lat="43.578905" lon="10.9508983"><ele>91.5</ele><time>2026-05-01T08:57:58.727Z</time></trkpt><trkpt lat="43.5787067" lon="10.9507483"><ele>92.0</ele><time>2026-05-01T08:57:59.728Z</time></trkpt><trkpt lat="43.578505" lon="10.9506083"><ele>89.33333333333334</ele><time>2026-05-01T08:58:00.727Z</time></trkpt><trkpt lat="43.5783017" lon="10.95047"><ele>86.66666666666667</ele><time>2026-05-01T08:58:01.729Z</time></trkpt><trkpt lat="43.57811" lon="10.9503267"><ele>84.0</ele><time>2026-05-01T08:58:02.728Z</time></trkpt><trkpt lat="43.5779267" lon="10.9501733"><ele>82.66666666666667</ele><time>2026-05-01T08:58:03.727Z</time></trkpt><trkpt lat="43.577765" lon="10.9499867"><ele>81.33333333333334</ele><time>2026-05-01T08:58:04.729Z</time></trkpt><trkpt lat="43.5776267" lon="10.9497683"><ele>80.0</ele><time>2026-05-01T08:58:05.727Z</time></trkpt><trkpt lat="43.5775083" lon="10.9495233"><ele>80.0</ele><time>2026-05-01T08:58:06.727Z</time></trkpt><trkpt lat="43.577405" lon="10.9492583"><ele>80.0</ele><time>2026-05-01T08:58:07.729Z</time></trkpt><trkpt lat="43.57732" lon="10.94898"><ele>80.0</ele><time>2026-05-01T08:58:08.728Z</time></trkpt><trkpt lat="43.5772333" lon="10.948695"><ele>82.0</ele><time>2026-05-01T08:58:09.728Z</time></trkpt><trkpt lat="43.5771417" lon="10.9484117"><ele>84.0</ele><time>2026-05-01T08:58:10.727Z</time></trkpt><trkpt lat="43.5770467" lon="10.94813"><ele>82.0</ele><time>2026-05-01T08:58:11.729Z</time></trkpt><trkpt lat="43.57694" lon="10.9478517"><ele>80.0</ele><time>2026-05-01T08:58:12.727Z</time></trkpt><trkpt lat="43.5768167" lon="10.9475917"><ele>80.66666666666667</ele><time>2026-05-01T08:58:13.727Z</time></trkpt><trkpt lat="43.5766767" lon="10.947355"><ele>81.33333333333333</ele><time>2026-05-01T08:58:14.728Z</time></trkpt><trkpt lat="43.576525" lon="10.9471267"><ele>82.0</ele><time>2026-05-01T08:58:15.727Z</time></trkpt><trkpt lat="43.5763683" lon="10.946915"><ele>83.0</ele><time>2026-05-01T08:58:16.727Z</time></trkpt><trkpt lat="43.5762033" lon="10.9467083"><ele>84.0</ele><time>2026-05-01T08:58:17.728Z</time></trkpt><trkpt lat="43.57604" lon="10.9465"><ele>85.0</ele><time>2026-05-01T08:58:18.728Z</time></trkpt><trkpt lat="43.5758767" lon="10.9462867"><ele>85.0</ele><time>2026-05-01T08:58:19.728Z</time></trkpt><trkpt lat="43.5757233" lon="10.94607"><ele>85.0</ele><time>2026-05-01T08:58:20.728Z</time></trkpt><trkpt lat="43.5755733" lon="10.9458583"><ele>85.0</ele><time>2026-05-01T08:58:21.729Z</time></trkpt><trkpt lat="43.5754283" lon="10.9456533"><ele>85.0</ele><time>2026-05-01T08:58:22.727Z</time></trkpt><trkpt lat="43.5752867" lon="10.9454667"><ele>85.0</ele><time>2026-05-01T08:58:23.726Z</time></trkpt><trkpt lat="43.5751467" lon="10.9452883"><ele>85.0</ele><time>2026-05-01T08:58:24.728Z</time></trkpt><trkpt lat="43.5749967" lon="10.94513"><ele>86.66666666666666</ele><time>2026-05-01T08:58:25.727Z</time></trkpt><trkpt lat="43.5748467" lon="10.944985"><ele>88.33333333333333</ele><time>2026-05-01T08:58:26.729Z</time></trkpt><trkpt lat="43.5747" lon="10.9448583"><ele>90.0</ele><time>2026-05-01T08:58:27.728Z</time></trkpt><trkpt lat="43.57456" lon="10.9447383"><ele>89.0</ele><time>2026-05-01T08:58:28.729Z</time></trkpt><trkpt lat="43.5744267" lon="10.9446033"><ele>88.0</ele><time>2026-05-01T08:58:29.726Z</time></trkpt><trkpt lat="43.5742983" lon="10.9444533"><ele>87.0</ele><time>2026-05-01T08:58:30.727Z</time></trkpt><trkpt lat="43.5741867" lon="10.9442833"><ele>88.66666666666667</ele><time>2026-05-01T08:58:31.728Z</time></trkpt><trkpt lat="43.574085" lon="10.944115"><ele>90.33333333333334</ele><time>2026-05-01T08:58:32.728Z</time></trkpt><trkpt lat="43.5740017" lon="10.94394"><ele>92.0</ele><time>2026-05-01T08:58:33.726Z</time></trkpt><trkpt lat="43.573935" lon="10.94377"><ele>92.0</ele><time>2026-05-01T08:58:34.726Z</time></trkpt><trkpt lat="43.5738917" lon="10.943595"><ele>92.0</ele><time>2026-05-01T08:58:35.726Z</time></trkpt><trkpt lat="43.5738467" lon="10.9434017"><ele>92.0</ele><time>2026-05-01T08:58:36.726Z</time></trkpt><trkpt lat="43.5738017" lon="10.9432"><ele>92.0</ele><time>2026-05-01T08:58:37.726Z</time></trkpt><trkpt lat="43.57376" lon="10.9429917"><ele>92.75</ele><time>2026-05-01T08:58:38.725Z</time></trkpt><trkpt lat="43.57371" lon="10.9428133"><ele>93.5</ele><time>2026-05-01T08:58:39.726Z</time></trkpt><trkpt lat="43.5736567" lon="10.942655"><ele>94.25</ele><time>2026-05-01T08:58:40.725Z</time></trkpt><trkpt lat="43.5735967" lon="10.9425133"><ele>95.0</ele><time>2026-05-01T08:58:41.725Z</time></trkpt><trkpt lat="43.5735167" lon="10.9423833"><ele>98.0</ele><time>2026-05-01T08:58:42.727Z</time></trkpt><trkpt lat="43.573415" lon="10.9422583"><ele>101.0</ele><time>2026-05-01T08:58:43.726Z</time></trkpt><trkpt lat="43.5732867" lon="10.94213"><ele>104.0</ele><time>2026-05-01T08:58:44.727Z</time></trkpt><trkpt lat="43.5731283" lon="10.9419667"><ele>104.0</ele><time>2026-05-01T08:58:45.728Z</time></trkpt><trkpt lat="43.5729483" lon="10.94179"><ele>104.0</ele><time>2026-05-01T08:58:46.729Z</time></trkpt><trkpt lat="43.5727633" lon="10.94161"><ele>104.0</ele><time>2026-05-01T08:58:47.729Z</time></trkpt><trkpt lat="43.5725867" lon="10.9414383"><ele>107.33333333333333</ele><time>2026-05-01T08:58:48.728Z</time></trkpt><trkpt lat="43.572425" lon="10.9412717"><ele>110.66666666666666</ele><time>2026-05-01T08:58:49.726Z</time></trkpt><trkpt lat="43.5722767" lon="10.9411233"><ele>114.0</ele><time>2026-05-01T08:58:50.728Z</time></trkpt><trkpt lat="43.5721467" lon="10.9409917"><ele>116.0</ele><time>2026-05-01T08:58:51.727Z</time></trkpt><trkpt lat="43.57203" lon="10.9408683"><ele>118.0</ele><time>2026-05-01T08:58:52.727Z</time></trkpt><trkpt lat="43.5719217" lon="10.9407583"><ele>120.0</ele><time>2026-05-01T08:58:53.727Z</time></trkpt><trkpt lat="43.571825" lon="10.9406433"><ele>122.0</ele><time>2026-05-01T08:58:54.726Z</time></trkpt><trkpt lat="43.5717333" lon="10.9405167"><ele>122.0</ele><time>2026-05-01T08:58:55.727Z</time></trkpt><trkpt lat="43.5716483" lon="10.9403867"><ele>122.0</ele><time>2026-05-01T08:58:56.728Z</time></trkpt><trkpt lat="43.5715683" lon="10.9402533"><ele>122.0</ele><time>2026-05-01T08:58:57.728Z</time></trkpt><trkpt lat="43.5714983" lon="10.9401133"><ele>122.0</ele><time>2026-05-01T08:58:58.726Z</time></trkpt><trkpt lat="43.5714417" lon="10.9399683"><ele>125.25</ele><time>2026-05-01T08:58:59.729Z</time></trkpt><trkpt lat="43.5713917" lon="10.9398133"><ele>128.5</ele><time>2026-05-01T08:59:00.728Z</time></trkpt><trkpt lat="43.57135" lon="10.9396567"><ele>131.75</ele><time>2026-05-01T08:59:01.726Z</time></trkpt><trkpt lat="43.571305" lon="10.9395033"><ele>135.0</ele><time>2026-05-01T08:59:02.73Z</time></trkpt><trkpt lat="43.5712533" lon="10.9393517"><ele>135.25</ele><time>2026-05-01T08:59:03.726Z</time></trkpt><trkpt lat="43.5711967" lon="10.9392117"><ele>135.5</ele><time>2026-05-01T08:59:04.727Z</time></trkpt><trkpt lat="43.5711333" lon="10.939085"><ele>135.75</ele><time>2026-05-01T08:59:05.726Z</time></trkpt><trkpt lat="43.5710567" lon="10.938965"><ele>136.0</ele><time>2026-05-01T08:59:06.726Z</time></trkpt><trkpt lat="43.5709767" lon="10.9388517"><ele>136.0</ele><time>2026-05-01T08:59:07.728Z</time></trkpt><trkpt lat="43.570875" lon="10.9387383"><ele>136.0</ele><time>2026-05-01T08:59:08.729Z</time></trkpt><trkpt lat="43.5707417" lon="10.93863"><ele>136.0</ele><time>2026-05-01T08:59:09.729Z</time></trkpt><trkpt lat="43.5705767" lon="10.93853"><ele>136.0</ele><time>2026-05-01T08:59:10.728Z</time></trkpt><trkpt lat="43.5703983" lon="10.938415"><ele>136.0</ele><time>2026-05-01T08:59:11.727Z</time></trkpt><trkpt lat="43.570215" lon="10.9382883"><ele>136.0</ele><time>2026-05-01T08:59:12.728Z</time></trkpt><trkpt lat="43.5700267" lon="10.9381483"><ele>137.33333333333334</ele><time>2026-05-01T08:59:13.728Z</time></trkpt><trkpt lat="43.5698417" lon="10.9380167"><ele>138.66666666666666</ele><time>2026-05-01T08:59:14.728Z</time></trkpt><trkpt lat="43.5696517" lon="10.9378833"><ele>140.0</ele><time>2026-05-01T08:59:15.727Z</time></trkpt><trkpt lat="43.5694567" lon="10.93776"><ele>142.33333333333331</ele><time>2026-05-01T08:59:16.728Z</time></trkpt><trkpt lat="43.569265" lon="10.937635"><ele>144.66666666666666</ele><time>2026-05-01T08:59:17.727Z</time></trkpt><trkpt lat="43.569075" lon="10.9375367"><ele>147.0</ele><time>2026-05-01T08:59:18.727Z</time></trkpt><trkpt lat="43.56889" lon="10.9374617"><ele>149.33333333333334</ele><time>2026-05-01T08:59:19.727Z</time></trkpt><trkpt lat="43.568715" lon="10.93746"><ele>151.66666666666669</ele><time>2026-05-01T08:59:20.728Z</time></trkpt><trkpt lat="43.568535" lon="10.937505"><ele>154.0</ele><time>2026-05-01T08:59:21.727Z</time></trkpt><trkpt lat="43.5683583" lon="10.93757"><ele>157.33333333333334</ele><time>2026-05-01T08:59:22.727Z</time></trkpt><trkpt lat="43.56819" lon="10.9377017"><ele>160.66666666666666</ele><time>2026-05-01T08:59:23.727Z</time></trkpt><trkpt lat="43.568025" lon="10.9378633"><ele>164.0</ele><time>2026-05-01T08:59:24.726Z</time></trkpt><trkpt lat="43.56786" lon="10.9380367"><ele>167.0</ele><time>2026-05-01T08:59:25.727Z</time></trkpt><trkpt lat="43.5676817" lon="10.9381983"><ele>170.0</ele><time>2026-05-01T08:59:26.729Z</time></trkpt><trkpt lat="43.5674883" lon="10.9383367"><ele>173.0</ele><time>2026-05-01T08:59:27.727Z</time></trkpt><trkpt lat="43.5672867" lon="10.9384417"><ele>173.0</ele><time>2026-05-01T08:59:28.728Z</time></trkpt><trkpt lat="43.567075" lon="10.938515"><ele>173.0</ele><time>2026-05-01T08:59:29.727Z</time></trkpt><trkpt lat="43.566855" lon="10.93854"><ele>173.0</ele><time>2026-05-01T08:59:30.727Z</time></trkpt><trkpt lat="43.56663" lon="10.9385517"><ele>178.0</ele><time>2026-05-01T08:59:31.727Z</time></trkpt><trkpt lat="43.5664033" lon="10.9385767"><ele>183.0</ele><time>2026-05-01T08:59:32.728Z</time></trkpt><trkpt lat="43.566185" lon="10.9386333"><ele>184.33333333333334</ele><time>2026-05-01T08:59:33.727Z</time></trkpt><trkpt lat="43.5659717" lon="10.9387033"><ele>185.66666666666669</ele><time>2026-05-01T08:59:34.728Z</time></trkpt><trkpt lat="43.5657717" lon="10.9387933"><ele>187.0</ele><time>2026-05-01T08:59:35.728Z</time></trkpt><trkpt lat="43.5655717" lon="10.9388867"><ele>187.0</ele><time>2026-05-01T08:59:36.726Z</time></trkpt><trkpt lat="43.5653683" lon="10.93898"><ele>187.0</ele><time>2026-05-01T08:59:37.728Z</time></trkpt><trkpt lat="43.56516" lon="10.9390717"><ele>187.0</ele><time>2026-05-01T08:59:38.727Z</time></trkpt><trkpt lat="43.5649417" lon="10.939155"><ele>187.0</ele><time>2026-05-01T08:59:39.729Z</time></trkpt><trkpt lat="43.5647217" lon="10.9392317"><ele>187.0</ele><time>2026-05-01T08:59:40.726Z</time></trkpt><trkpt lat="43.5645" lon="10.9392917"><ele>187.0</ele><time>2026-05-01T08:59:41.726Z</time></trkpt><trkpt lat="43.5642783" lon="10.9393383"><ele>187.0</ele><time>2026-05-01T08:59:42.726Z</time></trkpt><trkpt lat="43.5640517" lon="10.9393717"><ele>187.0</ele><time>2026-05-01T08:59:43.726Z</time></trkpt><trkpt lat="43.563825" lon="10.9393933"><ele>187.0</ele><time>2026-05-01T08:59:44.729Z</time></trkpt><trkpt lat="43.5635933" lon="10.939405"><ele>188.0</ele><time>2026-05-01T08:59:45.727Z</time></trkpt><trkpt lat="43.56336" lon="10.9393883"><ele>189.0</ele><time>2026-05-01T08:59:46.728Z</time></trkpt><trkpt lat="43.56313" lon="10.9393717"><ele>189.0</ele><time>2026-05-01T08:59:47.728Z</time></trkpt><trkpt lat="43.5629" lon="10.9393683"><ele>189.0</ele><time>2026-05-01T08:59:48.729Z</time></trkpt><trkpt lat="43.562665" lon="10.9393833"><ele>189.0</ele><time>2026-05-01T08:59:49.729Z</time></trkpt><trkpt lat="43.5624283" lon="10.9394067"><ele>189.0</ele><time>2026-05-01T08:59:50.73Z</time></trkpt><trkpt lat="43.562195" lon="10.9394283"><ele>193.0</ele><time>2026-05-01T08:59:51.727Z</time></trkpt><trkpt lat="43.5619633" lon="10.9394567"><ele>197.0</ele><time>2026-05-01T08:59:52.727Z</time></trkpt><trkpt lat="43.5617333" lon="10.939475"><ele>197.0</ele><time>2026-05-01T08:59:53.727Z</time></trkpt><trkpt lat="43.5615067" lon="10.9394717"><ele>197.0</ele><time>2026-05-01T08:59:54.728Z</time></trkpt><trkpt lat="43.56128" lon="10.9394433"><ele>201.5</ele><time>2026-05-01T08:59:55.728Z</time></trkpt><trkpt lat="43.5610583" lon="10.939375"><ele>206.0</ele><time>2026-05-01T08:59:56.728Z</time></trkpt><trkpt lat="43.5608417" lon="10.939285"><ele>209.5</ele><time>2026-05-01T08:59:57.727Z</time></trkpt><trkpt lat="43.560625" lon="10.939185"><ele>213.0</ele><time>2026-05-01T08:59:58.727Z</time></trkpt><trkpt lat="43.56041" lon="10.9390867"><ele>213.5</ele><time>2026-05-01T08:59:59.728Z</time></trkpt><trkpt lat="43.5601883" lon="10.9389933"><ele>214.0</ele><time>2026-05-01T09:00:00.727Z</time></trkpt><trkpt lat="43.5599617" lon="10.9389133"><ele>214.0</ele><time>2026-05-01T09:00:01.727Z</time></trkpt><trkpt lat="43.55973" lon="10.9388567"><ele>214.0</ele><time>2026-05-01T09:00:02.728Z</time></trkpt><trkpt lat="43.5594967" lon="10.9388183"><ele>217.5</ele><time>2026-05-01T09:00:03.726Z</time></trkpt><trkpt lat="43.5592583" lon="10.938805"><ele>221.0</ele><time>2026-05-01T09:00:04.727Z</time></trkpt><trkpt lat="43.5590183" lon="10.938815"><ele>221.0</ele><time>2026-05-01T09:00:05.727Z</time></trkpt><trkpt lat="43.55878" lon="10.9388333"><ele>221.0</ele><time>2026-05-01T09:00:06.726Z</time></trkpt><trkpt lat="43.5585367" lon="10.938855"><ele>223.5</ele><time>2026-05-01T09:00:07.728Z</time></trkpt><trkpt lat="43.558295" lon="10.938865"><ele>226.0</ele><time>2026-05-01T09:00:08.728Z</time></trkpt><trkpt lat="43.55806" lon="10.93886"><ele>227.0</ele><time>2026-05-01T09:00:09.727Z</time></trkpt><trkpt lat="43.5578283" lon="10.93882"><ele>228.0</ele><time>2026-05-01T09:00:10.729Z</time></trkpt><trkpt lat="43.5576033" lon="10.938735"><ele>228.0</ele><time>2026-05-01T09:00:11.727Z</time></trkpt><trkpt lat="43.5573983" lon="10.938605"><ele>228.0</ele><time>2026-05-01T09:00:12.727Z</time></trkpt><trkpt lat="43.5572083" lon="10.9384367"><ele>228.66666666666669</ele><time>2026-05-01T09:00:13.728Z</time></trkpt><trkpt lat="43.557045" lon="10.9382367"><ele>229.33333333333334</ele><time>2026-05-01T09:00:14.727Z</time></trkpt><trkpt lat="43.5569" lon="10.9380067"><ele>230.0</ele><time>2026-05-01T09:00:15.728Z</time></trkpt><trkpt lat="43.5567867" lon="10.9377567"><ele>230.33333333333334</ele><time>2026-05-01T09:00:16.727Z</time></trkpt><trkpt lat="43.5566933" lon="10.9375017"><ele>230.66666666666669</ele><time>2026-05-01T09:00:17.727Z</time></trkpt><trkpt lat="43.5566283" lon="10.9372267"><ele>231.0</ele><time>2026-05-01T09:00:18.728Z</time></trkpt><trkpt lat="43.55659" lon="10.9369317"><ele>231.0</ele><time>2026-05-01T09:00:19.727Z</time></trkpt><trkpt lat="43.556565" lon="10.9366283"><ele>231.0</ele><time>2026-05-01T09:00:20.729Z</time></trkpt><trkpt lat="43.5565317" lon="10.9363233"><ele>231.0</ele><time>2026-05-01T09:00:21.728Z</time></trkpt><trkpt lat="43.5564767" lon="10.93602"><ele>231.66666666666669</ele><time>2026-05-01T09:00:22.726Z</time></trkpt><trkpt lat="43.5563867" lon="10.93574"><ele>232.33333333333334</ele><time>2026-05-01T09:00:23.726Z</time></trkpt><trkpt lat="43.5562667" lon="10.9354883"><ele>233.0</ele><time>2026-05-01T09:00:24.727Z</time></trkpt><trkpt lat="43.5561233" lon="10.9352617"><ele>235.33333333333334</ele><time>2026-05-01T09:00:25.727Z</time></trkpt><trkpt lat="43.5559583" lon="10.9350717"><ele>237.66666666666669</ele><time>2026-05-01T09:00:26.728Z</time></trkpt><trkpt lat="43.5557617" lon="10.934935"><ele>240.0</ele><time>2026-05-01T09:00:27.729Z</time></trkpt><trkpt lat="43.55555" lon="10.93482"><ele>239.5</ele><time>2026-05-01T09:00:28.729Z</time></trkpt><trkpt lat="43.5553217" lon="10.9347617"><ele>239.0</ele><time>2026-05-01T09:00:29.727Z</time></trkpt><trkpt lat="43.5550833" lon="10.9347283"><ele>239.0</ele><time>2026-05-01T09:00:30.726Z</time></trkpt><trkpt lat="43.55484" lon="10.9347217"><ele>239.0</ele><time>2026-05-01T09:00:31.728Z</time></trkpt><trkpt lat="43.5545917" lon="10.93472"><ele>239.0</ele><time>2026-05-01T09:00:32.729Z</time></trkpt><trkpt lat="43.5543467" lon="10.9347167"><ele>239.0</ele><time>2026-05-01T09:00:33.729Z</time></trkpt><trkpt lat="43.554105" lon="10.9347233"><ele>239.0</ele><time>2026-05-01T09:00:34.729Z</time></trkpt><trkpt lat="43.55388" lon="10.9347167"><ele>239.0</ele><time>2026-05-01T09:00:35.727Z</time></trkpt><trkpt lat="43.5536567" lon="10.9347"><ele>239.0</ele><time>2026-05-01T09:00:36.727Z</time></trkpt><trkpt lat="43.55344" lon="10.93465"><ele>239.33333333333334</ele><time>2026-05-01T09:00:37.728Z</time></trkpt><trkpt lat="43.553235" lon="10.9345717"><ele>239.66666666666669</ele><time>2026-05-01T09:00:38.727Z</time></trkpt><trkpt lat="43.553035" lon="10.934475"><ele>240.0</ele><time>2026-05-01T09:00:39.727Z</time></trkpt><trkpt lat="43.5528417" lon="10.9343483"><ele>242.66666666666669</ele><time>2026-05-01T09:00:40.726Z</time></trkpt><trkpt lat="43.5526567" lon="10.9341883"><ele>245.33333333333334</ele><time>2026-05-01T09:00:41.727Z</time></trkpt><trkpt lat="43.5524783" lon="10.9340067"><ele>248.0</ele><time>2026-05-01T09:00:42.728Z</time></trkpt><trkpt lat="43.5523217" lon="10.9338"><ele>248.0</ele><time>2026-05-01T09:00:43.726Z</time></trkpt><trkpt lat="43.5521933" lon="10.9335667"><ele>248.0</ele><time>2026-05-01T09:00:44.728Z</time></trkpt><trkpt lat="43.55209" lon="10.9333217"><ele>248.0</ele><time>2026-05-01T09:00:45.725Z</time></trkpt><trkpt lat="43.5520017" lon="10.9330617"><ele>248.66666666666669</ele><time>2026-05-01T09:00:46.729Z</time></trkpt><trkpt lat="43.551915" lon="10.9327967"><ele>249.33333333333331</ele><time>2026-05-01T09:00:47.726Z</time></trkpt><trkpt lat="43.5518283" lon="10.9325267"><ele>250.0</ele><time>2026-05-01T09:00:48.727Z</time></trkpt><trkpt lat="43.551715" lon="10.9322733"><ele>250.66666666666666</ele><time>2026-05-01T09:00:49.728Z</time></trkpt><trkpt lat="43.5515833" lon="10.9320317"><ele>251.33333333333331</ele><time>2026-05-01T09:00:50.727Z</time></trkpt><trkpt lat="43.5514283" lon="10.9318167"><ele>252.0</ele><time>2026-05-01T09:00:51.729Z</time></trkpt><trkpt lat="43.5512517" lon="10.9316217"><ele>257.0</ele><time>2026-05-01T09:00:52.725Z</time></trkpt><trkpt lat="43.55106" lon="10.9314567"><ele>262.0</ele><time>2026-05-01T09:00:53.727Z</time></trkpt><trkpt lat="43.5508583" lon="10.9313117"><ele>262.0</ele><time>2026-05-01T09:00:54.728Z</time></trkpt><trkpt lat="43.5506533" lon="10.9311833"><ele>262.0</ele><time>2026-05-01T09:00:55.727Z</time></trkpt><trkpt lat="43.5504417" lon="10.9310683"><ele>262.0</ele><time>2026-05-01T09:00:56.728Z</time></trkpt><trkpt lat="43.5502233" lon="10.9309533"><ele>262.0</ele><time>2026-05-01T09:00:57.727Z</time></trkpt><trkpt lat="43.5500033" lon="10.9308367"><ele>265.0</ele><time>2026-05-01T09:00:58.727Z</time></trkpt><trkpt lat="43.5497833" lon="10.9307133"><ele>268.0</ele><time>2026-05-01T09:00:59.728Z</time></trkpt><trkpt lat="43.54957" lon="10.930565"><ele>268.5</ele><time>2026-05-01T09:01:00.727Z</time></trkpt><trkpt lat="43.549365" lon="10.9304"><ele>269.0</ele><time>2026-05-01T09:01:01.727Z</time></trkpt><trkpt lat="43.5491717" lon="10.9302167"><ele>275.0</ele><time>2026-05-01T09:01:02.727Z</time></trkpt><trkpt lat="43.5489883" lon="10.930015"><ele>281.0</ele><time>2026-05-01T09:01:03.729Z</time></trkpt><trkpt lat="43.54882" lon="10.929805"><ele>281.0</ele><time>2026-05-01T09:01:04.726Z</time></trkpt><trkpt lat="43.548665" lon="10.92959"><ele>281.0</ele><time>2026-05-01T09:01:05.727Z</time></trkpt><trkpt lat="43.548505" lon="10.9293933"><ele>281.0</ele><time>2026-05-01T09:01:06.729Z</time></trkpt><trkpt lat="43.5483333" lon="10.9292183"><ele>285.0</ele><time>2026-05-01T09:01:07.728Z</time></trkpt><trkpt lat="43.5481517" lon="10.9290733"><ele>289.0</ele><time>2026-05-01T09:01:08.728Z</time></trkpt><trkpt lat="43.5479583" lon="10.9289667"><ele>293.0</ele><time>2026-05-01T09:01:09.727Z</time></trkpt><trkpt lat="43.547755" lon="10.92889"><ele>294.0</ele><time>2026-05-01T09:01:10.728Z</time></trkpt><trkpt lat="43.5475433" lon="10.928845"><ele>295.0</ele><time>2026-05-01T09:01:11.728Z</time></trkpt><trkpt lat="43.5473317" lon="10.9288167"><ele>296.0</ele><time>2026-05-01T09:01:12.727Z</time></trkpt><trkpt lat="43.5471117" lon="10.9288017"><ele>299.0</ele><time>2026-05-01T09:01:13.729Z</time></trkpt><trkpt lat="43.54689" lon="10.9287933"><ele>302.0</ele><time>2026-05-01T09:01:14.729Z</time></trkpt><trkpt lat="43.5466617" lon="10.9287833"><ele>302.0</ele><time>2026-05-01T09:01:15.726Z</time></trkpt><trkpt lat="43.546435" lon="10.9287683"><ele>302.0</ele><time>2026-05-01T09:01:16.729Z</time></trkpt><trkpt lat="43.5462033" lon="10.928755"><ele>306.0</ele><time>2026-05-01T09:01:17.728Z</time></trkpt><trkpt lat="43.5459733" lon="10.928745"><ele>310.0</ele><time>2026-05-01T09:01:18.729Z</time></trkpt><trkpt lat="43.545745" lon="10.92874"><ele>310.0</ele><time>2026-05-01T09:01:19.726Z</time></trkpt><trkpt lat="43.5455183" lon="10.9287233"><ele>310.0</ele><time>2026-05-01T09:01:20.728Z</time></trkpt><trkpt lat="43.5452867" lon="10.9287133"><ele>312.0</ele><time>2026-05-01T09:01:21.727Z</time></trkpt><trkpt lat="43.5450617" lon="10.9286783"><ele>314.0</ele><time>2026-05-01T09:01:22.728Z</time></trkpt><trkpt lat="43.5448367" lon="10.9286133"><ele>314.0</ele><time>2026-05-01T09:01:23.728Z</time></trkpt><trkpt lat="43.5446133" lon="10.9285267"><ele>314.0</ele><time>2026-05-01T09:01:24.726Z</time></trkpt><trkpt lat="43.544405" lon="10.92842"><ele>319.0</ele><time>2026-05-01T09:01:25.729Z</time></trkpt><trkpt lat="43.5441967" lon="10.9283017"><ele>324.0</ele><time>2026-05-01T09:01:26.729Z</time></trkpt><trkpt lat="43.543995" lon="10.9281717"><ele>329.0</ele><time>2026-05-01T09:01:27.727Z</time></trkpt><trkpt lat="43.5437983" lon="10.9280517"><ele>331.0</ele><time>2026-05-01T09:01:28.727Z</time></trkpt><trkpt lat="43.5436017" lon="10.92793"><ele>333.0</ele><time>2026-05-01T09:01:29.728Z</time></trkpt><trkpt lat="43.5434083" lon="10.9278083"><ele>335.0</ele><time>2026-05-01T09:01:30.727Z</time></trkpt><trkpt lat="43.5432317" lon="10.9276917"><ele>335.0</ele><time>2026-05-01T09:01:31.728Z</time></trkpt><trkpt lat="43.5430667" lon="10.9275817"><ele>335.0</ele><time>2026-05-01T09:01:32.729Z</time></trkpt><trkpt lat="43.5429167" lon="10.9274783"><ele>335.0</ele><time>2026-05-01T09:01:33.726Z</time></trkpt><trkpt lat="43.542775" lon="10.9273867"><ele>337.33333333333337</ele><time>2026-05-01T09:01:34.728Z</time></trkpt><trkpt lat="43.54263" lon="10.92732"><ele>339.6666666666667</ele><time>2026-05-01T09:01:35.727Z</time></trkpt><trkpt lat="43.5424767" lon="10.9272733"><ele>342.0</ele><time>2026-05-01T09:01:36.727Z</time></trkpt><trkpt lat="43.5423133" lon="10.9272567"><ele>342.0</ele><time>2026-05-01T09:01:37.727Z</time></trkpt><trkpt lat="43.5421417" lon="10.9272483"><ele>342.0</ele><time>2026-05-01T09:01:38.728Z</time></trkpt><trkpt lat="43.5419683" lon="10.9272417"><ele>342.0</ele><time>2026-05-01T09:01:39.727Z</time></trkpt><trkpt lat="43.5417933" lon="10.9272383"><ele>344.3333333333333</ele><time>2026-05-01T09:01:40.73Z</time></trkpt><trkpt lat="43.5416233" lon="10.9272417"><ele>346.66666666666663</ele><time>2026-05-01T09:01:41.728Z</time></trkpt><trkpt lat="43.54145" lon="10.9272383"><ele>349.0</ele><time>2026-05-01T09:01:42.728Z</time></trkpt><trkpt lat="43.5412767" lon="10.9272333"><ele>351.66666666666663</ele><time>2026-05-01T09:01:43.727Z</time></trkpt><trkpt lat="43.54111" lon="10.9272283"><ele>354.3333333333333</ele><time>2026-05-01T09:01:44.73Z</time></trkpt><trkpt lat="43.5409533" lon="10.92723"><ele>357.0</ele><time>2026-05-01T09:01:45.729Z</time></trkpt><trkpt lat="43.5408117" lon="10.9272133"><ele>357.0</ele><time>2026-05-01T09:01:46.728Z</time></trkpt><trkpt lat="43.5406683" lon="10.9271617"><ele>357.0</ele><time>2026-05-01T09:01:47.728Z</time></trkpt><trkpt lat="43.5405283" lon="10.9270817"><ele>357.0</ele><time>2026-05-01T09:01:48.728Z</time></trkpt><trkpt lat="43.540385" lon="10.92698"><ele>359.3333333333333</ele><time>2026-05-01T09:01:49.727Z</time></trkpt><trkpt lat="43.540235" lon="10.9268667"><ele>361.66666666666663</ele><time>2026-05-01T09:01:50.729Z</time></trkpt><trkpt lat="43.540075" lon="10.9267567"><ele>364.0</ele><time>2026-05-01T09:01:51.727Z</time></trkpt><trkpt lat="43.5399167" lon="10.9266383"><ele>364.3333333333333</ele><time>2026-05-01T09:01:52.726Z</time></trkpt><trkpt lat="43.5397533" lon="10.9265117"><ele>364.6666666666667</ele><time>2026-05-01T09:01:53.727Z</time></trkpt><trkpt lat="43.5395867" lon="10.926385"><ele>365.0</ele><time>2026-05-01T09:01:54.728Z</time></trkpt><trkpt lat="43.5394133" lon="10.9262517"><ele>369.33333333333337</ele><time>2026-05-01T09:01:55.727Z</time></trkpt><trkpt lat="43.5392433" lon="10.9261267"><ele>373.6666666666667</ele><time>2026-05-01T09:01:56.727Z</time></trkpt><trkpt lat="43.53906" lon="10.9260133"><ele>378.0</ele><time>2026-05-01T09:01:57.728Z</time></trkpt><trkpt lat="43.538875" lon="10.925905"><ele>379.3333333333333</ele><time>2026-05-01T09:01:58.725Z</time></trkpt><trkpt lat="43.5386867" lon="10.9257933"><ele>380.66666666666663</ele><time>2026-05-01T09:01:59.728Z</time></trkpt><trkpt lat="43.5385" lon="10.92567"><ele>382.0</ele><time>2026-05-01T09:02:00.729Z</time></trkpt><trkpt lat="43.5383217" lon="10.925535"><ele>382.0</ele><time>2026-05-01T09:02:01.727Z</time></trkpt><trkpt lat="43.5381417" lon="10.9253833"><ele>382.0</ele><time>2026-05-01T09:02:02.728Z</time></trkpt><trkpt lat="43.537975" lon="10.925235"><ele>382.0</ele><time>2026-05-01T09:02:03.727Z</time></trkpt><trkpt lat="43.5378017" lon="10.925075"><ele>385.0</ele><time>2026-05-01T09:02:04.728Z</time></trkpt><trkpt lat="43.5376217" lon="10.92492"><ele>388.0</ele><time>2026-05-01T09:02:05.728Z</time></trkpt><trkpt lat="43.5374417" lon="10.9247633"><ele>391.0</ele><time>2026-05-01T09:02:06.729Z</time></trkpt><trkpt lat="43.5372633" lon="10.92461"><ele>391.0</ele><time>2026-05-01T09:02:07.727Z</time></trkpt><trkpt lat="43.5370933" lon="10.9244667"><ele>391.0</ele><time>2026-05-01T09:02:08.729Z</time></trkpt><trkpt lat="43.5369217" lon="10.92432"><ele>391.0</ele><time>2026-05-01T09:02:09.727Z</time></trkpt><trkpt lat="43.5367467" lon="10.9241817"><ele>393.33333333333337</ele><time>2026-05-01T09:02:10.728Z</time></trkpt><trkpt lat="43.5365683" lon="10.92406"><ele>395.66666666666663</ele><time>2026-05-01T09:02:11.729Z</time></trkpt><trkpt lat="43.5363783" lon="10.9239617"><ele>398.0</ele><time>2026-05-01T09:02:12.728Z</time></trkpt><trkpt lat="43.536185" lon="10.9238867"><ele>401.0</ele><time>2026-05-01T09:02:13.727Z</time></trkpt><trkpt lat="43.5359917" lon="10.9238433"><ele>404.0</ele><time>2026-05-01T09:02:14.728Z</time></trkpt><trkpt lat="43.5358" lon="10.92383"><ele>407.0</ele><time>2026-05-01T09:02:15.728Z</time></trkpt><trkpt lat="43.5356" lon="10.9238417"><ele>407.0</ele><time>2026-05-01T09:02:16.727Z</time></trkpt><trkpt lat="43.5354017" lon="10.9238667"><ele>407.0</ele><time>2026-05-01T09:02:17.728Z</time></trkpt><trkpt lat="43.5352" lon="10.9238933"><ele>407.0</ele><time>2026-05-01T09:02:18.729Z</time></trkpt><trkpt lat="43.535" lon="10.9239133"><ele>409.0</ele><time>2026-05-01T09:02:19.728Z</time></trkpt><trkpt lat="43.5348" lon="10.9239317"><ele>411.0</ele><time>2026-05-01T09:02:20.729Z</time></trkpt><trkpt lat="43.5346017" lon="10.9239517"><ele>413.0</ele><time>2026-05-01T09:02:21.728Z</time></trkpt><trkpt lat="43.5344017" lon="10.9239733"><ele>415.3333333333333</ele><time>2026-05-01T09:02:22.727Z</time></trkpt><trkpt lat="43.5342" lon="10.9239883"><ele>417.66666666666663</ele><time>2026-05-01T09:02:23.729Z</time></trkpt><trkpt lat="43.5339983" lon="10.9240067"><ele>420.0</ele><time>2026-05-01T09:02:24.728Z</time></trkpt><trkpt lat="43.533795" lon="10.9240267"><ele>423.0</ele><time>2026-05-01T09:02:25.727Z</time></trkpt><trkpt lat="43.5335933" lon="10.9240517"><ele>426.0</ele><time>2026-05-01T09:02:26.728Z</time></trkpt><trkpt lat="43.5333933" lon="10.924075"><ele>429.0</ele><time>2026-05-01T09:02:27.727Z</time></trkpt><trkpt lat="43.5332017" lon="10.9240933"><ele>429.0</ele><time>2026-05-01T09:02:28.727Z</time></trkpt><trkpt lat="43.53302" lon="10.92409"><ele>429.0</ele><time>2026-05-01T09:02:29.727Z</time></trkpt><trkpt lat="43.5328533" lon="10.9240717"><ele>429.0</ele><time>2026-05-01T09:02:30.728Z</time></trkpt><trkpt lat="43.5327" lon="10.9240317"><ele>431.25</ele><time>2026-05-01T09:02:31.727Z</time></trkpt><trkpt lat="43.5325483" lon="10.9239817"><ele>433.5</ele><time>2026-05-01T09:02:32.728Z</time></trkpt><trkpt lat="43.5324033" lon="10.9239517"><ele>435.75</ele><time>2026-05-01T09:02:33.729Z</time></trkpt><trkpt lat="43.5322617" lon="10.923955"><ele>438.0</ele><time>2026-05-01T09:02:34.728Z</time></trkpt><trkpt lat="43.5321217" lon="10.9240117"><ele>438.25</ele><time>2026-05-01T09:02:35.726Z</time></trkpt><trkpt lat="43.5320017" lon="10.9241067"><ele>438.5</ele><time>2026-05-01T09:02:36.728Z</time></trkpt><trkpt lat="43.5318917" lon="10.9242133"><ele>438.75</ele><time>2026-05-01T09:02:37.727Z</time></trkpt><trkpt lat="43.5317867" lon="10.924295"><ele>439.0</ele><time>2026-05-01T09:02:38.73Z</time></trkpt><trkpt lat="43.5316667" lon="10.9243333"><ele>439.0</ele><time>2026-05-01T09:02:39.726Z</time></trkpt><trkpt lat="43.53156" lon="10.924315"><ele>439.0</ele><time>2026-05-01T09:02:40.727Z</time></trkpt><trkpt lat="43.5314483" lon="10.9242533"><ele>439.0</ele><time>2026-05-01T09:02:41.729Z</time></trkpt><trkpt lat="43.5313367" lon="10.9242183"><ele>439.0</ele><time>2026-05-01T09:02:42.727Z</time></trkpt><trkpt lat="43.531235" lon="10.92421"><ele>439.0</ele><time>2026-05-01T09:02:43.727Z</time></trkpt><trkpt lat="43.5311417" lon="10.92425"><ele>441.50000000000006</ele><time>2026-05-01T09:02:44.729Z</time></trkpt><trkpt lat="43.5310617" lon="10.9242833"><ele>444.0</ele><time>2026-05-01T09:02:45.727Z</time></trkpt><trkpt lat="43.5309767" lon="10.9243467"><ele>446.5</ele><time>2026-05-01T09:02:46.728Z</time></trkpt><trkpt lat="43.530905" lon="10.9244283"><ele>449.0</ele><time>2026-05-01T09:02:47.727Z</time></trkpt><trkpt lat="43.5308517" lon="10.924495"><ele>451.50000000000006</ele><time>2026-05-01T09:02:48.726Z</time></trkpt><trkpt lat="43.5308" lon="10.9246"><ele>454.0</ele><time>2026-05-01T09:02:49.727Z</time></trkpt><trkpt lat="43.5308017" lon="10.924705"><ele>454.0</ele><time>2026-05-01T09:02:50.73Z</time></trkpt><trkpt lat="43.5307883" lon="10.92485"><ele>454.0</ele><time>2026-05-01T09:02:51.726Z</time></trkpt><trkpt lat="43.5307933" lon="10.9249883"><ele>454.0</ele><time>2026-05-01T09:02:52.726Z</time></trkpt><trkpt lat="43.5308117" lon="10.925135"><ele>454.0</ele><time>2026-05-01T09:02:53.728Z</time></trkpt><trkpt lat="43.5308183" lon="10.925295"><ele>454.0</ele><time>2026-05-01T09:02:54.727Z</time></trkpt><trkpt lat="43.5308117" lon="10.92546"><ele>454.25</ele><time>2026-05-01T09:02:55.728Z</time></trkpt><trkpt lat="43.5307933" lon="10.9256133"><ele>454.5</ele><time>2026-05-01T09:02:56.728Z</time></trkpt><trkpt lat="43.53078" lon="10.9257517"><ele>454.75</ele><time>2026-05-01T09:02:57.727Z</time></trkpt><trkpt lat="43.530765" lon="10.92591"><ele>455.0</ele><time>2026-05-01T09:02:58.727Z</time></trkpt><trkpt lat="43.530755" lon="10.9260867"><ele>454.5</ele><time>2026-05-01T09:02:59.729Z</time></trkpt><trkpt lat="43.53075" lon="10.9262633"><ele>454.0</ele><time>2026-05-01T09:03:00.727Z</time></trkpt><trkpt lat="43.53076" lon="10.9264533"><ele>453.5</ele><time>2026-05-01T09:03:01.727Z</time></trkpt><trkpt lat="43.5307633" lon="10.9266567"><ele>453.0</ele><time>2026-05-01T09:03:02.727Z</time></trkpt><trkpt lat="43.5307667" lon="10.9268617"><ele>451.5</ele><time>2026-05-01T09:03:03.726Z</time></trkpt><trkpt lat="43.5307783" lon="10.927055"><ele>450.0</ele><time>2026-05-01T09:03:04.726Z</time></trkpt><trkpt lat="43.530765" lon="10.927255"><ele>448.5</ele><time>2026-05-01T09:03:05.729Z</time></trkpt><trkpt lat="43.5307367" lon="10.9274367"><ele>447.0</ele><time>2026-05-01T09:03:06.728Z</time></trkpt><trkpt lat="43.530695" lon="10.927615"><ele>446.0</ele><time>2026-05-01T09:03:07.727Z</time></trkpt><trkpt lat="43.53064" lon="10.9277867"><ele>445.0</ele><time>2026-05-01T09:03:08.728Z</time></trkpt><trkpt lat="43.5305817" lon="10.9279467"><ele>444.0</ele><time>2026-05-01T09:03:09.727Z</time></trkpt><trkpt lat="43.5305217" lon="10.9281067"><ele>443.0</ele><time>2026-05-01T09:03:10.727Z</time></trkpt><trkpt lat="43.5304633" lon="10.9282583"><ele>442.0</ele><time>2026-05-01T09:03:11.728Z</time></trkpt><trkpt lat="43.5304083" lon="10.9284017"><ele>440.99999999999994</ele><time>2026-05-01T09:03:12.726Z</time></trkpt><trkpt lat="43.53035" lon="10.9285417"><ele>439.99999999999994</ele><time>2026-05-01T09:03:13.729Z</time></trkpt><trkpt lat="43.530295" lon="10.928665"><ele>439.0</ele><time>2026-05-01T09:03:14.728Z</time></trkpt><trkpt lat="43.53024" lon="10.9287767"><ele>438.0</ele><time>2026-05-01T09:03:15.728Z</time></trkpt><trkpt lat="43.5301767" lon="10.9288617"><ele>438.0</ele><time>2026-05-01T09:03:16.727Z</time></trkpt><trkpt lat="43.530105" lon="10.9289317"><ele>437.99999999999994</ele><time>2026-05-01T09:03:17.728Z</time></trkpt><trkpt lat="43.5300367" lon="10.9289833"><ele>437.99999999999994</ele><time>2026-05-01T09:03:18.728Z</time></trkpt><trkpt lat="43.5299717" lon="10.9290233"><ele>438.0</ele><time>2026-05-01T09:03:19.727Z</time></trkpt><trkpt lat="43.52986" lon="10.929085"><ele>438.0</ele><time>2026-05-01T09:03:21.727Z</time></trkpt><trkpt lat="43.52977" lon="10.9291383"><ele>438.0</ele><time>2026-05-01T09:03:23.728Z</time></trkpt><trkpt lat="43.5297" lon="10.9291767"><ele>438.0</ele><time>2026-05-01T09:03:27.726Z</time></trkpt><trkpt lat="43.529535" lon="10.9291383"><ele>438.0</ele><time>2026-05-01T09:03:33.727Z</time></trkpt><trkpt lat="43.5294483" lon="10.9290667"><ele>438.0</ele><time>2026-05-01T09:03:34.727Z</time></trkpt><trkpt lat="43.529345" lon="10.928985"><ele>436.75</ele><time>2026-05-01T09:03:35.727Z</time></trkpt><trkpt lat="43.5292283" lon="10.9288967"><ele>435.5</ele><time>2026-05-01T09:03:36.727Z</time></trkpt><trkpt lat="43.5291017" lon="10.9288"><ele>434.25</ele><time>2026-05-01T09:03:37.728Z</time></trkpt><trkpt lat="43.528965" lon="10.9287117"><ele>433.0</ele><time>2026-05-01T09:03:38.729Z</time></trkpt><trkpt lat="43.5288183" lon="10.9286367"><ele>432.0</ele><time>2026-05-01T09:03:39.727Z</time></trkpt><trkpt lat="43.5286583" lon="10.928575"><ele>431.0</ele><time>2026-05-01T09:03:40.726Z</time></trkpt><trkpt lat="43.5284883" lon="10.9285417"><ele>430.0</ele><time>2026-05-01T09:03:41.727Z</time></trkpt><trkpt lat="43.52831" lon="10.928525"><ele>430.0</ele><time>2026-05-01T09:03:42.728Z</time></trkpt><trkpt lat="43.5281383" lon="10.9285217"><ele>430.0</ele><time>2026-05-01T09:03:43.728Z</time></trkpt><trkpt lat="43.5279733" lon="10.92853"><ele>430.0</ele><time>2026-05-01T09:03:44.729Z</time></trkpt><trkpt lat="43.527805" lon="10.9285283"><ele>429.6666666666667</ele><time>2026-05-01T09:03:45.726Z</time></trkpt><trkpt lat="43.5276333" lon="10.9285283"><ele>429.33333333333337</ele><time>2026-05-01T09:03:46.727Z</time></trkpt><trkpt lat="43.5274717" lon="10.9285333"><ele>429.0</ele><time>2026-05-01T09:03:47.729Z</time></trkpt><trkpt lat="43.5273117" lon="10.928545"><ele>429.0</ele><time>2026-05-01T09:03:48.729Z</time></trkpt><trkpt lat="43.5271583" lon="10.9285633"><ele>429.0</ele><time>2026-05-01T09:03:49.727Z</time></trkpt><trkpt lat="43.5270083" lon="10.9285817"><ele>429.0</ele><time>2026-05-01T09:03:50.727Z</time></trkpt><trkpt lat="43.52686" lon="10.9285967"><ele>428.66666666666663</ele><time>2026-05-01T09:03:51.728Z</time></trkpt><trkpt lat="43.5267017" lon="10.92862"><ele>428.3333333333333</ele><time>2026-05-01T09:03:52.727Z</time></trkpt><trkpt lat="43.526535" lon="10.9286433"><ele>428.0</ele><time>2026-05-01T09:03:53.729Z</time></trkpt><trkpt lat="43.5263617" lon="10.92868"><ele>427.3333333333333</ele><time>2026-05-01T09:03:54.728Z</time></trkpt><trkpt lat="43.526185" lon="10.928715"><ele>426.66666666666663</ele><time>2026-05-01T09:03:55.729Z</time></trkpt><trkpt lat="43.5260083" lon="10.9287483"><ele>426.0</ele><time>2026-05-01T09:03:56.729Z</time></trkpt><trkpt lat="43.5258317" lon="10.92878"><ele>426.0</ele><time>2026-05-01T09:03:57.726Z</time></trkpt><trkpt lat="43.5256567" lon="10.928795"><ele>426.0</ele><time>2026-05-01T09:03:58.728Z</time></trkpt><trkpt lat="43.525475" lon="10.928825"><ele>426.0</ele><time>2026-05-01T09:03:59.728Z</time></trkpt><trkpt lat="43.5252933" lon="10.92885"><ele>424.0</ele><time>2026-05-01T09:04:00.729Z</time></trkpt><trkpt lat="43.5251117" lon="10.92887"><ele>422.0</ele><time>2026-05-01T09:04:01.728Z</time></trkpt><trkpt lat="43.5249267" lon="10.9288783"><ele>420.0</ele><time>2026-05-01T09:04:02.728Z</time></trkpt><trkpt lat="43.5247383" lon="10.9288717"><ele>420.33333333333337</ele><time>2026-05-01T09:04:03.728Z</time></trkpt><trkpt lat="43.5245533" lon="10.9288433"><ele>420.6666666666667</ele><time>2026-05-01T09:04:04.728Z</time></trkpt><trkpt lat="43.52438" lon="10.9287983"><ele>421.0</ele><time>2026-05-01T09:04:05.729Z</time></trkpt><trkpt lat="43.5242183" lon="10.9287533"><ele>421.0</ele><time>2026-05-01T09:04:06.727Z</time></trkpt><trkpt lat="43.5240617" lon="10.928715"><ele>421.0</ele><time>2026-05-01T09:04:07.729Z</time></trkpt><trkpt lat="43.523915" lon="10.9286817"><ele>421.0</ele><time>2026-05-01T09:04:08.728Z</time></trkpt><trkpt lat="43.5237683" lon="10.928645"><ele>421.6666666666667</ele><time>2026-05-01T09:04:09.727Z</time></trkpt><trkpt lat="43.5236183" lon="10.9286067"><ele>422.33333333333337</ele><time>2026-05-01T09:04:10.726Z</time></trkpt><trkpt lat="43.5234683" lon="10.9285683"><ele>423.0</ele><time>2026-05-01T09:04:11.728Z</time></trkpt><trkpt lat="43.5233183" lon="10.9285167"><ele>423.0</ele><time>2026-05-01T09:04:12.73Z</time></trkpt><trkpt lat="43.523165" lon="10.9284433"><ele>423.0</ele><time>2026-05-01T09:04:13.728Z</time></trkpt><trkpt lat="43.5230067" lon="10.9283617"><ele>423.0</ele><time>2026-05-01T09:04:14.729Z</time></trkpt><trkpt lat="43.522835" lon="10.9282783"><ele>426.0</ele><time>2026-05-01T09:04:15.728Z</time></trkpt><trkpt lat="43.5226483" lon="10.92818"><ele>429.0</ele><time>2026-05-01T09:04:16.727Z</time></trkpt><trkpt lat="43.5224533" lon="10.9280733"><ele>432.0</ele><time>2026-05-01T09:04:17.729Z</time></trkpt><trkpt lat="43.522255" lon="10.9279633"><ele>431.33333333333337</ele><time>2026-05-01T09:04:18.727Z</time></trkpt><trkpt lat="43.5220517" lon="10.927855"><ele>430.6666666666667</ele><time>2026-05-01T09:04:19.729Z</time></trkpt><trkpt lat="43.5218467" lon="10.9277683"><ele>430.0</ele><time>2026-05-01T09:04:20.728Z</time></trkpt><trkpt lat="43.5216367" lon="10.9277033"><ele>430.0</ele><time>2026-05-01T09:04:21.727Z</time></trkpt><trkpt lat="43.521435" lon="10.9276483"><ele>430.0</ele><time>2026-05-01T09:04:22.729Z</time></trkpt><trkpt lat="43.5212417" lon="10.9275967"><ele>430.0</ele><time>2026-05-01T09:04:23.729Z</time></trkpt><trkpt lat="43.5210533" lon="10.9275467"><ele>432.33333333333337</ele><time>2026-05-01T09:04:24.727Z</time></trkpt><trkpt lat="43.5208667" lon="10.9275017"><ele>434.66666666666663</ele><time>2026-05-01T09:04:25.728Z</time></trkpt><trkpt lat="43.5206817" lon="10.92746"><ele>437.0</ele><time>2026-05-01T09:04:26.727Z</time></trkpt><trkpt lat="43.5204983" lon="10.92742"><ele>438.0</ele><time>2026-05-01T09:04:27.729Z</time></trkpt><trkpt lat="43.5203167" lon="10.9273783"><ele>439.0</ele><time>2026-05-01T09:04:28.729Z</time></trkpt><trkpt lat="43.5201367" lon="10.927335"><ele>440.0</ele><time>2026-05-01T09:04:29.729Z</time></trkpt><trkpt lat="43.51996" lon="10.9272867"><ele>440.0</ele><time>2026-05-01T09:04:30.727Z</time></trkpt><trkpt lat="43.519785" lon="10.9272383"><ele>440.0</ele><time>2026-05-01T09:04:31.728Z</time></trkpt><trkpt lat="43.519605" lon="10.927195"><ele>440.0</ele><time>2026-05-01T09:04:32.73Z</time></trkpt><trkpt lat="43.51942" lon="10.92716"><ele>440.3333333333333</ele><time>2026-05-01T09:04:33.728Z</time></trkpt><trkpt lat="43.519225" lon="10.927135"><ele>440.66666666666663</ele><time>2026-05-01T09:04:34.727Z</time></trkpt><trkpt lat="43.5190133" lon="10.92712"><ele>441.0</ele><time>2026-05-01T09:04:35.729Z</time></trkpt><trkpt lat="43.5187883" lon="10.9270967"><ele>440.0</ele><time>2026-05-01T09:04:36.729Z</time></trkpt><trkpt lat="43.51855" lon="10.9270717"><ele>439.0</ele><time>2026-05-01T09:04:37.729Z</time></trkpt><trkpt lat="43.518305" lon="10.9270483"><ele>439.0</ele><time>2026-05-01T09:04:38.728Z</time></trkpt><trkpt lat="43.518055" lon="10.92703"><ele>439.0</ele><time>2026-05-01T09:04:39.727Z</time></trkpt><trkpt lat="43.5178083" lon="10.9270083"><ele>438.5</ele><time>2026-05-01T09:04:40.727Z</time></trkpt><trkpt lat="43.5175717" lon="10.9269933"><ele>438.0</ele><time>2026-05-01T09:04:41.728Z</time></trkpt><trkpt lat="43.51735" lon="10.926975"><ele>438.0</ele><time>2026-05-01T09:04:42.727Z</time></trkpt><trkpt lat="43.5171417" lon="10.9269533"><ele>438.0</ele><time>2026-05-01T09:04:43.73Z</time></trkpt><trkpt lat="43.5169483" lon="10.9269283"><ele>438.0</ele><time>2026-05-01T09:04:44.729Z</time></trkpt><trkpt lat="43.51677" lon="10.9269067"><ele>438.75</ele><time>2026-05-01T09:04:45.728Z</time></trkpt><trkpt lat="43.5166117" lon="10.9268933"><ele>439.5</ele><time>2026-05-01T09:04:46.727Z</time></trkpt><trkpt lat="43.5164683" lon="10.92688"><ele>440.25</ele><time>2026-05-01T09:04:47.729Z</time></trkpt><trkpt lat="43.5163433" lon="10.92688"><ele>441.0</ele><time>2026-05-01T09:04:48.728Z</time></trkpt><trkpt lat="43.5162283" lon="10.9269083"><ele>443.4</ele><time>2026-05-01T09:04:49.728Z</time></trkpt><trkpt lat="43.5161267" lon="10.9269717"><ele>445.8</ele><time>2026-05-01T09:04:50.728Z</time></trkpt><trkpt lat="43.5160367" lon="10.9270617"><ele>448.19999999999993</ele><time>2026-05-01T09:04:51.727Z</time></trkpt><trkpt lat="43.51597" lon="10.9271833"><ele>450.59999999999997</ele><time>2026-05-01T09:04:52.726Z</time></trkpt><trkpt lat="43.515905" lon="10.92731"><ele>453.0</ele><time>2026-05-01T09:04:53.729Z</time></trkpt><trkpt lat="43.51585" lon="10.927435"><ele>453.0</ele><time>2026-05-01T09:04:54.726Z</time></trkpt><trkpt lat="43.515785" lon="10.9275567"><ele>453.0</ele><time>2026-05-01T09:04:55.735Z</time></trkpt><trkpt lat="43.515715" lon="10.9276883"><ele>453.0</ele><time>2026-05-01T09:04:56.728Z</time></trkpt><trkpt lat="43.5156217" lon="10.9278217"><ele>453.0</ele><time>2026-05-01T09:04:57.726Z</time></trkpt><trkpt lat="43.515525" lon="10.927955"><ele>456.33333333333337</ele><time>2026-05-01T09:04:58.728Z</time></trkpt><trkpt lat="43.5154" lon="10.9280817"><ele>459.6666666666667</ele><time>2026-05-01T09:04:59.728Z</time></trkpt><trkpt lat="43.5152633" lon="10.9282017"><ele>463.0</ele><time>2026-05-01T09:05:00.727Z</time></trkpt><trkpt lat="43.51513" lon="10.9283183"><ele>463.5</ele><time>2026-05-01T09:05:01.728Z</time></trkpt><trkpt lat="43.515" lon="10.9284217"><ele>464.0</ele><time>2026-05-01T09:05:02.726Z</time></trkpt><trkpt lat="43.5148667" lon="10.92851"><ele>464.5</ele><time>2026-05-01T09:05:03.728Z</time></trkpt><trkpt lat="43.5147217" lon="10.9285683"><ele>465.0</ele><time>2026-05-01T09:05:04.729Z</time></trkpt><trkpt lat="43.5145717" lon="10.9286017"><ele>467.75</ele><time>2026-05-01T09:05:05.728Z</time></trkpt><trkpt lat="43.51443" lon="10.92862"><ele>470.5</ele><time>2026-05-01T09:05:06.729Z</time></trkpt><trkpt lat="43.5142967" lon="10.9286383"><ele>473.25</ele><time>2026-05-01T09:05:07.729Z</time></trkpt><trkpt lat="43.5141717" lon="10.92867"><ele>476.0</ele><time>2026-05-01T09:05:08.73Z</time></trkpt><trkpt lat="43.5140483" lon="10.9287333"><ele>476.0</ele><time>2026-05-01T09:05:09.727Z</time></trkpt><trkpt lat="43.513935" lon="10.9288267"><ele>476.0</ele><time>2026-05-01T09:05:10.725Z</time></trkpt><trkpt lat="43.51383" lon="10.92894"><ele>476.0</ele><time>2026-05-01T09:05:11.729Z</time></trkpt><trkpt lat="43.513735" lon="10.9290517"><ele>476.0</ele><time>2026-05-01T09:05:12.729Z</time></trkpt><trkpt lat="43.5136483" lon="10.929175"><ele>477.25</ele><time>2026-05-01T09:05:13.728Z</time></trkpt><trkpt lat="43.5135717" lon="10.929305"><ele>478.5</ele><time>2026-05-01T09:05:14.73Z</time></trkpt><trkpt lat="43.5134983" lon="10.9294367"><ele>479.75</ele><time>2026-05-01T09:05:15.728Z</time></trkpt><trkpt lat="43.5134367" lon="10.9295767"><ele>481.0</ele><time>2026-05-01T09:05:16.728Z</time></trkpt><trkpt lat="43.51338" lon="10.929715"><ele>481.0</ele><time>2026-05-01T09:05:17.727Z</time></trkpt><trkpt lat="43.5133067" lon="10.9298467"><ele>481.0</ele><time>2026-05-01T09:05:18.726Z</time></trkpt><trkpt lat="43.5132117" lon="10.9299683"><ele>481.0</ele><time>2026-05-01T09:05:19.727Z</time></trkpt><trkpt lat="43.5131" lon="10.9300733"><ele>481.0</ele><time>2026-05-01T09:05:20.729Z</time></trkpt><trkpt lat="43.512965" lon="10.9301483"><ele>482.0</ele><time>2026-05-01T09:05:21.729Z</time></trkpt><trkpt lat="43.5128183" lon="10.9302"><ele>483.0</ele><time>2026-05-01T09:05:22.729Z</time></trkpt><trkpt lat="43.5126667" lon="10.930215"><ele>484.0</ele><time>2026-05-01T09:05:23.729Z</time></trkpt><trkpt lat="43.5125083" lon="10.93021"><ele>484.0</ele><time>2026-05-01T09:05:24.726Z</time></trkpt><trkpt lat="43.512355" lon="10.9301817"><ele>484.0</ele><time>2026-05-01T09:05:25.728Z</time></trkpt><trkpt lat="43.5122067" lon="10.9301483"><ele>484.0</ele><time>2026-05-01T09:05:26.729Z</time></trkpt><trkpt lat="43.5120567" lon="10.9301117"><ele>484.6666666666667</ele><time>2026-05-01T09:05:27.728Z</time></trkpt><trkpt lat="43.511905" lon="10.930065"><ele>485.33333333333337</ele><time>2026-05-01T09:05:28.729Z</time></trkpt><trkpt lat="43.5117467" lon="10.9300033"><ele>486.0</ele><time>2026-05-01T09:05:29.727Z</time></trkpt><trkpt lat="43.51159" lon="10.9299233"><ele>486.0</ele><time>2026-05-01T09:05:30.727Z</time></trkpt><trkpt lat="43.5114383" lon="10.9298317"><ele>486.0</ele><time>2026-05-01T09:05:31.725Z</time></trkpt><trkpt lat="43.5112917" lon="10.9297367"><ele>486.0</ele><time>2026-05-01T09:05:32.727Z</time></trkpt><trkpt lat="43.511145" lon="10.9296417"><ele>488.33333333333337</ele><time>2026-05-01T09:05:33.729Z</time></trkpt><trkpt lat="43.5110067" lon="10.9295417"><ele>490.6666666666667</ele><time>2026-05-01T09:05:34.728Z</time></trkpt><trkpt lat="43.5108733" lon="10.929445"><ele>493.0</ele><time>2026-05-01T09:05:35.729Z</time></trkpt><trkpt lat="43.5107317" lon="10.9293517"><ele>493.0</ele><time>2026-05-01T09:05:36.728Z</time></trkpt><trkpt lat="43.5106" lon="10.9292567"><ele>493.0</ele><time>2026-05-01T09:05:37.728Z</time></trkpt><trkpt lat="43.5104567" lon="10.9291917"><ele>493.0</ele><time>2026-05-01T09:05:38.728Z</time></trkpt><trkpt lat="43.510315" lon="10.9291217"><ele>492.33333333333337</ele><time>2026-05-01T09:05:39.729Z</time></trkpt><trkpt lat="43.5101717" lon="10.929035"><ele>491.66666666666663</ele><time>2026-05-01T09:05:40.728Z</time></trkpt><trkpt lat="43.510025" lon="10.9289433"><ele>491.0</ele><time>2026-05-01T09:05:41.728Z</time></trkpt><trkpt lat="43.509875" lon="10.928855"><ele>491.0</ele><time>2026-05-01T09:05:42.727Z</time></trkpt><trkpt lat="43.5097367" lon="10.928775"><ele>491.0</ele><time>2026-05-01T09:05:43.727Z</time></trkpt><trkpt lat="43.5095933" lon="10.9287017"><ele>491.0</ele><time>2026-05-01T09:05:44.728Z</time></trkpt><trkpt lat="43.5094483" lon="10.9286367"><ele>488.66666666666663</ele><time>2026-05-01T09:05:45.728Z</time></trkpt><trkpt lat="43.5092917" lon="10.92859"><ele>486.33333333333337</ele><time>2026-05-01T09:05:46.728Z</time></trkpt><trkpt lat="43.5091233" lon="10.92857"><ele>484.0</ele><time>2026-05-01T09:05:47.728Z</time></trkpt><trkpt lat="43.5089317" lon="10.92858"><ele>486.0</ele><time>2026-05-01T09:05:48.728Z</time></trkpt><trkpt lat="43.5087233" lon="10.9285933"><ele>488.0</ele><time>2026-05-01T09:05:49.728Z</time></trkpt><trkpt lat="43.5085167" lon="10.9286083"><ele>490.0</ele><time>2026-05-01T09:05:50.728Z</time></trkpt><trkpt lat="43.5083133" lon="10.9286183"><ele>490.0</ele><time>2026-05-01T09:05:51.725Z</time></trkpt><trkpt lat="43.50812" lon="10.9286283"><ele>490.0</ele><time>2026-05-01T09:05:52.727Z</time></trkpt><trkpt lat="43.507945" lon="10.9286417"><ele>490.0</ele><time>2026-05-01T09:05:53.727Z</time></trkpt><trkpt lat="43.5077817" lon="10.9286517"><ele>491.33333333333337</ele><time>2026-05-01T09:05:54.728Z</time></trkpt><trkpt lat="43.507625" lon="10.9286617"><ele>492.66666666666663</ele><time>2026-05-01T09:05:55.727Z</time></trkpt><trkpt lat="43.5074733" lon="10.92868"><ele>494.0</ele><time>2026-05-01T09:05:56.727Z</time></trkpt><trkpt lat="43.50732" lon="10.9286933"><ele>494.0</ele><time>2026-05-01T09:05:57.727Z</time></trkpt><trkpt lat="43.5071717" lon="10.9287133"><ele>494.0</ele><time>2026-05-01T09:05:58.729Z</time></trkpt><trkpt lat="43.507025" lon="10.928745"><ele>494.0</ele><time>2026-05-01T09:05:59.727Z</time></trkpt><trkpt lat="43.5068817" lon="10.928785"><ele>494.0</ele><time>2026-05-01T09:06:00.728Z</time></trkpt><trkpt lat="43.506745" lon="10.9288483"><ele>494.6</ele><time>2026-05-01T09:06:01.728Z</time></trkpt><trkpt lat="43.506645" lon="10.92892"><ele>495.2</ele><time>2026-05-01T09:06:02.729Z</time></trkpt><trkpt lat="43.506565" lon="10.9290267"><ele>495.80000000000007</ele><time>2026-05-01T09:06:03.727Z</time></trkpt><trkpt lat="43.5065117" lon="10.929155"><ele>496.40000000000003</ele><time>2026-05-01T09:06:04.727Z</time></trkpt><trkpt lat="43.50646" lon="10.9292867"><ele>497.0</ele><time>2026-05-01T09:06:05.728Z</time></trkpt><trkpt lat="43.5063967" lon="10.9294117"><ele>497.0</ele><time>2026-05-01T09:06:06.728Z</time></trkpt><trkpt lat="43.5063233" lon="10.92951"><ele>497.0</ele><time>2026-05-01T09:06:07.728Z</time></trkpt><trkpt lat="43.5062283" lon="10.9295783"><ele>497.0</ele><time>2026-05-01T09:06:08.728Z</time></trkpt><trkpt lat="43.5061083" lon="10.9296067"><ele>497.0</ele><time>2026-05-01T09:06:09.727Z</time></trkpt><trkpt lat="43.50596" lon="10.9296117"><ele>499.0</ele><time>2026-05-01T09:06:10.727Z</time></trkpt><trkpt lat="43.50579" lon="10.9295967"><ele>501.0</ele><time>2026-05-01T09:06:11.729Z</time></trkpt><trkpt lat="43.5056083" lon="10.9295733"><ele>503.0</ele><time>2026-05-01T09:06:12.726Z</time></trkpt><trkpt lat="43.5054317" lon="10.9295533"><ele>506.0</ele><time>2026-05-01T09:06:13.728Z</time></trkpt><trkpt lat="43.5052617" lon="10.92954"><ele>509.0</ele><time>2026-05-01T09:06:14.729Z</time></trkpt><trkpt lat="43.5050917" lon="10.9295217"><ele>512.0</ele><time>2026-05-01T09:06:15.729Z</time></trkpt><trkpt lat="43.5049283" lon="10.9295067"><ele>512.0</ele><time>2026-05-01T09:06:16.729Z</time></trkpt><trkpt lat="43.5047767" lon="10.9294883"><ele>512.0</ele><time>2026-05-01T09:06:17.728Z</time></trkpt><trkpt lat="43.5046367" lon="10.9294583"><ele>512.0</ele><time>2026-05-01T09:06:18.729Z</time></trkpt><trkpt lat="43.5045017" lon="10.929425"><ele>512.0</ele><time>2026-05-01T09:06:19.729Z</time></trkpt><trkpt lat="43.50437" lon="10.929395"><ele>514.5</ele><time>2026-05-01T09:06:20.728Z</time></trkpt><trkpt lat="43.504235" lon="10.9293617"><ele>517.0</ele><time>2026-05-01T09:06:21.728Z</time></trkpt><trkpt lat="43.5041067" lon="10.92931"><ele>519.5</ele><time>2026-05-01T09:06:22.728Z</time></trkpt><trkpt lat="43.50397" lon="10.92926"><ele>522.0</ele><time>2026-05-01T09:06:23.73Z</time></trkpt><trkpt lat="43.503815" lon="10.9292067"><ele>521.0</ele><time>2026-05-01T09:06:24.727Z</time></trkpt><trkpt lat="43.5036483" lon="10.9291533"><ele>520.0</ele><time>2026-05-01T09:06:25.727Z</time></trkpt><trkpt lat="43.503475" lon="10.9290933"><ele>519.0</ele><time>2026-05-01T09:06:26.729Z</time></trkpt><trkpt lat="43.5033017" lon="10.9290233"><ele>519.0</ele><time>2026-05-01T09:06:27.728Z</time></trkpt><trkpt lat="43.5031183" lon="10.9289517"><ele>519.0</ele><time>2026-05-01T09:06:28.728Z</time></trkpt><trkpt lat="43.5029267" lon="10.9288783"><ele>519.0</ele><time>2026-05-01T09:06:29.73Z</time></trkpt><trkpt lat="43.5027283" lon="10.9288033"><ele>517.6666666666666</ele><time>2026-05-01T09:06:30.73Z</time></trkpt><trkpt lat="43.5025367" lon="10.92873"><ele>516.3333333333333</ele><time>2026-05-01T09:06:31.728Z</time></trkpt><trkpt lat="43.5023683" lon="10.92867"><ele>515.0</ele><time>2026-05-01T09:06:32.728Z</time></trkpt><trkpt lat="43.5022033" lon="10.92861"><ele>513.3333333333333</ele><time>2026-05-01T09:06:33.727Z</time></trkpt><trkpt lat="43.50203" lon="10.9285483"><ele>511.66666666666663</ele><time>2026-05-01T09:06:34.728Z</time></trkpt><trkpt lat="43.5018333" lon="10.928475"><ele>510.0</ele><time>2026-05-01T09:06:35.729Z</time></trkpt><trkpt lat="43.5016233" lon="10.9284033"><ele>510.0</ele><time>2026-05-01T09:06:36.728Z</time></trkpt><trkpt lat="43.501395" lon="10.9283217"><ele>510.0</ele><time>2026-05-01T09:06:37.728Z</time></trkpt><trkpt lat="43.5011567" lon="10.9282267"><ele>510.0</ele><time>2026-05-01T09:06:38.729Z</time></trkpt><trkpt lat="43.5009133" lon="10.9281183"><ele>510.0</ele><time>2026-05-01T09:06:39.726Z</time></trkpt><trkpt lat="43.50065" lon="10.9280033"><ele>509.5</ele><time>2026-05-01T09:06:40.728Z</time></trkpt><trkpt lat="43.500385" lon="10.92791"><ele>509.0</ele><time>2026-05-01T09:06:41.728Z</time></trkpt><trkpt lat="43.5001333" lon="10.92784"><ele>509.0</ele><time>2026-05-01T09:06:42.727Z</time></trkpt><trkpt lat="43.49988" lon="10.927785"><ele>509.0</ele><time>2026-05-01T09:06:43.729Z</time></trkpt><trkpt lat="43.4996383" lon="10.9277267"><ele>509.0</ele><time>2026-05-01T09:06:44.727Z</time></trkpt><trkpt lat="43.499395" lon="10.9276617"><ele>509.0</ele><time>2026-05-01T09:06:45.728Z</time></trkpt><trkpt lat="43.499155" lon="10.9276017"><ele>511.5</ele><time>2026-05-01T09:06:46.728Z</time></trkpt><trkpt lat="43.4989233" lon="10.927525"><ele>514.0</ele><time>2026-05-01T09:06:47.728Z</time></trkpt><trkpt lat="43.4987" lon="10.927455"><ele>514.0</ele><time>2026-05-01T09:06:48.729Z</time></trkpt><trkpt lat="43.4984967" lon="10.9273867"><ele>514.0</ele><time>2026-05-01T09:06:49.727Z</time></trkpt><trkpt lat="43.4983067" lon="10.9273267"><ele>514.0</ele><time>2026-05-01T09:06:50.727Z</time></trkpt><trkpt lat="43.4981283" lon="10.92728"><ele>514.0</ele><time>2026-05-01T09:06:51.728Z</time></trkpt><trkpt lat="43.4979533" lon="10.9272383"><ele>514.0</ele><time>2026-05-01T09:06:52.727Z</time></trkpt><trkpt lat="43.49779" lon="10.9271967"><ele>514.0</ele><time>2026-05-01T09:06:53.727Z</time></trkpt><trkpt lat="43.4976233" lon="10.9271667"><ele>512.6666666666667</ele><time>2026-05-01T09:06:54.727Z</time></trkpt><trkpt lat="43.4974583" lon="10.92714"><ele>511.33333333333337</ele><time>2026-05-01T09:06:55.726Z</time></trkpt><trkpt lat="43.4973067" lon="10.9271217"><ele>510.0</ele><time>2026-05-01T09:06:56.728Z</time></trkpt><trkpt lat="43.4971517" lon="10.9270983"><ele>510.25</ele><time>2026-05-01T09:06:57.728Z</time></trkpt><trkpt lat="43.4970067" lon="10.9270717"><ele>510.5</ele><time>2026-05-01T09:06:58.728Z</time></trkpt><trkpt lat="43.4968683" lon="10.9270483"><ele>510.75</ele><time>2026-05-01T09:06:59.728Z</time></trkpt><trkpt lat="43.49675" lon="10.9270183"><ele>511.0</ele><time>2026-05-01T09:07:00.727Z</time></trkpt><trkpt lat="43.4966333" lon="10.926975"><ele>511.0</ele><time>2026-05-01T09:07:01.727Z</time></trkpt><trkpt lat="43.4965217" lon="10.926915"><ele>511.0</ele><time>2026-05-01T09:07:02.729Z</time></trkpt><trkpt lat="43.496415" lon="10.9268433"><ele>511.0</ele><time>2026-05-01T09:07:03.728Z</time></trkpt><trkpt lat="43.49633" lon="10.9267317"><ele>511.0</ele><time>2026-05-01T09:07:04.729Z</time></trkpt><trkpt lat="43.496245" lon="10.926595"><ele>509.5</ele><time>2026-05-01T09:07:05.729Z</time></trkpt><trkpt lat="43.4961567" lon="10.9264617"><ele>508.0</ele><time>2026-05-01T09:07:06.728Z</time></trkpt><trkpt lat="43.49607" lon="10.9263317"><ele>506.5</ele><time>2026-05-01T09:07:07.727Z</time></trkpt><trkpt lat="43.4959817" lon="10.9262117"><ele>505.0</ele><time>2026-05-01T09:07:08.728Z</time></trkpt><trkpt lat="43.4958933" lon="10.92613"><ele>505.0</ele><time>2026-05-01T09:07:09.727Z</time></trkpt><trkpt lat="43.4957967" lon="10.9260867"><ele>505.0</ele><time>2026-05-01T09:07:10.728Z</time></trkpt><trkpt lat="43.495705" lon="10.9260617"><ele>505.0</ele><time>2026-05-01T09:07:11.728Z</time></trkpt><trkpt lat="43.495605" lon="10.9260667"><ele>505.0</ele><time>2026-05-01T09:07:12.727Z</time></trkpt><trkpt lat="43.49552" lon="10.92609"><ele>505.0</ele><time>2026-05-01T09:07:13.727Z</time></trkpt><trkpt lat="43.4954417" lon="10.926105"><ele>503.2</ele><time>2026-05-01T09:07:14.727Z</time></trkpt><trkpt lat="43.4953467" lon="10.9261033"><ele>501.4</ele><time>2026-05-01T09:07:15.729Z</time></trkpt><trkpt lat="43.49525" lon="10.9260817"><ele>499.6</ele><time>2026-05-01T09:07:16.727Z</time></trkpt><trkpt lat="43.4951467" lon="10.9260517"><ele>497.8</ele><time>2026-05-01T09:07:17.728Z</time></trkpt><trkpt lat="43.495035" lon="10.926035"><ele>496.0</ele><time>2026-05-01T09:07:18.728Z</time></trkpt><trkpt lat="43.4949267" lon="10.9260483"><ele>496.0</ele><time>2026-05-01T09:07:19.727Z</time></trkpt><trkpt lat="43.4948183" lon="10.9260933"><ele>496.0</ele><time>2026-05-01T09:07:20.728Z</time></trkpt><trkpt lat="43.4947117" lon="10.9261633"><ele>496.0</ele><time>2026-05-01T09:07:21.729Z</time></trkpt><trkpt lat="43.4946033" lon="10.9262417"><ele>496.0</ele><time>2026-05-01T09:07:22.728Z</time></trkpt><trkpt lat="43.494495" lon="10.9263233"><ele>496.5</ele><time>2026-05-01T09:07:23.727Z</time></trkpt><trkpt lat="43.4943767" lon="10.926405"><ele>497.0</ele><time>2026-05-01T09:07:24.727Z</time></trkpt><trkpt lat="43.4942583" lon="10.9264917"><ele>497.5</ele><time>2026-05-01T09:07:25.728Z</time></trkpt><trkpt lat="43.49414" lon="10.926575"><ele>498.0</ele><time>2026-05-01T09:07:26.729Z</time></trkpt><trkpt lat="43.4940317" lon="10.9266583"><ele>498.0</ele><time>2026-05-01T09:07:27.727Z</time></trkpt><trkpt lat="43.4939267" lon="10.9267383"><ele>498.0</ele><time>2026-05-01T09:07:28.729Z</time></trkpt><trkpt lat="43.4938267" lon="10.926825"><ele>498.0</ele><time>2026-05-01T09:07:29.729Z</time></trkpt><trkpt lat="43.4937267" lon="10.9269233"><ele>498.0</ele><time>2026-05-01T09:07:30.728Z</time></trkpt><trkpt lat="43.4936317" lon="10.9270367"><ele>498.0</ele><time>2026-05-01T09:07:31.727Z</time></trkpt><trkpt lat="43.4935417" lon="10.927155"><ele>498.0</ele><time>2026-05-01T09:07:32.73Z</time></trkpt><trkpt lat="43.4934483" lon="10.9272833"><ele>498.0</ele><time>2026-05-01T09:07:33.728Z</time></trkpt><trkpt lat="43.493355" lon="10.9274217"><ele>498.0</ele><time>2026-05-01T09:07:34.728Z</time></trkpt><trkpt lat="43.4932567" lon="10.9275567"><ele>497.0</ele><time>2026-05-01T09:07:35.728Z</time></trkpt><trkpt lat="43.4931583" lon="10.927685"><ele>496.0</ele><time>2026-05-01T09:07:36.728Z</time></trkpt><trkpt lat="43.4930733" lon="10.927815"><ele>495.0</ele><time>2026-05-01T09:07:37.728Z</time></trkpt><trkpt lat="43.4929917" lon="10.9279417"><ele>494.0</ele><time>2026-05-01T09:07:38.728Z</time></trkpt><trkpt lat="43.4929083" lon="10.9280617"><ele>492.2</ele><time>2026-05-01T09:07:39.727Z</time></trkpt><trkpt lat="43.4928317" lon="10.9281817"><ele>490.4</ele><time>2026-05-01T09:07:40.73Z</time></trkpt><trkpt lat="43.4927567" lon="10.9282933"><ele>488.6</ele><time>2026-05-01T09:07:41.728Z</time></trkpt><trkpt lat="43.4926883" lon="10.92839"><ele>486.8</ele><time>2026-05-01T09:07:42.728Z</time></trkpt><trkpt lat="43.4926117" lon="10.9284833"><ele>485.0</ele><time>2026-05-01T09:07:43.727Z</time></trkpt><trkpt lat="43.4925283" lon="10.92857"><ele>484.75</ele><time>2026-05-01T09:07:44.727Z</time></trkpt><trkpt lat="43.4924317" lon="10.9286567"><ele>484.5</ele><time>2026-05-01T09:07:45.727Z</time></trkpt><trkpt lat="43.492315" lon="10.92872"><ele>484.25</ele><time>2026-05-01T09:07:46.727Z</time></trkpt><trkpt lat="43.4921983" lon="10.9287733"><ele>484.0</ele><time>2026-05-01T09:07:47.728Z</time></trkpt><trkpt lat="43.4920767" lon="10.9287983"><ele>484.5</ele><time>2026-05-01T09:07:48.728Z</time></trkpt><trkpt lat="43.4919533" lon="10.9287817"><ele>485.0</ele><time>2026-05-01T09:07:49.728Z</time></trkpt><trkpt lat="43.4918333" lon="10.9287233"><ele>485.5</ele><time>2026-05-01T09:07:50.727Z</time></trkpt><trkpt lat="43.4917167" lon="10.9286433"><ele>486.0</ele><time>2026-05-01T09:07:51.728Z</time></trkpt><trkpt lat="43.491595" lon="10.9285717"><ele>486.0</ele><time>2026-05-01T09:07:52.729Z</time></trkpt><trkpt lat="43.4914783" lon="10.9285217"><ele>486.0</ele><time>2026-05-01T09:07:53.728Z</time></trkpt><trkpt lat="43.4913717" lon="10.9285067"><ele>486.0</ele><time>2026-05-01T09:07:54.728Z</time></trkpt><trkpt lat="43.49126" lon="10.928535"><ele>486.0</ele><time>2026-05-01T09:07:55.727Z</time></trkpt><trkpt lat="43.4911633" lon="10.9285983"><ele>482.33333333333337</ele><time>2026-05-01T09:07:56.73Z</time></trkpt><trkpt lat="43.4910567" lon="10.9287367"><ele>478.6666666666667</ele><time>2026-05-01T09:07:57.727Z</time></trkpt><trkpt lat="43.490965" lon="10.9289317"><ele>475.0</ele><time>2026-05-01T09:07:58.728Z</time></trkpt><trkpt lat="43.49087" lon="10.9291467"><ele>476.6666666666667</ele><time>2026-05-01T09:07:59.727Z</time></trkpt><trkpt lat="43.49077" lon="10.9293783"><ele>478.33333333333337</ele><time>2026-05-01T09:08:00.729Z</time></trkpt><trkpt lat="43.4906617" lon="10.92961"><ele>480.0</ele><time>2026-05-01T09:08:01.727Z</time></trkpt><trkpt lat="43.49056" lon="10.9298383"><ele>483.0</ele><time>2026-05-01T09:08:02.729Z</time></trkpt><trkpt lat="43.4904633" lon="10.9300583"><ele>486.0</ele><time>2026-05-01T09:08:03.728Z</time></trkpt><trkpt lat="43.4903633" lon="10.9302667"><ele>489.0</ele><time>2026-05-01T09:08:04.727Z</time></trkpt><trkpt lat="43.4902767" lon="10.930475"><ele>480.0</ele><time>2026-05-01T09:08:05.728Z</time></trkpt><trkpt lat="43.4901983" lon="10.930685"><ele>471.0</ele><time>2026-05-01T09:08:06.727Z</time></trkpt><trkpt lat="43.49013" lon="10.9308883"><ele>462.0</ele><time>2026-05-01T09:08:07.728Z</time></trkpt><trkpt lat="43.49008" lon="10.9311"><ele>461.66666666666663</ele><time>2026-05-01T09:08:08.728Z</time></trkpt><trkpt lat="43.49005" lon="10.931325"><ele>461.3333333333333</ele><time>2026-05-01T09:08:09.726Z</time></trkpt><trkpt lat="43.4900367" lon="10.9315533"><ele>461.0</ele><time>2026-05-01T09:08:10.727Z</time></trkpt><trkpt lat="43.4900283" lon="10.931755"><ele>460.25</ele><time>2026-05-01T09:08:11.728Z</time></trkpt><trkpt lat="43.4900233" lon="10.9319533"><ele>459.5</ele><time>2026-05-01T09:08:12.727Z</time></trkpt><trkpt lat="43.4900417" lon="10.9321333"><ele>458.75</ele><time>2026-05-01T09:08:13.726Z</time></trkpt><trkpt lat="43.4900517" lon="10.932275"><ele>458.0</ele><time>2026-05-01T09:08:14.728Z</time></trkpt><trkpt lat="43.490045" lon="10.9324"><ele>458.0</ele><time>2026-05-01T09:08:15.727Z</time></trkpt><trkpt lat="43.4900133" lon="10.9324883"><ele>457.99999999999994</ele><time>2026-05-01T09:08:16.727Z</time></trkpt><trkpt lat="43.4899467" lon="10.9325333"><ele>457.99999999999994</ele><time>2026-05-01T09:08:17.727Z</time></trkpt><trkpt lat="43.4898517" lon="10.932475"><ele>458.0</ele><time>2026-05-01T09:08:18.728Z</time></trkpt><trkpt lat="43.489785" lon="10.9323867"><ele>458.0</ele><time>2026-05-01T09:08:19.729Z</time></trkpt><trkpt lat="43.4897517" lon="10.9322317"><ele>458.0</ele><time>2026-05-01T09:08:20.728Z</time></trkpt><trkpt lat="43.4897317" lon="10.9320617"><ele>458.0</ele><time>2026-05-01T09:08:21.728Z</time></trkpt><trkpt lat="43.48972" lon="10.93186"><ele>458.0</ele><time>2026-05-01T09:08:22.728Z</time></trkpt><trkpt lat="43.489705" lon="10.93164"><ele>458.0</ele><time>2026-05-01T09:08:23.728Z</time></trkpt><trkpt lat="43.4896867" lon="10.9314067"><ele>459.0</ele><time>2026-05-01T09:08:24.729Z</time></trkpt><trkpt lat="43.4896683" lon="10.93117"><ele>460.0</ele><time>2026-05-01T09:08:25.728Z</time></trkpt><trkpt lat="43.4896517" lon="10.9309183"><ele>461.0</ele><time>2026-05-01T09:08:26.728Z</time></trkpt><trkpt lat="43.4896317" lon="10.930665"><ele>461.3333333333333</ele><time>2026-05-01T09:08:27.729Z</time></trkpt><trkpt lat="43.4895983" lon="10.9304083"><ele>461.66666666666663</ele><time>2026-05-01T09:08:28.728Z</time></trkpt><trkpt lat="43.4895483" lon="10.9301567"><ele>462.0</ele><time>2026-05-01T09:08:29.728Z</time></trkpt><trkpt lat="43.4894883" lon="10.92991"><ele>453.66666666666663</ele><time>2026-05-01T09:08:30.728Z</time></trkpt><trkpt lat="43.4894133" lon="10.929675"><ele>445.3333333333333</ele><time>2026-05-01T09:08:31.728Z</time></trkpt><trkpt lat="43.4893483" lon="10.929445"><ele>437.0</ele><time>2026-05-01T09:08:32.728Z</time></trkpt><trkpt lat="43.4892917" lon="10.9292183"><ele>436.66666666666663</ele><time>2026-05-01T09:08:33.728Z</time></trkpt><trkpt lat="43.4892583" lon="10.9289833"><ele>436.33333333333337</ele><time>2026-05-01T09:08:34.729Z</time></trkpt><trkpt lat="43.48925" lon="10.928745"><ele>436.0</ele><time>2026-05-01T09:08:35.729Z</time></trkpt><trkpt lat="43.48926" lon="10.9285"><ele>435.33333333333337</ele><time>2026-05-01T09:08:36.727Z</time></trkpt><trkpt lat="43.48928" lon="10.9282483"><ele>434.66666666666663</ele><time>2026-05-01T09:08:37.729Z</time></trkpt><trkpt lat="43.4893" lon="10.9279833"><ele>434.0</ele><time>2026-05-01T09:08:38.729Z</time></trkpt><trkpt lat="43.4893183" lon="10.9277167"><ele>433.3333333333333</ele><time>2026-05-01T09:08:39.727Z</time></trkpt><trkpt lat="43.489335" lon="10.92745"><ele>432.66666666666663</ele><time>2026-05-01T09:08:40.729Z</time></trkpt><trkpt lat="43.4893567" lon="10.92718"><ele>432.0</ele><time>2026-05-01T09:08:41.728Z</time></trkpt><trkpt lat="43.4893867" lon="10.9269067"><ele>429.66666666666663</ele><time>2026-05-01T09:08:42.727Z</time></trkpt><trkpt lat="43.489425" lon="10.9266317"><ele>427.3333333333333</ele><time>2026-05-01T09:08:43.727Z</time></trkpt><trkpt lat="43.489465" lon="10.9263517"><ele>425.0</ele><time>2026-05-01T09:08:44.728Z</time></trkpt><trkpt lat="43.4895033" lon="10.9260733"><ele>427.0</ele><time>2026-05-01T09:08:45.728Z</time></trkpt><trkpt lat="43.48954" lon="10.9257933"><ele>429.0</ele><time>2026-05-01T09:08:46.728Z</time></trkpt><trkpt lat="43.4895767" lon="10.9255133"><ele>431.0</ele><time>2026-05-01T09:08:47.729Z</time></trkpt><trkpt lat="43.4896167" lon="10.925235"><ele>429.0</ele><time>2026-05-01T09:08:48.728Z</time></trkpt><trkpt lat="43.4896583" lon="10.92496"><ele>427.0</ele><time>2026-05-01T09:08:49.729Z</time></trkpt><trkpt lat="43.4897" lon="10.924685"><ele>425.0</ele><time>2026-05-01T09:08:50.728Z</time></trkpt><trkpt lat="43.48974" lon="10.9244217"><ele>425.0</ele><time>2026-05-01T09:08:51.728Z</time></trkpt><trkpt lat="43.4897767" lon="10.92417"><ele>425.0</ele><time>2026-05-01T09:08:52.729Z</time></trkpt><trkpt lat="43.4898233" lon="10.9239117"><ele>425.0</ele><time>2026-05-01T09:08:53.727Z</time></trkpt><trkpt lat="43.4898633" lon="10.92367"><ele>425.0</ele><time>2026-05-01T09:08:54.728Z</time></trkpt><trkpt lat="43.4898933" lon="10.92345"><ele>425.0</ele><time>2026-05-01T09:08:55.728Z</time></trkpt><trkpt lat="43.4899067" lon="10.92325"><ele>425.0</ele><time>2026-05-01T09:08:56.728Z</time></trkpt><trkpt lat="43.489895" lon="10.9230767"><ele>425.0</ele><time>2026-05-01T09:08:57.727Z</time></trkpt><trkpt lat="43.4898483" lon="10.9229217"><ele>425.0</ele><time>2026-05-01T09:08:58.728Z</time></trkpt><trkpt lat="43.48977" lon="10.92281"><ele>425.0</ele><time>2026-05-01T09:08:59.728Z</time></trkpt><trkpt lat="43.4896333" lon="10.9227117"><ele>425.0</ele><time>2026-05-01T09:09:00.728Z</time></trkpt><trkpt lat="43.48947" lon="10.9226117"><ele>425.0</ele><time>2026-05-01T09:09:01.728Z</time></trkpt><trkpt lat="43.489325" lon="10.9224967"><ele>422.0</ele><time>2026-05-01T09:09:02.729Z</time></trkpt><trkpt lat="43.4891917" lon="10.9223567"><ele>419.0</ele><time>2026-05-01T09:09:03.727Z</time></trkpt><trkpt lat="43.4890633" lon="10.92219"><ele>416.0</ele><time>2026-05-01T09:09:04.728Z</time></trkpt><trkpt lat="43.4889417" lon="10.9219983"><ele>416.0</ele><time>2026-05-01T09:09:05.728Z</time></trkpt><trkpt lat="43.4888183" lon="10.921795"><ele>416.0</ele><time>2026-05-01T09:09:06.727Z</time></trkpt><trkpt lat="43.488685" lon="10.9215917"><ele>416.0</ele><time>2026-05-01T09:09:07.728Z</time></trkpt><trkpt lat="43.4885433" lon="10.921405"><ele>414.66666666666663</ele><time>2026-05-01T09:09:08.728Z</time></trkpt><trkpt lat="43.4883983" lon="10.921225"><ele>413.33333333333337</ele><time>2026-05-01T09:09:09.727Z</time></trkpt><trkpt lat="43.4882567" lon="10.9210417"><ele>412.0</ele><time>2026-05-01T09:09:10.727Z</time></trkpt><trkpt lat="43.4881133" lon="10.920855"><ele>412.0</ele><time>2026-05-01T09:09:11.728Z</time></trkpt><trkpt lat="43.4879717" lon="10.9206733"><ele>412.0</ele><time>2026-05-01T09:09:12.727Z</time></trkpt><trkpt lat="43.4878333" lon="10.92049"><ele>412.0</ele><time>2026-05-01T09:09:13.727Z</time></trkpt><trkpt lat="43.4876983" lon="10.9203017"><ele>409.6666666666667</ele><time>2026-05-01T09:09:14.729Z</time></trkpt><trkpt lat="43.487555" lon="10.920115"><ele>407.33333333333337</ele><time>2026-05-01T09:09:15.726Z</time></trkpt><trkpt lat="43.48741" lon="10.9199317"><ele>405.0</ele><time>2026-05-01T09:09:16.727Z</time></trkpt><trkpt lat="43.48726" lon="10.9197483"><ele>405.0</ele><time>2026-05-01T09:09:17.727Z</time></trkpt><trkpt lat="43.4871083" lon="10.9195667"><ele>405.0</ele><time>2026-05-01T09:09:18.726Z</time></trkpt><trkpt lat="43.4869567" lon="10.9193833"><ele>405.0</ele><time>2026-05-01T09:09:19.725Z</time></trkpt><trkpt lat="43.4868083" lon="10.9191933"><ele>402.0</ele><time>2026-05-01T09:09:20.727Z</time></trkpt><trkpt lat="43.4866633" lon="10.9189883"><ele>399.0</ele><time>2026-05-01T09:09:21.726Z</time></trkpt><trkpt lat="43.4865183" lon="10.9188"><ele>396.0</ele><time>2026-05-01T09:09:22.727Z</time></trkpt><trkpt lat="43.4863733" lon="10.9186133"><ele>394.33333333333337</ele><time>2026-05-01T09:09:23.727Z</time></trkpt><trkpt lat="43.4862333" lon="10.9184333"><ele>392.6666666666667</ele><time>2026-05-01T09:09:24.728Z</time></trkpt><trkpt lat="43.4861033" lon="10.918255"><ele>391.0</ele><time>2026-05-01T09:09:25.726Z</time></trkpt><trkpt lat="43.4859833" lon="10.9180667"><ele>391.0</ele><time>2026-05-01T09:09:26.728Z</time></trkpt><trkpt lat="43.48588" lon="10.9178617"><ele>391.0</ele><time>2026-05-01T09:09:27.728Z</time></trkpt><trkpt lat="43.4857883" lon="10.9176333"><ele>391.0</ele><time>2026-05-01T09:09:28.726Z</time></trkpt><trkpt lat="43.4857" lon="10.9174"><ele>393.6666666666667</ele><time>2026-05-01T09:09:29.727Z</time></trkpt><trkpt lat="43.48559" lon="10.9171867"><ele>396.33333333333337</ele><time>2026-05-01T09:09:30.725Z</time></trkpt><trkpt lat="43.4855033" lon="10.9169417"><ele>399.0</ele><time>2026-05-01T09:09:31.728Z</time></trkpt><trkpt lat="43.4854183" lon="10.916695"><ele>393.6666666666667</ele><time>2026-05-01T09:09:32.727Z</time></trkpt><trkpt lat="43.485335" lon="10.91644"><ele>388.33333333333337</ele><time>2026-05-01T09:09:33.727Z</time></trkpt><trkpt lat="43.4852467" lon="10.9161833"><ele>383.0</ele><time>2026-05-01T09:09:34.728Z</time></trkpt><trkpt lat="43.4851367" lon="10.9159467"><ele>385.33333333333337</ele><time>2026-05-01T09:09:35.731Z</time></trkpt><trkpt lat="43.4850467" lon="10.9156917"><ele>387.6666666666667</ele><time>2026-05-01T09:09:36.728Z</time></trkpt><trkpt lat="43.4849617" lon="10.9154417"><ele>390.0</ele><time>2026-05-01T09:09:37.727Z</time></trkpt><trkpt lat="43.4848733" lon="10.915215"><ele>392.33333333333337</ele><time>2026-05-01T09:09:38.727Z</time></trkpt><trkpt lat="43.48479" lon="10.9149817"><ele>394.6666666666667</ele><time>2026-05-01T09:09:39.726Z</time></trkpt><trkpt lat="43.4847283" lon="10.9147267"><ele>397.0</ele><time>2026-05-01T09:09:40.727Z</time></trkpt><trkpt lat="43.4846683" lon="10.9144733"><ele>398.0</ele><time>2026-05-01T09:09:41.726Z</time></trkpt><trkpt lat="43.484615" lon="10.9142033"><ele>399.0</ele><time>2026-05-01T09:09:42.726Z</time></trkpt><trkpt lat="43.4845467" lon="10.913945"><ele>400.0</ele><time>2026-05-01T09:09:43.727Z</time></trkpt><trkpt lat="43.4844433" lon="10.9137183"><ele>393.6666666666667</ele><time>2026-05-01T09:09:44.728Z</time></trkpt><trkpt lat="43.4843283" lon="10.9135067"><ele>387.33333333333337</ele><time>2026-05-01T09:09:45.728Z</time></trkpt><trkpt lat="43.4842217" lon="10.913315"><ele>381.0</ele><time>2026-05-01T09:09:46.727Z</time></trkpt><trkpt lat="43.4841217" lon="10.9131367"><ele>381.0</ele><time>2026-05-01T09:09:47.727Z</time></trkpt><trkpt lat="43.48404" lon="10.9129767"><ele>381.0</ele><time>2026-05-01T09:09:48.727Z</time></trkpt><trkpt lat="43.4839733" lon="10.9128217"><ele>381.0</ele><time>2026-05-01T09:09:49.726Z</time></trkpt><trkpt lat="43.4839283" lon="10.91266"><ele>381.0</ele><time>2026-05-01T09:09:50.728Z</time></trkpt><trkpt lat="43.4839" lon="10.9125083"><ele>382.25</ele><time>2026-05-01T09:09:51.726Z</time></trkpt><trkpt lat="43.483925" lon="10.9123583"><ele>383.5</ele><time>2026-05-01T09:09:52.726Z</time></trkpt><trkpt lat="43.4839883" lon="10.9122133"><ele>384.75</ele><time>2026-05-01T09:09:53.728Z</time></trkpt><trkpt lat="43.4840667" lon="10.9120717"><ele>386.0</ele><time>2026-05-01T09:09:54.727Z</time></trkpt><trkpt lat="43.4841567" lon="10.911925"><ele>386.0</ele><time>2026-05-01T09:09:55.727Z</time></trkpt><trkpt lat="43.4842583" lon="10.911755"><ele>386.0</ele><time>2026-05-01T09:09:56.726Z</time></trkpt><trkpt lat="43.4843533" lon="10.9115833"><ele>386.0</ele><time>2026-05-01T09:09:57.727Z</time></trkpt><trkpt lat="43.4844483" lon="10.9114167"><ele>388.0</ele><time>2026-05-01T09:09:58.727Z</time></trkpt><trkpt lat="43.484545" lon="10.911255"><ele>390.0</ele><time>2026-05-01T09:09:59.727Z</time></trkpt><trkpt lat="43.4846367" lon="10.9110917"><ele>392.0</ele><time>2026-05-01T09:10:00.726Z</time></trkpt><trkpt lat="43.4847367" lon="10.910935"><ele>387.0</ele><time>2026-05-01T09:10:01.727Z</time></trkpt><trkpt lat="43.4848433" lon="10.9107933"><ele>382.0</ele><time>2026-05-01T09:10:02.728Z</time></trkpt><trkpt lat="43.4849717" lon="10.910685"><ele>377.0</ele><time>2026-05-01T09:10:03.727Z</time></trkpt><trkpt lat="43.485115" lon="10.9106083"><ele>377.0</ele><time>2026-05-01T09:10:04.726Z</time></trkpt><trkpt lat="43.4852667" lon="10.91057"><ele>377.0</ele><time>2026-05-01T09:10:05.727Z</time></trkpt><trkpt lat="43.48542" lon="10.9105567"><ele>377.0</ele><time>2026-05-01T09:10:06.727Z</time></trkpt><trkpt lat="43.4855733" lon="10.9105367"><ele>378.33333333333337</ele><time>2026-05-01T09:10:07.727Z</time></trkpt><trkpt lat="43.4857283" lon="10.9105183"><ele>379.6666666666667</ele><time>2026-05-01T09:10:08.727Z</time></trkpt><trkpt lat="43.4858817" lon="10.9105117"><ele>381.0</ele><time>2026-05-01T09:10:09.727Z</time></trkpt><trkpt lat="43.4860317" lon="10.9105133"><ele>381.0</ele><time>2026-05-01T09:10:10.727Z</time></trkpt><trkpt lat="43.4861817" lon="10.9105083"><ele>381.0</ele><time>2026-05-01T09:10:11.727Z</time></trkpt><trkpt lat="43.4863333" lon="10.910505"><ele>381.0</ele><time>2026-05-01T09:10:12.727Z</time></trkpt><trkpt lat="43.48648" lon="10.9104967"><ele>381.0</ele><time>2026-05-01T09:10:13.727Z</time></trkpt><trkpt lat="43.48662" lon="10.91048"><ele>379.0</ele><time>2026-05-01T09:10:14.726Z</time></trkpt><trkpt lat="43.4867533" lon="10.910455"><ele>377.0</ele><time>2026-05-01T09:10:15.727Z</time></trkpt><trkpt lat="43.4868767" lon="10.9103883"><ele>375.0</ele><time>2026-05-01T09:10:16.727Z</time></trkpt><trkpt lat="43.487" lon="10.9102883"><ele>373.0</ele><time>2026-05-01T09:10:17.728Z</time></trkpt><trkpt lat="43.487115" lon="10.910185"><ele>374.0</ele><time>2026-05-01T09:10:18.725Z</time></trkpt><trkpt lat="43.4872283" lon="10.9100583"><ele>375.0</ele><time>2026-05-01T09:10:19.726Z</time></trkpt><trkpt lat="43.487335" lon="10.9099167"><ele>376.0</ele><time>2026-05-01T09:10:20.728Z</time></trkpt><trkpt lat="43.4874267" lon="10.9097617"><ele>377.0</ele><time>2026-05-01T09:10:21.727Z</time></trkpt><trkpt lat="43.4875117" lon="10.90958"><ele>377.0</ele><time>2026-05-01T09:10:22.727Z</time></trkpt><trkpt lat="43.4875967" lon="10.9094133"><ele>377.0</ele><time>2026-05-01T09:10:23.726Z</time></trkpt><trkpt lat="43.4876667" lon="10.9092033"><ele>377.0</ele><time>2026-05-01T09:10:24.727Z</time></trkpt><trkpt lat="43.48772" lon="10.9089283"><ele>371.0</ele><time>2026-05-01T09:10:25.726Z</time></trkpt><trkpt lat="43.4877683" lon="10.9086483"><ele>365.0</ele><time>2026-05-01T09:10:26.726Z</time></trkpt><trkpt lat="43.4878083" lon="10.9083533"><ele>359.0</ele><time>2026-05-01T09:10:27.727Z</time></trkpt><trkpt lat="43.4878533" lon="10.9080567"><ele>358.0</ele><time>2026-05-01T09:10:28.727Z</time></trkpt><trkpt lat="43.4878983" lon="10.9077683"><ele>357.0</ele><time>2026-05-01T09:10:29.729Z</time></trkpt><trkpt lat="43.48794" lon="10.9074983"><ele>356.0</ele><time>2026-05-01T09:10:30.727Z</time></trkpt><trkpt lat="43.487965" lon="10.9072333"><ele>359.0</ele><time>2026-05-01T09:10:31.727Z</time></trkpt><trkpt lat="43.4879717" lon="10.90696"><ele>362.0</ele><time>2026-05-01T09:10:32.727Z</time></trkpt><trkpt lat="43.487955" lon="10.90669"><ele>365.0</ele><time>2026-05-01T09:10:33.728Z</time></trkpt><trkpt lat="43.487935" lon="10.9064183"><ele>361.0</ele><time>2026-05-01T09:10:34.728Z</time></trkpt><trkpt lat="43.4879167" lon="10.9061483"><ele>357.0</ele><time>2026-05-01T09:10:35.727Z</time></trkpt><trkpt lat="43.487895" lon="10.905875"><ele>353.0</ele><time>2026-05-01T09:10:36.727Z</time></trkpt><trkpt lat="43.487875" lon="10.905605"><ele>352.6666666666667</ele><time>2026-05-01T09:10:37.726Z</time></trkpt><trkpt lat="43.4878517" lon="10.9053317"><ele>352.3333333333333</ele><time>2026-05-01T09:10:38.728Z</time></trkpt><trkpt lat="43.4878317" lon="10.9050617"><ele>352.0</ele><time>2026-05-01T09:10:39.727Z</time></trkpt><trkpt lat="43.4878167" lon="10.90479"><ele>351.66666666666663</ele><time>2026-05-01T09:10:40.726Z</time></trkpt><trkpt lat="43.487815" lon="10.9045283"><ele>351.3333333333333</ele><time>2026-05-01T09:10:41.729Z</time></trkpt><trkpt lat="43.4878167" lon="10.9042617"><ele>351.0</ele><time>2026-05-01T09:10:42.728Z</time></trkpt><trkpt lat="43.4878333" lon="10.9040033"><ele>351.0</ele><time>2026-05-01T09:10:43.727Z</time></trkpt><trkpt lat="43.48786" lon="10.9037533"><ele>351.0</ele><time>2026-05-01T09:10:44.727Z</time></trkpt><trkpt lat="43.4878783" lon="10.9035067"><ele>351.0</ele><time>2026-05-01T09:10:45.727Z</time></trkpt><trkpt lat="43.4878667" lon="10.9032717"><ele>351.0</ele><time>2026-05-01T09:10:46.726Z</time></trkpt><trkpt lat="43.48782" lon="10.90305"><ele>351.0</ele><time>2026-05-01T09:10:47.727Z</time></trkpt><trkpt lat="43.4877417" lon="10.90285"><ele>351.0</ele><time>2026-05-01T09:10:48.727Z</time></trkpt><trkpt lat="43.4876583" lon="10.9026667"><ele>351.3333333333333</ele><time>2026-05-01T09:10:49.726Z</time></trkpt><trkpt lat="43.4875883" lon="10.902475"><ele>351.66666666666663</ele><time>2026-05-01T09:10:50.728Z</time></trkpt><trkpt lat="43.48755" lon="10.9022683"><ele>352.0</ele><time>2026-05-01T09:10:51.728Z</time></trkpt><trkpt lat="43.4875267" lon="10.902035"><ele>352.0</ele><time>2026-05-01T09:10:52.727Z</time></trkpt><trkpt lat="43.487515" lon="10.9017917"><ele>352.0</ele><time>2026-05-01T09:10:53.727Z</time></trkpt><trkpt lat="43.4875" lon="10.90155"><ele>352.0</ele><time>2026-05-01T09:10:54.727Z</time></trkpt><trkpt lat="43.487495" lon="10.9013167"><ele>351.66666666666663</ele><time>2026-05-01T09:10:55.726Z</time></trkpt><trkpt lat="43.4875033" lon="10.9011"><ele>351.3333333333333</ele><time>2026-05-01T09:10:56.728Z</time></trkpt><trkpt lat="43.48754" lon="10.900905"><ele>351.0</ele><time>2026-05-01T09:10:57.727Z</time></trkpt><trkpt lat="43.4876167" lon="10.9007283"><ele>351.0</ele><time>2026-05-01T09:10:58.726Z</time></trkpt><trkpt lat="43.4877067" lon="10.900565"><ele>351.0</ele><time>2026-05-01T09:10:59.727Z</time></trkpt><trkpt lat="43.4877783" lon="10.9004017"><ele>351.0</ele><time>2026-05-01T09:11:00.727Z</time></trkpt><trkpt lat="43.4878233" lon="10.900215"><ele>351.0</ele><time>2026-05-01T09:11:01.728Z</time></trkpt><trkpt lat="43.48781" lon="10.90002"><ele>349.0</ele><time>2026-05-01T09:11:02.728Z</time></trkpt><trkpt lat="43.487755" lon="10.8998283"><ele>347.0</ele><time>2026-05-01T09:11:03.728Z</time></trkpt><trkpt lat="43.4876817" lon="10.8996367"><ele>345.0</ele><time>2026-05-01T09:11:04.728Z</time></trkpt><trkpt lat="43.4876133" lon="10.899425"><ele>345.6666666666667</ele><time>2026-05-01T09:11:05.727Z</time></trkpt><trkpt lat="43.4875883" lon="10.89918"><ele>346.33333333333337</ele><time>2026-05-01T09:11:06.726Z</time></trkpt><trkpt lat="43.487595" lon="10.8989267"><ele>347.0</ele><time>2026-05-01T09:11:07.728Z</time></trkpt><trkpt lat="43.4876283" lon="10.8986733"><ele>347.0</ele><time>2026-05-01T09:11:08.729Z</time></trkpt><trkpt lat="43.48767" lon="10.898435"><ele>347.0</ele><time>2026-05-01T09:11:09.728Z</time></trkpt><trkpt lat="43.487715" lon="10.8982033"><ele>347.0</ele><time>2026-05-01T09:11:10.728Z</time></trkpt><trkpt lat="43.487765" lon="10.8979783"><ele>345.6666666666667</ele><time>2026-05-01T09:11:11.728Z</time></trkpt><trkpt lat="43.487795" lon="10.89776"><ele>344.3333333333333</ele><time>2026-05-01T09:11:12.727Z</time></trkpt><trkpt lat="43.4878183" lon="10.8975433"><ele>343.0</ele><time>2026-05-01T09:11:13.728Z</time></trkpt><trkpt lat="43.487825" lon="10.8973283"><ele>340.3333333333333</ele><time>2026-05-01T09:11:14.727Z</time></trkpt><trkpt lat="43.4878133" lon="10.8971083"><ele>337.6666666666667</ele><time>2026-05-01T09:11:15.727Z</time></trkpt><trkpt lat="43.4877717" lon="10.896905"><ele>335.0</ele><time>2026-05-01T09:11:16.726Z</time></trkpt><trkpt lat="43.4877267" lon="10.8967167"><ele>334.25</ele><time>2026-05-01T09:11:17.727Z</time></trkpt><trkpt lat="43.48769" lon="10.896535"><ele>333.5</ele><time>2026-05-01T09:11:18.726Z</time></trkpt><trkpt lat="43.4876633" lon="10.8963567"><ele>332.75</ele><time>2026-05-01T09:11:19.727Z</time></trkpt><trkpt lat="43.48765" lon="10.8961767"><ele>332.0</ele><time>2026-05-01T09:11:20.727Z</time></trkpt><trkpt lat="43.4876517" lon="10.8959917"><ele>331.5</ele><time>2026-05-01T09:11:21.727Z</time></trkpt><trkpt lat="43.4876517" lon="10.8958083"><ele>331.0</ele><time>2026-05-01T09:11:22.727Z</time></trkpt><trkpt lat="43.4876517" lon="10.89563"><ele>330.5</ele><time>2026-05-01T09:11:23.728Z</time></trkpt><trkpt lat="43.48764" lon="10.8954533"><ele>330.0</ele><time>2026-05-01T09:11:24.726Z</time></trkpt><trkpt lat="43.4876133" lon="10.8952833"><ele>330.0</ele><time>2026-05-01T09:11:25.727Z</time></trkpt><trkpt lat="43.48757" lon="10.8951217"><ele>330.0</ele><time>2026-05-01T09:11:26.727Z</time></trkpt><trkpt lat="43.4874967" lon="10.8949867"><ele>330.0</ele><time>2026-05-01T09:11:27.727Z</time></trkpt><trkpt lat="43.487385" lon="10.8948833"><ele>330.0</ele><time>2026-05-01T09:11:28.727Z</time></trkpt><trkpt lat="43.4872567" lon="10.8947983"><ele>330.6666666666667</ele><time>2026-05-01T09:11:29.727Z</time></trkpt><trkpt lat="43.4871183" lon="10.894715"><ele>331.33333333333337</ele><time>2026-05-01T09:11:30.726Z</time></trkpt><trkpt lat="43.4869817" lon="10.8946267"><ele>332.0</ele><time>2026-05-01T09:11:31.726Z</time></trkpt><trkpt lat="43.4868467" lon="10.8945383"><ele>330.5</ele><time>2026-05-01T09:11:32.726Z</time></trkpt><trkpt lat="43.486715" lon="10.8944517"><ele>329.0</ele><time>2026-05-01T09:11:33.727Z</time></trkpt><trkpt lat="43.48659" lon="10.8943717"><ele>327.5</ele><time>2026-05-01T09:11:34.727Z</time></trkpt><trkpt lat="43.486465" lon="10.8942933"><ele>326.0</ele><time>2026-05-01T09:11:35.729Z</time></trkpt><trkpt lat="43.48634" lon="10.894215"><ele>322.25</ele><time>2026-05-01T09:11:36.727Z</time></trkpt><trkpt lat="43.4862067" lon="10.8941433"><ele>318.5</ele><time>2026-05-01T09:11:37.727Z</time></trkpt><trkpt lat="43.486085" lon="10.894045"><ele>314.75</ele><time>2026-05-01T09:11:38.728Z</time></trkpt><trkpt lat="43.4859733" lon="10.89391"><ele>311.0</ele><time>2026-05-01T09:11:39.728Z</time></trkpt><trkpt lat="43.4858883" lon="10.8937383"><ele>311.0</ele><time>2026-05-01T09:11:40.727Z</time></trkpt><trkpt lat="43.4858417" lon="10.8935333"><ele>311.0</ele><time>2026-05-01T09:11:41.726Z</time></trkpt><trkpt lat="43.48582" lon="10.8933267"><ele>311.0</ele><time>2026-05-01T09:11:42.728Z</time></trkpt><trkpt lat="43.4858017" lon="10.8931067"><ele>310.75</ele><time>2026-05-01T09:11:43.728Z</time></trkpt><trkpt lat="43.4857567" lon="10.8929167"><ele>310.5</ele><time>2026-05-01T09:11:44.727Z</time></trkpt><trkpt lat="43.48571" lon="10.8927283"><ele>310.25</ele><time>2026-05-01T09:11:45.727Z</time></trkpt><trkpt lat="43.4856567" lon="10.89255"><ele>310.0</ele><time>2026-05-01T09:11:46.727Z</time></trkpt><trkpt lat="43.4856017" lon="10.8923867"><ele>310.0</ele><time>2026-05-01T09:11:47.727Z</time></trkpt><trkpt lat="43.4855483" lon="10.8922267"><ele>310.0</ele><time>2026-05-01T09:11:48.727Z</time></trkpt><trkpt lat="43.4855017" lon="10.8920717"><ele>310.0</ele><time>2026-05-01T09:11:49.727Z</time></trkpt><trkpt lat="43.48545" lon="10.89192"><ele>310.0</ele><time>2026-05-01T09:11:50.727Z</time></trkpt><trkpt lat="43.485395" lon="10.8917667"><ele>307.5</ele><time>2026-05-01T09:11:51.727Z</time></trkpt><trkpt lat="43.4853417" lon="10.8916083"><ele>305.0</ele><time>2026-05-01T09:11:52.727Z</time></trkpt><trkpt lat="43.4852867" lon="10.89144"><ele>302.5</ele><time>2026-05-01T09:11:53.728Z</time></trkpt><trkpt lat="43.4852283" lon="10.8912683"><ele>300.0</ele><time>2026-05-01T09:11:54.727Z</time></trkpt><trkpt lat="43.4851683" lon="10.891095"><ele>300.5</ele><time>2026-05-01T09:11:55.727Z</time></trkpt><trkpt lat="43.48511" lon="10.8909167"><ele>301.0</ele><time>2026-05-01T09:11:56.726Z</time></trkpt><trkpt lat="43.4850417" lon="10.890745"><ele>301.5</ele><time>2026-05-01T09:11:57.726Z</time></trkpt><trkpt lat="43.4849783" lon="10.89056"><ele>302.0</ele><time>2026-05-01T09:11:58.726Z</time></trkpt><trkpt lat="43.484905" lon="10.89038"><ele>302.0</ele><time>2026-05-01T09:11:59.725Z</time></trkpt><trkpt lat="43.4848267" lon="10.8901983"><ele>302.0</ele><time>2026-05-01T09:12:00.727Z</time></trkpt><trkpt lat="43.484725" lon="10.8900317"><ele>302.0</ele><time>2026-05-01T09:12:01.726Z</time></trkpt><trkpt lat="43.4846283" lon="10.8898733"><ele>302.75</ele><time>2026-05-01T09:12:02.727Z</time></trkpt><trkpt lat="43.48452" lon="10.889745"><ele>303.5</ele><time>2026-05-01T09:12:03.728Z</time></trkpt><trkpt lat="43.4844083" lon="10.889635"><ele>304.25</ele><time>2026-05-01T09:12:04.726Z</time></trkpt><trkpt lat="43.4843" lon="10.8895183"><ele>305.0</ele><time>2026-05-01T09:12:05.727Z</time></trkpt><trkpt lat="43.4842017" lon="10.88939"><ele>303.0</ele><time>2026-05-01T09:12:06.728Z</time></trkpt><trkpt lat="43.4841233" lon="10.8892367"><ele>301.0</ele><time>2026-05-01T09:12:07.728Z</time></trkpt><trkpt lat="43.4840667" lon="10.8890817"><ele>299.0</ele><time>2026-05-01T09:12:08.728Z</time></trkpt><trkpt lat="43.484025" lon="10.8889283"><ele>297.0</ele><time>2026-05-01T09:12:09.727Z</time></trkpt><trkpt lat="43.4839833" lon="10.888775"><ele>297.0</ele><time>2026-05-01T09:12:10.728Z</time></trkpt><trkpt lat="43.4839467" lon="10.888635"><ele>297.0</ele><time>2026-05-01T09:12:11.727Z</time></trkpt><trkpt lat="43.4839" lon="10.8885"><ele>297.0</ele><time>2026-05-01T09:12:12.727Z</time></trkpt><trkpt lat="43.4838417" lon="10.8883783"><ele>297.0</ele><time>2026-05-01T09:12:13.727Z</time></trkpt><trkpt lat="43.48376" lon="10.8882783"><ele>297.0</ele><time>2026-05-01T09:12:14.728Z</time></trkpt><trkpt lat="43.48367" lon="10.8882"><ele>298.3333333333333</ele><time>2026-05-01T09:12:15.726Z</time></trkpt><trkpt lat="43.4835867" lon="10.8881267"><ele>299.6666666666667</ele><time>2026-05-01T09:12:16.729Z</time></trkpt><trkpt lat="43.483515" lon="10.8880517"><ele>301.0</ele><time>2026-05-01T09:12:17.728Z</time></trkpt><trkpt lat="43.4834583" lon="10.88797"><ele>302.33333333333337</ele><time>2026-05-01T09:12:18.728Z</time></trkpt><trkpt lat="43.4834167" lon="10.8878833"><ele>303.6666666666667</ele><time>2026-05-01T09:12:19.728Z</time></trkpt><trkpt lat="43.4833967" lon="10.88779"><ele>305.0</ele><time>2026-05-01T09:12:20.726Z</time></trkpt><trkpt lat="43.483395" lon="10.8876867"><ele>304.33333333333337</ele><time>2026-05-01T09:12:21.727Z</time></trkpt><trkpt lat="43.48342" lon="10.8875733"><ele>303.6666666666667</ele><time>2026-05-01T09:12:22.727Z</time></trkpt><trkpt lat="43.48349" lon="10.8875"><ele>303.0</ele><time>2026-05-01T09:12:23.728Z</time></trkpt><trkpt lat="43.4835617" lon="10.8874267"><ele>302.3333333333333</ele><time>2026-05-01T09:12:24.727Z</time></trkpt><trkpt lat="43.4836367" lon="10.887355"><ele>301.66666666666663</ele><time>2026-05-01T09:12:25.728Z</time></trkpt><trkpt lat="43.48371" lon="10.8872833"><ele>301.0</ele><time>2026-05-01T09:12:26.728Z</time></trkpt><trkpt lat="43.48381" lon="10.88718"><ele>299.0</ele><time>2026-05-01T09:12:27.729Z</time></trkpt><trkpt lat="43.4839017" lon="10.8870617"><ele>297.0</ele><time>2026-05-01T09:12:28.727Z</time></trkpt><trkpt lat="43.4839933" lon="10.8869267"><ele>295.0</ele><time>2026-05-01T09:12:29.728Z</time></trkpt><trkpt lat="43.4840767" lon="10.88679"><ele>293.0</ele><time>2026-05-01T09:12:30.729Z</time></trkpt><trkpt lat="43.4841583" lon="10.8866517"><ele>293.0</ele><time>2026-05-01T09:12:31.727Z</time></trkpt><trkpt lat="43.48424" lon="10.88651"><ele>293.0</ele><time>2026-05-01T09:12:32.728Z</time></trkpt><trkpt lat="43.48432" lon="10.8863667"><ele>293.0</ele><time>2026-05-01T09:12:33.727Z</time></trkpt><trkpt lat="43.4844" lon="10.8862133"><ele>293.0</ele><time>2026-05-01T09:12:34.727Z</time></trkpt><trkpt lat="43.484465" lon="10.88606"><ele>293.5</ele><time>2026-05-01T09:12:35.727Z</time></trkpt><trkpt lat="43.4845083" lon="10.8858983"><ele>294.0</ele><time>2026-05-01T09:12:36.727Z</time></trkpt><trkpt lat="43.4845317" lon="10.8857317"><ele>294.5</ele><time>2026-05-01T09:12:37.728Z</time></trkpt><trkpt lat="43.4845317" lon="10.8855583"><ele>295.0</ele><time>2026-05-01T09:12:38.728Z</time></trkpt><trkpt lat="43.4845017" lon="10.88538"><ele>295.0</ele><time>2026-05-01T09:12:39.727Z</time></trkpt><trkpt lat="43.4844717" lon="10.8852083"><ele>295.0</ele><time>2026-05-01T09:12:40.729Z</time></trkpt><trkpt lat="43.4844417" lon="10.88504"><ele>295.0</ele><time>2026-05-01T09:12:41.728Z</time></trkpt><trkpt lat="43.4844067" lon="10.8848733"><ele>295.0</ele><time>2026-05-01T09:12:42.728Z</time></trkpt><trkpt lat="43.4843733" lon="10.8846967"><ele>294.0</ele><time>2026-05-01T09:12:43.727Z</time></trkpt><trkpt lat="43.4843417" lon="10.8845167"><ele>293.0</ele><time>2026-05-01T09:12:44.727Z</time></trkpt><trkpt lat="43.4843083" lon="10.8843417"><ele>292.0</ele><time>2026-05-01T09:12:45.728Z</time></trkpt><trkpt lat="43.4842767" lon="10.88417"><ele>291.0</ele><time>2026-05-01T09:12:46.728Z</time></trkpt><trkpt lat="43.4842417" lon="10.8839983"><ele>290.0</ele><time>2026-05-01T09:12:47.727Z</time></trkpt><trkpt lat="43.4842" lon="10.8838267"><ele>289.0</ele><time>2026-05-01T09:12:48.728Z</time></trkpt><trkpt lat="43.4841367" lon="10.8836667"><ele>288.0</ele><time>2026-05-01T09:12:49.729Z</time></trkpt><trkpt lat="43.484055" lon="10.883535"><ele>287.0</ele><time>2026-05-01T09:12:50.727Z</time></trkpt><trkpt lat="43.4839617" lon="10.883405"><ele>287.25</ele><time>2026-05-01T09:12:51.727Z</time></trkpt><trkpt lat="43.4838733" lon="10.88327"><ele>287.5</ele><time>2026-05-01T09:12:52.728Z</time></trkpt><trkpt lat="43.4838017" lon="10.8831233"><ele>287.75</ele><time>2026-05-01T09:12:53.727Z</time></trkpt><trkpt lat="43.4837383" lon="10.8829767"><ele>288.0</ele><time>2026-05-01T09:12:54.726Z</time></trkpt><trkpt lat="43.4836917" lon="10.8828283"><ele>288.0</ele><time>2026-05-01T09:12:55.727Z</time></trkpt><trkpt lat="43.4836583" lon="10.88268"><ele>288.0</ele><time>2026-05-01T09:12:56.728Z</time></trkpt><trkpt lat="43.483635" lon="10.8825233"><ele>288.0</ele><time>2026-05-01T09:12:57.727Z</time></trkpt><trkpt lat="43.483605" lon="10.8823733"><ele>288.0</ele><time>2026-05-01T09:12:58.727Z</time></trkpt><trkpt lat="43.4835783" lon="10.88222"><ele>286.4</ele><time>2026-05-01T09:12:59.727Z</time></trkpt><trkpt lat="43.48354" lon="10.8820783"><ele>284.8</ele><time>2026-05-01T09:13:00.727Z</time></trkpt><trkpt lat="43.483485" lon="10.88195"><ele>283.2</ele><time>2026-05-01T09:13:01.728Z</time></trkpt><trkpt lat="43.48341" lon="10.8818517"><ele>281.6</ele><time>2026-05-01T09:13:02.727Z</time></trkpt><trkpt lat="43.4833183" lon="10.8817733"><ele>280.0</ele><time>2026-05-01T09:13:03.728Z</time></trkpt><trkpt lat="43.48321" lon="10.8817233"><ele>277.5</ele><time>2026-05-01T09:13:04.727Z</time></trkpt><trkpt lat="43.4830933" lon="10.8816883"><ele>275.0</ele><time>2026-05-01T09:13:05.726Z</time></trkpt><trkpt lat="43.4829733" lon="10.8816767"><ele>272.5</ele><time>2026-05-01T09:13:06.728Z</time></trkpt><trkpt lat="43.482855" lon="10.8816817"><ele>270.0</ele><time>2026-05-01T09:13:07.727Z</time></trkpt><trkpt lat="43.4827367" lon="10.8817033"><ele>269.0</ele><time>2026-05-01T09:13:08.729Z</time></trkpt><trkpt lat="43.4826067" lon="10.881765"><ele>268.0</ele><time>2026-05-01T09:13:09.727Z</time></trkpt><trkpt lat="43.4824717" lon="10.8818617"><ele>267.0</ele><time>2026-05-01T09:13:10.728Z</time></trkpt><trkpt lat="43.4823317" lon="10.882"><ele>268.6666666666667</ele><time>2026-05-01T09:13:11.725Z</time></trkpt><trkpt lat="43.4821933" lon="10.8821383"><ele>270.33333333333337</ele><time>2026-05-01T09:13:12.726Z</time></trkpt><trkpt lat="43.482065" lon="10.8822733"><ele>272.0</ele><time>2026-05-01T09:13:13.728Z</time></trkpt><trkpt lat="43.4819483" lon="10.8823933"><ele>272.0</ele><time>2026-05-01T09:13:14.727Z</time></trkpt><trkpt lat="43.4818483" lon="10.8824817"><ele>272.0</ele><time>2026-05-01T09:13:15.727Z</time></trkpt><trkpt lat="43.4817483" lon="10.8825517"><ele>272.0</ele><time>2026-05-01T09:13:16.728Z</time></trkpt><trkpt lat="43.48165" lon="10.8825767"><ele>272.0</ele><time>2026-05-01T09:13:17.728Z</time></trkpt><trkpt lat="43.48155" lon="10.88254"><ele>272.0</ele><time>2026-05-01T09:13:18.728Z</time></trkpt><trkpt lat="43.48146" lon="10.8824617"><ele>272.0</ele><time>2026-05-01T09:13:19.727Z</time></trkpt><trkpt lat="43.4813933" lon="10.8823567"><ele>272.0</ele><time>2026-05-01T09:13:20.728Z</time></trkpt><trkpt lat="43.481345" lon="10.8821983"><ele>272.0</ele><time>2026-05-01T09:13:21.728Z</time></trkpt><trkpt lat="43.4813117" lon="10.8819933"><ele>272.0</ele><time>2026-05-01T09:13:22.726Z</time></trkpt><trkpt lat="43.4812917" lon="10.8817733"><ele>273.25</ele><time>2026-05-01T09:13:23.727Z</time></trkpt><trkpt lat="43.481265" lon="10.8815667"><ele>274.5</ele><time>2026-05-01T09:13:24.727Z</time></trkpt><trkpt lat="43.4812467" lon="10.8813683"><ele>275.75</ele><time>2026-05-01T09:13:25.727Z</time></trkpt><trkpt lat="43.4812033" lon="10.88118"><ele>277.0</ele><time>2026-05-01T09:13:26.726Z</time></trkpt><trkpt lat="43.481125" lon="10.8809833"><ele>274.0</ele><time>2026-05-01T09:13:27.728Z</time></trkpt><trkpt lat="43.48103" lon="10.88077"><ele>271.0</ele><time>2026-05-01T09:13:28.727Z</time></trkpt><trkpt lat="43.4809267" lon="10.8805333"><ele>268.0</ele><time>2026-05-01T09:13:29.727Z</time></trkpt><trkpt lat="43.48082" lon="10.8802767"><ele>266.0</ele><time>2026-05-01T09:13:30.727Z</time></trkpt><trkpt lat="43.480715" lon="10.8799983"><ele>264.0</ele><time>2026-05-01T09:13:31.728Z</time></trkpt><trkpt lat="43.4805967" lon="10.879745"><ele>262.0</ele><time>2026-05-01T09:13:32.726Z</time></trkpt><trkpt lat="43.4804867" lon="10.8794683"><ele>261.5</ele><time>2026-05-01T09:13:33.726Z</time></trkpt><trkpt lat="43.4803833" lon="10.8791867"><ele>261.0</ele><time>2026-05-01T09:13:34.728Z</time></trkpt><trkpt lat="43.4802683" lon="10.8789067"><ele>261.0</ele><time>2026-05-01T09:13:35.727Z</time></trkpt><trkpt lat="43.4801333" lon="10.8786017"><ele>261.0</ele><time>2026-05-01T09:13:36.727Z</time></trkpt><trkpt lat="43.48001" lon="10.8783167"><ele>256.5</ele><time>2026-05-01T09:13:37.727Z</time></trkpt><trkpt lat="43.4798817" lon="10.87803"><ele>252.0</ele><time>2026-05-01T09:13:38.728Z</time></trkpt><trkpt lat="43.47975" lon="10.8777533"><ele>252.0</ele><time>2026-05-01T09:13:39.728Z</time></trkpt><trkpt lat="43.4796267" lon="10.877485"><ele>252.0</ele><time>2026-05-01T09:13:40.726Z</time></trkpt><trkpt lat="43.4795167" lon="10.8772283"><ele>252.0</ele><time>2026-05-01T09:13:41.728Z</time></trkpt><trkpt lat="43.4794183" lon="10.8769733"><ele>252.0</ele><time>2026-05-01T09:13:42.727Z</time></trkpt><trkpt lat="43.47936" lon="10.8767117"><ele>252.0</ele><time>2026-05-01T09:13:43.726Z</time></trkpt><trkpt lat="43.4793217" lon="10.876445"><ele>252.0</ele><time>2026-05-01T09:13:44.727Z</time></trkpt><trkpt lat="43.4792983" lon="10.8761883"><ele>252.0</ele><time>2026-05-01T09:13:45.726Z</time></trkpt><trkpt lat="43.479285" lon="10.875945"><ele>252.0</ele><time>2026-05-01T09:13:46.728Z</time></trkpt><trkpt lat="43.4792533" lon="10.8757117"><ele>252.0</ele><time>2026-05-01T09:13:47.728Z</time></trkpt><trkpt lat="43.4791933" lon="10.87551"><ele>251.0</ele><time>2026-05-01T09:13:48.728Z</time></trkpt><trkpt lat="43.47908" lon="10.8753617"><ele>250.0</ele><time>2026-05-01T09:13:49.728Z</time></trkpt><trkpt lat="43.4789283" lon="10.8752467"><ele>249.0</ele><time>2026-05-01T09:13:50.727Z</time></trkpt><trkpt lat="43.4787683" lon="10.8751433"><ele>247.0</ele><time>2026-05-01T09:13:51.728Z</time></trkpt><trkpt lat="43.4785883" lon="10.8750333"><ele>245.0</ele><time>2026-05-01T09:13:52.726Z</time></trkpt><trkpt lat="43.47839" lon="10.874915"><ele>243.0</ele><time>2026-05-01T09:13:53.727Z</time></trkpt><trkpt lat="43.4781833" lon="10.8747867"><ele>243.0</ele><time>2026-05-01T09:13:54.726Z</time></trkpt><trkpt lat="43.4779933" lon="10.874665"><ele>243.0</ele><time>2026-05-01T09:13:55.726Z</time></trkpt><trkpt lat="43.4778017" lon="10.87454"><ele>243.0</ele><time>2026-05-01T09:13:56.727Z</time></trkpt><trkpt lat="43.477605" lon="10.8743967"><ele>237.5</ele><time>2026-05-01T09:13:57.727Z</time></trkpt><trkpt lat="43.477405" lon="10.8742417"><ele>232.0</ele><time>2026-05-01T09:13:58.726Z</time></trkpt><trkpt lat="43.477215" lon="10.87407"><ele>231.5</ele><time>2026-05-01T09:13:59.727Z</time></trkpt><trkpt lat="43.4770267" lon="10.873885"><ele>231.0</ele><time>2026-05-01T09:14:00.727Z</time></trkpt><trkpt lat="43.47684" lon="10.8736933"><ele>231.0</ele><time>2026-05-01T09:14:01.727Z</time></trkpt><trkpt lat="43.4766567" lon="10.873505"><ele>231.0</ele><time>2026-05-01T09:14:02.727Z</time></trkpt><trkpt lat="43.476475" lon="10.87332"><ele>229.33333333333331</ele><time>2026-05-01T09:14:03.726Z</time></trkpt><trkpt lat="43.4762983" lon="10.8731433"><ele>227.66666666666666</ele><time>2026-05-01T09:14:04.727Z</time></trkpt><trkpt lat="43.4761267" lon="10.8729733"><ele>226.0</ele><time>2026-05-01T09:14:05.728Z</time></trkpt><trkpt lat="43.47596" lon="10.872795"><ele>224.33333333333331</ele><time>2026-05-01T09:14:06.727Z</time></trkpt><trkpt lat="43.4758067" lon="10.8725933"><ele>222.66666666666669</ele><time>2026-05-01T09:14:07.726Z</time></trkpt><trkpt lat="43.4756733" lon="10.8723667"><ele>221.0</ele><time>2026-05-01T09:14:08.728Z</time></trkpt><trkpt lat="43.47556" lon="10.8721217"><ele>221.0</ele><time>2026-05-01T09:14:09.728Z</time></trkpt><trkpt lat="43.4754533" lon="10.8718633"><ele>221.0</ele><time>2026-05-01T09:14:10.727Z</time></trkpt><trkpt lat="43.4753567" lon="10.871585"><ele>221.0</ele><time>2026-05-01T09:14:11.728Z</time></trkpt><trkpt lat="43.4752783" lon="10.8712933"><ele>219.5</ele><time>2026-05-01T09:14:12.727Z</time></trkpt><trkpt lat="43.4752117" lon="10.8709883"><ele>218.0</ele><time>2026-05-01T09:14:13.728Z</time></trkpt><trkpt lat="43.475155" lon="10.87068"><ele>218.0</ele><time>2026-05-01T09:14:14.727Z</time></trkpt><trkpt lat="43.4751033" lon="10.8703683"><ele>218.0</ele><time>2026-05-01T09:14:15.727Z</time></trkpt><trkpt lat="43.4750533" lon="10.8700617"><ele>218.5</ele><time>2026-05-01T09:14:16.728Z</time></trkpt><trkpt lat="43.4749983" lon="10.8697567"><ele>219.0</ele><time>2026-05-01T09:14:17.728Z</time></trkpt><trkpt lat="43.47495" lon="10.8694583"><ele>219.0</ele><time>2026-05-01T09:14:18.727Z</time></trkpt><trkpt lat="43.4749" lon="10.86917"><ele>219.0</ele><time>2026-05-01T09:14:19.728Z</time></trkpt><trkpt lat="43.4748567" lon="10.8688867"><ele>219.0</ele><time>2026-05-01T09:14:20.728Z</time></trkpt><trkpt lat="43.474805" lon="10.8686117"><ele>217.66666666666669</ele><time>2026-05-01T09:14:21.726Z</time></trkpt><trkpt lat="43.4747417" lon="10.868345"><ele>216.33333333333334</ele><time>2026-05-01T09:14:22.727Z</time></trkpt><trkpt lat="43.474655" lon="10.868095"><ele>215.0</ele><time>2026-05-01T09:14:23.727Z</time></trkpt><trkpt lat="43.4745433" lon="10.86786"><ele>214.33333333333334</ele><time>2026-05-01T09:14:24.727Z</time></trkpt><trkpt lat="43.4744233" lon="10.8676317"><ele>213.66666666666669</ele><time>2026-05-01T09:14:25.728Z</time></trkpt><trkpt lat="43.4742967" lon="10.8674083"><ele>213.0</ele><time>2026-05-01T09:14:26.728Z</time></trkpt><trkpt lat="43.4741667" lon="10.8672"><ele>213.0</ele><time>2026-05-01T09:14:27.728Z</time></trkpt><trkpt lat="43.4740367" lon="10.8669883"><ele>213.0</ele><time>2026-05-01T09:14:28.726Z</time></trkpt><trkpt lat="43.47391" lon="10.866775"><ele>213.0</ele><time>2026-05-01T09:14:29.727Z</time></trkpt><trkpt lat="43.473785" lon="10.8665583"><ele>212.33333333333331</ele><time>2026-05-01T09:14:30.729Z</time></trkpt><trkpt lat="43.4736567" lon="10.866345"><ele>211.66666666666666</ele><time>2026-05-01T09:14:31.728Z</time></trkpt><trkpt lat="43.4735283" lon="10.8661367"><ele>211.0</ele><time>2026-05-01T09:14:32.727Z</time></trkpt><trkpt lat="43.4734" lon="10.86593"><ele>211.0</ele><time>2026-05-01T09:14:33.727Z</time></trkpt><trkpt lat="43.47327" lon="10.8657217"><ele>211.0</ele><time>2026-05-01T09:14:34.727Z</time></trkpt><trkpt lat="43.4731417" lon="10.86551"><ele>211.0</ele><time>2026-05-01T09:14:35.728Z</time></trkpt><trkpt lat="43.473015" lon="10.8653017"><ele>211.0</ele><time>2026-05-01T09:14:36.728Z</time></trkpt><trkpt lat="43.4728833" lon="10.86509"><ele>211.0</ele><time>2026-05-01T09:14:37.728Z</time></trkpt><trkpt lat="43.47275" lon="10.8648767"><ele>211.0</ele><time>2026-05-01T09:14:38.728Z</time></trkpt><trkpt lat="43.4726183" lon="10.8646533"><ele>211.0</ele><time>2026-05-01T09:14:39.727Z</time></trkpt><trkpt lat="43.472485" lon="10.8644267"><ele>211.0</ele><time>2026-05-01T09:14:40.727Z</time></trkpt><trkpt lat="43.4723617" lon="10.8641983"><ele>211.0</ele><time>2026-05-01T09:14:41.728Z</time></trkpt><trkpt lat="43.47226" lon="10.8639683"><ele>209.66666666666666</ele><time>2026-05-01T09:14:42.728Z</time></trkpt><trkpt lat="43.47218" lon="10.8637283"><ele>208.33333333333331</ele><time>2026-05-01T09:14:43.727Z</time></trkpt><trkpt lat="43.4721183" lon="10.86348"><ele>207.0</ele><time>2026-05-01T09:14:44.727Z</time></trkpt><trkpt lat="43.4720967" lon="10.863215"><ele>206.33333333333331</ele><time>2026-05-01T09:14:45.727Z</time></trkpt><trkpt lat="43.4721017" lon="10.8629383"><ele>205.66666666666666</ele><time>2026-05-01T09:14:46.727Z</time></trkpt><trkpt lat="43.4721167" lon="10.8626517"><ele>205.0</ele><time>2026-05-01T09:14:47.728Z</time></trkpt><trkpt lat="43.4721267" lon="10.8623667"><ele>204.66666666666666</ele><time>2026-05-01T09:14:48.727Z</time></trkpt><trkpt lat="43.4721367" lon="10.8620933"><ele>204.33333333333331</ele><time>2026-05-01T09:14:49.728Z</time></trkpt><trkpt lat="43.4721417" lon="10.8618333"><ele>204.0</ele><time>2026-05-01T09:14:50.729Z</time></trkpt><trkpt lat="43.47214" lon="10.8615767"><ele>204.0</ele><time>2026-05-01T09:14:51.727Z</time></trkpt><trkpt lat="43.4721217" lon="10.8613183"><ele>204.0</ele><time>2026-05-01T09:14:52.726Z</time></trkpt><trkpt lat="43.4720833" lon="10.861065"><ele>204.0</ele><time>2026-05-01T09:14:53.727Z</time></trkpt><trkpt lat="43.4720217" lon="10.860815"><ele>205.0</ele><time>2026-05-01T09:14:54.728Z</time></trkpt><trkpt lat="43.47194" lon="10.8605683"><ele>206.0</ele><time>2026-05-01T09:14:55.726Z</time></trkpt><trkpt lat="43.4718483" lon="10.86032"><ele>207.0</ele><time>2026-05-01T09:14:56.729Z</time></trkpt><trkpt lat="43.4717633" lon="10.860065"><ele>207.0</ele><time>2026-05-01T09:14:57.728Z</time></trkpt><trkpt lat="43.4716817" lon="10.8598033"><ele>207.0</ele><time>2026-05-01T09:14:58.728Z</time></trkpt><trkpt lat="43.4716067" lon="10.8595317"><ele>207.0</ele><time>2026-05-01T09:14:59.728Z</time></trkpt><trkpt lat="43.4715383" lon="10.859255"><ele>206.0</ele><time>2026-05-01T09:15:00.728Z</time></trkpt><trkpt lat="43.471475" lon="10.8589833"><ele>205.0</ele><time>2026-05-01T09:15:01.727Z</time></trkpt><trkpt lat="43.471415" lon="10.858725"><ele>204.0</ele><time>2026-05-01T09:15:02.73Z</time></trkpt><trkpt lat="43.47136" lon="10.8584767"><ele>203.66666666666669</ele><time>2026-05-01T09:15:03.726Z</time></trkpt><trkpt lat="43.4713133" lon="10.8582367"><ele>203.33333333333334</ele><time>2026-05-01T09:15:04.727Z</time></trkpt><trkpt lat="43.4712617" lon="10.8580067"><ele>203.0</ele><time>2026-05-01T09:15:05.726Z</time></trkpt><trkpt lat="43.4712133" lon="10.8577817"><ele>202.66666666666669</ele><time>2026-05-01T09:15:06.727Z</time></trkpt><trkpt lat="43.4711667" lon="10.8575583"><ele>202.33333333333331</ele><time>2026-05-01T09:15:07.728Z</time></trkpt><trkpt lat="43.47114" lon="10.8573217"><ele>202.0</ele><time>2026-05-01T09:15:08.728Z</time></trkpt><trkpt lat="43.47113" lon="10.8570733"><ele>202.0</ele><time>2026-05-01T09:15:09.727Z</time></trkpt><trkpt lat="43.47114" lon="10.8568183"><ele>202.0</ele><time>2026-05-01T09:15:10.728Z</time></trkpt><trkpt lat="43.4711567" lon="10.85656"><ele>202.0</ele><time>2026-05-01T09:15:11.728Z</time></trkpt><trkpt lat="43.471185" lon="10.8562967"><ele>204.0</ele><time>2026-05-01T09:15:12.728Z</time></trkpt><trkpt lat="43.471205" lon="10.85604"><ele>206.0</ele><time>2026-05-01T09:15:13.728Z</time></trkpt><trkpt lat="43.4712033" lon="10.8557767"><ele>208.0</ele><time>2026-05-01T09:15:14.73Z</time></trkpt><trkpt lat="43.4711817" lon="10.8555083"><ele>208.66666666666666</ele><time>2026-05-01T09:15:15.729Z</time></trkpt><trkpt lat="43.4711433" lon="10.855235"><ele>209.33333333333331</ele><time>2026-05-01T09:15:16.73Z</time></trkpt><trkpt lat="43.4710967" lon="10.8549617"><ele>210.0</ele><time>2026-05-01T09:15:17.728Z</time></trkpt><trkpt lat="43.471045" lon="10.85469"><ele>210.0</ele><time>2026-05-01T09:15:18.727Z</time></trkpt><trkpt lat="43.471" lon="10.8544133"><ele>210.0</ele><time>2026-05-01T09:15:19.727Z</time></trkpt><trkpt lat="43.4709717" lon="10.854135"><ele>210.0</ele><time>2026-05-01T09:15:20.728Z</time></trkpt><trkpt lat="43.470985" lon="10.853855"><ele>207.66666666666669</ele><time>2026-05-01T09:15:21.727Z</time></trkpt><trkpt lat="43.4710267" lon="10.853575"><ele>205.33333333333334</ele><time>2026-05-01T09:15:22.728Z</time></trkpt><trkpt lat="43.4710833" lon="10.8532983"><ele>203.0</ele><time>2026-05-01T09:15:23.728Z</time></trkpt><trkpt lat="43.4711433" lon="10.8530267"><ele>201.33333333333334</ele><time>2026-05-01T09:15:24.728Z</time></trkpt><trkpt lat="43.4712" lon="10.8527667"><ele>199.66666666666669</ele><time>2026-05-01T09:15:25.729Z</time></trkpt><trkpt lat="43.4712483" lon="10.8525117"><ele>198.0</ele><time>2026-05-01T09:15:26.729Z</time></trkpt><trkpt lat="43.4712833" lon="10.85226"><ele>198.0</ele><time>2026-05-01T09:15:27.73Z</time></trkpt><trkpt lat="43.471295" lon="10.852"><ele>198.0</ele><time>2026-05-01T09:15:28.729Z</time></trkpt><trkpt lat="43.4712867" lon="10.8517433"><ele>198.0</ele><time>2026-05-01T09:15:29.727Z</time></trkpt><trkpt lat="43.4712433" lon="10.8514867"><ele>195.33333333333334</ele><time>2026-05-01T09:15:30.729Z</time></trkpt><trkpt lat="43.47119" lon="10.85123"><ele>192.66666666666669</ele><time>2026-05-01T09:15:31.729Z</time></trkpt><trkpt lat="43.4711317" lon="10.8509733"><ele>190.0</ele><time>2026-05-01T09:15:32.73Z</time></trkpt><trkpt lat="43.4710767" lon="10.850725"><ele>190.0</ele><time>2026-05-01T09:15:33.727Z</time></trkpt><trkpt lat="43.471025" lon="10.8504883"><ele>190.0</ele><time>2026-05-01T09:15:34.728Z</time></trkpt><trkpt lat="43.4709767" lon="10.8502517"><ele>190.0</ele><time>2026-05-01T09:15:35.727Z</time></trkpt><trkpt lat="43.4709217" lon="10.8500167"><ele>191.66666666666669</ele><time>2026-05-01T09:15:36.729Z</time></trkpt><trkpt lat="43.4708667" lon="10.8497767"><ele>193.33333333333334</ele><time>2026-05-01T09:15:37.729Z</time></trkpt><trkpt lat="43.470805" lon="10.849535"><ele>195.0</ele><time>2026-05-01T09:15:38.729Z</time></trkpt><trkpt lat="43.4707417" lon="10.84929"><ele>197.33333333333331</ele><time>2026-05-01T09:15:39.727Z</time></trkpt><trkpt lat="43.4706733" lon="10.8490433"><ele>199.66666666666666</ele><time>2026-05-01T09:15:40.726Z</time></trkpt><trkpt lat="43.4705983" lon="10.8487983"><ele>202.0</ele><time>2026-05-01T09:15:41.726Z</time></trkpt><trkpt lat="43.470525" lon="10.8485517"><ele>203.0</ele><time>2026-05-01T09:15:42.727Z</time></trkpt><trkpt lat="43.470455" lon="10.8483033"><ele>204.0</ele><time>2026-05-01T09:15:43.728Z</time></trkpt><trkpt lat="43.4703867" lon="10.8480567"><ele>205.0</ele><time>2026-05-01T09:15:44.728Z</time></trkpt><trkpt lat="43.4703133" lon="10.847815"><ele>200.0</ele><time>2026-05-01T09:15:45.727Z</time></trkpt><trkpt lat="43.470235" lon="10.8475767"><ele>195.0</ele><time>2026-05-01T09:15:46.727Z</time></trkpt><trkpt lat="43.4701483" lon="10.8473433"><ele>190.0</ele><time>2026-05-01T09:15:47.728Z</time></trkpt><trkpt lat="43.4700533" lon="10.8471133"><ele>190.0</ele><time>2026-05-01T09:15:48.727Z</time></trkpt><trkpt lat="43.4699517" lon="10.8468933"><ele>190.0</ele><time>2026-05-01T09:15:49.729Z</time></trkpt><trkpt lat="43.4698467" lon="10.8466867"><ele>190.0</ele><time>2026-05-01T09:15:50.729Z</time></trkpt><trkpt lat="43.4697433" lon="10.8464933"><ele>192.66666666666669</ele><time>2026-05-01T09:15:51.728Z</time></trkpt><trkpt lat="43.4696417" lon="10.8463167"><ele>195.33333333333334</ele><time>2026-05-01T09:15:52.727Z</time></trkpt><trkpt lat="43.4695633" lon="10.846135"><ele>198.0</ele><time>2026-05-01T09:15:53.726Z</time></trkpt><trkpt lat="43.4695067" lon="10.8459367"><ele>192.66666666666666</ele><time>2026-05-01T09:15:54.726Z</time></trkpt><trkpt lat="43.4694767" lon="10.8457233"><ele>187.33333333333331</ele><time>2026-05-01T09:15:55.727Z</time></trkpt><trkpt lat="43.4694733" lon="10.845495"><ele>182.0</ele><time>2026-05-01T09:15:56.727Z</time></trkpt><trkpt lat="43.469485" lon="10.8452567"><ele>183.0</ele><time>2026-05-01T09:15:57.728Z</time></trkpt><trkpt lat="43.4694967" lon="10.845015"><ele>184.0</ele><time>2026-05-01T09:15:58.728Z</time></trkpt><trkpt lat="43.4695117" lon="10.8447683"><ele>185.0</ele><time>2026-05-01T09:15:59.727Z</time></trkpt><trkpt lat="43.4695267" lon="10.8445183"><ele>184.0</ele><time>2026-05-01T09:16:00.727Z</time></trkpt><trkpt lat="43.4695383" lon="10.8442683"><ele>183.0</ele><time>2026-05-01T09:16:01.728Z</time></trkpt><trkpt lat="43.4695317" lon="10.84401"><ele>182.0</ele><time>2026-05-01T09:16:02.728Z</time></trkpt><trkpt lat="43.469505" lon="10.8437517"><ele>182.0</ele><time>2026-05-01T09:16:03.729Z</time></trkpt><trkpt lat="43.4694533" lon="10.8435"><ele>182.0</ele><time>2026-05-01T09:16:04.727Z</time></trkpt><trkpt lat="43.4693917" lon="10.84326"><ele>182.0</ele><time>2026-05-01T09:16:05.727Z</time></trkpt><trkpt lat="43.4693267" lon="10.8430317"><ele>185.0</ele><time>2026-05-01T09:16:06.73Z</time></trkpt><trkpt lat="43.4692633" lon="10.8428083"><ele>188.0</ele><time>2026-05-01T09:16:07.727Z</time></trkpt><trkpt lat="43.46921" lon="10.8425967"><ele>191.0</ele><time>2026-05-01T09:16:08.729Z</time></trkpt><trkpt lat="43.4691683" lon="10.8423883"><ele>191.25</ele><time>2026-05-01T09:16:09.727Z</time></trkpt><trkpt lat="43.4691467" lon="10.8421883"><ele>191.5</ele><time>2026-05-01T09:16:10.727Z</time></trkpt><trkpt lat="43.4691467" lon="10.841985"><ele>191.75</ele><time>2026-05-01T09:16:11.726Z</time></trkpt><trkpt lat="43.4691733" lon="10.8417833"><ele>192.0</ele><time>2026-05-01T09:16:12.727Z</time></trkpt><trkpt lat="43.4692433" lon="10.8415833"><ele>192.25</ele><time>2026-05-01T09:16:13.728Z</time></trkpt><trkpt lat="43.46932" lon="10.8413983"><ele>192.5</ele><time>2026-05-01T09:16:14.727Z</time></trkpt><trkpt lat="43.4693717" lon="10.8412133"><ele>192.75</ele><time>2026-05-01T09:16:15.728Z</time></trkpt><trkpt lat="43.4694067" lon="10.8410217"><ele>193.0</ele><time>2026-05-01T09:16:16.728Z</time></trkpt><trkpt lat="43.4694" lon="10.8408167"><ele>194.66666666666666</ele><time>2026-05-01T09:16:17.729Z</time></trkpt><trkpt lat="43.4693567" lon="10.8406067"><ele>196.33333333333331</ele><time>2026-05-01T09:16:18.727Z</time></trkpt><trkpt lat="43.4692883" lon="10.84039"><ele>198.0</ele><time>2026-05-01T09:16:19.727Z</time></trkpt><trkpt lat="43.469215" lon="10.84017"><ele>195.66666666666666</ele><time>2026-05-01T09:16:20.729Z</time></trkpt><trkpt lat="43.4691467" lon="10.8399483"><ele>193.33333333333331</ele><time>2026-05-01T09:16:21.727Z</time></trkpt><trkpt lat="43.4690733" lon="10.83972"><ele>191.0</ele><time>2026-05-01T09:16:22.727Z</time></trkpt><trkpt lat="43.4690033" lon="10.8394833"><ele>186.66666666666666</ele><time>2026-05-01T09:16:23.727Z</time></trkpt><trkpt lat="43.4689383" lon="10.8392467"><ele>182.33333333333334</ele><time>2026-05-01T09:16:24.727Z</time></trkpt><trkpt lat="43.4688733" lon="10.839015"><ele>178.0</ele><time>2026-05-01T09:16:25.728Z</time></trkpt><trkpt lat="43.46881" lon="10.8387817"><ele>183.33333333333334</ele><time>2026-05-01T09:16:26.729Z</time></trkpt><trkpt lat="43.4687383" lon="10.8385583"><ele>188.66666666666669</ele><time>2026-05-01T09:16:27.727Z</time></trkpt><trkpt lat="43.4686667" lon="10.83834"><ele>194.0</ele><time>2026-05-01T09:16:28.727Z</time></trkpt><trkpt lat="43.4685883" lon="10.8381317"><ele>194.0</ele><time>2026-05-01T09:16:29.727Z</time></trkpt><trkpt lat="43.4684967" lon="10.8379283"><ele>194.0</ele><time>2026-05-01T09:16:30.728Z</time></trkpt><trkpt lat="43.468395" lon="10.83774"><ele>194.0</ele><time>2026-05-01T09:16:31.728Z</time></trkpt><trkpt lat="43.4682817" lon="10.8375567"><ele>192.0</ele><time>2026-05-01T09:16:32.729Z</time></trkpt><trkpt lat="43.4681533" lon="10.8373917"><ele>190.0</ele><time>2026-05-01T09:16:33.728Z</time></trkpt><trkpt lat="43.4680217" lon="10.83724"><ele>188.0</ele><time>2026-05-01T09:16:34.727Z</time></trkpt><trkpt lat="43.4678833" lon="10.8371117"><ele>188.0</ele><time>2026-05-01T09:16:35.726Z</time></trkpt><trkpt lat="43.4677267" lon="10.8370033"><ele>188.0</ele><time>2026-05-01T09:16:36.728Z</time></trkpt><trkpt lat="43.4675583" lon="10.83691"><ele>188.0</ele><time>2026-05-01T09:16:37.728Z</time></trkpt><trkpt lat="43.4673883" lon="10.83684"><ele>184.66666666666666</ele><time>2026-05-01T09:16:38.727Z</time></trkpt><trkpt lat="43.4672183" lon="10.836775"><ele>181.33333333333334</ele><time>2026-05-01T09:16:39.727Z</time></trkpt><trkpt lat="43.467045" lon="10.8366983"><ele>178.0</ele><time>2026-05-01T09:16:40.728Z</time></trkpt><trkpt lat="43.46688" lon="10.836615"><ele>178.0</ele><time>2026-05-01T09:16:41.726Z</time></trkpt><trkpt lat="43.4667183" lon="10.8365033"><ele>178.0</ele><time>2026-05-01T09:16:42.727Z</time></trkpt><trkpt lat="43.4665617" lon="10.8363817"><ele>178.0</ele><time>2026-05-01T09:16:43.727Z</time></trkpt><trkpt lat="43.4664083" lon="10.8362467"><ele>177.0</ele><time>2026-05-01T09:16:44.728Z</time></trkpt><trkpt lat="43.4662683" lon="10.8360917"><ele>176.0</ele><time>2026-05-01T09:16:45.728Z</time></trkpt><trkpt lat="43.4661417" lon="10.8359083"><ele>175.0</ele><time>2026-05-01T09:16:46.727Z</time></trkpt><trkpt lat="43.4660283" lon="10.8357117"><ele>175.0</ele><time>2026-05-01T09:16:47.727Z</time></trkpt><trkpt lat="43.4659317" lon="10.8355117"><ele>175.0</ele><time>2026-05-01T09:16:48.728Z</time></trkpt><trkpt lat="43.4658433" lon="10.835315"><ele>175.0</ele><time>2026-05-01T09:16:49.728Z</time></trkpt><trkpt lat="43.4657583" lon="10.8351217"><ele>172.33333333333334</ele><time>2026-05-01T09:16:50.728Z</time></trkpt><trkpt lat="43.465675" lon="10.8349417"><ele>169.66666666666666</ele><time>2026-05-01T09:16:51.728Z</time></trkpt><trkpt lat="43.4655917" lon="10.8347667"><ele>167.0</ele><time>2026-05-01T09:16:52.727Z</time></trkpt><trkpt lat="43.4655067" lon="10.8346"><ele>166.25</ele><time>2026-05-01T09:16:53.728Z</time></trkpt><trkpt lat="43.4654283" lon="10.834435"><ele>165.5</ele><time>2026-05-01T09:16:54.727Z</time></trkpt><trkpt lat="43.4653483" lon="10.8342683"><ele>164.75</ele><time>2026-05-01T09:16:55.728Z</time></trkpt><trkpt lat="43.4652617" lon="10.8341017"><ele>164.0</ele><time>2026-05-01T09:16:56.727Z</time></trkpt><trkpt lat="43.4651783" lon="10.8339267"><ele>163.66666666666666</ele><time>2026-05-01T09:16:57.727Z</time></trkpt><trkpt lat="43.46509" lon="10.8337483"><ele>163.33333333333334</ele><time>2026-05-01T09:16:58.728Z</time></trkpt><trkpt lat="43.464995" lon="10.8335617"><ele>163.0</ele><time>2026-05-01T09:16:59.727Z</time></trkpt><trkpt lat="43.4649067" lon="10.8333817"><ele>162.0</ele><time>2026-05-01T09:17:00.727Z</time></trkpt><trkpt lat="43.4648167" lon="10.8332083"><ele>161.0</ele><time>2026-05-01T09:17:01.728Z</time></trkpt><trkpt lat="43.46472" lon="10.83305"><ele>160.0</ele><time>2026-05-01T09:17:02.728Z</time></trkpt><trkpt lat="43.4646217" lon="10.8329"><ele>159.25</ele><time>2026-05-01T09:17:03.728Z</time></trkpt><trkpt lat="43.464515" lon="10.8327717"><ele>158.5</ele><time>2026-05-01T09:17:04.727Z</time></trkpt><trkpt lat="43.4643983" lon="10.8326617"><ele>157.75</ele><time>2026-05-01T09:17:05.729Z</time></trkpt><trkpt lat="43.4642683" lon="10.8325683"><ele>157.0</ele><time>2026-05-01T09:17:06.727Z</time></trkpt><trkpt lat="43.4641317" lon="10.83249"><ele>157.0</ele><time>2026-05-01T09:17:07.727Z</time></trkpt><trkpt lat="43.4639933" lon="10.832425"><ele>157.0</ele><time>2026-05-01T09:17:08.728Z</time></trkpt><trkpt lat="43.4638583" lon="10.8323667"><ele>157.0</ele><time>2026-05-01T09:17:09.727Z</time></trkpt><trkpt lat="43.46372" lon="10.83233"><ele>157.0</ele><time>2026-05-01T09:17:10.727Z</time></trkpt><trkpt lat="43.4635817" lon="10.8322917"><ele>154.75</ele><time>2026-05-01T09:17:11.728Z</time></trkpt><trkpt lat="43.4634367" lon="10.8322567"><ele>152.5</ele><time>2026-05-01T09:17:12.727Z</time></trkpt><trkpt lat="43.46329" lon="10.8322167"><ele>150.25</ele><time>2026-05-01T09:17:13.728Z</time></trkpt><trkpt lat="43.46314" lon="10.8321783"><ele>148.0</ele><time>2026-05-01T09:17:14.728Z</time></trkpt><trkpt lat="43.4629933" lon="10.83213"><ele>144.5</ele><time>2026-05-01T09:17:15.727Z</time></trkpt><trkpt lat="43.4628467" lon="10.832085"><ele>141.0</ele><time>2026-05-01T09:17:16.726Z</time></trkpt><trkpt lat="43.4627017" lon="10.83204"><ele>137.5</ele><time>2026-05-01T09:17:17.728Z</time></trkpt><trkpt lat="43.4625583" lon="10.8319917"><ele>134.0</ele><time>2026-05-01T09:17:18.729Z</time></trkpt><trkpt lat="43.4624267" lon="10.8319383"><ele>134.0</ele><time>2026-05-01T09:17:19.728Z</time></trkpt><trkpt lat="43.4622933" lon="10.8318817"><ele>134.0</ele><time>2026-05-01T09:17:20.728Z</time></trkpt><trkpt lat="43.4621617" lon="10.8318317"><ele>134.0</ele><time>2026-05-01T09:17:21.726Z</time></trkpt><trkpt lat="43.462035" lon="10.8317833"><ele>134.0</ele><time>2026-05-01T09:17:22.727Z</time></trkpt><trkpt lat="43.4619083" lon="10.8317283"><ele>133.5</ele><time>2026-05-01T09:17:23.728Z</time></trkpt><trkpt lat="43.4617833" lon="10.8316733"><ele>133.0</ele><time>2026-05-01T09:17:24.727Z</time></trkpt><trkpt lat="43.4616567" lon="10.831615"><ele>132.5</ele><time>2026-05-01T09:17:25.728Z</time></trkpt><trkpt lat="43.4615217" lon="10.8315567"><ele>132.0</ele><time>2026-05-01T09:17:26.73Z</time></trkpt><trkpt lat="43.4613783" lon="10.8315"><ele>132.0</ele><time>2026-05-01T09:17:27.726Z</time></trkpt><trkpt lat="43.4612367" lon="10.8314383"><ele>132.0</ele><time>2026-05-01T09:17:28.726Z</time></trkpt><trkpt lat="43.46109" lon="10.8313767"><ele>132.0</ele><time>2026-05-01T09:17:29.728Z</time></trkpt><trkpt lat="43.4609417" lon="10.8313117"><ele>132.0</ele><time>2026-05-01T09:17:30.728Z</time></trkpt><trkpt lat="43.4607867" lon="10.8312483"><ele>132.0</ele><time>2026-05-01T09:17:31.728Z</time></trkpt><trkpt lat="43.46063" lon="10.831185"><ele>132.0</ele><time>2026-05-01T09:17:32.728Z</time></trkpt><trkpt lat="43.46047" lon="10.8311167"><ele>131.66666666666666</ele><time>2026-05-01T09:17:33.727Z</time></trkpt><trkpt lat="43.4603133" lon="10.8310433"><ele>131.33333333333331</ele><time>2026-05-01T09:17:34.727Z</time></trkpt><trkpt lat="43.4601533" lon="10.83097"><ele>131.0</ele><time>2026-05-01T09:17:35.727Z</time></trkpt><trkpt lat="43.459995" lon="10.8308983"><ele>127.0</ele><time>2026-05-01T09:17:36.727Z</time></trkpt><trkpt lat="43.4598367" lon="10.8308283"><ele>123.0</ele><time>2026-05-01T09:17:37.728Z</time></trkpt><trkpt lat="43.4596767" lon="10.8307583"><ele>119.0</ele><time>2026-05-01T09:17:38.73Z</time></trkpt><trkpt lat="43.4595183" lon="10.8306917"><ele>116.33333333333333</ele><time>2026-05-01T09:17:39.727Z</time></trkpt><trkpt lat="43.4593617" lon="10.8306217"><ele>113.66666666666666</ele><time>2026-05-01T09:17:40.727Z</time></trkpt><trkpt lat="43.4592017" lon="10.8305617"><ele>111.0</ele><time>2026-05-01T09:17:41.727Z</time></trkpt><trkpt lat="43.4590433" lon="10.8305017"><ele>111.0</ele><time>2026-05-01T09:17:42.728Z</time></trkpt><trkpt lat="43.4588933" lon="10.830435"><ele>111.0</ele><time>2026-05-01T09:17:43.728Z</time></trkpt><trkpt lat="43.4587467" lon="10.8303717"><ele>111.0</ele><time>2026-05-01T09:17:44.726Z</time></trkpt><trkpt lat="43.4586083" lon="10.8303117"><ele>108.5</ele><time>2026-05-01T09:17:45.727Z</time></trkpt><trkpt lat="43.458475" lon="10.8302583"><ele>106.0</ele><time>2026-05-01T09:17:46.727Z</time></trkpt><trkpt lat="43.4583467" lon="10.8302067"><ele>103.5</ele><time>2026-05-01T09:17:47.728Z</time></trkpt><trkpt lat="43.4582233" lon="10.8301567"><ele>101.0</ele><time>2026-05-01T09:17:48.728Z</time></trkpt><trkpt lat="43.4581133" lon="10.8301017"><ele>100.99999999999999</ele><time>2026-05-01T09:17:49.725Z</time></trkpt><trkpt lat="43.4580067" lon="10.8300517"><ele>101.0</ele><time>2026-05-01T09:17:50.728Z</time></trkpt><trkpt lat="43.45791" lon="10.8300067"><ele>101.0</ele><time>2026-05-01T09:17:51.728Z</time></trkpt><trkpt lat="43.4578333" lon="10.82997"><ele>101.0</ele><time>2026-05-01T09:17:52.728Z</time></trkpt><trkpt lat="43.4577717" lon="10.8299417"><ele>100.99999999999999</ele><time>2026-05-01T09:17:53.728Z</time></trkpt><trkpt lat="43.45771" lon="10.8299233"><ele>101.0</ele><time>2026-05-01T09:17:54.728Z</time></trkpt><trkpt lat="43.4576067" lon="10.8298867"><ele>101.0</ele><time>2026-05-01T09:17:56.728Z</time></trkpt><trkpt lat="43.457515" lon="10.8298533"><ele>101.0</ele><time>2026-05-01T09:17:58.726Z</time></trkpt><trkpt lat="43.4574333" lon="10.829825"><ele>101.0</ele><time>2026-05-01T09:18:00.728Z</time></trkpt><trkpt lat="43.45736" lon="10.8298"><ele>101.0</ele><time>2026-05-01T09:18:02.73Z</time></trkpt><trkpt lat="43.4572733" lon="10.8297733"><ele>101.0</ele><time>2026-05-01T09:18:04.727Z</time></trkpt><trkpt lat="43.4571633" lon="10.829745"><ele>100.8</ele><time>2026-05-01T09:18:06.728Z</time></trkpt><trkpt lat="43.4570517" lon="10.8297333"><ele>100.6</ele><time>2026-05-01T09:18:08.728Z</time></trkpt><trkpt lat="43.4569467" lon="10.8297317"><ele>100.4</ele><time>2026-05-01T09:18:10.727Z</time></trkpt><trkpt lat="43.4568267" lon="10.8297433"><ele>100.2</ele><time>2026-05-01T09:18:12.729Z</time></trkpt><trkpt lat="43.4567533" lon="10.829755"><ele>100.0</ele><time>2026-05-01T09:18:13.728Z</time></trkpt><trkpt lat="43.4566667" lon="10.8297617"><ele>100.0</ele><time>2026-05-01T09:18:14.727Z</time></trkpt><trkpt lat="43.45657" lon="10.829765"><ele>100.0</ele><time>2026-05-01T09:18:15.727Z</time></trkpt><trkpt lat="43.4564617" lon="10.8297767"><ele>100.0</ele><time>2026-05-01T09:18:16.728Z</time></trkpt><trkpt lat="43.4563533" lon="10.8297967"><ele>100.0</ele><time>2026-05-01T09:18:17.73Z</time></trkpt><trkpt lat="43.4562467" lon="10.82983"><ele>100.0</ele><time>2026-05-01T09:18:18.728Z</time></trkpt><trkpt lat="43.4561367" lon="10.8298683"><ele>100.4</ele><time>2026-05-01T09:18:19.727Z</time></trkpt><trkpt lat="43.456025" lon="10.82991"><ele>100.8</ele><time>2026-05-01T09:18:20.729Z</time></trkpt><trkpt lat="43.4559167" lon="10.8299517"><ele>101.19999999999999</ele><time>2026-05-01T09:18:21.729Z</time></trkpt><trkpt lat="43.45581" lon="10.829995"><ele>101.6</ele><time>2026-05-01T09:18:22.727Z</time></trkpt><trkpt lat="43.455705" lon="10.8300333"><ele>102.0</ele><time>2026-05-01T09:18:23.726Z</time></trkpt><trkpt lat="43.4555983" lon="10.8300817"><ele>102.0</ele><time>2026-05-01T09:18:24.731Z</time></trkpt><trkpt lat="43.4554883" lon="10.83013"><ele>102.0</ele><time>2026-05-01T09:18:25.729Z</time></trkpt><trkpt lat="43.4553733" lon="10.8301833"><ele>102.0</ele><time>2026-05-01T09:18:26.728Z</time></trkpt><trkpt lat="43.4552583" lon="10.8302317"><ele>102.0</ele><time>2026-05-01T09:18:27.727Z</time></trkpt><trkpt lat="43.45514" lon="10.83028"><ele>102.0</ele><time>2026-05-01T09:18:28.727Z</time></trkpt><trkpt lat="43.455015" lon="10.8303317"><ele>102.0</ele><time>2026-05-01T09:18:29.728Z</time></trkpt><trkpt lat="43.4548883" lon="10.8303817"><ele>102.0</ele><time>2026-05-01T09:18:30.728Z</time></trkpt><trkpt lat="43.45476" lon="10.8304267"><ele>102.0</ele><time>2026-05-01T09:18:31.728Z</time></trkpt><trkpt lat="43.454635" lon="10.830455"><ele>102.39999999999999</ele><time>2026-05-01T09:18:32.727Z</time></trkpt><trkpt lat="43.4545167" lon="10.83046"><ele>102.8</ele><time>2026-05-01T09:18:33.728Z</time></trkpt><trkpt lat="43.4544117" lon="10.8304433"><ele>103.2</ele><time>2026-05-01T09:18:34.729Z</time></trkpt><trkpt lat="43.4543233" lon="10.83039"><ele>103.6</ele><time>2026-05-01T09:18:35.728Z</time></trkpt><trkpt lat="43.454255" lon="10.8303067"><ele>104.0</ele><time>2026-05-01T09:18:36.729Z</time></trkpt><trkpt lat="43.4541967" lon="10.8302117"><ele>104.2</ele><time>2026-05-01T09:18:37.728Z</time></trkpt><trkpt lat="43.4541617" lon="10.8300933"><ele>104.4</ele><time>2026-05-01T09:18:38.728Z</time></trkpt><trkpt lat="43.4541333" lon="10.829965"><ele>104.6</ele><time>2026-05-01T09:18:39.727Z</time></trkpt><trkpt lat="43.454105" lon="10.8298183"><ele>104.8</ele><time>2026-05-01T09:18:40.73Z</time></trkpt><trkpt lat="43.454085" lon="10.8296467"><ele>105.0</ele><time>2026-05-01T09:18:41.728Z</time></trkpt><trkpt lat="43.4540883" lon="10.8294067"><ele>105.0</ele><time>2026-05-01T09:18:42.727Z</time></trkpt><trkpt lat="43.4540933" lon="10.829155"><ele>105.0</ele><time>2026-05-01T09:18:43.728Z</time></trkpt><trkpt lat="43.4541" lon="10.8289133"><ele>105.0</ele><time>2026-05-01T09:18:44.728Z</time></trkpt><trkpt lat="43.4541167" lon="10.8286867"><ele>105.33333333333334</ele><time>2026-05-01T09:18:45.728Z</time></trkpt><trkpt lat="43.4541483" lon="10.828455"><ele>105.66666666666667</ele><time>2026-05-01T09:18:46.727Z</time></trkpt><trkpt lat="43.4541867" lon="10.828245"><ele>106.0</ele><time>2026-05-01T09:18:47.729Z</time></trkpt><trkpt lat="43.4542283" lon="10.828035"><ele>106.0</ele><time>2026-05-01T09:18:48.727Z</time></trkpt><trkpt lat="43.454265" lon="10.8278217"><ele>106.0</ele><time>2026-05-01T09:18:49.728Z</time></trkpt><trkpt lat="43.4542783" lon="10.8276067"><ele>106.0</ele><time>2026-05-01T09:18:50.729Z</time></trkpt><trkpt lat="43.454275" lon="10.827385"><ele>106.33333333333334</ele><time>2026-05-01T09:18:51.727Z</time></trkpt><trkpt lat="43.454255" lon="10.8271633"><ele>106.66666666666666</ele><time>2026-05-01T09:18:52.728Z</time></trkpt><trkpt lat="43.454225" lon="10.8269417"><ele>107.0</ele><time>2026-05-01T09:18:53.727Z</time></trkpt><trkpt lat="43.4541983" lon="10.82672"><ele>106.33333333333333</ele><time>2026-05-01T09:18:54.726Z</time></trkpt><trkpt lat="43.454175" lon="10.8264967"><ele>105.66666666666666</ele><time>2026-05-01T09:18:55.728Z</time></trkpt><trkpt lat="43.4541467" lon="10.8262667"><ele>105.0</ele><time>2026-05-01T09:18:56.73Z</time></trkpt><trkpt lat="43.454115" lon="10.8260317"><ele>105.0</ele><time>2026-05-01T09:18:57.728Z</time></trkpt><trkpt lat="43.45408" lon="10.82579"><ele>105.0</ele><time>2026-05-01T09:18:58.728Z</time></trkpt><trkpt lat="43.4540433" lon="10.8255383"><ele>105.0</ele><time>2026-05-01T09:18:59.728Z</time></trkpt><trkpt lat="43.4540083" lon="10.8252833"><ele>103.66666666666666</ele><time>2026-05-01T09:19:00.729Z</time></trkpt><trkpt lat="43.45397" lon="10.825025"><ele>102.33333333333333</ele><time>2026-05-01T09:19:01.727Z</time></trkpt><trkpt lat="43.45393" lon="10.8247633"><ele>101.0</ele><time>2026-05-01T09:19:02.728Z</time></trkpt><trkpt lat="43.4538917" lon="10.8244967"><ele>100.66666666666666</ele><time>2026-05-01T09:19:03.728Z</time></trkpt><trkpt lat="43.4538567" lon="10.8242283"><ele>100.33333333333334</ele><time>2026-05-01T09:19:04.728Z</time></trkpt><trkpt lat="43.45382" lon="10.8239633"><ele>100.0</ele><time>2026-05-01T09:19:05.728Z</time></trkpt><trkpt lat="43.453785" lon="10.82369"><ele>108.66666666666667</ele><time>2026-05-01T09:19:06.727Z</time></trkpt><trkpt lat="43.4537367" lon="10.8234233"><ele>117.33333333333334</ele><time>2026-05-01T09:19:07.727Z</time></trkpt><trkpt lat="43.4536767" lon="10.8231567"><ele>126.0</ele><time>2026-05-01T09:19:08.728Z</time></trkpt><trkpt lat="43.4536033" lon="10.82288"><ele>122.33333333333334</ele><time>2026-05-01T09:19:09.729Z</time></trkpt><trkpt lat="43.4535317" lon="10.8226033"><ele>118.66666666666667</ele><time>2026-05-01T09:19:10.729Z</time></trkpt><trkpt lat="43.4534667" lon="10.822335"><ele>115.0</ele><time>2026-05-01T09:19:11.728Z</time></trkpt><trkpt lat="43.45341" lon="10.8220767"><ele>115.0</ele><time>2026-05-01T09:19:12.727Z</time></trkpt><trkpt lat="43.4533617" lon="10.8218233"><ele>115.0</ele><time>2026-05-01T09:19:13.729Z</time></trkpt><trkpt lat="43.4533083" lon="10.8215817"><ele>115.0</ele><time>2026-05-01T09:19:14.729Z</time></trkpt><trkpt lat="43.4532483" lon="10.8213383"><ele>112.0</ele><time>2026-05-01T09:19:15.726Z</time></trkpt><trkpt lat="43.4531917" lon="10.821095"><ele>109.0</ele><time>2026-05-01T09:19:16.728Z</time></trkpt><trkpt lat="43.4531333" lon="10.8208517"><ele>106.0</ele><time>2026-05-01T09:19:17.729Z</time></trkpt><trkpt lat="43.4530683" lon="10.82061"><ele>105.0</ele><time>2026-05-01T09:19:18.726Z</time></trkpt><trkpt lat="43.4530083" lon="10.8203733"><ele>104.0</ele><time>2026-05-01T09:19:19.727Z</time></trkpt><trkpt lat="43.4529483" lon="10.8201267"><ele>103.0</ele><time>2026-05-01T09:19:20.728Z</time></trkpt><trkpt lat="43.452885" lon="10.81988"><ele>106.66666666666667</ele><time>2026-05-01T09:19:21.727Z</time></trkpt><trkpt lat="43.452815" lon="10.8196367"><ele>110.33333333333334</ele><time>2026-05-01T09:19:22.728Z</time></trkpt><trkpt lat="43.4527517" lon="10.8194033"><ele>114.0</ele><time>2026-05-01T09:19:23.728Z</time></trkpt><trkpt lat="43.45269" lon="10.8191817"><ele>114.0</ele><time>2026-05-01T09:19:24.729Z</time></trkpt><trkpt lat="43.45264" lon="10.8189567"><ele>114.0</ele><time>2026-05-01T09:19:25.728Z</time></trkpt><trkpt lat="43.4525967" lon="10.818725"><ele>114.0</ele><time>2026-05-01T09:19:26.729Z</time></trkpt><trkpt lat="43.4525583" lon="10.8184883"><ele>111.66666666666666</ele><time>2026-05-01T09:19:27.728Z</time></trkpt><trkpt lat="43.4525133" lon="10.8182567"><ele>109.33333333333333</ele><time>2026-05-01T09:19:28.729Z</time></trkpt><trkpt lat="43.45247" lon="10.8180167"><ele>107.0</ele><time>2026-05-01T09:19:29.728Z</time></trkpt><trkpt lat="43.4524317" lon="10.81777"><ele>105.0</ele><time>2026-05-01T09:19:30.727Z</time></trkpt><trkpt lat="43.4523817" lon="10.8175117"><ele>103.0</ele><time>2026-05-01T09:19:31.728Z</time></trkpt><trkpt lat="43.4523217" lon="10.8172533"><ele>101.0</ele><time>2026-05-01T09:19:32.727Z</time></trkpt><trkpt lat="43.4522533" lon="10.8170033"><ele>100.0</ele><time>2026-05-01T09:19:33.728Z</time></trkpt><trkpt lat="43.4521883" lon="10.81676"><ele>99.0</ele><time>2026-05-01T09:19:34.727Z</time></trkpt><trkpt lat="43.452125" lon="10.8165167"><ele>98.0</ele><time>2026-05-01T09:19:35.728Z</time></trkpt><trkpt lat="43.4520717" lon="10.816275"><ele>98.0</ele><time>2026-05-01T09:19:36.728Z</time></trkpt><trkpt lat="43.4520133" lon="10.8160483"><ele>98.0</ele><time>2026-05-01T09:19:37.727Z</time></trkpt><trkpt lat="43.45195" lon="10.81583"><ele>98.0</ele><time>2026-05-01T09:19:38.73Z</time></trkpt><trkpt lat="43.4518883" lon="10.81561"><ele>98.0</ele><time>2026-05-01T09:19:39.727Z</time></trkpt><trkpt lat="43.451825" lon="10.81539"><ele>98.0</ele><time>2026-05-01T09:19:40.729Z</time></trkpt><trkpt lat="43.45176" lon="10.8151817"><ele>98.0</ele><time>2026-05-01T09:19:41.73Z</time></trkpt><trkpt lat="43.451705" lon="10.814975"><ele>99.0</ele><time>2026-05-01T09:19:42.728Z</time></trkpt><trkpt lat="43.4516483" lon="10.8147667"><ele>100.0</ele><time>2026-05-01T09:19:43.729Z</time></trkpt><trkpt lat="43.4515933" lon="10.8145533"><ele>101.0</ele><time>2026-05-01T09:19:44.728Z</time></trkpt><trkpt lat="43.4515483" lon="10.8143333"><ele>101.0</ele><time>2026-05-01T09:19:45.728Z</time></trkpt><trkpt lat="43.4515067" lon="10.81411"><ele>101.0</ele><time>2026-05-01T09:19:46.728Z</time></trkpt><trkpt lat="43.45147" lon="10.8138833"><ele>101.0</ele><time>2026-05-01T09:19:47.728Z</time></trkpt><trkpt lat="43.4514467" lon="10.8136467"><ele>100.66666666666666</ele><time>2026-05-01T09:19:48.728Z</time></trkpt><trkpt lat="43.451435" lon="10.8134033"><ele>100.33333333333334</ele><time>2026-05-01T09:19:49.728Z</time></trkpt><trkpt lat="43.4514267" lon="10.8131617"><ele>100.0</ele><time>2026-05-01T09:19:50.727Z</time></trkpt><trkpt lat="43.4514167" lon="10.8129183"><ele>100.0</ele><time>2026-05-01T09:19:51.728Z</time></trkpt><trkpt lat="43.4513983" lon="10.8126833"><ele>100.0</ele><time>2026-05-01T09:19:52.728Z</time></trkpt><trkpt lat="43.4513933" lon="10.8124417"><ele>100.0</ele><time>2026-05-01T09:19:53.727Z</time></trkpt><trkpt lat="43.45138" lon="10.8122017"><ele>99.0</ele><time>2026-05-01T09:19:54.728Z</time></trkpt><trkpt lat="43.451355" lon="10.8119633"><ele>98.0</ele><time>2026-05-01T09:19:55.728Z</time></trkpt><trkpt lat="43.4513183" lon="10.8117283"><ele>97.0</ele><time>2026-05-01T09:19:56.728Z</time></trkpt><trkpt lat="43.451275" lon="10.8115"><ele>99.0</ele><time>2026-05-01T09:19:57.727Z</time></trkpt><trkpt lat="43.4512183" lon="10.81128"><ele>101.0</ele><time>2026-05-01T09:19:58.728Z</time></trkpt><trkpt lat="43.45117" lon="10.81104"><ele>103.0</ele><time>2026-05-01T09:19:59.729Z</time></trkpt><trkpt lat="43.4511167" lon="10.8108133"><ele>103.0</ele><time>2026-05-01T09:20:00.726Z</time></trkpt><trkpt lat="43.4510617" lon="10.8105967"><ele>103.0</ele><time>2026-05-01T09:20:01.728Z</time></trkpt><trkpt lat="43.45101" lon="10.8103867"><ele>103.0</ele><time>2026-05-01T09:20:02.726Z</time></trkpt><trkpt lat="43.45097" lon="10.8101567"><ele>101.0</ele><time>2026-05-01T09:20:03.727Z</time></trkpt><trkpt lat="43.4509333" lon="10.8099183"><ele>99.0</ele><time>2026-05-01T09:20:04.729Z</time></trkpt><trkpt lat="43.4509017" lon="10.80967"><ele>97.0</ele><time>2026-05-01T09:20:05.729Z</time></trkpt><trkpt lat="43.450875" lon="10.8094033"><ele>96.5</ele><time>2026-05-01T09:20:06.728Z</time></trkpt><trkpt lat="43.4508483" lon="10.809105"><ele>96.0</ele><time>2026-05-01T09:20:07.728Z</time></trkpt><trkpt lat="43.4508183" lon="10.80878"><ele>95.5</ele><time>2026-05-01T09:20:08.729Z</time></trkpt><trkpt lat="43.45079" lon="10.80845"><ele>95.0</ele><time>2026-05-01T09:20:09.727Z</time></trkpt><trkpt lat="43.45077" lon="10.808135"><ele>95.0</ele><time>2026-05-01T09:20:10.727Z</time></trkpt><trkpt lat="43.45076" lon="10.8078417"><ele>95.0</ele><time>2026-05-01T09:20:11.728Z</time></trkpt><trkpt lat="43.45076" lon="10.8075633"><ele>95.0</ele><time>2026-05-01T09:20:12.73Z</time></trkpt><trkpt lat="43.4507667" lon="10.807295"><ele>95.0</ele><time>2026-05-01T09:20:13.728Z</time></trkpt><trkpt lat="43.4507767" lon="10.8070367"><ele>95.0</ele><time>2026-05-01T09:20:14.73Z</time></trkpt><trkpt lat="43.45079" lon="10.80679"><ele>95.0</ele><time>2026-05-01T09:20:15.73Z</time></trkpt><trkpt lat="43.4508067" lon="10.806555"><ele>94.66666666666667</ele><time>2026-05-01T09:20:16.726Z</time></trkpt><trkpt lat="43.450825" lon="10.8063317"><ele>94.33333333333333</ele><time>2026-05-01T09:20:17.728Z</time></trkpt><trkpt lat="43.4508467" lon="10.8061183"><ele>94.0</ele><time>2026-05-01T09:20:18.729Z</time></trkpt><trkpt lat="43.4508733" lon="10.8059183"><ele>94.5</ele><time>2026-05-01T09:20:19.729Z</time></trkpt><trkpt lat="43.4509067" lon="10.8057217"><ele>95.0</ele><time>2026-05-01T09:20:20.727Z</time></trkpt><trkpt lat="43.450955" lon="10.80553"><ele>95.5</ele><time>2026-05-01T09:20:21.728Z</time></trkpt><trkpt lat="43.4510017" lon="10.8053433"><ele>96.0</ele><time>2026-05-01T09:20:22.726Z</time></trkpt><trkpt lat="43.4510517" lon="10.8051633"><ele>96.25</ele><time>2026-05-01T09:20:23.727Z</time></trkpt><trkpt lat="43.4510983" lon="10.80499"><ele>96.5</ele><time>2026-05-01T09:20:24.729Z</time></trkpt><trkpt lat="43.4511417" lon="10.8048283"><ele>96.75</ele><time>2026-05-01T09:20:25.728Z</time></trkpt><trkpt lat="43.4511767" lon="10.8046683"><ele>97.0</ele><time>2026-05-01T09:20:26.727Z</time></trkpt><trkpt lat="43.451215" lon="10.804505"><ele>97.0</ele><time>2026-05-01T09:20:27.729Z</time></trkpt><trkpt lat="43.451255" lon="10.8043333"><ele>97.0</ele><time>2026-05-01T09:20:28.728Z</time></trkpt><trkpt lat="43.4512967" lon="10.8041633"><ele>97.0</ele><time>2026-05-01T09:20:29.729Z</time></trkpt><trkpt lat="43.4513333" lon="10.803995"><ele>97.0</ele><time>2026-05-01T09:20:30.728Z</time></trkpt><trkpt lat="43.4513667" lon="10.8038283"><ele>96.5</ele><time>2026-05-01T09:20:31.728Z</time></trkpt><trkpt lat="43.451395" lon="10.803655"><ele>96.0</ele><time>2026-05-01T09:20:32.728Z</time></trkpt><trkpt lat="43.4514167" lon="10.8034817"><ele>95.5</ele><time>2026-05-01T09:20:33.728Z</time></trkpt><trkpt lat="43.45143" lon="10.8033017"><ele>95.0</ele><time>2026-05-01T09:20:34.728Z</time></trkpt><trkpt lat="43.45144" lon="10.8031117"><ele>95.0</ele><time>2026-05-01T09:20:35.73Z</time></trkpt><trkpt lat="43.4514567" lon="10.802895"><ele>95.0</ele><time>2026-05-01T09:20:36.727Z</time></trkpt><trkpt lat="43.4514867" lon="10.8026733"><ele>95.0</ele><time>2026-05-01T09:20:37.728Z</time></trkpt><trkpt lat="43.4515167" lon="10.8024567"><ele>94.33333333333334</ele><time>2026-05-01T09:20:38.728Z</time></trkpt><trkpt lat="43.4515383" lon="10.8022283"><ele>93.66666666666667</ele><time>2026-05-01T09:20:39.729Z</time></trkpt><trkpt lat="43.4515867" lon="10.8020167"><ele>93.0</ele><time>2026-05-01T09:20:40.729Z</time></trkpt><trkpt lat="43.4516417" lon="10.8018117"><ele>92.66666666666667</ele><time>2026-05-01T09:20:41.728Z</time></trkpt><trkpt lat="43.4516967" lon="10.8016117"><ele>92.33333333333334</ele><time>2026-05-01T09:20:42.727Z</time></trkpt><trkpt lat="43.4517483" lon="10.8014117"><ele>92.0</ele><time>2026-05-01T09:20:43.728Z</time></trkpt><trkpt lat="43.451795" lon="10.80121"><ele>92.0</ele><time>2026-05-01T09:20:44.729Z</time></trkpt><trkpt lat="43.45184" lon="10.80101"><ele>92.0</ele><time>2026-05-01T09:20:45.728Z</time></trkpt><trkpt lat="43.4518917" lon="10.8008167"><ele>92.0</ele><time>2026-05-01T09:20:46.727Z</time></trkpt><trkpt lat="43.451945" lon="10.800625"><ele>92.0</ele><time>2026-05-01T09:20:47.729Z</time></trkpt><trkpt lat="43.4519933" lon="10.800435"><ele>92.0</ele><time>2026-05-01T09:20:48.727Z</time></trkpt><trkpt lat="43.4520433" lon="10.8002417"><ele>92.0</ele><time>2026-05-01T09:20:49.729Z</time></trkpt><trkpt lat="43.452095" lon="10.80004"><ele>91.33333333333334</ele><time>2026-05-01T09:20:50.73Z</time></trkpt><trkpt lat="43.4521533" lon="10.7998117"><ele>90.66666666666667</ele><time>2026-05-01T09:20:51.727Z</time></trkpt><trkpt lat="43.452215" lon="10.79955"><ele>90.0</ele><time>2026-05-01T09:20:52.729Z</time></trkpt><trkpt lat="43.4522833" lon="10.799275"><ele>89.66666666666667</ele><time>2026-05-01T09:20:53.727Z</time></trkpt><trkpt lat="43.452355" lon="10.7990167"><ele>89.33333333333334</ele><time>2026-05-01T09:20:54.729Z</time></trkpt><trkpt lat="43.4524233" lon="10.7987767"><ele>89.0</ele><time>2026-05-01T09:20:55.73Z</time></trkpt><trkpt lat="43.452485" lon="10.7985533"><ele>89.0</ele><time>2026-05-01T09:20:56.73Z</time></trkpt><trkpt lat="43.4525467" lon="10.798335"><ele>89.0</ele><time>2026-05-01T09:20:57.73Z</time></trkpt><trkpt lat="43.4526033" lon="10.79813"><ele>89.0</ele><time>2026-05-01T09:20:58.728Z</time></trkpt><trkpt lat="43.452655" lon="10.7979267"><ele>89.0</ele><time>2026-05-01T09:20:59.728Z</time></trkpt><trkpt lat="43.45271" lon="10.7977217"><ele>89.0</ele><time>2026-05-01T09:21:00.727Z</time></trkpt><trkpt lat="43.452765" lon="10.7975167"><ele>89.0</ele><time>2026-05-01T09:21:01.728Z</time></trkpt><trkpt lat="43.4528217" lon="10.7973117"><ele>89.0</ele><time>2026-05-01T09:21:02.729Z</time></trkpt><trkpt lat="43.4528767" lon="10.797105"><ele>89.0</ele><time>2026-05-01T09:21:03.727Z</time></trkpt><trkpt lat="43.4529283" lon="10.7969"><ele>89.0</ele><time>2026-05-01T09:21:04.727Z</time></trkpt><trkpt lat="43.45298" lon="10.7967033"><ele>89.25</ele><time>2026-05-01T09:21:05.727Z</time></trkpt><trkpt lat="43.4530333" lon="10.7965117"><ele>89.5</ele><time>2026-05-01T09:21:06.726Z</time></trkpt><trkpt lat="43.4530817" lon="10.7963283"><ele>89.75</ele><time>2026-05-01T09:21:07.729Z</time></trkpt><trkpt lat="43.453125" lon="10.79616"><ele>90.0</ele><time>2026-05-01T09:21:08.73Z</time></trkpt><trkpt lat="43.45317" lon="10.7959833"><ele>89.33333333333333</ele><time>2026-05-01T09:21:09.728Z</time></trkpt><trkpt lat="43.453215" lon="10.7957783"><ele>88.66666666666666</ele><time>2026-05-01T09:21:10.728Z</time></trkpt><trkpt lat="43.4532633" lon="10.7955683"><ele>88.0</ele><time>2026-05-01T09:21:11.73Z</time></trkpt><trkpt lat="43.4533183" lon="10.7953733"><ele>88.0</ele><time>2026-05-01T09:21:12.729Z</time></trkpt><trkpt lat="43.453365" lon="10.7952033"><ele>88.0</ele><time>2026-05-01T09:21:13.728Z</time></trkpt><trkpt lat="43.4534033" lon="10.7950583"><ele>88.0</ele><time>2026-05-01T09:21:14.728Z</time></trkpt><trkpt lat="43.4534367" lon="10.7949283"><ele>88.0</ele><time>2026-05-01T09:21:15.728Z</time></trkpt><trkpt lat="43.4534617" lon="10.7947983"><ele>88.0</ele><time>2026-05-01T09:21:16.728Z</time></trkpt><trkpt lat="43.4534767" lon="10.7946517"><ele>87.33333333333333</ele><time>2026-05-01T09:21:17.728Z</time></trkpt><trkpt lat="43.4534817" lon="10.794465"><ele>86.66666666666667</ele><time>2026-05-01T09:21:18.728Z</time></trkpt><trkpt lat="43.4534817" lon="10.79425"><ele>86.0</ele><time>2026-05-01T09:21:19.728Z</time></trkpt><trkpt lat="43.453465" lon="10.7940133"><ele>86.0</ele><time>2026-05-01T09:21:20.727Z</time></trkpt><trkpt lat="43.45343" lon="10.7937717"><ele>86.0</ele><time>2026-05-01T09:21:21.728Z</time></trkpt><trkpt lat="43.4533983" lon="10.7935467"><ele>86.0</ele><time>2026-05-01T09:21:22.729Z</time></trkpt><trkpt lat="43.45337" lon="10.7933367"><ele>86.0</ele><time>2026-05-01T09:21:23.727Z</time></trkpt><trkpt lat="43.4533433" lon="10.7931333"><ele>86.0</ele><time>2026-05-01T09:21:24.729Z</time></trkpt><trkpt lat="43.453315" lon="10.7929333"><ele>86.0</ele><time>2026-05-01T09:21:25.728Z</time></trkpt><trkpt lat="43.453285" lon="10.7927333"><ele>86.0</ele><time>2026-05-01T09:21:26.728Z</time></trkpt><trkpt lat="43.453255" lon="10.7925283"><ele>86.0</ele><time>2026-05-01T09:21:27.728Z</time></trkpt><trkpt lat="43.4532283" lon="10.7923233"><ele>86.0</ele><time>2026-05-01T09:21:28.729Z</time></trkpt><trkpt lat="43.4532" lon="10.7921233"><ele>86.0</ele><time>2026-05-01T09:21:29.729Z</time></trkpt><trkpt lat="43.4531767" lon="10.79193"><ele>86.0</ele><time>2026-05-01T09:21:30.728Z</time></trkpt><trkpt lat="43.4531583" lon="10.7917333"><ele>86.25</ele><time>2026-05-01T09:21:31.728Z</time></trkpt><trkpt lat="43.45315" lon="10.7915417"><ele>86.5</ele><time>2026-05-01T09:21:32.729Z</time></trkpt><trkpt lat="43.453145" lon="10.7913567"><ele>86.75</ele><time>2026-05-01T09:21:33.729Z</time></trkpt><trkpt lat="43.4531517" lon="10.7911817"><ele>87.0</ele><time>2026-05-01T09:21:34.728Z</time></trkpt><trkpt lat="43.45316" lon="10.7910133"><ele>87.25</ele><time>2026-05-01T09:21:35.728Z</time></trkpt><trkpt lat="43.45317" lon="10.7908433"><ele>87.5</ele><time>2026-05-01T09:21:36.728Z</time></trkpt><trkpt lat="43.4531867" lon="10.79066"><ele>87.75</ele><time>2026-05-01T09:21:37.729Z</time></trkpt><trkpt lat="43.453215" lon="10.7904717"><ele>88.0</ele><time>2026-05-01T09:21:38.728Z</time></trkpt><trkpt lat="43.4532533" lon="10.7902833"><ele>87.33333333333333</ele><time>2026-05-01T09:21:39.727Z</time></trkpt><trkpt lat="43.4533033" lon="10.7900933"><ele>86.66666666666667</ele><time>2026-05-01T09:21:40.728Z</time></trkpt><trkpt lat="43.45336" lon="10.7898983"><ele>86.0</ele><time>2026-05-01T09:21:41.727Z</time></trkpt><trkpt lat="43.4534283" lon="10.78968"><ele>86.0</ele><time>2026-05-01T09:21:42.728Z</time></trkpt><trkpt lat="43.4535117" lon="10.7894417"><ele>86.0</ele><time>2026-05-01T09:21:43.728Z</time></trkpt><trkpt lat="43.45361" lon="10.78919"><ele>86.0</ele><time>2026-05-01T09:21:44.729Z</time></trkpt><trkpt lat="43.453705" lon="10.788925"><ele>85.0</ele><time>2026-05-01T09:21:45.728Z</time></trkpt><trkpt lat="43.453815" lon="10.7886533"><ele>84.0</ele><time>2026-05-01T09:21:46.728Z</time></trkpt><trkpt lat="43.4539233" lon="10.7883667"><ele>84.0</ele><time>2026-05-01T09:21:47.727Z</time></trkpt><trkpt lat="43.4540267" lon="10.78807"><ele>84.0</ele><time>2026-05-01T09:21:48.728Z</time></trkpt><trkpt lat="43.4541333" lon="10.7877683"><ele>84.5</ele><time>2026-05-01T09:21:49.727Z</time></trkpt><trkpt lat="43.4542417" lon="10.7874733"><ele>85.0</ele><time>2026-05-01T09:21:50.729Z</time></trkpt><trkpt lat="43.45435" lon="10.7871933"><ele>85.0</ele><time>2026-05-01T09:21:51.729Z</time></trkpt><trkpt lat="43.4544567" lon="10.7869367"><ele>85.0</ele><time>2026-05-01T09:21:52.728Z</time></trkpt><trkpt lat="43.4545583" lon="10.7867117"><ele>85.0</ele><time>2026-05-01T09:21:53.728Z</time></trkpt><trkpt lat="43.4546333" lon="10.78651"><ele>85.0</ele><time>2026-05-01T09:21:54.729Z</time></trkpt><trkpt lat="43.4546817" lon="10.78635"><ele>85.0</ele><time>2026-05-01T09:21:55.729Z</time></trkpt><trkpt lat="43.4547383" lon="10.7861933"><ele>85.0</ele><time>2026-05-01T09:21:56.727Z</time></trkpt><trkpt lat="43.4548033" lon="10.7860467"><ele>85.0</ele><time>2026-05-01T09:21:57.729Z</time></trkpt><trkpt lat="43.454875" lon="10.785875"><ele>85.0</ele><time>2026-05-01T09:21:58.729Z</time></trkpt><trkpt lat="43.454955" lon="10.7856967"><ele>85.0</ele><time>2026-05-01T09:21:59.727Z</time></trkpt><trkpt lat="43.45504" lon="10.785515"><ele>85.0</ele><time>2026-05-01T09:22:00.728Z</time></trkpt><trkpt lat="43.4551267" lon="10.78534"><ele>85.25</ele><time>2026-05-01T09:22:01.728Z</time></trkpt><trkpt lat="43.455205" lon="10.7851683"><ele>85.5</ele><time>2026-05-01T09:22:02.727Z</time></trkpt><trkpt lat="43.4552833" lon="10.7849933"><ele>85.75</ele><time>2026-05-01T09:22:03.728Z</time></trkpt><trkpt lat="43.45536" lon="10.78483"><ele>86.0</ele><time>2026-05-01T09:22:04.729Z</time></trkpt><trkpt lat="43.455435" lon="10.7846717"><ele>85.75</ele><time>2026-05-01T09:22:05.729Z</time></trkpt><trkpt lat="43.455515" lon="10.7845167"><ele>85.5</ele><time>2026-05-01T09:22:06.727Z</time></trkpt><trkpt lat="43.4555967" lon="10.784365"><ele>85.25</ele><time>2026-05-01T09:22:07.727Z</time></trkpt><trkpt lat="43.455695" lon="10.7842167"><ele>85.0</ele><time>2026-05-01T09:22:08.729Z</time></trkpt><trkpt lat="43.4558117" lon="10.784065"><ele>85.0</ele><time>2026-05-01T09:22:09.727Z</time></trkpt><trkpt lat="43.4559583" lon="10.7839017"><ele>85.0</ele><time>2026-05-01T09:22:10.73Z</time></trkpt><trkpt lat="43.4561267" lon="10.7837217"><ele>85.0</ele><time>2026-05-01T09:22:11.728Z</time></trkpt><trkpt lat="43.45631" lon="10.783535"><ele>83.5</ele><time>2026-05-01T09:22:12.729Z</time></trkpt><trkpt lat="43.4564983" lon="10.7833417"><ele>82.0</ele><time>2026-05-01T09:22:13.728Z</time></trkpt><trkpt lat="43.4566917" lon="10.7831417"><ele>82.0</ele><time>2026-05-01T09:22:14.727Z</time></trkpt><trkpt lat="43.4568817" lon="10.782945"><ele>82.0</ele><time>2026-05-01T09:22:15.729Z</time></trkpt><trkpt lat="43.4570683" lon="10.78275"><ele>82.5</ele><time>2026-05-01T09:22:16.728Z</time></trkpt><trkpt lat="43.45725" lon="10.7825517"><ele>83.0</ele><time>2026-05-01T09:22:17.727Z</time></trkpt><trkpt lat="43.4574267" lon="10.782355"><ele>83.0</ele><time>2026-05-01T09:22:18.728Z</time></trkpt><trkpt lat="43.457615" lon="10.7821633"><ele>83.0</ele><time>2026-05-01T09:22:19.727Z</time></trkpt><trkpt lat="43.4578083" lon="10.7819717"><ele>83.0</ele><time>2026-05-01T09:22:20.729Z</time></trkpt><trkpt lat="43.4580017" lon="10.7817767"><ele>83.0</ele><time>2026-05-01T09:22:21.727Z</time></trkpt><trkpt lat="43.4581967" lon="10.7815833"><ele>83.0</ele><time>2026-05-01T09:22:22.729Z</time></trkpt><trkpt lat="43.4583917" lon="10.781385"><ele>83.0</ele><time>2026-05-01T09:22:23.728Z</time></trkpt><trkpt lat="43.458585" lon="10.7811817"><ele>82.5</ele><time>2026-05-01T09:22:24.727Z</time></trkpt><trkpt lat="43.4587867" lon="10.7809833"><ele>82.0</ele><time>2026-05-01T09:22:25.727Z</time></trkpt><trkpt lat="43.4589867" lon="10.7807833"><ele>82.0</ele><time>2026-05-01T09:22:26.728Z</time></trkpt><trkpt lat="43.4591817" lon="10.7805817"><ele>82.0</ele><time>2026-05-01T09:22:27.728Z</time></trkpt><trkpt lat="43.4593767" lon="10.7803767"><ele>83.0</ele><time>2026-05-01T09:22:28.728Z</time></trkpt><trkpt lat="43.4595733" lon="10.7801733"><ele>84.0</ele><time>2026-05-01T09:22:29.728Z</time></trkpt><trkpt lat="43.45977" lon="10.7799717"><ele>84.0</ele><time>2026-05-01T09:22:30.728Z</time></trkpt><trkpt lat="43.4599633" lon="10.77977"><ele>84.0</ele><time>2026-05-01T09:22:31.727Z</time></trkpt><trkpt lat="43.46016" lon="10.77957"><ele>84.0</ele><time>2026-05-01T09:22:32.728Z</time></trkpt><trkpt lat="43.460355" lon="10.7793683"><ele>84.0</ele><time>2026-05-01T09:22:33.728Z</time></trkpt><trkpt lat="43.4605517" lon="10.77916"><ele>84.5</ele><time>2026-05-01T09:22:34.728Z</time></trkpt><trkpt lat="43.4607467" lon="10.7789517"><ele>85.0</ele><time>2026-05-01T09:22:35.727Z</time></trkpt><trkpt lat="43.4609417" lon="10.77874"><ele>85.0</ele><time>2026-05-01T09:22:36.728Z</time></trkpt><trkpt lat="43.4611333" lon="10.778535"><ele>85.0</ele><time>2026-05-01T09:22:37.728Z</time></trkpt><trkpt lat="43.46133" lon="10.7783383"><ele>84.0</ele><time>2026-05-01T09:22:38.728Z</time></trkpt><trkpt lat="43.4615333" lon="10.77815"><ele>83.0</ele><time>2026-05-01T09:22:39.728Z</time></trkpt><trkpt lat="43.4617433" lon="10.7779767"><ele>83.0</ele><time>2026-05-01T09:22:40.728Z</time></trkpt><trkpt lat="43.4619583" lon="10.777815"><ele>83.0</ele><time>2026-05-01T09:22:41.728Z</time></trkpt><trkpt lat="43.4621767" lon="10.7776567"><ele>83.0</ele><time>2026-05-01T09:22:42.728Z</time></trkpt><trkpt lat="43.4623967" lon="10.7775"><ele>83.0</ele><time>2026-05-01T09:22:43.729Z</time></trkpt><trkpt lat="43.4626167" lon="10.777335"><ele>83.0</ele><time>2026-05-01T09:22:44.728Z</time></trkpt><trkpt lat="43.46283" lon="10.7771617"><ele>83.0</ele><time>2026-05-01T09:22:45.729Z</time></trkpt><trkpt lat="43.463045" lon="10.7769867"><ele>82.0</ele><time>2026-05-01T09:22:46.727Z</time></trkpt><trkpt lat="43.46326" lon="10.7768117"><ele>81.0</ele><time>2026-05-01T09:22:47.727Z</time></trkpt><trkpt lat="43.4634717" lon="10.776645"><ele>81.0</ele><time>2026-05-01T09:22:48.729Z</time></trkpt><trkpt lat="43.46369" lon="10.7764817"><ele>81.0</ele><time>2026-05-01T09:22:49.728Z</time></trkpt><trkpt lat="43.4639033" lon="10.77631"><ele>80.0</ele><time>2026-05-01T09:22:50.727Z</time></trkpt><trkpt lat="43.4641133" lon="10.77614"><ele>79.0</ele><time>2026-05-01T09:22:51.729Z</time></trkpt><trkpt lat="43.464325" lon="10.7759617"><ele>79.0</ele><time>2026-05-01T09:22:52.728Z</time></trkpt><trkpt lat="43.4645383" lon="10.7757933"><ele>79.0</ele><time>2026-05-01T09:22:53.727Z</time></trkpt><trkpt lat="43.4647517" lon="10.775625"><ele>79.0</ele><time>2026-05-01T09:22:54.729Z</time></trkpt><trkpt lat="43.4649717" lon="10.775455"><ele>79.0</ele><time>2026-05-01T09:22:55.729Z</time></trkpt><trkpt lat="43.46519" lon="10.775285"><ele>78.5</ele><time>2026-05-01T09:22:56.728Z</time></trkpt><trkpt lat="43.4654067" lon="10.7751017"><ele>78.0</ele><time>2026-05-01T09:22:57.729Z</time></trkpt><trkpt lat="43.4656283" lon="10.7749333"><ele>78.0</ele><time>2026-05-01T09:22:58.728Z</time></trkpt><trkpt lat="43.4658567" lon="10.7748"><ele>78.0</ele><time>2026-05-01T09:22:59.727Z</time></trkpt><trkpt lat="43.4660933" lon="10.774695"><ele>77.5</ele><time>2026-05-01T09:23:00.729Z</time></trkpt><trkpt lat="43.466335" lon="10.77461"><ele>77.0</ele><time>2026-05-01T09:23:01.728Z</time></trkpt><trkpt lat="43.4665783" lon="10.77454"><ele>77.0</ele><time>2026-05-01T09:23:02.729Z</time></trkpt><trkpt lat="43.4668183" lon="10.7744717"><ele>77.0</ele><time>2026-05-01T09:23:03.727Z</time></trkpt><trkpt lat="43.4670567" lon="10.7744017"><ele>79.0</ele><time>2026-05-01T09:23:04.729Z</time></trkpt><trkpt lat="43.46728" lon="10.7743367"><ele>81.0</ele><time>2026-05-01T09:23:05.727Z</time></trkpt><trkpt lat="43.4674933" lon="10.774265"><ele>83.0</ele><time>2026-05-01T09:23:06.728Z</time></trkpt><trkpt lat="43.4676867" lon="10.7741683"><ele>83.0</ele><time>2026-05-01T09:23:07.727Z</time></trkpt><trkpt lat="43.4678833" lon="10.774025"><ele>83.0</ele><time>2026-05-01T09:23:08.729Z</time></trkpt><trkpt lat="43.46807" lon="10.7738717"><ele>83.0</ele><time>2026-05-01T09:23:09.728Z</time></trkpt><trkpt lat="43.4682533" lon="10.7736917"><ele>84.0</ele><time>2026-05-01T09:23:10.729Z</time></trkpt><trkpt lat="43.4684267" lon="10.7735017"><ele>85.0</ele><time>2026-05-01T09:23:11.728Z</time></trkpt><trkpt lat="43.4686" lon="10.7733117"><ele>86.0</ele><time>2026-05-01T09:23:12.729Z</time></trkpt><trkpt lat="43.4687783" lon="10.7731267"><ele>81.5</ele><time>2026-05-01T09:23:13.729Z</time></trkpt><trkpt lat="43.46895" lon="10.7729233"><ele>77.0</ele><time>2026-05-01T09:23:14.727Z</time></trkpt><trkpt lat="43.4691317" lon="10.772725"><ele>79.5</ele><time>2026-05-01T09:23:15.728Z</time></trkpt><trkpt lat="43.4693183" lon="10.7725333"><ele>82.0</ele><time>2026-05-01T09:23:16.728Z</time></trkpt><trkpt lat="43.4695117" lon="10.77234"><ele>82.33333333333333</ele><time>2026-05-01T09:23:17.728Z</time></trkpt><trkpt lat="43.4696933" lon="10.7721433"><ele>82.66666666666667</ele><time>2026-05-01T09:23:18.727Z</time></trkpt><trkpt lat="43.4698617" lon="10.7719517"><ele>83.0</ele><time>2026-05-01T09:23:19.728Z</time></trkpt><trkpt lat="43.4700267" lon="10.7717533"><ele>83.0</ele><time>2026-05-01T09:23:20.728Z</time></trkpt><trkpt lat="43.4701933" lon="10.7715467"><ele>83.0</ele><time>2026-05-01T09:23:21.729Z</time></trkpt><trkpt lat="43.4703717" lon="10.7713317"><ele>81.0</ele><time>2026-05-01T09:23:22.729Z</time></trkpt><trkpt lat="43.470565" lon="10.7711183"><ele>79.0</ele><time>2026-05-01T09:23:23.728Z</time></trkpt><trkpt lat="43.4707567" lon="10.77089"><ele>79.0</ele><time>2026-05-01T09:23:24.728Z</time></trkpt><trkpt lat="43.47094" lon="10.77065"><ele>79.0</ele><time>2026-05-01T09:23:25.728Z</time></trkpt><trkpt lat="43.471105" lon="10.7704067"><ele>77.0</ele><time>2026-05-01T09:23:26.728Z</time></trkpt><trkpt lat="43.471255" lon="10.7701617"><ele>75.0</ele><time>2026-05-01T09:23:27.727Z</time></trkpt><trkpt lat="43.471395" lon="10.7699217"><ele>75.0</ele><time>2026-05-01T09:23:28.727Z</time></trkpt><trkpt lat="43.4715233" lon="10.7696867"><ele>75.0</ele><time>2026-05-01T09:23:29.73Z</time></trkpt><trkpt lat="43.4716417" lon="10.7694583"><ele>75.0</ele><time>2026-05-01T09:23:30.728Z</time></trkpt><trkpt lat="43.4717533" lon="10.76923"><ele>76.0</ele><time>2026-05-01T09:23:31.726Z</time></trkpt><trkpt lat="43.47184" lon="10.7689833"><ele>77.0</ele><time>2026-05-01T09:23:32.727Z</time></trkpt><trkpt lat="43.47191" lon="10.7687133"><ele>78.0</ele><time>2026-05-01T09:23:33.727Z</time></trkpt><trkpt lat="43.47198" lon="10.7684467"><ele>78.0</ele><time>2026-05-01T09:23:34.728Z</time></trkpt><trkpt lat="43.4720483" lon="10.7681767"><ele>78.0</ele><time>2026-05-01T09:23:35.727Z</time></trkpt><trkpt lat="43.47212" lon="10.767895"><ele>78.0</ele><time>2026-05-01T09:23:36.728Z</time></trkpt><trkpt lat="43.4721933" lon="10.7676267"><ele>77.33333333333333</ele><time>2026-05-01T09:23:37.726Z</time></trkpt><trkpt lat="43.4722717" lon="10.767355"><ele>76.66666666666666</ele><time>2026-05-01T09:23:38.728Z</time></trkpt><trkpt lat="43.4723467" lon="10.76708"><ele>76.0</ele><time>2026-05-01T09:23:39.727Z</time></trkpt><trkpt lat="43.4724217" lon="10.7668033"><ele>76.0</ele><time>2026-05-01T09:23:40.731Z</time></trkpt><trkpt lat="43.472495" lon="10.7665333"><ele>76.0</ele><time>2026-05-01T09:23:41.729Z</time></trkpt><trkpt lat="43.4725633" lon="10.7662717"><ele>76.0</ele><time>2026-05-01T09:23:42.727Z</time></trkpt><trkpt lat="43.4726333" lon="10.76601"><ele>76.66666666666666</ele><time>2026-05-01T09:23:43.728Z</time></trkpt><trkpt lat="43.4727083" lon="10.76574"><ele>77.33333333333333</ele><time>2026-05-01T09:23:44.728Z</time></trkpt><trkpt lat="43.4727833" lon="10.76547"><ele>78.0</ele><time>2026-05-01T09:23:45.728Z</time></trkpt><trkpt lat="43.4728467" lon="10.7651933"><ele>78.33333333333333</ele><time>2026-05-01T09:23:46.728Z</time></trkpt><trkpt lat="43.4729" lon="10.7649267"><ele>78.66666666666666</ele><time>2026-05-01T09:23:47.727Z</time></trkpt><trkpt lat="43.4729417" lon="10.7646717"><ele>79.0</ele><time>2026-05-01T09:23:48.726Z</time></trkpt><trkpt lat="43.4729667" lon="10.7644267"><ele>79.0</ele><time>2026-05-01T09:23:49.727Z</time></trkpt><trkpt lat="43.4729883" lon="10.764205"><ele>79.0</ele><time>2026-05-01T09:23:50.73Z</time></trkpt><trkpt lat="43.473005" lon="10.764005"><ele>79.0</ele><time>2026-05-01T09:23:51.727Z</time></trkpt><trkpt lat="43.47302" lon="10.7638267"><ele>79.0</ele><time>2026-05-01T09:23:52.729Z</time></trkpt><trkpt lat="43.4730333" lon="10.76367"><ele>79.0</ele><time>2026-05-01T09:23:53.728Z</time></trkpt><trkpt lat="43.4730417" lon="10.763555"><ele>79.0</ele><time>2026-05-01T09:23:54.728Z</time></trkpt><trkpt lat="43.47307" lon="10.763415"><ele>79.0</ele><time>2026-05-01T09:23:56.728Z</time></trkpt><trkpt lat="43.4731467" lon="10.7633583"><ele>79.0</ele><time>2026-05-01T09:23:58.728Z</time></trkpt><trkpt lat="43.4732917" lon="10.763355"><ele>79.0</ele><time>2026-05-01T09:24:00.728Z</time></trkpt><trkpt lat="43.473385" lon="10.763365"><ele>79.75</ele><time>2026-05-01T09:24:01.728Z</time></trkpt><trkpt lat="43.47351" lon="10.7633833"><ele>80.5</ele><time>2026-05-01T09:24:02.729Z</time></trkpt><trkpt lat="43.4736483" lon="10.7634067"><ele>81.25</ele><time>2026-05-01T09:24:03.728Z</time></trkpt><trkpt lat="43.4737983" lon="10.763435"><ele>82.0</ele><time>2026-05-01T09:24:04.728Z</time></trkpt><trkpt lat="43.47396" lon="10.763465"><ele>82.0</ele><time>2026-05-01T09:24:05.729Z</time></trkpt><trkpt lat="43.47414" lon="10.7634933"><ele>82.0</ele><time>2026-05-01T09:24:06.729Z</time></trkpt><trkpt lat="43.4743217" lon="10.7635117"><ele>82.0</ele><time>2026-05-01T09:24:07.728Z</time></trkpt><trkpt lat="43.4745083" lon="10.7635033"><ele>82.33333333333333</ele><time>2026-05-01T09:24:08.728Z</time></trkpt><trkpt lat="43.474705" lon="10.763475"><ele>82.66666666666667</ele><time>2026-05-01T09:24:09.727Z</time></trkpt><trkpt lat="43.4749083" lon="10.76343"><ele>83.0</ele><time>2026-05-01T09:24:10.729Z</time></trkpt><trkpt lat="43.475115" lon="10.7633767"><ele>83.0</ele><time>2026-05-01T09:24:11.727Z</time></trkpt><trkpt lat="43.47533" lon="10.7633217"><ele>83.0</ele><time>2026-05-01T09:24:12.73Z</time></trkpt><trkpt lat="43.47554" lon="10.7632633"><ele>83.0</ele><time>2026-05-01T09:24:13.727Z</time></trkpt><trkpt lat="43.4757417" lon="10.763205"><ele>82.66666666666667</ele><time>2026-05-01T09:24:14.729Z</time></trkpt><trkpt lat="43.4759283" lon="10.7631533"><ele>82.33333333333333</ele><time>2026-05-01T09:24:15.728Z</time></trkpt><trkpt lat="43.4761067" lon="10.7631033"><ele>82.0</ele><time>2026-05-01T09:24:16.729Z</time></trkpt><trkpt lat="43.4762533" lon="10.7630383"><ele>80.66666666666666</ele><time>2026-05-01T09:24:17.728Z</time></trkpt><trkpt lat="43.476385" lon="10.7629417"><ele>79.33333333333333</ele><time>2026-05-01T09:24:18.728Z</time></trkpt><trkpt lat="43.4765033" lon="10.7628083"><ele>78.0</ele><time>2026-05-01T09:24:19.728Z</time></trkpt><trkpt lat="43.4765967" lon="10.762625"><ele>77.66666666666667</ele><time>2026-05-01T09:24:20.731Z</time></trkpt><trkpt lat="43.476645" lon="10.76238"><ele>77.33333333333334</ele><time>2026-05-01T09:24:21.727Z</time></trkpt><trkpt lat="43.476665" lon="10.7621033"><ele>77.0</ele><time>2026-05-01T09:24:22.728Z</time></trkpt><trkpt lat="43.4766783" lon="10.7617983"><ele>76.66666666666667</ele><time>2026-05-01T09:24:23.728Z</time></trkpt><trkpt lat="43.4766967" lon="10.7614983"><ele>76.33333333333333</ele><time>2026-05-01T09:24:24.727Z</time></trkpt><trkpt lat="43.4767417" lon="10.761205"><ele>76.0</ele><time>2026-05-01T09:24:25.727Z</time></trkpt><trkpt lat="43.4768017" lon="10.7609133"><ele>77.0</ele><time>2026-05-01T09:24:26.725Z</time></trkpt><trkpt lat="43.476875" lon="10.7606233"><ele>78.0</ele><time>2026-05-01T09:24:27.727Z</time></trkpt><trkpt lat="43.4769667" lon="10.7603333"><ele>79.0</ele><time>2026-05-01T09:24:28.727Z</time></trkpt><trkpt lat="43.477055" lon="10.76005"><ele>80.0</ele><time>2026-05-01T09:24:29.727Z</time></trkpt><trkpt lat="43.4771417" lon="10.7597617"><ele>76.66666666666667</ele><time>2026-05-01T09:24:30.727Z</time></trkpt><trkpt lat="43.4772267" lon="10.7594833"><ele>73.33333333333333</ele><time>2026-05-01T09:24:31.726Z</time></trkpt><trkpt lat="43.4773067" lon="10.75921"><ele>70.0</ele><time>2026-05-01T09:24:32.728Z</time></trkpt><trkpt lat="43.4773867" lon="10.758965"><ele>70.0</ele><time>2026-05-01T09:24:33.728Z</time></trkpt><trkpt lat="43.47746" lon="10.758745"><ele>70.0</ele><time>2026-05-01T09:24:34.726Z</time></trkpt><trkpt lat="43.477525" lon="10.7585383"><ele>70.0</ele><time>2026-05-01T09:24:35.728Z</time></trkpt><trkpt lat="43.4775817" lon="10.758345"><ele>70.75</ele><time>2026-05-01T09:24:36.727Z</time></trkpt><trkpt lat="43.477635" lon="10.75816"><ele>71.5</ele><time>2026-05-01T09:24:37.727Z</time></trkpt><trkpt lat="43.47769" lon="10.7579833"><ele>72.25</ele><time>2026-05-01T09:24:38.727Z</time></trkpt><trkpt lat="43.47774" lon="10.7578167"><ele>73.0</ele><time>2026-05-01T09:24:39.727Z</time></trkpt><trkpt lat="43.47779" lon="10.757655"><ele>72.75</ele><time>2026-05-01T09:24:40.727Z</time></trkpt><trkpt lat="43.4778417" lon="10.7574917"><ele>72.5</ele><time>2026-05-01T09:24:41.727Z</time></trkpt><trkpt lat="43.4778967" lon="10.7573183"><ele>72.25</ele><time>2026-05-01T09:24:42.727Z</time></trkpt><trkpt lat="43.4779483" lon="10.75714"><ele>72.0</ele><time>2026-05-01T09:24:43.727Z</time></trkpt><trkpt lat="43.4780083" lon="10.75695"><ele>72.66666666666667</ele><time>2026-05-01T09:24:44.729Z</time></trkpt><trkpt lat="43.47807" lon="10.7567483"><ele>73.33333333333334</ele><time>2026-05-01T09:24:45.726Z</time></trkpt><trkpt lat="43.47814" lon="10.75655"><ele>74.0</ele><time>2026-05-01T09:24:46.727Z</time></trkpt><trkpt lat="43.47823" lon="10.7563517"><ele>74.0</ele><time>2026-05-01T09:24:47.727Z</time></trkpt><trkpt lat="43.4783417" lon="10.756145"><ele>74.0</ele><time>2026-05-01T09:24:48.728Z</time></trkpt><trkpt lat="43.4784817" lon="10.7559217"><ele>74.0</ele><time>2026-05-01T09:24:49.727Z</time></trkpt><trkpt lat="43.47865" lon="10.7556717"><ele>74.5</ele><time>2026-05-01T09:24:50.727Z</time></trkpt><trkpt lat="43.4788383" lon="10.755405"><ele>75.0</ele><time>2026-05-01T09:24:51.726Z</time></trkpt><trkpt lat="43.4790317" lon="10.75514"><ele>75.0</ele><time>2026-05-01T09:24:52.727Z</time></trkpt><trkpt lat="43.4792183" lon="10.7548817"><ele>75.0</ele><time>2026-05-01T09:24:53.726Z</time></trkpt><trkpt lat="43.479395" lon="10.7546267"><ele>75.0</ele><time>2026-05-01T09:24:54.726Z</time></trkpt><trkpt lat="43.4795633" lon="10.7543783"><ele>75.0</ele><time>2026-05-01T09:24:55.727Z</time></trkpt><trkpt lat="43.4797267" lon="10.7541333"><ele>74.0</ele><time>2026-05-01T09:24:56.728Z</time></trkpt><trkpt lat="43.4798883" lon="10.753885"><ele>73.0</ele><time>2026-05-01T09:24:57.726Z</time></trkpt><trkpt lat="43.4800417" lon="10.7536283"><ele>76.0</ele><time>2026-05-01T09:24:58.727Z</time></trkpt><trkpt lat="43.48019" lon="10.7533717"><ele>79.0</ele><time>2026-05-01T09:24:59.726Z</time></trkpt><trkpt lat="43.48033" lon="10.7531133"><ele>76.0</ele><time>2026-05-01T09:25:00.726Z</time></trkpt><trkpt lat="43.4804617" lon="10.75286"><ele>73.0</ele><time>2026-05-01T09:25:01.726Z</time></trkpt><trkpt lat="43.480595" lon="10.752605"><ele>73.0</ele><time>2026-05-01T09:25:02.727Z</time></trkpt><trkpt lat="43.480725" lon="10.7523567"><ele>73.0</ele><time>2026-05-01T09:25:03.727Z</time></trkpt><trkpt lat="43.4808567" lon="10.7521183"><ele>73.0</ele><time>2026-05-01T09:25:04.728Z</time></trkpt><trkpt lat="43.4810067" lon="10.751895"><ele>74.0</ele><time>2026-05-01T09:25:05.726Z</time></trkpt><trkpt lat="43.48117" lon="10.7516833"><ele>75.0</ele><time>2026-05-01T09:25:06.726Z</time></trkpt><trkpt lat="43.4813467" lon="10.751475"><ele>71.5</ele><time>2026-05-01T09:25:07.727Z</time></trkpt><trkpt lat="43.4815283" lon="10.751265"><ele>68.0</ele><time>2026-05-01T09:25:08.726Z</time></trkpt><trkpt lat="43.481705" lon="10.7510567"><ele>71.0</ele><time>2026-05-01T09:25:09.727Z</time></trkpt><trkpt lat="43.4818917" lon="10.7508433"><ele>74.0</ele><time>2026-05-01T09:25:10.727Z</time></trkpt><trkpt lat="43.4820767" lon="10.75062"><ele>73.5</ele><time>2026-05-01T09:25:11.727Z</time></trkpt><trkpt lat="43.482265" lon="10.7503967"><ele>73.0</ele><time>2026-05-01T09:25:12.727Z</time></trkpt><trkpt lat="43.4824533" lon="10.7501767"><ele>73.0</ele><time>2026-05-01T09:25:13.728Z</time></trkpt><trkpt lat="43.4826417" lon="10.7499567"><ele>73.0</ele><time>2026-05-01T09:25:14.728Z</time></trkpt><trkpt lat="43.4828267" lon="10.7497367"><ele>72.5</ele><time>2026-05-01T09:25:15.727Z</time></trkpt><trkpt lat="43.48301" lon="10.7495283"><ele>72.0</ele><time>2026-05-01T09:25:16.727Z</time></trkpt><trkpt lat="43.4831817" lon="10.749325"><ele>72.0</ele><time>2026-05-01T09:25:17.727Z</time></trkpt><trkpt lat="43.4833483" lon="10.7491383"><ele>72.0</ele><time>2026-05-01T09:25:18.728Z</time></trkpt><trkpt lat="43.483515" lon="10.748965"><ele>72.0</ele><time>2026-05-01T09:25:19.726Z</time></trkpt><trkpt lat="43.4836883" lon="10.7488083"><ele>72.0</ele><time>2026-05-01T09:25:20.726Z</time></trkpt><trkpt lat="43.4838683" lon="10.7486583"><ele>72.0</ele><time>2026-05-01T09:25:21.727Z</time></trkpt><trkpt lat="43.48406" lon="10.7485267"><ele>72.0</ele><time>2026-05-01T09:25:22.726Z</time></trkpt><trkpt lat="43.484255" lon="10.7484083"><ele>72.0</ele><time>2026-05-01T09:25:23.727Z</time></trkpt><trkpt lat="43.4844533" lon="10.748295"><ele>72.0</ele><time>2026-05-01T09:25:24.727Z</time></trkpt><trkpt lat="43.48465" lon="10.7481717"><ele>72.0</ele><time>2026-05-01T09:25:25.728Z</time></trkpt><trkpt lat="43.4848267" lon="10.7480183"><ele>72.66666666666667</ele><time>2026-05-01T09:25:26.728Z</time></trkpt><trkpt lat="43.4849867" lon="10.74783"><ele>73.33333333333334</ele><time>2026-05-01T09:25:27.727Z</time></trkpt><trkpt lat="43.4851333" lon="10.74761"><ele>74.0</ele><time>2026-05-01T09:25:28.726Z</time></trkpt><trkpt lat="43.4852717" lon="10.7473683"><ele>74.0</ele><time>2026-05-01T09:25:29.726Z</time></trkpt><trkpt lat="43.4854067" lon="10.7471167"><ele>74.0</ele><time>2026-05-01T09:25:30.727Z</time></trkpt><trkpt lat="43.48555" lon="10.74687"><ele>71.0</ele><time>2026-05-01T09:25:31.727Z</time></trkpt><trkpt lat="43.4857033" lon="10.7466283"><ele>68.0</ele><time>2026-05-01T09:25:32.728Z</time></trkpt><trkpt lat="43.4858717" lon="10.74641"><ele>68.0</ele><time>2026-05-01T09:25:33.727Z</time></trkpt><trkpt lat="43.4860533" lon="10.7462183"><ele>68.0</ele><time>2026-05-01T09:25:34.728Z</time></trkpt><trkpt lat="43.48625" lon="10.7460483"><ele>68.0</ele><time>2026-05-01T09:25:35.727Z</time></trkpt><trkpt lat="43.4864517" lon="10.7458867"><ele>68.0</ele><time>2026-05-01T09:25:36.727Z</time></trkpt><trkpt lat="43.48665" lon="10.7457233"><ele>68.0</ele><time>2026-05-01T09:25:37.728Z</time></trkpt><trkpt lat="43.48684" lon="10.7455483"><ele>68.0</ele><time>2026-05-01T09:25:38.727Z</time></trkpt><trkpt lat="43.4870217" lon="10.7453567"><ele>69.0</ele><time>2026-05-01T09:25:39.727Z</time></trkpt><trkpt lat="43.487195" lon="10.7451533"><ele>70.0</ele><time>2026-05-01T09:25:40.727Z</time></trkpt><trkpt lat="43.4873617" lon="10.7449317"><ele>70.0</ele><time>2026-05-01T09:25:41.727Z</time></trkpt><trkpt lat="43.4875083" lon="10.74469"><ele>70.0</ele><time>2026-05-01T09:25:42.728Z</time></trkpt><trkpt lat="43.48765" lon="10.7444383"><ele>72.5</ele><time>2026-05-01T09:25:43.728Z</time></trkpt><trkpt lat="43.4877783" lon="10.7441717"><ele>75.0</ele><time>2026-05-01T09:25:44.728Z</time></trkpt><trkpt lat="43.4879117" lon="10.7438933"><ele>73.0</ele><time>2026-05-01T09:25:45.727Z</time></trkpt><trkpt lat="43.48805" lon="10.7436167"><ele>71.0</ele><time>2026-05-01T09:25:46.728Z</time></trkpt><trkpt lat="43.4881983" lon="10.7433467"><ele>71.0</ele><time>2026-05-01T09:25:47.727Z</time></trkpt><trkpt lat="43.4883583" lon="10.74309"><ele>71.0</ele><time>2026-05-01T09:25:48.727Z</time></trkpt><trkpt lat="43.4885367" lon="10.742845"><ele>70.5</ele><time>2026-05-01T09:25:49.726Z</time></trkpt><trkpt lat="43.4887317" lon="10.7426233"><ele>70.0</ele><time>2026-05-01T09:25:50.727Z</time></trkpt><trkpt lat="43.4889433" lon="10.74242"><ele>70.0</ele><time>2026-05-01T09:25:51.726Z</time></trkpt><trkpt lat="43.4891633" lon="10.7422417"><ele>70.0</ele><time>2026-05-01T09:25:52.726Z</time></trkpt><trkpt lat="43.4893917" lon="10.742085"><ele>69.5</ele><time>2026-05-01T09:25:53.726Z</time></trkpt><trkpt lat="43.4896217" lon="10.7419417"><ele>69.0</ele><time>2026-05-01T09:25:54.728Z</time></trkpt><trkpt lat="43.48985" lon="10.741795"><ele>70.5</ele><time>2026-05-01T09:25:55.727Z</time></trkpt><trkpt lat="43.4900767" lon="10.7416367"><ele>72.0</ele><time>2026-05-01T09:25:56.727Z</time></trkpt><trkpt lat="43.4902983" lon="10.7414583"><ele>71.0</ele><time>2026-05-01T09:25:57.726Z</time></trkpt><trkpt lat="43.4905067" lon="10.7412583"><ele>70.0</ele><time>2026-05-01T09:25:58.727Z</time></trkpt><trkpt lat="43.490705" lon="10.7410467"><ele>70.0</ele><time>2026-05-01T09:25:59.726Z</time></trkpt><trkpt lat="43.4908917" lon="10.7408233"><ele>70.0</ele><time>2026-05-01T09:26:00.729Z</time></trkpt><trkpt lat="43.4910633" lon="10.7405833"><ele>70.0</ele><time>2026-05-01T09:26:01.727Z</time></trkpt><trkpt lat="43.4912267" lon="10.7403267"><ele>70.0</ele><time>2026-05-01T09:26:02.728Z</time></trkpt><trkpt lat="43.4913733" lon="10.7400567"><ele>69.0</ele><time>2026-05-01T09:26:03.726Z</time></trkpt><trkpt lat="43.49151" lon="10.739775"><ele>68.0</ele><time>2026-05-01T09:26:04.726Z</time></trkpt><trkpt lat="43.4916467" lon="10.73949"><ele>69.0</ele><time>2026-05-01T09:26:05.728Z</time></trkpt><trkpt lat="43.4917717" lon="10.7392"><ele>70.0</ele><time>2026-05-01T09:26:06.727Z</time></trkpt><trkpt lat="43.4918967" lon="10.7389183"><ele>70.0</ele><time>2026-05-01T09:26:07.727Z</time></trkpt><trkpt lat="43.49203" lon="10.73864"><ele>70.0</ele><time>2026-05-01T09:26:08.728Z</time></trkpt><trkpt lat="43.4921733" lon="10.7383733"><ele>69.5</ele><time>2026-05-01T09:26:09.726Z</time></trkpt><trkpt lat="43.4923233" lon="10.738115"><ele>69.0</ele><time>2026-05-01T09:26:10.726Z</time></trkpt><trkpt lat="43.4924883" lon="10.73787"><ele>70.5</ele><time>2026-05-01T09:26:11.728Z</time></trkpt><trkpt lat="43.4926633" lon="10.73764"><ele>72.0</ele><time>2026-05-01T09:26:12.727Z</time></trkpt><trkpt lat="43.4928417" lon="10.73743"><ele>70.5</ele><time>2026-05-01T09:26:13.727Z</time></trkpt><trkpt lat="43.4930283" lon="10.7372283"><ele>69.0</ele><time>2026-05-01T09:26:14.728Z</time></trkpt><trkpt lat="43.4932217" lon="10.7370333"><ele>69.0</ele><time>2026-05-01T09:26:15.727Z</time></trkpt><trkpt lat="43.4934217" lon="10.736855"><ele>69.0</ele><time>2026-05-01T09:26:16.727Z</time></trkpt><trkpt lat="43.4936217" lon="10.7366733"><ele>69.5</ele><time>2026-05-01T09:26:17.727Z</time></trkpt><trkpt lat="43.49383" lon="10.7365"><ele>70.0</ele><time>2026-05-01T09:26:18.726Z</time></trkpt><trkpt lat="43.4940433" lon="10.73634"><ele>70.0</ele><time>2026-05-01T09:26:19.727Z</time></trkpt><trkpt lat="43.4942617" lon="10.7361917"><ele>70.0</ele><time>2026-05-01T09:26:20.729Z</time></trkpt><trkpt lat="43.4944867" lon="10.7360617"><ele>70.5</ele><time>2026-05-01T09:26:21.727Z</time></trkpt><trkpt lat="43.4947167" lon="10.7359467"><ele>71.0</ele><time>2026-05-01T09:26:22.726Z</time></trkpt><trkpt lat="43.4949483" lon="10.7358417"><ele>71.0</ele><time>2026-05-01T09:26:23.728Z</time></trkpt><trkpt lat="43.4951833" lon="10.7357417"><ele>71.0</ele><time>2026-05-01T09:26:24.727Z</time></trkpt><trkpt lat="43.4954167" lon="10.735645"><ele>69.5</ele><time>2026-05-01T09:26:25.726Z</time></trkpt><trkpt lat="43.495645" lon="10.735535"><ele>68.0</ele><time>2026-05-01T09:26:26.727Z</time></trkpt><trkpt lat="43.4958733" lon="10.7354217"><ele>68.0</ele><time>2026-05-01T09:26:27.727Z</time></trkpt><trkpt lat="43.4960867" lon="10.7352633"><ele>68.0</ele><time>2026-05-01T09:26:28.727Z</time></trkpt><trkpt lat="43.496295" lon="10.73508"><ele>67.5</ele><time>2026-05-01T09:26:29.726Z</time></trkpt><trkpt lat="43.4964917" lon="10.7348767"><ele>67.0</ele><time>2026-05-01T09:26:30.727Z</time></trkpt><trkpt lat="43.4966867" lon="10.734665"><ele>67.0</ele><time>2026-05-01T09:26:31.727Z</time></trkpt><trkpt lat="43.4968833" lon="10.7344533"><ele>67.0</ele><time>2026-05-01T09:26:32.727Z</time></trkpt><trkpt lat="43.497085" lon="10.7342533"><ele>66.5</ele><time>2026-05-01T09:26:33.727Z</time></trkpt><trkpt lat="43.4972967" lon="10.7340717"><ele>66.0</ele><time>2026-05-01T09:26:34.726Z</time></trkpt><trkpt lat="43.49751" lon="10.7338967"><ele>66.0</ele><time>2026-05-01T09:26:35.726Z</time></trkpt><trkpt lat="43.4977317" lon="10.733745"><ele>66.0</ele><time>2026-05-01T09:26:36.728Z</time></trkpt><trkpt lat="43.49796" lon="10.73362"><ele>68.0</ele><time>2026-05-01T09:26:37.728Z</time></trkpt><trkpt lat="43.4981883" lon="10.733505"><ele>70.0</ele><time>2026-05-01T09:26:38.727Z</time></trkpt><trkpt lat="43.4984083" lon="10.7333917"><ele>70.0</ele><time>2026-05-01T09:26:39.728Z</time></trkpt><trkpt lat="43.498625" lon="10.73328"><ele>70.0</ele><time>2026-05-01T09:26:40.727Z</time></trkpt><trkpt lat="43.4988283" lon="10.7331783"><ele>70.0</ele><time>2026-05-01T09:26:41.728Z</time></trkpt><trkpt lat="43.4990183" lon="10.7330883"><ele>69.33333333333333</ele><time>2026-05-01T09:26:42.727Z</time></trkpt><trkpt lat="43.4991983" lon="10.733"><ele>68.66666666666667</ele><time>2026-05-01T09:26:43.727Z</time></trkpt><trkpt lat="43.49937" lon="10.7329083"><ele>68.0</ele><time>2026-05-01T09:26:44.728Z</time></trkpt><trkpt lat="43.49953" lon="10.7328133"><ele>67.66666666666667</ele><time>2026-05-01T09:26:45.726Z</time></trkpt><trkpt lat="43.4996833" lon="10.732705"><ele>67.33333333333333</ele><time>2026-05-01T09:26:46.728Z</time></trkpt><trkpt lat="43.499825" lon="10.732575"><ele>67.0</ele><time>2026-05-01T09:26:47.728Z</time></trkpt><trkpt lat="43.4999567" lon="10.7324217"><ele>67.0</ele><time>2026-05-01T09:26:48.726Z</time></trkpt><trkpt lat="43.50007" lon="10.732245"><ele>67.0</ele><time>2026-05-01T09:26:49.727Z</time></trkpt><trkpt lat="43.5001617" lon="10.7320517"><ele>67.0</ele><time>2026-05-01T09:26:50.728Z</time></trkpt><trkpt lat="43.5002283" lon="10.73183"><ele>67.0</ele><time>2026-05-01T09:26:51.727Z</time></trkpt><trkpt lat="43.5002767" lon="10.7316017"><ele>67.0</ele><time>2026-05-01T09:26:52.728Z</time></trkpt><trkpt lat="43.5002967" lon="10.731365"><ele>67.0</ele><time>2026-05-01T09:26:53.727Z</time></trkpt><trkpt lat="43.5003033" lon="10.731135"><ele>67.0</ele><time>2026-05-01T09:26:54.727Z</time></trkpt><trkpt lat="43.5002967" lon="10.7309"><ele>67.0</ele><time>2026-05-01T09:26:55.728Z</time></trkpt><trkpt lat="43.50028" lon="10.7306783"><ele>67.0</ele><time>2026-05-01T09:26:56.729Z</time></trkpt><trkpt lat="43.5002633" lon="10.7304567"><ele>67.0</ele><time>2026-05-01T09:26:57.728Z</time></trkpt><trkpt lat="43.50025" lon="10.7302483"><ele>67.0</ele><time>2026-05-01T09:26:58.729Z</time></trkpt><trkpt lat="43.5002317" lon="10.730045"><ele>67.0</ele><time>2026-05-01T09:26:59.727Z</time></trkpt><trkpt lat="43.500215" lon="10.7298433"><ele>67.0</ele><time>2026-05-01T09:27:00.727Z</time></trkpt><trkpt lat="43.5001917" lon="10.7296433"><ele>67.75</ele><time>2026-05-01T09:27:01.727Z</time></trkpt><trkpt lat="43.5001617" lon="10.729445"><ele>68.5</ele><time>2026-05-01T09:27:02.727Z</time></trkpt><trkpt lat="43.5001267" lon="10.72925"><ele>69.25</ele><time>2026-05-01T09:27:03.727Z</time></trkpt><trkpt lat="43.5000817" lon="10.7290567"><ele>70.0</ele><time>2026-05-01T09:27:04.728Z</time></trkpt><trkpt lat="43.5000333" lon="10.7288667"><ele>70.0</ele><time>2026-05-01T09:27:05.728Z</time></trkpt><trkpt lat="43.4999867" lon="10.728675"><ele>70.0</ele><time>2026-05-01T09:27:06.727Z</time></trkpt><trkpt lat="43.4999317" lon="10.7284917"><ele>70.0</ele><time>2026-05-01T09:27:07.727Z</time></trkpt><trkpt lat="43.4998767" lon="10.728315"><ele>70.0</ele><time>2026-05-01T09:27:08.726Z</time></trkpt><trkpt lat="43.4998217" lon="10.7281433"><ele>71.75</ele><time>2026-05-01T09:27:09.727Z</time></trkpt><trkpt lat="43.4997717" lon="10.7279783"><ele>73.5</ele><time>2026-05-01T09:27:10.728Z</time></trkpt><trkpt lat="43.4997217" lon="10.727825"><ele>75.25</ele><time>2026-05-01T09:27:11.728Z</time></trkpt><trkpt lat="43.49967" lon="10.7276817"><ele>77.0</ele><time>2026-05-01T09:27:12.727Z</time></trkpt><trkpt lat="43.4996183" lon="10.7275367"><ele>75.5</ele><time>2026-05-01T09:27:13.727Z</time></trkpt><trkpt lat="43.49956" lon="10.727395"><ele>74.0</ele><time>2026-05-01T09:27:14.726Z</time></trkpt><trkpt lat="43.4995033" lon="10.7272517"><ele>72.5</ele><time>2026-05-01T09:27:15.726Z</time></trkpt><trkpt lat="43.4994467" lon="10.7271067"><ele>71.0</ele><time>2026-05-01T09:27:16.727Z</time></trkpt><trkpt lat="43.4993833" lon="10.726965"><ele>71.5</ele><time>2026-05-01T09:27:17.727Z</time></trkpt><trkpt lat="43.4993183" lon="10.72682"><ele>72.0</ele><time>2026-05-01T09:27:18.729Z</time></trkpt><trkpt lat="43.49925" lon="10.7266733"><ele>72.5</ele><time>2026-05-01T09:27:19.726Z</time></trkpt><trkpt lat="43.499185" lon="10.7265217"><ele>73.0</ele><time>2026-05-01T09:27:20.728Z</time></trkpt><trkpt lat="43.4991217" lon="10.7263633"><ele>73.0</ele><time>2026-05-01T09:27:21.728Z</time></trkpt><trkpt lat="43.4990417" lon="10.7262167"><ele>73.0</ele><time>2026-05-01T09:27:22.727Z</time></trkpt><trkpt lat="43.49897" lon="10.72606"><ele>73.0</ele><time>2026-05-01T09:27:23.728Z</time></trkpt><trkpt lat="43.4989017" lon="10.725905"><ele>73.0</ele><time>2026-05-01T09:27:24.729Z</time></trkpt><trkpt lat="43.4988383" lon="10.7257467"><ele>73.5</ele><time>2026-05-01T09:27:25.727Z</time></trkpt><trkpt lat="43.4987783" lon="10.7255883"><ele>74.0</ele><time>2026-05-01T09:27:26.726Z</time></trkpt><trkpt lat="43.4987067" lon="10.7254333"><ele>74.5</ele><time>2026-05-01T09:27:27.727Z</time></trkpt><trkpt lat="43.498645" lon="10.7252733"><ele>75.0</ele><time>2026-05-01T09:27:28.727Z</time></trkpt><trkpt lat="43.4985917" lon="10.7251083"><ele>75.25</ele><time>2026-05-01T09:27:29.726Z</time></trkpt><trkpt lat="43.4985583" lon="10.72494"><ele>75.5</ele><time>2026-05-01T09:27:30.726Z</time></trkpt><trkpt lat="43.49854" lon="10.7247683"><ele>75.75</ele><time>2026-05-01T09:27:31.726Z</time></trkpt><trkpt lat="43.49853" lon="10.72459"><ele>76.0</ele><time>2026-05-01T09:27:32.727Z</time></trkpt><trkpt lat="43.49852" lon="10.7244083"><ele>75.25</ele><time>2026-05-01T09:27:33.727Z</time></trkpt><trkpt lat="43.4985233" lon="10.7242233"><ele>74.5</ele><time>2026-05-01T09:27:34.727Z</time></trkpt><trkpt lat="43.4985433" lon="10.7240317"><ele>73.75</ele><time>2026-05-01T09:27:35.727Z</time></trkpt><trkpt lat="43.498575" lon="10.723835"><ele>73.0</ele><time>2026-05-01T09:27:36.726Z</time></trkpt><trkpt lat="43.4986133" lon="10.7236383"><ele>71.75</ele><time>2026-05-01T09:27:37.727Z</time></trkpt><trkpt lat="43.4986567" lon="10.7234517"><ele>70.5</ele><time>2026-05-01T09:27:38.727Z</time></trkpt><trkpt lat="43.4986983" lon="10.7232667"><ele>69.25</ele><time>2026-05-01T09:27:39.727Z</time></trkpt><trkpt lat="43.4987367" lon="10.7230783"><ele>68.0</ele><time>2026-05-01T09:27:40.727Z</time></trkpt><trkpt lat="43.49878" lon="10.7228917"><ele>68.0</ele><time>2026-05-01T09:27:41.726Z</time></trkpt><trkpt lat="43.49882" lon="10.7227"><ele>68.0</ele><time>2026-05-01T09:27:42.726Z</time></trkpt><trkpt lat="43.4988667" lon="10.7225083"><ele>68.0</ele><time>2026-05-01T09:27:43.728Z</time></trkpt><trkpt lat="43.49891" lon="10.7223233"><ele>68.0</ele><time>2026-05-01T09:27:44.728Z</time></trkpt><trkpt lat="43.4989483" lon="10.7221467"><ele>68.0</ele><time>2026-05-01T09:27:45.727Z</time></trkpt><trkpt lat="43.4989817" lon="10.7219933"><ele>68.0</ele><time>2026-05-01T09:27:46.728Z</time></trkpt><trkpt lat="43.499015" lon="10.72186"><ele>68.0</ele><time>2026-05-01T09:27:47.726Z</time></trkpt><trkpt lat="43.499055" lon="10.721745"><ele>68.0</ele><time>2026-05-01T09:27:48.728Z</time></trkpt><trkpt lat="43.4991067" lon="10.7216517"><ele>68.0</ele><time>2026-05-01T09:27:49.726Z</time></trkpt><trkpt lat="43.4991633" lon="10.7215717"><ele>68.33333333333334</ele><time>2026-05-01T09:27:50.728Z</time></trkpt><trkpt lat="43.4992167" lon="10.72149"><ele>68.66666666666667</ele><time>2026-05-01T09:27:51.727Z</time></trkpt><trkpt lat="43.4992517" lon="10.7214033"><ele>69.0</ele><time>2026-05-01T09:27:52.727Z</time></trkpt><trkpt lat="43.4992317" lon="10.7213117"><ele>69.33333333333333</ele><time>2026-05-01T09:27:53.728Z</time></trkpt><trkpt lat="43.4992067" lon="10.7212183"><ele>69.66666666666666</ele><time>2026-05-01T09:27:54.727Z</time></trkpt><trkpt lat="43.499165" lon="10.7211133"><ele>70.0</ele><time>2026-05-01T09:27:55.728Z</time></trkpt><trkpt lat="43.499105" lon="10.7209817"><ele>69.0</ele><time>2026-05-01T09:27:56.728Z</time></trkpt><trkpt lat="43.4990583" lon="10.7208167"><ele>68.0</ele><time>2026-05-01T09:27:57.727Z</time></trkpt><trkpt lat="43.4990183" lon="10.72064"><ele>67.0</ele><time>2026-05-01T09:27:58.729Z</time></trkpt><trkpt lat="43.4989917" lon="10.7204533"><ele>66.0</ele><time>2026-05-01T09:27:59.726Z</time></trkpt><trkpt lat="43.4989733" lon="10.7202583"><ele>66.33333333333333</ele><time>2026-05-01T09:28:00.726Z</time></trkpt><trkpt lat="43.49895" lon="10.7200533"><ele>66.66666666666666</ele><time>2026-05-01T09:28:01.727Z</time></trkpt><trkpt lat="43.49893" lon="10.7198417"><ele>67.0</ele><time>2026-05-01T09:28:02.726Z</time></trkpt><trkpt lat="43.4989083" lon="10.7196233"><ele>67.0</ele><time>2026-05-01T09:28:03.727Z</time></trkpt><trkpt lat="43.49889" lon="10.7194"><ele>67.0</ele><time>2026-05-01T09:28:04.726Z</time></trkpt><trkpt lat="43.4988733" lon="10.7191767"><ele>67.0</ele><time>2026-05-01T09:28:05.727Z</time></trkpt><trkpt lat="43.4988533" lon="10.7189517"><ele>67.0</ele><time>2026-05-01T09:28:06.727Z</time></trkpt><trkpt lat="43.4988383" lon="10.71872"><ele>67.0</ele><time>2026-05-01T09:28:07.727Z</time></trkpt><trkpt lat="43.49882" lon="10.7184967"><ele>67.0</ele><time>2026-05-01T09:28:08.728Z</time></trkpt><trkpt lat="43.4987933" lon="10.71829"><ele>67.0</ele><time>2026-05-01T09:28:09.727Z</time></trkpt><trkpt lat="43.4987567" lon="10.71811"><ele>67.0</ele><time>2026-05-01T09:28:10.727Z</time></trkpt><trkpt lat="43.4987083" lon="10.71794"><ele>67.0</ele><time>2026-05-01T09:28:11.726Z</time></trkpt><trkpt lat="43.498645" lon="10.7177617"><ele>67.0</ele><time>2026-05-01T09:28:12.727Z</time></trkpt><trkpt lat="43.4985667" lon="10.7175783"><ele>69.0</ele><time>2026-05-01T09:28:13.726Z</time></trkpt><trkpt lat="43.498475" lon="10.717405"><ele>71.0</ele><time>2026-05-01T09:28:14.727Z</time></trkpt><trkpt lat="43.498375" lon="10.717235"><ele>73.0</ele><time>2026-05-01T09:28:15.727Z</time></trkpt><trkpt lat="43.4982583" lon="10.717065"><ele>73.33333333333333</ele><time>2026-05-01T09:28:16.727Z</time></trkpt><trkpt lat="43.4981267" lon="10.7168983"><ele>73.66666666666667</ele><time>2026-05-01T09:28:17.726Z</time></trkpt><trkpt lat="43.4979883" lon="10.7167167"><ele>74.0</ele><time>2026-05-01T09:28:18.727Z</time></trkpt><trkpt lat="43.49784" lon="10.7165183"><ele>74.0</ele><time>2026-05-01T09:28:19.728Z</time></trkpt><trkpt lat="43.49768" lon="10.7163383"><ele>74.0</ele><time>2026-05-01T09:28:20.727Z</time></trkpt><trkpt lat="43.497515" lon="10.7161767"><ele>74.0</ele><time>2026-05-01T09:28:21.728Z</time></trkpt><trkpt lat="43.497345" lon="10.7160267"><ele>75.0</ele><time>2026-05-01T09:28:22.728Z</time></trkpt><trkpt lat="43.49717" lon="10.7158933"><ele>76.0</ele><time>2026-05-01T09:28:23.726Z</time></trkpt><trkpt lat="43.4969883" lon="10.7157633"><ele>77.0</ele><time>2026-05-01T09:28:24.727Z</time></trkpt><trkpt lat="43.496815" lon="10.715625"><ele>77.0</ele><time>2026-05-01T09:28:25.728Z</time></trkpt><trkpt lat="43.4966483" lon="10.7154817"><ele>77.0</ele><time>2026-05-01T09:28:26.728Z</time></trkpt><trkpt lat="43.4964833" lon="10.7153417"><ele>77.0</ele><time>2026-05-01T09:28:27.727Z</time></trkpt><trkpt lat="43.49632" lon="10.7152"><ele>76.0</ele><time>2026-05-01T09:28:28.726Z</time></trkpt><trkpt lat="43.49616" lon="10.7150583"><ele>75.0</ele><time>2026-05-01T09:28:29.726Z</time></trkpt><trkpt lat="43.4960017" lon="10.7149217"><ele>74.0</ele><time>2026-05-01T09:28:30.727Z</time></trkpt><trkpt lat="43.4958483" lon="10.7147783"><ele>74.0</ele><time>2026-05-01T09:28:31.727Z</time></trkpt><trkpt lat="43.495685" lon="10.7146667"><ele>74.0</ele><time>2026-05-01T09:28:32.728Z</time></trkpt><trkpt lat="43.4955167" lon="10.7145683"><ele>74.0</ele><time>2026-05-01T09:28:33.726Z</time></trkpt><trkpt lat="43.49534" lon="10.7144867"><ele>73.66666666666667</ele><time>2026-05-01T09:28:34.728Z</time></trkpt><trkpt lat="43.4951633" lon="10.71442"><ele>73.33333333333333</ele><time>2026-05-01T09:28:35.728Z</time></trkpt><trkpt lat="43.4949817" lon="10.714355"><ele>73.0</ele><time>2026-05-01T09:28:36.727Z</time></trkpt><trkpt lat="43.4948017" lon="10.7142883"><ele>74.0</ele><time>2026-05-01T09:28:37.728Z</time></trkpt><trkpt lat="43.4946233" lon="10.7142333"><ele>75.0</ele><time>2026-05-01T09:28:38.728Z</time></trkpt><trkpt lat="43.4944467" lon="10.7141733"><ele>76.0</ele><time>2026-05-01T09:28:39.728Z</time></trkpt><trkpt lat="43.4942767" lon="10.714115"><ele>76.0</ele><time>2026-05-01T09:28:40.727Z</time></trkpt><trkpt lat="43.4941083" lon="10.7140483"><ele>76.0</ele><time>2026-05-01T09:28:41.727Z</time></trkpt><trkpt lat="43.4939433" lon="10.7139633"><ele>76.0</ele><time>2026-05-01T09:28:42.727Z</time></trkpt><trkpt lat="43.49378" lon="10.713865"><ele>75.0</ele><time>2026-05-01T09:28:43.726Z</time></trkpt><trkpt lat="43.4936233" lon="10.7137517"><ele>74.0</ele><time>2026-05-01T09:28:44.728Z</time></trkpt><trkpt lat="43.4934733" lon="10.713625"><ele>73.0</ele><time>2026-05-01T09:28:45.728Z</time></trkpt><trkpt lat="43.49333" lon="10.7134833"><ele>73.33333333333333</ele><time>2026-05-01T09:28:46.727Z</time></trkpt><trkpt lat="43.4931833" lon="10.7133317"><ele>73.66666666666667</ele><time>2026-05-01T09:28:47.727Z</time></trkpt><trkpt lat="43.4930417" lon="10.713185"><ele>74.0</ele><time>2026-05-01T09:28:48.727Z</time></trkpt><trkpt lat="43.4929" lon="10.71304"><ele>74.0</ele><time>2026-05-01T09:28:49.727Z</time></trkpt><trkpt lat="43.49276" lon="10.7128933"><ele>74.0</ele><time>2026-05-01T09:28:50.728Z</time></trkpt><trkpt lat="43.4926217" lon="10.71274"><ele>74.0</ele><time>2026-05-01T09:28:51.728Z</time></trkpt><trkpt lat="43.4924867" lon="10.7125833"><ele>76.66666666666667</ele><time>2026-05-01T09:28:52.728Z</time></trkpt><trkpt lat="43.4923633" lon="10.7124033"><ele>79.33333333333333</ele><time>2026-05-01T09:28:53.726Z</time></trkpt><trkpt lat="43.49225" lon="10.712205"><ele>82.0</ele><time>2026-05-01T09:28:54.728Z</time></trkpt><trkpt lat="43.4921483" lon="10.7119967"><ele>80.66666666666666</ele><time>2026-05-01T09:28:55.727Z</time></trkpt><trkpt lat="43.4920433" lon="10.7117917"><ele>79.33333333333333</ele><time>2026-05-01T09:28:56.727Z</time></trkpt><trkpt lat="43.4919417" lon="10.7115817"><ele>78.0</ele><time>2026-05-01T09:28:57.726Z</time></trkpt><trkpt lat="43.4918417" lon="10.711375"><ele>78.0</ele><time>2026-05-01T09:28:58.726Z</time></trkpt><trkpt lat="43.4917367" lon="10.7111633"><ele>78.0</ele><time>2026-05-01T09:28:59.727Z</time></trkpt><trkpt lat="43.4916317" lon="10.7109517"><ele>78.0</ele><time>2026-05-01T09:29:00.728Z</time></trkpt><trkpt lat="43.4915217" lon="10.71074"><ele>78.66666666666667</ele><time>2026-05-01T09:29:01.728Z</time></trkpt><trkpt lat="43.491405" lon="10.71053"><ele>79.33333333333334</ele><time>2026-05-01T09:29:02.728Z</time></trkpt><trkpt lat="43.49128" lon="10.7103333"><ele>80.0</ele><time>2026-05-01T09:29:03.728Z</time></trkpt><trkpt lat="43.49114" lon="10.7101567"><ele>80.0</ele><time>2026-05-01T09:29:04.728Z</time></trkpt><trkpt lat="43.4909917" lon="10.7099883"><ele>80.0</ele><time>2026-05-01T09:29:05.727Z</time></trkpt><trkpt lat="43.4908367" lon="10.70983"><ele>80.0</ele><time>2026-05-01T09:29:06.727Z</time></trkpt><trkpt lat="43.490675" lon="10.7096817"><ele>80.0</ele><time>2026-05-01T09:29:07.727Z</time></trkpt><trkpt lat="43.4905067" lon="10.7095417"><ele>80.0</ele><time>2026-05-01T09:29:08.726Z</time></trkpt><trkpt lat="43.4903333" lon="10.7094133"><ele>80.0</ele><time>2026-05-01T09:29:09.726Z</time></trkpt><trkpt lat="43.4901583" lon="10.7092983"><ele>81.0</ele><time>2026-05-01T09:29:10.727Z</time></trkpt><trkpt lat="43.4899833" lon="10.7091883"><ele>82.0</ele><time>2026-05-01T09:29:11.727Z</time></trkpt><trkpt lat="43.48981" lon="10.7090817"><ele>83.0</ele><time>2026-05-01T09:29:12.726Z</time></trkpt><trkpt lat="43.4896367" lon="10.708985"><ele>82.66666666666667</ele><time>2026-05-01T09:29:13.726Z</time></trkpt><trkpt lat="43.489465" lon="10.7088817"><ele>82.33333333333333</ele><time>2026-05-01T09:29:14.728Z</time></trkpt><trkpt lat="43.4892917" lon="10.7087767"><ele>82.0</ele><time>2026-05-01T09:29:15.728Z</time></trkpt><trkpt lat="43.4891167" lon="10.7086733"><ele>82.66666666666666</ele><time>2026-05-01T09:29:16.726Z</time></trkpt><trkpt lat="43.4889333" lon="10.708575"><ele>83.33333333333333</ele><time>2026-05-01T09:29:17.727Z</time></trkpt><trkpt lat="43.4887483" lon="10.70849"><ele>84.0</ele><time>2026-05-01T09:29:18.729Z</time></trkpt><trkpt lat="43.4885567" lon="10.7084233"><ele>84.0</ele><time>2026-05-01T09:29:19.727Z</time></trkpt><trkpt lat="43.4883533" lon="10.7083733"><ele>84.0</ele><time>2026-05-01T09:29:20.727Z</time></trkpt><trkpt lat="43.4881483" lon="10.7083467"><ele>84.0</ele><time>2026-05-01T09:29:21.727Z</time></trkpt><trkpt lat="43.4879383" lon="10.7083367"><ele>85.0</ele><time>2026-05-01T09:29:22.728Z</time></trkpt><trkpt lat="43.4877283" lon="10.70833"><ele>86.0</ele><time>2026-05-01T09:29:23.728Z</time></trkpt><trkpt lat="43.4875183" lon="10.70833"><ele>87.0</ele><time>2026-05-01T09:29:24.728Z</time></trkpt><trkpt lat="43.4873083" lon="10.708335"><ele>87.0</ele><time>2026-05-01T09:29:25.727Z</time></trkpt><trkpt lat="43.4871033" lon="10.7083267"><ele>87.0</ele><time>2026-05-01T09:29:26.728Z</time></trkpt><trkpt lat="43.4869017" lon="10.70831"><ele>87.0</ele><time>2026-05-01T09:29:27.728Z</time></trkpt><trkpt lat="43.4867033" lon="10.708265"><ele>86.33333333333333</ele><time>2026-05-01T09:29:28.728Z</time></trkpt><trkpt lat="43.48651" lon="10.7082"><ele>85.66666666666666</ele><time>2026-05-01T09:29:29.727Z</time></trkpt><trkpt lat="43.4863283" lon="10.7080867"><ele>85.0</ele><time>2026-05-01T09:29:30.727Z</time></trkpt><trkpt lat="43.486145" lon="10.707955"><ele>84.33333333333333</ele><time>2026-05-01T09:29:31.728Z</time></trkpt><trkpt lat="43.48596" lon="10.7078067"><ele>83.66666666666667</ele><time>2026-05-01T09:29:32.728Z</time></trkpt><trkpt lat="43.48577" lon="10.7076633"><ele>83.0</ele><time>2026-05-01T09:29:33.727Z</time></trkpt><trkpt lat="43.4855767" lon="10.707505"><ele>85.0</ele><time>2026-05-01T09:29:34.728Z</time></trkpt><trkpt lat="43.4853767" lon="10.7073433"><ele>87.0</ele><time>2026-05-01T09:29:35.728Z</time></trkpt><trkpt lat="43.4851717" lon="10.7071833"><ele>87.0</ele><time>2026-05-01T09:29:36.728Z</time></trkpt><trkpt lat="43.4849667" lon="10.7070217"><ele>87.0</ele><time>2026-05-01T09:29:37.726Z</time></trkpt><trkpt lat="43.4847583" lon="10.706865"><ele>87.0</ele><time>2026-05-01T09:29:38.727Z</time></trkpt><trkpt lat="43.4845517" lon="10.70671"><ele>87.0</ele><time>2026-05-01T09:29:39.727Z</time></trkpt><trkpt lat="43.4843483" lon="10.7065583"><ele>87.0</ele><time>2026-05-01T09:29:40.727Z</time></trkpt><trkpt lat="43.48415" lon="10.7064117"><ele>87.0</ele><time>2026-05-01T09:29:41.726Z</time></trkpt><trkpt lat="43.4839617" lon="10.7062733"><ele>87.0</ele><time>2026-05-01T09:29:42.728Z</time></trkpt><trkpt lat="43.4837717" lon="10.7061383"><ele>88.66666666666667</ele><time>2026-05-01T09:29:43.727Z</time></trkpt><trkpt lat="43.483585" lon="10.7060067"><ele>90.33333333333334</ele><time>2026-05-01T09:29:44.728Z</time></trkpt><trkpt lat="43.4834067" lon="10.7058817"><ele>92.0</ele><time>2026-05-01T09:29:45.726Z</time></trkpt><trkpt lat="43.4832433" lon="10.7057567"><ele>92.0</ele><time>2026-05-01T09:29:46.727Z</time></trkpt><trkpt lat="43.4830917" lon="10.70561"><ele>92.0</ele><time>2026-05-01T09:29:47.727Z</time></trkpt><trkpt lat="43.4829333" lon="10.7054583"><ele>92.0</ele><time>2026-05-01T09:29:48.727Z</time></trkpt><trkpt lat="43.4827783" lon="10.705285"><ele>91.66666666666667</ele><time>2026-05-01T09:29:49.727Z</time></trkpt><trkpt lat="43.482615" lon="10.705105"><ele>91.33333333333333</ele><time>2026-05-01T09:29:50.727Z</time></trkpt><trkpt lat="43.482445" lon="10.704905"><ele>91.0</ele><time>2026-05-01T09:29:51.726Z</time></trkpt><trkpt lat="43.4822783" lon="10.70469"><ele>91.0</ele><time>2026-05-01T09:29:52.727Z</time></trkpt><trkpt lat="43.48211" lon="10.7044617"><ele>91.0</ele><time>2026-05-01T09:29:53.727Z</time></trkpt><trkpt lat="43.4819383" lon="10.70423"><ele>90.5</ele><time>2026-05-01T09:29:54.729Z</time></trkpt><trkpt lat="43.4817717" lon="10.7040017"><ele>90.0</ele><time>2026-05-01T09:29:55.728Z</time></trkpt><trkpt lat="43.4816133" lon="10.7037767"><ele>91.0</ele><time>2026-05-01T09:29:56.729Z</time></trkpt><trkpt lat="43.4814467" lon="10.70356"><ele>92.0</ele><time>2026-05-01T09:29:57.728Z</time></trkpt><trkpt lat="43.4812767" lon="10.7033383"><ele>90.0</ele><time>2026-05-01T09:29:58.727Z</time></trkpt><trkpt lat="43.4811067" lon="10.7031217"><ele>88.0</ele><time>2026-05-01T09:29:59.728Z</time></trkpt><trkpt lat="43.4809333" lon="10.7029017"><ele>89.0</ele><time>2026-05-01T09:30:00.726Z</time></trkpt><trkpt lat="43.48076" lon="10.7026767"><ele>90.0</ele><time>2026-05-01T09:30:01.727Z</time></trkpt><trkpt lat="43.4805833" lon="10.7024517"><ele>90.0</ele><time>2026-05-01T09:30:02.727Z</time></trkpt><trkpt lat="43.48041" lon="10.7022233"><ele>90.0</ele><time>2026-05-01T09:30:03.727Z</time></trkpt><trkpt lat="43.4802383" lon="10.7019983"><ele>91.0</ele><time>2026-05-01T09:30:04.729Z</time></trkpt><trkpt lat="43.480065" lon="10.7017733"><ele>92.0</ele><time>2026-05-01T09:30:05.726Z</time></trkpt><trkpt lat="43.4798883" lon="10.7015567"><ele>92.0</ele><time>2026-05-01T09:30:06.726Z</time></trkpt><trkpt lat="43.4797117" lon="10.70134"><ele>92.0</ele><time>2026-05-01T09:30:07.725Z</time></trkpt><trkpt lat="43.4795433" lon="10.70112"><ele>92.33333333333334</ele><time>2026-05-01T09:30:08.726Z</time></trkpt><trkpt lat="43.4793783" lon="10.7009067"><ele>92.66666666666667</ele><time>2026-05-01T09:30:09.726Z</time></trkpt><trkpt lat="43.47922" lon="10.700695"><ele>93.0</ele><time>2026-05-01T09:30:10.727Z</time></trkpt><trkpt lat="43.4790567" lon="10.70049"><ele>93.0</ele><time>2026-05-01T09:30:11.728Z</time></trkpt><trkpt lat="43.4789017" lon="10.7002917"><ele>93.0</ele><time>2026-05-01T09:30:12.727Z</time></trkpt><trkpt lat="43.4787483" lon="10.700105"><ele>93.0</ele><time>2026-05-01T09:30:13.727Z</time></trkpt><trkpt lat="43.478605" lon="10.6999267"><ele>94.0</ele><time>2026-05-01T09:30:14.728Z</time></trkpt><trkpt lat="43.47847" lon="10.6997617"><ele>95.0</ele><time>2026-05-01T09:30:15.726Z</time></trkpt><trkpt lat="43.4783433" lon="10.6996017"><ele>96.0</ele><time>2026-05-01T09:30:16.728Z</time></trkpt><trkpt lat="43.4782233" lon="10.6994517"><ele>96.25</ele><time>2026-05-01T09:30:17.727Z</time></trkpt><trkpt lat="43.4781133" lon="10.6993117"><ele>96.5</ele><time>2026-05-01T09:30:18.728Z</time></trkpt><trkpt lat="43.4780117" lon="10.69918"><ele>96.75</ele><time>2026-05-01T09:30:19.726Z</time></trkpt><trkpt lat="43.4779133" lon="10.6990517"><ele>97.0</ele><time>2026-05-01T09:30:20.728Z</time></trkpt><trkpt lat="43.477815" lon="10.6989217"><ele>96.75</ele><time>2026-05-01T09:30:21.727Z</time></trkpt><trkpt lat="43.4777217" lon="10.6987933"><ele>96.5</ele><time>2026-05-01T09:30:22.727Z</time></trkpt><trkpt lat="43.477635" lon="10.6986783"><ele>96.25</ele><time>2026-05-01T09:30:23.728Z</time></trkpt><trkpt lat="43.4775467" lon="10.6985617"><ele>96.0</ele><time>2026-05-01T09:30:24.728Z</time></trkpt><trkpt lat="43.4774433" lon="10.6984333"><ele>96.0</ele><time>2026-05-01T09:30:25.727Z</time></trkpt><trkpt lat="43.4773317" lon="10.6982917"><ele>96.0</ele><time>2026-05-01T09:30:26.728Z</time></trkpt><trkpt lat="43.4772083" lon="10.6981333"><ele>96.0</ele><time>2026-05-01T09:30:27.726Z</time></trkpt><trkpt lat="43.477075" lon="10.6979617"><ele>96.33333333333334</ele><time>2026-05-01T09:30:28.728Z</time></trkpt><trkpt lat="43.476935" lon="10.6977833"><ele>96.66666666666667</ele><time>2026-05-01T09:30:29.728Z</time></trkpt><trkpt lat="43.4767867" lon="10.6976033"><ele>97.0</ele><time>2026-05-01T09:30:30.727Z</time></trkpt><trkpt lat="43.476635" lon="10.6974067"><ele>98.0</ele><time>2026-05-01T09:30:31.728Z</time></trkpt><trkpt lat="43.47648" lon="10.697205"><ele>99.0</ele><time>2026-05-01T09:30:32.728Z</time></trkpt><trkpt lat="43.47633" lon="10.6969933"><ele>100.0</ele><time>2026-05-01T09:30:33.726Z</time></trkpt><trkpt lat="43.4761833" lon="10.6967633"><ele>101.0</ele><time>2026-05-01T09:30:34.726Z</time></trkpt><trkpt lat="43.4760383" lon="10.69652"><ele>102.0</ele><time>2026-05-01T09:30:35.727Z</time></trkpt><trkpt lat="43.4758983" lon="10.69627"><ele>104.0</ele><time>2026-05-01T09:30:36.727Z</time></trkpt><trkpt lat="43.47576" lon="10.6960117"><ele>106.0</ele><time>2026-05-01T09:30:37.727Z</time></trkpt><trkpt lat="43.47562" lon="10.6957533"><ele>106.0</ele><time>2026-05-01T09:30:38.728Z</time></trkpt><trkpt lat="43.4754817" lon="10.69549"><ele>106.0</ele><time>2026-05-01T09:30:39.727Z</time></trkpt><trkpt lat="43.475345" lon="10.6952383"><ele>105.33333333333334</ele><time>2026-05-01T09:30:40.727Z</time></trkpt><trkpt lat="43.47521" lon="10.694995"><ele>104.66666666666666</ele><time>2026-05-01T09:30:41.726Z</time></trkpt><trkpt lat="43.4750717" lon="10.6947533"><ele>104.0</ele><time>2026-05-01T09:30:42.728Z</time></trkpt><trkpt lat="43.4749483" lon="10.6945067"><ele>106.33333333333333</ele><time>2026-05-01T09:30:43.727Z</time></trkpt><trkpt lat="43.47484" lon="10.6942583"><ele>108.66666666666666</ele><time>2026-05-01T09:30:44.728Z</time></trkpt><trkpt lat="43.474735" lon="10.6940083"><ele>111.0</ele><time>2026-05-01T09:30:45.728Z</time></trkpt><trkpt lat="43.4746233" lon="10.6937533"><ele>109.33333333333334</ele><time>2026-05-01T09:30:46.727Z</time></trkpt><trkpt lat="43.4745117" lon="10.6934917"><ele>107.66666666666667</ele><time>2026-05-01T09:30:47.728Z</time></trkpt><trkpt lat="43.4744017" lon="10.6932217"><ele>106.0</ele><time>2026-05-01T09:30:48.726Z</time></trkpt><trkpt lat="43.4742983" lon="10.6929483"><ele>107.0</ele><time>2026-05-01T09:30:49.728Z</time></trkpt><trkpt lat="43.4741983" lon="10.6926767"><ele>108.0</ele><time>2026-05-01T09:30:50.727Z</time></trkpt><trkpt lat="43.4740983" lon="10.6924033"><ele>109.0</ele><time>2026-05-01T09:30:51.727Z</time></trkpt><trkpt lat="43.4739933" lon="10.6921217"><ele>112.0</ele><time>2026-05-01T09:30:52.727Z</time></trkpt><trkpt lat="43.473885" lon="10.6918367"><ele>115.0</ele><time>2026-05-01T09:30:53.727Z</time></trkpt><trkpt lat="43.4737733" lon="10.6915483"><ele>111.5</ele><time>2026-05-01T09:30:54.726Z</time></trkpt><trkpt lat="43.473665" lon="10.691255"><ele>108.0</ele><time>2026-05-01T09:30:55.728Z</time></trkpt><trkpt lat="43.4735533" lon="10.6909633"><ele>108.0</ele><time>2026-05-01T09:30:56.727Z</time></trkpt><trkpt lat="43.4734417" lon="10.6906717"><ele>108.0</ele><time>2026-05-01T09:30:57.727Z</time></trkpt><trkpt lat="43.4733317" lon="10.6903767"><ele>110.0</ele><time>2026-05-01T09:30:58.727Z</time></trkpt><trkpt lat="43.4732217" lon="10.6900817"><ele>112.0</ele><time>2026-05-01T09:30:59.728Z</time></trkpt><trkpt lat="43.47311" lon="10.689785"><ele>112.0</ele><time>2026-05-01T09:31:00.727Z</time></trkpt><trkpt lat="43.4729967" lon="10.6894883"><ele>112.0</ele><time>2026-05-01T09:31:01.727Z</time></trkpt><trkpt lat="43.4728833" lon="10.689195"><ele>110.0</ele><time>2026-05-01T09:31:02.728Z</time></trkpt><trkpt lat="43.472765" lon="10.6889033"><ele>108.0</ele><time>2026-05-01T09:31:03.727Z</time></trkpt><trkpt lat="43.4726467" lon="10.6886133"><ele>109.0</ele><time>2026-05-01T09:31:04.728Z</time></trkpt><trkpt lat="43.4725283" lon="10.6883283"><ele>110.0</ele><time>2026-05-01T09:31:05.728Z</time></trkpt><trkpt lat="43.4724017" lon="10.6880433"><ele>110.0</ele><time>2026-05-01T09:31:06.728Z</time></trkpt><trkpt lat="43.4722733" lon="10.6877633"><ele>110.0</ele><time>2026-05-01T09:31:07.727Z</time></trkpt><trkpt lat="43.4721433" lon="10.6874867"><ele>110.5</ele><time>2026-05-01T09:31:08.728Z</time></trkpt><trkpt lat="43.4720067" lon="10.6872117"><ele>111.0</ele><time>2026-05-01T09:31:09.727Z</time></trkpt><trkpt lat="43.4718633" lon="10.6869483"><ele>112.0</ele><time>2026-05-01T09:31:10.727Z</time></trkpt><trkpt lat="43.4717083" lon="10.6866983"><ele>113.0</ele><time>2026-05-01T09:31:11.726Z</time></trkpt><trkpt lat="43.471535" lon="10.6864717"><ele>113.0</ele><time>2026-05-01T09:31:12.728Z</time></trkpt><trkpt lat="43.4713517" lon="10.686265"><ele>113.0</ele><time>2026-05-01T09:31:13.729Z</time></trkpt><trkpt lat="43.47116" lon="10.68608"><ele>113.5</ele><time>2026-05-01T09:31:14.729Z</time></trkpt><trkpt lat="43.470955" lon="10.6859217"><ele>114.0</ele><time>2026-05-01T09:31:15.728Z</time></trkpt><trkpt lat="43.4707483" lon="10.6857833"><ele>114.0</ele><time>2026-05-01T09:31:16.728Z</time></trkpt><trkpt lat="43.47055" lon="10.685655"><ele>114.0</ele><time>2026-05-01T09:31:17.728Z</time></trkpt><trkpt lat="43.4703533" lon="10.6855317"><ele>114.0</ele><time>2026-05-01T09:31:18.727Z</time></trkpt><trkpt lat="43.4701633" lon="10.6854"><ele>116.66666666666666</ele><time>2026-05-01T09:31:19.728Z</time></trkpt><trkpt lat="43.46998" lon="10.685255"><ele>119.33333333333333</ele><time>2026-05-01T09:31:20.729Z</time></trkpt><trkpt lat="43.4698" lon="10.6851083"><ele>122.0</ele><time>2026-05-01T09:31:21.729Z</time></trkpt><trkpt lat="43.46963" lon="10.6849517"><ele>120.33333333333333</ele><time>2026-05-01T09:31:22.726Z</time></trkpt><trkpt lat="43.4694683" lon="10.68481"><ele>118.66666666666666</ele><time>2026-05-01T09:31:23.727Z</time></trkpt><trkpt lat="43.4693183" lon="10.6846817"><ele>117.0</ele><time>2026-05-01T09:31:24.728Z</time></trkpt><trkpt lat="43.4691783" lon="10.6845717"><ele>117.0</ele><time>2026-05-01T09:31:25.727Z</time></trkpt><trkpt lat="43.469055" lon="10.6844633"><ele>117.0</ele><time>2026-05-01T09:31:26.727Z</time></trkpt><trkpt lat="43.4689467" lon="10.68436"><ele>117.0</ele><time>2026-05-01T09:31:27.726Z</time></trkpt><trkpt lat="43.46886" lon="10.6842333"><ele>117.0</ele><time>2026-05-01T09:31:28.728Z</time></trkpt><trkpt lat="43.468785" lon="10.684095"><ele>117.0</ele><time>2026-05-01T09:31:29.727Z</time></trkpt><trkpt lat="43.4687433" lon="10.6839317"><ele>117.0</ele><time>2026-05-01T09:31:30.728Z</time></trkpt><trkpt lat="43.468725" lon="10.6837683"><ele>117.0</ele><time>2026-05-01T09:31:31.728Z</time></trkpt><trkpt lat="43.4687283" lon="10.68359"><ele>117.0</ele><time>2026-05-01T09:31:32.727Z</time></trkpt><trkpt lat="43.4687383" lon="10.683405"><ele>117.75</ele><time>2026-05-01T09:31:33.726Z</time></trkpt><trkpt lat="43.4687667" lon="10.6832217"><ele>118.5</ele><time>2026-05-01T09:31:34.729Z</time></trkpt><trkpt lat="43.46879" lon="10.683035"><ele>119.25</ele><time>2026-05-01T09:31:35.727Z</time></trkpt><trkpt lat="43.4688017" lon="10.6828533"><ele>120.0</ele><time>2026-05-01T09:31:36.727Z</time></trkpt><trkpt lat="43.4687817" lon="10.6826683"><ele>120.5</ele><time>2026-05-01T09:31:37.727Z</time></trkpt><trkpt lat="43.46875" lon="10.6824917"><ele>121.0</ele><time>2026-05-01T09:31:38.727Z</time></trkpt><trkpt lat="43.468685" lon="10.68232"><ele>121.5</ele><time>2026-05-01T09:31:39.727Z</time></trkpt><trkpt lat="43.4685983" lon="10.6821383"><ele>122.0</ele><time>2026-05-01T09:31:40.727Z</time></trkpt><trkpt lat="43.4685083" lon="10.6819733"><ele>123.0</ele><time>2026-05-01T09:31:41.727Z</time></trkpt><trkpt lat="43.46842" lon="10.6818167"><ele>124.0</ele><time>2026-05-01T09:31:42.727Z</time></trkpt><trkpt lat="43.4683317" lon="10.681655"><ele>125.0</ele><time>2026-05-01T09:31:43.728Z</time></trkpt><trkpt lat="43.4682467" lon="10.6814983"><ele>126.0</ele><time>2026-05-01T09:31:44.729Z</time></trkpt><trkpt lat="43.4681583" lon="10.6813467"><ele>126.0</ele><time>2026-05-01T09:31:45.727Z</time></trkpt><trkpt lat="43.468075" lon="10.6811833"><ele>126.0</ele><time>2026-05-01T09:31:46.726Z</time></trkpt><trkpt lat="43.4679767" lon="10.681005"><ele>126.0</ele><time>2026-05-01T09:31:47.727Z</time></trkpt><trkpt lat="43.4678667" lon="10.680815"><ele>124.33333333333334</ele><time>2026-05-01T09:31:48.727Z</time></trkpt><trkpt lat="43.4677217" lon="10.680625"><ele>122.66666666666667</ele><time>2026-05-01T09:31:49.727Z</time></trkpt><trkpt lat="43.467575" lon="10.6804167"><ele>121.0</ele><time>2026-05-01T09:31:50.728Z</time></trkpt><trkpt lat="43.4674283" lon="10.6801933"><ele>121.0</ele><time>2026-05-01T09:31:51.728Z</time></trkpt><trkpt lat="43.4672917" lon="10.6799667"><ele>121.0</ele><time>2026-05-01T09:31:52.728Z</time></trkpt><trkpt lat="43.4671633" lon="10.6797317"><ele>121.0</ele><time>2026-05-01T09:31:53.73Z</time></trkpt><trkpt lat="43.4670383" lon="10.6794967"><ele>121.0</ele><time>2026-05-01T09:31:54.727Z</time></trkpt><trkpt lat="43.4669083" lon="10.67927"><ele>121.0</ele><time>2026-05-01T09:31:55.728Z</time></trkpt><trkpt lat="43.466785" lon="10.6790317"><ele>121.0</ele><time>2026-05-01T09:31:56.728Z</time></trkpt><trkpt lat="43.4666667" lon="10.6787883"><ele>123.66666666666667</ele><time>2026-05-01T09:31:57.727Z</time></trkpt><trkpt lat="43.4665567" lon="10.6785367"><ele>126.33333333333334</ele><time>2026-05-01T09:31:58.727Z</time></trkpt><trkpt lat="43.4664533" lon="10.67828"><ele>129.0</ele><time>2026-05-01T09:31:59.728Z</time></trkpt><trkpt lat="43.466345" lon="10.678015"><ele>127.66666666666666</ele><time>2026-05-01T09:32:00.728Z</time></trkpt><trkpt lat="43.46624" lon="10.6777467"><ele>126.33333333333333</ele><time>2026-05-01T09:32:01.727Z</time></trkpt><trkpt lat="43.4661317" lon="10.677475"><ele>125.0</ele><time>2026-05-01T09:32:02.728Z</time></trkpt><trkpt lat="43.4660233" lon="10.6772017"><ele>126.5</ele><time>2026-05-01T09:32:03.727Z</time></trkpt><trkpt lat="43.4659183" lon="10.6769267"><ele>128.0</ele><time>2026-05-01T09:32:04.728Z</time></trkpt><trkpt lat="43.4658133" lon="10.6766483"><ele>128.0</ele><time>2026-05-01T09:32:05.728Z</time></trkpt><trkpt lat="43.4657083" lon="10.6763717"><ele>128.0</ele><time>2026-05-01T09:32:06.727Z</time></trkpt><trkpt lat="43.46561" lon="10.6760917"><ele>128.66666666666666</ele><time>2026-05-01T09:32:07.728Z</time></trkpt><trkpt lat="43.4655117" lon="10.6758183"><ele>129.33333333333334</ele><time>2026-05-01T09:32:08.728Z</time></trkpt><trkpt lat="43.4654017" lon="10.675555"><ele>130.0</ele><time>2026-05-01T09:32:09.729Z</time></trkpt><trkpt lat="43.4652817" lon="10.6753"><ele>128.66666666666669</ele><time>2026-05-01T09:32:10.727Z</time></trkpt><trkpt lat="43.46515" lon="10.6750583"><ele>127.33333333333334</ele><time>2026-05-01T09:32:11.728Z</time></trkpt><trkpt lat="43.4650017" lon="10.67483"><ele>126.0</ele><time>2026-05-01T09:32:12.727Z</time></trkpt><trkpt lat="43.4648383" lon="10.67462"><ele>126.66666666666666</ele><time>2026-05-01T09:32:13.728Z</time></trkpt><trkpt lat="43.4646667" lon="10.674425"><ele>127.33333333333333</ele><time>2026-05-01T09:32:14.728Z</time></trkpt><trkpt lat="43.4644817" lon="10.6742517"><ele>128.0</ele><time>2026-05-01T09:32:15.727Z</time></trkpt><trkpt lat="43.464285" lon="10.674095"><ele>128.0</ele><time>2026-05-01T09:32:16.728Z</time></trkpt><trkpt lat="43.4640767" lon="10.67395"><ele>128.0</ele><time>2026-05-01T09:32:17.728Z</time></trkpt><trkpt lat="43.4638767" lon="10.6737967"><ele>128.0</ele><time>2026-05-01T09:32:18.728Z</time></trkpt><trkpt lat="43.4636767" lon="10.673645"><ele>128.0</ele><time>2026-05-01T09:32:19.727Z</time></trkpt><trkpt lat="43.4634783" lon="10.6734983"><ele>130.0</ele><time>2026-05-01T09:32:20.729Z</time></trkpt><trkpt lat="43.463275" lon="10.6733567"><ele>132.0</ele><time>2026-05-01T09:32:21.729Z</time></trkpt><trkpt lat="43.46307" lon="10.6732217"><ele>131.33333333333334</ele><time>2026-05-01T09:32:22.726Z</time></trkpt><trkpt lat="43.4628667" lon="10.673085"><ele>130.66666666666669</ele><time>2026-05-01T09:32:23.728Z</time></trkpt><trkpt lat="43.4626667" lon="10.67295"><ele>130.0</ele><time>2026-05-01T09:32:24.728Z</time></trkpt><trkpt lat="43.4624683" lon="10.67281"><ele>130.5</ele><time>2026-05-01T09:32:25.728Z</time></trkpt><trkpt lat="43.4622683" lon="10.67266"><ele>131.0</ele><time>2026-05-01T09:32:26.728Z</time></trkpt><trkpt lat="43.4620667" lon="10.6725133"><ele>131.0</ele><time>2026-05-01T09:32:27.728Z</time></trkpt><trkpt lat="43.46186" lon="10.672365"><ele>131.0</ele><time>2026-05-01T09:32:28.729Z</time></trkpt><trkpt lat="43.4616517" lon="10.6722167"><ele>131.0</ele><time>2026-05-01T09:32:29.728Z</time></trkpt><trkpt lat="43.4614417" lon="10.672065"><ele>131.0</ele><time>2026-05-01T09:32:30.729Z</time></trkpt><trkpt lat="43.46123" lon="10.67191"><ele>131.5</ele><time>2026-05-01T09:32:31.727Z</time></trkpt><trkpt lat="43.4610167" lon="10.6717567"><ele>132.0</ele><time>2026-05-01T09:32:32.73Z</time></trkpt><trkpt lat="43.4608017" lon="10.6716033"><ele>132.0</ele><time>2026-05-01T09:32:33.728Z</time></trkpt><trkpt lat="43.4605867" lon="10.67145"><ele>132.0</ele><time>2026-05-01T09:32:34.729Z</time></trkpt><trkpt lat="43.4603717" lon="10.6712967"><ele>132.5</ele><time>2026-05-01T09:32:35.728Z</time></trkpt><trkpt lat="43.4601567" lon="10.671145"><ele>133.0</ele><time>2026-05-01T09:32:36.727Z</time></trkpt><trkpt lat="43.45994" lon="10.670995"><ele>134.0</ele><time>2026-05-01T09:32:37.727Z</time></trkpt><trkpt lat="43.459725" lon="10.6708417"><ele>135.0</ele><time>2026-05-01T09:32:38.728Z</time></trkpt><trkpt lat="43.4595083" lon="10.6706933"><ele>135.0</ele><time>2026-05-01T09:32:39.729Z</time></trkpt><trkpt lat="43.459295" lon="10.6705483"><ele>135.0</ele><time>2026-05-01T09:32:40.728Z</time></trkpt><trkpt lat="43.4590817" lon="10.6704"><ele>137.0</ele><time>2026-05-01T09:32:41.727Z</time></trkpt><trkpt lat="43.4588733" lon="10.670245"><ele>139.0</ele><time>2026-05-01T09:32:42.728Z</time></trkpt><trkpt lat="43.4586733" lon="10.6700983"><ele>139.0</ele><time>2026-05-01T09:32:43.727Z</time></trkpt><trkpt lat="43.4584833" lon="10.66996"><ele>139.0</ele><time>2026-05-01T09:32:44.729Z</time></trkpt><trkpt lat="43.4583" lon="10.6698267"><ele>139.0</ele><time>2026-05-01T09:32:45.727Z</time></trkpt><trkpt lat="43.4581233" lon="10.6696967"><ele>138.66666666666669</ele><time>2026-05-01T09:32:46.729Z</time></trkpt><trkpt lat="43.4579517" lon="10.6695733"><ele>138.33333333333334</ele><time>2026-05-01T09:32:47.729Z</time></trkpt><trkpt lat="43.4577867" lon="10.669455"><ele>138.0</ele><time>2026-05-01T09:32:48.728Z</time></trkpt><trkpt lat="43.4576333" lon="10.6693367"><ele>138.66666666666666</ele><time>2026-05-01T09:32:49.729Z</time></trkpt><trkpt lat="43.45749" lon="10.6692333"><ele>139.33333333333331</ele><time>2026-05-01T09:32:50.728Z</time></trkpt><trkpt lat="43.4573533" lon="10.6691317"><ele>140.0</ele><time>2026-05-01T09:32:51.727Z</time></trkpt><trkpt lat="43.4572217" lon="10.6690367"><ele>140.25</ele><time>2026-05-01T09:32:52.728Z</time></trkpt><trkpt lat="43.4571017" lon="10.6689433"><ele>140.5</ele><time>2026-05-01T09:32:53.728Z</time></trkpt><trkpt lat="43.45699" lon="10.6688567"><ele>140.75</ele><time>2026-05-01T09:32:54.728Z</time></trkpt><trkpt lat="43.4569033" lon="10.6687717"><ele>141.0</ele><time>2026-05-01T09:32:55.728Z</time></trkpt><trkpt lat="43.4568333" lon="10.668675"><ele>141.25</ele><time>2026-05-01T09:32:56.728Z</time></trkpt><trkpt lat="43.4567717" lon="10.6685567"><ele>141.5</ele><time>2026-05-01T09:32:57.729Z</time></trkpt><trkpt lat="43.4567183" lon="10.6684083"><ele>141.75</ele><time>2026-05-01T09:32:58.728Z</time></trkpt><trkpt lat="43.456665" lon="10.6682283"><ele>142.0</ele><time>2026-05-01T09:32:59.729Z</time></trkpt><trkpt lat="43.4566117" lon="10.66802"><ele>142.0</ele><time>2026-05-01T09:33:00.727Z</time></trkpt><trkpt lat="43.4565633" lon="10.667785"><ele>142.0</ele><time>2026-05-01T09:33:01.728Z</time></trkpt><trkpt lat="43.4565183" lon="10.667525"><ele>142.0</ele><time>2026-05-01T09:33:02.727Z</time></trkpt><trkpt lat="43.4564783" lon="10.6672533"><ele>142.33333333333334</ele><time>2026-05-01T09:33:03.728Z</time></trkpt><trkpt lat="43.4564367" lon="10.6669767"><ele>142.66666666666666</ele><time>2026-05-01T09:33:04.726Z</time></trkpt><trkpt lat="43.4563917" lon="10.6667"><ele>143.0</ele><time>2026-05-01T09:33:05.728Z</time></trkpt><trkpt lat="43.4563433" lon="10.6664167"><ele>144.0</ele><time>2026-05-01T09:33:06.727Z</time></trkpt><trkpt lat="43.4562917" lon="10.666135"><ele>145.0</ele><time>2026-05-01T09:33:07.729Z</time></trkpt><trkpt lat="43.4562433" lon="10.6658567"><ele>146.0</ele><time>2026-05-01T09:33:08.73Z</time></trkpt><trkpt lat="43.4562" lon="10.66558"><ele>146.33333333333331</ele><time>2026-05-01T09:33:09.728Z</time></trkpt><trkpt lat="43.4561583" lon="10.6653133"><ele>146.66666666666666</ele><time>2026-05-01T09:33:10.728Z</time></trkpt><trkpt lat="43.4561467" lon="10.6650517"><ele>147.0</ele><time>2026-05-01T09:33:11.728Z</time></trkpt><trkpt lat="43.4561583" lon="10.6647983"><ele>147.0</ele><time>2026-05-01T09:33:12.729Z</time></trkpt><trkpt lat="43.4561967" lon="10.664545"><ele>147.0</ele><time>2026-05-01T09:33:13.727Z</time></trkpt><trkpt lat="43.4562483" lon="10.6642867"><ele>147.0</ele><time>2026-05-01T09:33:14.73Z</time></trkpt><trkpt lat="43.45631" lon="10.6640267"><ele>150.33333333333334</ele><time>2026-05-01T09:33:15.73Z</time></trkpt><trkpt lat="43.4563783" lon="10.663755"><ele>153.66666666666669</ele><time>2026-05-01T09:33:16.728Z</time></trkpt><trkpt lat="43.4564417" lon="10.6634783"><ele>157.0</ele><time>2026-05-01T09:33:17.73Z</time></trkpt><trkpt lat="43.456495" lon="10.6631933"><ele>157.0</ele><time>2026-05-01T09:33:18.729Z</time></trkpt><trkpt lat="43.456545" lon="10.6629117"><ele>157.0</ele><time>2026-05-01T09:33:19.728Z</time></trkpt><trkpt lat="43.4565767" lon="10.6626167"><ele>157.0</ele><time>2026-05-01T09:33:20.728Z</time></trkpt><trkpt lat="43.4565967" lon="10.6623133"><ele>160.5</ele><time>2026-05-01T09:33:21.727Z</time></trkpt><trkpt lat="43.4566067" lon="10.6619983"><ele>164.0</ele><time>2026-05-01T09:33:22.728Z</time></trkpt><trkpt lat="43.4566183" lon="10.661675"><ele>164.0</ele><time>2026-05-01T09:33:23.727Z</time></trkpt><trkpt lat="43.456635" lon="10.6613583"><ele>164.0</ele><time>2026-05-01T09:33:24.729Z</time></trkpt><trkpt lat="43.456655" lon="10.6610467"><ele>164.0</ele><time>2026-05-01T09:33:25.728Z</time></trkpt><trkpt lat="43.4566717" lon="10.6607317"><ele>164.0</ele><time>2026-05-01T09:33:26.73Z</time></trkpt><trkpt lat="43.456685" lon="10.6604067"><ele>163.5</ele><time>2026-05-01T09:33:27.727Z</time></trkpt><trkpt lat="43.456695" lon="10.6600833"><ele>163.0</ele><time>2026-05-01T09:33:28.729Z</time></trkpt><trkpt lat="43.456705" lon="10.6597633"><ele>163.5</ele><time>2026-05-01T09:33:29.727Z</time></trkpt><trkpt lat="43.4567133" lon="10.6594467"><ele>164.0</ele><time>2026-05-01T09:33:30.728Z</time></trkpt><trkpt lat="43.456725" lon="10.65913"><ele>164.0</ele><time>2026-05-01T09:33:31.728Z</time></trkpt><trkpt lat="43.4567433" lon="10.6588117"><ele>164.0</ele><time>2026-05-01T09:33:32.727Z</time></trkpt><trkpt lat="43.45677" lon="10.6585033"><ele>163.66666666666666</ele><time>2026-05-01T09:33:33.728Z</time></trkpt><trkpt lat="43.45679" lon="10.6582067"><ele>163.33333333333334</ele><time>2026-05-01T09:33:34.728Z</time></trkpt><trkpt lat="43.4568183" lon="10.6579167"><ele>163.0</ele><time>2026-05-01T09:33:35.728Z</time></trkpt><trkpt lat="43.4568583" lon="10.657645"><ele>163.0</ele><time>2026-05-01T09:33:36.728Z</time></trkpt><trkpt lat="43.4568983" lon="10.6573967"><ele>163.0</ele><time>2026-05-01T09:33:37.729Z</time></trkpt><trkpt lat="43.456935" lon="10.65717"><ele>163.0</ele><time>2026-05-01T09:33:38.728Z</time></trkpt><trkpt lat="43.4569633" lon="10.6569667"><ele>163.25</ele><time>2026-05-01T09:33:39.727Z</time></trkpt><trkpt lat="43.456965" lon="10.6567783"><ele>163.5</ele><time>2026-05-01T09:33:40.728Z</time></trkpt><trkpt lat="43.4569367" lon="10.6565983"><ele>163.75</ele><time>2026-05-01T09:33:41.729Z</time></trkpt><trkpt lat="43.4568617" lon="10.656445"><ele>164.0</ele><time>2026-05-01T09:33:42.728Z</time></trkpt><trkpt lat="43.4567567" lon="10.6563167"><ele>164.0</ele><time>2026-05-01T09:33:43.727Z</time></trkpt><trkpt lat="43.4566117" lon="10.656215"><ele>164.0</ele><time>2026-05-01T09:33:44.729Z</time></trkpt><trkpt lat="43.456455" lon="10.656125"><ele>164.0</ele><time>2026-05-01T09:33:45.73Z</time></trkpt><trkpt lat="43.4562917" lon="10.65603"><ele>165.0</ele><time>2026-05-01T09:33:46.728Z</time></trkpt><trkpt lat="43.4561317" lon="10.6559167"><ele>166.0</ele><time>2026-05-01T09:33:47.728Z</time></trkpt><trkpt lat="43.455995" lon="10.655775"><ele>167.0</ele><time>2026-05-01T09:33:48.73Z</time></trkpt><trkpt lat="43.4558867" lon="10.6555917"><ele>167.0</ele><time>2026-05-01T09:33:49.728Z</time></trkpt><trkpt lat="43.455805" lon="10.655385"><ele>167.0</ele><time>2026-05-01T09:33:50.727Z</time></trkpt><trkpt lat="43.4557483" lon="10.6551517"><ele>167.0</ele><time>2026-05-01T09:33:51.727Z</time></trkpt><trkpt lat="43.4557117" lon="10.6548983"><ele>168.33333333333331</ele><time>2026-05-01T09:33:52.727Z</time></trkpt><trkpt lat="43.455685" lon="10.65464"><ele>169.66666666666666</ele><time>2026-05-01T09:33:53.729Z</time></trkpt><trkpt lat="43.4556633" lon="10.6543917"><ele>171.0</ele><time>2026-05-01T09:33:54.727Z</time></trkpt><trkpt lat="43.45562" lon="10.6541633"><ele>171.33333333333334</ele><time>2026-05-01T09:33:55.727Z</time></trkpt><trkpt lat="43.4555483" lon="10.6539633"><ele>171.66666666666669</ele><time>2026-05-01T09:33:56.728Z</time></trkpt><trkpt lat="43.45545" lon="10.653795"><ele>172.0</ele><time>2026-05-01T09:33:57.727Z</time></trkpt><trkpt lat="43.4553517" lon="10.6536417"><ele>174.5</ele><time>2026-05-01T09:33:58.729Z</time></trkpt><trkpt lat="43.4552833" lon="10.65348"><ele>177.0</ele><time>2026-05-01T09:33:59.73Z</time></trkpt><trkpt lat="43.45524" lon="10.65331"><ele>179.5</ele><time>2026-05-01T09:34:00.728Z</time></trkpt><trkpt lat="43.4552417" lon="10.65311"><ele>182.0</ele><time>2026-05-01T09:34:01.727Z</time></trkpt><trkpt lat="43.455245" lon="10.6529033"><ele>184.5</ele><time>2026-05-01T09:34:02.728Z</time></trkpt><trkpt lat="43.4552283" lon="10.6527083"><ele>187.0</ele><time>2026-05-01T09:34:03.729Z</time></trkpt><trkpt lat="43.45517" lon="10.65253"><ele>189.5</ele><time>2026-05-01T09:34:04.729Z</time></trkpt><trkpt lat="43.4550867" lon="10.652365"><ele>192.0</ele><time>2026-05-01T09:34:05.728Z</time></trkpt><trkpt lat="43.4549733" lon="10.6522267"><ele>192.0</ele><time>2026-05-01T09:34:06.728Z</time></trkpt><trkpt lat="43.454815" lon="10.6521183"><ele>192.0</ele><time>2026-05-01T09:34:07.728Z</time></trkpt><trkpt lat="43.4546683" lon="10.65199"><ele>192.0</ele><time>2026-05-01T09:34:08.728Z</time></trkpt><trkpt lat="43.4545383" lon="10.6518367"><ele>191.33333333333334</ele><time>2026-05-01T09:34:09.727Z</time></trkpt><trkpt lat="43.4544133" lon="10.6516417"><ele>190.66666666666669</ele><time>2026-05-01T09:34:10.728Z</time></trkpt><trkpt lat="43.454295" lon="10.6514317"><ele>190.0</ele><time>2026-05-01T09:34:11.728Z</time></trkpt><trkpt lat="43.4541733" lon="10.6512083"><ele>192.33333333333334</ele><time>2026-05-01T09:34:12.728Z</time></trkpt><trkpt lat="43.4540567" lon="10.6509867"><ele>194.66666666666669</ele><time>2026-05-01T09:34:13.728Z</time></trkpt><trkpt lat="43.4539433" lon="10.65078"><ele>197.0</ele><time>2026-05-01T09:34:14.728Z</time></trkpt><trkpt lat="43.4538367" lon="10.6505867"><ele>196.33333333333334</ele><time>2026-05-01T09:34:15.727Z</time></trkpt><trkpt lat="43.4537317" lon="10.6504"><ele>195.66666666666669</ele><time>2026-05-01T09:34:16.727Z</time></trkpt><trkpt lat="43.45364" lon="10.6502117"><ele>195.0</ele><time>2026-05-01T09:34:17.729Z</time></trkpt><trkpt lat="43.4535717" lon="10.6500067"><ele>195.0</ele><time>2026-05-01T09:34:18.729Z</time></trkpt><trkpt lat="43.4535233" lon="10.6497867"><ele>195.0</ele><time>2026-05-01T09:34:19.729Z</time></trkpt><trkpt lat="43.4535" lon="10.649545"><ele>195.0</ele><time>2026-05-01T09:34:20.728Z</time></trkpt><trkpt lat="43.4534933" lon="10.6492917"><ele>197.0</ele><time>2026-05-01T09:34:21.728Z</time></trkpt><trkpt lat="43.4534833" lon="10.64904"><ele>199.0</ele><time>2026-05-01T09:34:22.73Z</time></trkpt><trkpt lat="43.453455" lon="10.6487917"><ele>201.0</ele><time>2026-05-01T09:34:23.728Z</time></trkpt><trkpt lat="43.453395" lon="10.648555"><ele>203.66666666666669</ele><time>2026-05-01T09:34:24.728Z</time></trkpt><trkpt lat="43.4533183" lon="10.648325"><ele>206.33333333333334</ele><time>2026-05-01T09:34:25.728Z</time></trkpt><trkpt lat="43.4532233" lon="10.648105"><ele>209.0</ele><time>2026-05-01T09:34:26.728Z</time></trkpt><trkpt lat="43.45311" lon="10.6478933"><ele>206.66666666666669</ele><time>2026-05-01T09:34:27.728Z</time></trkpt><trkpt lat="43.4529917" lon="10.6476867"><ele>204.33333333333331</ele><time>2026-05-01T09:34:28.73Z</time></trkpt><trkpt lat="43.4528767" lon="10.647475"><ele>202.0</ele><time>2026-05-01T09:34:29.728Z</time></trkpt><trkpt lat="43.45277" lon="10.6472717"><ele>202.0</ele><time>2026-05-01T09:34:30.729Z</time></trkpt><trkpt lat="43.45267" lon="10.6470683"><ele>202.0</ele><time>2026-05-01T09:34:31.729Z</time></trkpt><trkpt lat="43.45257" lon="10.6468733"><ele>202.0</ele><time>2026-05-01T09:34:32.728Z</time></trkpt><trkpt lat="43.4524967" lon="10.6466883"><ele>204.5</ele><time>2026-05-01T09:34:33.727Z</time></trkpt><trkpt lat="43.452445" lon="10.6465083"><ele>207.0</ele><time>2026-05-01T09:34:34.727Z</time></trkpt><trkpt lat="43.4524233" lon="10.646335"><ele>209.5</ele><time>2026-05-01T09:34:35.728Z</time></trkpt><trkpt lat="43.4524167" lon="10.646155"><ele>212.0</ele><time>2026-05-01T09:34:36.729Z</time></trkpt><trkpt lat="43.4524133" lon="10.645955"><ele>213.75</ele><time>2026-05-01T09:34:37.728Z</time></trkpt><trkpt lat="43.4523933" lon="10.6457583"><ele>215.5</ele><time>2026-05-01T09:34:38.727Z</time></trkpt><trkpt lat="43.4523467" lon="10.6455867"><ele>217.25</ele><time>2026-05-01T09:34:39.727Z</time></trkpt><trkpt lat="43.4523033" lon="10.6454367"><ele>219.0</ele><time>2026-05-01T09:34:40.728Z</time></trkpt><trkpt lat="43.45228" lon="10.6453033"><ele>220.66666666666666</ele><time>2026-05-01T09:34:41.727Z</time></trkpt><trkpt lat="43.452285" lon="10.64519"><ele>222.33333333333331</ele><time>2026-05-01T09:34:42.727Z</time></trkpt><trkpt lat="43.452305" lon="10.6450883"><ele>224.0</ele><time>2026-05-01T09:34:43.728Z</time></trkpt><trkpt lat="43.452345" lon="10.6450083"><ele>225.66666666666666</ele><time>2026-05-01T09:34:44.729Z</time></trkpt><trkpt lat="43.4524483" lon="10.6450433"><ele>227.33333333333331</ele><time>2026-05-01T09:34:45.727Z</time></trkpt><trkpt lat="43.4525183" lon="10.6450967"><ele>229.0</ele><time>2026-05-01T09:34:46.729Z</time></trkpt><trkpt lat="43.4525817" lon="10.6452483"><ele>227.0</ele><time>2026-05-01T09:34:47.728Z</time></trkpt><trkpt lat="43.4526283" lon="10.6453917"><ele>224.99999999999997</ele><time>2026-05-01T09:34:48.726Z</time></trkpt><trkpt lat="43.45269" lon="10.645525"><ele>222.99999999999997</ele><time>2026-05-01T09:34:49.728Z</time></trkpt><trkpt lat="43.4527667" lon="10.6456367"><ele>221.0</ele><time>2026-05-01T09:34:50.73Z</time></trkpt><trkpt lat="43.4528467" lon="10.6457167"><ele>219.0</ele><time>2026-05-01T09:34:51.727Z</time></trkpt><trkpt lat="43.45295" lon="10.64572"><ele>223.0</ele><time>2026-05-01T09:34:52.73Z</time></trkpt><trkpt lat="43.4530483" lon="10.64569"><ele>226.99999999999997</ele><time>2026-05-01T09:34:53.728Z</time></trkpt><trkpt lat="43.453125" lon="10.645585"><ele>230.99999999999997</ele><time>2026-05-01T09:34:54.728Z</time></trkpt><trkpt lat="43.4531617" lon="10.645445"><ele>235.0</ele><time>2026-05-01T09:34:55.728Z</time></trkpt><trkpt lat="43.45316" lon="10.6452783"><ele>239.0</ele><time>2026-05-01T09:34:56.728Z</time></trkpt><trkpt lat="43.4531233" lon="10.6451033"><ele>236.5</ele><time>2026-05-01T09:34:57.729Z</time></trkpt><trkpt lat="43.4530383" lon="10.644945"><ele>234.0</ele><time>2026-05-01T09:34:58.729Z</time></trkpt><trkpt lat="43.4529517" lon="10.644805"><ele>231.5</ele><time>2026-05-01T09:34:59.727Z</time></trkpt><trkpt lat="43.4528883" lon="10.64467"><ele>229.0</ele><time>2026-05-01T09:35:00.728Z</time></trkpt><trkpt lat="43.4528567" lon="10.6445183"><ele>231.75</ele><time>2026-05-01T09:35:01.728Z</time></trkpt><trkpt lat="43.452855" lon="10.64436"><ele>234.5</ele><time>2026-05-01T09:35:02.729Z</time></trkpt><trkpt lat="43.452895" lon="10.6441983"><ele>237.25</ele><time>2026-05-01T09:35:03.728Z</time></trkpt><trkpt lat="43.4529617" lon="10.6440317"><ele>240.0</ele><time>2026-05-01T09:35:04.728Z</time></trkpt><trkpt lat="43.4530367" lon="10.6438683"><ele>245.4</ele><time>2026-05-01T09:35:05.73Z</time></trkpt><trkpt lat="43.4530933" lon="10.64372"><ele>250.8</ele><time>2026-05-01T09:35:06.728Z</time></trkpt><trkpt lat="43.4531633" lon="10.6436"><ele>256.2</ele><time>2026-05-01T09:35:07.729Z</time></trkpt><trkpt lat="43.45325" lon="10.6435183"><ele>261.6</ele><time>2026-05-01T09:35:08.729Z</time></trkpt><trkpt lat="43.4533483" lon="10.6434733"><ele>267.0</ele><time>2026-05-01T09:35:09.728Z</time></trkpt><trkpt lat="43.45344" lon="10.6434933"><ele>267.0</ele><time>2026-05-01T09:35:10.729Z</time></trkpt><trkpt lat="43.4535033" lon="10.643595"><ele>267.0</ele><time>2026-05-01T09:35:11.728Z</time></trkpt><trkpt lat="43.4535517" lon="10.6437083"><ele>267.0</ele><time>2026-05-01T09:35:12.728Z</time></trkpt><trkpt lat="43.4535617" lon="10.6438483"><ele>267.0</ele><time>2026-05-01T09:35:13.729Z</time></trkpt><trkpt lat="43.4534967" lon="10.64402"><ele>267.0</ele><time>2026-05-01T09:35:14.728Z</time></trkpt><trkpt lat="43.4534483" lon="10.644185"><ele>267.0</ele><time>2026-05-01T09:35:15.728Z</time></trkpt><trkpt lat="43.4534267" lon="10.644325"><ele>267.0</ele><time>2026-05-01T09:35:16.728Z</time></trkpt><trkpt lat="43.453445" lon="10.6444517"><ele>267.0</ele><time>2026-05-01T09:35:17.727Z</time></trkpt><trkpt lat="43.4534867" lon="10.6445617"><ele>267.0</ele><time>2026-05-01T09:35:18.728Z</time></trkpt><trkpt lat="43.4535383" lon="10.6446433"><ele>267.0</ele><time>2026-05-01T09:35:19.726Z</time></trkpt><trkpt lat="43.4536683" lon="10.6446217"><ele>269.0</ele><time>2026-05-01T09:35:20.73Z</time></trkpt><trkpt lat="43.453795" lon="10.644615"><ele>271.0</ele><time>2026-05-01T09:35:21.728Z</time></trkpt><trkpt lat="43.4539467" lon="10.644605"><ele>273.0</ele><time>2026-05-01T09:35:22.729Z</time></trkpt><trkpt lat="43.4540983" lon="10.6446217"><ele>275.0</ele><time>2026-05-01T09:35:23.728Z</time></trkpt><trkpt lat="43.454255" lon="10.6446517"><ele>275.0</ele><time>2026-05-01T09:35:24.728Z</time></trkpt><trkpt lat="43.4544033" lon="10.644695"><ele>275.0</ele><time>2026-05-01T09:35:25.727Z</time></trkpt><trkpt lat="43.4545317" lon="10.6447467"><ele>275.0</ele><time>2026-05-01T09:35:26.728Z</time></trkpt><trkpt lat="43.4546383" lon="10.6447817"><ele>275.0</ele><time>2026-05-01T09:35:27.727Z</time></trkpt><trkpt lat="43.45472" lon="10.6447867"><ele>277.2</ele><time>2026-05-01T09:35:28.729Z</time></trkpt><trkpt lat="43.4547983" lon="10.64477"><ele>279.4</ele><time>2026-05-01T09:35:29.73Z</time></trkpt><trkpt lat="43.4548583" lon="10.64467"><ele>281.6</ele><time>2026-05-01T09:35:30.727Z</time></trkpt><trkpt lat="43.4549" lon="10.6445783"><ele>283.8</ele><time>2026-05-01T09:35:31.728Z</time></trkpt><trkpt lat="43.454945" lon="10.6444667"><ele>286.0</ele><time>2026-05-01T09:35:32.728Z</time></trkpt><trkpt lat="43.4549117" lon="10.6442433"><ele>287.0</ele><time>2026-05-01T09:35:33.728Z</time></trkpt><trkpt lat="43.4549067" lon="10.6440367"><ele>288.0</ele><time>2026-05-01T09:35:34.729Z</time></trkpt><trkpt lat="43.4548967" lon="10.6438267"><ele>289.0</ele><time>2026-05-01T09:35:35.728Z</time></trkpt><trkpt lat="43.4548867" lon="10.6436167"><ele>290.66666666666663</ele><time>2026-05-01T09:35:36.727Z</time></trkpt><trkpt lat="43.4548783" lon="10.6433933"><ele>292.3333333333333</ele><time>2026-05-01T09:35:37.728Z</time></trkpt><trkpt lat="43.4548667" lon="10.6431617"><ele>294.0</ele><time>2026-05-01T09:35:38.73Z</time></trkpt><trkpt lat="43.4548533" lon="10.6429283"><ele>296.3333333333333</ele><time>2026-05-01T09:35:39.729Z</time></trkpt><trkpt lat="43.45484" lon="10.6426983"><ele>298.66666666666663</ele><time>2026-05-01T09:35:40.728Z</time></trkpt><trkpt lat="43.4548233" lon="10.6424683"><ele>301.0</ele><time>2026-05-01T09:35:41.729Z</time></trkpt><trkpt lat="43.454805" lon="10.6422367"><ele>301.0</ele><time>2026-05-01T09:35:42.728Z</time></trkpt><trkpt lat="43.4547867" lon="10.6420133"><ele>301.0</ele><time>2026-05-01T09:35:43.728Z</time></trkpt><trkpt lat="43.4547667" lon="10.6417967"><ele>301.0</ele><time>2026-05-01T09:35:44.729Z</time></trkpt><trkpt lat="43.4547467" lon="10.6415833"><ele>303.66666666666663</ele><time>2026-05-01T09:35:45.726Z</time></trkpt><trkpt lat="43.4547267" lon="10.6413667"><ele>306.3333333333333</ele><time>2026-05-01T09:35:46.729Z</time></trkpt><trkpt lat="43.4547067" lon="10.6411533"><ele>309.0</ele><time>2026-05-01T09:35:47.728Z</time></trkpt><trkpt lat="43.4546867" lon="10.6409417"><ele>311.0</ele><time>2026-05-01T09:35:48.727Z</time></trkpt><trkpt lat="43.454665" lon="10.64073"><ele>313.0</ele><time>2026-05-01T09:35:49.727Z</time></trkpt><trkpt lat="43.454645" lon="10.6405217"><ele>315.0</ele><time>2026-05-01T09:35:50.728Z</time></trkpt><trkpt lat="43.4546267" lon="10.6403067"><ele>315.0</ele><time>2026-05-01T09:35:51.728Z</time></trkpt><trkpt lat="43.4546083" lon="10.6400883"><ele>315.0</ele><time>2026-05-01T09:35:52.728Z</time></trkpt><trkpt lat="43.4545833" lon="10.6398717"><ele>315.0</ele><time>2026-05-01T09:35:53.727Z</time></trkpt><trkpt lat="43.45455" lon="10.6396567"><ele>320.6666666666667</ele><time>2026-05-01T09:35:54.728Z</time></trkpt><trkpt lat="43.4545067" lon="10.63944"><ele>326.33333333333337</ele><time>2026-05-01T09:35:55.728Z</time></trkpt><trkpt lat="43.4544467" lon="10.6392333"><ele>332.0</ele><time>2026-05-01T09:35:56.727Z</time></trkpt><trkpt lat="43.4543883" lon="10.63903"><ele>332.0</ele><time>2026-05-01T09:35:57.727Z</time></trkpt><trkpt lat="43.4543333" lon="10.6388217"><ele>332.0</ele><time>2026-05-01T09:35:58.729Z</time></trkpt><trkpt lat="43.4542883" lon="10.6386167"><ele>332.0</ele><time>2026-05-01T09:35:59.73Z</time></trkpt><trkpt lat="43.454265" lon="10.638415"><ele>335.33333333333337</ele><time>2026-05-01T09:36:00.727Z</time></trkpt><trkpt lat="43.4542683" lon="10.638205"><ele>338.6666666666667</ele><time>2026-05-01T09:36:01.73Z</time></trkpt><trkpt lat="43.4542883" lon="10.6379967"><ele>342.0</ele><time>2026-05-01T09:36:02.729Z</time></trkpt><trkpt lat="43.4543233" lon="10.6378"><ele>345.0</ele><time>2026-05-01T09:36:03.727Z</time></trkpt><trkpt lat="43.454355" lon="10.6375733"><ele>348.0</ele><time>2026-05-01T09:36:04.727Z</time></trkpt><trkpt lat="43.4543817" lon="10.63734"><ele>351.0</ele><time>2026-05-01T09:36:05.731Z</time></trkpt><trkpt lat="43.4544117" lon="10.6371067"><ele>351.6666666666667</ele><time>2026-05-01T09:36:06.728Z</time></trkpt><trkpt lat="43.45444" lon="10.636885"><ele>352.33333333333337</ele><time>2026-05-01T09:36:07.729Z</time></trkpt><trkpt lat="43.454475" lon="10.6366583"><ele>353.0</ele><time>2026-05-01T09:36:08.728Z</time></trkpt><trkpt lat="43.4545033" lon="10.63643"><ele>353.0</ele><time>2026-05-01T09:36:09.727Z</time></trkpt><trkpt lat="43.4545383" lon="10.6362033"><ele>353.0</ele><time>2026-05-01T09:36:10.728Z</time></trkpt><trkpt lat="43.4545517" lon="10.6359783"><ele>353.0</ele><time>2026-05-01T09:36:11.727Z</time></trkpt><trkpt lat="43.4545517" lon="10.6357367"><ele>353.33333333333337</ele><time>2026-05-01T09:36:12.728Z</time></trkpt><trkpt lat="43.4545517" lon="10.63549"><ele>353.6666666666667</ele><time>2026-05-01T09:36:13.729Z</time></trkpt><trkpt lat="43.4545517" lon="10.635245"><ele>354.0</ele><time>2026-05-01T09:36:14.729Z</time></trkpt><trkpt lat="43.454545" lon="10.634995"><ele>354.6666666666667</ele><time>2026-05-01T09:36:15.727Z</time></trkpt><trkpt lat="43.454525" lon="10.6347417"><ele>355.33333333333337</ele><time>2026-05-01T09:36:16.728Z</time></trkpt><trkpt lat="43.4544833" lon="10.634495"><ele>356.0</ele><time>2026-05-01T09:36:17.728Z</time></trkpt><trkpt lat="43.454425" lon="10.63425"><ele>357.33333333333337</ele><time>2026-05-01T09:36:18.727Z</time></trkpt><trkpt lat="43.4543483" lon="10.6340067"><ele>358.6666666666667</ele><time>2026-05-01T09:36:19.728Z</time></trkpt><trkpt lat="43.4542617" lon="10.633765"><ele>360.0</ele><time>2026-05-01T09:36:20.729Z</time></trkpt><trkpt lat="43.4541733" lon="10.6335233"><ele>361.0</ele><time>2026-05-01T09:36:21.727Z</time></trkpt><trkpt lat="43.454085" lon="10.6332783"><ele>362.0</ele><time>2026-05-01T09:36:22.729Z</time></trkpt><trkpt lat="43.4539933" lon="10.63304"><ele>363.0</ele><time>2026-05-01T09:36:23.729Z</time></trkpt><trkpt lat="43.453905" lon="10.6328017"><ele>365.0</ele><time>2026-05-01T09:36:24.728Z</time></trkpt><trkpt lat="43.45383" lon="10.632565"><ele>367.0</ele><time>2026-05-01T09:36:25.728Z</time></trkpt><trkpt lat="43.4537783" lon="10.63234"><ele>369.0</ele><time>2026-05-01T09:36:26.727Z</time></trkpt><trkpt lat="43.4537467" lon="10.632125"><ele>366.0</ele><time>2026-05-01T09:36:27.728Z</time></trkpt><trkpt lat="43.4537367" lon="10.631905"><ele>363.0</ele><time>2026-05-01T09:36:28.728Z</time></trkpt><trkpt lat="43.4537467" lon="10.6316767"><ele>360.0</ele><time>2026-05-01T09:36:29.727Z</time></trkpt><trkpt lat="43.4537617" lon="10.6314483"><ele>360.0</ele><time>2026-05-01T09:36:30.729Z</time></trkpt><trkpt lat="43.4537833" lon="10.6312133"><ele>360.0</ele><time>2026-05-01T09:36:31.727Z</time></trkpt><trkpt lat="43.4538067" lon="10.6309783"><ele>360.0</ele><time>2026-05-01T09:36:32.73Z</time></trkpt><trkpt lat="43.4538183" lon="10.6307417"><ele>364.6666666666667</ele><time>2026-05-01T09:36:33.728Z</time></trkpt><trkpt lat="43.453805" lon="10.6305033"><ele>369.33333333333337</ele><time>2026-05-01T09:36:34.727Z</time></trkpt><trkpt lat="43.45378" lon="10.6302633"><ele>374.0</ele><time>2026-05-01T09:36:35.729Z</time></trkpt><trkpt lat="43.4537383" lon="10.6300217"><ele>375.0</ele><time>2026-05-01T09:36:36.728Z</time></trkpt><trkpt lat="43.4536983" lon="10.6297767"><ele>376.0</ele><time>2026-05-01T09:36:37.729Z</time></trkpt><trkpt lat="43.4536533" lon="10.629535"><ele>377.0</ele><time>2026-05-01T09:36:38.73Z</time></trkpt><trkpt lat="43.45361" lon="10.6292917"><ele>380.0</ele><time>2026-05-01T09:36:39.73Z</time></trkpt><trkpt lat="43.453575" lon="10.62904"><ele>383.0</ele><time>2026-05-01T09:36:40.727Z</time></trkpt><trkpt lat="43.4535367" lon="10.6288017"><ele>386.0</ele><time>2026-05-01T09:36:41.729Z</time></trkpt><trkpt lat="43.4534983" lon="10.6285733"><ele>388.0</ele><time>2026-05-01T09:36:42.729Z</time></trkpt><trkpt lat="43.453455" lon="10.6283383"><ele>390.0</ele><time>2026-05-01T09:36:43.728Z</time></trkpt><trkpt lat="43.4534117" lon="10.6281033"><ele>392.0</ele><time>2026-05-01T09:36:44.728Z</time></trkpt><trkpt lat="43.4533567" lon="10.627865"><ele>393.0</ele><time>2026-05-01T09:36:45.729Z</time></trkpt><trkpt lat="43.4532967" lon="10.6276417"><ele>394.0</ele><time>2026-05-01T09:36:46.729Z</time></trkpt><trkpt lat="43.4532567" lon="10.6274167"><ele>395.0</ele><time>2026-05-01T09:36:47.728Z</time></trkpt><trkpt lat="43.4532183" lon="10.6272267"><ele>395.0</ele><time>2026-05-01T09:36:48.727Z</time></trkpt><trkpt lat="43.453185" lon="10.62705"><ele>395.0</ele><time>2026-05-01T09:36:49.729Z</time></trkpt><trkpt lat="43.4531267" lon="10.6269133"><ele>395.0</ele><time>2026-05-01T09:36:50.729Z</time></trkpt><trkpt lat="43.4530667" lon="10.6268067"><ele>395.0</ele><time>2026-05-01T09:36:51.729Z</time></trkpt><trkpt lat="43.4529933" lon="10.626705"><ele>398.25</ele><time>2026-05-01T09:36:52.728Z</time></trkpt><trkpt lat="43.452905" lon="10.626595"><ele>401.5</ele><time>2026-05-01T09:36:53.727Z</time></trkpt><trkpt lat="43.4527967" lon="10.6264783"><ele>404.75</ele><time>2026-05-01T09:36:54.728Z</time></trkpt><trkpt lat="43.4526783" lon="10.6263533"><ele>408.0</ele><time>2026-05-01T09:36:55.728Z</time></trkpt><trkpt lat="43.4525517" lon="10.626225"><ele>411.0</ele><time>2026-05-01T09:36:56.728Z</time></trkpt><trkpt lat="43.45243" lon="10.626075"><ele>414.0</ele><time>2026-05-01T09:36:57.726Z</time></trkpt><trkpt lat="43.452305" lon="10.6259217"><ele>417.0</ele><time>2026-05-01T09:36:58.728Z</time></trkpt><trkpt lat="43.4521917" lon="10.6257667"><ele>416.25</ele><time>2026-05-01T09:36:59.726Z</time></trkpt><trkpt lat="43.45208" lon="10.6256117"><ele>415.5</ele><time>2026-05-01T09:37:00.728Z</time></trkpt><trkpt lat="43.4519617" lon="10.6254717"><ele>414.75</ele><time>2026-05-01T09:37:01.727Z</time></trkpt><trkpt lat="43.451845" lon="10.62538"><ele>414.0</ele><time>2026-05-01T09:37:02.728Z</time></trkpt><trkpt lat="43.4517133" lon="10.6252967"><ele>416.0</ele><time>2026-05-01T09:37:03.727Z</time></trkpt><trkpt lat="43.4515683" lon="10.625235"><ele>418.0</ele><time>2026-05-01T09:37:04.729Z</time></trkpt><trkpt lat="43.45143" lon="10.62518"><ele>420.0</ele><time>2026-05-01T09:37:05.727Z</time></trkpt><trkpt lat="43.4512983" lon="10.6251217"><ele>422.0</ele><time>2026-05-01T09:37:06.728Z</time></trkpt><trkpt lat="43.451175" lon="10.62505"><ele>422.0</ele><time>2026-05-01T09:37:07.728Z</time></trkpt><trkpt lat="43.4510483" lon="10.624965"><ele>422.0</ele><time>2026-05-01T09:37:08.729Z</time></trkpt><trkpt lat="43.4509233" lon="10.6248717"><ele>422.0</ele><time>2026-05-01T09:37:09.728Z</time></trkpt><trkpt lat="43.450805" lon="10.6247683"><ele>422.0</ele><time>2026-05-01T09:37:10.729Z</time></trkpt><trkpt lat="43.450685" lon="10.62467"><ele>422.0</ele><time>2026-05-01T09:37:11.727Z</time></trkpt><trkpt lat="43.4505683" lon="10.6246033"><ele>422.0</ele><time>2026-05-01T09:37:12.728Z</time></trkpt><trkpt lat="43.4504633" lon="10.6245683"><ele>422.0</ele><time>2026-05-01T09:37:13.728Z</time></trkpt><trkpt lat="43.4503567" lon="10.62454"><ele>422.0</ele><time>2026-05-01T09:37:14.727Z</time></trkpt><trkpt lat="43.450255" lon="10.6245033"><ele>422.0</ele><time>2026-05-01T09:37:15.727Z</time></trkpt><trkpt lat="43.45016" lon="10.6244117"><ele>424.25</ele><time>2026-05-01T09:37:16.728Z</time></trkpt><trkpt lat="43.4500667" lon="10.62432"><ele>426.5</ele><time>2026-05-01T09:37:17.727Z</time></trkpt><trkpt lat="43.4499683" lon="10.6242317"><ele>428.75</ele><time>2026-05-01T09:37:18.728Z</time></trkpt><trkpt lat="43.4498567" lon="10.6241617"><ele>431.0</ele><time>2026-05-01T09:37:19.728Z</time></trkpt><trkpt lat="43.449745" lon="10.62411"><ele>431.0</ele><time>2026-05-01T09:37:20.728Z</time></trkpt><trkpt lat="43.4496467" lon="10.624065"><ele>431.0</ele><time>2026-05-01T09:37:21.726Z</time></trkpt><trkpt lat="43.4495533" lon="10.6240417"><ele>431.0</ele><time>2026-05-01T09:37:22.726Z</time></trkpt><trkpt lat="43.4494583" lon="10.6240217"><ele>431.0</ele><time>2026-05-01T09:37:23.728Z</time></trkpt><trkpt lat="43.44935" lon="10.624065"><ele>431.0</ele><time>2026-05-01T09:37:24.728Z</time></trkpt><trkpt lat="43.4492517" lon="10.6241217"><ele>429.3333333333333</ele><time>2026-05-01T09:37:25.728Z</time></trkpt><trkpt lat="43.4491617" lon="10.6241433"><ele>427.66666666666663</ele><time>2026-05-01T09:37:26.727Z</time></trkpt><trkpt lat="43.4490733" lon="10.624155"><ele>426.0</ele><time>2026-05-01T09:37:27.729Z</time></trkpt><trkpt lat="43.4489767" lon="10.6241367"><ele>424.33333333333337</ele><time>2026-05-01T09:37:28.728Z</time></trkpt><trkpt lat="43.44891" lon="10.6240617"><ele>422.6666666666667</ele><time>2026-05-01T09:37:29.728Z</time></trkpt><trkpt lat="43.448845" lon="10.6239917"><ele>421.0</ele><time>2026-05-01T09:37:30.727Z</time></trkpt><trkpt lat="43.448765" lon="10.623935"><ele>419.5</ele><time>2026-05-01T09:37:31.728Z</time></trkpt><trkpt lat="43.4486917" lon="10.6238617"><ele>418.0</ele><time>2026-05-01T09:37:32.729Z</time></trkpt><trkpt lat="43.4486083" lon="10.6238133"><ele>416.5</ele><time>2026-05-01T09:37:33.728Z</time></trkpt><trkpt lat="43.4484617" lon="10.623835"><ele>415.0</ele><time>2026-05-01T09:37:34.726Z</time></trkpt><trkpt lat="43.448335" lon="10.6238333"><ele>415.0</ele><time>2026-05-01T09:37:35.726Z</time></trkpt><trkpt lat="43.4481883" lon="10.6238417"><ele>415.0</ele><time>2026-05-01T09:37:36.727Z</time></trkpt><trkpt lat="43.4480633" lon="10.6238217"><ele>415.0</ele><time>2026-05-01T09:37:37.726Z</time></trkpt><trkpt lat="43.4479517" lon="10.6237767"><ele>415.0</ele><time>2026-05-01T09:37:38.727Z</time></trkpt><trkpt lat="43.4478433" lon="10.6237383"><ele>415.1666666666667</ele><time>2026-05-01T09:37:39.728Z</time></trkpt><trkpt lat="43.4477683" lon="10.6236667"><ele>415.33333333333337</ele><time>2026-05-01T09:37:40.726Z</time></trkpt><trkpt lat="43.4477117" lon="10.6235867"><ele>415.5</ele><time>2026-05-01T09:37:41.728Z</time></trkpt><trkpt lat="43.4477333" lon="10.623475"><ele>415.66666666666663</ele><time>2026-05-01T09:37:42.726Z</time></trkpt><trkpt lat="43.447765" lon="10.62336"><ele>415.8333333333333</ele><time>2026-05-01T09:37:43.727Z</time></trkpt><trkpt lat="43.447785" lon="10.6232583"><ele>416.0</ele><time>2026-05-01T09:37:44.725Z</time></trkpt><trkpt lat="43.4477983" lon="10.6231617"><ele>416.0</ele><time>2026-05-01T09:37:45.726Z</time></trkpt><trkpt lat="43.4477717" lon="10.6230783"><ele>416.0</ele><time>2026-05-01T09:37:46.728Z</time></trkpt><trkpt lat="43.44772" lon="10.62301"><ele>416.0</ele><time>2026-05-01T09:37:47.728Z</time></trkpt><trkpt lat="43.4475583" lon="10.6230683"><ele>416.0</ele><time>2026-05-01T09:37:48.727Z</time></trkpt><trkpt lat="43.4474433" lon="10.62306"><ele>416.0</ele><time>2026-05-01T09:37:49.726Z</time></trkpt><trkpt lat="43.4473183" lon="10.62304"><ele>416.0</ele><time>2026-05-01T09:37:50.727Z</time></trkpt><trkpt lat="43.4472" lon="10.6229967"><ele>416.0</ele><time>2026-05-01T09:37:51.727Z</time></trkpt><trkpt lat="43.4470917" lon="10.622955"><ele>416.0</ele><time>2026-05-01T09:37:52.727Z</time></trkpt><trkpt lat="43.4469733" lon="10.6229133"><ele>416.0</ele><time>2026-05-01T09:37:53.726Z</time></trkpt><trkpt lat="43.44687" lon="10.6228383"><ele>414.4</ele><time>2026-05-01T09:37:54.727Z</time></trkpt><trkpt lat="43.4468217" lon="10.622705"><ele>412.8</ele><time>2026-05-01T09:37:55.727Z</time></trkpt><trkpt lat="43.4467767" lon="10.6225883"><ele>411.2</ele><time>2026-05-01T09:37:56.727Z</time></trkpt><trkpt lat="43.446755" lon="10.6224667"><ele>409.59999999999997</ele><time>2026-05-01T09:37:57.727Z</time></trkpt><trkpt lat="43.4467467" lon="10.6223283"><ele>408.0</ele><time>2026-05-01T09:37:58.726Z</time></trkpt><trkpt lat="43.4467117" lon="10.6222033"><ele>408.0</ele><time>2026-05-01T09:37:59.727Z</time></trkpt><trkpt lat="43.44665" lon="10.62208"><ele>408.0</ele><time>2026-05-01T09:38:00.727Z</time></trkpt><trkpt lat="43.4465317" lon="10.6219367"><ele>408.0</ele><time>2026-05-01T09:38:01.727Z</time></trkpt><trkpt lat="43.4464467" lon="10.62179"><ele>408.0</ele><time>2026-05-01T09:38:02.728Z</time></trkpt><trkpt lat="43.4463633" lon="10.6216383"><ele>407.25</ele><time>2026-05-01T09:38:03.727Z</time></trkpt><trkpt lat="43.4462667" lon="10.6214917"><ele>406.5</ele><time>2026-05-01T09:38:04.727Z</time></trkpt><trkpt lat="43.446155" lon="10.6213717"><ele>405.75</ele><time>2026-05-01T09:38:05.728Z</time></trkpt><trkpt lat="43.4460467" lon="10.621245"><ele>405.0</ele><time>2026-05-01T09:38:06.727Z</time></trkpt><trkpt lat="43.4459417" lon="10.6211033"><ele>407.0</ele><time>2026-05-01T09:38:07.725Z</time></trkpt><trkpt lat="43.4458533" lon="10.6209483"><ele>409.0</ele><time>2026-05-01T09:38:08.727Z</time></trkpt><trkpt lat="43.4457817" lon="10.6207933"><ele>411.0</ele><time>2026-05-01T09:38:09.726Z</time></trkpt><trkpt lat="43.445735" lon="10.6206317"><ele>413.0</ele><time>2026-05-01T09:38:10.726Z</time></trkpt><trkpt lat="43.4456983" lon="10.620475"><ele>412.99999999999994</ele><time>2026-05-01T09:38:11.728Z</time></trkpt><trkpt lat="43.445685" lon="10.6203333"><ele>413.0</ele><time>2026-05-01T09:38:12.727Z</time></trkpt><trkpt lat="43.4456667" lon="10.62021"><ele>413.0</ele><time>2026-05-01T09:38:13.729Z</time></trkpt><trkpt lat="43.4456567" lon="10.620085"><ele>413.0</ele><time>2026-05-01T09:38:14.727Z</time></trkpt><trkpt lat="43.4456367" lon="10.62"><ele>412.99999999999994</ele><time>2026-05-01T09:38:15.727Z</time></trkpt><trkpt lat="43.445645" lon="10.6198967"><ele>413.0</ele><time>2026-05-01T09:38:17.728Z</time></trkpt><trkpt lat="43.4456433" lon="10.6200317"><ele>413.0</ele><time>2026-05-01T09:38:20.726Z</time></trkpt><trkpt lat="43.4456217" lon="10.62014"><ele>413.0</ele><time>2026-05-01T09:38:21.729Z</time></trkpt><trkpt lat="43.4455933" lon="10.6202633"><ele>413.0</ele><time>2026-05-01T09:38:22.726Z</time></trkpt><trkpt lat="43.445555" lon="10.6204183"><ele>413.0</ele><time>2026-05-01T09:38:23.728Z</time></trkpt><trkpt lat="43.4454967" lon="10.6206217"><ele>413.0</ele><time>2026-05-01T09:38:24.727Z</time></trkpt><trkpt lat="43.4454933" lon="10.6208483"><ele>413.0</ele><time>2026-05-01T09:38:25.727Z</time></trkpt><trkpt lat="43.4454717" lon="10.6210533"><ele>413.0</ele><time>2026-05-01T09:38:26.727Z</time></trkpt><trkpt lat="43.44546" lon="10.6213183"><ele>410.3333333333333</ele><time>2026-05-01T09:38:27.726Z</time></trkpt><trkpt lat="43.4454667" lon="10.6215617"><ele>407.66666666666663</ele><time>2026-05-01T09:38:28.727Z</time></trkpt><trkpt lat="43.4454767" lon="10.6218083"><ele>405.0</ele><time>2026-05-01T09:38:29.727Z</time></trkpt><trkpt lat="43.4454717" lon="10.62206"><ele>402.33333333333337</ele><time>2026-05-01T09:38:30.727Z</time></trkpt><trkpt lat="43.4454717" lon="10.6223083"><ele>399.6666666666667</ele><time>2026-05-01T09:38:31.726Z</time></trkpt><trkpt lat="43.4454717" lon="10.6225433"><ele>397.0</ele><time>2026-05-01T09:38:32.727Z</time></trkpt><trkpt lat="43.4454783" lon="10.622765"><ele>394.75</ele><time>2026-05-01T09:38:33.727Z</time></trkpt><trkpt lat="43.4454967" lon="10.6229783"><ele>392.5</ele><time>2026-05-01T09:38:34.727Z</time></trkpt><trkpt lat="43.4455133" lon="10.62317"><ele>390.25</ele><time>2026-05-01T09:38:35.727Z</time></trkpt><trkpt lat="43.4455367" lon="10.6233333"><ele>388.0</ele><time>2026-05-01T09:38:36.727Z</time></trkpt><trkpt lat="43.44555" lon="10.62348"><ele>388.0</ele><time>2026-05-01T09:38:37.727Z</time></trkpt><trkpt lat="43.4455367" lon="10.6236"><ele>388.0</ele><time>2026-05-01T09:38:38.728Z</time></trkpt><trkpt lat="43.4454867" lon="10.6237017"><ele>388.0</ele><time>2026-05-01T09:38:39.727Z</time></trkpt><trkpt lat="43.4454217" lon="10.6237617"><ele>388.0</ele><time>2026-05-01T09:38:40.727Z</time></trkpt><trkpt lat="43.4453283" lon="10.6238017"><ele>388.0</ele><time>2026-05-01T09:38:41.727Z</time></trkpt><trkpt lat="43.44521" lon="10.6238117"><ele>390.79999999999995</ele><time>2026-05-01T09:38:42.725Z</time></trkpt><trkpt lat="43.445095" lon="10.623835"><ele>393.6</ele><time>2026-05-01T09:38:43.727Z</time></trkpt><trkpt lat="43.445015" lon="10.6238817"><ele>396.4</ele><time>2026-05-01T09:38:44.728Z</time></trkpt><trkpt lat="43.4449567" lon="10.6239717"><ele>399.20000000000005</ele><time>2026-05-01T09:38:45.726Z</time></trkpt><trkpt lat="43.4449317" lon="10.6240933"><ele>402.0</ele><time>2026-05-01T09:38:46.727Z</time></trkpt><trkpt lat="43.444915" lon="10.624265"><ele>402.0</ele><time>2026-05-01T09:38:47.726Z</time></trkpt><trkpt lat="43.4448833" lon="10.6244567"><ele>402.0</ele><time>2026-05-01T09:38:48.727Z</time></trkpt><trkpt lat="43.444845" lon="10.6246417"><ele>402.0</ele><time>2026-05-01T09:38:49.727Z</time></trkpt><trkpt lat="43.4447983" lon="10.62482"><ele>402.0</ele><time>2026-05-01T09:38:50.727Z</time></trkpt><trkpt lat="43.444765" lon="10.6249867"><ele>400.6</ele><time>2026-05-01T09:38:51.727Z</time></trkpt><trkpt lat="43.4447333" lon="10.6251383"><ele>399.20000000000005</ele><time>2026-05-01T09:38:52.727Z</time></trkpt><trkpt lat="43.4446933" lon="10.6252783"><ele>397.8</ele><time>2026-05-01T09:38:53.727Z</time></trkpt><trkpt lat="43.4446367" lon="10.6254067"><ele>396.4</ele><time>2026-05-01T09:38:54.727Z</time></trkpt><trkpt lat="43.444565" lon="10.6255217"><ele>395.0</ele><time>2026-05-01T09:38:55.725Z</time></trkpt><trkpt lat="43.4444417" lon="10.62561"><ele>395.0</ele><time>2026-05-01T09:38:56.727Z</time></trkpt><trkpt lat="43.4443117" lon="10.625675"><ele>395.0</ele><time>2026-05-01T09:38:57.727Z</time></trkpt><trkpt lat="43.444175" lon="10.62571"><ele>395.0</ele><time>2026-05-01T09:38:58.727Z</time></trkpt><trkpt lat="43.4440417" lon="10.625715"><ele>395.0</ele><time>2026-05-01T09:38:59.727Z</time></trkpt><trkpt lat="43.4439017" lon="10.6256983"><ele>394.5</ele><time>2026-05-01T09:39:00.727Z</time></trkpt><trkpt lat="43.4437667" lon="10.6256617"><ele>394.0</ele><time>2026-05-01T09:39:01.727Z</time></trkpt><trkpt lat="43.44363" lon="10.6256133"><ele>393.5</ele><time>2026-05-01T09:39:02.727Z</time></trkpt><trkpt lat="43.4434933" lon="10.625555"><ele>393.0</ele><time>2026-05-01T09:39:03.727Z</time></trkpt><trkpt lat="43.443365" lon="10.6254833"><ele>393.0</ele><time>2026-05-01T09:39:04.726Z</time></trkpt><trkpt lat="43.4432283" lon="10.625415"><ele>393.0</ele><time>2026-05-01T09:39:05.726Z</time></trkpt><trkpt lat="43.4430983" lon="10.6253433"><ele>393.0</ele><time>2026-05-01T09:39:06.726Z</time></trkpt><trkpt lat="43.44297" lon="10.6253017"><ele>393.0</ele><time>2026-05-01T09:39:07.727Z</time></trkpt><trkpt lat="43.4428483" lon="10.62527"><ele>395.5</ele><time>2026-05-01T09:39:08.728Z</time></trkpt><trkpt lat="43.4427283" lon="10.62523"><ele>398.0</ele><time>2026-05-01T09:39:09.726Z</time></trkpt><trkpt lat="43.4426217" lon="10.6251633"><ele>400.5</ele><time>2026-05-01T09:39:10.726Z</time></trkpt><trkpt lat="43.442525" lon="10.6250617"><ele>403.0</ele><time>2026-05-01T09:39:11.727Z</time></trkpt><trkpt lat="43.4424367" lon="10.6249183"><ele>403.0</ele><time>2026-05-01T09:39:12.727Z</time></trkpt><trkpt lat="43.442345" lon="10.62476"><ele>403.0</ele><time>2026-05-01T09:39:13.726Z</time></trkpt><trkpt lat="43.4422533" lon="10.624595"><ele>403.0</ele><time>2026-05-01T09:39:14.727Z</time></trkpt><trkpt lat="43.442165" lon="10.624435"><ele>403.0</ele><time>2026-05-01T09:39:15.727Z</time></trkpt><trkpt lat="43.4420833" lon="10.6242783"><ele>403.0</ele><time>2026-05-01T09:39:16.727Z</time></trkpt><trkpt lat="43.442" lon="10.6241217"><ele>403.0</ele><time>2026-05-01T09:39:17.726Z</time></trkpt><trkpt lat="43.441905" lon="10.6239683"><ele>403.0</ele><time>2026-05-01T09:39:18.726Z</time></trkpt><trkpt lat="43.4417983" lon="10.623825"><ele>403.0</ele><time>2026-05-01T09:39:19.726Z</time></trkpt><trkpt lat="43.4416767" lon="10.6237083"><ele>406.6666666666667</ele><time>2026-05-01T09:39:20.728Z</time></trkpt><trkpt lat="43.44154" lon="10.62362"><ele>410.33333333333337</ele><time>2026-05-01T09:39:21.726Z</time></trkpt><trkpt lat="43.4413883" lon="10.623565"><ele>414.0</ele><time>2026-05-01T09:39:22.727Z</time></trkpt><trkpt lat="43.4412317" lon="10.62354"><ele>414.0</ele><time>2026-05-01T09:39:23.727Z</time></trkpt><trkpt lat="43.4410867" lon="10.623545"><ele>414.0</ele><time>2026-05-01T09:39:24.727Z</time></trkpt><trkpt lat="43.4409467" lon="10.62356"><ele>414.0</ele><time>2026-05-01T09:39:25.726Z</time></trkpt><trkpt lat="43.440815" lon="10.62357"><ele>414.0</ele><time>2026-05-01T09:39:26.728Z</time></trkpt><trkpt lat="43.4406983" lon="10.6235467"><ele>414.0</ele><time>2026-05-01T09:39:27.727Z</time></trkpt><trkpt lat="43.4405983" lon="10.6234833"><ele>414.0</ele><time>2026-05-01T09:39:28.727Z</time></trkpt><trkpt lat="43.4405167" lon="10.623375"><ele>414.0</ele><time>2026-05-01T09:39:29.727Z</time></trkpt><trkpt lat="43.4404567" lon="10.6232167"><ele>414.0</ele><time>2026-05-01T09:39:30.727Z</time></trkpt><trkpt lat="43.4403983" lon="10.6230683"><ele>413.75</ele><time>2026-05-01T09:39:31.728Z</time></trkpt><trkpt lat="43.44035" lon="10.62292"><ele>413.5</ele><time>2026-05-01T09:39:32.727Z</time></trkpt><trkpt lat="43.4403167" lon="10.6227583"><ele>413.25</ele><time>2026-05-01T09:39:33.726Z</time></trkpt><trkpt lat="43.4403" lon="10.6226017"><ele>413.0</ele><time>2026-05-01T09:39:34.727Z</time></trkpt><trkpt lat="43.4402883" lon="10.622455"><ele>412.99999999999994</ele><time>2026-05-01T09:39:35.727Z</time></trkpt><trkpt lat="43.4402733" lon="10.62233"><ele>413.0</ele><time>2026-05-01T09:39:36.727Z</time></trkpt><trkpt lat="43.4402533" lon="10.6222417"><ele>413.0</ele><time>2026-05-01T09:39:37.727Z</time></trkpt><trkpt lat="43.4402233" lon="10.6221633"><ele>413.0</ele><time>2026-05-01T09:39:38.728Z</time></trkpt><trkpt lat="43.4401817" lon="10.6220533"><ele>412.99999999999994</ele><time>2026-05-01T09:39:40.727Z</time></trkpt><trkpt lat="43.4400833" lon="10.6220783"><ele>413.0</ele><time>2026-05-01T09:39:41.727Z</time></trkpt><trkpt lat="43.4399917" lon="10.622095"><ele>413.0</ele><time>2026-05-01T09:39:42.727Z</time></trkpt><trkpt lat="43.439895" lon="10.6221"><ele>413.0</ele><time>2026-05-01T09:39:43.726Z</time></trkpt><trkpt lat="43.4397933" lon="10.6220933"><ele>413.0</ele><time>2026-05-01T09:39:44.728Z</time></trkpt><trkpt lat="43.4396783" lon="10.6220633"><ele>413.0</ele><time>2026-05-01T09:39:45.727Z</time></trkpt><trkpt lat="43.4395683" lon="10.62201"><ele>413.0</ele><time>2026-05-01T09:39:46.727Z</time></trkpt><trkpt lat="43.4394533" lon="10.62195"><ele>414.5</ele><time>2026-05-01T09:39:47.727Z</time></trkpt><trkpt lat="43.439335" lon="10.6218767"><ele>416.0</ele><time>2026-05-01T09:39:48.727Z</time></trkpt><trkpt lat="43.4392183" lon="10.6218"><ele>417.5</ele><time>2026-05-01T09:39:49.727Z</time></trkpt><trkpt lat="43.4391017" lon="10.621715"><ele>419.0</ele><time>2026-05-01T09:39:50.726Z</time></trkpt><trkpt lat="43.438985" lon="10.6216267"><ele>419.0</ele><time>2026-05-01T09:39:51.727Z</time></trkpt><trkpt lat="43.4388717" lon="10.621535"><ele>419.0</ele><time>2026-05-01T09:39:52.727Z</time></trkpt><trkpt lat="43.4387617" lon="10.62145"><ele>419.0</ele><time>2026-05-01T09:39:53.727Z</time></trkpt><trkpt lat="43.438675" lon="10.6213483"><ele>419.0</ele><time>2026-05-01T09:39:54.727Z</time></trkpt><trkpt lat="43.4386083" lon="10.621235"><ele>419.5</ele><time>2026-05-01T09:39:55.727Z</time></trkpt><trkpt lat="43.438555" lon="10.6211117"><ele>420.0</ele><time>2026-05-01T09:39:56.728Z</time></trkpt><trkpt lat="43.4385233" lon="10.62097"><ele>420.5</ele><time>2026-05-01T09:39:57.728Z</time></trkpt><trkpt lat="43.4384983" lon="10.620815"><ele>421.0</ele><time>2026-05-01T09:39:58.727Z</time></trkpt><trkpt lat="43.4384833" lon="10.6206417"><ele>421.0</ele><time>2026-05-01T09:39:59.727Z</time></trkpt><trkpt lat="43.4384717" lon="10.62047"><ele>421.0</ele><time>2026-05-01T09:40:00.727Z</time></trkpt><trkpt lat="43.438465" lon="10.6202967"><ele>421.0</ele><time>2026-05-01T09:40:01.727Z</time></trkpt><trkpt lat="43.4384567" lon="10.6201333"><ele>421.0</ele><time>2026-05-01T09:40:02.728Z</time></trkpt><trkpt lat="43.4384533" lon="10.6199833"><ele>422.8</ele><time>2026-05-01T09:40:03.728Z</time></trkpt><trkpt lat="43.4384417" lon="10.6198683"><ele>424.6</ele><time>2026-05-01T09:40:04.727Z</time></trkpt><trkpt lat="43.43842" lon="10.6197617"><ele>426.4</ele><time>2026-05-01T09:40:05.726Z</time></trkpt><trkpt lat="43.438385" lon="10.6196683"><ele>428.2</ele><time>2026-05-01T09:40:06.726Z</time></trkpt><trkpt lat="43.438325" lon="10.6196033"><ele>430.0</ele><time>2026-05-01T09:40:07.728Z</time></trkpt><trkpt lat="43.438185" lon="10.6196283"><ele>430.0</ele><time>2026-05-01T09:40:08.727Z</time></trkpt><trkpt lat="43.438085" lon="10.619635"><ele>430.0</ele><time>2026-05-01T09:40:09.726Z</time></trkpt><trkpt lat="43.4379733" lon="10.6196833"><ele>430.0</ele><time>2026-05-01T09:40:10.727Z</time></trkpt><trkpt lat="43.43788" lon="10.619755"><ele>430.0</ele><time>2026-05-01T09:40:11.727Z</time></trkpt><trkpt lat="43.4377833" lon="10.619845"><ele>430.0</ele><time>2026-05-01T09:40:12.728Z</time></trkpt><trkpt lat="43.4376933" lon="10.619915"><ele>430.0</ele><time>2026-05-01T09:40:13.727Z</time></trkpt><trkpt lat="43.4375917" lon="10.61996"><ele>430.0</ele><time>2026-05-01T09:40:14.726Z</time></trkpt><trkpt lat="43.43748" lon="10.6199667"><ele>430.0</ele><time>2026-05-01T09:40:15.726Z</time></trkpt><trkpt lat="43.4373667" lon="10.6199433"><ele>430.0</ele><time>2026-05-01T09:40:16.727Z</time></trkpt><trkpt lat="43.4372567" lon="10.6199233"><ele>430.0</ele><time>2026-05-01T09:40:17.728Z</time></trkpt><trkpt lat="43.4371533" lon="10.619925"><ele>431.2</ele><time>2026-05-01T09:40:18.727Z</time></trkpt><trkpt lat="43.4370633" lon="10.61996"><ele>432.4</ele><time>2026-05-01T09:40:19.726Z</time></trkpt><trkpt lat="43.4369783" lon="10.6200267"><ele>433.6</ele><time>2026-05-01T09:40:20.728Z</time></trkpt><trkpt lat="43.436915" lon="10.620115"><ele>434.8</ele><time>2026-05-01T09:40:21.725Z</time></trkpt><trkpt lat="43.436875" lon="10.6202167"><ele>436.0</ele><time>2026-05-01T09:40:22.727Z</time></trkpt><trkpt lat="43.43684" lon="10.6203267"><ele>436.0</ele><time>2026-05-01T09:40:23.727Z</time></trkpt><trkpt lat="43.4368083" lon="10.6204533"><ele>436.0</ele><time>2026-05-01T09:40:24.727Z</time></trkpt><trkpt lat="43.4367733" lon="10.6205917"><ele>436.0</ele><time>2026-05-01T09:40:25.728Z</time></trkpt><trkpt lat="43.436725" lon="10.6207233"><ele>436.0</ele><time>2026-05-01T09:40:26.728Z</time></trkpt><trkpt lat="43.4366733" lon="10.6208483"><ele>436.0</ele><time>2026-05-01T09:40:27.727Z</time></trkpt><trkpt lat="43.4366033" lon="10.6209533"><ele>436.0</ele><time>2026-05-01T09:40:28.727Z</time></trkpt><trkpt lat="43.436515" lon="10.6210267"><ele>436.0</ele><time>2026-05-01T09:40:29.727Z</time></trkpt><trkpt lat="43.4364267" lon="10.6210833"><ele>436.0</ele><time>2026-05-01T09:40:30.727Z</time></trkpt><trkpt lat="43.4363367" lon="10.6211083"><ele>436.0</ele><time>2026-05-01T09:40:31.726Z</time></trkpt><trkpt lat="43.4362367" lon="10.621105"><ele>436.0</ele><time>2026-05-01T09:40:32.727Z</time></trkpt><trkpt lat="43.4361483" lon="10.62109"><ele>437.0</ele><time>2026-05-01T09:40:33.727Z</time></trkpt><trkpt lat="43.436095" lon="10.6209517"><ele>438.0</ele><time>2026-05-01T09:40:34.727Z</time></trkpt><trkpt lat="43.4360517" lon="10.62082"><ele>439.0</ele><time>2026-05-01T09:40:35.726Z</time></trkpt><trkpt lat="43.4360133" lon="10.6206783"><ele>440.0</ele><time>2026-05-01T09:40:36.725Z</time></trkpt><trkpt lat="43.4359817" lon="10.6205283"><ele>441.0</ele><time>2026-05-01T09:40:37.728Z</time></trkpt><trkpt lat="43.4359383" lon="10.6203917"><ele>443.0</ele><time>2026-05-01T09:40:38.727Z</time></trkpt><trkpt lat="43.4358883" lon="10.6202517"><ele>445.0</ele><time>2026-05-01T09:40:39.727Z</time></trkpt><trkpt lat="43.4358117" lon="10.6201567"><ele>447.0</ele><time>2026-05-01T09:40:40.728Z</time></trkpt><trkpt lat="43.4357133" lon="10.6200917"><ele>449.0</ele><time>2026-05-01T09:40:41.728Z</time></trkpt><trkpt lat="43.435605" lon="10.6200583"><ele>451.0</ele><time>2026-05-01T09:40:42.726Z</time></trkpt><trkpt lat="43.435495" lon="10.6200383"><ele>450.83333333333337</ele><time>2026-05-01T09:40:43.727Z</time></trkpt><trkpt lat="43.4353883" lon="10.62002"><ele>450.6666666666667</ele><time>2026-05-01T09:40:44.726Z</time></trkpt><trkpt lat="43.4352883" lon="10.62"><ele>450.5</ele><time>2026-05-01T09:40:45.726Z</time></trkpt><trkpt lat="43.435205" lon="10.6199817"><ele>450.33333333333337</ele><time>2026-05-01T09:40:46.727Z</time></trkpt><trkpt lat="43.4351283" lon="10.6199583"><ele>450.1666666666667</ele><time>2026-05-01T09:40:47.727Z</time></trkpt><trkpt lat="43.435055" lon="10.6199233"><ele>450.0</ele><time>2026-05-01T09:40:48.725Z</time></trkpt><trkpt lat="43.4349867" lon="10.61987"><ele>450.0</ele><time>2026-05-01T09:40:49.726Z</time></trkpt><trkpt lat="43.4349317" lon="10.6197933"><ele>450.0</ele><time>2026-05-01T09:40:50.726Z</time></trkpt><trkpt lat="43.4349083" lon="10.6196833"><ele>450.0</ele><time>2026-05-01T09:40:51.727Z</time></trkpt><trkpt lat="43.434895" lon="10.61956"><ele>450.0</ele><time>2026-05-01T09:40:52.725Z</time></trkpt><trkpt lat="43.4349267" lon="10.61937"><ele>450.0</ele><time>2026-05-01T09:40:53.725Z</time></trkpt><trkpt lat="43.4349567" lon="10.6192"><ele>451.0</ele><time>2026-05-01T09:40:54.728Z</time></trkpt><trkpt lat="43.43497" lon="10.6190317"><ele>452.0</ele><time>2026-05-01T09:40:55.727Z</time></trkpt><trkpt lat="43.43496" lon="10.6188617"><ele>453.0</ele><time>2026-05-01T09:40:56.727Z</time></trkpt><trkpt lat="43.4349317" lon="10.6187"><ele>454.0</ele><time>2026-05-01T09:40:57.727Z</time></trkpt><trkpt lat="43.4348867" lon="10.6185417"><ele>455.5</ele><time>2026-05-01T09:40:58.726Z</time></trkpt><trkpt lat="43.4348267" lon="10.61839"><ele>457.0</ele><time>2026-05-01T09:40:59.726Z</time></trkpt><trkpt lat="43.4347683" lon="10.61824"><ele>458.5</ele><time>2026-05-01T09:41:00.726Z</time></trkpt><trkpt lat="43.4347233" lon="10.6180883"><ele>460.0</ele><time>2026-05-01T09:41:01.727Z</time></trkpt><trkpt lat="43.4347017" lon="10.61794"><ele>461.2</ele><time>2026-05-01T09:41:02.727Z</time></trkpt><trkpt lat="43.43469" lon="10.6177967"><ele>462.4</ele><time>2026-05-01T09:41:03.725Z</time></trkpt><trkpt lat="43.4346917" lon="10.6176533"><ele>463.6</ele><time>2026-05-01T09:41:04.725Z</time></trkpt><trkpt lat="43.4347133" lon="10.6175083"><ele>464.8</ele><time>2026-05-01T09:41:05.727Z</time></trkpt><trkpt lat="43.4347433" lon="10.6173583"><ele>466.0</ele><time>2026-05-01T09:41:06.725Z</time></trkpt><trkpt lat="43.4347667" lon="10.6172067"><ele>466.0</ele><time>2026-05-01T09:41:07.726Z</time></trkpt><trkpt lat="43.434795" lon="10.6170467"><ele>466.0</ele><time>2026-05-01T09:41:08.727Z</time></trkpt><trkpt lat="43.4348" lon="10.6168867"><ele>466.0</ele><time>2026-05-01T09:41:09.728Z</time></trkpt><trkpt lat="43.4347883" lon="10.61672"><ele>466.0</ele><time>2026-05-01T09:41:10.726Z</time></trkpt><trkpt lat="43.43476" lon="10.61656"><ele>465.25</ele><time>2026-05-01T09:41:11.727Z</time></trkpt><trkpt lat="43.4347233" lon="10.6163967"><ele>464.5</ele><time>2026-05-01T09:41:12.727Z</time></trkpt><trkpt lat="43.43467" lon="10.61624"><ele>463.75</ele><time>2026-05-01T09:41:13.728Z</time></trkpt><trkpt lat="43.4346117" lon="10.6160983"><ele>463.0</ele><time>2026-05-01T09:41:14.729Z</time></trkpt><trkpt lat="43.4345567" lon="10.6159583"><ele>463.0</ele><time>2026-05-01T09:41:15.727Z</time></trkpt><trkpt lat="43.4345067" lon="10.6158183"><ele>462.99999999999994</ele><time>2026-05-01T09:41:16.727Z</time></trkpt><trkpt lat="43.4344433" lon="10.6156817"><ele>462.99999999999994</ele><time>2026-05-01T09:41:17.727Z</time></trkpt><trkpt lat="43.43438" lon="10.6155583"><ele>463.0</ele><time>2026-05-01T09:41:18.726Z</time></trkpt><trkpt lat="43.4343133" lon="10.615445"><ele>463.0</ele><time>2026-05-01T09:41:19.728Z</time></trkpt><trkpt lat="43.4342283" lon="10.6153433"><ele>466.4</ele><time>2026-05-01T09:41:20.727Z</time></trkpt><trkpt lat="43.4341433" lon="10.61524"><ele>469.79999999999995</ele><time>2026-05-01T09:41:21.727Z</time></trkpt><trkpt lat="43.4340683" lon="10.61513"><ele>473.2</ele><time>2026-05-01T09:41:22.726Z</time></trkpt><trkpt lat="43.4340017" lon="10.6150033"><ele>476.6</ele><time>2026-05-01T09:41:23.728Z</time></trkpt><trkpt lat="43.4339333" lon="10.6148817"><ele>480.0</ele><time>2026-05-01T09:41:24.726Z</time></trkpt><trkpt lat="43.4339167" lon="10.6147383"><ele>480.0</ele><time>2026-05-01T09:41:25.727Z</time></trkpt><trkpt lat="43.4339083" lon="10.6145817"><ele>480.0</ele><time>2026-05-01T09:41:26.728Z</time></trkpt><trkpt lat="43.4339067" lon="10.6144433"><ele>480.0</ele><time>2026-05-01T09:41:27.726Z</time></trkpt><trkpt lat="43.4339133" lon="10.614315"><ele>480.0</ele><time>2026-05-01T09:41:28.727Z</time></trkpt><trkpt lat="43.433915" lon="10.6141883"><ele>480.0</ele><time>2026-05-01T09:41:29.726Z</time></trkpt><trkpt lat="43.433905" lon="10.61407"><ele>480.5</ele><time>2026-05-01T09:41:30.726Z</time></trkpt><trkpt lat="43.4338817" lon="10.6139667"><ele>481.0</ele><time>2026-05-01T09:41:31.728Z</time></trkpt><trkpt lat="43.4338417" lon="10.6138733"><ele>481.5</ele><time>2026-05-01T09:41:32.728Z</time></trkpt><trkpt lat="43.43377" lon="10.613845"><ele>482.0</ele><time>2026-05-01T09:41:33.726Z</time></trkpt><trkpt lat="43.43369" lon="10.6138617"><ele>482.5</ele><time>2026-05-01T09:41:34.727Z</time></trkpt><trkpt lat="43.4336167" lon="10.61392"><ele>483.0</ele><time>2026-05-01T09:41:35.728Z</time></trkpt><trkpt lat="43.433545" lon="10.6139933"><ele>483.0</ele><time>2026-05-01T09:41:36.728Z</time></trkpt><trkpt lat="43.43348" lon="10.6140833"><ele>482.99999999999994</ele><time>2026-05-01T09:41:37.728Z</time></trkpt><trkpt lat="43.4334333" lon="10.614185"><ele>482.99999999999994</ele><time>2026-05-01T09:41:38.728Z</time></trkpt><trkpt lat="43.433375" lon="10.614295"><ele>483.0</ele><time>2026-05-01T09:41:39.726Z</time></trkpt><trkpt lat="43.43332" lon="10.6143983"><ele>483.0</ele><time>2026-05-01T09:41:40.726Z</time></trkpt><trkpt lat="43.433265" lon="10.61448"><ele>481.0</ele><time>2026-05-01T09:41:41.727Z</time></trkpt><trkpt lat="43.4331917" lon="10.614535"><ele>478.99999999999994</ele><time>2026-05-01T09:41:42.728Z</time></trkpt><trkpt lat="43.43311" lon="10.61456"><ele>476.99999999999994</ele><time>2026-05-01T09:41:43.728Z</time></trkpt><trkpt lat="43.4330383" lon="10.6145967"><ele>475.0</ele><time>2026-05-01T09:41:44.727Z</time></trkpt><trkpt lat="43.4329767" lon="10.6144883"><ele>473.0</ele><time>2026-05-01T09:41:45.727Z</time></trkpt><trkpt lat="43.4329367" lon="10.6143433"><ele>473.0</ele><time>2026-05-01T09:41:46.727Z</time></trkpt><trkpt lat="43.4328933" lon="10.6142267"><ele>472.99999999999994</ele><time>2026-05-01T09:41:47.728Z</time></trkpt><trkpt lat="43.4328567" lon="10.6141017"><ele>472.99999999999994</ele><time>2026-05-01T09:41:48.727Z</time></trkpt><trkpt lat="43.432835" lon="10.6139433"><ele>473.0</ele><time>2026-05-01T09:41:49.727Z</time></trkpt><trkpt lat="43.4328267" lon="10.613775"><ele>473.0</ele><time>2026-05-01T09:41:50.728Z</time></trkpt><trkpt lat="43.4328117" lon="10.6135817"><ele>475.0</ele><time>2026-05-01T09:41:51.726Z</time></trkpt><trkpt lat="43.432795" lon="10.6133883"><ele>477.0</ele><time>2026-05-01T09:41:52.726Z</time></trkpt><trkpt lat="43.43276" lon="10.6131983"><ele>479.0</ele><time>2026-05-01T09:41:53.726Z</time></trkpt><trkpt lat="43.4327033" lon="10.613025"><ele>481.0</ele><time>2026-05-01T09:41:54.727Z</time></trkpt><trkpt lat="43.43264" lon="10.6128617"><ele>483.5</ele><time>2026-05-01T09:41:55.728Z</time></trkpt><trkpt lat="43.43258" lon="10.6126967"><ele>486.0</ele><time>2026-05-01T09:41:56.728Z</time></trkpt><trkpt lat="43.4325183" lon="10.6125533"><ele>488.5</ele><time>2026-05-01T09:41:57.726Z</time></trkpt><trkpt lat="43.4324567" lon="10.6124117"><ele>491.0</ele><time>2026-05-01T09:41:58.727Z</time></trkpt><trkpt lat="43.4323933" lon="10.6122717"><ele>491.0</ele><time>2026-05-01T09:41:59.728Z</time></trkpt><trkpt lat="43.4323433" lon="10.6121267"><ele>491.0</ele><time>2026-05-01T09:42:00.728Z</time></trkpt><trkpt lat="43.4322933" lon="10.6119783"><ele>491.0</ele><time>2026-05-01T09:42:01.727Z</time></trkpt><trkpt lat="43.4322567" lon="10.611835"><ele>491.0</ele><time>2026-05-01T09:42:02.727Z</time></trkpt><trkpt lat="43.4322333" lon="10.6116817"><ele>492.75</ele><time>2026-05-01T09:42:03.727Z</time></trkpt><trkpt lat="43.4322183" lon="10.6115233"><ele>494.5</ele><time>2026-05-01T09:42:04.726Z</time></trkpt><trkpt lat="43.4321967" lon="10.6113567"><ele>496.25</ele><time>2026-05-01T09:42:05.726Z</time></trkpt><trkpt lat="43.4321533" lon="10.611235"><ele>498.0</ele><time>2026-05-01T09:42:06.729Z</time></trkpt><trkpt lat="43.4321367" lon="10.6110767"><ele>495.0</ele><time>2026-05-01T09:42:07.727Z</time></trkpt><trkpt lat="43.4321283" lon="10.610935"><ele>491.99999999999994</ele><time>2026-05-01T09:42:08.728Z</time></trkpt><trkpt lat="43.4321333" lon="10.6107933"><ele>488.99999999999994</ele><time>2026-05-01T09:42:09.728Z</time></trkpt><trkpt lat="43.4321267" lon="10.610655"><ele>486.0</ele><time>2026-05-01T09:42:10.726Z</time></trkpt><trkpt lat="43.4320983" lon="10.6105217"><ele>483.0</ele><time>2026-05-01T09:42:11.727Z</time></trkpt><trkpt lat="43.43205" lon="10.6103817"><ele>484.59999999999997</ele><time>2026-05-01T09:42:12.727Z</time></trkpt><trkpt lat="43.4320067" lon="10.6102567"><ele>486.19999999999993</ele><time>2026-05-01T09:42:13.726Z</time></trkpt><trkpt lat="43.431955" lon="10.6101367"><ele>487.8</ele><time>2026-05-01T09:42:14.728Z</time></trkpt><trkpt lat="43.4319133" lon="10.6100183"><ele>489.4</ele><time>2026-05-01T09:42:15.726Z</time></trkpt><trkpt lat="43.4318967" lon="10.6098817"><ele>491.0</ele><time>2026-05-01T09:42:16.726Z</time></trkpt><trkpt lat="43.4318933" lon="10.6097367"><ele>491.0</ele><time>2026-05-01T09:42:17.728Z</time></trkpt><trkpt lat="43.4318883" lon="10.6095917"><ele>491.0</ele><time>2026-05-01T09:42:18.728Z</time></trkpt><trkpt lat="43.4318867" lon="10.6094433"><ele>491.0</ele><time>2026-05-01T09:42:19.728Z</time></trkpt><trkpt lat="43.4318717" lon="10.6093033"><ele>491.0</ele><time>2026-05-01T09:42:20.727Z</time></trkpt><trkpt lat="43.4318467" lon="10.609155"><ele>491.0</ele><time>2026-05-01T09:42:21.728Z</time></trkpt><trkpt lat="43.4318" lon="10.6090217"><ele>493.0</ele><time>2026-05-01T09:42:22.727Z</time></trkpt><trkpt lat="43.4317083" lon="10.6089267"><ele>495.0</ele><time>2026-05-01T09:42:23.727Z</time></trkpt><trkpt lat="43.4315933" lon="10.608875"><ele>497.0</ele><time>2026-05-01T09:42:24.728Z</time></trkpt><trkpt lat="43.431445" lon="10.6088333"><ele>499.0</ele><time>2026-05-01T09:42:25.728Z</time></trkpt><trkpt lat="43.43128" lon="10.6087767"><ele>499.0</ele><time>2026-05-01T09:42:26.728Z</time></trkpt><trkpt lat="43.4311" lon="10.6087217"><ele>499.0</ele><time>2026-05-01T09:42:27.727Z</time></trkpt><trkpt lat="43.4309133" lon="10.6086617"><ele>499.0</ele><time>2026-05-01T09:42:28.728Z</time></trkpt><trkpt lat="43.4307333" lon="10.6085983"><ele>499.33333333333337</ele><time>2026-05-01T09:42:29.728Z</time></trkpt><trkpt lat="43.430565" lon="10.608535"><ele>499.66666666666663</ele><time>2026-05-01T09:42:30.728Z</time></trkpt><trkpt lat="43.43041" lon="10.6084883"><ele>500.0</ele><time>2026-05-01T09:42:31.727Z</time></trkpt><trkpt lat="43.4302583" lon="10.6084633"><ele>500.0</ele><time>2026-05-01T09:42:32.726Z</time></trkpt><trkpt lat="43.4301067" lon="10.6084367"><ele>500.0</ele><time>2026-05-01T09:42:33.727Z</time></trkpt><trkpt lat="43.4299633" lon="10.6083883"><ele>500.0</ele><time>2026-05-01T09:42:34.727Z</time></trkpt><trkpt lat="43.4298233" lon="10.60832"><ele>500.0</ele><time>2026-05-01T09:42:35.727Z</time></trkpt><trkpt lat="43.4297083" lon="10.6082017"><ele>500.0</ele><time>2026-05-01T09:42:36.727Z</time></trkpt><trkpt lat="43.4295983" lon="10.6080717"><ele>500.0</ele><time>2026-05-01T09:42:37.727Z</time></trkpt><trkpt lat="43.42949" lon="10.6079383"><ele>500.0</ele><time>2026-05-01T09:42:38.728Z</time></trkpt><trkpt lat="43.4293783" lon="10.6078033"><ele>500.0</ele><time>2026-05-01T09:42:39.728Z</time></trkpt><trkpt lat="43.4292567" lon="10.6076833"><ele>500.0</ele><time>2026-05-01T09:42:40.727Z</time></trkpt><trkpt lat="43.42912" lon="10.6075933"><ele>500.0</ele><time>2026-05-01T09:42:41.727Z</time></trkpt><trkpt lat="43.4289967" lon="10.6075133"><ele>500.0</ele><time>2026-05-01T09:42:42.727Z</time></trkpt><trkpt lat="43.42887" lon="10.607425"><ele>500.0</ele><time>2026-05-01T09:42:43.728Z</time></trkpt><trkpt lat="43.4287467" lon="10.6073317"><ele>498.0</ele><time>2026-05-01T09:42:44.728Z</time></trkpt><trkpt lat="43.4286317" lon="10.6072317"><ele>496.0</ele><time>2026-05-01T09:42:45.727Z</time></trkpt><trkpt lat="43.4285383" lon="10.6071367"><ele>494.0</ele><time>2026-05-01T09:42:46.728Z</time></trkpt><trkpt lat="43.4284183" lon="10.607045"><ele>492.0</ele><time>2026-05-01T09:42:47.726Z</time></trkpt><trkpt lat="43.428275" lon="10.6069533"><ele>492.0</ele><time>2026-05-01T09:42:48.728Z</time></trkpt><trkpt lat="43.4281" lon="10.60686"><ele>492.0</ele><time>2026-05-01T09:42:49.728Z</time></trkpt><trkpt lat="43.4279383" lon="10.6067483"><ele>492.0</ele><time>2026-05-01T09:42:50.728Z</time></trkpt><trkpt lat="43.427795" lon="10.6066383"><ele>493.66666666666663</ele><time>2026-05-01T09:42:51.728Z</time></trkpt><trkpt lat="43.4276367" lon="10.6065617"><ele>495.3333333333333</ele><time>2026-05-01T09:42:52.727Z</time></trkpt><trkpt lat="43.427495" lon="10.60652"><ele>497.0</ele><time>2026-05-01T09:42:53.728Z</time></trkpt><trkpt lat="43.42734" lon="10.6064933"><ele>496.66666666666663</ele><time>2026-05-01T09:42:54.727Z</time></trkpt><trkpt lat="43.4271417" lon="10.606505"><ele>496.33333333333337</ele><time>2026-05-01T09:42:55.726Z</time></trkpt><trkpt lat="43.4269567" lon="10.6065317"><ele>496.0</ele><time>2026-05-01T09:42:56.728Z</time></trkpt><trkpt lat="43.4267733" lon="10.6065717"><ele>496.0</ele><time>2026-05-01T09:42:57.727Z</time></trkpt><trkpt lat="43.4265817" lon="10.6066333"><ele>496.0</ele><time>2026-05-01T09:42:58.727Z</time></trkpt><trkpt lat="43.4264183" lon="10.6066817"><ele>496.0</ele><time>2026-05-01T09:42:59.727Z</time></trkpt><trkpt lat="43.4262633" lon="10.6066933"><ele>495.25</ele><time>2026-05-01T09:43:00.728Z</time></trkpt><trkpt lat="43.42611" lon="10.6067"><ele>494.5</ele><time>2026-05-01T09:43:01.726Z</time></trkpt><trkpt lat="43.4259817" lon="10.606705"><ele>493.75</ele><time>2026-05-01T09:43:02.727Z</time></trkpt><trkpt lat="43.4258633" lon="10.606735"><ele>493.0</ele><time>2026-05-01T09:43:03.727Z</time></trkpt><trkpt lat="43.4257483" lon="10.606805"><ele>493.0</ele><time>2026-05-01T09:43:04.728Z</time></trkpt><trkpt lat="43.4256267" lon="10.60692"><ele>493.0</ele><time>2026-05-01T09:43:05.728Z</time></trkpt><trkpt lat="43.4254933" lon="10.6070233"><ele>493.0</ele><time>2026-05-01T09:43:06.727Z</time></trkpt><trkpt lat="43.4253467" lon="10.60709"><ele>495.33333333333337</ele><time>2026-05-01T09:43:07.729Z</time></trkpt><trkpt lat="43.425185" lon="10.6071317"><ele>497.66666666666663</ele><time>2026-05-01T09:43:08.728Z</time></trkpt><trkpt lat="43.42502" lon="10.6071633"><ele>500.0</ele><time>2026-05-01T09:43:09.727Z</time></trkpt><trkpt lat="43.4248383" lon="10.6072017"><ele>500.0</ele><time>2026-05-01T09:43:10.727Z</time></trkpt><trkpt lat="43.42466" lon="10.6072417"><ele>500.0</ele><time>2026-05-01T09:43:11.727Z</time></trkpt><trkpt lat="43.4244933" lon="10.6072933"><ele>500.0</ele><time>2026-05-01T09:43:12.728Z</time></trkpt><trkpt lat="43.42434" lon="10.6073317"><ele>498.66666666666663</ele><time>2026-05-01T09:43:13.727Z</time></trkpt><trkpt lat="43.4241917" lon="10.6073417"><ele>497.33333333333337</ele><time>2026-05-01T09:43:14.728Z</time></trkpt><trkpt lat="43.4240433" lon="10.6073033"><ele>496.0</ele><time>2026-05-01T09:43:15.726Z</time></trkpt><trkpt lat="43.4238983" lon="10.6072367"><ele>496.33333333333337</ele><time>2026-05-01T09:43:16.727Z</time></trkpt><trkpt lat="43.4237517" lon="10.607135"><ele>496.66666666666663</ele><time>2026-05-01T09:43:17.727Z</time></trkpt><trkpt lat="43.4235983" lon="10.6070233"><ele>497.0</ele><time>2026-05-01T09:43:18.728Z</time></trkpt><trkpt lat="43.42344" lon="10.6068983"><ele>497.0</ele><time>2026-05-01T09:43:19.728Z</time></trkpt><trkpt lat="43.4232867" lon="10.6067667"><ele>497.0</ele><time>2026-05-01T09:43:20.729Z</time></trkpt><trkpt lat="43.42313" lon="10.606635"><ele>497.0</ele><time>2026-05-01T09:43:21.729Z</time></trkpt><trkpt lat="43.4229633" lon="10.6065083"><ele>496.3333333333333</ele><time>2026-05-01T09:43:22.727Z</time></trkpt><trkpt lat="43.4227967" lon="10.6063917"><ele>495.66666666666663</ele><time>2026-05-01T09:43:23.727Z</time></trkpt><trkpt lat="43.4226283" lon="10.6062633"><ele>495.0</ele><time>2026-05-01T09:43:24.728Z</time></trkpt><trkpt lat="43.42246" lon="10.606135"><ele>497.66666666666663</ele><time>2026-05-01T09:43:25.727Z</time></trkpt><trkpt lat="43.4222833" lon="10.6060233"><ele>500.3333333333333</ele><time>2026-05-01T09:43:26.728Z</time></trkpt><trkpt lat="43.4221183" lon="10.605905"><ele>503.0</ele><time>2026-05-01T09:43:27.728Z</time></trkpt><trkpt lat="43.4219483" lon="10.6058133"><ele>503.3333333333333</ele><time>2026-05-01T09:43:28.727Z</time></trkpt><trkpt lat="43.4217783" lon="10.60572"><ele>503.66666666666663</ele><time>2026-05-01T09:43:29.728Z</time></trkpt><trkpt lat="43.4216033" lon="10.6056417"><ele>504.0</ele><time>2026-05-01T09:43:30.727Z</time></trkpt><trkpt lat="43.421435" lon="10.6055783"><ele>505.33333333333337</ele><time>2026-05-01T09:43:31.727Z</time></trkpt><trkpt lat="43.4212717" lon="10.6055117"><ele>506.6666666666667</ele><time>2026-05-01T09:43:32.728Z</time></trkpt><trkpt lat="43.42112" lon="10.6054233"><ele>508.0</ele><time>2026-05-01T09:43:33.729Z</time></trkpt><trkpt lat="43.420985" lon="10.6053083"><ele>508.33333333333337</ele><time>2026-05-01T09:43:34.728Z</time></trkpt><trkpt lat="43.4208683" lon="10.6051583"><ele>508.66666666666663</ele><time>2026-05-01T09:43:35.73Z</time></trkpt><trkpt lat="43.4207617" lon="10.6049933"><ele>509.0</ele><time>2026-05-01T09:43:36.728Z</time></trkpt><trkpt lat="43.4206617" lon="10.6048167"><ele>509.0</ele><time>2026-05-01T09:43:37.728Z</time></trkpt><trkpt lat="43.42059" lon="10.604615"><ele>509.0</ele><time>2026-05-01T09:43:38.728Z</time></trkpt><trkpt lat="43.42054" lon="10.6044"><ele>509.0</ele><time>2026-05-01T09:43:39.727Z</time></trkpt><trkpt lat="43.420505" lon="10.6041967"><ele>511.0</ele><time>2026-05-01T09:43:40.727Z</time></trkpt><trkpt lat="43.42047" lon="10.6040033"><ele>513.0</ele><time>2026-05-01T09:43:41.728Z</time></trkpt><trkpt lat="43.4204183" lon="10.60385"><ele>515.0</ele><time>2026-05-01T09:43:42.727Z</time></trkpt><trkpt lat="43.420345" lon="10.6037217"><ele>517.0</ele><time>2026-05-01T09:43:43.727Z</time></trkpt><trkpt lat="43.420245" lon="10.603615"><ele>517.0</ele><time>2026-05-01T09:43:44.729Z</time></trkpt><trkpt lat="43.42014" lon="10.6035033"><ele>517.0</ele><time>2026-05-01T09:43:45.728Z</time></trkpt><trkpt lat="43.42005" lon="10.6033717"><ele>517.0</ele><time>2026-05-01T09:43:46.729Z</time></trkpt><trkpt lat="43.4199867" lon="10.603205"><ele>517.0</ele><time>2026-05-01T09:43:47.728Z</time></trkpt><trkpt lat="43.4199467" lon="10.6030067"><ele>515.6666666666667</ele><time>2026-05-01T09:43:48.728Z</time></trkpt><trkpt lat="43.4199217" lon="10.6027867"><ele>514.3333333333334</ele><time>2026-05-01T09:43:49.728Z</time></trkpt><trkpt lat="43.419905" lon="10.6025733"><ele>513.0</ele><time>2026-05-01T09:43:50.728Z</time></trkpt><trkpt lat="43.4199117" lon="10.6023817"><ele>513.0</ele><time>2026-05-01T09:43:51.728Z</time></trkpt><trkpt lat="43.4199517" lon="10.6022317"><ele>513.0</ele><time>2026-05-01T09:43:52.729Z</time></trkpt><trkpt lat="43.420035" lon="10.6020983"><ele>513.0</ele><time>2026-05-01T09:43:53.73Z</time></trkpt><trkpt lat="43.42014" lon="10.6019867"><ele>513.0</ele><time>2026-05-01T09:43:54.728Z</time></trkpt><trkpt lat="43.4202467" lon="10.60186"><ele>513.25</ele><time>2026-05-01T09:43:55.727Z</time></trkpt><trkpt lat="43.4203467" lon="10.6017233"><ele>513.5</ele><time>2026-05-01T09:43:56.727Z</time></trkpt><trkpt lat="43.420415" lon="10.6015717"><ele>513.75</ele><time>2026-05-01T09:43:57.728Z</time></trkpt><trkpt lat="43.420495" lon="10.6013983"><ele>514.0</ele><time>2026-05-01T09:43:58.728Z</time></trkpt><trkpt lat="43.4205433" lon="10.601205"><ele>509.5</ele><time>2026-05-01T09:43:59.727Z</time></trkpt><trkpt lat="43.4205783" lon="10.6010067"><ele>505.0</ele><time>2026-05-01T09:44:00.727Z</time></trkpt><trkpt lat="43.4205983" lon="10.6008167"><ele>500.5</ele><time>2026-05-01T09:44:01.728Z</time></trkpt><trkpt lat="43.4206017" lon="10.6006217"><ele>496.0</ele><time>2026-05-01T09:44:02.727Z</time></trkpt><trkpt lat="43.420555" lon="10.6004133"><ele>495.33333333333337</ele><time>2026-05-01T09:44:03.726Z</time></trkpt><trkpt lat="43.4205233" lon="10.60022"><ele>494.66666666666663</ele><time>2026-05-01T09:44:04.727Z</time></trkpt><trkpt lat="43.4204767" lon="10.6000117"><ele>494.0</ele><time>2026-05-01T09:44:05.728Z</time></trkpt><trkpt lat="43.4204417" lon="10.599795"><ele>498.3333333333333</ele><time>2026-05-01T09:44:06.727Z</time></trkpt><trkpt lat="43.42042" lon="10.5995767"><ele>502.66666666666663</ele><time>2026-05-01T09:44:07.727Z</time></trkpt><trkpt lat="43.420385" lon="10.5993633"><ele>507.0</ele><time>2026-05-01T09:44:08.728Z</time></trkpt><trkpt lat="43.4203483" lon="10.5991467"><ele>507.0</ele><time>2026-05-01T09:44:09.728Z</time></trkpt><trkpt lat="43.4202933" lon="10.598945"><ele>507.0</ele><time>2026-05-01T09:44:10.727Z</time></trkpt><trkpt lat="43.4202083" lon="10.5987583"><ele>507.0</ele><time>2026-05-01T09:44:11.728Z</time></trkpt><trkpt lat="43.4201483" lon="10.5985983"><ele>507.0</ele><time>2026-05-01T09:44:12.728Z</time></trkpt><trkpt lat="43.420095" lon="10.59843"><ele>506.0</ele><time>2026-05-01T09:44:13.728Z</time></trkpt><trkpt lat="43.420085" lon="10.5982433"><ele>505.0</ele><time>2026-05-01T09:44:14.728Z</time></trkpt><trkpt lat="43.42012" lon="10.5980417"><ele>504.0</ele><time>2026-05-01T09:44:15.728Z</time></trkpt><trkpt lat="43.42017" lon="10.5978317"><ele>503.0</ele><time>2026-05-01T09:44:16.728Z</time></trkpt><trkpt lat="43.4202283" lon="10.597605"><ele>502.0</ele><time>2026-05-01T09:44:17.727Z</time></trkpt><trkpt lat="43.42029" lon="10.5973667"><ele>501.0</ele><time>2026-05-01T09:44:18.728Z</time></trkpt><trkpt lat="43.4203583" lon="10.5971133"><ele>500.0</ele><time>2026-05-01T09:44:19.727Z</time></trkpt><trkpt lat="43.420435" lon="10.5968683"><ele>493.66666666666663</ele><time>2026-05-01T09:44:20.728Z</time></trkpt><trkpt lat="43.4205083" lon="10.59663"><ele>487.33333333333337</ele><time>2026-05-01T09:44:21.727Z</time></trkpt><trkpt lat="43.4205683" lon="10.5964117"><ele>481.0</ele><time>2026-05-01T09:44:22.728Z</time></trkpt><trkpt lat="43.4206117" lon="10.5962067"><ele>480.0</ele><time>2026-05-01T09:44:23.728Z</time></trkpt><trkpt lat="43.4206133" lon="10.5960467"><ele>479.0</ele><time>2026-05-01T09:44:24.728Z</time></trkpt><trkpt lat="43.420595" lon="10.5958917"><ele>478.0</ele><time>2026-05-01T09:44:25.726Z</time></trkpt><trkpt lat="43.420545" lon="10.5957483"><ele>477.0</ele><time>2026-05-01T09:44:26.728Z</time></trkpt><trkpt lat="43.4204583" lon="10.5956183"><ele>479.0</ele><time>2026-05-01T09:44:27.727Z</time></trkpt><trkpt lat="43.4203667" lon="10.59549"><ele>481.0</ele><time>2026-05-01T09:44:28.728Z</time></trkpt><trkpt lat="43.4202883" lon="10.5953717"><ele>483.0</ele><time>2026-05-01T09:44:29.727Z</time></trkpt><trkpt lat="43.4202683" lon="10.5952333"><ele>485.0</ele><time>2026-05-01T09:44:30.727Z</time></trkpt><trkpt lat="43.420285" lon="10.5950833"><ele>485.0</ele><time>2026-05-01T09:44:31.727Z</time></trkpt><trkpt lat="43.4203317" lon="10.5949383"><ele>485.0</ele><time>2026-05-01T09:44:32.728Z</time></trkpt><trkpt lat="43.4204183" lon="10.5948083"><ele>485.0</ele><time>2026-05-01T09:44:33.728Z</time></trkpt><trkpt lat="43.4205283" lon="10.5946983"><ele>485.0</ele><time>2026-05-01T09:44:34.727Z</time></trkpt><trkpt lat="43.420645" lon="10.5946183"><ele>483.75</ele><time>2026-05-01T09:44:35.727Z</time></trkpt><trkpt lat="43.4207733" lon="10.5945683"><ele>482.5</ele><time>2026-05-01T09:44:36.728Z</time></trkpt><trkpt lat="43.420905" lon="10.5945117"><ele>481.25</ele><time>2026-05-01T09:44:37.727Z</time></trkpt><trkpt lat="43.4210367" lon="10.5944517"><ele>480.0</ele><time>2026-05-01T09:44:38.728Z</time></trkpt><trkpt lat="43.42116" lon="10.5943867"><ele>480.0</ele><time>2026-05-01T09:44:39.727Z</time></trkpt><trkpt lat="43.4212717" lon="10.5943"><ele>480.0</ele><time>2026-05-01T09:44:40.727Z</time></trkpt><trkpt lat="43.4213617" lon="10.5941933"><ele>480.0</ele><time>2026-05-01T09:44:41.729Z</time></trkpt><trkpt lat="43.421425" lon="10.5940483"><ele>480.0</ele><time>2026-05-01T09:44:42.727Z</time></trkpt><trkpt lat="43.42145" lon="10.5939"><ele>477.6</ele><time>2026-05-01T09:44:43.727Z</time></trkpt><trkpt lat="43.42145" lon="10.5937517"><ele>475.2</ele><time>2026-05-01T09:44:44.727Z</time></trkpt><trkpt lat="43.4214583" lon="10.5936"><ele>472.79999999999995</ele><time>2026-05-01T09:44:45.728Z</time></trkpt><trkpt lat="43.4214483" lon="10.5934617"><ele>470.4</ele><time>2026-05-01T09:44:46.728Z</time></trkpt><trkpt lat="43.4214183" lon="10.5933517"><ele>468.0</ele><time>2026-05-01T09:44:47.727Z</time></trkpt><trkpt lat="43.42138" lon="10.5932533"><ele>467.5</ele><time>2026-05-01T09:44:48.727Z</time></trkpt><trkpt lat="43.4213317" lon="10.5931667"><ele>467.0</ele><time>2026-05-01T09:44:49.727Z</time></trkpt><trkpt lat="43.4212483" lon="10.5930817"><ele>466.5</ele><time>2026-05-01T09:44:50.728Z</time></trkpt><trkpt lat="43.4211517" lon="10.5930017"><ele>466.0</ele><time>2026-05-01T09:44:51.728Z</time></trkpt><trkpt lat="43.4209667" lon="10.5929017"><ele>464.6666666666667</ele><time>2026-05-01T09:44:52.727Z</time></trkpt><trkpt lat="43.4207967" lon="10.5928"><ele>463.33333333333337</ele><time>2026-05-01T09:44:53.728Z</time></trkpt><trkpt lat="43.4206433" lon="10.5927067"><ele>462.0</ele><time>2026-05-01T09:44:54.728Z</time></trkpt><trkpt lat="43.4204983" lon="10.5926317"><ele>464.0</ele><time>2026-05-01T09:44:55.728Z</time></trkpt><trkpt lat="43.4203667" lon="10.5925767"><ele>466.0</ele><time>2026-05-01T09:44:56.729Z</time></trkpt><trkpt lat="43.420235" lon="10.5925167"><ele>468.0</ele><time>2026-05-01T09:44:57.728Z</time></trkpt><trkpt lat="43.42011" lon="10.5924367"><ele>470.0</ele><time>2026-05-01T09:44:58.728Z</time></trkpt><trkpt lat="43.4200017" lon="10.592315"><ele>470.0</ele><time>2026-05-01T09:44:59.728Z</time></trkpt><trkpt lat="43.419905" lon="10.5921517"><ele>470.0</ele><time>2026-05-01T09:45:00.728Z</time></trkpt><trkpt lat="43.4198333" lon="10.591965"><ele>470.0</ele><time>2026-05-01T09:45:01.729Z</time></trkpt><trkpt lat="43.419765" lon="10.5917633"><ele>467.0</ele><time>2026-05-01T09:45:02.728Z</time></trkpt><trkpt lat="43.4197267" lon="10.591535"><ele>464.0</ele><time>2026-05-01T09:45:03.728Z</time></trkpt><trkpt lat="43.4196983" lon="10.591305"><ele>461.0</ele><time>2026-05-01T09:45:04.728Z</time></trkpt><trkpt lat="43.4196683" lon="10.5910917"><ele>461.75</ele><time>2026-05-01T09:45:05.727Z</time></trkpt><trkpt lat="43.4196267" lon="10.590925"><ele>462.5</ele><time>2026-05-01T09:45:06.728Z</time></trkpt><trkpt lat="43.41957" lon="10.59076"><ele>463.25</ele><time>2026-05-01T09:45:07.728Z</time></trkpt><trkpt lat="43.4194717" lon="10.5906583"><ele>464.0</ele><time>2026-05-01T09:45:08.728Z</time></trkpt><trkpt lat="43.419355" lon="10.5905833"><ele>464.0</ele><time>2026-05-01T09:45:09.727Z</time></trkpt><trkpt lat="43.4192517" lon="10.5904967"><ele>464.0</ele><time>2026-05-01T09:45:10.727Z</time></trkpt><trkpt lat="43.4191567" lon="10.590385"><ele>464.0</ele><time>2026-05-01T09:45:11.727Z</time></trkpt><trkpt lat="43.4190817" lon="10.590245"><ele>464.0</ele><time>2026-05-01T09:45:12.727Z</time></trkpt><trkpt lat="43.4190333" lon="10.5900833"><ele>462.5</ele><time>2026-05-01T09:45:13.728Z</time></trkpt><trkpt lat="43.4190183" lon="10.5899283"><ele>461.0</ele><time>2026-05-01T09:45:14.728Z</time></trkpt><trkpt lat="43.4190433" lon="10.5897783"><ele>459.5</ele><time>2026-05-01T09:45:15.727Z</time></trkpt><trkpt lat="43.41912" lon="10.5896367"><ele>458.0</ele><time>2026-05-01T09:45:16.727Z</time></trkpt><trkpt lat="43.4192267" lon="10.5895167"><ele>458.5</ele><time>2026-05-01T09:45:17.728Z</time></trkpt><trkpt lat="43.4193433" lon="10.589425"><ele>459.0</ele><time>2026-05-01T09:45:18.726Z</time></trkpt><trkpt lat="43.41944" lon="10.5893117"><ele>459.5</ele><time>2026-05-01T09:45:19.727Z</time></trkpt><trkpt lat="43.4195267" lon="10.5891783"><ele>460.0</ele><time>2026-05-01T09:45:20.727Z</time></trkpt><trkpt lat="43.4195933" lon="10.5889917"><ele>460.0</ele><time>2026-05-01T09:45:21.729Z</time></trkpt><trkpt lat="43.41963" lon="10.588795"><ele>460.0</ele><time>2026-05-01T09:45:22.727Z</time></trkpt><trkpt lat="43.4196733" lon="10.5886133"><ele>460.0</ele><time>2026-05-01T09:45:23.727Z</time></trkpt><trkpt lat="43.4197317" lon="10.5884383"><ele>460.0</ele><time>2026-05-01T09:45:24.729Z</time></trkpt><trkpt lat="43.4198217" lon="10.5882983"><ele>455.75</ele><time>2026-05-01T09:45:25.728Z</time></trkpt><trkpt lat="43.4199067" lon="10.5881517"><ele>451.5</ele><time>2026-05-01T09:45:26.728Z</time></trkpt><trkpt lat="43.4199783" lon="10.588005"><ele>447.25</ele><time>2026-05-01T09:45:27.726Z</time></trkpt><trkpt lat="43.4200333" lon="10.5878267"><ele>443.0</ele><time>2026-05-01T09:45:28.728Z</time></trkpt><trkpt lat="43.4200733" lon="10.58765"><ele>443.0</ele><time>2026-05-01T09:45:29.728Z</time></trkpt><trkpt lat="43.4200867" lon="10.587465"><ele>443.0</ele><time>2026-05-01T09:45:30.727Z</time></trkpt><trkpt lat="43.4201383" lon="10.5873067"><ele>443.0</ele><time>2026-05-01T09:45:31.727Z</time></trkpt><trkpt lat="43.4202167" lon="10.5871667"><ele>443.0</ele><time>2026-05-01T09:45:32.727Z</time></trkpt><trkpt lat="43.4203217" lon="10.5870367"><ele>444.25</ele><time>2026-05-01T09:45:33.728Z</time></trkpt><trkpt lat="43.42045" lon="10.5869333"><ele>445.5</ele><time>2026-05-01T09:45:34.727Z</time></trkpt><trkpt lat="43.4205817" lon="10.5868417"><ele>446.75</ele><time>2026-05-01T09:45:35.728Z</time></trkpt><trkpt lat="43.4207117" lon="10.5867467"><ele>448.0</ele><time>2026-05-01T09:45:36.728Z</time></trkpt><trkpt lat="43.4208233" lon="10.5866433"><ele>443.25</ele><time>2026-05-01T09:45:37.727Z</time></trkpt><trkpt lat="43.4209317" lon="10.5865333"><ele>438.5</ele><time>2026-05-01T09:45:38.727Z</time></trkpt><trkpt lat="43.4210233" lon="10.586415"><ele>433.75</ele><time>2026-05-01T09:45:39.727Z</time></trkpt><trkpt lat="43.421085" lon="10.58628"><ele>429.0</ele><time>2026-05-01T09:45:40.727Z</time></trkpt><trkpt lat="43.42114" lon="10.5861433"><ele>429.0</ele><time>2026-05-01T09:45:41.728Z</time></trkpt><trkpt lat="43.4211433" lon="10.5859967"><ele>429.0</ele><time>2026-05-01T09:45:42.727Z</time></trkpt><trkpt lat="43.421095" lon="10.585835"><ele>429.0</ele><time>2026-05-01T09:45:43.728Z</time></trkpt><trkpt lat="43.4210083" lon="10.5856683"><ele>429.0</ele><time>2026-05-01T09:45:44.727Z</time></trkpt><trkpt lat="43.42089" lon="10.5854917"><ele>426.33333333333337</ele><time>2026-05-01T09:45:45.728Z</time></trkpt><trkpt lat="43.4207867" lon="10.5853217"><ele>423.6666666666667</ele><time>2026-05-01T09:45:46.728Z</time></trkpt><trkpt lat="43.42068" lon="10.5851667"><ele>421.0</ele><time>2026-05-01T09:45:47.726Z</time></trkpt><trkpt lat="43.42058" lon="10.5850317"><ele>421.0</ele><time>2026-05-01T09:45:48.728Z</time></trkpt><trkpt lat="43.4204967" lon="10.584915"><ele>421.0</ele><time>2026-05-01T09:45:49.729Z</time></trkpt><trkpt lat="43.4204383" lon="10.5848083"><ele>421.0</ele><time>2026-05-01T09:45:50.728Z</time></trkpt><trkpt lat="43.42041" lon="10.5846817"><ele>421.0</ele><time>2026-05-01T09:45:51.728Z</time></trkpt><trkpt lat="43.4204417" lon="10.5845567"><ele>421.0</ele><time>2026-05-01T09:45:52.727Z</time></trkpt><trkpt lat="43.4205083" lon="10.5844267"><ele>419.6</ele><time>2026-05-01T09:45:53.728Z</time></trkpt><trkpt lat="43.4205883" lon="10.584325"><ele>418.20000000000005</ele><time>2026-05-01T09:45:54.727Z</time></trkpt><trkpt lat="43.42067" lon="10.584235"><ele>416.79999999999995</ele><time>2026-05-01T09:45:55.727Z</time></trkpt><trkpt lat="43.4207367" lon="10.5841183"><ele>415.4</ele><time>2026-05-01T09:45:56.728Z</time></trkpt><trkpt lat="43.4208" lon="10.5839967"><ele>414.0</ele><time>2026-05-01T09:45:57.727Z</time></trkpt><trkpt lat="43.4208433" lon="10.58386"><ele>414.0</ele><time>2026-05-01T09:45:58.729Z</time></trkpt><trkpt lat="43.420835" lon="10.5836817"><ele>414.0</ele><time>2026-05-01T09:45:59.728Z</time></trkpt><trkpt lat="43.4207883" lon="10.5834933"><ele>414.0</ele><time>2026-05-01T09:46:00.728Z</time></trkpt><trkpt lat="43.4208033" lon="10.5833233"><ele>414.0</ele><time>2026-05-01T09:46:01.726Z</time></trkpt><trkpt lat="43.4208367" lon="10.583145"><ele>414.33333333333337</ele><time>2026-05-01T09:46:02.729Z</time></trkpt><trkpt lat="43.4209067" lon="10.5829817"><ele>414.6666666666667</ele><time>2026-05-01T09:46:03.728Z</time></trkpt><trkpt lat="43.4209883" lon="10.5827967"><ele>415.0</ele><time>2026-05-01T09:46:04.728Z</time></trkpt><trkpt lat="43.4210733" lon="10.5826067"><ele>415.0</ele><time>2026-05-01T09:46:05.728Z</time></trkpt><trkpt lat="43.4211717" lon="10.5824317"><ele>415.0</ele><time>2026-05-01T09:46:06.728Z</time></trkpt><trkpt lat="43.42128" lon="10.5822667"><ele>415.0</ele><time>2026-05-01T09:46:07.728Z</time></trkpt><trkpt lat="43.4214033" lon="10.5820967"><ele>410.0</ele><time>2026-05-01T09:46:08.728Z</time></trkpt><trkpt lat="43.421525" lon="10.5819417"><ele>405.0</ele><time>2026-05-01T09:46:09.727Z</time></trkpt><trkpt lat="43.4216533" lon="10.5818033"><ele>400.0</ele><time>2026-05-01T09:46:10.728Z</time></trkpt><trkpt lat="43.42178" lon="10.5816617"><ele>400.0</ele><time>2026-05-01T09:46:11.727Z</time></trkpt><trkpt lat="43.4218983" lon="10.581535"><ele>400.0</ele><time>2026-05-01T09:46:12.728Z</time></trkpt><trkpt lat="43.4220067" lon="10.5813967"><ele>400.0</ele><time>2026-05-01T09:46:13.728Z</time></trkpt><trkpt lat="43.4220983" lon="10.58125"><ele>400.0</ele><time>2026-05-01T09:46:14.728Z</time></trkpt><trkpt lat="43.4221617" lon="10.5810817"><ele>398.75</ele><time>2026-05-01T09:46:15.726Z</time></trkpt><trkpt lat="43.4221917" lon="10.5808867"><ele>397.5</ele><time>2026-05-01T09:46:16.728Z</time></trkpt><trkpt lat="43.4221933" lon="10.5806983"><ele>396.25</ele><time>2026-05-01T09:46:17.727Z</time></trkpt><trkpt lat="43.4221667" lon="10.580505"><ele>395.0</ele><time>2026-05-01T09:46:18.728Z</time></trkpt><trkpt lat="43.422105" lon="10.5803233"><ele>395.0</ele><time>2026-05-01T09:46:19.728Z</time></trkpt><trkpt lat="43.4220267" lon="10.5801617"><ele>395.0</ele><time>2026-05-01T09:46:20.728Z</time></trkpt><trkpt lat="43.4219583" lon="10.5800267"><ele>395.0</ele><time>2026-05-01T09:46:21.727Z</time></trkpt><trkpt lat="43.4218933" lon="10.57991"><ele>395.0</ele><time>2026-05-01T09:46:22.728Z</time></trkpt><trkpt lat="43.42183" lon="10.5798067"><ele>395.0</ele><time>2026-05-01T09:46:23.727Z</time></trkpt><trkpt lat="43.42176" lon="10.5797267"><ele>395.0</ele><time>2026-05-01T09:46:24.726Z</time></trkpt><trkpt lat="43.4216883" lon="10.5796533"><ele>395.0</ele><time>2026-05-01T09:46:25.728Z</time></trkpt><trkpt lat="43.4216067" lon="10.5795767"><ele>395.0</ele><time>2026-05-01T09:46:26.728Z</time></trkpt><trkpt lat="43.4215083" lon="10.579475"><ele>395.0</ele><time>2026-05-01T09:46:27.728Z</time></trkpt><trkpt lat="43.4214133" lon="10.5793617"><ele>393.25</ele><time>2026-05-01T09:46:28.728Z</time></trkpt><trkpt lat="43.4213217" lon="10.5792433"><ele>391.5</ele><time>2026-05-01T09:46:29.727Z</time></trkpt><trkpt lat="43.4212233" lon="10.5791467"><ele>389.75</ele><time>2026-05-01T09:46:30.728Z</time></trkpt><trkpt lat="43.4211183" lon="10.5790633"><ele>388.0</ele><time>2026-05-01T09:46:31.728Z</time></trkpt><trkpt lat="43.421005" lon="10.579015"><ele>388.0</ele><time>2026-05-01T09:46:32.728Z</time></trkpt><trkpt lat="43.4208783" lon="10.5789633"><ele>388.0</ele><time>2026-05-01T09:46:33.727Z</time></trkpt><trkpt lat="43.4207717" lon="10.5788983"><ele>388.0</ele><time>2026-05-01T09:46:34.725Z</time></trkpt><trkpt lat="43.4206717" lon="10.5788283"><ele>388.0</ele><time>2026-05-01T09:46:35.728Z</time></trkpt><trkpt lat="43.4205917" lon="10.5786967"><ele>385.25</ele><time>2026-05-01T09:46:36.728Z</time></trkpt><trkpt lat="43.420525" lon="10.5785367"><ele>382.5</ele><time>2026-05-01T09:46:37.727Z</time></trkpt><trkpt lat="43.4204717" lon="10.5783583"><ele>379.75</ele><time>2026-05-01T09:46:38.727Z</time></trkpt><trkpt lat="43.4204283" lon="10.578175"><ele>377.0</ele><time>2026-05-01T09:46:39.727Z</time></trkpt><trkpt lat="43.4204067" lon="10.5779867"><ele>378.0</ele><time>2026-05-01T09:46:40.727Z</time></trkpt><trkpt lat="43.4203933" lon="10.5778067"><ele>379.0</ele><time>2026-05-01T09:46:41.728Z</time></trkpt><trkpt lat="43.4203833" lon="10.577625"><ele>380.0</ele><time>2026-05-01T09:46:42.728Z</time></trkpt><trkpt lat="43.42035" lon="10.5774583"><ele>381.0</ele><time>2026-05-01T09:46:43.727Z</time></trkpt><trkpt lat="43.4203133" lon="10.5772933"><ele>381.0</ele><time>2026-05-01T09:46:44.728Z</time></trkpt><trkpt lat="43.42024" lon="10.5771683"><ele>381.0</ele><time>2026-05-01T09:46:45.728Z</time></trkpt><trkpt lat="43.4201533" lon="10.57703"><ele>381.0</ele><time>2026-05-01T09:46:46.729Z</time></trkpt><trkpt lat="43.42007" lon="10.5768967"><ele>381.0</ele><time>2026-05-01T09:46:47.728Z</time></trkpt><trkpt lat="43.4200083" lon="10.5767567"><ele>378.75</ele><time>2026-05-01T09:46:48.727Z</time></trkpt><trkpt lat="43.4199767" lon="10.5765933"><ele>376.5</ele><time>2026-05-01T09:46:49.73Z</time></trkpt><trkpt lat="43.4199633" lon="10.5764317"><ele>374.25</ele><time>2026-05-01T09:46:50.729Z</time></trkpt><trkpt lat="43.419975" lon="10.5762667"><ele>372.0</ele><time>2026-05-01T09:46:51.727Z</time></trkpt><trkpt lat="43.42" lon="10.5760983"><ele>370.75</ele><time>2026-05-01T09:46:52.727Z</time></trkpt><trkpt lat="43.4200367" lon="10.5759367"><ele>369.5</ele><time>2026-05-01T09:46:53.728Z</time></trkpt><trkpt lat="43.4200683" lon="10.5757817"><ele>368.25</ele><time>2026-05-01T09:46:54.727Z</time></trkpt><trkpt lat="43.4200917" lon="10.5756283"><ele>367.0</ele><time>2026-05-01T09:46:55.728Z</time></trkpt><trkpt lat="43.4201117" lon="10.5754733"><ele>366.0</ele><time>2026-05-01T09:46:56.728Z</time></trkpt><trkpt lat="43.42011" lon="10.57531"><ele>365.0</ele><time>2026-05-01T09:46:57.727Z</time></trkpt><trkpt lat="43.420115" lon="10.5751467"><ele>364.0</ele><time>2026-05-01T09:46:58.728Z</time></trkpt><trkpt lat="43.420105" lon="10.57499"><ele>363.0</ele><time>2026-05-01T09:46:59.727Z</time></trkpt><trkpt lat="43.42008" lon="10.5748417"><ele>363.0</ele><time>2026-05-01T09:47:00.728Z</time></trkpt><trkpt lat="43.4200517" lon="10.574705"><ele>363.0</ele><time>2026-05-01T09:47:01.728Z</time></trkpt><trkpt lat="43.4200183" lon="10.574575"><ele>363.0</ele><time>2026-05-01T09:47:02.728Z</time></trkpt><trkpt lat="43.4199817" lon="10.5744517"><ele>363.0</ele><time>2026-05-01T09:47:03.728Z</time></trkpt><trkpt lat="43.4199417" lon="10.5743417"><ele>363.0</ele><time>2026-05-01T09:47:04.728Z</time></trkpt><trkpt lat="43.41989" lon="10.5742317"><ele>363.4</ele><time>2026-05-01T09:47:05.728Z</time></trkpt><trkpt lat="43.4198317" lon="10.574125"><ele>363.79999999999995</ele><time>2026-05-01T09:47:06.729Z</time></trkpt><trkpt lat="43.419775" lon="10.574015"><ele>364.2</ele><time>2026-05-01T09:47:07.73Z</time></trkpt><trkpt lat="43.4197133" lon="10.5739133"><ele>364.6</ele><time>2026-05-01T09:47:08.727Z</time></trkpt><trkpt lat="43.4196467" lon="10.57382"><ele>365.0</ele><time>2026-05-01T09:47:09.727Z</time></trkpt><trkpt lat="43.41958" lon="10.57373"><ele>363.0</ele><time>2026-05-01T09:47:10.728Z</time></trkpt><trkpt lat="43.4195117" lon="10.57364"><ele>361.0</ele><time>2026-05-01T09:47:11.729Z</time></trkpt><trkpt lat="43.419445" lon="10.5735517"><ele>359.0</ele><time>2026-05-01T09:47:12.728Z</time></trkpt><trkpt lat="43.41937" lon="10.5734833"><ele>357.0</ele><time>2026-05-01T09:47:13.73Z</time></trkpt><trkpt lat="43.41929" lon="10.5734267"><ele>355.0</ele><time>2026-05-01T09:47:14.729Z</time></trkpt><trkpt lat="43.4191933" lon="10.573375"><ele>355.0</ele><time>2026-05-01T09:47:15.727Z</time></trkpt><trkpt lat="43.419095" lon="10.5733267"><ele>355.0</ele><time>2026-05-01T09:47:16.728Z</time></trkpt><trkpt lat="43.4189967" lon="10.5732767"><ele>355.0</ele><time>2026-05-01T09:47:17.728Z</time></trkpt><trkpt lat="43.41889" lon="10.5732183"><ele>355.0</ele><time>2026-05-01T09:47:18.727Z</time></trkpt><trkpt lat="43.4187917" lon="10.57314"><ele>355.0</ele><time>2026-05-01T09:47:19.728Z</time></trkpt><trkpt lat="43.4187033" lon="10.5730383"><ele>355.4</ele><time>2026-05-01T09:47:20.729Z</time></trkpt><trkpt lat="43.4186267" lon="10.5729233"><ele>355.8</ele><time>2026-05-01T09:47:21.727Z</time></trkpt><trkpt lat="43.4185633" lon="10.5728033"><ele>356.20000000000005</ele><time>2026-05-01T09:47:22.729Z</time></trkpt><trkpt lat="43.4185017" lon="10.5726867"><ele>356.6</ele><time>2026-05-01T09:47:23.73Z</time></trkpt><trkpt lat="43.4184367" lon="10.5725767"><ele>357.0</ele><time>2026-05-01T09:47:24.729Z</time></trkpt><trkpt lat="43.4183583" lon="10.5724817"><ele>357.0</ele><time>2026-05-01T09:47:25.728Z</time></trkpt><trkpt lat="43.4182767" lon="10.5723967"><ele>357.0</ele><time>2026-05-01T09:47:26.728Z</time></trkpt><trkpt lat="43.4181817" lon="10.572325"><ele>357.0</ele><time>2026-05-01T09:47:27.727Z</time></trkpt><trkpt lat="43.4180917" lon="10.5722667"><ele>357.0</ele><time>2026-05-01T09:47:28.727Z</time></trkpt><trkpt lat="43.418" lon="10.57221"><ele>357.0</ele><time>2026-05-01T09:47:29.728Z</time></trkpt><trkpt lat="43.417905" lon="10.57215"><ele>357.6</ele><time>2026-05-01T09:47:30.728Z</time></trkpt><trkpt lat="43.41782" lon="10.5720817"><ele>358.20000000000005</ele><time>2026-05-01T09:47:31.727Z</time></trkpt><trkpt lat="43.4177233" lon="10.572015"><ele>358.8</ele><time>2026-05-01T09:47:32.728Z</time></trkpt><trkpt lat="43.417615" lon="10.5719667"><ele>359.4</ele><time>2026-05-01T09:47:33.728Z</time></trkpt><trkpt lat="43.4175033" lon="10.571935"><ele>360.0</ele><time>2026-05-01T09:47:34.727Z</time></trkpt><trkpt lat="43.4173917" lon="10.5719183"><ele>357.25</ele><time>2026-05-01T09:47:35.728Z</time></trkpt><trkpt lat="43.4172633" lon="10.5719383"><ele>354.5</ele><time>2026-05-01T09:47:36.728Z</time></trkpt><trkpt lat="43.4171367" lon="10.57195"><ele>351.75</ele><time>2026-05-01T09:47:37.729Z</time></trkpt><trkpt lat="43.4170183" lon="10.571965"><ele>349.0</ele><time>2026-05-01T09:47:38.727Z</time></trkpt><trkpt lat="43.4169" lon="10.5719833"><ele>348.2</ele><time>2026-05-01T09:47:39.727Z</time></trkpt><trkpt lat="43.4167833" lon="10.5720083"><ele>347.4</ele><time>2026-05-01T09:47:40.727Z</time></trkpt><trkpt lat="43.4166733" lon="10.5720333"><ele>346.6</ele><time>2026-05-01T09:47:41.729Z</time></trkpt><trkpt lat="43.4165733" lon="10.5720583"><ele>345.8</ele><time>2026-05-01T09:47:42.727Z</time></trkpt><trkpt lat="43.4164917" lon="10.5720917"><ele>345.0</ele><time>2026-05-01T09:47:43.729Z</time></trkpt><trkpt lat="43.4164117" lon="10.5721183"><ele>345.4</ele><time>2026-05-01T09:47:44.728Z</time></trkpt><trkpt lat="43.4163433" lon="10.57214"><ele>345.8</ele><time>2026-05-01T09:47:45.728Z</time></trkpt><trkpt lat="43.4162283" lon="10.5721583"><ele>346.20000000000005</ele><time>2026-05-01T09:47:47.728Z</time></trkpt><trkpt lat="43.4161233" lon="10.5721617"><ele>346.6</ele><time>2026-05-01T09:47:49.728Z</time></trkpt><trkpt lat="43.4160517" lon="10.57228"><ele>347.0</ele><time>2026-05-01T09:47:51.73Z</time></trkpt><trkpt lat="43.4160233" lon="10.5723883"><ele>347.0</ele><time>2026-05-01T09:47:52.729Z</time></trkpt><trkpt lat="43.4159967" lon="10.5725133"><ele>347.0</ele><time>2026-05-01T09:47:53.728Z</time></trkpt><trkpt lat="43.4159617" lon="10.5726533"><ele>347.0</ele><time>2026-05-01T09:47:54.728Z</time></trkpt><trkpt lat="43.4159217" lon="10.5728167"><ele>347.0</ele><time>2026-05-01T09:47:55.728Z</time></trkpt><trkpt lat="43.4158817" lon="10.5729783"><ele>348.5</ele><time>2026-05-01T09:47:56.728Z</time></trkpt><trkpt lat="43.4158433" lon="10.5731417"><ele>350.0</ele><time>2026-05-01T09:47:57.728Z</time></trkpt><trkpt lat="43.41581" lon="10.5732983"><ele>351.5</ele><time>2026-05-01T09:47:58.728Z</time></trkpt><trkpt lat="43.4157767" lon="10.5734583"><ele>353.0</ele><time>2026-05-01T09:47:59.728Z</time></trkpt><trkpt lat="43.41574" lon="10.5736033"><ele>353.59999999999997</ele><time>2026-05-01T09:48:00.728Z</time></trkpt><trkpt lat="43.4157067" lon="10.5737433"><ele>354.2</ele><time>2026-05-01T09:48:01.728Z</time></trkpt><trkpt lat="43.4156583" lon="10.5738583"><ele>354.8</ele><time>2026-05-01T09:48:02.727Z</time></trkpt><trkpt lat="43.415605" lon="10.5739483"><ele>355.4</ele><time>2026-05-01T09:48:03.728Z</time></trkpt><trkpt lat="43.4155333" lon="10.5740433"><ele>356.0</ele><time>2026-05-01T09:48:04.728Z</time></trkpt><trkpt lat="43.41545" lon="10.574135"><ele>356.0</ele><time>2026-05-01T09:48:05.727Z</time></trkpt><trkpt lat="43.41536" lon="10.574225"><ele>356.0</ele><time>2026-05-01T09:48:06.727Z</time></trkpt><trkpt lat="43.41527" lon="10.5743133"><ele>356.0</ele><time>2026-05-01T09:48:07.728Z</time></trkpt><trkpt lat="43.41519" lon="10.5743967"><ele>356.0</ele><time>2026-05-01T09:48:08.728Z</time></trkpt><trkpt lat="43.4151183" lon="10.5744833"><ele>356.0</ele><time>2026-05-01T09:48:09.727Z</time></trkpt><trkpt lat="43.4150517" lon="10.5745917"><ele>357.6</ele><time>2026-05-01T09:48:10.727Z</time></trkpt><trkpt lat="43.4149983" lon="10.5747133"><ele>359.20000000000005</ele><time>2026-05-01T09:48:11.728Z</time></trkpt><trkpt lat="43.4149583" lon="10.5748417"><ele>360.79999999999995</ele><time>2026-05-01T09:48:12.728Z</time></trkpt><trkpt lat="43.4149233" lon="10.5749783"><ele>362.4</ele><time>2026-05-01T09:48:13.727Z</time></trkpt><trkpt lat="43.414875" lon="10.5751117"><ele>364.0</ele><time>2026-05-01T09:48:14.728Z</time></trkpt><trkpt lat="43.4148117" lon="10.5752333"><ele>364.0</ele><time>2026-05-01T09:48:15.728Z</time></trkpt><trkpt lat="43.41474" lon="10.5753417"><ele>364.0</ele><time>2026-05-01T09:48:16.729Z</time></trkpt><trkpt lat="43.4146583" lon="10.5754367"><ele>364.0</ele><time>2026-05-01T09:48:17.728Z</time></trkpt><trkpt lat="43.4145783" lon="10.5755067"><ele>364.0</ele><time>2026-05-01T09:48:18.727Z</time></trkpt><trkpt lat="43.4145117" lon="10.5755583"><ele>364.0</ele><time>2026-05-01T09:48:19.727Z</time></trkpt><trkpt lat="43.4144517" lon="10.5756067"><ele>365.4</ele><time>2026-05-01T09:48:20.73Z</time></trkpt><trkpt lat="43.4143533" lon="10.5756783"><ele>366.79999999999995</ele><time>2026-05-01T09:48:22.727Z</time></trkpt><trkpt lat="43.4142917" lon="10.57574"><ele>368.20000000000005</ele><time>2026-05-01T09:48:24.728Z</time></trkpt><trkpt lat="43.4142083" lon="10.5758117"><ele>369.6</ele><time>2026-05-01T09:48:27.728Z</time></trkpt><trkpt lat="43.4141333" lon="10.57589"><ele>371.0</ele><time>2026-05-01T09:48:29.728Z</time></trkpt><trkpt lat="43.4140533" lon="10.5759967"><ele>371.0</ele><time>2026-05-01T09:48:31.728Z</time></trkpt><trkpt lat="43.4139983" lon="10.5760617"><ele>371.0</ele><time>2026-05-01T09:48:32.727Z</time></trkpt><trkpt lat="43.41393" lon="10.57613"><ele>371.0</ele><time>2026-05-01T09:48:33.728Z</time></trkpt><trkpt lat="43.4138467" lon="10.57619"><ele>371.0</ele><time>2026-05-01T09:48:34.726Z</time></trkpt><trkpt lat="43.413765" lon="10.576235"><ele>371.0</ele><time>2026-05-01T09:48:35.728Z</time></trkpt><trkpt lat="43.413675" lon="10.576285"><ele>371.0</ele><time>2026-05-01T09:48:36.726Z</time></trkpt><trkpt lat="43.4135917" lon="10.5763333"><ele>371.20000000000005</ele><time>2026-05-01T09:48:37.727Z</time></trkpt><trkpt lat="43.4135067" lon="10.5763817"><ele>371.40000000000003</ele><time>2026-05-01T09:48:38.727Z</time></trkpt><trkpt lat="43.4134183" lon="10.576425"><ele>371.6</ele><time>2026-05-01T09:48:39.726Z</time></trkpt><trkpt lat="43.4133333" lon="10.5764667"><ele>371.8</ele><time>2026-05-01T09:48:40.728Z</time></trkpt><trkpt lat="43.4132483" lon="10.57651"><ele>372.0</ele><time>2026-05-01T09:48:41.727Z</time></trkpt><trkpt lat="43.413165" lon="10.5765433"><ele>372.0</ele><time>2026-05-01T09:48:42.726Z</time></trkpt><trkpt lat="43.41308" lon="10.5765683"><ele>372.0</ele><time>2026-05-01T09:48:43.727Z</time></trkpt><trkpt lat="43.4130067" lon="10.5765833"><ele>372.0</ele><time>2026-05-01T09:48:44.727Z</time></trkpt><trkpt lat="43.412935" lon="10.5765967"><ele>372.0</ele><time>2026-05-01T09:48:45.727Z</time></trkpt><trkpt lat="43.4128317" lon="10.5765983"><ele>372.0</ele><time>2026-05-01T09:48:47.727Z</time></trkpt><trkpt lat="43.4127383" lon="10.5766567"><ele>372.0</ele><time>2026-05-01T09:48:49.727Z</time></trkpt><trkpt lat="43.41266" lon="10.5766983"><ele>372.3333333333333</ele><time>2026-05-01T09:48:51.726Z</time></trkpt><trkpt lat="43.4126033" lon="10.5767667"><ele>372.6666666666667</ele><time>2026-05-01T09:48:54.726Z</time></trkpt><trkpt lat="43.412665" lon="10.5767267"><ele>373.0</ele><time>2026-05-01T09:49:49.728Z</time></trkpt><trkpt lat="43.4126533" lon="10.5766267"><ele>373.33333333333337</ele><time>2026-05-01T09:49:52.727Z</time></trkpt><trkpt lat="43.4126267" lon="10.57654"><ele>373.6666666666667</ele><time>2026-05-01T09:49:54.726Z</time></trkpt><trkpt lat="43.412605" lon="10.5764283"><ele>374.0</ele><time>2026-05-01T09:49:56.728Z</time></trkpt><trkpt lat="43.4126067" lon="10.5762967"><ele>374.0</ele><time>2026-05-01T09:49:58.727Z</time></trkpt><trkpt lat="43.41254" lon="10.5762033"><ele>374.0</ele><time>2026-05-01T09:50:01.728Z</time></trkpt><trkpt lat="43.4124617" lon="10.5761867"><ele>374.0</ele><time>2026-05-01T09:50:03.727Z</time></trkpt><trkpt lat="43.4123567" lon="10.5762183"><ele>374.0</ele><time>2026-05-01T09:50:05.727Z</time></trkpt><trkpt lat="43.412295" lon="10.5762633"><ele>374.0</ele><time>2026-05-01T09:50:06.727Z</time></trkpt><trkpt lat="43.412225" lon="10.5763067"><ele>374.0</ele><time>2026-05-01T09:50:07.728Z</time></trkpt><trkpt lat="43.4121517" lon="10.5763483"><ele>372.5</ele><time>2026-05-01T09:50:08.727Z</time></trkpt><trkpt lat="43.4120783" lon="10.5764017"><ele>371.0</ele><time>2026-05-01T09:50:09.727Z</time></trkpt><trkpt lat="43.4120067" lon="10.5764483"><ele>369.5</ele><time>2026-05-01T09:50:10.727Z</time></trkpt><trkpt lat="43.411925" lon="10.57649"><ele>368.0</ele><time>2026-05-01T09:50:11.728Z</time></trkpt><trkpt lat="43.4118417" lon="10.5765283"><ele>366.5</ele><time>2026-05-01T09:50:12.727Z</time></trkpt><trkpt lat="43.4117667" lon="10.5765833"><ele>365.0</ele><time>2026-05-01T09:50:13.727Z</time></trkpt><trkpt lat="43.41168" lon="10.5766433"><ele>365.0</ele><time>2026-05-01T09:50:14.727Z</time></trkpt><trkpt lat="43.4115683" lon="10.576685"><ele>365.0</ele><time>2026-05-01T09:50:15.726Z</time></trkpt><trkpt lat="43.4114667" lon="10.5767367"><ele>365.0</ele><time>2026-05-01T09:50:16.727Z</time></trkpt><trkpt lat="43.41136" lon="10.5768033"><ele>365.0</ele><time>2026-05-01T09:50:17.727Z</time></trkpt><trkpt lat="43.4112683" lon="10.5768583"><ele>365.0</ele><time>2026-05-01T09:50:18.725Z</time></trkpt><trkpt lat="43.41119" lon="10.5769033"><ele>363.83333333333337</ele><time>2026-05-01T09:50:19.727Z</time></trkpt><trkpt lat="43.4111183" lon="10.5769433"><ele>362.6666666666667</ele><time>2026-05-01T09:50:20.728Z</time></trkpt><trkpt lat="43.4110517" lon="10.57696"><ele>361.5</ele><time>2026-05-01T09:50:21.728Z</time></trkpt><trkpt lat="43.4109883" lon="10.5769867"><ele>360.3333333333333</ele><time>2026-05-01T09:50:22.726Z</time></trkpt><trkpt lat="43.4109383" lon="10.57689"><ele>359.16666666666663</ele><time>2026-05-01T09:50:24.728Z</time></trkpt><trkpt lat="43.4109317" lon="10.57672"><ele>358.0</ele><time>2026-05-01T09:50:26.728Z</time></trkpt><trkpt lat="43.410935" lon="10.57662"><ele>358.0</ele><time>2026-05-01T09:50:27.727Z</time></trkpt><trkpt lat="43.4109633" lon="10.5764883"><ele>358.0</ele><time>2026-05-01T09:50:28.727Z</time></trkpt><trkpt lat="43.4109967" lon="10.5763433"><ele>358.0</ele><time>2026-05-01T09:50:29.727Z</time></trkpt><trkpt lat="43.411045" lon="10.5761633"><ele>358.0</ele><time>2026-05-01T09:50:30.727Z</time></trkpt><trkpt lat="43.4110733" lon="10.575995"><ele>356.25</ele><time>2026-05-01T09:50:31.727Z</time></trkpt><trkpt lat="43.4111067" lon="10.5758133"><ele>354.5</ele><time>2026-05-01T09:50:32.727Z</time></trkpt><trkpt lat="43.4111417" lon="10.5756483"><ele>352.75</ele><time>2026-05-01T09:50:33.727Z</time></trkpt><trkpt lat="43.411175" lon="10.57548"><ele>351.0</ele><time>2026-05-01T09:50:34.727Z</time></trkpt><trkpt lat="43.4112017" lon="10.5753183"><ele>348.75</ele><time>2026-05-01T09:50:35.729Z</time></trkpt><trkpt lat="43.4112317" lon="10.5751583"><ele>346.5</ele><time>2026-05-01T09:50:36.727Z</time></trkpt><trkpt lat="43.4112583" lon="10.5750083"><ele>344.25</ele><time>2026-05-01T09:50:37.729Z</time></trkpt><trkpt lat="43.4112867" lon="10.5748583"><ele>342.0</ele><time>2026-05-01T09:50:38.728Z</time></trkpt><trkpt lat="43.41131" lon="10.5747067"><ele>341.0</ele><time>2026-05-01T09:50:39.726Z</time></trkpt><trkpt lat="43.4113417" lon="10.574555"><ele>340.0</ele><time>2026-05-01T09:50:40.726Z</time></trkpt><trkpt lat="43.41139" lon="10.5744333"><ele>339.0</ele><time>2026-05-01T09:50:41.727Z</time></trkpt><trkpt lat="43.4114617" lon="10.5743217"><ele>338.0</ele><time>2026-05-01T09:50:42.726Z</time></trkpt><trkpt lat="43.4115533" lon="10.5742333"><ele>337.0</ele><time>2026-05-01T09:50:43.727Z</time></trkpt><trkpt lat="43.4116517" lon="10.5741467"><ele>337.0</ele><time>2026-05-01T09:50:44.727Z</time></trkpt><trkpt lat="43.4117517" lon="10.5740383"><ele>337.0</ele><time>2026-05-01T09:50:45.727Z</time></trkpt><trkpt lat="43.41185" lon="10.5739233"><ele>337.0</ele><time>2026-05-01T09:50:46.726Z</time></trkpt><trkpt lat="43.411945" lon="10.5738067"><ele>337.0</ele><time>2026-05-01T09:50:47.728Z</time></trkpt><trkpt lat="43.4120317" lon="10.5736833"><ele>335.0</ele><time>2026-05-01T09:50:48.727Z</time></trkpt><trkpt lat="43.4121183" lon="10.57355"><ele>333.0</ele><time>2026-05-01T09:50:49.728Z</time></trkpt><trkpt lat="43.4122033" lon="10.5734117"><ele>331.0</ele><time>2026-05-01T09:50:50.728Z</time></trkpt><trkpt lat="43.4123083" lon="10.573295"><ele>329.0</ele><time>2026-05-01T09:50:51.727Z</time></trkpt><trkpt lat="43.4124267" lon="10.5731917"><ele>329.0</ele><time>2026-05-01T09:50:52.727Z</time></trkpt><trkpt lat="43.4125483" lon="10.573115"><ele>329.0</ele><time>2026-05-01T09:50:53.727Z</time></trkpt><trkpt lat="43.4126717" lon="10.5730667"><ele>329.0</ele><time>2026-05-01T09:50:54.727Z</time></trkpt><trkpt lat="43.4127767" lon="10.573015"><ele>329.0</ele><time>2026-05-01T09:50:55.728Z</time></trkpt><trkpt lat="43.4128683" lon="10.5729367"><ele>326.75</ele><time>2026-05-01T09:50:56.727Z</time></trkpt><trkpt lat="43.4129417" lon="10.57283"><ele>324.5</ele><time>2026-05-01T09:50:57.727Z</time></trkpt><trkpt lat="43.4129883" lon="10.5726883"><ele>322.25</ele><time>2026-05-01T09:50:58.728Z</time></trkpt><trkpt lat="43.4130117" lon="10.57251"><ele>320.0</ele><time>2026-05-01T09:50:59.728Z</time></trkpt><trkpt lat="43.4130183" lon="10.5723117"><ele>320.0</ele><time>2026-05-01T09:51:00.727Z</time></trkpt><trkpt lat="43.4130217" lon="10.5721167"><ele>320.0</ele><time>2026-05-01T09:51:01.726Z</time></trkpt><trkpt lat="43.4130283" lon="10.5719217"><ele>320.0</ele><time>2026-05-01T09:51:02.727Z</time></trkpt><trkpt lat="43.4130433" lon="10.5717383"><ele>320.0</ele><time>2026-05-01T09:51:03.727Z</time></trkpt><trkpt lat="43.4130633" lon="10.57156"><ele>317.75</ele><time>2026-05-01T09:51:04.727Z</time></trkpt><trkpt lat="43.41311" lon="10.5713883"><ele>315.5</ele><time>2026-05-01T09:51:05.727Z</time></trkpt><trkpt lat="43.4131817" lon="10.5712217"><ele>313.25</ele><time>2026-05-01T09:51:06.727Z</time></trkpt><trkpt lat="43.4132617" lon="10.5710617"><ele>311.0</ele><time>2026-05-01T09:51:07.727Z</time></trkpt><trkpt lat="43.4133417" lon="10.5709017"><ele>309.0</ele><time>2026-05-01T09:51:08.729Z</time></trkpt><trkpt lat="43.4134333" lon="10.570745"><ele>307.0</ele><time>2026-05-01T09:51:09.727Z</time></trkpt><trkpt lat="43.41354" lon="10.5706067"><ele>305.0</ele><time>2026-05-01T09:51:10.725Z</time></trkpt><trkpt lat="43.4136567" lon="10.5704833"><ele>303.0</ele><time>2026-05-01T09:51:11.726Z</time></trkpt><trkpt lat="43.4137767" lon="10.57038"><ele>301.75</ele><time>2026-05-01T09:51:12.728Z</time></trkpt><trkpt lat="43.413905" lon="10.5702883"><ele>300.5</ele><time>2026-05-01T09:51:13.728Z</time></trkpt><trkpt lat="43.4140417" lon="10.5702117"><ele>299.25</ele><time>2026-05-01T09:51:14.728Z</time></trkpt><trkpt lat="43.4141767" lon="10.57015"><ele>298.0</ele><time>2026-05-01T09:51:15.728Z</time></trkpt><trkpt lat="43.414305" lon="10.5700933"><ele>298.0</ele><time>2026-05-01T09:51:16.727Z</time></trkpt><trkpt lat="43.414425" lon="10.570025"><ele>298.0</ele><time>2026-05-01T09:51:17.727Z</time></trkpt><trkpt lat="43.4145367" lon="10.569925"><ele>298.0</ele><time>2026-05-01T09:51:18.728Z</time></trkpt><trkpt lat="43.4146133" lon="10.5697933"><ele>298.0</ele><time>2026-05-01T09:51:19.729Z</time></trkpt><trkpt lat="43.41464" lon="10.5696383"><ele>295.75</ele><time>2026-05-01T09:51:20.727Z</time></trkpt><trkpt lat="43.4146083" lon="10.569475"><ele>293.5</ele><time>2026-05-01T09:51:21.728Z</time></trkpt><trkpt lat="43.4145567" lon="10.5693067"><ele>291.25</ele><time>2026-05-01T09:51:22.726Z</time></trkpt><trkpt lat="43.41449" lon="10.56914"><ele>289.0</ele><time>2026-05-01T09:51:23.729Z</time></trkpt><trkpt lat="43.4144067" lon="10.5689583"><ele>289.0</ele><time>2026-05-01T09:51:24.727Z</time></trkpt><trkpt lat="43.41432" lon="10.5687733"><ele>289.0</ele><time>2026-05-01T09:51:25.728Z</time></trkpt><trkpt lat="43.4142383" lon="10.5685883"><ele>289.0</ele><time>2026-05-01T09:51:26.727Z</time></trkpt><trkpt lat="43.4141717" lon="10.5684"><ele>288.0</ele><time>2026-05-01T09:51:27.726Z</time></trkpt><trkpt lat="43.4141267" lon="10.5681983"><ele>287.0</ele><time>2026-05-01T09:51:28.727Z</time></trkpt><trkpt lat="43.4141033" lon="10.5679917"><ele>286.0</ele><time>2026-05-01T09:51:29.727Z</time></trkpt><trkpt lat="43.4140917" lon="10.5677767"><ele>285.66666666666663</ele><time>2026-05-01T09:51:30.726Z</time></trkpt><trkpt lat="43.414085" lon="10.5675517"><ele>285.3333333333333</ele><time>2026-05-01T09:51:31.729Z</time></trkpt><trkpt lat="43.4140767" lon="10.5673317"><ele>285.0</ele><time>2026-05-01T09:51:32.727Z</time></trkpt><trkpt lat="43.4140733" lon="10.5671083"><ele>284.0</ele><time>2026-05-01T09:51:33.728Z</time></trkpt><trkpt lat="43.4140817" lon="10.5668967"><ele>283.0</ele><time>2026-05-01T09:51:34.728Z</time></trkpt><trkpt lat="43.41411" lon="10.5666983"><ele>282.0</ele><time>2026-05-01T09:51:35.726Z</time></trkpt><trkpt lat="43.4141617" lon="10.5665033"><ele>282.0</ele><time>2026-05-01T09:51:36.727Z</time></trkpt><trkpt lat="43.4142267" lon="10.5663083"><ele>282.0</ele><time>2026-05-01T09:51:37.727Z</time></trkpt><trkpt lat="43.4143" lon="10.566115"><ele>282.0</ele><time>2026-05-01T09:51:38.728Z</time></trkpt><trkpt lat="43.4143817" lon="10.565925"><ele>279.3333333333333</ele><time>2026-05-01T09:51:39.729Z</time></trkpt><trkpt lat="43.4144567" lon="10.565735"><ele>276.66666666666663</ele><time>2026-05-01T09:51:40.726Z</time></trkpt><trkpt lat="43.4145517" lon="10.56556"><ele>274.0</ele><time>2026-05-01T09:51:41.729Z</time></trkpt><trkpt lat="43.4146417" lon="10.5653817"><ele>274.66666666666663</ele><time>2026-05-01T09:51:42.728Z</time></trkpt><trkpt lat="43.41474" lon="10.5652167"><ele>275.3333333333333</ele><time>2026-05-01T09:51:43.727Z</time></trkpt><trkpt lat="43.4148467" lon="10.5650617"><ele>276.0</ele><time>2026-05-01T09:51:44.728Z</time></trkpt><trkpt lat="43.4149583" lon="10.5649"><ele>276.0</ele><time>2026-05-01T09:51:45.728Z</time></trkpt><trkpt lat="43.4150467" lon="10.5647317"><ele>276.0</ele><time>2026-05-01T09:51:46.727Z</time></trkpt><trkpt lat="43.4151067" lon="10.5645483"><ele>276.0</ele><time>2026-05-01T09:51:47.726Z</time></trkpt><trkpt lat="43.415135" lon="10.5643483"><ele>276.0</ele><time>2026-05-01T09:51:48.727Z</time></trkpt><trkpt lat="43.41514" lon="10.5641467"><ele>273.6666666666667</ele><time>2026-05-01T09:51:49.727Z</time></trkpt><trkpt lat="43.4151217" lon="10.56394"><ele>271.33333333333337</ele><time>2026-05-01T09:51:50.728Z</time></trkpt><trkpt lat="43.415075" lon="10.5637317"><ele>269.0</ele><time>2026-05-01T09:51:51.727Z</time></trkpt><trkpt lat="43.4150133" lon="10.5635233"><ele>268.33333333333337</ele><time>2026-05-01T09:51:52.728Z</time></trkpt><trkpt lat="43.4149417" lon="10.5633233"><ele>267.6666666666667</ele><time>2026-05-01T09:51:53.729Z</time></trkpt><trkpt lat="43.4148633" lon="10.5631417"><ele>267.0</ele><time>2026-05-01T09:51:54.726Z</time></trkpt><trkpt lat="43.4147767" lon="10.5629717"><ele>266.0</ele><time>2026-05-01T09:51:55.728Z</time></trkpt><trkpt lat="43.41466" lon="10.5628283"><ele>265.0</ele><time>2026-05-01T09:51:56.727Z</time></trkpt><trkpt lat="43.414535" lon="10.5627217"><ele>264.0</ele><time>2026-05-01T09:51:57.728Z</time></trkpt><trkpt lat="43.4144067" lon="10.5626267"><ele>263.0</ele><time>2026-05-01T09:51:58.727Z</time></trkpt><trkpt lat="43.4142917" lon="10.5625367"><ele>261.5</ele><time>2026-05-01T09:51:59.729Z</time></trkpt><trkpt lat="43.4142017" lon="10.5624167"><ele>260.0</ele><time>2026-05-01T09:52:00.728Z</time></trkpt><trkpt lat="43.414125" lon="10.56228"><ele>258.5</ele><time>2026-05-01T09:52:01.728Z</time></trkpt><trkpt lat="43.4140717" lon="10.5621083"><ele>257.0</ele><time>2026-05-01T09:52:02.728Z</time></trkpt><trkpt lat="43.41405" lon="10.561915"><ele>256.0</ele><time>2026-05-01T09:52:03.727Z</time></trkpt><trkpt lat="43.4140417" lon="10.561705"><ele>255.0</ele><time>2026-05-01T09:52:04.727Z</time></trkpt><trkpt lat="43.4140367" lon="10.5614867"><ele>254.0</ele><time>2026-05-01T09:52:05.727Z</time></trkpt><trkpt lat="43.41403" lon="10.5612633"><ele>252.66666666666669</ele><time>2026-05-01T09:52:06.728Z</time></trkpt><trkpt lat="43.4140267" lon="10.5610433"><ele>251.33333333333331</ele><time>2026-05-01T09:52:07.728Z</time></trkpt><trkpt lat="43.4140183" lon="10.5608317"><ele>250.0</ele><time>2026-05-01T09:52:08.728Z</time></trkpt><trkpt lat="43.4140133" lon="10.56062"><ele>250.0</ele><time>2026-05-01T09:52:09.727Z</time></trkpt><trkpt lat="43.4140033" lon="10.560415"><ele>250.0</ele><time>2026-05-01T09:52:10.728Z</time></trkpt><trkpt lat="43.4140017" lon="10.5602167"><ele>250.0</ele><time>2026-05-01T09:52:11.727Z</time></trkpt><trkpt lat="43.41401" lon="10.5600233"><ele>250.0</ele><time>2026-05-01T09:52:12.726Z</time></trkpt><trkpt lat="43.4140433" lon="10.5598283"><ele>249.0</ele><time>2026-05-01T09:52:13.726Z</time></trkpt><trkpt lat="43.4140983" lon="10.559645"><ele>248.0</ele><time>2026-05-01T09:52:14.727Z</time></trkpt><trkpt lat="43.414165" lon="10.5594833"><ele>247.0</ele><time>2026-05-01T09:52:15.726Z</time></trkpt><trkpt lat="43.4142433" lon="10.559335"><ele>246.0</ele><time>2026-05-01T09:52:16.729Z</time></trkpt><trkpt lat="43.414315" lon="10.5591833"><ele>242.75</ele><time>2026-05-01T09:52:17.728Z</time></trkpt><trkpt lat="43.4143817" lon="10.5590333"><ele>239.5</ele><time>2026-05-01T09:52:18.728Z</time></trkpt><trkpt lat="43.4144367" lon="10.5588817"><ele>236.25</ele><time>2026-05-01T09:52:19.729Z</time></trkpt><trkpt lat="43.41448" lon="10.5587183"><ele>233.0</ele><time>2026-05-01T09:52:20.727Z</time></trkpt><trkpt lat="43.4145167" lon="10.5585517"><ele>231.4</ele><time>2026-05-01T09:52:21.727Z</time></trkpt><trkpt lat="43.4145433" lon="10.558385"><ele>229.8</ele><time>2026-05-01T09:52:22.728Z</time></trkpt><trkpt lat="43.4145667" lon="10.5582267"><ele>228.2</ele><time>2026-05-01T09:52:23.728Z</time></trkpt><trkpt lat="43.4145867" lon="10.5580833"><ele>226.6</ele><time>2026-05-01T09:52:24.727Z</time></trkpt><trkpt lat="43.4146133" lon="10.5579617"><ele>225.0</ele><time>2026-05-01T09:52:25.727Z</time></trkpt><trkpt lat="43.4146533" lon="10.55786"><ele>224.8</ele><time>2026-05-01T09:52:26.728Z</time></trkpt><trkpt lat="43.4147067" lon="10.55779"><ele>224.6</ele><time>2026-05-01T09:52:27.727Z</time></trkpt><trkpt lat="43.414785" lon="10.5578467"><ele>224.39999999999998</ele><time>2026-05-01T09:52:28.727Z</time></trkpt><trkpt lat="43.4148533" lon="10.5578983"><ele>224.2</ele><time>2026-05-01T09:52:29.728Z</time></trkpt><trkpt lat="43.414935" lon="10.5579833"><ele>224.0</ele><time>2026-05-01T09:52:30.727Z</time></trkpt><trkpt lat="43.4150433" lon="10.55806"><ele>225.75</ele><time>2026-05-01T09:52:31.727Z</time></trkpt><trkpt lat="43.41516" lon="10.5580933"><ele>227.5</ele><time>2026-05-01T09:52:32.727Z</time></trkpt><trkpt lat="43.4152667" lon="10.55807"><ele>229.25</ele><time>2026-05-01T09:52:33.727Z</time></trkpt><trkpt lat="43.4153767" lon="10.5580133"><ele>231.0</ele><time>2026-05-01T09:52:34.726Z</time></trkpt><trkpt lat="43.4154783" lon="10.55793"><ele>229.25</ele><time>2026-05-01T09:52:35.727Z</time></trkpt><trkpt lat="43.41557" lon="10.557815"><ele>227.5</ele><time>2026-05-01T09:52:36.728Z</time></trkpt><trkpt lat="43.4156517" lon="10.5576867"><ele>225.75</ele><time>2026-05-01T09:52:37.727Z</time></trkpt><trkpt lat="43.4157117" lon="10.557555"><ele>224.0</ele><time>2026-05-01T09:52:38.727Z</time></trkpt><trkpt lat="43.4157667" lon="10.5574267"><ele>224.0</ele><time>2026-05-01T09:52:39.728Z</time></trkpt><trkpt lat="43.4158133" lon="10.5573"><ele>223.99999999999997</ele><time>2026-05-01T09:52:40.728Z</time></trkpt><trkpt lat="43.4158517" lon="10.5571783"><ele>223.99999999999997</ele><time>2026-05-01T09:52:41.729Z</time></trkpt><trkpt lat="43.4158833" lon="10.55706"><ele>224.0</ele><time>2026-05-01T09:52:42.726Z</time></trkpt><trkpt lat="43.4159067" lon="10.556955"><ele>224.0</ele><time>2026-05-01T09:52:43.727Z</time></trkpt><trkpt lat="43.415945" lon="10.5568017"><ele>223.39999999999998</ele><time>2026-05-01T09:52:45.727Z</time></trkpt><trkpt lat="43.4159667" lon="10.5567083"><ele>222.79999999999998</ele><time>2026-05-01T09:52:47.727Z</time></trkpt><trkpt lat="43.41601" lon="10.5567833"><ele>222.20000000000002</ele><time>2026-05-01T09:53:55.728Z</time></trkpt><trkpt lat="43.4159652" lon="10.5566933"><ele>221.60000000000002</ele><time>2026-05-01T09:55:15.754Z</time></trkpt><trkpt lat="43.415875" lon="10.55656"><ele>221.0</ele><time>2026-05-01T09:58:53.728Z</time></trkpt><trkpt lat="43.4158283" lon="10.5564417"><ele>221.0</ele><time>2026-05-01T09:58:54.728Z</time></trkpt><trkpt lat="43.4157917" lon="10.5563133"><ele>221.0</ele><time>2026-05-01T09:58:55.728Z</time></trkpt><trkpt lat="43.4157633" lon="10.5561767"><ele>221.0</ele><time>2026-05-01T09:58:56.729Z</time></trkpt><trkpt lat="43.4157333" lon="10.556"><ele>221.0</ele><time>2026-05-01T09:58:57.728Z</time></trkpt><trkpt lat="43.4157033" lon="10.555825"><ele>221.5</ele><time>2026-05-01T09:58:58.728Z</time></trkpt><trkpt lat="43.4156733" lon="10.5556483"><ele>222.0</ele><time>2026-05-01T09:58:59.727Z</time></trkpt><trkpt lat="43.415625" lon="10.5554517"><ele>222.5</ele><time>2026-05-01T09:59:00.727Z</time></trkpt><trkpt lat="43.415565" lon="10.55526"><ele>223.0</ele><time>2026-05-01T09:59:01.728Z</time></trkpt><trkpt lat="43.4154817" lon="10.5550533"><ele>217.33333333333331</ele><time>2026-05-01T09:59:02.727Z</time></trkpt><trkpt lat="43.4153867" lon="10.5548367"><ele>211.66666666666669</ele><time>2026-05-01T09:59:03.727Z</time></trkpt><trkpt lat="43.4153" lon="10.5546333"><ele>206.0</ele><time>2026-05-01T09:59:04.728Z</time></trkpt><trkpt lat="43.4152183" lon="10.5544233"><ele>206.0</ele><time>2026-05-01T09:59:05.727Z</time></trkpt><trkpt lat="43.41515" lon="10.554225"><ele>206.0</ele><time>2026-05-01T09:59:06.727Z</time></trkpt><trkpt lat="43.4150867" lon="10.5540267"><ele>206.0</ele><time>2026-05-01T09:59:07.728Z</time></trkpt><trkpt lat="43.4150217" lon="10.5538333"><ele>207.66666666666669</ele><time>2026-05-01T09:59:08.728Z</time></trkpt><trkpt lat="43.41496" lon="10.5536333"><ele>209.33333333333331</ele><time>2026-05-01T09:59:09.728Z</time></trkpt><trkpt lat="43.414915" lon="10.553425"><ele>211.0</ele><time>2026-05-01T09:59:10.728Z</time></trkpt><trkpt lat="43.414895" lon="10.5532"><ele>211.0</ele><time>2026-05-01T09:59:11.727Z</time></trkpt><trkpt lat="43.414885" lon="10.5529633"><ele>211.0</ele><time>2026-05-01T09:59:12.728Z</time></trkpt><trkpt lat="43.4148817" lon="10.552725"><ele>211.0</ele><time>2026-05-01T09:59:13.728Z</time></trkpt><trkpt lat="43.4148683" lon="10.552485"><ele>210.66666666666666</ele><time>2026-05-01T09:59:14.729Z</time></trkpt><trkpt lat="43.4148333" lon="10.5522383"><ele>210.33333333333331</ele><time>2026-05-01T09:59:15.728Z</time></trkpt><trkpt lat="43.41479" lon="10.5519767"><ele>210.0</ele><time>2026-05-01T09:59:16.727Z</time></trkpt><trkpt lat="43.41474" lon="10.5517117"><ele>209.0</ele><time>2026-05-01T09:59:17.728Z</time></trkpt><trkpt lat="43.41469" lon="10.5514467"><ele>208.0</ele><time>2026-05-01T09:59:18.727Z</time></trkpt><trkpt lat="43.4146383" lon="10.5511817"><ele>207.0</ele><time>2026-05-01T09:59:19.727Z</time></trkpt><trkpt lat="43.414585" lon="10.5509083"><ele>200.33333333333334</ele><time>2026-05-01T09:59:20.728Z</time></trkpt><trkpt lat="43.4145317" lon="10.55063"><ele>193.66666666666669</ele><time>2026-05-01T09:59:21.728Z</time></trkpt><trkpt lat="43.4144767" lon="10.5503533"><ele>187.0</ele><time>2026-05-01T09:59:22.726Z</time></trkpt><trkpt lat="43.4144133" lon="10.5500767"><ele>187.0</ele><time>2026-05-01T09:59:23.726Z</time></trkpt><trkpt lat="43.414365" lon="10.549795"><ele>187.0</ele><time>2026-05-01T09:59:24.726Z</time></trkpt><trkpt lat="43.4143117" lon="10.549515"><ele>187.0</ele><time>2026-05-01T09:59:25.727Z</time></trkpt><trkpt lat="43.4142617" lon="10.54924"><ele>186.33333333333334</ele><time>2026-05-01T09:59:26.728Z</time></trkpt><trkpt lat="43.4142083" lon="10.5489633"><ele>185.66666666666666</ele><time>2026-05-01T09:59:27.726Z</time></trkpt><trkpt lat="43.4141617" lon="10.548685"><ele>185.0</ele><time>2026-05-01T09:59:28.729Z</time></trkpt><trkpt lat="43.4141183" lon="10.548415"><ele>185.0</ele><time>2026-05-01T09:59:29.728Z</time></trkpt><trkpt lat="43.4140617" lon="10.548145"><ele>185.0</ele><time>2026-05-01T09:59:30.727Z</time></trkpt><trkpt lat="43.4140083" lon="10.547875"><ele>185.0</ele><time>2026-05-01T09:59:31.727Z</time></trkpt><trkpt lat="43.4139633" lon="10.5476033"><ele>186.33333333333331</ele><time>2026-05-01T09:59:32.729Z</time></trkpt><trkpt lat="43.41391" lon="10.54733"><ele>187.66666666666666</ele><time>2026-05-01T09:59:33.727Z</time></trkpt><trkpt lat="43.4138517" lon="10.54706"><ele>189.0</ele><time>2026-05-01T09:59:34.728Z</time></trkpt><trkpt lat="43.4137917" lon="10.5467917"><ele>182.66666666666666</ele><time>2026-05-01T09:59:35.727Z</time></trkpt><trkpt lat="43.41374" lon="10.546525"><ele>176.33333333333331</ele><time>2026-05-01T09:59:36.728Z</time></trkpt><trkpt lat="43.413695" lon="10.5462583"><ele>170.0</ele><time>2026-05-01T09:59:37.728Z</time></trkpt><trkpt lat="43.41365" lon="10.54599"><ele>170.0</ele><time>2026-05-01T09:59:38.728Z</time></trkpt><trkpt lat="43.4136017" lon="10.5457233"><ele>170.0</ele><time>2026-05-01T09:59:39.726Z</time></trkpt><trkpt lat="43.4135683" lon="10.5454633"><ele>170.0</ele><time>2026-05-01T09:59:40.729Z</time></trkpt><trkpt lat="43.413545" lon="10.545215"><ele>170.66666666666666</ele><time>2026-05-01T09:59:41.729Z</time></trkpt><trkpt lat="43.4135333" lon="10.54498"><ele>171.33333333333334</ele><time>2026-05-01T09:59:42.727Z</time></trkpt><trkpt lat="43.413525" lon="10.5447567"><ele>172.0</ele><time>2026-05-01T09:59:43.728Z</time></trkpt><trkpt lat="43.4135233" lon="10.5445417"><ele>172.5</ele><time>2026-05-01T09:59:44.728Z</time></trkpt><trkpt lat="43.4135083" lon="10.5443383"><ele>173.0</ele><time>2026-05-01T09:59:45.728Z</time></trkpt><trkpt lat="43.4134867" lon="10.544145"><ele>173.5</ele><time>2026-05-01T09:59:46.727Z</time></trkpt><trkpt lat="43.4134417" lon="10.5439733"><ele>174.0</ele><time>2026-05-01T09:59:47.728Z</time></trkpt><trkpt lat="43.4133717" lon="10.54383"><ele>174.0</ele><time>2026-05-01T09:59:48.729Z</time></trkpt><trkpt lat="43.41329" lon="10.5437217"><ele>174.0</ele><time>2026-05-01T09:59:49.727Z</time></trkpt><trkpt lat="43.4131967" lon="10.54362"><ele>174.0</ele><time>2026-05-01T09:59:50.728Z</time></trkpt><trkpt lat="43.4131033" lon="10.543525"><ele>174.0</ele><time>2026-05-01T09:59:51.728Z</time></trkpt><trkpt lat="43.4130233" lon="10.54343"><ele>171.79999999999998</ele><time>2026-05-01T09:59:52.727Z</time></trkpt><trkpt lat="43.412955" lon="10.5433383"><ele>169.6</ele><time>2026-05-01T09:59:53.727Z</time></trkpt><trkpt lat="43.4129183" lon="10.543225"><ele>167.4</ele><time>2026-05-01T09:59:54.727Z</time></trkpt><trkpt lat="43.41291" lon="10.5430867"><ele>165.2</ele><time>2026-05-01T09:59:55.728Z</time></trkpt><trkpt lat="43.4129317" lon="10.5429183"><ele>163.0</ele><time>2026-05-01T09:59:56.728Z</time></trkpt><trkpt lat="43.4129517" lon="10.5427117"><ele>162.66666666666669</ele><time>2026-05-01T09:59:57.728Z</time></trkpt><trkpt lat="43.4129767" lon="10.5424667"><ele>162.33333333333334</ele><time>2026-05-01T09:59:58.728Z</time></trkpt><trkpt lat="43.4129817" lon="10.5422117"><ele>162.0</ele><time>2026-05-01T09:59:59.728Z</time></trkpt><trkpt lat="43.4129517" lon="10.5419617"><ele>162.0</ele><time>2026-05-01T10:00:00.729Z</time></trkpt><trkpt lat="43.4128983" lon="10.541715"><ele>162.0</ele><time>2026-05-01T10:00:01.726Z</time></trkpt><trkpt lat="43.4128383" lon="10.5414733"><ele>162.0</ele><time>2026-05-01T10:00:02.728Z</time></trkpt><trkpt lat="43.41277" lon="10.5412383"><ele>163.33333333333334</ele><time>2026-05-01T10:00:03.729Z</time></trkpt><trkpt lat="43.4127017" lon="10.5410167"><ele>164.66666666666669</ele><time>2026-05-01T10:00:04.728Z</time></trkpt><trkpt lat="43.41263" lon="10.5407983"><ele>166.0</ele><time>2026-05-01T10:00:05.728Z</time></trkpt><trkpt lat="43.41256" lon="10.5405817"><ele>165.66666666666669</ele><time>2026-05-01T10:00:06.728Z</time></trkpt><trkpt lat="43.4124983" lon="10.540375"><ele>165.33333333333334</ele><time>2026-05-01T10:00:07.729Z</time></trkpt><trkpt lat="43.412435" lon="10.540175"><ele>165.0</ele><time>2026-05-01T10:00:08.728Z</time></trkpt><trkpt lat="43.4123717" lon="10.5399717"><ele>165.0</ele><time>2026-05-01T10:00:09.728Z</time></trkpt><trkpt lat="43.4123067" lon="10.5397617"><ele>165.0</ele><time>2026-05-01T10:00:10.727Z</time></trkpt><trkpt lat="43.412235" lon="10.539545"><ele>165.0</ele><time>2026-05-01T10:00:11.728Z</time></trkpt><trkpt lat="43.412165" lon="10.5393233"><ele>164.0</ele><time>2026-05-01T10:00:12.728Z</time></trkpt><trkpt lat="43.412095" lon="10.5391017"><ele>163.0</ele><time>2026-05-01T10:00:13.729Z</time></trkpt><trkpt lat="43.4120233" lon="10.5388833"><ele>162.0</ele><time>2026-05-01T10:00:14.727Z</time></trkpt><trkpt lat="43.4119567" lon="10.5386617"><ele>161.0</ele><time>2026-05-01T10:00:15.728Z</time></trkpt><trkpt lat="43.411885" lon="10.5384433"><ele>160.0</ele><time>2026-05-01T10:00:16.729Z</time></trkpt><trkpt lat="43.411815" lon="10.538225"><ele>159.0</ele><time>2026-05-01T10:00:17.729Z</time></trkpt><trkpt lat="43.4117467" lon="10.538015"><ele>158.0</ele><time>2026-05-01T10:00:18.727Z</time></trkpt><trkpt lat="43.4116817" lon="10.5377983"><ele>157.0</ele><time>2026-05-01T10:00:19.726Z</time></trkpt><trkpt lat="43.4116117" lon="10.537585"><ele>156.0</ele><time>2026-05-01T10:00:20.728Z</time></trkpt><trkpt lat="43.41154" lon="10.5373683"><ele>156.0</ele><time>2026-05-01T10:00:21.727Z</time></trkpt><trkpt lat="43.411465" lon="10.5371567"><ele>156.0</ele><time>2026-05-01T10:00:22.727Z</time></trkpt><trkpt lat="43.4113783" lon="10.53694"><ele>156.0</ele><time>2026-05-01T10:00:23.727Z</time></trkpt><trkpt lat="43.4112983" lon="10.53673"><ele>152.33333333333334</ele><time>2026-05-01T10:00:24.728Z</time></trkpt><trkpt lat="43.41122" lon="10.5365233"><ele>148.66666666666669</ele><time>2026-05-01T10:00:25.728Z</time></trkpt><trkpt lat="43.4111383" lon="10.5363233"><ele>145.0</ele><time>2026-05-01T10:00:26.728Z</time></trkpt><trkpt lat="43.4110633" lon="10.5361217"><ele>145.0</ele><time>2026-05-01T10:00:27.729Z</time></trkpt><trkpt lat="43.4109783" lon="10.5359267"><ele>145.0</ele><time>2026-05-01T10:00:28.727Z</time></trkpt><trkpt lat="43.410905" lon="10.5357167"><ele>145.0</ele><time>2026-05-01T10:00:29.728Z</time></trkpt><trkpt lat="43.41082" lon="10.5355183"><ele>146.0</ele><time>2026-05-01T10:00:30.727Z</time></trkpt><trkpt lat="43.410735" lon="10.5353117"><ele>147.0</ele><time>2026-05-01T10:00:31.728Z</time></trkpt><trkpt lat="43.41064" lon="10.5351083"><ele>148.0</ele><time>2026-05-01T10:00:32.728Z</time></trkpt><trkpt lat="43.4105383" lon="10.5349117"><ele>144.66666666666669</ele><time>2026-05-01T10:00:33.728Z</time></trkpt><trkpt lat="43.4104417" lon="10.5347183"><ele>141.33333333333334</ele><time>2026-05-01T10:00:34.728Z</time></trkpt><trkpt lat="43.41034" lon="10.5345233"><ele>138.0</ele><time>2026-05-01T10:00:35.727Z</time></trkpt><trkpt lat="43.4102367" lon="10.5343283"><ele>138.0</ele><time>2026-05-01T10:00:36.728Z</time></trkpt><trkpt lat="43.4101333" lon="10.5341283"><ele>138.0</ele><time>2026-05-01T10:00:37.729Z</time></trkpt><trkpt lat="43.4100267" lon="10.5339283"><ele>138.0</ele><time>2026-05-01T10:00:38.729Z</time></trkpt><trkpt lat="43.409925" lon="10.53373"><ele>138.33333333333334</ele><time>2026-05-01T10:00:39.728Z</time></trkpt><trkpt lat="43.4098333" lon="10.5335333"><ele>138.66666666666669</ele><time>2026-05-01T10:00:40.727Z</time></trkpt><trkpt lat="43.4097417" lon="10.53334"><ele>139.0</ele><time>2026-05-01T10:00:41.729Z</time></trkpt><trkpt lat="43.409665" lon="10.5331367"><ele>134.33333333333334</ele><time>2026-05-01T10:00:42.729Z</time></trkpt><trkpt lat="43.4095933" lon="10.5329317"><ele>129.66666666666666</ele><time>2026-05-01T10:00:43.728Z</time></trkpt><trkpt lat="43.409545" lon="10.5327033"><ele>125.0</ele><time>2026-05-01T10:00:44.729Z</time></trkpt><trkpt lat="43.4095183" lon="10.5324633"><ele>125.0</ele><time>2026-05-01T10:00:45.73Z</time></trkpt><trkpt lat="43.4095" lon="10.5322117"><ele>125.0</ele><time>2026-05-01T10:00:46.727Z</time></trkpt><trkpt lat="43.4094783" lon="10.531965"><ele>125.0</ele><time>2026-05-01T10:00:47.728Z</time></trkpt><trkpt lat="43.409455" lon="10.5317117"><ele>123.33333333333333</ele><time>2026-05-01T10:00:48.726Z</time></trkpt><trkpt lat="43.4094217" lon="10.5314633"><ele>121.66666666666666</ele><time>2026-05-01T10:00:49.729Z</time></trkpt><trkpt lat="43.40938" lon="10.5312183"><ele>120.0</ele><time>2026-05-01T10:00:50.728Z</time></trkpt><trkpt lat="43.4093233" lon="10.5309767"><ele>119.66666666666666</ele><time>2026-05-01T10:00:51.728Z</time></trkpt><trkpt lat="43.40926" lon="10.5307383"><ele>119.33333333333333</ele><time>2026-05-01T10:00:52.727Z</time></trkpt><trkpt lat="43.4092017" lon="10.530505"><ele>119.0</ele><time>2026-05-01T10:00:53.728Z</time></trkpt><trkpt lat="43.4091383" lon="10.5302583"><ele>117.33333333333333</ele><time>2026-05-01T10:00:54.727Z</time></trkpt><trkpt lat="43.409075" lon="10.5300167"><ele>115.66666666666666</ele><time>2026-05-01T10:00:55.728Z</time></trkpt><trkpt lat="43.40901" lon="10.5297783"><ele>114.0</ele><time>2026-05-01T10:00:56.728Z</time></trkpt><trkpt lat="43.4089467" lon="10.5295333"><ele>115.0</ele><time>2026-05-01T10:00:57.728Z</time></trkpt><trkpt lat="43.408885" lon="10.5292917"><ele>116.0</ele><time>2026-05-01T10:00:58.728Z</time></trkpt><trkpt lat="43.408825" lon="10.529055"><ele>117.0</ele><time>2026-05-01T10:00:59.728Z</time></trkpt><trkpt lat="43.408765" lon="10.5288367"><ele>114.33333333333334</ele><time>2026-05-01T10:01:00.727Z</time></trkpt><trkpt lat="43.4087083" lon="10.5286183"><ele>111.66666666666667</ele><time>2026-05-01T10:01:01.727Z</time></trkpt><trkpt lat="43.40866" lon="10.5284067"><ele>109.0</ele><time>2026-05-01T10:01:02.727Z</time></trkpt><trkpt lat="43.40862" lon="10.528205"><ele>109.0</ele><time>2026-05-01T10:01:03.728Z</time></trkpt><trkpt lat="43.4086133" lon="10.5280117"><ele>109.0</ele><time>2026-05-01T10:01:04.727Z</time></trkpt><trkpt lat="43.40865" lon="10.527835"><ele>109.0</ele><time>2026-05-01T10:01:05.729Z</time></trkpt><trkpt lat="43.4087133" lon="10.5276833"><ele>109.0</ele><time>2026-05-01T10:01:06.728Z</time></trkpt><trkpt lat="43.4087967" lon="10.52753"><ele>105.5</ele><time>2026-05-01T10:01:07.728Z</time></trkpt><trkpt lat="43.4088767" lon="10.527365"><ele>102.0</ele><time>2026-05-01T10:01:08.728Z</time></trkpt><trkpt lat="43.408945" lon="10.52718"><ele>98.5</ele><time>2026-05-01T10:01:09.728Z</time></trkpt><trkpt lat="43.409" lon="10.5269817"><ele>95.0</ele><time>2026-05-01T10:01:10.728Z</time></trkpt><trkpt lat="43.4090467" lon="10.5267633"><ele>93.66666666666667</ele><time>2026-05-01T10:01:11.728Z</time></trkpt><trkpt lat="43.4090867" lon="10.5265367"><ele>92.33333333333333</ele><time>2026-05-01T10:01:12.729Z</time></trkpt><trkpt lat="43.4091217" lon="10.5263033"><ele>91.0</ele><time>2026-05-01T10:01:13.729Z</time></trkpt><trkpt lat="43.4091633" lon="10.5260683"><ele>90.0</ele><time>2026-05-01T10:01:14.729Z</time></trkpt><trkpt lat="43.4092017" lon="10.5258367"><ele>89.0</ele><time>2026-05-01T10:01:15.728Z</time></trkpt><trkpt lat="43.4092317" lon="10.5256117"><ele>88.0</ele><time>2026-05-01T10:01:16.727Z</time></trkpt><trkpt lat="43.40925" lon="10.5253967"><ele>87.0</ele><time>2026-05-01T10:01:17.729Z</time></trkpt><trkpt lat="43.4092467" lon="10.52519"><ele>86.0</ele><time>2026-05-01T10:01:18.727Z</time></trkpt><trkpt lat="43.4092083" lon="10.5249767"><ele>85.0</ele><time>2026-05-01T10:01:19.727Z</time></trkpt><trkpt lat="43.40916" lon="10.5247617"><ele>83.33333333333333</ele><time>2026-05-01T10:01:20.729Z</time></trkpt><trkpt lat="43.4091067" lon="10.524535"><ele>81.66666666666667</ele><time>2026-05-01T10:01:21.728Z</time></trkpt><trkpt lat="43.4090483" lon="10.524305"><ele>80.0</ele><time>2026-05-01T10:01:22.727Z</time></trkpt><trkpt lat="43.408985" lon="10.5240733"><ele>80.0</ele><time>2026-05-01T10:01:23.729Z</time></trkpt><trkpt lat="43.408925" lon="10.52384"><ele>80.0</ele><time>2026-05-01T10:01:24.727Z</time></trkpt><trkpt lat="43.40886" lon="10.5236117"><ele>80.0</ele><time>2026-05-01T10:01:25.729Z</time></trkpt><trkpt lat="43.4087767" lon="10.5233883"><ele>78.33333333333334</ele><time>2026-05-01T10:01:26.729Z</time></trkpt><trkpt lat="43.4086817" lon="10.523175"><ele>76.66666666666667</ele><time>2026-05-01T10:01:27.728Z</time></trkpt><trkpt lat="43.40857" lon="10.5229667"><ele>75.0</ele><time>2026-05-01T10:01:28.727Z</time></trkpt><trkpt lat="43.408455" lon="10.522765"><ele>75.0</ele><time>2026-05-01T10:01:29.728Z</time></trkpt><trkpt lat="43.4083433" lon="10.5225567"><ele>75.0</ele><time>2026-05-01T10:01:30.729Z</time></trkpt><trkpt lat="43.4082317" lon="10.522355"><ele>75.0</ele><time>2026-05-01T10:01:31.728Z</time></trkpt><trkpt lat="43.4081183" lon="10.522155"><ele>74.0</ele><time>2026-05-01T10:01:32.729Z</time></trkpt><trkpt lat="43.4080167" lon="10.5219433"><ele>73.0</ele><time>2026-05-01T10:01:33.727Z</time></trkpt><trkpt lat="43.4079117" lon="10.52173"><ele>72.0</ele><time>2026-05-01T10:01:34.729Z</time></trkpt><trkpt lat="43.40781" lon="10.521505"><ele>71.33333333333333</ele><time>2026-05-01T10:01:35.727Z</time></trkpt><trkpt lat="43.4077083" lon="10.521275"><ele>70.66666666666666</ele><time>2026-05-01T10:01:36.727Z</time></trkpt><trkpt lat="43.4076083" lon="10.5210417"><ele>70.0</ele><time>2026-05-01T10:01:37.728Z</time></trkpt><trkpt lat="43.4075" lon="10.5208067"><ele>68.66666666666666</ele><time>2026-05-01T10:01:38.729Z</time></trkpt><trkpt lat="43.40739" lon="10.520565"><ele>67.33333333333333</ele><time>2026-05-01T10:01:39.728Z</time></trkpt><trkpt lat="43.4072867" lon="10.520315"><ele>66.0</ele><time>2026-05-01T10:01:40.729Z</time></trkpt><trkpt lat="43.4071883" lon="10.52006"><ele>62.66666666666667</ele><time>2026-05-01T10:01:41.727Z</time></trkpt><trkpt lat="43.407095" lon="10.5198"><ele>59.333333333333336</ele><time>2026-05-01T10:01:42.728Z</time></trkpt><trkpt lat="43.4070033" lon="10.519535"><ele>56.0</ele><time>2026-05-01T10:01:43.728Z</time></trkpt><trkpt lat="43.4069117" lon="10.5192733"><ele>55.66666666666667</ele><time>2026-05-01T10:01:44.729Z</time></trkpt><trkpt lat="43.40682" lon="10.51901"><ele>55.33333333333333</ele><time>2026-05-01T10:01:45.729Z</time></trkpt><trkpt lat="43.406725" lon="10.518745"><ele>55.0</ele><time>2026-05-01T10:01:46.728Z</time></trkpt><trkpt lat="43.4066317" lon="10.5184833"><ele>55.0</ele><time>2026-05-01T10:01:47.729Z</time></trkpt><trkpt lat="43.4065367" lon="10.5182233"><ele>55.0</ele><time>2026-05-01T10:01:48.729Z</time></trkpt><trkpt lat="43.4064467" lon="10.517965"><ele>55.0</ele><time>2026-05-01T10:01:49.728Z</time></trkpt><trkpt lat="43.40636" lon="10.5177117"><ele>53.33333333333333</ele><time>2026-05-01T10:01:50.727Z</time></trkpt><trkpt lat="43.4062767" lon="10.5174717"><ele>51.66666666666667</ele><time>2026-05-01T10:01:51.728Z</time></trkpt><trkpt lat="43.40619" lon="10.5172383"><ele>50.0</ele><time>2026-05-01T10:01:52.728Z</time></trkpt><trkpt lat="43.406095" lon="10.5170133"><ele>49.66666666666667</ele><time>2026-05-01T10:01:53.728Z</time></trkpt><trkpt lat="43.4059783" lon="10.5168033"><ele>49.33333333333333</ele><time>2026-05-01T10:01:54.729Z</time></trkpt><trkpt lat="43.4058433" lon="10.51661"><ele>49.0</ele><time>2026-05-01T10:01:55.728Z</time></trkpt><trkpt lat="43.4057" lon="10.516425"><ele>49.0</ele><time>2026-05-01T10:01:56.729Z</time></trkpt><trkpt lat="43.4055517" lon="10.51625"><ele>49.0</ele><time>2026-05-01T10:01:57.729Z</time></trkpt><trkpt lat="43.4054033" lon="10.5160767"><ele>49.0</ele><time>2026-05-01T10:01:58.727Z</time></trkpt><trkpt lat="43.40525" lon="10.5159117"><ele>48.0</ele><time>2026-05-01T10:01:59.729Z</time></trkpt><trkpt lat="43.4051033" lon="10.5157517"><ele>47.0</ele><time>2026-05-01T10:02:00.729Z</time></trkpt><trkpt lat="43.40496" lon="10.5155933"><ele>46.0</ele><time>2026-05-01T10:02:01.729Z</time></trkpt><trkpt lat="43.4048283" lon="10.51543"><ele>44.333333333333336</ele><time>2026-05-01T10:02:02.729Z</time></trkpt><trkpt lat="43.4047183" lon="10.5152467"><ele>42.666666666666664</ele><time>2026-05-01T10:02:03.728Z</time></trkpt><trkpt lat="43.4046383" lon="10.5150317"><ele>41.0</ele><time>2026-05-01T10:02:04.728Z</time></trkpt><trkpt lat="43.404585" lon="10.514795"><ele>39.666666666666664</ele><time>2026-05-01T10:02:05.728Z</time></trkpt><trkpt lat="43.404535" lon="10.5145533"><ele>38.333333333333336</ele><time>2026-05-01T10:02:06.728Z</time></trkpt><trkpt lat="43.4044933" lon="10.514295"><ele>37.0</ele><time>2026-05-01T10:02:07.729Z</time></trkpt><trkpt lat="43.4044483" lon="10.5140283"><ele>37.0</ele><time>2026-05-01T10:02:08.729Z</time></trkpt><trkpt lat="43.4043933" lon="10.513765"><ele>37.0</ele><time>2026-05-01T10:02:09.728Z</time></trkpt><trkpt lat="43.4043217" lon="10.513505"><ele>37.0</ele><time>2026-05-01T10:02:10.726Z</time></trkpt><trkpt lat="43.4042383" lon="10.5132517"><ele>36.333333333333336</ele><time>2026-05-01T10:02:11.729Z</time></trkpt><trkpt lat="43.4041433" lon="10.5130117"><ele>35.666666666666664</ele><time>2026-05-01T10:02:12.728Z</time></trkpt><trkpt lat="43.4040317" lon="10.5127817"><ele>35.0</ele><time>2026-05-01T10:02:13.728Z</time></trkpt><trkpt lat="43.4039083" lon="10.5125567"><ele>33.666666666666664</ele><time>2026-05-01T10:02:14.727Z</time></trkpt><trkpt lat="43.4037817" lon="10.5123317"><ele>32.333333333333336</ele><time>2026-05-01T10:02:15.727Z</time></trkpt><trkpt lat="43.4036483" lon="10.5121133"><ele>31.0</ele><time>2026-05-01T10:02:16.728Z</time></trkpt><trkpt lat="43.4035117" lon="10.5119"><ele>30.333333333333336</ele><time>2026-05-01T10:02:17.728Z</time></trkpt><trkpt lat="43.4033733" lon="10.5116917"><ele>29.666666666666664</ele><time>2026-05-01T10:02:18.728Z</time></trkpt><trkpt lat="43.4032217" lon="10.5114917"><ele>29.0</ele><time>2026-05-01T10:02:19.726Z</time></trkpt><trkpt lat="43.4030817" lon="10.5112783"><ele>29.666666666666664</ele><time>2026-05-01T10:02:20.728Z</time></trkpt><trkpt lat="43.402945" lon="10.5110583"><ele>30.333333333333336</ele><time>2026-05-01T10:02:21.728Z</time></trkpt><trkpt lat="43.4028017" lon="10.5108367"><ele>31.0</ele><time>2026-05-01T10:02:22.727Z</time></trkpt><trkpt lat="43.4026633" lon="10.5106083"><ele>31.333333333333336</ele><time>2026-05-01T10:02:23.727Z</time></trkpt><trkpt lat="43.4025217" lon="10.5103817"><ele>31.666666666666664</ele><time>2026-05-01T10:02:24.728Z</time></trkpt><trkpt lat="43.4023783" lon="10.5101533"><ele>32.0</ele><time>2026-05-01T10:02:25.727Z</time></trkpt><trkpt lat="43.4022367" lon="10.5099267"><ele>31.0</ele><time>2026-05-01T10:02:26.728Z</time></trkpt><trkpt lat="43.4020933" lon="10.509705"><ele>30.0</ele><time>2026-05-01T10:02:27.728Z</time></trkpt><trkpt lat="43.4019617" lon="10.509475"><ele>29.0</ele><time>2026-05-01T10:02:28.728Z</time></trkpt><trkpt lat="43.40184" lon="10.5092367"><ele>29.0</ele><time>2026-05-01T10:02:29.728Z</time></trkpt><trkpt lat="43.40173" lon="10.5089967"><ele>29.0</ele><time>2026-05-01T10:02:30.729Z</time></trkpt><trkpt lat="43.4016417" lon="10.50874"><ele>29.0</ele><time>2026-05-01T10:02:31.728Z</time></trkpt><trkpt lat="43.4015617" lon="10.5084783"><ele>28.666666666666664</ele><time>2026-05-01T10:02:32.73Z</time></trkpt><trkpt lat="43.4014833" lon="10.508215"><ele>28.333333333333336</ele><time>2026-05-01T10:02:33.727Z</time></trkpt><trkpt lat="43.401405" lon="10.5079567"><ele>28.0</ele><time>2026-05-01T10:02:34.729Z</time></trkpt><trkpt lat="43.40133" lon="10.5076983"><ele>28.0</ele><time>2026-05-01T10:02:35.727Z</time></trkpt><trkpt lat="43.4012533" lon="10.50744"><ele>28.0</ele><time>2026-05-01T10:02:36.728Z</time></trkpt><trkpt lat="43.40118" lon="10.5071817"><ele>28.0</ele><time>2026-05-01T10:02:37.727Z</time></trkpt><trkpt lat="43.4011067" lon="10.506925"><ele>28.0</ele><time>2026-05-01T10:02:38.728Z</time></trkpt><trkpt lat="43.4010367" lon="10.50667"><ele>28.0</ele><time>2026-05-01T10:02:39.726Z</time></trkpt><trkpt lat="43.4009667" lon="10.5064183"><ele>28.0</ele><time>2026-05-01T10:02:40.728Z</time></trkpt><trkpt lat="43.4008967" lon="10.5061783"><ele>28.0</ele><time>2026-05-01T10:02:41.728Z</time></trkpt><trkpt lat="43.4008283" lon="10.5059417"><ele>28.0</ele><time>2026-05-01T10:02:42.727Z</time></trkpt><trkpt lat="43.40076" lon="10.5057133"><ele>28.0</ele><time>2026-05-01T10:02:43.728Z</time></trkpt><trkpt lat="43.4006933" lon="10.5054917"><ele>28.666666666666668</ele><time>2026-05-01T10:02:44.729Z</time></trkpt><trkpt lat="43.40063" lon="10.5052783"><ele>29.333333333333336</ele><time>2026-05-01T10:02:45.726Z</time></trkpt><trkpt lat="43.4005717" lon="10.5050767"><ele>30.0</ele><time>2026-05-01T10:02:46.728Z</time></trkpt><trkpt lat="43.400515" lon="10.50488"><ele>28.0</ele><time>2026-05-01T10:02:47.727Z</time></trkpt><trkpt lat="43.40046" lon="10.5046817"><ele>26.0</ele><time>2026-05-01T10:02:48.727Z</time></trkpt><trkpt lat="43.4004067" lon="10.5044867"><ele>24.0</ele><time>2026-05-01T10:02:49.725Z</time></trkpt><trkpt lat="43.400355" lon="10.504295"><ele>24.0</ele><time>2026-05-01T10:02:50.727Z</time></trkpt><trkpt lat="43.4003033" lon="10.5041067"><ele>24.0</ele><time>2026-05-01T10:02:51.726Z</time></trkpt><trkpt lat="43.4002467" lon="10.5039167"><ele>24.0</ele><time>2026-05-01T10:02:52.727Z</time></trkpt><trkpt lat="43.40019" lon="10.50373"><ele>24.0</ele><time>2026-05-01T10:02:53.728Z</time></trkpt><trkpt lat="43.4001367" lon="10.5035567"><ele>24.2</ele><time>2026-05-01T10:02:54.727Z</time></trkpt><trkpt lat="43.4000883" lon="10.5034"><ele>24.4</ele><time>2026-05-01T10:02:55.728Z</time></trkpt><trkpt lat="43.4000433" lon="10.503255"><ele>24.6</ele><time>2026-05-01T10:02:56.727Z</time></trkpt><trkpt lat="43.3999983" lon="10.50313"><ele>24.8</ele><time>2026-05-01T10:02:57.727Z</time></trkpt><trkpt lat="43.3999567" lon="10.503015"><ele>25.0</ele><time>2026-05-01T10:02:58.726Z</time></trkpt><trkpt lat="43.399915" lon="10.5029017"><ele>25.2</ele><time>2026-05-01T10:02:59.728Z</time></trkpt><trkpt lat="43.3998683" lon="10.5027833"><ele>25.4</ele><time>2026-05-01T10:03:00.727Z</time></trkpt><trkpt lat="43.3998167" lon="10.50266"><ele>25.6</ele><time>2026-05-01T10:03:01.727Z</time></trkpt><trkpt lat="43.39976" lon="10.5025383"><ele>25.8</ele><time>2026-05-01T10:03:02.728Z</time></trkpt><trkpt lat="43.3996967" lon="10.50241"><ele>26.0</ele><time>2026-05-01T10:03:03.727Z</time></trkpt><trkpt lat="43.3996333" lon="10.502275"><ele>25.5</ele><time>2026-05-01T10:03:04.727Z</time></trkpt><trkpt lat="43.39957" lon="10.502135"><ele>25.0</ele><time>2026-05-01T10:03:05.728Z</time></trkpt><trkpt lat="43.399505" lon="10.5019917"><ele>24.5</ele><time>2026-05-01T10:03:06.728Z</time></trkpt><trkpt lat="43.3994417" lon="10.5018433"><ele>24.0</ele><time>2026-05-01T10:03:07.729Z</time></trkpt><trkpt lat="43.3993767" lon="10.5016933"><ele>24.0</ele><time>2026-05-01T10:03:08.728Z</time></trkpt><trkpt lat="43.39931" lon="10.501545"><ele>24.0</ele><time>2026-05-01T10:03:09.728Z</time></trkpt><trkpt lat="43.3992417" lon="10.501385"><ele>24.0</ele><time>2026-05-01T10:03:10.728Z</time></trkpt><trkpt lat="43.39917" lon="10.50122"><ele>24.0</ele><time>2026-05-01T10:03:11.727Z</time></trkpt><trkpt lat="43.3990983" lon="10.5010567"><ele>24.0</ele><time>2026-05-01T10:03:12.727Z</time></trkpt><trkpt lat="43.3990267" lon="10.5008867"><ele>24.0</ele><time>2026-05-01T10:03:13.729Z</time></trkpt><trkpt lat="43.398965" lon="10.5007033"><ele>24.0</ele><time>2026-05-01T10:03:14.728Z</time></trkpt><trkpt lat="43.3989067" lon="10.5005133"><ele>24.0</ele><time>2026-05-01T10:03:15.728Z</time></trkpt><trkpt lat="43.3988533" lon="10.50031"><ele>22.333333333333332</ele><time>2026-05-01T10:03:16.727Z</time></trkpt><trkpt lat="43.398805" lon="10.5001033"><ele>20.666666666666664</ele><time>2026-05-01T10:03:17.727Z</time></trkpt><trkpt lat="43.398765" lon="10.49989"><ele>19.0</ele><time>2026-05-01T10:03:18.727Z</time></trkpt><trkpt lat="43.3987267" lon="10.4996767"><ele>19.0</ele><time>2026-05-01T10:03:19.727Z</time></trkpt><trkpt lat="43.3986933" lon="10.4994683"><ele>19.0</ele><time>2026-05-01T10:03:20.727Z</time></trkpt><trkpt lat="43.3986617" lon="10.4992733"><ele>19.0</ele><time>2026-05-01T10:03:21.728Z</time></trkpt><trkpt lat="43.398635" lon="10.499085"><ele>19.0</ele><time>2026-05-01T10:03:22.727Z</time></trkpt><trkpt lat="43.3986067" lon="10.4989067"><ele>19.75</ele><time>2026-05-01T10:03:23.728Z</time></trkpt><trkpt lat="43.39858" lon="10.4987367"><ele>20.5</ele><time>2026-05-01T10:03:24.728Z</time></trkpt><trkpt lat="43.3985517" lon="10.4985867"><ele>21.25</ele><time>2026-05-01T10:03:25.728Z</time></trkpt><trkpt lat="43.3985283" lon="10.4984367"><ele>22.0</ele><time>2026-05-01T10:03:26.729Z</time></trkpt><trkpt lat="43.3985033" lon="10.4982817"><ele>22.0</ele><time>2026-05-01T10:03:27.726Z</time></trkpt><trkpt lat="43.3984733" lon="10.4981283"><ele>22.0</ele><time>2026-05-01T10:03:28.727Z</time></trkpt><trkpt lat="43.398445" lon="10.4979717"><ele>22.0</ele><time>2026-05-01T10:03:29.73Z</time></trkpt><trkpt lat="43.3984183" lon="10.4978217"><ele>22.0</ele><time>2026-05-01T10:03:30.728Z</time></trkpt><trkpt lat="43.3983917" lon="10.49768"><ele>21.8</ele><time>2026-05-01T10:03:31.727Z</time></trkpt><trkpt lat="43.39837" lon="10.4975467"><ele>21.6</ele><time>2026-05-01T10:03:32.728Z</time></trkpt><trkpt lat="43.3983517" lon="10.497415"><ele>21.400000000000002</ele><time>2026-05-01T10:03:33.728Z</time></trkpt><trkpt lat="43.3983283" lon="10.4972833"><ele>21.200000000000003</ele><time>2026-05-01T10:03:34.726Z</time></trkpt><trkpt lat="43.3983083" lon="10.497145"><ele>21.0</ele><time>2026-05-01T10:03:35.727Z</time></trkpt><trkpt lat="43.3982817" lon="10.4970083"><ele>21.0</ele><time>2026-05-01T10:03:36.727Z</time></trkpt><trkpt lat="43.3982617" lon="10.4968733"><ele>21.0</ele><time>2026-05-01T10:03:37.728Z</time></trkpt><trkpt lat="43.3982367" lon="10.4967367"><ele>21.0</ele><time>2026-05-01T10:03:38.728Z</time></trkpt><trkpt lat="43.39821" lon="10.496605"><ele>21.0</ele><time>2026-05-01T10:03:39.728Z</time></trkpt><trkpt lat="43.3981883" lon="10.4964883"><ele>21.0</ele><time>2026-05-01T10:03:40.728Z</time></trkpt><trkpt lat="43.39817" lon="10.4963867"><ele>21.0</ele><time>2026-05-01T10:03:41.727Z</time></trkpt><trkpt lat="43.398175" lon="10.4962883"><ele>21.0</ele><time>2026-05-01T10:03:42.727Z</time></trkpt><trkpt lat="43.3981833" lon="10.4961933"><ele>21.0</ele><time>2026-05-01T10:03:44.727Z</time></trkpt><trkpt lat="43.39824" lon="10.49615"><ele>21.0</ele><time>2026-05-01T10:03:46.728Z</time></trkpt><trkpt lat="43.3983617" lon="10.4961417"><ele>21.0</ele><time>2026-05-01T10:03:48.727Z</time></trkpt><trkpt lat="43.3984333" lon="10.49612"><ele>21.0</ele><time>2026-05-01T10:03:49.727Z</time></trkpt><trkpt lat="43.3985133" lon="10.4960967"><ele>20.8</ele><time>2026-05-01T10:03:50.728Z</time></trkpt><trkpt lat="43.3986067" lon="10.4960617"><ele>20.6</ele><time>2026-05-01T10:03:51.728Z</time></trkpt><trkpt lat="43.398705" lon="10.4960183"><ele>20.4</ele><time>2026-05-01T10:03:52.728Z</time></trkpt><trkpt lat="43.39881" lon="10.4959683"><ele>20.2</ele><time>2026-05-01T10:03:53.728Z</time></trkpt><trkpt lat="43.3989183" lon="10.49591"><ele>20.0</ele><time>2026-05-01T10:03:54.729Z</time></trkpt><trkpt lat="43.3990267" lon="10.4958417"><ele>20.0</ele><time>2026-05-01T10:03:55.729Z</time></trkpt><trkpt lat="43.3991383" lon="10.4957617"><ele>20.0</ele><time>2026-05-01T10:03:56.728Z</time></trkpt><trkpt lat="43.39925" lon="10.4956733"><ele>20.0</ele><time>2026-05-01T10:03:57.727Z</time></trkpt><trkpt lat="43.39936" lon="10.495575"><ele>20.0</ele><time>2026-05-01T10:03:58.728Z</time></trkpt><trkpt lat="43.3994683" lon="10.4954783"><ele>19.75</ele><time>2026-05-01T10:03:59.728Z</time></trkpt><trkpt lat="43.399575" lon="10.495375"><ele>19.5</ele><time>2026-05-01T10:04:00.728Z</time></trkpt><trkpt lat="43.3996817" lon="10.495265"><ele>19.25</ele><time>2026-05-01T10:04:01.728Z</time></trkpt><trkpt lat="43.3997833" lon="10.49514"><ele>19.0</ele><time>2026-05-01T10:04:02.729Z</time></trkpt><trkpt lat="43.399885" lon="10.4950033"><ele>19.0</ele><time>2026-05-01T10:04:03.727Z</time></trkpt><trkpt lat="43.3999833" lon="10.4948533"><ele>19.0</ele><time>2026-05-01T10:04:04.728Z</time></trkpt><trkpt lat="43.4000783" lon="10.4947"><ele>19.0</ele><time>2026-05-01T10:04:05.73Z</time></trkpt><trkpt lat="43.400175" lon="10.4945483"><ele>19.0</ele><time>2026-05-01T10:04:06.729Z</time></trkpt><trkpt lat="43.4002717" lon="10.4944"><ele>19.0</ele><time>2026-05-01T10:04:07.729Z</time></trkpt><trkpt lat="43.400365" lon="10.49426"><ele>19.0</ele><time>2026-05-01T10:04:08.729Z</time></trkpt><trkpt lat="43.4004517" lon="10.4941317"><ele>19.0</ele><time>2026-05-01T10:04:09.727Z</time></trkpt><trkpt lat="43.4005333" lon="10.4940017"><ele>19.0</ele><time>2026-05-01T10:04:10.728Z</time></trkpt><trkpt lat="43.4006167" lon="10.4938683"><ele>18.5</ele><time>2026-05-01T10:04:11.728Z</time></trkpt><trkpt lat="43.4007067" lon="10.4937267"><ele>18.0</ele><time>2026-05-01T10:04:12.73Z</time></trkpt><trkpt lat="43.4008067" lon="10.4935817"><ele>17.5</ele><time>2026-05-01T10:04:13.728Z</time></trkpt><trkpt lat="43.4009083" lon="10.4934217"><ele>17.0</ele><time>2026-05-01T10:04:14.729Z</time></trkpt><trkpt lat="43.4010183" lon="10.49326"><ele>17.0</ele><time>2026-05-01T10:04:15.728Z</time></trkpt><trkpt lat="43.4011367" lon="10.4931"><ele>17.0</ele><time>2026-05-01T10:04:16.728Z</time></trkpt><trkpt lat="43.4012517" lon="10.492935"><ele>17.0</ele><time>2026-05-01T10:04:17.727Z</time></trkpt><trkpt lat="43.401365" lon="10.4927633"><ele>17.666666666666668</ele><time>2026-05-01T10:04:18.726Z</time></trkpt><trkpt lat="43.401485" lon="10.4925867"><ele>18.333333333333332</ele><time>2026-05-01T10:04:19.728Z</time></trkpt><trkpt lat="43.401605" lon="10.4924083"><ele>19.0</ele><time>2026-05-01T10:04:20.728Z</time></trkpt><trkpt lat="43.4017267" lon="10.4922233"><ele>19.0</ele><time>2026-05-01T10:04:21.727Z</time></trkpt><trkpt lat="43.40185" lon="10.492035"><ele>19.0</ele><time>2026-05-01T10:04:22.728Z</time></trkpt><trkpt lat="43.4019733" lon="10.491845"><ele>19.0</ele><time>2026-05-01T10:04:23.729Z</time></trkpt><trkpt lat="43.4021017" lon="10.4916583"><ele>19.666666666666664</ele><time>2026-05-01T10:04:24.727Z</time></trkpt><trkpt lat="43.4022267" lon="10.491465"><ele>20.333333333333332</ele><time>2026-05-01T10:04:25.729Z</time></trkpt><trkpt lat="43.402355" lon="10.4912733"><ele>21.0</ele><time>2026-05-01T10:04:26.73Z</time></trkpt><trkpt lat="43.4024783" lon="10.49109"><ele>21.0</ele><time>2026-05-01T10:04:27.729Z</time></trkpt><trkpt lat="43.4025917" lon="10.4909133"><ele>21.0</ele><time>2026-05-01T10:04:28.728Z</time></trkpt><trkpt lat="43.4027083" lon="10.4907483"><ele>21.0</ele><time>2026-05-01T10:04:29.727Z</time></trkpt><trkpt lat="43.4028317" lon="10.490605"><ele>21.0</ele><time>2026-05-01T10:04:30.729Z</time></trkpt><trkpt lat="43.402975" lon="10.4904867"><ele>21.0</ele><time>2026-05-01T10:04:31.728Z</time></trkpt><trkpt lat="43.40313" lon="10.4904033"><ele>21.0</ele><time>2026-05-01T10:04:32.729Z</time></trkpt><trkpt lat="43.403295" lon="10.4903333"><ele>21.666666666666668</ele><time>2026-05-01T10:04:33.729Z</time></trkpt><trkpt lat="43.403465" lon="10.4902883"><ele>22.333333333333336</ele><time>2026-05-01T10:04:34.727Z</time></trkpt><trkpt lat="43.4036383" lon="10.4902517"><ele>23.0</ele><time>2026-05-01T10:04:35.729Z</time></trkpt><trkpt lat="43.403815" lon="10.490235"><ele>23.0</ele><time>2026-05-01T10:04:36.728Z</time></trkpt><trkpt lat="43.403985" lon="10.4902067"><ele>23.0</ele><time>2026-05-01T10:04:37.727Z</time></trkpt><trkpt lat="43.4041617" lon="10.490185"><ele>23.0</ele><time>2026-05-01T10:04:38.728Z</time></trkpt><trkpt lat="43.4043383" lon="10.490175"><ele>23.0</ele><time>2026-05-01T10:04:39.73Z</time></trkpt><trkpt lat="43.4045183" lon="10.4901833"><ele>23.0</ele><time>2026-05-01T10:04:40.729Z</time></trkpt><trkpt lat="43.40469" lon="10.4902017"><ele>23.0</ele><time>2026-05-01T10:04:41.727Z</time></trkpt><trkpt lat="43.4048633" lon="10.4902317"><ele>23.666666666666668</ele><time>2026-05-01T10:04:42.728Z</time></trkpt><trkpt lat="43.4050317" lon="10.4902817"><ele>24.333333333333336</ele><time>2026-05-01T10:04:43.727Z</time></trkpt><trkpt lat="43.4052017" lon="10.4903433"><ele>25.0</ele><time>2026-05-01T10:04:44.729Z</time></trkpt><trkpt lat="43.4053683" lon="10.4904067"><ele>26.333333333333336</ele><time>2026-05-01T10:04:45.727Z</time></trkpt><trkpt lat="43.4055267" lon="10.490475"><ele>27.666666666666664</ele><time>2026-05-01T10:04:46.729Z</time></trkpt><trkpt lat="43.4056833" lon="10.4905517"><ele>29.0</ele><time>2026-05-01T10:04:47.727Z</time></trkpt><trkpt lat="43.40583" lon="10.4906183"><ele>29.0</ele><time>2026-05-01T10:04:48.728Z</time></trkpt><trkpt lat="43.4059583" lon="10.4906917"><ele>29.0</ele><time>2026-05-01T10:04:49.729Z</time></trkpt><trkpt lat="43.406085" lon="10.490745"><ele>29.0</ele><time>2026-05-01T10:04:50.728Z</time></trkpt><trkpt lat="43.4062167" lon="10.4908"><ele>29.0</ele><time>2026-05-01T10:04:51.728Z</time></trkpt><trkpt lat="43.4063317" lon="10.49086"><ele>27.75</ele><time>2026-05-01T10:04:52.727Z</time></trkpt><trkpt lat="43.4064517" lon="10.4909067"><ele>26.5</ele><time>2026-05-01T10:04:53.728Z</time></trkpt><trkpt lat="43.40657" lon="10.49095"><ele>25.25</ele><time>2026-05-01T10:04:54.73Z</time></trkpt><trkpt lat="43.40668" lon="10.49099"><ele>24.0</ele><time>2026-05-01T10:04:55.728Z</time></trkpt><trkpt lat="43.4067667" lon="10.49102"><ele>24.0</ele><time>2026-05-01T10:04:56.728Z</time></trkpt><trkpt lat="43.406845" lon="10.4910417"><ele>24.0</ele><time>2026-05-01T10:04:57.729Z</time></trkpt><trkpt lat="43.4069083" lon="10.4910517"><ele>24.0</ele><time>2026-05-01T10:04:58.728Z</time></trkpt><trkpt lat="43.406935" lon="10.49096"><ele>24.0</ele><time>2026-05-01T10:04:59.728Z</time></trkpt><trkpt lat="43.406945" lon="10.49085"><ele>24.0</ele><time>2026-05-01T10:05:00.728Z</time></trkpt><trkpt lat="43.4069467" lon="10.490725"><ele>24.0</ele><time>2026-05-01T10:05:01.728Z</time></trkpt><trkpt lat="43.4069433" lon="10.4905917"><ele>26.0</ele><time>2026-05-01T10:05:02.728Z</time></trkpt><trkpt lat="43.4069467" lon="10.4904217"><ele>28.0</ele><time>2026-05-01T10:05:03.728Z</time></trkpt><trkpt lat="43.4069367" lon="10.4902483"><ele>30.0</ele><time>2026-05-01T10:05:04.728Z</time></trkpt><trkpt lat="43.4069083" lon="10.49007"><ele>32.0</ele><time>2026-05-01T10:05:05.728Z</time></trkpt><trkpt lat="43.406855" lon="10.4898917"><ele>32.0</ele><time>2026-05-01T10:05:06.729Z</time></trkpt><trkpt lat="43.4067817" lon="10.4897333"><ele>32.0</ele><time>2026-05-01T10:05:07.728Z</time></trkpt><trkpt lat="43.40667" lon="10.4896"><ele>32.0</ele><time>2026-05-01T10:05:08.727Z</time></trkpt><trkpt lat="43.4065233" lon="10.489485"><ele>32.33333333333333</ele><time>2026-05-01T10:05:09.728Z</time></trkpt><trkpt lat="43.406365" lon="10.4893683"><ele>32.666666666666664</ele><time>2026-05-01T10:05:10.728Z</time></trkpt><trkpt lat="43.4062067" lon="10.489255"><ele>33.0</ele><time>2026-05-01T10:05:11.727Z</time></trkpt><trkpt lat="43.4060467" lon="10.4891433"><ele>33.0</ele><time>2026-05-01T10:05:12.727Z</time></trkpt><trkpt lat="43.4058767" lon="10.4890433"><ele>33.0</ele><time>2026-05-01T10:05:13.728Z</time></trkpt><trkpt lat="43.405695" lon="10.48897"><ele>33.0</ele><time>2026-05-01T10:05:14.728Z</time></trkpt><trkpt lat="43.40551" lon="10.4889133"><ele>32.0</ele><time>2026-05-01T10:05:15.728Z</time></trkpt><trkpt lat="43.4053233" lon="10.48887"><ele>31.0</ele><time>2026-05-01T10:05:16.727Z</time></trkpt><trkpt lat="43.4051183" lon="10.48886"><ele>30.0</ele><time>2026-05-01T10:05:17.728Z</time></trkpt><trkpt lat="43.4049217" lon="10.4888417"><ele>30.0</ele><time>2026-05-01T10:05:18.727Z</time></trkpt><trkpt lat="43.404725" lon="10.4888433"><ele>30.0</ele><time>2026-05-01T10:05:19.728Z</time></trkpt><trkpt lat="43.40451" lon="10.4888617"><ele>30.0</ele><time>2026-05-01T10:05:20.728Z</time></trkpt><trkpt lat="43.4042967" lon="10.4888733"><ele>31.0</ele><time>2026-05-01T10:05:21.728Z</time></trkpt><trkpt lat="43.404095" lon="10.4888833"><ele>32.0</ele><time>2026-05-01T10:05:22.728Z</time></trkpt><trkpt lat="43.40391" lon="10.4889"><ele>33.0</ele><time>2026-05-01T10:05:23.729Z</time></trkpt><trkpt lat="43.403735" lon="10.4889117"><ele>33.0</ele><time>2026-05-01T10:05:24.728Z</time></trkpt><trkpt lat="43.4035783" lon="10.4888767"><ele>33.0</ele><time>2026-05-01T10:05:25.728Z</time></trkpt><trkpt lat="43.4034283" lon="10.4888117"><ele>33.0</ele><time>2026-05-01T10:05:26.728Z</time></trkpt><trkpt lat="43.4032817" lon="10.4887317"><ele>41.0</ele><time>2026-05-01T10:05:27.728Z</time></trkpt><trkpt lat="43.4031367" lon="10.4886283"><ele>49.0</ele><time>2026-05-01T10:05:28.727Z</time></trkpt><trkpt lat="43.4029833" lon="10.488555"><ele>57.0</ele><time>2026-05-01T10:05:29.728Z</time></trkpt><trkpt lat="43.4028217" lon="10.4885083"><ele>57.0</ele><time>2026-05-01T10:05:30.729Z</time></trkpt><trkpt lat="43.4026633" lon="10.4884867"><ele>57.0</ele><time>2026-05-01T10:05:31.727Z</time></trkpt><trkpt lat="43.402515" lon="10.4885233"><ele>57.0</ele><time>2026-05-01T10:05:32.728Z</time></trkpt><trkpt lat="43.4023833" lon="10.488565"><ele>57.0</ele><time>2026-05-01T10:05:33.728Z</time></trkpt><trkpt lat="43.4022633" lon="10.4886467"><ele>58.33333333333333</ele><time>2026-05-01T10:05:34.727Z</time></trkpt><trkpt lat="43.4021467" lon="10.4887417"><ele>59.666666666666664</ele><time>2026-05-01T10:05:35.728Z</time></trkpt><trkpt lat="43.4020467" lon="10.4889233"><ele>61.0</ele><time>2026-05-01T10:05:36.728Z</time></trkpt><trkpt lat="43.4019417" lon="10.4891033"><ele>61.0</ele><time>2026-05-01T10:05:37.728Z</time></trkpt><trkpt lat="43.40182" lon="10.4892683"><ele>61.0</ele><time>2026-05-01T10:05:38.727Z</time></trkpt><trkpt lat="43.4016767" lon="10.4894167"><ele>61.0</ele><time>2026-05-01T10:05:39.728Z</time></trkpt><trkpt lat="43.4015217" lon="10.48953"><ele>58.0</ele><time>2026-05-01T10:05:40.728Z</time></trkpt><trkpt lat="43.4013683" lon="10.48966"><ele>55.0</ele><time>2026-05-01T10:05:41.728Z</time></trkpt><trkpt lat="43.401205" lon="10.4897633"><ele>52.0</ele><time>2026-05-01T10:05:42.728Z</time></trkpt><trkpt lat="43.401035" lon="10.48983"><ele>52.0</ele><time>2026-05-01T10:05:43.728Z</time></trkpt><trkpt lat="43.40086" lon="10.489875"><ele>52.0</ele><time>2026-05-01T10:05:44.728Z</time></trkpt><trkpt lat="43.4006933" lon="10.489885"><ele>52.0</ele><time>2026-05-01T10:05:45.728Z</time></trkpt><trkpt lat="43.40051" lon="10.489905"><ele>51.0</ele><time>2026-05-01T10:05:46.729Z</time></trkpt><trkpt lat="43.4003483" lon="10.4899167"><ele>50.0</ele><time>2026-05-01T10:05:47.728Z</time></trkpt><trkpt lat="43.4002067" lon="10.4898917"><ele>49.0</ele><time>2026-05-01T10:05:48.728Z</time></trkpt><trkpt lat="43.4000767" lon="10.48984"><ele>48.0</ele><time>2026-05-01T10:05:49.728Z</time></trkpt><trkpt lat="43.39995" lon="10.489745"><ele>48.0</ele><time>2026-05-01T10:05:50.729Z</time></trkpt><trkpt lat="43.3998233" lon="10.489635"><ele>48.0</ele><time>2026-05-01T10:05:51.728Z</time></trkpt><trkpt lat="43.3997033" lon="10.489485"><ele>48.0</ele><time>2026-05-01T10:05:52.727Z</time></trkpt><trkpt lat="43.3995617" lon="10.4893283"><ele>49.66666666666667</ele><time>2026-05-01T10:05:53.726Z</time></trkpt><trkpt lat="43.3994067" lon="10.48916"><ele>51.333333333333336</ele><time>2026-05-01T10:05:54.728Z</time></trkpt><trkpt lat="43.3992517" lon="10.488995"><ele>53.0</ele><time>2026-05-01T10:05:55.728Z</time></trkpt><trkpt lat="43.3990983" lon="10.4888233"><ele>53.66666666666667</ele><time>2026-05-01T10:05:56.728Z</time></trkpt><trkpt lat="43.3989467" lon="10.4886533"><ele>54.33333333333333</ele><time>2026-05-01T10:05:57.73Z</time></trkpt><trkpt lat="43.39881" lon="10.4884767"><ele>55.0</ele><time>2026-05-01T10:05:58.73Z</time></trkpt><trkpt lat="43.3987" lon="10.48829"><ele>53.666666666666664</ele><time>2026-05-01T10:05:59.729Z</time></trkpt><trkpt lat="43.39862" lon="10.48809"><ele>52.33333333333333</ele><time>2026-05-01T10:06:00.73Z</time></trkpt><trkpt lat="43.3985717" lon="10.4878833"><ele>51.0</ele><time>2026-05-01T10:06:01.729Z</time></trkpt><trkpt lat="43.3985633" lon="10.487675"><ele>50.5</ele><time>2026-05-01T10:06:02.729Z</time></trkpt><trkpt lat="43.39858" lon="10.4874733"><ele>50.0</ele><time>2026-05-01T10:06:03.73Z</time></trkpt><trkpt lat="43.39863" lon="10.487285"><ele>49.5</ele><time>2026-05-01T10:06:04.729Z</time></trkpt><trkpt lat="43.3987" lon="10.4871033"><ele>49.0</ele><time>2026-05-01T10:06:05.729Z</time></trkpt><trkpt lat="43.398785" lon="10.4869333"><ele>53.33333333333333</ele><time>2026-05-01T10:06:06.729Z</time></trkpt><trkpt lat="43.3988783" lon="10.4867833"><ele>57.66666666666667</ele><time>2026-05-01T10:06:07.73Z</time></trkpt><trkpt lat="43.39899" lon="10.486625"><ele>62.0</ele><time>2026-05-01T10:06:08.729Z</time></trkpt><trkpt lat="43.3991133" lon="10.486465"><ele>62.0</ele><time>2026-05-01T10:06:09.728Z</time></trkpt><trkpt lat="43.3992467" lon="10.4863117"><ele>62.0</ele><time>2026-05-01T10:06:10.729Z</time></trkpt><trkpt lat="43.39938" lon="10.4861667"><ele>62.0</ele><time>2026-05-01T10:06:11.729Z</time></trkpt><trkpt lat="43.3995083" lon="10.4860217"><ele>61.333333333333336</ele><time>2026-05-01T10:06:12.728Z</time></trkpt><trkpt lat="43.39962" lon="10.485865"><ele>60.66666666666667</ele><time>2026-05-01T10:06:13.729Z</time></trkpt><trkpt lat="43.3997117" lon="10.4856783"><ele>60.0</ele><time>2026-05-01T10:06:14.728Z</time></trkpt><trkpt lat="43.3997867" lon="10.485455"><ele>65.0</ele><time>2026-05-01T10:06:15.729Z</time></trkpt><trkpt lat="43.39985" lon="10.4852233"><ele>70.0</ele><time>2026-05-01T10:06:16.73Z</time></trkpt><trkpt lat="43.399905" lon="10.48497"><ele>75.0</ele><time>2026-05-01T10:06:17.729Z</time></trkpt><trkpt lat="43.3999617" lon="10.4847117"><ele>74.33333333333333</ele><time>2026-05-01T10:06:18.729Z</time></trkpt><trkpt lat="43.4000267" lon="10.48446"><ele>73.66666666666666</ele><time>2026-05-01T10:06:19.729Z</time></trkpt><trkpt lat="43.4001117" lon="10.4842283"><ele>73.0</ele><time>2026-05-01T10:06:20.73Z</time></trkpt><trkpt lat="43.4002" lon="10.4840033"><ele>73.0</ele><time>2026-05-01T10:06:21.73Z</time></trkpt><trkpt lat="43.40029" lon="10.4837833"><ele>73.0</ele><time>2026-05-01T10:06:22.73Z</time></trkpt><trkpt lat="43.40038" lon="10.4835517"><ele>73.0</ele><time>2026-05-01T10:06:23.728Z</time></trkpt><trkpt lat="43.4004633" lon="10.483315"><ele>75.66666666666666</ele><time>2026-05-01T10:06:24.728Z</time></trkpt><trkpt lat="43.4005333" lon="10.48307"><ele>78.33333333333333</ele><time>2026-05-01T10:06:25.729Z</time></trkpt><trkpt lat="43.4005983" lon="10.482815"><ele>81.0</ele><time>2026-05-01T10:06:26.729Z</time></trkpt><trkpt lat="43.40066" lon="10.4825417"><ele>81.0</ele><time>2026-05-01T10:06:27.729Z</time></trkpt><trkpt lat="43.40072" lon="10.4822667"><ele>81.0</ele><time>2026-05-01T10:06:28.729Z</time></trkpt><trkpt lat="43.400775" lon="10.4819933"><ele>81.0</ele><time>2026-05-01T10:06:29.73Z</time></trkpt><trkpt lat="43.4008267" lon="10.4817183"><ele>81.0</ele><time>2026-05-01T10:06:30.729Z</time></trkpt><trkpt lat="43.4008817" lon="10.48144"><ele>81.0</ele><time>2026-05-01T10:06:31.728Z</time></trkpt><trkpt lat="43.4009417" lon="10.481155"><ele>81.0</ele><time>2026-05-01T10:06:32.73Z</time></trkpt><trkpt lat="43.4010033" lon="10.48086"><ele>81.0</ele><time>2026-05-01T10:06:33.73Z</time></trkpt><trkpt lat="43.4010667" lon="10.480575"><ele>81.0</ele><time>2026-05-01T10:06:34.729Z</time></trkpt><trkpt lat="43.4011333" lon="10.4803033"><ele>81.0</ele><time>2026-05-01T10:06:35.73Z</time></trkpt><trkpt lat="43.4011933" lon="10.4800383"><ele>80.66666666666667</ele><time>2026-05-01T10:06:36.73Z</time></trkpt><trkpt lat="43.4012483" lon="10.4797867"><ele>80.33333333333334</ele><time>2026-05-01T10:06:37.729Z</time></trkpt><trkpt lat="43.4012983" lon="10.4795467"><ele>80.0</ele><time>2026-05-01T10:06:38.729Z</time></trkpt><trkpt lat="43.4013517" lon="10.4793183"><ele>81.0</ele><time>2026-05-01T10:06:39.73Z</time></trkpt><trkpt lat="43.4014067" lon="10.479085"><ele>82.0</ele><time>2026-05-01T10:06:40.73Z</time></trkpt><trkpt lat="43.4014567" lon="10.4788783"><ele>83.0</ele><time>2026-05-01T10:06:41.729Z</time></trkpt><trkpt lat="43.4015133" lon="10.478695"><ele>83.0</ele><time>2026-05-01T10:06:42.73Z</time></trkpt><trkpt lat="43.4015917" lon="10.47854"><ele>83.0</ele><time>2026-05-01T10:06:43.729Z</time></trkpt><trkpt lat="43.4016933" lon="10.4784133"><ele>83.0</ele><time>2026-05-01T10:06:44.729Z</time></trkpt><trkpt lat="43.4018083" lon="10.4783017"><ele>83.0</ele><time>2026-05-01T10:06:45.73Z</time></trkpt><trkpt lat="43.4019617" lon="10.4782333"><ele>83.0</ele><time>2026-05-01T10:06:46.73Z</time></trkpt><trkpt lat="43.4021133" lon="10.478175"><ele>83.0</ele><time>2026-05-01T10:06:47.729Z</time></trkpt><trkpt lat="43.4022633" lon="10.478155"><ele>83.0</ele><time>2026-05-01T10:06:48.73Z</time></trkpt><trkpt lat="43.4024017" lon="10.47819"><ele>83.0</ele><time>2026-05-01T10:06:49.73Z</time></trkpt><trkpt lat="43.4025117" lon="10.478225"><ele>85.16666666666667</ele><time>2026-05-01T10:06:50.728Z</time></trkpt><trkpt lat="43.4026083" lon="10.4782517"><ele>87.33333333333334</ele><time>2026-05-01T10:06:51.73Z</time></trkpt><trkpt lat="43.4026883" lon="10.4782433"><ele>89.5</ele><time>2026-05-01T10:06:52.73Z</time></trkpt><trkpt lat="43.4027667" lon="10.4782183"><ele>91.66666666666667</ele><time>2026-05-01T10:06:53.729Z</time></trkpt><trkpt lat="43.40284" lon="10.47819"><ele>93.83333333333333</ele><time>2026-05-01T10:06:54.729Z</time></trkpt><trkpt lat="43.4028483" lon="10.4780417"><ele>96.0</ele><time>2026-05-01T10:06:55.728Z</time></trkpt><trkpt lat="43.4028467" lon="10.477915"><ele>96.0</ele><time>2026-05-01T10:06:56.729Z</time></trkpt><trkpt lat="43.4028267" lon="10.4777767"><ele>96.0</ele><time>2026-05-01T10:06:57.73Z</time></trkpt><trkpt lat="43.402765" lon="10.47765"><ele>96.0</ele><time>2026-05-01T10:06:58.729Z</time></trkpt><trkpt lat="43.402685" lon="10.4775383"><ele>96.0</ele><time>2026-05-01T10:06:59.729Z</time></trkpt><trkpt lat="43.4025817" lon="10.4774617"><ele>96.0</ele><time>2026-05-01T10:07:00.73Z</time></trkpt><trkpt lat="43.4024383" lon="10.4774133"><ele>96.0</ele><time>2026-05-01T10:07:01.73Z</time></trkpt><trkpt lat="43.40228" lon="10.477375"><ele>96.0</ele><time>2026-05-01T10:07:02.729Z</time></trkpt><trkpt lat="43.4021267" lon="10.47733"><ele>96.0</ele><time>2026-05-01T10:07:03.729Z</time></trkpt><trkpt lat="43.4019733" lon="10.4772967"><ele>93.66666666666667</ele><time>2026-05-01T10:07:04.728Z</time></trkpt><trkpt lat="43.4018217" lon="10.477275"><ele>91.33333333333334</ele><time>2026-05-01T10:07:05.729Z</time></trkpt><trkpt lat="43.4016633" lon="10.4772733"><ele>89.0</ele><time>2026-05-01T10:07:06.729Z</time></trkpt><trkpt lat="43.4015217" lon="10.4772567"><ele>89.0</ele><time>2026-05-01T10:07:07.729Z</time></trkpt><trkpt lat="43.4013933" lon="10.4772133"><ele>89.0</ele><time>2026-05-01T10:07:08.73Z</time></trkpt><trkpt lat="43.40127" lon="10.4771333"><ele>89.0</ele><time>2026-05-01T10:07:09.73Z</time></trkpt><trkpt lat="43.4011517" lon="10.4770467"><ele>89.0</ele><time>2026-05-01T10:07:10.73Z</time></trkpt><trkpt lat="43.4010667" lon="10.4769017"><ele>89.0</ele><time>2026-05-01T10:07:11.729Z</time></trkpt><trkpt lat="43.401005" lon="10.476725"><ele>89.0</ele><time>2026-05-01T10:07:12.728Z</time></trkpt><trkpt lat="43.4009733" lon="10.4765383"><ele>89.0</ele><time>2026-05-01T10:07:13.73Z</time></trkpt><trkpt lat="43.4009717" lon="10.47635"><ele>89.0</ele><time>2026-05-01T10:07:14.73Z</time></trkpt><trkpt lat="43.4009783" lon="10.476155"><ele>89.66666666666667</ele><time>2026-05-01T10:07:15.729Z</time></trkpt><trkpt lat="43.4009917" lon="10.4759567"><ele>90.33333333333333</ele><time>2026-05-01T10:07:16.73Z</time></trkpt><trkpt lat="43.4010133" lon="10.4757433"><ele>91.0</ele><time>2026-05-01T10:07:17.729Z</time></trkpt><trkpt lat="43.4010333" lon="10.475525"><ele>90.0</ele><time>2026-05-01T10:07:18.73Z</time></trkpt><trkpt lat="43.40105" lon="10.4753067"><ele>89.0</ele><time>2026-05-01T10:07:19.73Z</time></trkpt><trkpt lat="43.40107" lon="10.47509"><ele>88.0</ele><time>2026-05-01T10:07:20.729Z</time></trkpt><trkpt lat="43.401085" lon="10.4748683"><ele>88.0</ele><time>2026-05-01T10:07:21.727Z</time></trkpt><trkpt lat="43.4011033" lon="10.4746417"><ele>88.0</ele><time>2026-05-01T10:07:22.73Z</time></trkpt><trkpt lat="43.40112" lon="10.4744117"><ele>88.0</ele><time>2026-05-01T10:07:23.729Z</time></trkpt><trkpt lat="43.4011333" lon="10.4741767"><ele>86.66666666666666</ele><time>2026-05-01T10:07:24.73Z</time></trkpt><trkpt lat="43.4011467" lon="10.4739367"><ele>85.33333333333333</ele><time>2026-05-01T10:07:25.728Z</time></trkpt><trkpt lat="43.4011517" lon="10.473695"><ele>84.0</ele><time>2026-05-01T10:07:26.732Z</time></trkpt><trkpt lat="43.4011533" lon="10.4734467"><ele>83.0</ele><time>2026-05-01T10:07:27.73Z</time></trkpt><trkpt lat="43.40115" lon="10.4732067"><ele>82.0</ele><time>2026-05-01T10:07:28.729Z</time></trkpt><trkpt lat="43.4011367" lon="10.4729717"><ele>81.0</ele><time>2026-05-01T10:07:29.73Z</time></trkpt><trkpt lat="43.4011267" lon="10.4727483"><ele>80.75</ele><time>2026-05-01T10:07:30.73Z</time></trkpt><trkpt lat="43.4011183" lon="10.4725333"><ele>80.5</ele><time>2026-05-01T10:07:31.728Z</time></trkpt><trkpt lat="43.4011067" lon="10.4723267"><ele>80.25</ele><time>2026-05-01T10:07:32.73Z</time></trkpt><trkpt lat="43.4010983" lon="10.4721383"><ele>80.0</ele><time>2026-05-01T10:07:33.729Z</time></trkpt><trkpt lat="43.4010967" lon="10.4719667"><ele>79.6</ele><time>2026-05-01T10:07:34.728Z</time></trkpt><trkpt lat="43.4010933" lon="10.4718167"><ele>79.2</ele><time>2026-05-01T10:07:35.727Z</time></trkpt><trkpt lat="43.4010917" lon="10.47168"><ele>78.8</ele><time>2026-05-01T10:07:36.729Z</time></trkpt><trkpt lat="43.4010967" lon="10.4715483"><ele>78.4</ele><time>2026-05-01T10:07:37.728Z</time></trkpt><trkpt lat="43.4011217" lon="10.4714133"><ele>78.0</ele><time>2026-05-01T10:07:38.728Z</time></trkpt><trkpt lat="43.4011667" lon="10.47128"><ele>78.0</ele><time>2026-05-01T10:07:39.728Z</time></trkpt><trkpt lat="43.40122" lon="10.4711483"><ele>78.0</ele><time>2026-05-01T10:07:40.727Z</time></trkpt><trkpt lat="43.4012817" lon="10.4710217"><ele>78.0</ele><time>2026-05-01T10:07:41.729Z</time></trkpt><trkpt lat="43.4013433" lon="10.470905"><ele>78.0</ele><time>2026-05-01T10:07:42.728Z</time></trkpt><trkpt lat="43.4014" lon="10.4708167"><ele>78.0</ele><time>2026-05-01T10:07:43.728Z</time></trkpt><trkpt lat="43.40145" lon="10.4707517"><ele>78.4</ele><time>2026-05-01T10:07:44.73Z</time></trkpt><trkpt lat="43.4015183" lon="10.4706417"><ele>78.8</ele><time>2026-05-01T10:07:46.727Z</time></trkpt><trkpt lat="43.4015583" lon="10.470475"><ele>79.2</ele><time>2026-05-01T10:07:48.727Z</time></trkpt><trkpt lat="43.4015667" lon="10.47037"><ele>79.6</ele><time>2026-05-01T10:07:49.728Z</time></trkpt><trkpt lat="43.4015333" lon="10.47019"><ele>80.0</ele><time>2026-05-01T10:07:50.727Z</time></trkpt><trkpt lat="43.4015083" lon="10.4700283"><ele>80.0</ele><time>2026-05-01T10:07:51.729Z</time></trkpt><trkpt lat="43.4014767" lon="10.4698383"><ele>80.0</ele><time>2026-05-01T10:07:52.728Z</time></trkpt><trkpt lat="43.4014467" lon="10.4696333"><ele>80.0</ele><time>2026-05-01T10:07:53.727Z</time></trkpt><trkpt lat="43.401435" lon="10.469415"><ele>79.33333333333334</ele><time>2026-05-01T10:07:54.727Z</time></trkpt><trkpt lat="43.401425" lon="10.4691917"><ele>78.66666666666667</ele><time>2026-05-01T10:07:55.728Z</time></trkpt><trkpt lat="43.4014417" lon="10.4689633"><ele>78.0</ele><time>2026-05-01T10:07:56.728Z</time></trkpt><trkpt lat="43.4014633" lon="10.4687483"><ele>77.25</ele><time>2026-05-01T10:07:57.729Z</time></trkpt><trkpt lat="43.4015033" lon="10.4685517"><ele>76.5</ele><time>2026-05-01T10:07:58.728Z</time></trkpt><trkpt lat="43.4015517" lon="10.4683683"><ele>75.75</ele><time>2026-05-01T10:07:59.728Z</time></trkpt><trkpt lat="43.4016333" lon="10.4682083"><ele>75.0</ele><time>2026-05-01T10:08:00.729Z</time></trkpt><trkpt lat="43.40174" lon="10.4680667"><ele>73.33333333333333</ele><time>2026-05-01T10:08:01.727Z</time></trkpt><trkpt lat="43.4018683" lon="10.4679417"><ele>71.66666666666666</ele><time>2026-05-01T10:08:02.728Z</time></trkpt><trkpt lat="43.4019983" lon="10.46782"><ele>70.0</ele><time>2026-05-01T10:08:03.727Z</time></trkpt><trkpt lat="43.4021317" lon="10.467695"><ele>71.0</ele><time>2026-05-01T10:08:04.727Z</time></trkpt><trkpt lat="43.402265" lon="10.467575"><ele>72.0</ele><time>2026-05-01T10:08:05.727Z</time></trkpt><trkpt lat="43.4023917" lon="10.46746"><ele>73.0</ele><time>2026-05-01T10:08:06.728Z</time></trkpt><trkpt lat="43.4025" lon="10.4673367"><ele>73.0</ele><time>2026-05-01T10:08:07.728Z</time></trkpt><trkpt lat="43.402615" lon="10.46722"><ele>73.0</ele><time>2026-05-01T10:08:08.728Z</time></trkpt><trkpt lat="43.4027117" lon="10.4670817"><ele>73.0</ele><time>2026-05-01T10:08:09.727Z</time></trkpt><trkpt lat="43.40279" lon="10.4669183"><ele>73.0</ele><time>2026-05-01T10:08:10.726Z</time></trkpt><trkpt lat="43.4028433" lon="10.4667333"><ele>72.5</ele><time>2026-05-01T10:08:11.728Z</time></trkpt><trkpt lat="43.4028533" lon="10.46654"><ele>72.0</ele><time>2026-05-01T10:08:12.729Z</time></trkpt><trkpt lat="43.40284" lon="10.4663567"><ele>71.5</ele><time>2026-05-01T10:08:13.728Z</time></trkpt><trkpt lat="43.4028117" lon="10.4661683"><ele>71.0</ele><time>2026-05-01T10:08:14.729Z</time></trkpt><trkpt lat="43.4027883" lon="10.4659933"><ele>71.75</ele><time>2026-05-01T10:08:15.726Z</time></trkpt><trkpt lat="43.4027633" lon="10.465825"><ele>72.5</ele><time>2026-05-01T10:08:16.727Z</time></trkpt><trkpt lat="43.40274" lon="10.46566"><ele>73.25</ele><time>2026-05-01T10:08:17.727Z</time></trkpt><trkpt lat="43.4027217" lon="10.4655"><ele>74.0</ele><time>2026-05-01T10:08:18.73Z</time></trkpt><trkpt lat="43.4027167" lon="10.4653283"><ele>74.0</ele><time>2026-05-01T10:08:19.727Z</time></trkpt><trkpt lat="43.40272" lon="10.4651483"><ele>74.0</ele><time>2026-05-01T10:08:20.727Z</time></trkpt><trkpt lat="43.4027333" lon="10.4649683"><ele>74.0</ele><time>2026-05-01T10:08:21.727Z</time></trkpt><trkpt lat="43.402755" lon="10.4647933"><ele>74.0</ele><time>2026-05-01T10:08:22.729Z</time></trkpt><trkpt lat="43.402785" lon="10.4646267"><ele>73.5</ele><time>2026-05-01T10:08:23.726Z</time></trkpt><trkpt lat="43.40282" lon="10.464465"><ele>73.0</ele><time>2026-05-01T10:08:24.729Z</time></trkpt><trkpt lat="43.4028483" lon="10.4643"><ele>72.5</ele><time>2026-05-01T10:08:25.726Z</time></trkpt><trkpt lat="43.40287" lon="10.4641283"><ele>72.0</ele><time>2026-05-01T10:08:26.726Z</time></trkpt><trkpt lat="43.402885" lon="10.4639533"><ele>71.5</ele><time>2026-05-01T10:08:27.726Z</time></trkpt><trkpt lat="43.4028717" lon="10.46377"><ele>71.0</ele><time>2026-05-01T10:08:28.727Z</time></trkpt><trkpt lat="43.4028533" lon="10.463585"><ele>70.5</ele><time>2026-05-01T10:08:29.73Z</time></trkpt><trkpt lat="43.4028217" lon="10.4634117"><ele>70.0</ele><time>2026-05-01T10:08:30.728Z</time></trkpt><trkpt lat="43.4027867" lon="10.4632317"><ele>70.0</ele><time>2026-05-01T10:08:31.727Z</time></trkpt><trkpt lat="43.40275" lon="10.4630533"><ele>70.0</ele><time>2026-05-01T10:08:32.726Z</time></trkpt><trkpt lat="43.40271" lon="10.4628667"><ele>70.0</ele><time>2026-05-01T10:08:33.726Z</time></trkpt><trkpt lat="43.40266" lon="10.4626867"><ele>70.0</ele><time>2026-05-01T10:08:34.727Z</time></trkpt><trkpt lat="43.40261" lon="10.462505"><ele>69.75</ele><time>2026-05-01T10:08:35.727Z</time></trkpt><trkpt lat="43.4025367" lon="10.46234"><ele>69.5</ele><time>2026-05-01T10:08:36.727Z</time></trkpt><trkpt lat="43.4024533" lon="10.46218"><ele>69.25</ele><time>2026-05-01T10:08:37.727Z</time></trkpt><trkpt lat="43.402355" lon="10.4620267"><ele>69.0</ele><time>2026-05-01T10:08:38.727Z</time></trkpt><trkpt lat="43.4022533" lon="10.4618667"><ele>68.25</ele><time>2026-05-01T10:08:39.727Z</time></trkpt><trkpt lat="43.4021617" lon="10.461705"><ele>67.5</ele><time>2026-05-01T10:08:40.727Z</time></trkpt><trkpt lat="43.4020717" lon="10.4615567"><ele>66.75</ele><time>2026-05-01T10:08:41.728Z</time></trkpt><trkpt lat="43.4019833" lon="10.4614067"><ele>66.0</ele><time>2026-05-01T10:08:42.726Z</time></trkpt><trkpt lat="43.40189" lon="10.461255"><ele>66.0</ele><time>2026-05-01T10:08:43.726Z</time></trkpt><trkpt lat="43.40179" lon="10.4610983"><ele>66.0</ele><time>2026-05-01T10:08:44.727Z</time></trkpt><trkpt lat="43.4016933" lon="10.460925"><ele>66.0</ele><time>2026-05-01T10:08:45.727Z</time></trkpt><trkpt lat="43.4015967" lon="10.4607517"><ele>66.0</ele><time>2026-05-01T10:08:46.727Z</time></trkpt><trkpt lat="43.4014967" lon="10.46059"><ele>66.0</ele><time>2026-05-01T10:08:47.726Z</time></trkpt><trkpt lat="43.401415" lon="10.46042"><ele>66.0</ele><time>2026-05-01T10:08:48.726Z</time></trkpt><trkpt lat="43.4013267" lon="10.4602567"><ele>64.5</ele><time>2026-05-01T10:08:49.726Z</time></trkpt><trkpt lat="43.4012383" lon="10.4600933"><ele>63.0</ele><time>2026-05-01T10:08:50.727Z</time></trkpt><trkpt lat="43.40115" lon="10.4599333"><ele>61.5</ele><time>2026-05-01T10:08:51.727Z</time></trkpt><trkpt lat="43.4010617" lon="10.459765"><ele>60.0</ele><time>2026-05-01T10:08:52.727Z</time></trkpt><trkpt lat="43.40097" lon="10.4595967"><ele>58.66666666666667</ele><time>2026-05-01T10:08:53.726Z</time></trkpt><trkpt lat="43.4008717" lon="10.4594317"><ele>57.333333333333336</ele><time>2026-05-01T10:08:54.727Z</time></trkpt><trkpt lat="43.40077" lon="10.4592633"><ele>56.0</ele><time>2026-05-01T10:08:55.727Z</time></trkpt><trkpt lat="43.4006683" lon="10.4590883"><ele>56.0</ele><time>2026-05-01T10:08:56.728Z</time></trkpt><trkpt lat="43.4005683" lon="10.4589117"><ele>56.0</ele><time>2026-05-01T10:08:57.726Z</time></trkpt><trkpt lat="43.4004667" lon="10.45874"><ele>56.0</ele><time>2026-05-01T10:08:58.727Z</time></trkpt><trkpt lat="43.400355" lon="10.45858"><ele>54.66666666666667</ele><time>2026-05-01T10:08:59.727Z</time></trkpt><trkpt lat="43.4002417" lon="10.458415"><ele>53.33333333333333</ele><time>2026-05-01T10:09:00.726Z</time></trkpt><trkpt lat="43.4001233" lon="10.4582633"><ele>52.0</ele><time>2026-05-01T10:09:01.727Z</time></trkpt><trkpt lat="43.4000083" lon="10.45811"><ele>51.666666666666664</ele><time>2026-05-01T10:09:02.726Z</time></trkpt><trkpt lat="43.3998917" lon="10.4579517"><ele>51.33333333333333</ele><time>2026-05-01T10:09:03.727Z</time></trkpt><trkpt lat="43.3997783" lon="10.4577933"><ele>51.0</ele><time>2026-05-01T10:09:04.727Z</time></trkpt><trkpt lat="43.3996717" lon="10.45763"><ele>51.0</ele><time>2026-05-01T10:09:05.727Z</time></trkpt><trkpt lat="43.3995617" lon="10.4574667"><ele>51.0</ele><time>2026-05-01T10:09:06.727Z</time></trkpt><trkpt lat="43.3994517" lon="10.4573117"><ele>51.0</ele><time>2026-05-01T10:09:07.727Z</time></trkpt><trkpt lat="43.3993417" lon="10.45716"><ele>50.75</ele><time>2026-05-01T10:09:08.728Z</time></trkpt><trkpt lat="43.39924" lon="10.4570117"><ele>50.5</ele><time>2026-05-01T10:09:09.727Z</time></trkpt><trkpt lat="43.39914" lon="10.4568733"><ele>50.25</ele><time>2026-05-01T10:09:10.727Z</time></trkpt><trkpt lat="43.39905" lon="10.4567433"><ele>50.0</ele><time>2026-05-01T10:09:11.727Z</time></trkpt><trkpt lat="43.3989633" lon="10.456625"><ele>50.00000000000001</ele><time>2026-05-01T10:09:12.727Z</time></trkpt><trkpt lat="43.3988883" lon="10.4565217"><ele>50.0</ele><time>2026-05-01T10:09:13.726Z</time></trkpt><trkpt lat="43.3988417" lon="10.4564183"><ele>50.0</ele><time>2026-05-01T10:09:14.728Z</time></trkpt><trkpt lat="43.39882" lon="10.4563117"><ele>50.0</ele><time>2026-05-01T10:09:15.728Z</time></trkpt><trkpt lat="43.3988067" lon="10.4562117"><ele>50.00000000000001</ele><time>2026-05-01T10:09:16.727Z</time></trkpt><trkpt lat="43.39881" lon="10.456105"><ele>50.0</ele><time>2026-05-01T10:09:17.727Z</time></trkpt><trkpt lat="43.398855" lon="10.4560183"><ele>49.8</ele><time>2026-05-01T10:09:18.727Z</time></trkpt><trkpt lat="43.3989133" lon="10.455945"><ele>49.6</ele><time>2026-05-01T10:09:19.728Z</time></trkpt><trkpt lat="43.3990133" lon="10.455895"><ele>49.400000000000006</ele><time>2026-05-01T10:09:20.727Z</time></trkpt><trkpt lat="43.3991083" lon="10.4558417"><ele>49.2</ele><time>2026-05-01T10:09:21.727Z</time></trkpt><trkpt lat="43.399195" lon="10.4557733"><ele>49.0</ele><time>2026-05-01T10:09:22.727Z</time></trkpt><trkpt lat="43.3992717" lon="10.4556917"><ele>49.0</ele><time>2026-05-01T10:09:23.726Z</time></trkpt><trkpt lat="43.3993317" lon="10.4555917"><ele>49.0</ele><time>2026-05-01T10:09:24.727Z</time></trkpt><trkpt lat="43.3993717" lon="10.4554833"><ele>49.0</ele><time>2026-05-01T10:09:25.727Z</time></trkpt><trkpt lat="43.3994017" lon="10.4553667"><ele>49.0</ele><time>2026-05-01T10:09:26.728Z</time></trkpt><trkpt lat="43.3994067" lon="10.4552467"><ele>49.0</ele><time>2026-05-01T10:09:27.728Z</time></trkpt><trkpt lat="43.399415" lon="10.4551217"><ele>49.0</ele><time>2026-05-01T10:09:28.727Z</time></trkpt><trkpt lat="43.3994033" lon="10.4549933"><ele>49.0</ele><time>2026-05-01T10:09:29.728Z</time></trkpt><trkpt lat="43.3993583" lon="10.454845"><ele>49.0</ele><time>2026-05-01T10:09:30.726Z</time></trkpt><trkpt lat="43.3993133" lon="10.454715"><ele>49.0</ele><time>2026-05-01T10:09:31.728Z</time></trkpt><trkpt lat="43.3992717" lon="10.4545867"><ele>49.0</ele><time>2026-05-01T10:09:32.728Z</time></trkpt><trkpt lat="43.3992317" lon="10.454455"><ele>49.0</ele><time>2026-05-01T10:09:33.726Z</time></trkpt><trkpt lat="43.39919" lon="10.4543217"><ele>49.0</ele><time>2026-05-01T10:09:34.727Z</time></trkpt><trkpt lat="43.3991483" lon="10.4541883"><ele>49.0</ele><time>2026-05-01T10:09:35.727Z</time></trkpt><trkpt lat="43.3991083" lon="10.4540467"><ele>49.0</ele><time>2026-05-01T10:09:36.726Z</time></trkpt><trkpt lat="43.399065" lon="10.4539083"><ele>49.0</ele><time>2026-05-01T10:09:37.727Z</time></trkpt><trkpt lat="43.3990167" lon="10.453765"><ele>49.0</ele><time>2026-05-01T10:09:38.727Z</time></trkpt><trkpt lat="43.3989783" lon="10.4536267"><ele>49.0</ele><time>2026-05-01T10:09:39.727Z</time></trkpt><trkpt lat="43.3989417" lon="10.453485"><ele>49.0</ele><time>2026-05-01T10:09:40.726Z</time></trkpt><trkpt lat="43.3989" lon="10.453345"><ele>49.0</ele><time>2026-05-01T10:09:41.728Z</time></trkpt><trkpt lat="43.3988583" lon="10.4532017"><ele>49.0</ele><time>2026-05-01T10:09:42.727Z</time></trkpt><trkpt lat="43.3988167" lon="10.4530567"><ele>48.0</ele><time>2026-05-01T10:09:43.728Z</time></trkpt><trkpt lat="43.398775" lon="10.45291"><ele>47.0</ele><time>2026-05-01T10:09:44.728Z</time></trkpt><trkpt lat="43.3987367" lon="10.452765"><ele>46.0</ele><time>2026-05-01T10:09:45.727Z</time></trkpt><trkpt lat="43.3986967" lon="10.452615"><ele>45.0</ele><time>2026-05-01T10:09:46.728Z</time></trkpt><trkpt lat="43.3986583" lon="10.4524567"><ele>45.0</ele><time>2026-05-01T10:09:47.728Z</time></trkpt><trkpt lat="43.3986217" lon="10.4523"><ele>45.0</ele><time>2026-05-01T10:09:48.728Z</time></trkpt><trkpt lat="43.3985867" lon="10.45213"><ele>45.0</ele><time>2026-05-01T10:09:49.727Z</time></trkpt><trkpt lat="43.3985533" lon="10.4519517"><ele>45.0</ele><time>2026-05-01T10:09:50.728Z</time></trkpt><trkpt lat="43.3985233" lon="10.45177"><ele>44.5</ele><time>2026-05-01T10:09:51.726Z</time></trkpt><trkpt lat="43.39849" lon="10.45159"><ele>44.0</ele><time>2026-05-01T10:09:52.728Z</time></trkpt><trkpt lat="43.3984583" lon="10.4514117"><ele>43.5</ele><time>2026-05-01T10:09:53.728Z</time></trkpt><trkpt lat="43.3984267" lon="10.451235"><ele>43.0</ele><time>2026-05-01T10:09:54.728Z</time></trkpt><trkpt lat="43.3984017" lon="10.451055"><ele>43.0</ele><time>2026-05-01T10:09:55.727Z</time></trkpt><trkpt lat="43.39837" lon="10.4508783"><ele>43.0</ele><time>2026-05-01T10:09:56.727Z</time></trkpt><trkpt lat="43.39834" lon="10.4507017"><ele>43.0</ele><time>2026-05-01T10:09:57.727Z</time></trkpt><trkpt lat="43.39831" lon="10.4505283"><ele>43.0</ele><time>2026-05-01T10:09:58.727Z</time></trkpt><trkpt lat="43.3982817" lon="10.4503583"><ele>42.25</ele><time>2026-05-01T10:09:59.726Z</time></trkpt><trkpt lat="43.3982567" lon="10.4501867"><ele>41.5</ele><time>2026-05-01T10:10:00.727Z</time></trkpt><trkpt lat="43.3982417" lon="10.4500183"><ele>40.75</ele><time>2026-05-01T10:10:01.728Z</time></trkpt><trkpt lat="43.39823" lon="10.44985"><ele>40.0</ele><time>2026-05-01T10:10:02.727Z</time></trkpt><trkpt lat="43.3982217" lon="10.449685"><ele>39.5</ele><time>2026-05-01T10:10:03.728Z</time></trkpt><trkpt lat="43.3982217" lon="10.4495183"><ele>39.0</ele><time>2026-05-01T10:10:04.728Z</time></trkpt><trkpt lat="43.3982133" lon="10.449355"><ele>38.5</ele><time>2026-05-01T10:10:05.727Z</time></trkpt><trkpt lat="43.3982067" lon="10.4491917"><ele>38.0</ele><time>2026-05-01T10:10:06.727Z</time></trkpt><trkpt lat="43.3982017" lon="10.44903"><ele>38.0</ele><time>2026-05-01T10:10:07.727Z</time></trkpt><trkpt lat="43.3981967" lon="10.4488683"><ele>38.0</ele><time>2026-05-01T10:10:08.726Z</time></trkpt><trkpt lat="43.398185" lon="10.448705"><ele>38.0</ele><time>2026-05-01T10:10:09.727Z</time></trkpt><trkpt lat="43.3981667" lon="10.44854"><ele>38.0</ele><time>2026-05-01T10:10:10.727Z</time></trkpt><trkpt lat="43.3981433" lon="10.4483783"><ele>37.5</ele><time>2026-05-01T10:10:11.728Z</time></trkpt><trkpt lat="43.3981183" lon="10.4482167"><ele>37.0</ele><time>2026-05-01T10:10:12.729Z</time></trkpt><trkpt lat="43.3980883" lon="10.4480533"><ele>36.5</ele><time>2026-05-01T10:10:13.73Z</time></trkpt><trkpt lat="43.39806" lon="10.4478933"><ele>36.0</ele><time>2026-05-01T10:10:14.73Z</time></trkpt><trkpt lat="43.3980367" lon="10.4477267"><ele>36.0</ele><time>2026-05-01T10:10:15.728Z</time></trkpt><trkpt lat="43.3980133" lon="10.4475667"><ele>36.0</ele><time>2026-05-01T10:10:16.728Z</time></trkpt><trkpt lat="43.397985" lon="10.4474167"><ele>36.0</ele><time>2026-05-01T10:10:17.729Z</time></trkpt><trkpt lat="43.3979617" lon="10.4472667"><ele>36.0</ele><time>2026-05-01T10:10:18.728Z</time></trkpt><trkpt lat="43.3979483" lon="10.4471217"><ele>36.0</ele><time>2026-05-01T10:10:19.729Z</time></trkpt><trkpt lat="43.3979417" lon="10.4469867"><ele>35.714285714285715</ele><time>2026-05-01T10:10:20.729Z</time></trkpt><trkpt lat="43.39795" lon="10.4468767"><ele>35.42857142857143</ele><time>2026-05-01T10:10:21.729Z</time></trkpt><trkpt lat="43.397965" lon="10.4467833"><ele>35.14285714285714</ele><time>2026-05-01T10:10:22.729Z</time></trkpt><trkpt lat="43.3979817" lon="10.4466917"><ele>34.85714285714286</ele><time>2026-05-01T10:10:23.728Z</time></trkpt><trkpt lat="43.3979967" lon="10.4465967"><ele>34.57142857142857</ele><time>2026-05-01T10:10:24.729Z</time></trkpt><trkpt lat="43.3980017" lon="10.44651"><ele>34.285714285714285</ele><time>2026-05-01T10:10:25.73Z</time></trkpt><trkpt lat="43.3979383" lon="10.4464233"><ele>34.0</ele><time>2026-05-01T10:10:27.729Z</time></trkpt><trkpt lat="43.3978233" lon="10.446435"><ele>33.6</ele><time>2026-05-01T10:10:29.728Z</time></trkpt><trkpt lat="43.3977617" lon="10.44649"><ele>33.2</ele><time>2026-05-01T10:10:30.729Z</time></trkpt><trkpt lat="43.3976833" lon="10.446585"><ele>32.800000000000004</ele><time>2026-05-01T10:10:31.728Z</time></trkpt><trkpt lat="43.3975983" lon="10.4466983"><ele>32.4</ele><time>2026-05-01T10:10:32.728Z</time></trkpt><trkpt lat="43.39751" lon="10.44681"><ele>32.0</ele><time>2026-05-01T10:10:33.729Z</time></trkpt><trkpt lat="43.397425" lon="10.4469167"><ele>32.0</ele><time>2026-05-01T10:10:34.728Z</time></trkpt><trkpt lat="43.39734" lon="10.4470267"><ele>32.0</ele><time>2026-05-01T10:10:35.729Z</time></trkpt><trkpt lat="43.3972517" lon="10.4471383"><ele>32.0</ele><time>2026-05-01T10:10:36.729Z</time></trkpt><trkpt lat="43.39716" lon="10.4472633"><ele>32.0</ele><time>2026-05-01T10:10:37.729Z</time></trkpt><trkpt lat="43.397065" lon="10.447375"><ele>31.6</ele><time>2026-05-01T10:10:38.73Z</time></trkpt><trkpt lat="43.396975" lon="10.4474783"><ele>31.200000000000003</ele><time>2026-05-01T10:10:39.729Z</time></trkpt><trkpt lat="43.396895" lon="10.447565"><ele>30.8</ele><time>2026-05-01T10:10:40.731Z</time></trkpt><trkpt lat="43.3968217" lon="10.447645"><ele>30.4</ele><time>2026-05-01T10:10:41.73Z</time></trkpt><trkpt lat="43.3967483" lon="10.44773"><ele>30.0</ele><time>2026-05-01T10:10:42.729Z</time></trkpt><trkpt lat="43.3966717" lon="10.4478167"><ele>30.0</ele><time>2026-05-01T10:10:43.728Z</time></trkpt><trkpt lat="43.3965933" lon="10.4479067"><ele>30.0</ele><time>2026-05-01T10:10:44.729Z</time></trkpt><trkpt lat="43.3965083" lon="10.4479933"><ele>30.0</ele><time>2026-05-01T10:10:45.729Z</time></trkpt><trkpt lat="43.3964133" lon="10.44807"><ele>30.0</ele><time>2026-05-01T10:10:46.729Z</time></trkpt><trkpt lat="43.3963167" lon="10.4481433"><ele>30.0</ele><time>2026-05-01T10:10:47.729Z</time></trkpt><trkpt lat="43.3962183" lon="10.4482017"><ele>30.0</ele><time>2026-05-01T10:10:48.728Z</time></trkpt><trkpt lat="43.39612" lon="10.4482667"><ele>30.0</ele><time>2026-05-01T10:10:49.728Z</time></trkpt><trkpt lat="43.3960317" lon="10.4483283"><ele>30.0</ele><time>2026-05-01T10:10:50.729Z</time></trkpt><trkpt lat="43.3959467" lon="10.4483883"><ele>30.0</ele><time>2026-05-01T10:10:51.727Z</time></trkpt><trkpt lat="43.3958683" lon="10.44844"><ele>30.0</ele><time>2026-05-01T10:10:52.728Z</time></trkpt><trkpt lat="43.3958017" lon="10.448485"><ele>30.0</ele><time>2026-05-01T10:10:53.729Z</time></trkpt><trkpt lat="43.39571" lon="10.4485533"><ele>30.0</ele><time>2026-05-01T10:10:55.73Z</time></trkpt><trkpt lat="43.395645" lon="10.4486217"><ele>30.0</ele><time>2026-05-01T10:11:36.728Z</time></trkpt><trkpt lat="43.3955617" lon="10.44865"><ele>30.0</ele><time>2026-05-01T10:11:38.73Z</time></trkpt><trkpt lat="43.395465" lon="10.4486167"><ele>30.0</ele><time>2026-05-01T10:11:40.729Z</time></trkpt><trkpt lat="43.3953867" lon="10.44848"><ele>29.8</ele><time>2026-05-01T10:11:42.729Z</time></trkpt><trkpt lat="43.3953433" lon="10.4483883"><ele>29.6</ele><time>2026-05-01T10:11:43.729Z</time></trkpt><trkpt lat="43.3953033" lon="10.4482667"><ele>29.4</ele><time>2026-05-01T10:11:44.729Z</time></trkpt><trkpt lat="43.3952583" lon="10.4481533"><ele>29.2</ele><time>2026-05-01T10:11:45.729Z</time></trkpt><trkpt lat="43.3952117" lon="10.4480283"><ele>29.0</ele><time>2026-05-01T10:11:46.728Z</time></trkpt><trkpt lat="43.395165" lon="10.4478983"><ele>28.75</ele><time>2026-05-01T10:11:47.728Z</time></trkpt><trkpt lat="43.3951083" lon="10.4477617"><ele>28.5</ele><time>2026-05-01T10:11:48.729Z</time></trkpt><trkpt lat="43.3950517" lon="10.44762"><ele>28.25</ele><time>2026-05-01T10:11:49.728Z</time></trkpt><trkpt lat="43.3949933" lon="10.44747"><ele>28.0</ele><time>2026-05-01T10:11:50.728Z</time></trkpt><trkpt lat="43.3949317" lon="10.4473183"><ele>28.0</ele><time>2026-05-01T10:11:51.729Z</time></trkpt><trkpt lat="43.3948683" lon="10.4471667"><ele>28.0</ele><time>2026-05-01T10:11:52.729Z</time></trkpt><trkpt lat="43.394805" lon="10.447"><ele>28.0</ele><time>2026-05-01T10:11:53.728Z</time></trkpt><trkpt lat="43.3947367" lon="10.4468283"><ele>28.0</ele><time>2026-05-01T10:11:54.728Z</time></trkpt><trkpt lat="43.394665" lon="10.4466583"><ele>28.0</ele><time>2026-05-01T10:11:55.729Z</time></trkpt><trkpt lat="43.3945933" lon="10.44649"><ele>28.0</ele><time>2026-05-01T10:11:56.729Z</time></trkpt><trkpt lat="43.3945233" lon="10.4463233"><ele>28.0</ele><time>2026-05-01T10:11:57.729Z</time></trkpt><trkpt lat="43.3944467" lon="10.4461583"><ele>28.0</ele><time>2026-05-01T10:11:58.729Z</time></trkpt><trkpt lat="43.3943717" lon="10.44599"><ele>28.0</ele><time>2026-05-01T10:11:59.728Z</time></trkpt><trkpt lat="43.3942933" lon="10.44582"><ele>28.0</ele><time>2026-05-01T10:12:00.728Z</time></trkpt><trkpt lat="43.394215" lon="10.445645"><ele>28.0</ele><time>2026-05-01T10:12:01.73Z</time></trkpt><trkpt lat="43.39414" lon="10.44547"><ele>28.0</ele><time>2026-05-01T10:12:02.728Z</time></trkpt><trkpt lat="43.3940617" lon="10.445305"><ele>28.0</ele><time>2026-05-01T10:12:03.728Z</time></trkpt><trkpt lat="43.3939817" lon="10.44514"><ele>28.0</ele><time>2026-05-01T10:12:04.727Z</time></trkpt><trkpt lat="43.3939017" lon="10.4449733"><ele>28.0</ele><time>2026-05-01T10:12:05.729Z</time></trkpt><trkpt lat="43.3938067" lon="10.444815"><ele>28.0</ele><time>2026-05-01T10:12:06.728Z</time></trkpt><trkpt lat="43.3937083" lon="10.4446567"><ele>27.0</ele><time>2026-05-01T10:12:07.729Z</time></trkpt><trkpt lat="43.393615" lon="10.444495"><ele>26.0</ele><time>2026-05-01T10:12:08.729Z</time></trkpt><trkpt lat="43.39352" lon="10.4443333"><ele>25.0</ele><time>2026-05-01T10:12:09.729Z</time></trkpt><trkpt lat="43.393425" lon="10.4441717"><ele>25.0</ele><time>2026-05-01T10:12:10.729Z</time></trkpt><trkpt lat="43.3933283" lon="10.4440067"><ele>25.0</ele><time>2026-05-01T10:12:11.728Z</time></trkpt><trkpt lat="43.393235" lon="10.44384"><ele>25.0</ele><time>2026-05-01T10:12:12.729Z</time></trkpt><trkpt lat="43.3931433" lon="10.44367"><ele>24.333333333333336</ele><time>2026-05-01T10:12:13.729Z</time></trkpt><trkpt lat="43.3930567" lon="10.4434967"><ele>23.666666666666668</ele><time>2026-05-01T10:12:14.73Z</time></trkpt><trkpt lat="43.392975" lon="10.44331"><ele>23.0</ele><time>2026-05-01T10:12:15.728Z</time></trkpt><trkpt lat="43.392885" lon="10.4431333"><ele>22.0</ele><time>2026-05-01T10:12:16.729Z</time></trkpt><trkpt lat="43.3928067" lon="10.44295"><ele>21.0</ele><time>2026-05-01T10:12:17.728Z</time></trkpt><trkpt lat="43.3927283" lon="10.4427733"><ele>20.0</ele><time>2026-05-01T10:12:18.729Z</time></trkpt><trkpt lat="43.3926583" lon="10.4425967"><ele>20.0</ele><time>2026-05-01T10:12:19.73Z</time></trkpt><trkpt lat="43.3925883" lon="10.4424167"><ele>20.0</ele><time>2026-05-01T10:12:20.727Z</time></trkpt><trkpt lat="43.3925133" lon="10.4422517"><ele>20.0</ele><time>2026-05-01T10:12:21.73Z</time></trkpt><trkpt lat="43.392445" lon="10.4420833"><ele>20.0</ele><time>2026-05-01T10:12:22.729Z</time></trkpt><trkpt lat="43.392375" lon="10.4419117"><ele>20.5</ele><time>2026-05-01T10:12:23.728Z</time></trkpt><trkpt lat="43.3923067" lon="10.4417417"><ele>21.0</ele><time>2026-05-01T10:12:24.729Z</time></trkpt><trkpt lat="43.3922433" lon="10.4415917"><ele>21.5</ele><time>2026-05-01T10:12:25.728Z</time></trkpt><trkpt lat="43.3921783" lon="10.4414483"><ele>22.0</ele><time>2026-05-01T10:12:26.729Z</time></trkpt><trkpt lat="43.3921133" lon="10.44131"><ele>20.75</ele><time>2026-05-01T10:12:27.727Z</time></trkpt><trkpt lat="43.3920533" lon="10.4411717"><ele>19.5</ele><time>2026-05-01T10:12:28.729Z</time></trkpt><trkpt lat="43.3920017" lon="10.44103"><ele>18.25</ele><time>2026-05-01T10:12:29.729Z</time></trkpt><trkpt lat="43.3919467" lon="10.4408983"><ele>17.0</ele><time>2026-05-01T10:12:30.728Z</time></trkpt><trkpt lat="43.3918917" lon="10.4407717"><ele>17.0</ele><time>2026-05-01T10:12:31.73Z</time></trkpt><trkpt lat="43.39184" lon="10.44065"><ele>17.0</ele><time>2026-05-01T10:12:32.728Z</time></trkpt><trkpt lat="43.3917767" lon="10.440545"><ele>17.0</ele><time>2026-05-01T10:12:33.729Z</time></trkpt><trkpt lat="43.3917333" lon="10.4404367"><ele>17.0</ele><time>2026-05-01T10:12:34.729Z</time></trkpt><trkpt lat="43.3916917" lon="10.4403517"><ele>17.0</ele><time>2026-05-01T10:12:35.729Z</time></trkpt><trkpt lat="43.3916367" lon="10.4402183"><ele>17.166666666666668</ele><time>2026-05-01T10:12:37.729Z</time></trkpt><trkpt lat="43.3915917" lon="10.4401133"><ele>17.333333333333336</ele><time>2026-05-01T10:12:40.729Z</time></trkpt><trkpt lat="43.3915583" lon="10.4400167"><ele>17.5</ele><time>2026-05-01T10:12:44.73Z</time></trkpt><trkpt lat="43.3915517" lon="10.4399033"><ele>17.666666666666668</ele><time>2026-05-01T10:12:52.728Z</time></trkpt><trkpt lat="43.3916117" lon="10.4398083"><ele>17.833333333333332</ele><time>2026-05-01T10:12:54.729Z</time></trkpt><trkpt lat="43.3916633" lon="10.4397517"><ele>18.0</ele><time>2026-05-01T10:12:55.728Z</time></trkpt><trkpt lat="43.391725" lon="10.43968"><ele>17.6</ele><time>2026-05-01T10:12:56.729Z</time></trkpt><trkpt lat="43.391785" lon="10.43962"><ele>17.200000000000003</ele><time>2026-05-01T10:12:57.729Z</time></trkpt><trkpt lat="43.3918533" lon="10.4395517"><ele>16.8</ele><time>2026-05-01T10:12:58.728Z</time></trkpt><trkpt lat="43.3919383" lon="10.4394767"><ele>16.400000000000002</ele><time>2026-05-01T10:12:59.729Z</time></trkpt><trkpt lat="43.3920233" lon="10.4393983"><ele>16.0</ele><time>2026-05-01T10:13:00.73Z</time></trkpt><trkpt lat="43.3921217" lon="10.43933"><ele>16.25</ele><time>2026-05-01T10:13:01.729Z</time></trkpt><trkpt lat="43.3922233" lon="10.4392417"><ele>16.5</ele><time>2026-05-01T10:13:02.728Z</time></trkpt><trkpt lat="43.3923217" lon="10.43915"><ele>16.75</ele><time>2026-05-01T10:13:03.729Z</time></trkpt><trkpt lat="43.3924067" lon="10.439075"><ele>17.0</ele><time>2026-05-01T10:13:04.729Z</time></trkpt><trkpt lat="43.392505" lon="10.4389967"><ele>17.0</ele><time>2026-05-01T10:13:05.73Z</time></trkpt><trkpt lat="43.392595" lon="10.4389467"><ele>17.0</ele><time>2026-05-01T10:13:06.729Z</time></trkpt><trkpt lat="43.3926817" lon="10.4388983"><ele>17.0</ele><time>2026-05-01T10:13:07.73Z</time></trkpt><trkpt lat="43.3927617" lon="10.4388417"><ele>17.0</ele><time>2026-05-01T10:13:08.729Z</time></trkpt><trkpt lat="43.3928517" lon="10.438765"><ele>17.0</ele><time>2026-05-01T10:13:09.729Z</time></trkpt><trkpt lat="43.3929417" lon="10.438675"><ele>17.25</ele><time>2026-05-01T10:13:10.729Z</time></trkpt><trkpt lat="43.393035" lon="10.438585"><ele>17.5</ele><time>2026-05-01T10:13:11.731Z</time></trkpt><trkpt lat="43.393135" lon="10.438505"><ele>17.75</ele><time>2026-05-01T10:13:12.73Z</time></trkpt><trkpt lat="43.3932483" lon="10.438425"><ele>18.0</ele><time>2026-05-01T10:13:13.73Z</time></trkpt><trkpt lat="43.3933633" lon="10.4383417"><ele>18.0</ele><time>2026-05-01T10:13:14.73Z</time></trkpt><trkpt lat="43.3934717" lon="10.43825"><ele>18.0</ele><time>2026-05-01T10:13:15.728Z</time></trkpt><trkpt lat="43.39359" lon="10.4381567"><ele>18.0</ele><time>2026-05-01T10:13:16.729Z</time></trkpt><trkpt lat="43.3937" lon="10.43806"><ele>18.0</ele><time>2026-05-01T10:13:17.728Z</time></trkpt><trkpt lat="43.3938117" lon="10.4379583"><ele>18.25</ele><time>2026-05-01T10:13:18.729Z</time></trkpt><trkpt lat="43.39392" lon="10.43786"><ele>18.5</ele><time>2026-05-01T10:13:19.728Z</time></trkpt><trkpt lat="43.39403" lon="10.4377633"><ele>18.75</ele><time>2026-05-01T10:13:20.73Z</time></trkpt><trkpt lat="43.3941383" lon="10.437665"><ele>19.0</ele><time>2026-05-01T10:13:21.729Z</time></trkpt><trkpt lat="43.3942567" lon="10.4375733"><ele>19.0</ele><time>2026-05-01T10:13:22.729Z</time></trkpt><trkpt lat="43.39437" lon="10.437485"><ele>19.0</ele><time>2026-05-01T10:13:23.728Z</time></trkpt><trkpt lat="43.3944783" lon="10.4373983"><ele>19.0</ele><time>2026-05-01T10:13:24.728Z</time></trkpt><trkpt lat="43.39459" lon="10.4373183"><ele>19.0</ele><time>2026-05-01T10:13:25.729Z</time></trkpt><trkpt lat="43.3947033" lon="10.4372433"><ele>18.75</ele><time>2026-05-01T10:13:26.729Z</time></trkpt><trkpt lat="43.39482" lon="10.437155"><ele>18.5</ele><time>2026-05-01T10:13:27.729Z</time></trkpt><trkpt lat="43.3949283" lon="10.4370583"><ele>18.25</ele><time>2026-05-01T10:13:28.729Z</time></trkpt><trkpt lat="43.3950367" lon="10.4369633"><ele>18.0</ele><time>2026-05-01T10:13:29.729Z</time></trkpt><trkpt lat="43.3951433" lon="10.436875"><ele>18.0</ele><time>2026-05-01T10:13:30.728Z</time></trkpt><trkpt lat="43.395245" lon="10.4367933"><ele>18.0</ele><time>2026-05-01T10:13:31.728Z</time></trkpt><trkpt lat="43.39535" lon="10.436715"><ele>18.0</ele><time>2026-05-01T10:13:32.728Z</time></trkpt><trkpt lat="43.39545" lon="10.4366283"><ele>18.0</ele><time>2026-05-01T10:13:33.729Z</time></trkpt><trkpt lat="43.3955533" lon="10.4365417"><ele>18.0</ele><time>2026-05-01T10:13:34.729Z</time></trkpt><trkpt lat="43.3956533" lon="10.4364583"><ele>18.0</ele><time>2026-05-01T10:13:35.729Z</time></trkpt><trkpt lat="43.3957567" lon="10.4363683"><ele>18.0</ele><time>2026-05-01T10:13:36.728Z</time></trkpt><trkpt lat="43.39587" lon="10.4362767"><ele>18.0</ele><time>2026-05-01T10:13:37.729Z</time></trkpt><trkpt lat="43.39599" lon="10.436185"><ele>17.75</ele><time>2026-05-01T10:13:38.73Z</time></trkpt><trkpt lat="43.3961" lon="10.4361033"><ele>17.5</ele><time>2026-05-01T10:13:39.73Z</time></trkpt><trkpt lat="43.3962167" lon="10.4360183"><ele>17.25</ele><time>2026-05-01T10:13:40.728Z</time></trkpt><trkpt lat="43.3963483" lon="10.43593"><ele>17.0</ele><time>2026-05-01T10:13:41.729Z</time></trkpt><trkpt lat="43.3964783" lon="10.43586"><ele>17.0</ele><time>2026-05-01T10:13:42.73Z</time></trkpt><trkpt lat="43.3966" lon="10.4357817"><ele>17.0</ele><time>2026-05-01T10:13:43.729Z</time></trkpt><trkpt lat="43.3967067" lon="10.4356917"><ele>17.0</ele><time>2026-05-01T10:13:44.73Z</time></trkpt><trkpt lat="43.396805" lon="10.4356067"><ele>17.0</ele><time>2026-05-01T10:13:45.729Z</time></trkpt><trkpt lat="43.3969" lon="10.435525"><ele>16.8</ele><time>2026-05-01T10:13:46.729Z</time></trkpt><trkpt lat="43.3969817" lon="10.4354533"><ele>16.6</ele><time>2026-05-01T10:13:47.729Z</time></trkpt><trkpt lat="43.3970683" lon="10.435385"><ele>16.400000000000002</ele><time>2026-05-01T10:13:48.729Z</time></trkpt><trkpt lat="43.3971533" lon="10.4353483"><ele>16.2</ele><time>2026-05-01T10:13:49.73Z</time></trkpt><trkpt lat="43.3972367" lon="10.4353417"><ele>16.0</ele><time>2026-05-01T10:13:50.729Z</time></trkpt><trkpt lat="43.3973167" lon="10.4353283"><ele>16.0</ele><time>2026-05-01T10:13:51.729Z</time></trkpt><trkpt lat="43.3973917" lon="10.435305"><ele>16.0</ele><time>2026-05-01T10:13:52.729Z</time></trkpt><trkpt lat="43.39747" lon="10.4352717"><ele>16.0</ele><time>2026-05-01T10:13:53.729Z</time></trkpt><trkpt lat="43.3975383" lon="10.435225"><ele>16.0</ele><time>2026-05-01T10:13:54.729Z</time></trkpt><trkpt lat="43.3975217" lon="10.4350433"><ele>16.0</ele><time>2026-05-01T10:13:56.73Z</time></trkpt><trkpt lat="43.3974467" lon="10.4349267"><ele>16.0</ele><time>2026-05-01T10:13:57.73Z</time></trkpt><trkpt lat="43.397375" lon="10.4348017"><ele>16.0</ele><time>2026-05-01T10:13:58.729Z</time></trkpt><trkpt lat="43.3973017" lon="10.4346517"><ele>16.0</ele><time>2026-05-01T10:13:59.729Z</time></trkpt><trkpt lat="43.3972383" lon="10.4344933"><ele>16.0</ele><time>2026-05-01T10:14:00.728Z</time></trkpt><trkpt lat="43.397185" lon="10.434325"><ele>15.0</ele><time>2026-05-01T10:14:01.73Z</time></trkpt><trkpt lat="43.3971283" lon="10.4341467"><ele>14.0</ele><time>2026-05-01T10:14:02.729Z</time></trkpt><trkpt lat="43.39708" lon="10.43396"><ele>13.0</ele><time>2026-05-01T10:14:03.73Z</time></trkpt><trkpt lat="43.39704" lon="10.4337617"><ele>12.0</ele><time>2026-05-01T10:14:04.729Z</time></trkpt><trkpt lat="43.3969967" lon="10.433565"><ele>12.0</ele><time>2026-05-01T10:14:05.73Z</time></trkpt><trkpt lat="43.3969533" lon="10.4333683"><ele>12.0</ele><time>2026-05-01T10:14:06.729Z</time></trkpt><trkpt lat="43.3969083" lon="10.4331717"><ele>12.0</ele><time>2026-05-01T10:14:07.728Z</time></trkpt><trkpt lat="43.3968617" lon="10.432975"><ele>12.0</ele><time>2026-05-01T10:14:08.73Z</time></trkpt><trkpt lat="43.396815" lon="10.4327783"><ele>12.0</ele><time>2026-05-01T10:14:09.729Z</time></trkpt><trkpt lat="43.396765" lon="10.4325883"><ele>12.0</ele><time>2026-05-01T10:14:10.729Z</time></trkpt><trkpt lat="43.39672" lon="10.4324033"><ele>12.0</ele><time>2026-05-01T10:14:11.729Z</time></trkpt><trkpt lat="43.396675" lon="10.432225"><ele>12.0</ele><time>2026-05-01T10:14:12.731Z</time></trkpt><trkpt lat="43.3966333" lon="10.43205"><ele>12.0</ele><time>2026-05-01T10:14:13.728Z</time></trkpt><trkpt lat="43.39659" lon="10.4318817"><ele>12.0</ele><time>2026-05-01T10:14:14.729Z</time></trkpt><trkpt lat="43.3965517" lon="10.4317183"><ele>12.0</ele><time>2026-05-01T10:14:15.73Z</time></trkpt><trkpt lat="43.3965117" lon="10.43156"><ele>12.0</ele><time>2026-05-01T10:14:16.727Z</time></trkpt><trkpt lat="43.3964783" lon="10.4313917"><ele>11.5</ele><time>2026-05-01T10:14:17.73Z</time></trkpt><trkpt lat="43.3964417" lon="10.4312283"><ele>11.0</ele><time>2026-05-01T10:14:18.728Z</time></trkpt><trkpt lat="43.3964067" lon="10.4310533"><ele>10.5</ele><time>2026-05-01T10:14:19.73Z</time></trkpt><trkpt lat="43.396365" lon="10.430885"><ele>10.0</ele><time>2026-05-01T10:14:20.728Z</time></trkpt><trkpt lat="43.3963283" lon="10.4307167"><ele>9.5</ele><time>2026-05-01T10:14:21.729Z</time></trkpt><trkpt lat="43.3962933" lon="10.4305483"><ele>9.0</ele><time>2026-05-01T10:14:22.728Z</time></trkpt><trkpt lat="43.396255" lon="10.4303917"><ele>8.5</ele><time>2026-05-01T10:14:23.729Z</time></trkpt><trkpt lat="43.3962167" lon="10.43024"><ele>8.0</ele><time>2026-05-01T10:14:24.729Z</time></trkpt><trkpt lat="43.3961783" lon="10.4300933"><ele>8.0</ele><time>2026-05-01T10:14:25.73Z</time></trkpt><trkpt lat="43.3961433" lon="10.42995"><ele>8.0</ele><time>2026-05-01T10:14:26.729Z</time></trkpt><trkpt lat="43.39611" lon="10.4298083"><ele>8.0</ele><time>2026-05-01T10:14:27.728Z</time></trkpt><trkpt lat="43.396085" lon="10.4296767"><ele>8.0</ele><time>2026-05-01T10:14:28.73Z</time></trkpt><trkpt lat="43.396065" lon="10.429555"><ele>8.0</ele><time>2026-05-01T10:14:29.73Z</time></trkpt><trkpt lat="43.396055" lon="10.4294417"><ele>7.999999999999999</ele><time>2026-05-01T10:14:30.729Z</time></trkpt><trkpt lat="43.3960583" lon="10.4293383"><ele>8.0</ele><time>2026-05-01T10:14:31.729Z</time></trkpt><trkpt lat="43.3960667" lon="10.4292483"><ele>8.0</ele><time>2026-05-01T10:14:32.73Z</time></trkpt><trkpt lat="43.396045" lon="10.4290967"><ele>8.0</ele><time>2026-05-01T10:14:34.728Z</time></trkpt><trkpt lat="43.3959883" lon="10.4290033"><ele>7.999999999999999</ele><time>2026-05-01T10:14:36.73Z</time></trkpt><trkpt lat="43.3959033" lon="10.4290333"><ele>8.0</ele><time>2026-05-01T10:14:37.73Z</time></trkpt><trkpt lat="43.39584" lon="10.42906"><ele>7.999999999999999</ele><time>2026-05-01T10:14:38.728Z</time></trkpt><trkpt lat="43.3957667" lon="10.4290967"><ele>8.0</ele><time>2026-05-01T10:14:39.73Z</time></trkpt><trkpt lat="43.3956833" lon="10.429115"><ele>8.0</ele><time>2026-05-01T10:14:40.728Z</time></trkpt><trkpt lat="43.39559" lon="10.42912"><ele>8.0</ele><time>2026-05-01T10:14:41.728Z</time></trkpt><trkpt lat="43.3954967" lon="10.4291133"><ele>7.999999999999999</ele><time>2026-05-01T10:14:42.728Z</time></trkpt><trkpt lat="43.395405" lon="10.4291167"><ele>8.0</ele><time>2026-05-01T10:14:43.728Z</time></trkpt><trkpt lat="43.3953117" lon="10.4291267"><ele>7.833333333333333</ele><time>2026-05-01T10:14:44.727Z</time></trkpt><trkpt lat="43.39522" lon="10.4291517"><ele>7.666666666666666</ele><time>2026-05-01T10:14:45.727Z</time></trkpt><trkpt lat="43.395135" lon="10.4291883"><ele>7.5</ele><time>2026-05-01T10:14:46.728Z</time></trkpt><trkpt lat="43.3950533" lon="10.4292333"><ele>7.333333333333334</ele><time>2026-05-01T10:14:47.728Z</time></trkpt><trkpt lat="43.3949817" lon="10.4292817"><ele>7.166666666666667</ele><time>2026-05-01T10:14:48.727Z</time></trkpt><trkpt lat="43.394915" lon="10.429325"><ele>7.0</ele><time>2026-05-01T10:14:49.728Z</time></trkpt><trkpt lat="43.3948517" lon="10.4293617"><ele>7.0</ele><time>2026-05-01T10:14:50.728Z</time></trkpt><trkpt lat="43.3947367" lon="10.4293983"><ele>6.999999999999999</ele><time>2026-05-01T10:14:52.728Z</time></trkpt><trkpt lat="43.3946183" lon="10.4294133"><ele>6.999999999999999</ele><time>2026-05-01T10:14:54.728Z</time></trkpt><trkpt lat="43.39452" lon="10.429475"><ele>7.0</ele><time>2026-05-01T10:14:56.728Z</time></trkpt><trkpt lat="43.3944833" lon="10.4295533"><ele>7.0</ele><time>2026-05-01T10:14:57.728Z</time></trkpt><trkpt lat="43.3944367" lon="10.4296183"><ele>7.166666666666667</ele><time>2026-05-01T10:14:58.728Z</time></trkpt><trkpt lat="43.3943833" lon="10.429695"><ele>7.333333333333334</ele><time>2026-05-01T10:14:59.728Z</time></trkpt><trkpt lat="43.3943317" lon="10.42977"><ele>7.5</ele><time>2026-05-01T10:15:00.729Z</time></trkpt><trkpt lat="43.3942583" lon="10.429835"><ele>7.666666666666666</ele><time>2026-05-01T10:15:01.728Z</time></trkpt><trkpt lat="43.39418" lon="10.4299"><ele>7.833333333333333</ele><time>2026-05-01T10:15:02.728Z</time></trkpt><trkpt lat="43.39411" lon="10.4299617"><ele>8.0</ele><time>2026-05-01T10:15:03.727Z</time></trkpt><trkpt lat="43.394035" lon="10.4300233"><ele>7.999999999999999</ele><time>2026-05-01T10:15:04.728Z</time></trkpt><trkpt lat="43.3939617" lon="10.4300867"><ele>8.0</ele><time>2026-05-01T10:15:05.728Z</time></trkpt><trkpt lat="43.3938933" lon="10.4301433"><ele>8.0</ele><time>2026-05-01T10:15:06.728Z</time></trkpt><trkpt lat="43.3938233" lon="10.4301967"><ele>8.0</ele><time>2026-05-01T10:15:07.728Z</time></trkpt><trkpt lat="43.3937483" lon="10.4302517"><ele>7.999999999999999</ele><time>2026-05-01T10:15:08.727Z</time></trkpt><trkpt lat="43.3936767" lon="10.4303067"><ele>8.0</ele><time>2026-05-01T10:15:09.727Z</time></trkpt><trkpt lat="43.393595" lon="10.4303683"><ele>8.4</ele><time>2026-05-01T10:15:10.727Z</time></trkpt><trkpt lat="43.3935183" lon="10.43043"><ele>8.8</ele><time>2026-05-01T10:15:11.728Z</time></trkpt><trkpt lat="43.3934383" lon="10.4304933"><ele>9.2</ele><time>2026-05-01T10:15:12.728Z</time></trkpt><trkpt lat="43.3933617" lon="10.4305533"><ele>9.6</ele><time>2026-05-01T10:15:13.728Z</time></trkpt><trkpt lat="43.3932817" lon="10.430615"><ele>10.0</ele><time>2026-05-01T10:15:14.728Z</time></trkpt><trkpt lat="43.3932017" lon="10.4306717"><ele>10.0</ele><time>2026-05-01T10:15:15.727Z</time></trkpt><trkpt lat="43.39312" lon="10.4307367"><ele>10.0</ele><time>2026-05-01T10:15:16.728Z</time></trkpt><trkpt lat="43.3930367" lon="10.430795"><ele>10.0</ele><time>2026-05-01T10:15:17.728Z</time></trkpt><trkpt lat="43.3929533" lon="10.4308583"><ele>10.0</ele><time>2026-05-01T10:15:18.728Z</time></trkpt><trkpt lat="43.39288" lon="10.430915"><ele>10.0</ele><time>2026-05-01T10:15:19.728Z</time></trkpt><trkpt lat="43.3928233" lon="10.43097"><ele>10.0</ele><time>2026-05-01T10:15:20.727Z</time></trkpt><trkpt lat="43.392735" lon="10.4310583"><ele>10.0</ele><time>2026-05-01T10:15:22.728Z</time></trkpt><trkpt lat="43.3926767" lon="10.4311083"><ele>10.0</ele><time>2026-05-01T10:15:26.728Z</time></trkpt><trkpt lat="43.39261" lon="10.4311633"><ele>10.0</ele><time>2026-05-01T10:15:28.728Z</time></trkpt><trkpt lat="43.3925233" lon="10.4312267"><ele>10.0</ele><time>2026-05-01T10:15:30.729Z</time></trkpt><trkpt lat="43.3924183" lon="10.4312983"><ele>10.0</ele><time>2026-05-01T10:15:32.728Z</time></trkpt><trkpt lat="43.39236" lon="10.4313417"><ele>10.0</ele><time>2026-05-01T10:15:33.728Z</time></trkpt><trkpt lat="43.3922983" lon="10.4313883"><ele>10.0</ele><time>2026-05-01T10:15:34.73Z</time></trkpt><trkpt lat="43.3922433" lon="10.4314367"><ele>10.0</ele><time>2026-05-01T10:15:35.727Z</time></trkpt><trkpt lat="43.3921333" lon="10.4315183"><ele>10.0</ele><time>2026-05-01T10:15:37.728Z</time></trkpt><trkpt lat="43.3920317" lon="10.4316033"><ele>10.0</ele><time>2026-05-01T10:15:39.73Z</time></trkpt><trkpt lat="43.3919367" lon="10.431675"><ele>10.0</ele><time>2026-05-01T10:15:41.728Z</time></trkpt><trkpt lat="43.3918567" lon="10.43172"><ele>10.0</ele><time>2026-05-01T10:15:43.73Z</time></trkpt><trkpt lat="43.3917833" lon="10.4316833"><ele>10.0</ele><time>2026-05-01T10:15:46.728Z</time></trkpt><trkpt lat="43.3917367" lon="10.43158"><ele>10.0</ele><time>2026-05-01T10:15:48.727Z</time></trkpt><trkpt lat="43.391685" lon="10.431455"><ele>10.0</ele><time>2026-05-01T10:15:50.729Z</time></trkpt><trkpt lat="43.3916233" lon="10.4313083"><ele>10.0</ele><time>2026-05-01T10:15:52.727Z</time></trkpt><trkpt lat="43.3915883" lon="10.4312317"><ele>9.8</ele><time>2026-05-01T10:15:53.727Z</time></trkpt><trkpt lat="43.3915317" lon="10.431085"><ele>9.6</ele><time>2026-05-01T10:15:55.729Z</time></trkpt><trkpt lat="43.3914817" lon="10.4309683"><ele>9.4</ele><time>2026-05-01T10:15:57.728Z</time></trkpt><trkpt lat="43.3914383" lon="10.4308933"><ele>9.2</ele><time>2026-05-01T10:15:59.728Z</time></trkpt><trkpt lat="43.3913633" lon="10.4309183"><ele>9.0</ele><time>2026-05-01T10:16:03.729Z</time></trkpt><trkpt lat="43.3913317" lon="10.431035"><ele>9.0</ele><time>2026-05-01T10:16:06.728Z</time></trkpt><trkpt lat="43.3913617" lon="10.4311617"><ele>9.0</ele><time>2026-05-01T10:16:09.727Z</time></trkpt><trkpt lat="43.3914033" lon="10.431265"><ele>9.0</ele><time>2026-05-01T10:16:11.728Z</time></trkpt><trkpt lat="43.3914483" lon="10.4313683"><ele>9.0</ele><time>2026-05-01T10:16:13.729Z</time></trkpt><trkpt lat="43.3914967" lon="10.4314717"><ele>9.0</ele><time>2026-05-01T10:16:15.727Z</time></trkpt><trkpt lat="43.3915433" lon="10.431545"><ele>9.0</ele><time>2026-05-01T10:16:17.728Z</time></trkpt><trkpt lat="43.3915883" lon="10.4316217"><ele>9.166666666666666</ele><time>2026-05-01T10:16:20.727Z</time></trkpt><trkpt lat="43.39166" lon="10.431635"><ele>9.333333333333334</ele><time>2026-05-01T10:16:23.726Z</time></trkpt><trkpt lat="43.3917517" lon="10.431765"><ele>9.5</ele><time>2026-05-01T10:20:32.728Z</time></trkpt><trkpt lat="43.391725" lon="10.4318767"><ele>9.666666666666668</ele><time>2026-05-01T10:20:49.727Z</time></trkpt><trkpt lat="43.3917401" lon="10.4319801"><ele>9.833333333333334</ele><time>2026-05-01T10:22:16.269Z</time></trkpt><trkpt lat="43.3917205" lon="10.4320655"><ele>10.0</ele><time>2026-05-01T10:25:17.809Z</time></trkpt><trkpt lat="43.3917147" lon="10.4321602"><ele>10.0</ele><time>2026-05-01T10:25:30.823Z</time></trkpt><trkpt lat="43.3917633" lon="10.432064"><ele>10.0</ele><time>2026-05-01T10:27:38.796Z</time></trkpt><trkpt lat="43.3917109" lon="10.4319974"><ele>10.0</ele><time>2026-05-01T10:29:04.76Z</time></trkpt><trkpt lat="43.391687" lon="10.431905"><ele>10.0</ele><time>2026-05-01T10:29:36.728Z</time></trkpt><trkpt lat="43.3917469" lon="10.4319442"><ele>10.0</ele><time>2026-05-01T10:31:39.786Z</time></trkpt><trkpt lat="43.3918069" lon="10.4319179"><ele>10.0</ele><time>2026-05-01T10:31:45.728Z</time></trkpt><trkpt lat="43.3917541" lon="10.431981"><ele>10.0</ele><time>2026-05-01T10:32:15.524Z</time></trkpt><trkpt lat="43.391693" lon="10.4319462"><ele>10.0</ele><time>2026-05-01T10:33:02.78Z</time></trkpt></trkseg><trkseg><trkpt lat="43.3908679" lon="10.4297919"><ele>6.0</ele><time>2026-05-01T14:11:20.746Z</time></trkpt><trkpt lat="43.3908092" lon="10.4298504"><ele>6.0</ele><time>2026-05-01T14:11:28.741Z</time></trkpt><trkpt lat="43.3909392" lon="10.4298368"><ele>6.0</ele><time>2026-05-01T14:11:38.785Z</time></trkpt><trkpt lat="43.3909967" lon="10.4297965"><ele>6.0</ele><time>2026-05-01T14:11:42.781Z</time></trkpt><trkpt lat="43.3909124" lon="10.4297539"><ele>6.0</ele><time>2026-05-01T14:12:05.737Z</time></trkpt><trkpt lat="43.390864" lon="10.4296898"><ele>6.0</ele><time>2026-05-01T14:12:08.728Z</time></trkpt><trkpt lat="43.3908167" lon="10.429595"><ele>6.0</ele><time>2026-05-01T14:12:11.73Z</time></trkpt><trkpt lat="43.3907917" lon="10.429515"><ele>6.0</ele><time>2026-05-01T14:12:14.727Z</time></trkpt><trkpt lat="43.390775" lon="10.429425"><ele>6.0</ele><time>2026-05-01T14:12:53.729Z</time></trkpt><trkpt lat="43.3908467" lon="10.4293483"><ele>6.0</ele><time>2026-05-01T14:12:54.728Z</time></trkpt><trkpt lat="43.3908783" lon="10.429475"><ele>6.0</ele><time>2026-05-01T14:13:48.728Z</time></trkpt><trkpt lat="43.3908933" lon="10.4296017"><ele>6.0</ele><time>2026-05-01T14:13:50.727Z</time></trkpt><trkpt lat="43.39093" lon="10.4296883"><ele>6.0</ele><time>2026-05-01T14:13:52.728Z</time></trkpt><trkpt lat="43.3908683" lon="10.42978"><ele>6.0</ele><time>2026-05-01T14:13:56.728Z</time></trkpt><trkpt lat="43.3907783" lon="10.4298217"><ele>6.0</ele><time>2026-05-01T14:13:58.728Z</time></trkpt><trkpt lat="43.3906733" lon="10.4298767"><ele>6.0</ele><time>2026-05-01T14:14:00.728Z</time></trkpt><trkpt lat="43.3905783" lon="10.4299233"><ele>6.0</ele><time>2026-05-01T14:14:02.728Z</time></trkpt><trkpt lat="43.39048" lon="10.42997"><ele>5.3999999999999995</ele><time>2026-05-01T14:14:04.727Z</time></trkpt><trkpt lat="43.3903767" lon="10.430015"><ele>4.8</ele><time>2026-05-01T14:14:06.728Z</time></trkpt><trkpt lat="43.3902783" lon="10.4300583"><ele>4.199999999999999</ele><time>2026-05-01T14:14:08.729Z</time></trkpt><trkpt lat="43.39018" lon="10.4300933"><ele>3.5999999999999996</ele><time>2026-05-01T14:14:10.729Z</time></trkpt><trkpt lat="43.3900917" lon="10.430145"><ele>3.0</ele><time>2026-05-01T14:14:12.728Z</time></trkpt><trkpt lat="43.390005" lon="10.4302067"><ele>3.0</ele><time>2026-05-01T14:14:14.728Z</time></trkpt><trkpt lat="43.3898983" lon="10.4302883"><ele>3.0</ele><time>2026-05-01T14:14:16.727Z</time></trkpt><trkpt lat="43.3898367" lon="10.430335"><ele>3.0</ele><time>2026-05-01T14:14:17.728Z</time></trkpt><trkpt lat="43.3897717" lon="10.430385"><ele>3.0</ele><time>2026-05-01T14:14:18.727Z</time></trkpt><trkpt lat="43.389705" lon="10.4304367"><ele>3.0</ele><time>2026-05-01T14:14:19.729Z</time></trkpt><trkpt lat="43.38964" lon="10.4304867"><ele>3.0</ele><time>2026-05-01T14:14:20.729Z</time></trkpt><trkpt lat="43.3895783" lon="10.4305383"><ele>3.4285714285714284</ele><time>2026-05-01T14:14:21.729Z</time></trkpt><trkpt lat="43.3895217" lon="10.4305883"><ele>3.8571428571428568</ele><time>2026-05-01T14:14:22.728Z</time></trkpt><trkpt lat="43.3894633" lon="10.4306367"><ele>4.285714285714286</ele><time>2026-05-01T14:14:23.728Z</time></trkpt><trkpt lat="43.389405" lon="10.4306867"><ele>4.7142857142857135</ele><time>2026-05-01T14:14:24.729Z</time></trkpt><trkpt lat="43.38934" lon="10.4307367"><ele>5.142857142857142</ele><time>2026-05-01T14:14:25.728Z</time></trkpt><trkpt lat="43.3892767" lon="10.4307817"><ele>5.571428571428571</ele><time>2026-05-01T14:14:26.729Z</time></trkpt><trkpt lat="43.38921" lon="10.4308283"><ele>6.0</ele><time>2026-05-01T14:14:27.729Z</time></trkpt><trkpt lat="43.389145" lon="10.4308783"><ele>6.0</ele><time>2026-05-01T14:14:28.729Z</time></trkpt><trkpt lat="43.3890817" lon="10.4309333"><ele>6.0</ele><time>2026-05-01T14:14:29.729Z</time></trkpt><trkpt lat="43.3890183" lon="10.430985"><ele>6.0</ele><time>2026-05-01T14:14:30.729Z</time></trkpt><trkpt lat="43.3889617" lon="10.4310283"><ele>6.0</ele><time>2026-05-01T14:14:31.728Z</time></trkpt><trkpt lat="43.3888967" lon="10.4310817"><ele>6.0</ele><time>2026-05-01T14:14:32.729Z</time></trkpt><trkpt lat="43.3888333" lon="10.4311317"><ele>6.0</ele><time>2026-05-01T14:14:33.728Z</time></trkpt><trkpt lat="43.38874" lon="10.431215"><ele>6.0</ele><time>2026-05-01T14:14:35.728Z</time></trkpt><trkpt lat="43.3886667" lon="10.43127"><ele>6.0</ele><time>2026-05-01T14:14:37.729Z</time></trkpt><trkpt lat="43.3886067" lon="10.4313183"><ele>6.0</ele><time>2026-05-01T14:14:41.727Z</time></trkpt><trkpt lat="43.3885467" lon="10.4313733"><ele>6.0</ele><time>2026-05-01T14:14:43.729Z</time></trkpt><trkpt lat="43.388455" lon="10.431455"><ele>6.0</ele><time>2026-05-01T14:14:45.729Z</time></trkpt><trkpt lat="43.3884" lon="10.4314983"><ele>6.0</ele><time>2026-05-01T14:14:46.728Z</time></trkpt><trkpt lat="43.3883417" lon="10.4315483"><ele>5.857142857142857</ele><time>2026-05-01T14:14:47.729Z</time></trkpt><trkpt lat="43.3882817" lon="10.431595"><ele>5.714285714285714</ele><time>2026-05-01T14:14:48.729Z</time></trkpt><trkpt lat="43.3882217" lon="10.4316417"><ele>5.571428571428571</ele><time>2026-05-01T14:14:49.727Z</time></trkpt><trkpt lat="43.388165" lon="10.4316933"><ele>5.428571428571429</ele><time>2026-05-01T14:14:50.728Z</time></trkpt><trkpt lat="43.3881033" lon="10.431745"><ele>5.285714285714286</ele><time>2026-05-01T14:14:51.729Z</time></trkpt><trkpt lat="43.388035" lon="10.4318033"><ele>5.142857142857142</ele><time>2026-05-01T14:14:52.729Z</time></trkpt><trkpt lat="43.387975" lon="10.4318483"><ele>5.0</ele><time>2026-05-01T14:14:53.729Z</time></trkpt><trkpt lat="43.3878983" lon="10.4319433"><ele>5.0</ele><time>2026-05-01T14:14:55.728Z</time></trkpt><trkpt lat="43.3879" lon="10.4320667"><ele>5.0</ele><time>2026-05-01T14:14:57.729Z</time></trkpt><trkpt lat="43.3879817" lon="10.432205"><ele>5.0</ele><time>2026-05-01T14:14:59.729Z</time></trkpt><trkpt lat="43.388025" lon="10.432285"><ele>5.0</ele><time>2026-05-01T14:15:00.728Z</time></trkpt><trkpt lat="43.3880667" lon="10.4323783"><ele>5.0</ele><time>2026-05-01T14:15:01.727Z</time></trkpt><trkpt lat="43.38811" lon="10.4324717"><ele>5.0</ele><time>2026-05-01T14:15:02.727Z</time></trkpt><trkpt lat="43.3881533" lon="10.432565"><ele>5.0</ele><time>2026-05-01T14:15:03.727Z</time></trkpt><trkpt lat="43.3882" lon="10.4326617"><ele>5.0</ele><time>2026-05-01T14:15:04.726Z</time></trkpt><trkpt lat="43.3882417" lon="10.4327583"><ele>5.0</ele><time>2026-05-01T14:15:05.728Z</time></trkpt><trkpt lat="43.3882783" lon="10.4328483"><ele>5.0</ele><time>2026-05-01T14:15:06.727Z</time></trkpt><trkpt lat="43.38831" lon="10.432935"><ele>5.0</ele><time>2026-05-01T14:15:07.728Z</time></trkpt><trkpt lat="43.388345" lon="10.4330183"><ele>5.428571428571429</ele><time>2026-05-01T14:15:08.727Z</time></trkpt><trkpt lat="43.3883767" lon="10.4330967"><ele>5.857142857142858</ele><time>2026-05-01T14:15:09.727Z</time></trkpt><trkpt lat="43.3884133" lon="10.4331767"><ele>6.285714285714286</ele><time>2026-05-01T14:15:10.727Z</time></trkpt><trkpt lat="43.3884483" lon="10.4332567"><ele>6.7142857142857135</ele><time>2026-05-01T14:15:11.727Z</time></trkpt><trkpt lat="43.3884867" lon="10.4333367"><ele>7.142857142857142</ele><time>2026-05-01T14:15:12.728Z</time></trkpt><trkpt lat="43.388525" lon="10.4334167"><ele>7.571428571428571</ele><time>2026-05-01T14:15:13.728Z</time></trkpt><trkpt lat="43.3885633" lon="10.4334983"><ele>8.0</ele><time>2026-05-01T14:15:14.727Z</time></trkpt><trkpt lat="43.3886033" lon="10.43359"><ele>8.0</ele><time>2026-05-01T14:15:15.726Z</time></trkpt><trkpt lat="43.38864" lon="10.4336683"><ele>7.999999999999999</ele><time>2026-05-01T14:15:16.728Z</time></trkpt><trkpt lat="43.3886833" lon="10.4337583"><ele>8.0</ele><time>2026-05-01T14:15:17.727Z</time></trkpt><trkpt lat="43.3887233" lon="10.4338333"><ele>8.0</ele><time>2026-05-01T14:15:18.728Z</time></trkpt><trkpt lat="43.3887583" lon="10.4339083"><ele>7.999999999999999</ele><time>2026-05-01T14:15:19.727Z</time></trkpt><trkpt lat="43.38879" lon="10.4340033"><ele>8.0</ele><time>2026-05-01T14:15:21.726Z</time></trkpt><trkpt lat="43.38877" lon="10.4341233"><ele>8.0</ele><time>2026-05-01T14:15:24.728Z</time></trkpt><trkpt lat="43.38869" lon="10.4341817"><ele>7.833333333333333</ele><time>2026-05-01T14:15:26.727Z</time></trkpt><trkpt lat="43.3886233" lon="10.4342283"><ele>7.666666666666666</ele><time>2026-05-01T14:15:27.728Z</time></trkpt><trkpt lat="43.38855" lon="10.43428"><ele>7.5</ele><time>2026-05-01T14:15:28.729Z</time></trkpt><trkpt lat="43.3884733" lon="10.4343283"><ele>7.333333333333334</ele><time>2026-05-01T14:15:29.73Z</time></trkpt><trkpt lat="43.3883933" lon="10.434375"><ele>7.166666666666667</ele><time>2026-05-01T14:15:30.731Z</time></trkpt><trkpt lat="43.3883083" lon="10.434425"><ele>7.0</ele><time>2026-05-01T14:15:31.729Z</time></trkpt><trkpt lat="43.3882217" lon="10.4344783"><ele>7.0</ele><time>2026-05-01T14:15:32.73Z</time></trkpt><trkpt lat="43.388135" lon="10.4345317"><ele>6.999999999999999</ele><time>2026-05-01T14:15:33.728Z</time></trkpt><trkpt lat="43.3880483" lon="10.43459"><ele>6.999999999999999</ele><time>2026-05-01T14:15:34.728Z</time></trkpt><trkpt lat="43.3879633" lon="10.4346467"><ele>7.0</ele><time>2026-05-01T14:15:35.727Z</time></trkpt><trkpt lat="43.38787" lon="10.4347067"><ele>7.0</ele><time>2026-05-01T14:15:36.729Z</time></trkpt><trkpt lat="43.38778" lon="10.43478"><ele>7.8</ele><time>2026-05-01T14:15:37.728Z</time></trkpt><trkpt lat="43.3876883" lon="10.43485"><ele>8.6</ele><time>2026-05-01T14:15:38.727Z</time></trkpt><trkpt lat="43.3875883" lon="10.4349217"><ele>9.4</ele><time>2026-05-01T14:15:39.728Z</time></trkpt><trkpt lat="43.387495" lon="10.4349917"><ele>10.200000000000001</ele><time>2026-05-01T14:15:40.727Z</time></trkpt><trkpt lat="43.3874033" lon="10.4350683"><ele>11.0</ele><time>2026-05-01T14:15:41.728Z</time></trkpt><trkpt lat="43.387305" lon="10.4351367"><ele>11.0</ele><time>2026-05-01T14:15:42.728Z</time></trkpt><trkpt lat="43.387205" lon="10.435205"><ele>11.0</ele><time>2026-05-01T14:15:43.728Z</time></trkpt><trkpt lat="43.3870983" lon="10.4352717"><ele>11.0</ele><time>2026-05-01T14:15:44.73Z</time></trkpt><trkpt lat="43.3870017" lon="10.4353417"><ele>11.0</ele><time>2026-05-01T14:15:45.729Z</time></trkpt><trkpt lat="43.3868983" lon="10.4354083"><ele>10.8</ele><time>2026-05-01T14:15:46.729Z</time></trkpt><trkpt lat="43.3868033" lon="10.435475"><ele>10.600000000000001</ele><time>2026-05-01T14:15:47.728Z</time></trkpt><trkpt lat="43.38671" lon="10.4355467"><ele>10.4</ele><time>2026-05-01T14:15:48.727Z</time></trkpt><trkpt lat="43.3866233" lon="10.4356183"><ele>10.2</ele><time>2026-05-01T14:15:49.727Z</time></trkpt><trkpt lat="43.3865483" lon="10.4356717"><ele>10.0</ele><time>2026-05-01T14:15:50.73Z</time></trkpt><trkpt lat="43.3864833" lon="10.435725"><ele>10.0</ele><time>2026-05-01T14:15:51.728Z</time></trkpt><trkpt lat="43.386415" lon="10.435765"><ele>10.0</ele><time>2026-05-01T14:15:52.728Z</time></trkpt><trkpt lat="43.3863517" lon="10.4358117"><ele>10.0</ele><time>2026-05-01T14:15:53.728Z</time></trkpt><trkpt lat="43.3862917" lon="10.4358533"><ele>10.0</ele><time>2026-05-01T14:15:54.728Z</time></trkpt><trkpt lat="43.3862233" lon="10.4359133"><ele>10.0</ele><time>2026-05-01T14:15:55.728Z</time></trkpt><trkpt lat="43.3861533" lon="10.4359967"><ele>10.0</ele><time>2026-05-01T14:15:56.728Z</time></trkpt><trkpt lat="43.3860817" lon="10.4360783"><ele>9.6</ele><time>2026-05-01T14:15:57.727Z</time></trkpt><trkpt lat="43.3860033" lon="10.436155"><ele>9.2</ele><time>2026-05-01T14:15:58.727Z</time></trkpt><trkpt lat="43.3859183" lon="10.4362317"><ele>8.8</ele><time>2026-05-01T14:15:59.728Z</time></trkpt><trkpt lat="43.3858367" lon="10.4363033"><ele>8.4</ele><time>2026-05-01T14:16:00.728Z</time></trkpt><trkpt lat="43.3857517" lon="10.4363733"><ele>8.0</ele><time>2026-05-01T14:16:01.728Z</time></trkpt><trkpt lat="43.3856633" lon="10.4364467"><ele>8.0</ele><time>2026-05-01T14:16:02.727Z</time></trkpt><trkpt lat="43.3855667" lon="10.4365183"><ele>8.0</ele><time>2026-05-01T14:16:03.728Z</time></trkpt><trkpt lat="43.3854717" lon="10.436595"><ele>8.0</ele><time>2026-05-01T14:16:04.728Z</time></trkpt><trkpt lat="43.3853783" lon="10.4366733"><ele>8.0</ele><time>2026-05-01T14:16:05.728Z</time></trkpt><trkpt lat="43.3852667" lon="10.4367467"><ele>7.5</ele><time>2026-05-01T14:16:06.728Z</time></trkpt><trkpt lat="43.38517" lon="10.4368283"><ele>7.0</ele><time>2026-05-01T14:16:07.727Z</time></trkpt><trkpt lat="43.3850683" lon="10.4369083"><ele>6.5</ele><time>2026-05-01T14:16:08.727Z</time></trkpt><trkpt lat="43.384965" lon="10.436985"><ele>6.0</ele><time>2026-05-01T14:16:09.727Z</time></trkpt><trkpt lat="43.3848717" lon="10.43706"><ele>6.0</ele><time>2026-05-01T14:16:10.728Z</time></trkpt><trkpt lat="43.38478" lon="10.43713"><ele>6.0</ele><time>2026-05-01T14:16:11.728Z</time></trkpt><trkpt lat="43.3846967" lon="10.4371933"><ele>6.0</ele><time>2026-05-01T14:16:12.727Z</time></trkpt><trkpt lat="43.3846183" lon="10.4372517"><ele>6.0</ele><time>2026-05-01T14:16:13.728Z</time></trkpt><trkpt lat="43.384545" lon="10.437305"><ele>6.0</ele><time>2026-05-01T14:16:14.727Z</time></trkpt><trkpt lat="43.38448" lon="10.437355"><ele>6.0</ele><time>2026-05-01T14:16:15.728Z</time></trkpt><trkpt lat="43.3844267" lon="10.4374083"><ele>5.833333333333333</ele><time>2026-05-01T14:16:16.726Z</time></trkpt><trkpt lat="43.38432" lon="10.4374767"><ele>5.666666666666667</ele><time>2026-05-01T14:16:18.728Z</time></trkpt><trkpt lat="43.38427" lon="10.4375633"><ele>5.5</ele><time>2026-05-01T14:16:20.728Z</time></trkpt><trkpt lat="43.3843133" lon="10.437685"><ele>5.333333333333334</ele><time>2026-05-01T14:16:22.726Z</time></trkpt><trkpt lat="43.3843617" lon="10.43775"><ele>5.166666666666667</ele><time>2026-05-01T14:16:23.727Z</time></trkpt><trkpt lat="43.3844067" lon="10.4378333"><ele>5.0</ele><time>2026-05-01T14:16:24.728Z</time></trkpt><trkpt lat="43.3844467" lon="10.4379317"><ele>5.0</ele><time>2026-05-01T14:16:25.729Z</time></trkpt><trkpt lat="43.3844883" lon="10.438035"><ele>5.0</ele><time>2026-05-01T14:16:26.728Z</time></trkpt><trkpt lat="43.3845333" lon="10.4381383"><ele>5.0</ele><time>2026-05-01T14:16:27.727Z</time></trkpt><trkpt lat="43.3845817" lon="10.4382417"><ele>5.0</ele><time>2026-05-01T14:16:28.728Z</time></trkpt><trkpt lat="43.3846333" lon="10.438345"><ele>5.0</ele><time>2026-05-01T14:16:29.728Z</time></trkpt><trkpt lat="43.3846833" lon="10.4384533"><ele>5.0</ele><time>2026-05-01T14:16:30.728Z</time></trkpt><trkpt lat="43.38473" lon="10.43855"><ele>5.333333333333334</ele><time>2026-05-01T14:16:31.728Z</time></trkpt><trkpt lat="43.3847717" lon="10.4386417"><ele>5.666666666666667</ele><time>2026-05-01T14:16:32.727Z</time></trkpt><trkpt lat="43.3848183" lon="10.4387433"><ele>6.0</ele><time>2026-05-01T14:16:33.728Z</time></trkpt><trkpt lat="43.3848617" lon="10.4388433"><ele>6.333333333333334</ele><time>2026-05-01T14:16:34.728Z</time></trkpt><trkpt lat="43.3849017" lon="10.43894"><ele>6.666666666666667</ele><time>2026-05-01T14:16:35.728Z</time></trkpt><trkpt lat="43.3849417" lon="10.4390417"><ele>7.0</ele><time>2026-05-01T14:16:36.728Z</time></trkpt><trkpt lat="43.38498" lon="10.439125"><ele>7.166666666666667</ele><time>2026-05-01T14:16:37.727Z</time></trkpt><trkpt lat="43.38501" lon="10.43921"><ele>7.333333333333334</ele><time>2026-05-01T14:16:38.728Z</time></trkpt><trkpt lat="43.38504" lon="10.439305"><ele>7.5</ele><time>2026-05-01T14:16:39.727Z</time></trkpt><trkpt lat="43.38507" lon="10.4393883"><ele>7.666666666666666</ele><time>2026-05-01T14:16:40.727Z</time></trkpt><trkpt lat="43.38513" lon="10.4395217"><ele>7.833333333333333</ele><time>2026-05-01T14:16:42.729Z</time></trkpt><trkpt lat="43.3851683" lon="10.4396283"><ele>8.0</ele><time>2026-05-01T14:16:44.728Z</time></trkpt><trkpt lat="43.3852133" lon="10.4397083"><ele>8.4</ele><time>2026-05-01T14:16:47.728Z</time></trkpt><trkpt lat="43.3852683" lon="10.4397867"><ele>8.8</ele><time>2026-05-01T14:17:01.728Z</time></trkpt><trkpt lat="43.3853633" lon="10.4398017"><ele>9.2</ele><time>2026-05-01T14:17:04.728Z</time></trkpt><trkpt lat="43.385475" lon="10.4397267"><ele>9.6</ele><time>2026-05-01T14:17:06.728Z</time></trkpt><trkpt lat="43.3855433" lon="10.4396717"><ele>10.0</ele><time>2026-05-01T14:17:07.728Z</time></trkpt><trkpt lat="43.3856133" lon="10.4396167"><ele>10.333333333333334</ele><time>2026-05-01T14:17:08.727Z</time></trkpt><trkpt lat="43.3856833" lon="10.439565"><ele>10.666666666666668</ele><time>2026-05-01T14:17:09.727Z</time></trkpt><trkpt lat="43.385755" lon="10.4395167"><ele>11.0</ele><time>2026-05-01T14:17:10.73Z</time></trkpt><trkpt lat="43.3858333" lon="10.4394567"><ele>11.333333333333334</ele><time>2026-05-01T14:17:11.729Z</time></trkpt><trkpt lat="43.3859133" lon="10.439395"><ele>11.666666666666666</ele><time>2026-05-01T14:17:12.728Z</time></trkpt><trkpt lat="43.3859983" lon="10.4393283"><ele>12.0</ele><time>2026-05-01T14:17:13.727Z</time></trkpt><trkpt lat="43.3860883" lon="10.4392583"><ele>12.0</ele><time>2026-05-01T14:17:14.727Z</time></trkpt><trkpt lat="43.3861767" lon="10.4391883"><ele>12.0</ele><time>2026-05-01T14:17:15.728Z</time></trkpt><trkpt lat="43.3862667" lon="10.4391167"><ele>12.0</ele><time>2026-05-01T14:17:16.727Z</time></trkpt><trkpt lat="43.386355" lon="10.439045"><ele>12.0</ele><time>2026-05-01T14:17:17.728Z</time></trkpt><trkpt lat="43.386445" lon="10.4389683"><ele>12.0</ele><time>2026-05-01T14:17:18.728Z</time></trkpt><trkpt lat="43.3865367" lon="10.438895"><ele>11.8</ele><time>2026-05-01T14:17:19.728Z</time></trkpt><trkpt lat="43.3866317" lon="10.4388217"><ele>11.6</ele><time>2026-05-01T14:17:20.729Z</time></trkpt><trkpt lat="43.3867233" lon="10.4387483"><ele>11.4</ele><time>2026-05-01T14:17:21.728Z</time></trkpt><trkpt lat="43.3868117" lon="10.43868"><ele>11.200000000000001</ele><time>2026-05-01T14:17:22.728Z</time></trkpt><trkpt lat="43.38689" lon="10.4386117"><ele>11.0</ele><time>2026-05-01T14:17:23.729Z</time></trkpt><trkpt lat="43.3869683" lon="10.4385483"><ele>10.666666666666666</ele><time>2026-05-01T14:17:24.728Z</time></trkpt><trkpt lat="43.3870417" lon="10.4384933"><ele>10.333333333333332</ele><time>2026-05-01T14:17:25.729Z</time></trkpt><trkpt lat="43.3871083" lon="10.438445"><ele>10.0</ele><time>2026-05-01T14:17:26.729Z</time></trkpt><trkpt lat="43.387175" lon="10.4383933"><ele>9.666666666666666</ele><time>2026-05-01T14:17:27.728Z</time></trkpt><trkpt lat="43.3872467" lon="10.4383433"><ele>9.333333333333334</ele><time>2026-05-01T14:17:28.73Z</time></trkpt><trkpt lat="43.3873217" lon="10.4382883"><ele>9.0</ele><time>2026-05-01T14:17:29.731Z</time></trkpt><trkpt lat="43.387395" lon="10.43823"><ele>9.0</ele><time>2026-05-01T14:17:30.728Z</time></trkpt><trkpt lat="43.38747" lon="10.4381633"><ele>9.0</ele><time>2026-05-01T14:17:31.73Z</time></trkpt><trkpt lat="43.3875467" lon="10.4380967"><ele>9.0</ele><time>2026-05-01T14:17:32.73Z</time></trkpt><trkpt lat="43.3876233" lon="10.4380317"><ele>9.0</ele><time>2026-05-01T14:17:33.729Z</time></trkpt><trkpt lat="43.3877" lon="10.4379717"><ele>9.0</ele><time>2026-05-01T14:17:34.727Z</time></trkpt><trkpt lat="43.3877783" lon="10.437905"><ele>9.166666666666666</ele><time>2026-05-01T14:17:35.727Z</time></trkpt><trkpt lat="43.3878567" lon="10.437845"><ele>9.333333333333334</ele><time>2026-05-01T14:17:36.729Z</time></trkpt><trkpt lat="43.3879367" lon="10.4377833"><ele>9.5</ele><time>2026-05-01T14:17:37.727Z</time></trkpt><trkpt lat="43.388015" lon="10.43773"><ele>9.666666666666668</ele><time>2026-05-01T14:17:38.731Z</time></trkpt><trkpt lat="43.388095" lon="10.4376717"><ele>9.833333333333334</ele><time>2026-05-01T14:17:39.729Z</time></trkpt><trkpt lat="43.3881717" lon="10.4376183"><ele>10.0</ele><time>2026-05-01T14:17:40.728Z</time></trkpt><trkpt lat="43.3882517" lon="10.4375567"><ele>10.0</ele><time>2026-05-01T14:17:41.728Z</time></trkpt><trkpt lat="43.3883367" lon="10.43749"><ele>10.0</ele><time>2026-05-01T14:17:42.728Z</time></trkpt><trkpt lat="43.3884217" lon="10.4374333"><ele>10.0</ele><time>2026-05-01T14:17:43.727Z</time></trkpt><trkpt lat="43.3885083" lon="10.4373717"><ele>10.0</ele><time>2026-05-01T14:17:44.732Z</time></trkpt><trkpt lat="43.3886017" lon="10.437305"><ele>10.0</ele><time>2026-05-01T14:17:45.728Z</time></trkpt><trkpt lat="43.388695" lon="10.4372367"><ele>10.0</ele><time>2026-05-01T14:17:46.728Z</time></trkpt><trkpt lat="43.3887833" lon="10.4371633"><ele>10.0</ele><time>2026-05-01T14:17:47.729Z</time></trkpt><trkpt lat="43.388865" lon="10.4370967"><ele>10.0</ele><time>2026-05-01T14:17:48.729Z</time></trkpt><trkpt lat="43.388945" lon="10.4370267"><ele>10.0</ele><time>2026-05-01T14:17:49.728Z</time></trkpt><trkpt lat="43.3890283" lon="10.4369533"><ele>10.0</ele><time>2026-05-01T14:17:50.729Z</time></trkpt><trkpt lat="43.3891117" lon="10.4368867"><ele>10.2</ele><time>2026-05-01T14:17:51.729Z</time></trkpt><trkpt lat="43.3891967" lon="10.4368267"><ele>10.4</ele><time>2026-05-01T14:17:52.728Z</time></trkpt><trkpt lat="43.3892833" lon="10.4367633"><ele>10.600000000000001</ele><time>2026-05-01T14:17:53.727Z</time></trkpt><trkpt lat="43.3893667" lon="10.43671"><ele>10.8</ele><time>2026-05-01T14:17:54.728Z</time></trkpt><trkpt lat="43.3894567" lon="10.436645"><ele>11.0</ele><time>2026-05-01T14:17:55.728Z</time></trkpt><trkpt lat="43.389545" lon="10.4365717"><ele>11.0</ele><time>2026-05-01T14:17:56.728Z</time></trkpt><trkpt lat="43.38963" lon="10.4364983"><ele>11.0</ele><time>2026-05-01T14:17:57.728Z</time></trkpt><trkpt lat="43.3897167" lon="10.4364217"><ele>11.0</ele><time>2026-05-01T14:17:58.727Z</time></trkpt><trkpt lat="43.3898" lon="10.4363533"><ele>11.0</ele><time>2026-05-01T14:17:59.728Z</time></trkpt><trkpt lat="43.38989" lon="10.436275"><ele>11.0</ele><time>2026-05-01T14:18:00.728Z</time></trkpt><trkpt lat="43.38998" lon="10.4362017"><ele>11.200000000000001</ele><time>2026-05-01T14:18:01.728Z</time></trkpt><trkpt lat="43.390065" lon="10.4361367"><ele>11.4</ele><time>2026-05-01T14:18:02.728Z</time></trkpt><trkpt lat="43.390145" lon="10.4360667"><ele>11.6</ele><time>2026-05-01T14:18:03.727Z</time></trkpt><trkpt lat="43.3902367" lon="10.4359917"><ele>11.8</ele><time>2026-05-01T14:18:04.728Z</time></trkpt><trkpt lat="43.39032" lon="10.43593"><ele>12.0</ele><time>2026-05-01T14:18:05.728Z</time></trkpt><trkpt lat="43.390405" lon="10.4358633"><ele>12.0</ele><time>2026-05-01T14:18:06.727Z</time></trkpt><trkpt lat="43.3904883" lon="10.4358083"><ele>12.0</ele><time>2026-05-01T14:18:07.728Z</time></trkpt><trkpt lat="43.3905717" lon="10.4357433"><ele>12.0</ele><time>2026-05-01T14:18:08.728Z</time></trkpt><trkpt lat="43.3906517" lon="10.4356783"><ele>12.0</ele><time>2026-05-01T14:18:09.728Z</time></trkpt><trkpt lat="43.3907317" lon="10.4356233"><ele>12.0</ele><time>2026-05-01T14:18:10.728Z</time></trkpt><trkpt lat="43.39081" lon="10.43556"><ele>12.0</ele><time>2026-05-01T14:18:11.728Z</time></trkpt><trkpt lat="43.3908883" lon="10.4354883"><ele>12.0</ele><time>2026-05-01T14:18:12.728Z</time></trkpt><trkpt lat="43.390965" lon="10.4354217"><ele>12.0</ele><time>2026-05-01T14:18:13.728Z</time></trkpt><trkpt lat="43.3910517" lon="10.43535"><ele>12.0</ele><time>2026-05-01T14:18:14.729Z</time></trkpt><trkpt lat="43.39114" lon="10.435275"><ele>12.0</ele><time>2026-05-01T14:18:15.726Z</time></trkpt><trkpt lat="43.39122" lon="10.4352167"><ele>12.0</ele><time>2026-05-01T14:18:16.727Z</time></trkpt><trkpt lat="43.391305" lon="10.4351567"><ele>12.0</ele><time>2026-05-01T14:18:17.727Z</time></trkpt><trkpt lat="43.391385" lon="10.4350933"><ele>12.0</ele><time>2026-05-01T14:18:18.726Z</time></trkpt><trkpt lat="43.3914733" lon="10.4350283"><ele>12.0</ele><time>2026-05-01T14:18:19.727Z</time></trkpt><trkpt lat="43.391565" lon="10.4349583"><ele>12.0</ele><time>2026-05-01T14:18:20.726Z</time></trkpt><trkpt lat="43.3916517" lon="10.4348967"><ele>12.0</ele><time>2026-05-01T14:18:21.727Z</time></trkpt><trkpt lat="43.3917417" lon="10.4348317"><ele>12.0</ele><time>2026-05-01T14:18:22.727Z</time></trkpt><trkpt lat="43.391835" lon="10.4347633"><ele>12.0</ele><time>2026-05-01T14:18:23.726Z</time></trkpt><trkpt lat="43.3919367" lon="10.4346833"><ele>12.0</ele><time>2026-05-01T14:18:24.727Z</time></trkpt><trkpt lat="43.3920333" lon="10.4346083"><ele>12.0</ele><time>2026-05-01T14:18:25.727Z</time></trkpt><trkpt lat="43.3921333" lon="10.434525"><ele>12.0</ele><time>2026-05-01T14:18:26.728Z</time></trkpt><trkpt lat="43.3922233" lon="10.4344517"><ele>12.0</ele><time>2026-05-01T14:18:27.727Z</time></trkpt><trkpt lat="43.3923183" lon="10.4343683"><ele>12.0</ele><time>2026-05-01T14:18:28.727Z</time></trkpt><trkpt lat="43.39241" lon="10.4342983"><ele>12.0</ele><time>2026-05-01T14:18:29.728Z</time></trkpt><trkpt lat="43.3924983" lon="10.4342317"><ele>12.0</ele><time>2026-05-01T14:18:30.727Z</time></trkpt><trkpt lat="43.39259" lon="10.43415"><ele>12.0</ele><time>2026-05-01T14:18:31.727Z</time></trkpt><trkpt lat="43.3926717" lon="10.4340867"><ele>12.0</ele><time>2026-05-01T14:18:32.728Z</time></trkpt><trkpt lat="43.3927567" lon="10.4340167"><ele>12.0</ele><time>2026-05-01T14:18:33.728Z</time></trkpt><trkpt lat="43.3928367" lon="10.4339483"><ele>12.0</ele><time>2026-05-01T14:18:34.726Z</time></trkpt><trkpt lat="43.3929183" lon="10.4338817"><ele>12.0</ele><time>2026-05-01T14:18:35.728Z</time></trkpt><trkpt lat="43.3929967" lon="10.4338283"><ele>12.399999999999999</ele><time>2026-05-01T14:18:36.727Z</time></trkpt><trkpt lat="43.3930817" lon="10.4337683"><ele>12.799999999999999</ele><time>2026-05-01T14:18:37.727Z</time></trkpt><trkpt lat="43.3931667" lon="10.4336967"><ele>13.2</ele><time>2026-05-01T14:18:38.728Z</time></trkpt><trkpt lat="43.3932517" lon="10.43363"><ele>13.6</ele><time>2026-05-01T14:18:39.727Z</time></trkpt><trkpt lat="43.39333" lon="10.43357"><ele>14.0</ele><time>2026-05-01T14:18:40.728Z</time></trkpt><trkpt lat="43.3934133" lon="10.433505"><ele>14.0</ele><time>2026-05-01T14:18:41.727Z</time></trkpt><trkpt lat="43.3934983" lon="10.4334383"><ele>13.999999999999998</ele><time>2026-05-01T14:18:42.726Z</time></trkpt><trkpt lat="43.39358" lon="10.43338"><ele>13.999999999999998</ele><time>2026-05-01T14:18:43.726Z</time></trkpt><trkpt lat="43.3936617" lon="10.4333117"><ele>14.0</ele><time>2026-05-01T14:18:44.727Z</time></trkpt><trkpt lat="43.3937433" lon="10.4332567"><ele>14.0</ele><time>2026-05-01T14:18:45.726Z</time></trkpt><trkpt lat="43.393825" lon="10.43319"><ele>14.166666666666668</ele><time>2026-05-01T14:18:46.726Z</time></trkpt><trkpt lat="43.39391" lon="10.4331233"><ele>14.333333333333334</ele><time>2026-05-01T14:18:47.727Z</time></trkpt><trkpt lat="43.393985" lon="10.4330633"><ele>14.5</ele><time>2026-05-01T14:18:48.726Z</time></trkpt><trkpt lat="43.394055" lon="10.4330083"><ele>14.666666666666668</ele><time>2026-05-01T14:18:49.727Z</time></trkpt><trkpt lat="43.3941167" lon="10.4329567"><ele>14.833333333333334</ele><time>2026-05-01T14:18:50.727Z</time></trkpt><trkpt lat="43.3941767" lon="10.43291"><ele>15.0</ele><time>2026-05-01T14:18:51.727Z</time></trkpt><trkpt lat="43.3942433" lon="10.4328583"><ele>14.5</ele><time>2026-05-01T14:18:52.727Z</time></trkpt><trkpt lat="43.394315" lon="10.4328067"><ele>14.0</ele><time>2026-05-01T14:18:53.728Z</time></trkpt><trkpt lat="43.3943883" lon="10.43274"><ele>13.5</ele><time>2026-05-01T14:18:54.727Z</time></trkpt><trkpt lat="43.3944583" lon="10.4326833"><ele>13.0</ele><time>2026-05-01T14:18:55.727Z</time></trkpt><trkpt lat="43.3945333" lon="10.43263"><ele>12.5</ele><time>2026-05-01T14:18:56.727Z</time></trkpt><trkpt lat="43.394605" lon="10.43258"><ele>12.0</ele><time>2026-05-01T14:18:57.726Z</time></trkpt><trkpt lat="43.39468" lon="10.4325167"><ele>12.0</ele><time>2026-05-01T14:18:58.729Z</time></trkpt><trkpt lat="43.3947533" lon="10.4324583"><ele>12.0</ele><time>2026-05-01T14:18:59.726Z</time></trkpt><trkpt lat="43.39483" lon="10.4323983"><ele>12.0</ele><time>2026-05-01T14:19:00.727Z</time></trkpt><trkpt lat="43.3949133" lon="10.432335"><ele>12.0</ele><time>2026-05-01T14:19:01.728Z</time></trkpt><trkpt lat="43.3949917" lon="10.4322733"><ele>12.0</ele><time>2026-05-01T14:19:02.727Z</time></trkpt><trkpt lat="43.39507" lon="10.4322083"><ele>12.0</ele><time>2026-05-01T14:19:03.727Z</time></trkpt><trkpt lat="43.3951483" lon="10.43214"><ele>12.0</ele><time>2026-05-01T14:19:04.728Z</time></trkpt><trkpt lat="43.3952233" lon="10.4320817"><ele>12.0</ele><time>2026-05-01T14:19:05.727Z</time></trkpt><trkpt lat="43.3953" lon="10.432025"><ele>12.0</ele><time>2026-05-01T14:19:06.728Z</time></trkpt><trkpt lat="43.3953717" lon="10.4319717"><ele>12.0</ele><time>2026-05-01T14:19:07.728Z</time></trkpt><trkpt lat="43.3954467" lon="10.431935"><ele>12.0</ele><time>2026-05-01T14:19:08.728Z</time></trkpt><trkpt lat="43.3955267" lon="10.4319133"><ele>11.666666666666666</ele><time>2026-05-01T14:19:09.727Z</time></trkpt><trkpt lat="43.3956133" lon="10.4319133"><ele>11.333333333333334</ele><time>2026-05-01T14:19:10.727Z</time></trkpt><trkpt lat="43.3956983" lon="10.4319267"><ele>11.0</ele><time>2026-05-01T14:19:11.728Z</time></trkpt><trkpt lat="43.395785" lon="10.431955"><ele>10.666666666666668</ele><time>2026-05-01T14:19:12.728Z</time></trkpt><trkpt lat="43.395875" lon="10.4319733"><ele>10.333333333333334</ele><time>2026-05-01T14:19:13.729Z</time></trkpt><trkpt lat="43.3959617" lon="10.4319833"><ele>10.0</ele><time>2026-05-01T14:19:14.728Z</time></trkpt><trkpt lat="43.3960483" lon="10.4319717"><ele>10.0</ele><time>2026-05-01T14:19:15.728Z</time></trkpt><trkpt lat="43.3961367" lon="10.4319433"><ele>10.0</ele><time>2026-05-01T14:19:16.727Z</time></trkpt><trkpt lat="43.39622" lon="10.4319083"><ele>10.0</ele><time>2026-05-01T14:19:17.727Z</time></trkpt><trkpt lat="43.3962917" lon="10.4318733"><ele>10.0</ele><time>2026-05-01T14:19:18.728Z</time></trkpt><trkpt lat="43.3964" lon="10.4318417"><ele>10.0</ele><time>2026-05-01T14:19:20.729Z</time></trkpt><trkpt lat="43.3964867" lon="10.4318633"><ele>10.4</ele><time>2026-05-01T14:19:22.728Z</time></trkpt><trkpt lat="43.3965483" lon="10.4319717"><ele>10.8</ele><time>2026-05-01T14:19:24.727Z</time></trkpt><trkpt lat="43.39658" lon="10.43208"><ele>11.2</ele><time>2026-05-01T14:19:25.727Z</time></trkpt><trkpt lat="43.3966117" lon="10.432205"><ele>11.6</ele><time>2026-05-01T14:19:26.728Z</time></trkpt><trkpt lat="43.3966483" lon="10.4323533"><ele>12.0</ele><time>2026-05-01T14:19:27.727Z</time></trkpt><trkpt lat="43.3966867" lon="10.4325183"><ele>12.0</ele><time>2026-05-01T14:19:28.727Z</time></trkpt><trkpt lat="43.3967283" lon="10.4326983"><ele>12.0</ele><time>2026-05-01T14:19:29.726Z</time></trkpt><trkpt lat="43.3967683" lon="10.4328683"><ele>12.0</ele><time>2026-05-01T14:19:30.728Z</time></trkpt><trkpt lat="43.396805" lon="10.43304"><ele>12.0</ele><time>2026-05-01T14:19:31.728Z</time></trkpt><trkpt lat="43.3968467" lon="10.4332133"><ele>12.0</ele><time>2026-05-01T14:19:32.727Z</time></trkpt><trkpt lat="43.3968917" lon="10.4333933"><ele>12.0</ele><time>2026-05-01T14:19:33.727Z</time></trkpt><trkpt lat="43.3969367" lon="10.43357"><ele>12.0</ele><time>2026-05-01T14:19:34.726Z</time></trkpt><trkpt lat="43.39698" lon="10.4337433"><ele>12.0</ele><time>2026-05-01T14:19:35.727Z</time></trkpt><trkpt lat="43.3970217" lon="10.4339217"><ele>12.0</ele><time>2026-05-01T14:19:36.726Z</time></trkpt><trkpt lat="43.3970633" lon="10.434095"><ele>12.0</ele><time>2026-05-01T14:19:37.728Z</time></trkpt><trkpt lat="43.3970967" lon="10.43426"><ele>12.0</ele><time>2026-05-01T14:19:38.727Z</time></trkpt><trkpt lat="43.3971317" lon="10.4344183"><ele>12.0</ele><time>2026-05-01T14:19:39.728Z</time></trkpt><trkpt lat="43.397165" lon="10.4345683"><ele>12.666666666666666</ele><time>2026-05-01T14:19:40.726Z</time></trkpt><trkpt lat="43.3971833" lon="10.43469"><ele>13.333333333333332</ele><time>2026-05-01T14:19:41.728Z</time></trkpt><trkpt lat="43.3972" lon="10.4348"><ele>14.0</ele><time>2026-05-01T14:19:42.727Z</time></trkpt><trkpt lat="43.3972167" lon="10.4348967"><ele>14.666666666666666</ele><time>2026-05-01T14:19:43.728Z</time></trkpt><trkpt lat="43.3972233" lon="10.4350583"><ele>15.333333333333332</ele><time>2026-05-01T14:19:45.728Z</time></trkpt><trkpt lat="43.3972233" lon="10.435155"><ele>16.0</ele><time>2026-05-01T14:19:46.728Z</time></trkpt><trkpt lat="43.3972333" lon="10.4352467"><ele>15.999999999999998</ele><time>2026-05-01T14:19:47.726Z</time></trkpt><trkpt lat="43.39726" lon="10.435335"><ele>16.0</ele><time>2026-05-01T14:19:48.727Z</time></trkpt><trkpt lat="43.3973" lon="10.4354283"><ele>16.0</ele><time>2026-05-01T14:19:49.727Z</time></trkpt><trkpt lat="43.3973517" lon="10.4355333"><ele>16.0</ele><time>2026-05-01T14:19:50.727Z</time></trkpt><trkpt lat="43.3973817" lon="10.43565"><ele>15.999999999999998</ele><time>2026-05-01T14:19:51.727Z</time></trkpt><trkpt lat="43.3973933" lon="10.4357733"><ele>16.0</ele><time>2026-05-01T14:19:52.728Z</time></trkpt><trkpt lat="43.397405" lon="10.4359133"><ele>16.6</ele><time>2026-05-01T14:19:53.728Z</time></trkpt><trkpt lat="43.3974133" lon="10.436065"><ele>17.200000000000003</ele><time>2026-05-01T14:19:54.727Z</time></trkpt><trkpt lat="43.3974233" lon="10.436215"><ele>17.799999999999997</ele><time>2026-05-01T14:19:55.728Z</time></trkpt><trkpt lat="43.3974317" lon="10.43637"><ele>18.4</ele><time>2026-05-01T14:19:56.726Z</time></trkpt><trkpt lat="43.3974517" lon="10.4365267"><ele>19.0</ele><time>2026-05-01T14:19:57.727Z</time></trkpt><trkpt lat="43.3974683" lon="10.43668"><ele>19.0</ele><time>2026-05-01T14:19:58.728Z</time></trkpt><trkpt lat="43.39748" lon="10.4368467"><ele>19.0</ele><time>2026-05-01T14:19:59.729Z</time></trkpt><trkpt lat="43.3974933" lon="10.4370083"><ele>19.0</ele><time>2026-05-01T14:20:00.727Z</time></trkpt><trkpt lat="43.397505" lon="10.43717"><ele>19.0</ele><time>2026-05-01T14:20:01.727Z</time></trkpt><trkpt lat="43.39752" lon="10.4373233"><ele>19.333333333333332</ele><time>2026-05-01T14:20:02.727Z</time></trkpt><trkpt lat="43.3975333" lon="10.4374633"><ele>19.666666666666664</ele><time>2026-05-01T14:20:03.727Z</time></trkpt><trkpt lat="43.39755" lon="10.4375867"><ele>20.0</ele><time>2026-05-01T14:20:04.728Z</time></trkpt><trkpt lat="43.3975633" lon="10.437695"><ele>20.333333333333332</ele><time>2026-05-01T14:20:05.728Z</time></trkpt><trkpt lat="43.397585" lon="10.4377767"><ele>20.666666666666668</ele><time>2026-05-01T14:20:06.726Z</time></trkpt><trkpt lat="43.3976367" lon="10.4378967"><ele>21.0</ele><time>2026-05-01T14:20:08.727Z</time></trkpt><trkpt lat="43.3977017" lon="10.4379317"><ele>21.0</ele><time>2026-05-01T14:20:10.729Z</time></trkpt><trkpt lat="43.3977633" lon="10.4378617"><ele>21.0</ele><time>2026-05-01T14:20:11.727Z</time></trkpt><trkpt lat="43.3978483" lon="10.43777"><ele>21.0</ele><time>2026-05-01T14:20:12.727Z</time></trkpt><trkpt lat="43.3979183" lon="10.437725"><ele>21.0</ele><time>2026-05-01T14:20:13.727Z</time></trkpt><trkpt lat="43.3979933" lon="10.4376683"><ele>21.0</ele><time>2026-05-01T14:20:14.727Z</time></trkpt><trkpt lat="43.3980667" lon="10.4376033"><ele>21.0</ele><time>2026-05-01T14:20:15.727Z</time></trkpt><trkpt lat="43.3981333" lon="10.43755"><ele>21.0</ele><time>2026-05-01T14:20:16.727Z</time></trkpt><trkpt lat="43.3982033" lon="10.437495"><ele>21.0</ele><time>2026-05-01T14:20:17.729Z</time></trkpt><trkpt lat="43.3982717" lon="10.4374667"><ele>21.0</ele><time>2026-05-01T14:20:18.728Z</time></trkpt><trkpt lat="43.3983483" lon="10.4374567"><ele>21.0</ele><time>2026-05-01T14:20:19.727Z</time></trkpt><trkpt lat="43.3984283" lon="10.4374617"><ele>21.0</ele><time>2026-05-01T14:20:20.728Z</time></trkpt><trkpt lat="43.3984983" lon="10.4375017"><ele>21.0</ele><time>2026-05-01T14:20:21.727Z</time></trkpt><trkpt lat="43.3985833" lon="10.437575"><ele>21.0</ele><time>2026-05-01T14:20:22.728Z</time></trkpt><trkpt lat="43.398675" lon="10.4376717"><ele>21.0</ele><time>2026-05-01T14:20:23.728Z</time></trkpt><trkpt lat="43.39876" lon="10.4377467"><ele>21.0</ele><time>2026-05-01T14:20:24.728Z</time></trkpt><trkpt lat="43.398845" lon="10.437825"><ele>21.0</ele><time>2026-05-01T14:20:25.728Z</time></trkpt><trkpt lat="43.39894" lon="10.43792"><ele>21.0</ele><time>2026-05-01T14:20:26.728Z</time></trkpt><trkpt lat="43.3990317" lon="10.4380067"><ele>21.8</ele><time>2026-05-01T14:20:27.728Z</time></trkpt><trkpt lat="43.3991233" lon="10.438095"><ele>22.6</ele><time>2026-05-01T14:20:28.728Z</time></trkpt><trkpt lat="43.39921" lon="10.438175"><ele>23.4</ele><time>2026-05-01T14:20:29.727Z</time></trkpt><trkpt lat="43.39929" lon="10.438255"><ele>24.2</ele><time>2026-05-01T14:20:30.728Z</time></trkpt><trkpt lat="43.39937" lon="10.4383317"><ele>25.0</ele><time>2026-05-01T14:20:31.728Z</time></trkpt><trkpt lat="43.3994517" lon="10.4384"><ele>25.000000000000004</ele><time>2026-05-01T14:20:32.727Z</time></trkpt><trkpt lat="43.3995267" lon="10.4384633"><ele>25.0</ele><time>2026-05-01T14:20:33.727Z</time></trkpt><trkpt lat="43.3995983" lon="10.4385233"><ele>25.0</ele><time>2026-05-01T14:20:34.728Z</time></trkpt><trkpt lat="43.39966" lon="10.4385733"><ele>25.0</ele><time>2026-05-01T14:20:35.727Z</time></trkpt><trkpt lat="43.399755" lon="10.438635"><ele>25.000000000000004</ele><time>2026-05-01T14:20:37.728Z</time></trkpt><trkpt lat="43.3998333" lon="10.4386267"><ele>25.0</ele><time>2026-05-01T14:20:40.729Z</time></trkpt><trkpt lat="43.3999117" lon="10.438495"><ele>25.0</ele><time>2026-05-01T14:20:43.729Z</time></trkpt><trkpt lat="43.3999417" lon="10.4384067"><ele>25.0</ele><time>2026-05-01T14:20:44.729Z</time></trkpt><trkpt lat="43.3999717" lon="10.4382883"><ele>25.0</ele><time>2026-05-01T14:20:45.731Z</time></trkpt><trkpt lat="43.4000167" lon="10.43812"><ele>25.0</ele><time>2026-05-01T14:20:46.726Z</time></trkpt><trkpt lat="43.40007" lon="10.4379067"><ele>25.333333333333336</ele><time>2026-05-01T14:20:47.727Z</time></trkpt><trkpt lat="43.4001283" lon="10.4376983"><ele>25.666666666666664</ele><time>2026-05-01T14:20:48.729Z</time></trkpt><trkpt lat="43.4001833" lon="10.4375117"><ele>26.0</ele><time>2026-05-01T14:20:49.728Z</time></trkpt><trkpt lat="43.4002367" lon="10.43731"><ele>25.75</ele><time>2026-05-01T14:20:50.728Z</time></trkpt><trkpt lat="43.4002867" lon="10.4371083"><ele>25.5</ele><time>2026-05-01T14:20:51.729Z</time></trkpt><trkpt lat="43.4003383" lon="10.43692"><ele>25.25</ele><time>2026-05-01T14:20:52.728Z</time></trkpt><trkpt lat="43.4003917" lon="10.4367617"><ele>25.0</ele><time>2026-05-01T14:20:53.728Z</time></trkpt><trkpt lat="43.4004533" lon="10.436635"><ele>24.8</ele><time>2026-05-01T14:20:54.727Z</time></trkpt><trkpt lat="43.4005133" lon="10.436515"><ele>24.6</ele><time>2026-05-01T14:20:55.728Z</time></trkpt><trkpt lat="43.4005917" lon="10.4363917"><ele>24.4</ele><time>2026-05-01T14:20:56.727Z</time></trkpt><trkpt lat="43.4006717" lon="10.4362817"><ele>24.2</ele><time>2026-05-01T14:20:57.726Z</time></trkpt><trkpt lat="43.4007433" lon="10.436185"><ele>24.0</ele><time>2026-05-01T14:20:58.728Z</time></trkpt><trkpt lat="43.4008083" lon="10.4360867"><ele>23.666666666666668</ele><time>2026-05-01T14:20:59.727Z</time></trkpt><trkpt lat="43.40087" lon="10.4359983"><ele>23.333333333333332</ele><time>2026-05-01T14:21:00.728Z</time></trkpt><trkpt lat="43.400925" lon="10.4359233"><ele>23.0</ele><time>2026-05-01T14:21:01.727Z</time></trkpt><trkpt lat="43.40098" lon="10.435795"><ele>22.666666666666664</ele><time>2026-05-01T14:21:03.73Z</time></trkpt><trkpt lat="43.40091" lon="10.4357217"><ele>22.333333333333332</ele><time>2026-05-01T14:21:06.727Z</time></trkpt><trkpt lat="43.400855" lon="10.4356733"><ele>22.0</ele><time>2026-05-01T14:21:07.728Z</time></trkpt><trkpt lat="43.4007917" lon="10.4355983"><ele>21.6</ele><time>2026-05-01T14:21:08.727Z</time></trkpt><trkpt lat="43.4007283" lon="10.4354567"><ele>21.200000000000003</ele><time>2026-05-01T14:21:09.728Z</time></trkpt><trkpt lat="43.4006983" lon="10.4353017"><ele>20.8</ele><time>2026-05-01T14:21:10.727Z</time></trkpt><trkpt lat="43.400695" lon="10.435145"><ele>20.4</ele><time>2026-05-01T14:21:11.728Z</time></trkpt><trkpt lat="43.4007117" lon="10.4350133"><ele>20.0</ele><time>2026-05-01T14:21:12.728Z</time></trkpt><trkpt lat="43.40075" lon="10.4349167"><ele>20.0</ele><time>2026-05-01T14:21:13.728Z</time></trkpt><trkpt lat="43.4008133" lon="10.434835"><ele>20.0</ele><time>2026-05-01T14:21:14.73Z</time></trkpt><trkpt lat="43.400895" lon="10.4348067"><ele>20.0</ele><time>2026-05-01T14:21:15.728Z</time></trkpt><trkpt lat="43.4009767" lon="10.43485"><ele>20.0</ele><time>2026-05-01T14:21:16.728Z</time></trkpt><trkpt lat="43.4010517" lon="10.4349183"><ele>20.0</ele><time>2026-05-01T14:21:17.729Z</time></trkpt><trkpt lat="43.4011217" lon="10.434995"><ele>20.0</ele><time>2026-05-01T14:21:18.728Z</time></trkpt><trkpt lat="43.401155" lon="10.4351967"><ele>20.0</ele><time>2026-05-01T14:21:19.728Z</time></trkpt><trkpt lat="43.4011833" lon="10.4353867"><ele>20.0</ele><time>2026-05-01T14:21:20.727Z</time></trkpt><trkpt lat="43.4012117" lon="10.4355833"><ele>20.0</ele><time>2026-05-01T14:21:21.728Z</time></trkpt><trkpt lat="43.401235" lon="10.4357817"><ele>20.0</ele><time>2026-05-01T14:21:22.728Z</time></trkpt><trkpt lat="43.401255" lon="10.4359883"><ele>20.666666666666668</ele><time>2026-05-01T14:21:23.736Z</time></trkpt><trkpt lat="43.401265" lon="10.4361983"><ele>21.333333333333332</ele><time>2026-05-01T14:21:24.728Z</time></trkpt><trkpt lat="43.4012617" lon="10.436405"><ele>22.0</ele><time>2026-05-01T14:21:25.728Z</time></trkpt><trkpt lat="43.40125" lon="10.436615"><ele>22.666666666666664</ele><time>2026-05-01T14:21:26.728Z</time></trkpt><trkpt lat="43.4012333" lon="10.4368267"><ele>23.333333333333332</ele><time>2026-05-01T14:21:27.727Z</time></trkpt><trkpt lat="43.4012183" lon="10.4370383"><ele>24.0</ele><time>2026-05-01T14:21:28.728Z</time></trkpt><trkpt lat="43.4012017" lon="10.4372533"><ele>24.333333333333336</ele><time>2026-05-01T14:21:29.728Z</time></trkpt><trkpt lat="43.4011883" lon="10.4374767"><ele>24.666666666666668</ele><time>2026-05-01T14:21:30.728Z</time></trkpt><trkpt lat="43.4011883" lon="10.43769"><ele>25.0</ele><time>2026-05-01T14:21:31.728Z</time></trkpt><trkpt lat="43.4012083" lon="10.4378983"><ele>25.333333333333336</ele><time>2026-05-01T14:21:32.729Z</time></trkpt><trkpt lat="43.4012533" lon="10.43811"><ele>25.666666666666664</ele><time>2026-05-01T14:21:33.728Z</time></trkpt><trkpt lat="43.4013167" lon="10.438305"><ele>26.0</ele><time>2026-05-01T14:21:34.727Z</time></trkpt><trkpt lat="43.4014017" lon="10.438485"><ele>27.25</ele><time>2026-05-01T14:21:35.727Z</time></trkpt><trkpt lat="43.401505" lon="10.438645"><ele>28.5</ele><time>2026-05-01T14:21:36.728Z</time></trkpt><trkpt lat="43.4016117" lon="10.4387867"><ele>29.75</ele><time>2026-05-01T14:21:37.728Z</time></trkpt><trkpt lat="43.4017133" lon="10.4389067"><ele>31.0</ele><time>2026-05-01T14:21:38.727Z</time></trkpt><trkpt lat="43.4018133" lon="10.4390083"><ele>31.6</ele><time>2026-05-01T14:21:39.727Z</time></trkpt><trkpt lat="43.4019067" lon="10.4391067"><ele>32.2</ele><time>2026-05-01T14:21:40.728Z</time></trkpt><trkpt lat="43.4019833" lon="10.4391933"><ele>32.8</ele><time>2026-05-01T14:21:41.729Z</time></trkpt><trkpt lat="43.402055" lon="10.439275"><ele>33.4</ele><time>2026-05-01T14:21:42.727Z</time></trkpt><trkpt lat="43.4021283" lon="10.439355"><ele>34.0</ele><time>2026-05-01T14:21:43.728Z</time></trkpt><trkpt lat="43.4022117" lon="10.43944"><ele>34.75</ele><time>2026-05-01T14:21:44.727Z</time></trkpt><trkpt lat="43.4022983" lon="10.4395333"><ele>35.5</ele><time>2026-05-01T14:21:45.727Z</time></trkpt><trkpt lat="43.402395" lon="10.4396333"><ele>36.25</ele><time>2026-05-01T14:21:46.728Z</time></trkpt><trkpt lat="43.40249" lon="10.4397383"><ele>37.0</ele><time>2026-05-01T14:21:47.728Z</time></trkpt><trkpt lat="43.4025833" lon="10.4398517"><ele>38.0</ele><time>2026-05-01T14:21:48.728Z</time></trkpt><trkpt lat="43.4026767" lon="10.439975"><ele>39.0</ele><time>2026-05-01T14:21:49.728Z</time></trkpt><trkpt lat="43.4027617" lon="10.4401067"><ele>40.0</ele><time>2026-05-01T14:21:50.727Z</time></trkpt><trkpt lat="43.4028317" lon="10.4402317"><ele>41.0</ele><time>2026-05-01T14:21:51.729Z</time></trkpt><trkpt lat="43.4028967" lon="10.4403617"><ele>41.5</ele><time>2026-05-01T14:21:52.727Z</time></trkpt><trkpt lat="43.402945" lon="10.440475"><ele>42.0</ele><time>2026-05-01T14:21:53.728Z</time></trkpt><trkpt lat="43.4029883" lon="10.44058"><ele>42.5</ele><time>2026-05-01T14:21:54.728Z</time></trkpt><trkpt lat="43.40302" lon="10.4406767"><ele>43.0</ele><time>2026-05-01T14:21:55.73Z</time></trkpt><trkpt lat="43.4030433" lon="10.440775"><ele>43.5</ele><time>2026-05-01T14:21:56.729Z</time></trkpt><trkpt lat="43.4030533" lon="10.4408683"><ele>44.0</ele><time>2026-05-01T14:21:57.729Z</time></trkpt><trkpt lat="43.4030733" lon="10.4409767"><ele>45.0</ele><time>2026-05-01T14:21:58.729Z</time></trkpt><trkpt lat="43.4031083" lon="10.4411083"><ele>46.0</ele><time>2026-05-01T14:21:59.729Z</time></trkpt><trkpt lat="43.4031517" lon="10.4412883"><ele>47.0</ele><time>2026-05-01T14:22:00.728Z</time></trkpt><trkpt lat="43.40319" lon="10.441475"><ele>48.0</ele><time>2026-05-01T14:22:01.73Z</time></trkpt><trkpt lat="43.4032233" lon="10.44165"><ele>48.599999999999994</ele><time>2026-05-01T14:22:02.729Z</time></trkpt><trkpt lat="43.4032483" lon="10.4418133"><ele>49.199999999999996</ele><time>2026-05-01T14:22:03.728Z</time></trkpt><trkpt lat="43.4032467" lon="10.441955"><ele>49.8</ele><time>2026-05-01T14:22:04.729Z</time></trkpt><trkpt lat="43.4032383" lon="10.442075"><ele>50.4</ele><time>2026-05-01T14:22:05.73Z</time></trkpt><trkpt lat="43.4032367" lon="10.4421833"><ele>51.0</ele><time>2026-05-01T14:22:06.727Z</time></trkpt><trkpt lat="43.4032517" lon="10.4422783"><ele>51.8</ele><time>2026-05-01T14:22:07.729Z</time></trkpt><trkpt lat="43.4032833" lon="10.442365"><ele>52.599999999999994</ele><time>2026-05-01T14:22:08.728Z</time></trkpt><trkpt lat="43.40334" lon="10.4424683"><ele>53.4</ele><time>2026-05-01T14:22:09.728Z</time></trkpt><trkpt lat="43.4034" lon="10.4426067"><ele>54.2</ele><time>2026-05-01T14:22:10.728Z</time></trkpt><trkpt lat="43.4034533" lon="10.4427633"><ele>55.0</ele><time>2026-05-01T14:22:11.728Z</time></trkpt><trkpt lat="43.4035033" lon="10.4429217"><ele>56.25</ele><time>2026-05-01T14:22:12.728Z</time></trkpt><trkpt lat="43.4035533" lon="10.443085"><ele>57.5</ele><time>2026-05-01T14:22:13.729Z</time></trkpt><trkpt lat="43.4036083" lon="10.4432433"><ele>58.75</ele><time>2026-05-01T14:22:14.728Z</time></trkpt><trkpt lat="43.4036667" lon="10.4434117"><ele>60.0</ele><time>2026-05-01T14:22:15.727Z</time></trkpt><trkpt lat="43.4037217" lon="10.4435817"><ele>60.0</ele><time>2026-05-01T14:22:16.728Z</time></trkpt><trkpt lat="43.4037867" lon="10.443755"><ele>60.0</ele><time>2026-05-01T14:22:17.729Z</time></trkpt><trkpt lat="43.4038633" lon="10.4439317"><ele>60.0</ele><time>2026-05-01T14:22:18.728Z</time></trkpt><trkpt lat="43.4039383" lon="10.4441017"><ele>60.0</ele><time>2026-05-01T14:22:19.728Z</time></trkpt><trkpt lat="43.4040233" lon="10.4442667"><ele>61.33333333333333</ele><time>2026-05-01T14:22:20.728Z</time></trkpt><trkpt lat="43.404115" lon="10.4444283"><ele>62.666666666666664</ele><time>2026-05-01T14:22:21.728Z</time></trkpt><trkpt lat="43.4042183" lon="10.444595"><ele>64.0</ele><time>2026-05-01T14:22:22.727Z</time></trkpt><trkpt lat="43.40432" lon="10.4447567"><ele>64.33333333333333</ele><time>2026-05-01T14:22:23.73Z</time></trkpt><trkpt lat="43.4044183" lon="10.4449167"><ele>64.66666666666667</ele><time>2026-05-01T14:22:24.729Z</time></trkpt><trkpt lat="43.404525" lon="10.4450883"><ele>65.0</ele><time>2026-05-01T14:22:25.729Z</time></trkpt><trkpt lat="43.40463" lon="10.445265"><ele>67.0</ele><time>2026-05-01T14:22:26.73Z</time></trkpt><trkpt lat="43.4047367" lon="10.4454417"><ele>69.0</ele><time>2026-05-01T14:22:27.729Z</time></trkpt><trkpt lat="43.40484" lon="10.4456183"><ele>71.0</ele><time>2026-05-01T14:22:28.727Z</time></trkpt><trkpt lat="43.404945" lon="10.445795"><ele>71.0</ele><time>2026-05-01T14:22:29.728Z</time></trkpt><trkpt lat="43.4050583" lon="10.44597"><ele>71.0</ele><time>2026-05-01T14:22:30.727Z</time></trkpt><trkpt lat="43.4051767" lon="10.44615"><ele>71.0</ele><time>2026-05-01T14:22:31.727Z</time></trkpt><trkpt lat="43.405295" lon="10.446325"><ele>71.66666666666667</ele><time>2026-05-01T14:22:32.729Z</time></trkpt><trkpt lat="43.40541" lon="10.4464917"><ele>72.33333333333333</ele><time>2026-05-01T14:22:33.727Z</time></trkpt><trkpt lat="43.4055267" lon="10.4466567"><ele>73.0</ele><time>2026-05-01T14:22:34.727Z</time></trkpt><trkpt lat="43.4056467" lon="10.4468233"><ele>74.66666666666666</ele><time>2026-05-01T14:22:35.728Z</time></trkpt><trkpt lat="43.4057633" lon="10.4469917"><ele>76.33333333333333</ele><time>2026-05-01T14:22:36.728Z</time></trkpt><trkpt lat="43.40587" lon="10.4471517"><ele>78.0</ele><time>2026-05-01T14:22:37.728Z</time></trkpt><trkpt lat="43.4059867" lon="10.4473067"><ele>78.0</ele><time>2026-05-01T14:22:38.73Z</time></trkpt><trkpt lat="43.4061017" lon="10.447435"><ele>78.0</ele><time>2026-05-01T14:22:39.728Z</time></trkpt><trkpt lat="43.4062233" lon="10.4475417"><ele>78.0</ele><time>2026-05-01T14:22:40.729Z</time></trkpt><trkpt lat="43.4063533" lon="10.44763"><ele>78.0</ele><time>2026-05-01T14:22:41.727Z</time></trkpt><trkpt lat="43.4064817" lon="10.4477283"><ele>78.66666666666667</ele><time>2026-05-01T14:22:42.728Z</time></trkpt><trkpt lat="43.4066083" lon="10.4478383"><ele>79.33333333333334</ele><time>2026-05-01T14:22:43.728Z</time></trkpt><trkpt lat="43.4067367" lon="10.44795"><ele>80.0</ele><time>2026-05-01T14:22:44.73Z</time></trkpt><trkpt lat="43.4068633" lon="10.4480683"><ele>80.0</ele><time>2026-05-01T14:22:45.73Z</time></trkpt><trkpt lat="43.4069833" lon="10.4481817"><ele>80.0</ele><time>2026-05-01T14:22:46.727Z</time></trkpt><trkpt lat="43.4071" lon="10.44828"><ele>80.0</ele><time>2026-05-01T14:22:47.728Z</time></trkpt><trkpt lat="43.4072117" lon="10.4483667"><ele>80.0</ele><time>2026-05-01T14:22:48.728Z</time></trkpt><trkpt lat="43.407325" lon="10.4484233"><ele>82.75</ele><time>2026-05-01T14:22:49.729Z</time></trkpt><trkpt lat="43.4074433" lon="10.4484467"><ele>85.5</ele><time>2026-05-01T14:22:50.727Z</time></trkpt><trkpt lat="43.407555" lon="10.4484417"><ele>88.25</ele><time>2026-05-01T14:22:51.727Z</time></trkpt><trkpt lat="43.407665" lon="10.448425"><ele>91.0</ele><time>2026-05-01T14:22:52.727Z</time></trkpt><trkpt lat="43.407785" lon="10.4484017"><ele>91.0</ele><time>2026-05-01T14:22:53.727Z</time></trkpt><trkpt lat="43.4078933" lon="10.4483933"><ele>91.0</ele><time>2026-05-01T14:22:54.727Z</time></trkpt><trkpt lat="43.4080117" lon="10.4484083"><ele>91.0</ele><time>2026-05-01T14:22:55.728Z</time></trkpt><trkpt lat="43.4081317" lon="10.4484383"><ele>91.0</ele><time>2026-05-01T14:22:56.728Z</time></trkpt><trkpt lat="43.4082583" lon="10.4484733"><ele>93.75</ele><time>2026-05-01T14:22:57.727Z</time></trkpt><trkpt lat="43.4083883" lon="10.4485217"><ele>96.5</ele><time>2026-05-01T14:22:58.727Z</time></trkpt><trkpt lat="43.4085167" lon="10.4485833"><ele>99.25</ele><time>2026-05-01T14:22:59.727Z</time></trkpt><trkpt lat="43.4086483" lon="10.4486383"><ele>102.0</ele><time>2026-05-01T14:23:00.727Z</time></trkpt><trkpt lat="43.40877" lon="10.4486933"><ele>102.0</ele><time>2026-05-01T14:23:01.727Z</time></trkpt><trkpt lat="43.4088883" lon="10.4487433"><ele>102.0</ele><time>2026-05-01T14:23:02.727Z</time></trkpt><trkpt lat="43.409" lon="10.4488017"><ele>102.0</ele><time>2026-05-01T14:23:03.727Z</time></trkpt><trkpt lat="43.4091033" lon="10.4488517"><ele>102.0</ele><time>2026-05-01T14:23:04.727Z</time></trkpt><trkpt lat="43.40921" lon="10.4489067"><ele>101.75</ele><time>2026-05-01T14:23:05.726Z</time></trkpt><trkpt lat="43.4093217" lon="10.4489617"><ele>101.5</ele><time>2026-05-01T14:23:06.726Z</time></trkpt><trkpt lat="43.4094367" lon="10.4490117"><ele>101.25</ele><time>2026-05-01T14:23:07.727Z</time></trkpt><trkpt lat="43.4095583" lon="10.4490567"><ele>101.0</ele><time>2026-05-01T14:23:08.726Z</time></trkpt><trkpt lat="43.4096767" lon="10.4490967"><ele>102.5</ele><time>2026-05-01T14:23:09.727Z</time></trkpt><trkpt lat="43.4098" lon="10.4491367"><ele>104.0</ele><time>2026-05-01T14:23:10.725Z</time></trkpt><trkpt lat="43.4099283" lon="10.449165"><ele>105.5</ele><time>2026-05-01T14:23:11.726Z</time></trkpt><trkpt lat="43.4100533" lon="10.4492117"><ele>107.0</ele><time>2026-05-01T14:23:12.728Z</time></trkpt><trkpt lat="43.4101783" lon="10.4492717"><ele>107.0</ele><time>2026-05-01T14:23:13.728Z</time></trkpt><trkpt lat="43.4103" lon="10.4493333"><ele>107.0</ele><time>2026-05-01T14:23:14.728Z</time></trkpt><trkpt lat="43.410425" lon="10.449385"><ele>107.0</ele><time>2026-05-01T14:23:15.727Z</time></trkpt><trkpt lat="43.4105633" lon="10.4494467"><ele>107.0</ele><time>2026-05-01T14:23:16.727Z</time></trkpt><trkpt lat="43.41071" lon="10.4495"><ele>108.66666666666666</ele><time>2026-05-01T14:23:17.728Z</time></trkpt><trkpt lat="43.4108783" lon="10.4495667"><ele>110.33333333333334</ele><time>2026-05-01T14:23:18.729Z</time></trkpt><trkpt lat="43.411055" lon="10.4496317"><ele>112.0</ele><time>2026-05-01T14:23:19.729Z</time></trkpt><trkpt lat="43.4112367" lon="10.4497017"><ele>114.33333333333334</ele><time>2026-05-01T14:23:20.727Z</time></trkpt><trkpt lat="43.4114167" lon="10.4497717"><ele>116.66666666666666</ele><time>2026-05-01T14:23:21.726Z</time></trkpt><trkpt lat="43.4115917" lon="10.4498467"><ele>119.0</ele><time>2026-05-01T14:23:22.728Z</time></trkpt><trkpt lat="43.4117617" lon="10.44992"><ele>119.0</ele><time>2026-05-01T14:23:23.728Z</time></trkpt><trkpt lat="43.4119317" lon="10.4499683"><ele>119.0</ele><time>2026-05-01T14:23:24.727Z</time></trkpt><trkpt lat="43.4120967" lon="10.45002"><ele>119.0</ele><time>2026-05-01T14:23:25.727Z</time></trkpt><trkpt lat="43.4122533" lon="10.4500933"><ele>121.0</ele><time>2026-05-01T14:23:26.727Z</time></trkpt><trkpt lat="43.4124033" lon="10.45016"><ele>123.0</ele><time>2026-05-01T14:23:27.726Z</time></trkpt><trkpt lat="43.4125517" lon="10.4502467"><ele>125.0</ele><time>2026-05-01T14:23:28.727Z</time></trkpt><trkpt lat="43.4127033" lon="10.4503433"><ele>125.0</ele><time>2026-05-01T14:23:29.727Z</time></trkpt><trkpt lat="43.4128583" lon="10.4504567"><ele>125.0</ele><time>2026-05-01T14:23:30.727Z</time></trkpt><trkpt lat="43.4130167" lon="10.450585"><ele>125.0</ele><time>2026-05-01T14:23:31.727Z</time></trkpt><trkpt lat="43.4131767" lon="10.450715"><ele>126.0</ele><time>2026-05-01T14:23:32.727Z</time></trkpt><trkpt lat="43.4133417" lon="10.450845"><ele>127.0</ele><time>2026-05-01T14:23:33.726Z</time></trkpt><trkpt lat="43.413505" lon="10.4509817"><ele>128.0</ele><time>2026-05-01T14:23:34.727Z</time></trkpt><trkpt lat="43.413675" lon="10.45112"><ele>129.0</ele><time>2026-05-01T14:23:35.727Z</time></trkpt><trkpt lat="43.4138483" lon="10.4512667"><ele>130.0</ele><time>2026-05-01T14:23:36.728Z</time></trkpt><trkpt lat="43.414025" lon="10.4514033"><ele>131.0</ele><time>2026-05-01T14:23:37.727Z</time></trkpt><trkpt lat="43.4142017" lon="10.4515383"><ele>132.33333333333331</ele><time>2026-05-01T14:23:38.728Z</time></trkpt><trkpt lat="43.4143817" lon="10.451665"><ele>133.66666666666666</ele><time>2026-05-01T14:23:39.726Z</time></trkpt><trkpt lat="43.4145633" lon="10.4517867"><ele>135.0</ele><time>2026-05-01T14:23:40.727Z</time></trkpt><trkpt lat="43.414735" lon="10.451905"><ele>136.33333333333334</ele><time>2026-05-01T14:23:41.728Z</time></trkpt><trkpt lat="43.4149067" lon="10.4520167"><ele>137.66666666666669</ele><time>2026-05-01T14:23:42.727Z</time></trkpt><trkpt lat="43.415075" lon="10.452135"><ele>139.0</ele><time>2026-05-01T14:23:43.727Z</time></trkpt><trkpt lat="43.4152433" lon="10.452265"><ele>140.33333333333334</ele><time>2026-05-01T14:23:44.728Z</time></trkpt><trkpt lat="43.4154067" lon="10.452395"><ele>141.66666666666666</ele><time>2026-05-01T14:23:45.726Z</time></trkpt><trkpt lat="43.41557" lon="10.45253"><ele>143.0</ele><time>2026-05-01T14:23:46.727Z</time></trkpt><trkpt lat="43.415735" lon="10.4526717"><ele>143.0</ele><time>2026-05-01T14:23:47.727Z</time></trkpt><trkpt lat="43.4159" lon="10.4528167"><ele>143.0</ele><time>2026-05-01T14:23:48.727Z</time></trkpt><trkpt lat="43.4160633" lon="10.4529617"><ele>143.0</ele><time>2026-05-01T14:23:49.727Z</time></trkpt><trkpt lat="43.41623" lon="10.4531133"><ele>145.0</ele><time>2026-05-01T14:23:50.728Z</time></trkpt><trkpt lat="43.4163917" lon="10.4532617"><ele>147.0</ele><time>2026-05-01T14:23:51.727Z</time></trkpt><trkpt lat="43.4165467" lon="10.4533867"><ele>149.0</ele><time>2026-05-01T14:23:52.73Z</time></trkpt><trkpt lat="43.4167033" lon="10.4535133"><ele>149.0</ele><time>2026-05-01T14:23:53.727Z</time></trkpt><trkpt lat="43.4168617" lon="10.4536433"><ele>149.0</ele><time>2026-05-01T14:23:54.728Z</time></trkpt><trkpt lat="43.41702" lon="10.4537783"><ele>149.0</ele><time>2026-05-01T14:23:55.728Z</time></trkpt><trkpt lat="43.4171833" lon="10.4539167"><ele>152.33333333333331</ele><time>2026-05-01T14:23:56.727Z</time></trkpt><trkpt lat="43.4173467" lon="10.4540567"><ele>155.66666666666666</ele><time>2026-05-01T14:23:57.726Z</time></trkpt><trkpt lat="43.4175117" lon="10.454195"><ele>159.0</ele><time>2026-05-01T14:23:58.726Z</time></trkpt><trkpt lat="43.4176783" lon="10.4543367"><ele>159.0</ele><time>2026-05-01T14:23:59.728Z</time></trkpt><trkpt lat="43.4178383" lon="10.4544733"><ele>159.0</ele><time>2026-05-01T14:24:00.726Z</time></trkpt><trkpt lat="43.4179917" lon="10.4546083"><ele>159.0</ele><time>2026-05-01T14:24:01.728Z</time></trkpt><trkpt lat="43.4181367" lon="10.4547483"><ele>160.66666666666666</ele><time>2026-05-01T14:24:02.728Z</time></trkpt><trkpt lat="43.4182667" lon="10.4549"><ele>162.33333333333331</ele><time>2026-05-01T14:24:03.726Z</time></trkpt><trkpt lat="43.4183833" lon="10.45506"><ele>164.0</ele><time>2026-05-01T14:24:04.727Z</time></trkpt><trkpt lat="43.4184783" lon="10.45525"><ele>164.0</ele><time>2026-05-01T14:24:05.727Z</time></trkpt><trkpt lat="43.41857" lon="10.4554533"><ele>164.0</ele><time>2026-05-01T14:24:06.727Z</time></trkpt><trkpt lat="43.4186517" lon="10.4556633"><ele>164.0</ele><time>2026-05-01T14:24:07.729Z</time></trkpt><trkpt lat="43.4187083" lon="10.455865"><ele>161.66666666666666</ele><time>2026-05-01T14:24:08.727Z</time></trkpt><trkpt lat="43.41873" lon="10.456085"><ele>159.33333333333334</ele><time>2026-05-01T14:24:09.726Z</time></trkpt><trkpt lat="43.4187117" lon="10.4562933"><ele>157.0</ele><time>2026-05-01T14:24:10.728Z</time></trkpt><trkpt lat="43.4186517" lon="10.456485"><ele>157.0</ele><time>2026-05-01T14:24:11.727Z</time></trkpt><trkpt lat="43.4185633" lon="10.4566567"><ele>157.0</ele><time>2026-05-01T14:24:12.727Z</time></trkpt><trkpt lat="43.4184733" lon="10.4568317"><ele>157.0</ele><time>2026-05-01T14:24:13.727Z</time></trkpt><trkpt lat="43.4184133" lon="10.4570233"><ele>159.66666666666669</ele><time>2026-05-01T14:24:14.728Z</time></trkpt><trkpt lat="43.418385" lon="10.45722"><ele>162.33333333333334</ele><time>2026-05-01T14:24:15.727Z</time></trkpt><trkpt lat="43.4183933" lon="10.4574317"><ele>165.0</ele><time>2026-05-01T14:24:16.726Z</time></trkpt><trkpt lat="43.41844" lon="10.4576383"><ele>165.0</ele><time>2026-05-01T14:24:17.727Z</time></trkpt><trkpt lat="43.4185183" lon="10.457825"><ele>165.0</ele><time>2026-05-01T14:24:18.728Z</time></trkpt><trkpt lat="43.41862" lon="10.4579917"><ele>165.0</ele><time>2026-05-01T14:24:19.727Z</time></trkpt><trkpt lat="43.4187233" lon="10.4581483"><ele>166.25</ele><time>2026-05-01T14:24:20.727Z</time></trkpt><trkpt lat="43.41882" lon="10.458305"><ele>167.5</ele><time>2026-05-01T14:24:21.727Z</time></trkpt><trkpt lat="43.4188983" lon="10.4584583"><ele>168.75</ele><time>2026-05-01T14:24:22.729Z</time></trkpt><trkpt lat="43.418965" lon="10.4586083"><ele>170.0</ele><time>2026-05-01T14:24:23.728Z</time></trkpt><trkpt lat="43.419015" lon="10.45874"><ele>169.66666666666666</ele><time>2026-05-01T14:24:24.729Z</time></trkpt><trkpt lat="43.4190567" lon="10.4588617"><ele>169.33333333333331</ele><time>2026-05-01T14:24:25.727Z</time></trkpt><trkpt lat="43.4190917" lon="10.458975"><ele>169.0</ele><time>2026-05-01T14:24:26.728Z</time></trkpt><trkpt lat="43.4191133" lon="10.4590633"><ele>168.66666666666666</ele><time>2026-05-01T14:24:27.726Z</time></trkpt><trkpt lat="43.4191283" lon="10.4591883"><ele>168.33333333333334</ele><time>2026-05-01T14:24:29.727Z</time></trkpt><trkpt lat="43.419085" lon="10.45931"><ele>168.0</ele><time>2026-05-01T14:24:32.728Z</time></trkpt><trkpt lat="43.4189783" lon="10.4594033"><ele>168.0</ele><time>2026-05-01T14:24:34.728Z</time></trkpt><trkpt lat="43.4188983" lon="10.4594567"><ele>168.0</ele><time>2026-05-01T14:24:35.728Z</time></trkpt><trkpt lat="43.41881" lon="10.4595117"><ele>168.0</ele><time>2026-05-01T14:24:36.728Z</time></trkpt><trkpt lat="43.4187167" lon="10.4595733"><ele>168.0</ele><time>2026-05-01T14:24:37.728Z</time></trkpt><trkpt lat="43.418615" lon="10.4596333"><ele>168.0</ele><time>2026-05-01T14:24:38.727Z</time></trkpt><trkpt lat="43.4185017" lon="10.4596933"><ele>168.5</ele><time>2026-05-01T14:24:39.727Z</time></trkpt><trkpt lat="43.4183817" lon="10.4597583"><ele>169.0</ele><time>2026-05-01T14:24:40.727Z</time></trkpt><trkpt lat="43.41826" lon="10.4598367"><ele>169.5</ele><time>2026-05-01T14:24:41.727Z</time></trkpt><trkpt lat="43.418145" lon="10.45993"><ele>170.0</ele><time>2026-05-01T14:24:42.729Z</time></trkpt><trkpt lat="43.41803" lon="10.4600383"><ele>170.0</ele><time>2026-05-01T14:24:43.729Z</time></trkpt><trkpt lat="43.41792" lon="10.4601733"><ele>170.0</ele><time>2026-05-01T14:24:44.729Z</time></trkpt><trkpt lat="43.417815" lon="10.4603317"><ele>170.0</ele><time>2026-05-01T14:24:45.728Z</time></trkpt><trkpt lat="43.417715" lon="10.460505"><ele>170.0</ele><time>2026-05-01T14:24:46.729Z</time></trkpt><trkpt lat="43.4176233" lon="10.4606917"><ele>170.0</ele><time>2026-05-01T14:24:47.728Z</time></trkpt><trkpt lat="43.4175383" lon="10.4608817"><ele>170.0</ele><time>2026-05-01T14:24:48.728Z</time></trkpt><trkpt lat="43.41745" lon="10.4610733"><ele>170.0</ele><time>2026-05-01T14:24:49.728Z</time></trkpt><trkpt lat="43.4173617" lon="10.461265"><ele>170.0</ele><time>2026-05-01T14:24:50.727Z</time></trkpt><trkpt lat="43.4172817" lon="10.4614533"><ele>170.0</ele><time>2026-05-01T14:24:51.728Z</time></trkpt><trkpt lat="43.4172033" lon="10.4616317"><ele>169.0</ele><time>2026-05-01T14:24:52.728Z</time></trkpt><trkpt lat="43.4171217" lon="10.4618"><ele>168.0</ele><time>2026-05-01T14:24:53.729Z</time></trkpt><trkpt lat="43.4170283" lon="10.4619583"><ele>167.0</ele><time>2026-05-01T14:24:54.729Z</time></trkpt><trkpt lat="43.41692" lon="10.4620983"><ele>166.0</ele><time>2026-05-01T14:24:55.729Z</time></trkpt><trkpt lat="43.4168" lon="10.4622317"><ele>165.0</ele><time>2026-05-01T14:24:56.729Z</time></trkpt><trkpt lat="43.4166717" lon="10.462355"><ele>164.0</ele><time>2026-05-01T14:24:57.729Z</time></trkpt><trkpt lat="43.4165383" lon="10.4624767"><ele>163.0</ele><time>2026-05-01T14:24:58.728Z</time></trkpt><trkpt lat="43.4164033" lon="10.4625967"><ele>162.33333333333334</ele><time>2026-05-01T14:24:59.729Z</time></trkpt><trkpt lat="43.41627" lon="10.4627183"><ele>161.66666666666666</ele><time>2026-05-01T14:25:00.729Z</time></trkpt><trkpt lat="43.416135" lon="10.4628383"><ele>161.0</ele><time>2026-05-01T14:25:01.731Z</time></trkpt><trkpt lat="43.416" lon="10.4629583"><ele>159.66666666666666</ele><time>2026-05-01T14:25:02.729Z</time></trkpt><trkpt lat="43.4158667" lon="10.4630833"><ele>158.33333333333334</ele><time>2026-05-01T14:25:03.728Z</time></trkpt><trkpt lat="43.41573" lon="10.4632117"><ele>157.0</ele><time>2026-05-01T14:25:04.728Z</time></trkpt><trkpt lat="43.415595" lon="10.4633333"><ele>157.0</ele><time>2026-05-01T14:25:05.729Z</time></trkpt><trkpt lat="43.4154683" lon="10.4634567"><ele>157.0</ele><time>2026-05-01T14:25:06.729Z</time></trkpt><trkpt lat="43.415355" lon="10.4635933"><ele>157.0</ele><time>2026-05-01T14:25:07.728Z</time></trkpt><trkpt lat="43.4152617" lon="10.463745"><ele>156.0</ele><time>2026-05-01T14:25:08.729Z</time></trkpt><trkpt lat="43.4151917" lon="10.4639"><ele>155.0</ele><time>2026-05-01T14:25:09.729Z</time></trkpt><trkpt lat="43.4151367" lon="10.4640433"><ele>154.0</ele><time>2026-05-01T14:25:10.729Z</time></trkpt><trkpt lat="43.4150933" lon="10.4641717"><ele>153.0</ele><time>2026-05-01T14:25:11.729Z</time></trkpt><trkpt lat="43.41507" lon="10.4642767"><ele>152.0</ele><time>2026-05-01T14:25:12.728Z</time></trkpt><trkpt lat="43.4150633" lon="10.4643667"><ele>152.0</ele><time>2026-05-01T14:25:13.728Z</time></trkpt><trkpt lat="43.4151333" lon="10.4644767"><ele>152.0</ele><time>2026-05-01T14:25:15.728Z</time></trkpt><trkpt lat="43.4152633" lon="10.4644833"><ele>152.0</ele><time>2026-05-01T14:25:17.727Z</time></trkpt><trkpt lat="43.4153317" lon="10.464425"><ele>152.0</ele><time>2026-05-01T14:25:18.727Z</time></trkpt><trkpt lat="43.4154083" lon="10.464335"><ele>152.0</ele><time>2026-05-01T14:25:19.727Z</time></trkpt><trkpt lat="43.4154833" lon="10.4642667"><ele>152.0</ele><time>2026-05-01T14:25:20.727Z</time></trkpt><trkpt lat="43.4155617" lon="10.4642017"><ele>152.0</ele><time>2026-05-01T14:25:21.727Z</time></trkpt><trkpt lat="43.4156417" lon="10.4641433"><ele>152.0</ele><time>2026-05-01T14:25:22.727Z</time></trkpt><trkpt lat="43.4157333" lon="10.464105"><ele>152.0</ele><time>2026-05-01T14:25:23.727Z</time></trkpt><trkpt lat="43.4158383" lon="10.4640817"><ele>152.0</ele><time>2026-05-01T14:25:24.727Z</time></trkpt><trkpt lat="43.415965" lon="10.464085"><ele>152.0</ele><time>2026-05-01T14:25:25.727Z</time></trkpt><trkpt lat="43.41612" lon="10.464125"><ele>152.0</ele><time>2026-05-01T14:25:26.729Z</time></trkpt><trkpt lat="43.416285" lon="10.4641833"><ele>152.0</ele><time>2026-05-01T14:25:27.727Z</time></trkpt><trkpt lat="43.4164583" lon="10.4642433"><ele>150.66666666666666</ele><time>2026-05-01T14:25:28.727Z</time></trkpt><trkpt lat="43.4166383" lon="10.464295"><ele>149.33333333333334</ele><time>2026-05-01T14:25:29.727Z</time></trkpt><trkpt lat="43.4168217" lon="10.4643483"><ele>148.0</ele><time>2026-05-01T14:25:30.727Z</time></trkpt><trkpt lat="43.4170017" lon="10.4643833"><ele>148.0</ele><time>2026-05-01T14:25:31.728Z</time></trkpt><trkpt lat="43.4171733" lon="10.464415"><ele>148.0</ele><time>2026-05-01T14:25:32.728Z</time></trkpt><trkpt lat="43.4173383" lon="10.4644283"><ele>148.0</ele><time>2026-05-01T14:25:33.728Z</time></trkpt><trkpt lat="43.4174967" lon="10.4644433"><ele>148.0</ele><time>2026-05-01T14:25:34.726Z</time></trkpt><trkpt lat="43.417645" lon="10.46445"><ele>148.0</ele><time>2026-05-01T14:25:35.728Z</time></trkpt><trkpt lat="43.4177933" lon="10.4644417"><ele>148.0</ele><time>2026-05-01T14:25:36.728Z</time></trkpt><trkpt lat="43.417925" lon="10.4644217"><ele>148.0</ele><time>2026-05-01T14:25:37.726Z</time></trkpt><trkpt lat="43.4180583" lon="10.4643517"><ele>145.0</ele><time>2026-05-01T14:25:38.727Z</time></trkpt><trkpt lat="43.4181767" lon="10.464265"><ele>142.0</ele><time>2026-05-01T14:25:39.728Z</time></trkpt><trkpt lat="43.418295" lon="10.464115"><ele>139.0</ele><time>2026-05-01T14:25:40.727Z</time></trkpt><trkpt lat="43.4184133" lon="10.4639517"><ele>140.66666666666669</ele><time>2026-05-01T14:25:41.728Z</time></trkpt><trkpt lat="43.418545" lon="10.463775"><ele>142.33333333333334</ele><time>2026-05-01T14:25:42.729Z</time></trkpt><trkpt lat="43.4186833" lon="10.4635967"><ele>144.0</ele><time>2026-05-01T14:25:43.727Z</time></trkpt><trkpt lat="43.418825" lon="10.4634133"><ele>142.33333333333334</ele><time>2026-05-01T14:25:44.728Z</time></trkpt><trkpt lat="43.418965" lon="10.4632267"><ele>140.66666666666669</ele><time>2026-05-01T14:25:45.727Z</time></trkpt><trkpt lat="43.4190917" lon="10.4630583"><ele>139.0</ele><time>2026-05-01T14:25:46.728Z</time></trkpt><trkpt lat="43.4192133" lon="10.4629"><ele>139.0</ele><time>2026-05-01T14:25:47.727Z</time></trkpt><trkpt lat="43.419335" lon="10.4627433"><ele>139.0</ele><time>2026-05-01T14:25:48.726Z</time></trkpt><trkpt lat="43.4194617" lon="10.4625967"><ele>139.0</ele><time>2026-05-01T14:25:49.726Z</time></trkpt><trkpt lat="43.4195967" lon="10.4624667"><ele>136.0</ele><time>2026-05-01T14:25:50.728Z</time></trkpt><trkpt lat="43.41974" lon="10.4623633"><ele>133.0</ele><time>2026-05-01T14:25:51.728Z</time></trkpt><trkpt lat="43.4198817" lon="10.462295"><ele>130.0</ele><time>2026-05-01T14:25:52.728Z</time></trkpt><trkpt lat="43.420025" lon="10.4622633"><ele>130.0</ele><time>2026-05-01T14:25:53.728Z</time></trkpt><trkpt lat="43.42017" lon="10.4622583"><ele>130.0</ele><time>2026-05-01T14:25:54.728Z</time></trkpt><trkpt lat="43.420315" lon="10.4623"><ele>130.0</ele><time>2026-05-01T14:25:55.726Z</time></trkpt><trkpt lat="43.420465" lon="10.4623933"><ele>129.0</ele><time>2026-05-01T14:25:56.727Z</time></trkpt><trkpt lat="43.4206117" lon="10.4624983"><ele>128.0</ele><time>2026-05-01T14:25:57.727Z</time></trkpt><trkpt lat="43.420755" lon="10.4626167"><ele>127.0</ele><time>2026-05-01T14:25:58.728Z</time></trkpt><trkpt lat="43.4208917" lon="10.4627583"><ele>127.0</ele><time>2026-05-01T14:25:59.727Z</time></trkpt><trkpt lat="43.4210233" lon="10.46291"><ele>127.0</ele><time>2026-05-01T14:26:00.727Z</time></trkpt><trkpt lat="43.4211383" lon="10.4630683"><ele>127.0</ele><time>2026-05-01T14:26:01.728Z</time></trkpt><trkpt lat="43.4212467" lon="10.46325"><ele>127.0</ele><time>2026-05-01T14:26:02.728Z</time></trkpt><trkpt lat="43.4213333" lon="10.4634483"><ele>127.0</ele><time>2026-05-01T14:26:03.727Z</time></trkpt><trkpt lat="43.4214033" lon="10.4636517"><ele>127.0</ele><time>2026-05-01T14:26:04.726Z</time></trkpt><trkpt lat="43.421445" lon="10.46386"><ele>125.0</ele><time>2026-05-01T14:26:05.726Z</time></trkpt><trkpt lat="43.4214783" lon="10.464075"><ele>123.0</ele><time>2026-05-01T14:26:06.727Z</time></trkpt><trkpt lat="43.4214883" lon="10.4642933"><ele>121.0</ele><time>2026-05-01T14:26:07.727Z</time></trkpt><trkpt lat="43.4214683" lon="10.4645"><ele>120.0</ele><time>2026-05-01T14:26:08.728Z</time></trkpt><trkpt lat="43.4214433" lon="10.4646883"><ele>119.0</ele><time>2026-05-01T14:26:09.729Z</time></trkpt><trkpt lat="43.4214183" lon="10.4648567"><ele>118.0</ele><time>2026-05-01T14:26:10.729Z</time></trkpt><trkpt lat="43.4214017" lon="10.4650133"><ele>117.0</ele><time>2026-05-01T14:26:11.729Z</time></trkpt><trkpt lat="43.42141" lon="10.4651617"><ele>117.0</ele><time>2026-05-01T14:26:12.729Z</time></trkpt><trkpt lat="43.42145" lon="10.4653033"><ele>116.99999999999999</ele><time>2026-05-01T14:26:13.73Z</time></trkpt><trkpt lat="43.4215183" lon="10.4654133"><ele>116.99999999999999</ele><time>2026-05-01T14:26:14.727Z</time></trkpt><trkpt lat="43.4216017" lon="10.4654983"><ele>117.0</ele><time>2026-05-01T14:26:15.727Z</time></trkpt><trkpt lat="43.421695" lon="10.4655617"><ele>117.0</ele><time>2026-05-01T14:26:16.73Z</time></trkpt><trkpt lat="43.4217967" lon="10.465595"><ele>116.39999999999999</ele><time>2026-05-01T14:26:17.73Z</time></trkpt><trkpt lat="43.4218967" lon="10.46565"><ele>115.79999999999998</ele><time>2026-05-01T14:26:18.728Z</time></trkpt><trkpt lat="43.4219883" lon="10.4657083"><ele>115.2</ele><time>2026-05-01T14:26:19.728Z</time></trkpt><trkpt lat="43.4220767" lon="10.4658"><ele>114.6</ele><time>2026-05-01T14:26:20.729Z</time></trkpt><trkpt lat="43.4221517" lon="10.4659133"><ele>114.0</ele><time>2026-05-01T14:26:21.73Z</time></trkpt><trkpt lat="43.4222017" lon="10.4660467"><ele>112.0</ele><time>2026-05-01T14:26:22.728Z</time></trkpt><trkpt lat="43.4222267" lon="10.4661967"><ele>110.0</ele><time>2026-05-01T14:26:23.729Z</time></trkpt><trkpt lat="43.4222433" lon="10.4663583"><ele>108.0</ele><time>2026-05-01T14:26:24.73Z</time></trkpt><trkpt lat="43.4222467" lon="10.4665217"><ele>106.0</ele><time>2026-05-01T14:26:25.73Z</time></trkpt><trkpt lat="43.42226" lon="10.46668"><ele>105.6</ele><time>2026-05-01T14:26:26.729Z</time></trkpt><trkpt lat="43.4222867" lon="10.46683"><ele>105.19999999999999</ele><time>2026-05-01T14:26:27.727Z</time></trkpt><trkpt lat="43.4223117" lon="10.46698"><ele>104.80000000000001</ele><time>2026-05-01T14:26:28.727Z</time></trkpt><trkpt lat="43.4223533" lon="10.4671233"><ele>104.4</ele><time>2026-05-01T14:26:29.729Z</time></trkpt><trkpt lat="43.4224117" lon="10.467255"><ele>104.0</ele><time>2026-05-01T14:26:30.728Z</time></trkpt><trkpt lat="43.4224917" lon="10.4673667"><ele>104.0</ele><time>2026-05-01T14:26:31.728Z</time></trkpt><trkpt lat="43.422585" lon="10.467465"><ele>104.0</ele><time>2026-05-01T14:26:32.727Z</time></trkpt><trkpt lat="43.422695" lon="10.467545"><ele>104.0</ele><time>2026-05-01T14:26:33.73Z</time></trkpt><trkpt lat="43.4228067" lon="10.4676033"><ele>104.0</ele><time>2026-05-01T14:26:34.728Z</time></trkpt><trkpt lat="43.4229183" lon="10.4676633"><ele>101.75</ele><time>2026-05-01T14:26:35.728Z</time></trkpt><trkpt lat="43.4230267" lon="10.4677233"><ele>99.5</ele><time>2026-05-01T14:26:36.729Z</time></trkpt><trkpt lat="43.4231333" lon="10.4677817"><ele>97.25</ele><time>2026-05-01T14:26:37.728Z</time></trkpt><trkpt lat="43.4232433" lon="10.46785"><ele>95.0</ele><time>2026-05-01T14:26:38.728Z</time></trkpt><trkpt lat="43.4233483" lon="10.4679183"><ele>96.5</ele><time>2026-05-01T14:26:39.728Z</time></trkpt><trkpt lat="43.4234467" lon="10.4680083"><ele>98.0</ele><time>2026-05-01T14:26:40.727Z</time></trkpt><trkpt lat="43.423545" lon="10.4680967"><ele>99.5</ele><time>2026-05-01T14:26:41.728Z</time></trkpt><trkpt lat="43.42364" lon="10.46819"><ele>101.0</ele><time>2026-05-01T14:26:42.728Z</time></trkpt><trkpt lat="43.42373" lon="10.468285"><ele>98.6</ele><time>2026-05-01T14:26:43.728Z</time></trkpt><trkpt lat="43.42382" lon="10.468375"><ele>96.19999999999999</ele><time>2026-05-01T14:26:44.728Z</time></trkpt><trkpt lat="43.423905" lon="10.468475"><ele>93.80000000000001</ele><time>2026-05-01T14:26:45.729Z</time></trkpt><trkpt lat="43.4239833" lon="10.4685917"><ele>91.4</ele><time>2026-05-01T14:26:46.728Z</time></trkpt><trkpt lat="43.42405" lon="10.4687133"><ele>89.0</ele><time>2026-05-01T14:26:47.729Z</time></trkpt><trkpt lat="43.4241017" lon="10.468845"><ele>89.0</ele><time>2026-05-01T14:26:48.729Z</time></trkpt><trkpt lat="43.4241267" lon="10.46899"><ele>89.0</ele><time>2026-05-01T14:26:49.729Z</time></trkpt><trkpt lat="43.4241183" lon="10.4691417"><ele>89.0</ele><time>2026-05-01T14:26:50.729Z</time></trkpt><trkpt lat="43.4240917" lon="10.4693"><ele>89.0</ele><time>2026-05-01T14:26:51.728Z</time></trkpt><trkpt lat="43.424055" lon="10.4694583"><ele>88.4</ele><time>2026-05-01T14:26:52.73Z</time></trkpt><trkpt lat="43.4240233" lon="10.46961"><ele>87.80000000000001</ele><time>2026-05-01T14:26:53.727Z</time></trkpt><trkpt lat="43.4239983" lon="10.46976"><ele>87.19999999999999</ele><time>2026-05-01T14:26:54.729Z</time></trkpt><trkpt lat="43.4239817" lon="10.46991"><ele>86.6</ele><time>2026-05-01T14:26:55.728Z</time></trkpt><trkpt lat="43.4240033" lon="10.47006"><ele>86.0</ele><time>2026-05-01T14:26:56.728Z</time></trkpt><trkpt lat="43.4240633" lon="10.4702017"><ele>86.0</ele><time>2026-05-01T14:26:57.728Z</time></trkpt><trkpt lat="43.424135" lon="10.470335"><ele>86.0</ele><time>2026-05-01T14:26:58.727Z</time></trkpt><trkpt lat="43.4242117" lon="10.470445"><ele>86.0</ele><time>2026-05-01T14:26:59.729Z</time></trkpt><trkpt lat="43.424295" lon="10.47057"><ele>86.0</ele><time>2026-05-01T14:27:00.729Z</time></trkpt><trkpt lat="43.4243783" lon="10.4706767"><ele>87.0</ele><time>2026-05-01T14:27:01.729Z</time></trkpt><trkpt lat="43.42446" lon="10.4707983"><ele>88.0</ele><time>2026-05-01T14:27:02.728Z</time></trkpt><trkpt lat="43.4245217" lon="10.470925"><ele>89.0</ele><time>2026-05-01T14:27:03.728Z</time></trkpt><trkpt lat="43.4245733" lon="10.471055"><ele>90.0</ele><time>2026-05-01T14:27:04.729Z</time></trkpt><trkpt lat="43.4246117" lon="10.4711817"><ele>91.0</ele><time>2026-05-01T14:27:05.727Z</time></trkpt><trkpt lat="43.424645" lon="10.4713217"><ele>87.39999999999999</ele><time>2026-05-01T14:27:06.728Z</time></trkpt><trkpt lat="43.4246717" lon="10.471465"><ele>83.8</ele><time>2026-05-01T14:27:07.728Z</time></trkpt><trkpt lat="43.4247117" lon="10.4716"><ele>80.19999999999999</ele><time>2026-05-01T14:27:08.728Z</time></trkpt><trkpt lat="43.424765" lon="10.4717133"><ele>76.6</ele><time>2026-05-01T14:27:09.728Z</time></trkpt><trkpt lat="43.4248283" lon="10.471805"><ele>73.0</ele><time>2026-05-01T14:27:10.728Z</time></trkpt><trkpt lat="43.424905" lon="10.4718717"><ele>73.0</ele><time>2026-05-01T14:27:11.728Z</time></trkpt><trkpt lat="43.4249983" lon="10.4719117"><ele>73.0</ele><time>2026-05-01T14:27:12.728Z</time></trkpt><trkpt lat="43.4250917" lon="10.47192"><ele>73.0</ele><time>2026-05-01T14:27:13.729Z</time></trkpt><trkpt lat="43.4251967" lon="10.47191"><ele>73.0</ele><time>2026-05-01T14:27:14.728Z</time></trkpt><trkpt lat="43.4252983" lon="10.4718817"><ele>73.0</ele><time>2026-05-01T14:27:15.729Z</time></trkpt><trkpt lat="43.425395" lon="10.47186"><ele>72.4</ele><time>2026-05-01T14:27:16.728Z</time></trkpt><trkpt lat="43.42549" lon="10.47186"><ele>71.8</ele><time>2026-05-01T14:27:17.728Z</time></trkpt><trkpt lat="43.425585" lon="10.4718917"><ele>71.2</ele><time>2026-05-01T14:27:18.727Z</time></trkpt><trkpt lat="43.4256667" lon="10.471955"><ele>70.6</ele><time>2026-05-01T14:27:19.728Z</time></trkpt><trkpt lat="43.4257283" lon="10.47205"><ele>70.0</ele><time>2026-05-01T14:27:20.728Z</time></trkpt><trkpt lat="43.4257683" lon="10.472185"><ele>70.0</ele><time>2026-05-01T14:27:21.727Z</time></trkpt><trkpt lat="43.4258" lon="10.4723483"><ele>70.0</ele><time>2026-05-01T14:27:22.728Z</time></trkpt><trkpt lat="43.425835" lon="10.4725233"><ele>70.0</ele><time>2026-05-01T14:27:23.728Z</time></trkpt><trkpt lat="43.4258667" lon="10.4727183"><ele>70.0</ele><time>2026-05-01T14:27:24.728Z</time></trkpt><trkpt lat="43.4258967" lon="10.472905"><ele>69.75</ele><time>2026-05-01T14:27:25.728Z</time></trkpt><trkpt lat="43.42592" lon="10.4731017"><ele>69.5</ele><time>2026-05-01T14:27:26.728Z</time></trkpt><trkpt lat="43.42593" lon="10.4732983"><ele>69.25</ele><time>2026-05-01T14:27:27.728Z</time></trkpt><trkpt lat="43.425945" lon="10.473495"><ele>69.0</ele><time>2026-05-01T14:27:28.728Z</time></trkpt><trkpt lat="43.425955" lon="10.4736817"><ele>68.75</ele><time>2026-05-01T14:27:29.727Z</time></trkpt><trkpt lat="43.425965" lon="10.4738633"><ele>68.5</ele><time>2026-05-01T14:27:30.728Z</time></trkpt><trkpt lat="43.4259683" lon="10.4740317"><ele>68.25</ele><time>2026-05-01T14:27:31.727Z</time></trkpt><trkpt lat="43.4259617" lon="10.4741783"><ele>68.0</ele><time>2026-05-01T14:27:32.728Z</time></trkpt><trkpt lat="43.4259433" lon="10.4743033"><ele>68.0</ele><time>2026-05-01T14:27:33.728Z</time></trkpt><trkpt lat="43.425915" lon="10.4744233"><ele>68.0</ele><time>2026-05-01T14:27:34.728Z</time></trkpt><trkpt lat="43.4258717" lon="10.4745333"><ele>68.0</ele><time>2026-05-01T14:27:35.728Z</time></trkpt><trkpt lat="43.42581" lon="10.4746467"><ele>68.0</ele><time>2026-05-01T14:27:36.726Z</time></trkpt><trkpt lat="43.4257367" lon="10.4747683"><ele>68.0</ele><time>2026-05-01T14:27:37.729Z</time></trkpt><trkpt lat="43.4256383" lon="10.4748983"><ele>67.33333333333334</ele><time>2026-05-01T14:27:38.728Z</time></trkpt><trkpt lat="43.4255133" lon="10.4750317"><ele>66.66666666666667</ele><time>2026-05-01T14:27:39.727Z</time></trkpt><trkpt lat="43.4253733" lon="10.4751567"><ele>66.0</ele><time>2026-05-01T14:27:40.728Z</time></trkpt><trkpt lat="43.4252333" lon="10.4752717"><ele>66.0</ele><time>2026-05-01T14:27:41.729Z</time></trkpt><trkpt lat="43.4250967" lon="10.475385"><ele>66.0</ele><time>2026-05-01T14:27:42.727Z</time></trkpt><trkpt lat="43.4249717" lon="10.4754967"><ele>66.0</ele><time>2026-05-01T14:27:43.728Z</time></trkpt><trkpt lat="43.4248617" lon="10.4756117"><ele>66.0</ele><time>2026-05-01T14:27:44.728Z</time></trkpt><trkpt lat="43.4247683" lon="10.4757367"><ele>63.5</ele><time>2026-05-01T14:27:45.729Z</time></trkpt><trkpt lat="43.4247217" lon="10.4758817"><ele>61.0</ele><time>2026-05-01T14:27:46.728Z</time></trkpt><trkpt lat="43.4247133" lon="10.4760383"><ele>58.5</ele><time>2026-05-01T14:27:47.728Z</time></trkpt><trkpt lat="43.4247617" lon="10.4761917"><ele>56.0</ele><time>2026-05-01T14:27:48.728Z</time></trkpt><trkpt lat="43.4248367" lon="10.4763767"><ele>55.333333333333336</ele><time>2026-05-01T14:27:49.728Z</time></trkpt><trkpt lat="43.4249317" lon="10.4765867"><ele>54.66666666666667</ele><time>2026-05-01T14:27:50.728Z</time></trkpt><trkpt lat="43.425015" lon="10.476795"><ele>54.0</ele><time>2026-05-01T14:27:51.727Z</time></trkpt><trkpt lat="43.4250983" lon="10.4770083"><ele>54.33333333333333</ele><time>2026-05-01T14:27:52.727Z</time></trkpt><trkpt lat="43.4251817" lon="10.4772117"><ele>54.666666666666664</ele><time>2026-05-01T14:27:53.727Z</time></trkpt><trkpt lat="43.42526" lon="10.4774133"><ele>55.0</ele><time>2026-05-01T14:27:54.728Z</time></trkpt><trkpt lat="43.4253433" lon="10.47761"><ele>55.0</ele><time>2026-05-01T14:27:55.726Z</time></trkpt><trkpt lat="43.4254283" lon="10.4778"><ele>55.0</ele><time>2026-05-01T14:27:56.726Z</time></trkpt><trkpt lat="43.4255067" lon="10.47799"><ele>55.0</ele><time>2026-05-01T14:27:57.726Z</time></trkpt><trkpt lat="43.425585" lon="10.4781867"><ele>53.666666666666664</ele><time>2026-05-01T14:27:58.728Z</time></trkpt><trkpt lat="43.4256667" lon="10.4783967"><ele>52.33333333333333</ele><time>2026-05-01T14:27:59.728Z</time></trkpt><trkpt lat="43.42575" lon="10.4786167"><ele>51.0</ele><time>2026-05-01T14:28:00.728Z</time></trkpt><trkpt lat="43.4258333" lon="10.4788217"><ele>51.0</ele><time>2026-05-01T14:28:01.728Z</time></trkpt><trkpt lat="43.4259117" lon="10.4790217"><ele>51.0</ele><time>2026-05-01T14:28:02.727Z</time></trkpt><trkpt lat="43.4259933" lon="10.4792233"><ele>51.0</ele><time>2026-05-01T14:28:03.728Z</time></trkpt><trkpt lat="43.4260767" lon="10.4794283"><ele>49.333333333333336</ele><time>2026-05-01T14:28:04.726Z</time></trkpt><trkpt lat="43.42616" lon="10.4796333"><ele>47.66666666666667</ele><time>2026-05-01T14:28:05.727Z</time></trkpt><trkpt lat="43.42624" lon="10.47982"><ele>46.0</ele><time>2026-05-01T14:28:06.728Z</time></trkpt><trkpt lat="43.4263167" lon="10.4800033"><ele>43.75</ele><time>2026-05-01T14:28:07.728Z</time></trkpt><trkpt lat="43.4263867" lon="10.4801767"><ele>41.5</ele><time>2026-05-01T14:28:08.727Z</time></trkpt><trkpt lat="43.42646" lon="10.480355"><ele>39.25</ele><time>2026-05-01T14:28:09.728Z</time></trkpt><trkpt lat="43.4265367" lon="10.4805317"><ele>37.0</ele><time>2026-05-01T14:28:10.726Z</time></trkpt><trkpt lat="43.426615" lon="10.4806983"><ele>36.5</ele><time>2026-05-01T14:28:11.727Z</time></trkpt><trkpt lat="43.4267017" lon="10.48086"><ele>36.0</ele><time>2026-05-01T14:28:12.728Z</time></trkpt><trkpt lat="43.426795" lon="10.481"><ele>35.5</ele><time>2026-05-01T14:28:13.727Z</time></trkpt><trkpt lat="43.4268883" lon="10.4811217"><ele>35.0</ele><time>2026-05-01T14:28:14.729Z</time></trkpt><trkpt lat="43.4269767" lon="10.4812267"><ele>34.4</ele><time>2026-05-01T14:28:15.727Z</time></trkpt><trkpt lat="43.4270583" lon="10.4813333"><ele>33.8</ele><time>2026-05-01T14:28:16.727Z</time></trkpt><trkpt lat="43.427115" lon="10.4814283"><ele>33.2</ele><time>2026-05-01T14:28:17.728Z</time></trkpt><trkpt lat="43.4271567" lon="10.4815183"><ele>32.6</ele><time>2026-05-01T14:28:18.727Z</time></trkpt><trkpt lat="43.427215" lon="10.48163"><ele>32.0</ele><time>2026-05-01T14:28:20.728Z</time></trkpt><trkpt lat="43.4272633" lon="10.4817017"><ele>31.8</ele><time>2026-05-01T14:28:29.727Z</time></trkpt><trkpt lat="43.4273267" lon="10.4817333"><ele>31.6</ele><time>2026-05-01T14:28:30.728Z</time></trkpt><trkpt lat="43.4274217" lon="10.4817517"><ele>31.400000000000002</ele><time>2026-05-01T14:28:31.728Z</time></trkpt><trkpt lat="43.4275467" lon="10.48175"><ele>31.200000000000003</ele><time>2026-05-01T14:28:32.728Z</time></trkpt><trkpt lat="43.42768" lon="10.48175"><ele>31.0</ele><time>2026-05-01T14:28:33.727Z</time></trkpt><trkpt lat="43.4278233" lon="10.481755"><ele>31.0</ele><time>2026-05-01T14:28:34.727Z</time></trkpt><trkpt lat="43.42798" lon="10.4817667"><ele>31.0</ele><time>2026-05-01T14:28:35.726Z</time></trkpt><trkpt lat="43.4281517" lon="10.4817833"><ele>31.0</ele><time>2026-05-01T14:28:36.728Z</time></trkpt><trkpt lat="43.4283267" lon="10.48181"><ele>31.0</ele><time>2026-05-01T14:28:37.726Z</time></trkpt><trkpt lat="43.4285017" lon="10.4818533"><ele>31.0</ele><time>2026-05-01T14:28:38.728Z</time></trkpt><trkpt lat="43.4286767" lon="10.4819083"><ele>31.0</ele><time>2026-05-01T14:28:39.728Z</time></trkpt><trkpt lat="43.4288517" lon="10.481965"><ele>30.333333333333336</ele><time>2026-05-01T14:28:40.725Z</time></trkpt><trkpt lat="43.4290317" lon="10.4820217"><ele>29.666666666666664</ele><time>2026-05-01T14:28:41.729Z</time></trkpt><trkpt lat="43.4292117" lon="10.4820767"><ele>29.0</ele><time>2026-05-01T14:28:42.726Z</time></trkpt><trkpt lat="43.429395" lon="10.4821383"><ele>30.0</ele><time>2026-05-01T14:28:43.727Z</time></trkpt><trkpt lat="43.4295817" lon="10.4822033"><ele>31.0</ele><time>2026-05-01T14:28:44.728Z</time></trkpt><trkpt lat="43.42977" lon="10.4822617"><ele>32.0</ele><time>2026-05-01T14:28:45.727Z</time></trkpt><trkpt lat="43.4299617" lon="10.4823167"><ele>32.0</ele><time>2026-05-01T14:28:46.729Z</time></trkpt><trkpt lat="43.4301517" lon="10.4823783"><ele>32.0</ele><time>2026-05-01T14:28:47.727Z</time></trkpt><trkpt lat="43.430345" lon="10.48244"><ele>32.0</ele><time>2026-05-01T14:28:48.728Z</time></trkpt><trkpt lat="43.4305367" lon="10.4825033"><ele>33.666666666666664</ele><time>2026-05-01T14:28:49.727Z</time></trkpt><trkpt lat="43.4307283" lon="10.48257"><ele>35.333333333333336</ele><time>2026-05-01T14:28:50.727Z</time></trkpt><trkpt lat="43.4309217" lon="10.4826417"><ele>37.0</ele><time>2026-05-01T14:28:51.727Z</time></trkpt><trkpt lat="43.431115" lon="10.4827083"><ele>37.0</ele><time>2026-05-01T14:28:52.728Z</time></trkpt><trkpt lat="43.4313067" lon="10.482775"><ele>37.0</ele><time>2026-05-01T14:28:53.728Z</time></trkpt><trkpt lat="43.4314983" lon="10.4828433"><ele>37.0</ele><time>2026-05-01T14:28:54.729Z</time></trkpt><trkpt lat="43.4316883" lon="10.4829117"><ele>33.66666666666667</ele><time>2026-05-01T14:28:55.727Z</time></trkpt><trkpt lat="43.4318817" lon="10.48298"><ele>30.333333333333336</ele><time>2026-05-01T14:28:56.728Z</time></trkpt><trkpt lat="43.43208" lon="10.4830467"><ele>27.0</ele><time>2026-05-01T14:28:57.727Z</time></trkpt><trkpt lat="43.432275" lon="10.4831133"><ele>26.666666666666664</ele><time>2026-05-01T14:28:58.728Z</time></trkpt><trkpt lat="43.4324717" lon="10.483175"><ele>26.333333333333332</ele><time>2026-05-01T14:28:59.726Z</time></trkpt><trkpt lat="43.432675" lon="10.48324"><ele>26.0</ele><time>2026-05-01T14:29:00.727Z</time></trkpt><trkpt lat="43.43288" lon="10.4833083"><ele>27.0</ele><time>2026-05-01T14:29:01.728Z</time></trkpt><trkpt lat="43.4330883" lon="10.483375"><ele>28.0</ele><time>2026-05-01T14:29:02.728Z</time></trkpt><trkpt lat="43.4332967" lon="10.483445"><ele>29.0</ele><time>2026-05-01T14:29:03.728Z</time></trkpt><trkpt lat="43.433505" lon="10.4835117"><ele>29.0</ele><time>2026-05-01T14:29:04.727Z</time></trkpt><trkpt lat="43.4337133" lon="10.4835833"><ele>29.0</ele><time>2026-05-01T14:29:05.733Z</time></trkpt><trkpt lat="43.4339267" lon="10.4836567"><ele>29.0</ele><time>2026-05-01T14:29:06.727Z</time></trkpt><trkpt lat="43.4341383" lon="10.4837317"><ele>29.333333333333332</ele><time>2026-05-01T14:29:07.728Z</time></trkpt><trkpt lat="43.4343517" lon="10.4838067"><ele>29.666666666666664</ele><time>2026-05-01T14:29:08.727Z</time></trkpt><trkpt lat="43.4345667" lon="10.4838783"><ele>30.0</ele><time>2026-05-01T14:29:09.727Z</time></trkpt><trkpt lat="43.4347833" lon="10.4839433"><ele>30.333333333333336</ele><time>2026-05-01T14:29:10.728Z</time></trkpt><trkpt lat="43.435" lon="10.4839917"><ele>30.666666666666668</ele><time>2026-05-01T14:29:11.727Z</time></trkpt><trkpt lat="43.435215" lon="10.4840333"><ele>31.0</ele><time>2026-05-01T14:29:12.729Z</time></trkpt><trkpt lat="43.4354333" lon="10.4840533"><ele>31.0</ele><time>2026-05-01T14:29:13.728Z</time></trkpt><trkpt lat="43.4356467" lon="10.484055"><ele>31.0</ele><time>2026-05-01T14:29:14.728Z</time></trkpt><trkpt lat="43.4358617" lon="10.4840417"><ele>31.0</ele><time>2026-05-01T14:29:15.727Z</time></trkpt><trkpt lat="43.4360683" lon="10.4840083"><ele>31.0</ele><time>2026-05-01T14:29:16.726Z</time></trkpt><trkpt lat="43.4362717" lon="10.48395"><ele>31.0</ele><time>2026-05-01T14:29:17.728Z</time></trkpt><trkpt lat="43.4364717" lon="10.4838883"><ele>31.0</ele><time>2026-05-01T14:29:18.73Z</time></trkpt><trkpt lat="43.4366733" lon="10.4838133"><ele>30.333333333333336</ele><time>2026-05-01T14:29:19.727Z</time></trkpt><trkpt lat="43.4368683" lon="10.483745"><ele>29.666666666666664</ele><time>2026-05-01T14:29:20.728Z</time></trkpt><trkpt lat="43.43707" lon="10.48367"><ele>29.0</ele><time>2026-05-01T14:29:21.729Z</time></trkpt><trkpt lat="43.4372683" lon="10.48359"><ele>30.333333333333332</ele><time>2026-05-01T14:29:22.728Z</time></trkpt><trkpt lat="43.4374617" lon="10.4835167"><ele>31.666666666666664</ele><time>2026-05-01T14:29:23.727Z</time></trkpt><trkpt lat="43.4376533" lon="10.4834433"><ele>33.0</ele><time>2026-05-01T14:29:24.728Z</time></trkpt><trkpt lat="43.4378433" lon="10.483375"><ele>34.333333333333336</ele><time>2026-05-01T14:29:25.727Z</time></trkpt><trkpt lat="43.4380267" lon="10.4833033"><ele>35.66666666666667</ele><time>2026-05-01T14:29:26.728Z</time></trkpt><trkpt lat="43.438205" lon="10.483235"><ele>37.0</ele><time>2026-05-01T14:29:27.727Z</time></trkpt><trkpt lat="43.4383867" lon="10.48317"><ele>37.0</ele><time>2026-05-01T14:29:28.727Z</time></trkpt><trkpt lat="43.4385633" lon="10.4831133"><ele>37.0</ele><time>2026-05-01T14:29:29.728Z</time></trkpt><trkpt lat="43.43873" lon="10.4830567"><ele>37.0</ele><time>2026-05-01T14:29:30.728Z</time></trkpt><trkpt lat="43.438885" lon="10.4830017"><ele>37.0</ele><time>2026-05-01T14:29:31.728Z</time></trkpt><trkpt lat="43.4390183" lon="10.4829567"><ele>37.0</ele><time>2026-05-01T14:29:32.728Z</time></trkpt><trkpt lat="43.4391333" lon="10.4829217"><ele>37.0</ele><time>2026-05-01T14:29:33.727Z</time></trkpt><trkpt lat="43.4392367" lon="10.4828933"><ele>37.0</ele><time>2026-05-01T14:29:34.729Z</time></trkpt><trkpt lat="43.43932" lon="10.4828967"><ele>37.0</ele><time>2026-05-01T14:29:35.729Z</time></trkpt><trkpt lat="43.4393883" lon="10.4829167"><ele>36.833333333333336</ele><time>2026-05-01T14:29:36.728Z</time></trkpt><trkpt lat="43.4394433" lon="10.4829767"><ele>36.66666666666667</ele><time>2026-05-01T14:29:37.728Z</time></trkpt><trkpt lat="43.4394217" lon="10.4831167"><ele>36.5</ele><time>2026-05-01T14:29:39.729Z</time></trkpt><trkpt lat="43.4393817" lon="10.4832167"><ele>36.333333333333336</ele><time>2026-05-01T14:29:40.727Z</time></trkpt><trkpt lat="43.4393417" lon="10.483325"><ele>36.166666666666664</ele><time>2026-05-01T14:29:41.728Z</time></trkpt><trkpt lat="43.4392967" lon="10.4834467"><ele>36.0</ele><time>2026-05-01T14:29:42.728Z</time></trkpt><trkpt lat="43.4392467" lon="10.4835767"><ele>36.0</ele><time>2026-05-01T14:29:43.728Z</time></trkpt><trkpt lat="43.439195" lon="10.483705"><ele>36.0</ele><time>2026-05-01T14:29:44.728Z</time></trkpt><trkpt lat="43.4391417" lon="10.483825"><ele>36.0</ele><time>2026-05-01T14:29:45.728Z</time></trkpt><trkpt lat="43.43909" lon="10.4839417"><ele>36.0</ele><time>2026-05-01T14:29:46.728Z</time></trkpt><trkpt lat="43.4390433" lon="10.4840567"><ele>36.0</ele><time>2026-05-01T14:29:47.729Z</time></trkpt><trkpt lat="43.4389933" lon="10.4841767"><ele>36.0</ele><time>2026-05-01T14:29:48.728Z</time></trkpt><trkpt lat="43.43894" lon="10.484315"><ele>36.0</ele><time>2026-05-01T14:29:49.727Z</time></trkpt><trkpt lat="43.438885" lon="10.4844617"><ele>36.0</ele><time>2026-05-01T14:29:50.729Z</time></trkpt><trkpt lat="43.43883" lon="10.4846067"><ele>36.0</ele><time>2026-05-01T14:29:51.729Z</time></trkpt><trkpt lat="43.438775" lon="10.4847583"><ele>36.0</ele><time>2026-05-01T14:29:52.727Z</time></trkpt><trkpt lat="43.4387183" lon="10.4849133"><ele>36.0</ele><time>2026-05-01T14:29:53.729Z</time></trkpt><trkpt lat="43.438655" lon="10.48507"><ele>36.0</ele><time>2026-05-01T14:29:54.727Z</time></trkpt><trkpt lat="43.43859" lon="10.4852283"><ele>36.0</ele><time>2026-05-01T14:29:55.728Z</time></trkpt><trkpt lat="43.4385233" lon="10.4853983"><ele>35.666666666666664</ele><time>2026-05-01T14:29:56.729Z</time></trkpt><trkpt lat="43.43845" lon="10.4855783"><ele>35.33333333333333</ele><time>2026-05-01T14:29:57.729Z</time></trkpt><trkpt lat="43.4383783" lon="10.485765"><ele>35.0</ele><time>2026-05-01T14:29:58.729Z</time></trkpt><trkpt lat="43.4383" lon="10.4859583"><ele>35.0</ele><time>2026-05-01T14:29:59.728Z</time></trkpt><trkpt lat="43.4382233" lon="10.4861583"><ele>35.0</ele><time>2026-05-01T14:30:00.727Z</time></trkpt><trkpt lat="43.4381433" lon="10.4863617"><ele>35.0</ele><time>2026-05-01T14:30:01.729Z</time></trkpt><trkpt lat="43.4380633" lon="10.4865567"><ele>34.33333333333333</ele><time>2026-05-01T14:30:02.73Z</time></trkpt><trkpt lat="43.4379867" lon="10.486755"><ele>33.666666666666664</ele><time>2026-05-01T14:30:03.728Z</time></trkpt><trkpt lat="43.43791" lon="10.4869533"><ele>33.0</ele><time>2026-05-01T14:30:04.729Z</time></trkpt><trkpt lat="43.4378317" lon="10.4871417"><ele>32.5</ele><time>2026-05-01T14:30:05.728Z</time></trkpt><trkpt lat="43.4377633" lon="10.4873217"><ele>32.0</ele><time>2026-05-01T14:30:06.729Z</time></trkpt><trkpt lat="43.4377017" lon="10.4874833"><ele>31.5</ele><time>2026-05-01T14:30:07.727Z</time></trkpt><trkpt lat="43.437635" lon="10.4876517"><ele>31.0</ele><time>2026-05-01T14:30:08.728Z</time></trkpt><trkpt lat="43.4375717" lon="10.4878217"><ele>31.5</ele><time>2026-05-01T14:30:09.729Z</time></trkpt><trkpt lat="43.4375133" lon="10.4879783"><ele>32.0</ele><time>2026-05-01T14:30:10.727Z</time></trkpt><trkpt lat="43.4374633" lon="10.4881233"><ele>32.5</ele><time>2026-05-01T14:30:11.728Z</time></trkpt><trkpt lat="43.4374217" lon="10.4882617"><ele>33.0</ele><time>2026-05-01T14:30:12.728Z</time></trkpt><trkpt lat="43.4373883" lon="10.4883883"><ele>33.0</ele><time>2026-05-01T14:30:13.73Z</time></trkpt><trkpt lat="43.43736" lon="10.4885067"><ele>33.0</ele><time>2026-05-01T14:30:14.729Z</time></trkpt><trkpt lat="43.43734" lon="10.4886017"><ele>33.0</ele><time>2026-05-01T14:30:15.729Z</time></trkpt><trkpt lat="43.4373183" lon="10.48869"><ele>33.0</ele><time>2026-05-01T14:30:16.729Z</time></trkpt><trkpt lat="43.4373017" lon="10.4887867"><ele>33.0</ele><time>2026-05-01T14:30:17.729Z</time></trkpt><trkpt lat="43.4372817" lon="10.4888867"><ele>33.0</ele><time>2026-05-01T14:30:18.729Z</time></trkpt><trkpt lat="43.43726" lon="10.489"><ele>33.199999999999996</ele><time>2026-05-01T14:30:19.728Z</time></trkpt><trkpt lat="43.43723" lon="10.4891133"><ele>33.4</ele><time>2026-05-01T14:30:20.728Z</time></trkpt><trkpt lat="43.4372033" lon="10.4892283"><ele>33.599999999999994</ele><time>2026-05-01T14:30:21.729Z</time></trkpt><trkpt lat="43.437175" lon="10.4893533"><ele>33.8</ele><time>2026-05-01T14:30:22.729Z</time></trkpt><trkpt lat="43.4371533" lon="10.489485"><ele>34.0</ele><time>2026-05-01T14:30:23.729Z</time></trkpt><trkpt lat="43.4371433" lon="10.4896283"><ele>34.6</ele><time>2026-05-01T14:30:24.729Z</time></trkpt><trkpt lat="43.4371583" lon="10.4897683"><ele>35.2</ele><time>2026-05-01T14:30:25.729Z</time></trkpt><trkpt lat="43.437185" lon="10.4899067"><ele>35.800000000000004</ele><time>2026-05-01T14:30:26.729Z</time></trkpt><trkpt lat="43.4372233" lon="10.4900483"><ele>36.4</ele><time>2026-05-01T14:30:27.729Z</time></trkpt><trkpt lat="43.43726" lon="10.4901933"><ele>37.0</ele><time>2026-05-01T14:30:28.728Z</time></trkpt><trkpt lat="43.4372967" lon="10.4903417"><ele>36.800000000000004</ele><time>2026-05-01T14:30:29.729Z</time></trkpt><trkpt lat="43.4373283" lon="10.49048"><ele>36.6</ele><time>2026-05-01T14:30:30.727Z</time></trkpt><trkpt lat="43.437365" lon="10.4906117"><ele>36.400000000000006</ele><time>2026-05-01T14:30:31.728Z</time></trkpt><trkpt lat="43.437415" lon="10.49073"><ele>36.2</ele><time>2026-05-01T14:30:32.729Z</time></trkpt><trkpt lat="43.437495" lon="10.490845"><ele>36.0</ele><time>2026-05-01T14:30:33.728Z</time></trkpt><trkpt lat="43.4375933" lon="10.49096"><ele>36.0</ele><time>2026-05-01T14:30:34.729Z</time></trkpt><trkpt lat="43.4377033" lon="10.4910733"><ele>36.0</ele><time>2026-05-01T14:30:35.729Z</time></trkpt><trkpt lat="43.437815" lon="10.491185"><ele>36.0</ele><time>2026-05-01T14:30:36.729Z</time></trkpt><trkpt lat="43.4379167" lon="10.4912933"><ele>36.0</ele><time>2026-05-01T14:30:37.729Z</time></trkpt><trkpt lat="43.4380117" lon="10.491395"><ele>37.0</ele><time>2026-05-01T14:30:38.73Z</time></trkpt><trkpt lat="43.438105" lon="10.4915033"><ele>38.0</ele><time>2026-05-01T14:30:39.728Z</time></trkpt><trkpt lat="43.4382033" lon="10.491625"><ele>39.0</ele><time>2026-05-01T14:30:40.728Z</time></trkpt><trkpt lat="43.438315" lon="10.4917817"><ele>40.0</ele><time>2026-05-01T14:30:41.727Z</time></trkpt><trkpt lat="43.438435" lon="10.491975"><ele>40.0</ele><time>2026-05-01T14:30:42.728Z</time></trkpt><trkpt lat="43.4385567" lon="10.49219"><ele>40.0</ele><time>2026-05-01T14:30:43.728Z</time></trkpt><trkpt lat="43.43868" lon="10.49242"><ele>40.0</ele><time>2026-05-01T14:30:44.728Z</time></trkpt><trkpt lat="43.4388033" lon="10.4926717"><ele>40.333333333333336</ele><time>2026-05-01T14:30:45.727Z</time></trkpt><trkpt lat="43.4389267" lon="10.4929267"><ele>40.666666666666664</ele><time>2026-05-01T14:30:46.727Z</time></trkpt><trkpt lat="43.43906" lon="10.4931733"><ele>41.0</ele><time>2026-05-01T14:30:47.727Z</time></trkpt><trkpt lat="43.4392" lon="10.4934133"><ele>41.0</ele><time>2026-05-01T14:30:48.727Z</time></trkpt><trkpt lat="43.43934" lon="10.4936467"><ele>41.0</ele><time>2026-05-01T14:30:49.728Z</time></trkpt><trkpt lat="43.4394767" lon="10.4938733"><ele>41.0</ele><time>2026-05-01T14:30:50.727Z</time></trkpt><trkpt lat="43.43961" lon="10.494105"><ele>41.33333333333333</ele><time>2026-05-01T14:30:51.729Z</time></trkpt><trkpt lat="43.4397433" lon="10.4943333"><ele>41.666666666666664</ele><time>2026-05-01T14:30:52.727Z</time></trkpt><trkpt lat="43.4398733" lon="10.4945633"><ele>42.0</ele><time>2026-05-01T14:30:53.728Z</time></trkpt><trkpt lat="43.440005" lon="10.4948017"><ele>42.0</ele><time>2026-05-01T14:30:54.728Z</time></trkpt><trkpt lat="43.4401317" lon="10.4950367"><ele>42.0</ele><time>2026-05-01T14:30:55.727Z</time></trkpt><trkpt lat="43.4402567" lon="10.4952667"><ele>42.0</ele><time>2026-05-01T14:30:56.728Z</time></trkpt><trkpt lat="43.4403783" lon="10.4955133"><ele>41.333333333333336</ele><time>2026-05-01T14:30:57.727Z</time></trkpt><trkpt lat="43.440485" lon="10.49576"><ele>40.66666666666667</ele><time>2026-05-01T14:30:58.728Z</time></trkpt><trkpt lat="43.44058" lon="10.496005"><ele>40.0</ele><time>2026-05-01T14:30:59.728Z</time></trkpt><trkpt lat="43.44067" lon="10.49626"><ele>40.0</ele><time>2026-05-01T14:31:00.727Z</time></trkpt><trkpt lat="43.4407583" lon="10.4965183"><ele>40.0</ele><time>2026-05-01T14:31:01.727Z</time></trkpt><trkpt lat="43.4408433" lon="10.49677"><ele>40.0</ele><time>2026-05-01T14:31:02.728Z</time></trkpt><trkpt lat="43.44092" lon="10.4970267"><ele>40.333333333333336</ele><time>2026-05-01T14:31:03.728Z</time></trkpt><trkpt lat="43.4409867" lon="10.4972867"><ele>40.666666666666664</ele><time>2026-05-01T14:31:04.727Z</time></trkpt><trkpt lat="43.4410483" lon="10.49755"><ele>41.0</ele><time>2026-05-01T14:31:05.727Z</time></trkpt><trkpt lat="43.441105" lon="10.49782"><ele>41.0</ele><time>2026-05-01T14:31:06.728Z</time></trkpt><trkpt lat="43.44116" lon="10.4980967"><ele>41.0</ele><time>2026-05-01T14:31:07.726Z</time></trkpt><trkpt lat="43.441215" lon="10.4983767"><ele>41.0</ele><time>2026-05-01T14:31:08.726Z</time></trkpt><trkpt lat="43.44127" lon="10.498655"><ele>41.666666666666664</ele><time>2026-05-01T14:31:09.728Z</time></trkpt><trkpt lat="43.4413267" lon="10.498935"><ele>42.333333333333336</ele><time>2026-05-01T14:31:10.728Z</time></trkpt><trkpt lat="43.4413833" lon="10.49922"><ele>43.0</ele><time>2026-05-01T14:31:11.728Z</time></trkpt><trkpt lat="43.4414483" lon="10.4994983"><ele>43.66666666666667</ele><time>2026-05-01T14:31:12.728Z</time></trkpt><trkpt lat="43.4415117" lon="10.4997767"><ele>44.333333333333336</ele><time>2026-05-01T14:31:13.728Z</time></trkpt><trkpt lat="43.4415717" lon="10.5000567"><ele>45.0</ele><time>2026-05-01T14:31:14.728Z</time></trkpt><trkpt lat="43.4416333" lon="10.5003333"><ele>45.0</ele><time>2026-05-01T14:31:15.727Z</time></trkpt><trkpt lat="43.441695" lon="10.5006033"><ele>45.0</ele><time>2026-05-01T14:31:16.727Z</time></trkpt><trkpt lat="43.441755" lon="10.5008717"><ele>45.0</ele><time>2026-05-01T14:31:17.728Z</time></trkpt><trkpt lat="43.44182" lon="10.5011383"><ele>46.0</ele><time>2026-05-01T14:31:18.727Z</time></trkpt><trkpt lat="43.4418733" lon="10.501405"><ele>47.0</ele><time>2026-05-01T14:31:19.728Z</time></trkpt><trkpt lat="43.4419167" lon="10.5016733"><ele>48.0</ele><time>2026-05-01T14:31:20.728Z</time></trkpt><trkpt lat="43.4419483" lon="10.5019417"><ele>48.33333333333333</ele><time>2026-05-01T14:31:21.728Z</time></trkpt><trkpt lat="43.441975" lon="10.5022083"><ele>48.666666666666664</ele><time>2026-05-01T14:31:22.728Z</time></trkpt><trkpt lat="43.4419967" lon="10.5024783"><ele>49.0</ele><time>2026-05-01T14:31:23.728Z</time></trkpt><trkpt lat="43.442025" lon="10.5027517"><ele>48.666666666666664</ele><time>2026-05-01T14:31:24.727Z</time></trkpt><trkpt lat="43.44207" lon="10.5030183"><ele>48.33333333333333</ele><time>2026-05-01T14:31:25.727Z</time></trkpt><trkpt lat="43.442125" lon="10.5032883"><ele>48.0</ele><time>2026-05-01T14:31:26.728Z</time></trkpt><trkpt lat="43.44219" lon="10.5035567"><ele>48.0</ele><time>2026-05-01T14:31:27.728Z</time></trkpt><trkpt lat="43.4422583" lon="10.5038283"><ele>48.0</ele><time>2026-05-01T14:31:28.728Z</time></trkpt><trkpt lat="43.4423383" lon="10.504095"><ele>48.0</ele><time>2026-05-01T14:31:29.727Z</time></trkpt><trkpt lat="43.4424267" lon="10.504355"><ele>49.33333333333333</ele><time>2026-05-01T14:31:30.728Z</time></trkpt><trkpt lat="43.442525" lon="10.5046133"><ele>50.666666666666664</ele><time>2026-05-01T14:31:31.727Z</time></trkpt><trkpt lat="43.4426317" lon="10.5048683"><ele>52.0</ele><time>2026-05-01T14:31:32.728Z</time></trkpt><trkpt lat="43.4427367" lon="10.5051283"><ele>52.0</ele><time>2026-05-01T14:31:33.727Z</time></trkpt><trkpt lat="43.442835" lon="10.5053917"><ele>52.0</ele><time>2026-05-01T14:31:34.726Z</time></trkpt><trkpt lat="43.4429267" lon="10.50566"><ele>52.0</ele><time>2026-05-01T14:31:35.728Z</time></trkpt><trkpt lat="43.44301" lon="10.5059367"><ele>52.33333333333333</ele><time>2026-05-01T14:31:36.728Z</time></trkpt><trkpt lat="43.4430967" lon="10.5062133"><ele>52.66666666666667</ele><time>2026-05-01T14:31:37.729Z</time></trkpt><trkpt lat="43.4431833" lon="10.5064833"><ele>53.0</ele><time>2026-05-01T14:31:38.727Z</time></trkpt><trkpt lat="43.443265" lon="10.506755"><ele>54.333333333333336</ele><time>2026-05-01T14:31:39.728Z</time></trkpt><trkpt lat="43.443345" lon="10.5070183"><ele>55.66666666666667</ele><time>2026-05-01T14:31:40.728Z</time></trkpt><trkpt lat="43.4434383" lon="10.507265"><ele>57.0</ele><time>2026-05-01T14:31:41.727Z</time></trkpt><trkpt lat="43.4435333" lon="10.5074783"><ele>57.33333333333333</ele><time>2026-05-01T14:31:42.728Z</time></trkpt><trkpt lat="43.4436517" lon="10.50767"><ele>57.666666666666664</ele><time>2026-05-01T14:31:43.728Z</time></trkpt><trkpt lat="43.4437983" lon="10.5078383"><ele>58.0</ele><time>2026-05-01T14:31:44.73Z</time></trkpt><trkpt lat="43.4439633" lon="10.5079833"><ele>59.0</ele><time>2026-05-01T14:31:45.729Z</time></trkpt><trkpt lat="43.4441333" lon="10.5081083"><ele>60.0</ele><time>2026-05-01T14:31:46.729Z</time></trkpt><trkpt lat="43.4443133" lon="10.5082417"><ele>61.0</ele><time>2026-05-01T14:31:47.728Z</time></trkpt><trkpt lat="43.444495" lon="10.5083783"><ele>62.666666666666664</ele><time>2026-05-01T14:31:48.728Z</time></trkpt><trkpt lat="43.4446767" lon="10.5085167"><ele>64.33333333333333</ele><time>2026-05-01T14:31:49.727Z</time></trkpt><trkpt lat="43.444855" lon="10.50865"><ele>66.0</ele><time>2026-05-01T14:31:50.73Z</time></trkpt><trkpt lat="43.4450283" lon="10.5087833"><ele>66.33333333333333</ele><time>2026-05-01T14:31:51.727Z</time></trkpt><trkpt lat="43.4451983" lon="10.5089033"><ele>66.66666666666666</ele><time>2026-05-01T14:31:52.727Z</time></trkpt><trkpt lat="43.4453783" lon="10.5090067"><ele>67.0</ele><time>2026-05-01T14:31:53.727Z</time></trkpt><trkpt lat="43.445565" lon="10.50908"><ele>69.0</ele><time>2026-05-01T14:31:54.729Z</time></trkpt><trkpt lat="43.4457533" lon="10.5091333"><ele>71.0</ele><time>2026-05-01T14:31:55.729Z</time></trkpt><trkpt lat="43.4459333" lon="10.5091867"><ele>73.0</ele><time>2026-05-01T14:31:56.728Z</time></trkpt><trkpt lat="43.4461033" lon="10.5092567"><ele>73.0</ele><time>2026-05-01T14:31:57.728Z</time></trkpt><trkpt lat="43.44626" lon="10.5093533"><ele>73.0</ele><time>2026-05-01T14:31:58.728Z</time></trkpt><trkpt lat="43.4464067" lon="10.509485"><ele>73.0</ele><time>2026-05-01T14:31:59.73Z</time></trkpt><trkpt lat="43.4465433" lon="10.5096467"><ele>73.0</ele><time>2026-05-01T14:32:00.728Z</time></trkpt><trkpt lat="43.4466833" lon="10.509825"><ele>73.0</ele><time>2026-05-01T14:32:01.728Z</time></trkpt><trkpt lat="43.44683" lon="10.51"><ele>73.0</ele><time>2026-05-01T14:32:02.728Z</time></trkpt><trkpt lat="43.44698" lon="10.510175"><ele>70.0</ele><time>2026-05-01T14:32:03.728Z</time></trkpt><trkpt lat="43.4471333" lon="10.5103433"><ele>67.0</ele><time>2026-05-01T14:32:04.727Z</time></trkpt><trkpt lat="43.44729" lon="10.5105067"><ele>64.0</ele><time>2026-05-01T14:32:05.728Z</time></trkpt><trkpt lat="43.4474467" lon="10.5106633"><ele>64.0</ele><time>2026-05-01T14:32:06.727Z</time></trkpt><trkpt lat="43.447595" lon="10.5108183"><ele>64.0</ele><time>2026-05-01T14:32:07.731Z</time></trkpt><trkpt lat="43.4477383" lon="10.5109717"><ele>64.0</ele><time>2026-05-01T14:32:08.728Z</time></trkpt><trkpt lat="43.4478783" lon="10.5111233"><ele>65.33333333333333</ele><time>2026-05-01T14:32:09.73Z</time></trkpt><trkpt lat="43.4480183" lon="10.5112717"><ele>66.66666666666667</ele><time>2026-05-01T14:32:10.728Z</time></trkpt><trkpt lat="43.4481617" lon="10.5113983"><ele>68.0</ele><time>2026-05-01T14:32:11.729Z</time></trkpt><trkpt lat="43.4483017" lon="10.51153"><ele>68.0</ele><time>2026-05-01T14:32:12.728Z</time></trkpt><trkpt lat="43.4484417" lon="10.5116483"><ele>68.0</ele><time>2026-05-01T14:32:13.728Z</time></trkpt><trkpt lat="43.4485917" lon="10.5117583"><ele>68.0</ele><time>2026-05-01T14:32:14.728Z</time></trkpt><trkpt lat="43.4487567" lon="10.511865"><ele>67.33333333333334</ele><time>2026-05-01T14:32:15.728Z</time></trkpt><trkpt lat="43.4489283" lon="10.51197"><ele>66.66666666666667</ele><time>2026-05-01T14:32:16.728Z</time></trkpt><trkpt lat="43.4491083" lon="10.5120767"><ele>66.0</ele><time>2026-05-01T14:32:17.728Z</time></trkpt><trkpt lat="43.4492833" lon="10.5121767"><ele>65.33333333333333</ele><time>2026-05-01T14:32:18.728Z</time></trkpt><trkpt lat="43.4494483" lon="10.5122967"><ele>64.66666666666666</ele><time>2026-05-01T14:32:19.728Z</time></trkpt><trkpt lat="43.449605" lon="10.5124417"><ele>64.0</ele><time>2026-05-01T14:32:20.728Z</time></trkpt><trkpt lat="43.4497533" lon="10.5126033"><ele>63.666666666666664</ele><time>2026-05-01T14:32:21.728Z</time></trkpt><trkpt lat="43.4498917" lon="10.5127867"><ele>63.33333333333333</ele><time>2026-05-01T14:32:22.727Z</time></trkpt><trkpt lat="43.4500217" lon="10.5129783"><ele>63.0</ele><time>2026-05-01T14:32:23.727Z</time></trkpt><trkpt lat="43.4501517" lon="10.5131783"><ele>63.0</ele><time>2026-05-01T14:32:24.729Z</time></trkpt><trkpt lat="43.450275" lon="10.5133783"><ele>63.0</ele><time>2026-05-01T14:32:25.729Z</time></trkpt><trkpt lat="43.4503967" lon="10.5135733"><ele>63.0</ele><time>2026-05-01T14:32:26.728Z</time></trkpt><trkpt lat="43.4505183" lon="10.513765"><ele>63.0</ele><time>2026-05-01T14:32:27.728Z</time></trkpt><trkpt lat="43.4506467" lon="10.5139517"><ele>63.0</ele><time>2026-05-01T14:32:28.728Z</time></trkpt><trkpt lat="43.4507833" lon="10.514135"><ele>63.0</ele><time>2026-05-01T14:32:29.729Z</time></trkpt><trkpt lat="43.4509233" lon="10.5143083"><ele>63.0</ele><time>2026-05-01T14:32:30.728Z</time></trkpt><trkpt lat="43.451075" lon="10.5144717"><ele>63.0</ele><time>2026-05-01T14:32:31.728Z</time></trkpt><trkpt lat="43.451225" lon="10.514625"><ele>63.0</ele><time>2026-05-01T14:32:32.728Z</time></trkpt><trkpt lat="43.4513717" lon="10.5147783"><ele>62.66666666666667</ele><time>2026-05-01T14:32:33.727Z</time></trkpt><trkpt lat="43.4515133" lon="10.5149183"><ele>62.333333333333336</ele><time>2026-05-01T14:32:34.728Z</time></trkpt><trkpt lat="43.451655" lon="10.515055"><ele>62.0</ele><time>2026-05-01T14:32:35.728Z</time></trkpt><trkpt lat="43.4517883" lon="10.5151933"><ele>62.0</ele><time>2026-05-01T14:32:36.727Z</time></trkpt><trkpt lat="43.4519067" lon="10.5153467"><ele>62.0</ele><time>2026-05-01T14:32:37.727Z</time></trkpt><trkpt lat="43.452005" lon="10.5155167"><ele>62.0</ele><time>2026-05-01T14:32:38.728Z</time></trkpt><trkpt lat="43.4520833" lon="10.5157067"><ele>60.66666666666667</ele><time>2026-05-01T14:32:39.728Z</time></trkpt><trkpt lat="43.452135" lon="10.51591"><ele>59.33333333333333</ele><time>2026-05-01T14:32:40.728Z</time></trkpt><trkpt lat="43.45218" lon="10.5161283"><ele>58.0</ele><time>2026-05-01T14:32:41.727Z</time></trkpt><trkpt lat="43.4522083" lon="10.5163583"><ele>55.666666666666664</ele><time>2026-05-01T14:32:42.728Z</time></trkpt><trkpt lat="43.4522333" lon="10.5165917"><ele>53.33333333333333</ele><time>2026-05-01T14:32:43.728Z</time></trkpt><trkpt lat="43.4522617" lon="10.5168283"><ele>51.0</ele><time>2026-05-01T14:32:44.728Z</time></trkpt><trkpt lat="43.45229" lon="10.5170717"><ele>50.66666666666667</ele><time>2026-05-01T14:32:45.728Z</time></trkpt><trkpt lat="43.4523167" lon="10.5173133"><ele>50.333333333333336</ele><time>2026-05-01T14:32:46.728Z</time></trkpt><trkpt lat="43.452345" lon="10.5175617"><ele>50.0</ele><time>2026-05-01T14:32:47.728Z</time></trkpt><trkpt lat="43.452375" lon="10.5178117"><ele>50.333333333333336</ele><time>2026-05-01T14:32:48.728Z</time></trkpt><trkpt lat="43.4524067" lon="10.5180717"><ele>50.66666666666667</ele><time>2026-05-01T14:32:49.728Z</time></trkpt><trkpt lat="43.4524333" lon="10.5183367"><ele>51.0</ele><time>2026-05-01T14:32:50.728Z</time></trkpt><trkpt lat="43.4524583" lon="10.5186067"><ele>52.0</ele><time>2026-05-01T14:32:51.727Z</time></trkpt><trkpt lat="43.4524867" lon="10.5188817"><ele>53.0</ele><time>2026-05-01T14:32:52.728Z</time></trkpt><trkpt lat="43.4525183" lon="10.519155"><ele>54.0</ele><time>2026-05-01T14:32:53.729Z</time></trkpt><trkpt lat="43.4525483" lon="10.5194233"><ele>55.33333333333333</ele><time>2026-05-01T14:32:54.727Z</time></trkpt><trkpt lat="43.4525767" lon="10.5196933"><ele>56.666666666666664</ele><time>2026-05-01T14:32:55.727Z</time></trkpt><trkpt lat="43.4526033" lon="10.5199633"><ele>58.0</ele><time>2026-05-01T14:32:56.728Z</time></trkpt><trkpt lat="43.4526317" lon="10.520225"><ele>59.666666666666664</ele><time>2026-05-01T14:32:57.728Z</time></trkpt><trkpt lat="43.4526583" lon="10.5204783"><ele>61.33333333333333</ele><time>2026-05-01T14:32:58.726Z</time></trkpt><trkpt lat="43.4526833" lon="10.5207233"><ele>63.0</ele><time>2026-05-01T14:32:59.728Z</time></trkpt><trkpt lat="43.4527117" lon="10.52094"><ele>63.0</ele><time>2026-05-01T14:33:00.728Z</time></trkpt><trkpt lat="43.4527383" lon="10.521155"><ele>63.0</ele><time>2026-05-01T14:33:01.728Z</time></trkpt><trkpt lat="43.4527783" lon="10.5213567"><ele>63.0</ele><time>2026-05-01T14:33:02.727Z</time></trkpt><trkpt lat="43.4528417" lon="10.5215333"><ele>63.75</ele><time>2026-05-01T14:33:03.729Z</time></trkpt><trkpt lat="43.45293" lon="10.521685"><ele>64.5</ele><time>2026-05-01T14:33:04.727Z</time></trkpt><trkpt lat="43.453035" lon="10.521825"><ele>65.25</ele><time>2026-05-01T14:33:05.728Z</time></trkpt><trkpt lat="43.4531617" lon="10.5219467"><ele>66.0</ele><time>2026-05-01T14:33:06.729Z</time></trkpt><trkpt lat="43.453305" lon="10.52205"><ele>67.66666666666667</ele><time>2026-05-01T14:33:07.729Z</time></trkpt><trkpt lat="43.4534583" lon="10.52215"><ele>69.33333333333334</ele><time>2026-05-01T14:33:08.727Z</time></trkpt><trkpt lat="43.453615" lon="10.522245"><ele>71.0</ele><time>2026-05-01T14:33:09.727Z</time></trkpt><trkpt lat="43.4537767" lon="10.522345"><ele>72.66666666666667</ele><time>2026-05-01T14:33:10.727Z</time></trkpt><trkpt lat="43.45394" lon="10.522445"><ele>74.33333333333333</ele><time>2026-05-01T14:33:11.727Z</time></trkpt><trkpt lat="43.4541017" lon="10.5225417"><ele>76.0</ele><time>2026-05-01T14:33:12.727Z</time></trkpt><trkpt lat="43.45426" lon="10.522635"><ele>76.0</ele><time>2026-05-01T14:33:13.726Z</time></trkpt><trkpt lat="43.4544217" lon="10.5227217"><ele>76.0</ele><time>2026-05-01T14:33:14.726Z</time></trkpt><trkpt lat="43.4545817" lon="10.5228133"><ele>76.0</ele><time>2026-05-01T14:33:15.726Z</time></trkpt><trkpt lat="43.4547417" lon="10.5229183"><ele>77.0</ele><time>2026-05-01T14:33:16.727Z</time></trkpt><trkpt lat="43.4549" lon="10.5230383"><ele>78.0</ele><time>2026-05-01T14:33:17.727Z</time></trkpt><trkpt lat="43.45505" lon="10.5231667"><ele>79.0</ele><time>2026-05-01T14:33:18.727Z</time></trkpt><trkpt lat="43.4551883" lon="10.523305"><ele>79.0</ele><time>2026-05-01T14:33:19.726Z</time></trkpt><trkpt lat="43.4553033" lon="10.523465"><ele>79.0</ele><time>2026-05-01T14:33:20.727Z</time></trkpt><trkpt lat="43.4553917" lon="10.5236567"><ele>79.0</ele><time>2026-05-01T14:33:21.727Z</time></trkpt><trkpt lat="43.4554567" lon="10.523865"><ele>80.66666666666666</ele><time>2026-05-01T14:33:22.727Z</time></trkpt><trkpt lat="43.455515" lon="10.5240833"><ele>82.33333333333333</ele><time>2026-05-01T14:33:23.727Z</time></trkpt><trkpt lat="43.455585" lon="10.5242917"><ele>84.0</ele><time>2026-05-01T14:33:24.728Z</time></trkpt><trkpt lat="43.455685" lon="10.52448"><ele>84.33333333333333</ele><time>2026-05-01T14:33:25.727Z</time></trkpt><trkpt lat="43.4558117" lon="10.524645"><ele>84.66666666666666</ele><time>2026-05-01T14:33:26.726Z</time></trkpt><trkpt lat="43.4559517" lon="10.524795"><ele>85.0</ele><time>2026-05-01T14:33:27.726Z</time></trkpt><trkpt lat="43.4560983" lon="10.5249417"><ele>85.0</ele><time>2026-05-01T14:33:28.727Z</time></trkpt><trkpt lat="43.4562417" lon="10.525095"><ele>85.0</ele><time>2026-05-01T14:33:29.727Z</time></trkpt><trkpt lat="43.456385" lon="10.5252567"><ele>85.0</ele><time>2026-05-01T14:33:30.729Z</time></trkpt><trkpt lat="43.4565217" lon="10.52543"><ele>86.33333333333333</ele><time>2026-05-01T14:33:31.728Z</time></trkpt><trkpt lat="43.456655" lon="10.5256133"><ele>87.66666666666667</ele><time>2026-05-01T14:33:32.728Z</time></trkpt><trkpt lat="43.4567867" lon="10.5258033"><ele>89.0</ele><time>2026-05-01T14:33:33.727Z</time></trkpt><trkpt lat="43.45692" lon="10.525985"><ele>89.0</ele><time>2026-05-01T14:33:34.727Z</time></trkpt><trkpt lat="43.4570583" lon="10.526165"><ele>89.0</ele><time>2026-05-01T14:33:35.727Z</time></trkpt><trkpt lat="43.4572017" lon="10.52634"><ele>89.0</ele><time>2026-05-01T14:33:36.727Z</time></trkpt><trkpt lat="43.4573517" lon="10.52651"><ele>89.33333333333334</ele><time>2026-05-01T14:33:37.727Z</time></trkpt><trkpt lat="43.4575083" lon="10.5266717"><ele>89.66666666666667</ele><time>2026-05-01T14:33:38.727Z</time></trkpt><trkpt lat="43.45767" lon="10.5268267"><ele>90.0</ele><time>2026-05-01T14:33:39.728Z</time></trkpt><trkpt lat="43.4578317" lon="10.5269817"><ele>90.66666666666667</ele><time>2026-05-01T14:33:40.727Z</time></trkpt><trkpt lat="43.4579967" lon="10.5271433"><ele>91.33333333333334</ele><time>2026-05-01T14:33:41.726Z</time></trkpt><trkpt lat="43.458155" lon="10.527315"><ele>92.0</ele><time>2026-05-01T14:33:42.727Z</time></trkpt><trkpt lat="43.4583017" lon="10.527495"><ele>92.0</ele><time>2026-05-01T14:33:43.726Z</time></trkpt><trkpt lat="43.4584317" lon="10.52768"><ele>92.0</ele><time>2026-05-01T14:33:44.728Z</time></trkpt><trkpt lat="43.45855" lon="10.527885"><ele>92.0</ele><time>2026-05-01T14:33:45.727Z</time></trkpt><trkpt lat="43.458655" lon="10.528085"><ele>92.33333333333334</ele><time>2026-05-01T14:33:46.728Z</time></trkpt><trkpt lat="43.4587517" lon="10.5282833"><ele>92.66666666666667</ele><time>2026-05-01T14:33:47.727Z</time></trkpt><trkpt lat="43.4588367" lon="10.528475"><ele>93.0</ele><time>2026-05-01T14:33:48.727Z</time></trkpt><trkpt lat="43.458915" lon="10.528675"><ele>94.33333333333334</ele><time>2026-05-01T14:33:49.729Z</time></trkpt><trkpt lat="43.45898" lon="10.528885"><ele>95.66666666666667</ele><time>2026-05-01T14:33:50.728Z</time></trkpt><trkpt lat="43.4590417" lon="10.529105"><ele>97.0</ele><time>2026-05-01T14:33:51.727Z</time></trkpt><trkpt lat="43.4591033" lon="10.529325"><ele>97.0</ele><time>2026-05-01T14:33:52.727Z</time></trkpt><trkpt lat="43.4591717" lon="10.5295567"><ele>97.0</ele><time>2026-05-01T14:33:53.728Z</time></trkpt><trkpt lat="43.459245" lon="10.5297967"><ele>97.0</ele><time>2026-05-01T14:33:54.728Z</time></trkpt><trkpt lat="43.4593183" lon="10.53004"><ele>94.33333333333334</ele><time>2026-05-01T14:33:55.727Z</time></trkpt><trkpt lat="43.4593917" lon="10.5302783"><ele>91.66666666666667</ele><time>2026-05-01T14:33:56.728Z</time></trkpt><trkpt lat="43.4594633" lon="10.5305283"><ele>89.0</ele><time>2026-05-01T14:33:57.726Z</time></trkpt><trkpt lat="43.4595367" lon="10.53078"><ele>87.66666666666667</ele><time>2026-05-01T14:33:58.726Z</time></trkpt><trkpt lat="43.45961" lon="10.5310383"><ele>86.33333333333333</ele><time>2026-05-01T14:33:59.728Z</time></trkpt><trkpt lat="43.4596767" lon="10.5312917"><ele>85.0</ele><time>2026-05-01T14:34:00.726Z</time></trkpt><trkpt lat="43.4597467" lon="10.53154"><ele>85.0</ele><time>2026-05-01T14:34:01.727Z</time></trkpt><trkpt lat="43.4598167" lon="10.5317833"><ele>85.0</ele><time>2026-05-01T14:34:02.728Z</time></trkpt><trkpt lat="43.45988" lon="10.5320233"><ele>85.0</ele><time>2026-05-01T14:34:03.727Z</time></trkpt><trkpt lat="43.45994" lon="10.5322567"><ele>84.33333333333333</ele><time>2026-05-01T14:34:04.727Z</time></trkpt><trkpt lat="43.4600033" lon="10.5324883"><ele>83.66666666666667</ele><time>2026-05-01T14:34:05.728Z</time></trkpt><trkpt lat="43.4600633" lon="10.53272"><ele>83.0</ele><time>2026-05-01T14:34:06.728Z</time></trkpt><trkpt lat="43.4601333" lon="10.5329483"><ele>81.66666666666667</ele><time>2026-05-01T14:34:07.727Z</time></trkpt><trkpt lat="43.4602117" lon="10.533175"><ele>80.33333333333333</ele><time>2026-05-01T14:34:08.726Z</time></trkpt><trkpt lat="43.46031" lon="10.5334"><ele>79.0</ele><time>2026-05-01T14:34:09.728Z</time></trkpt><trkpt lat="43.4604183" lon="10.5336283"><ele>80.33333333333333</ele><time>2026-05-01T14:34:10.727Z</time></trkpt><trkpt lat="43.4605217" lon="10.5338617"><ele>81.66666666666667</ele><time>2026-05-01T14:34:11.727Z</time></trkpt><trkpt lat="43.4606267" lon="10.5341017"><ele>83.0</ele><time>2026-05-01T14:34:12.727Z</time></trkpt><trkpt lat="43.4607333" lon="10.5343367"><ele>82.33333333333334</ele><time>2026-05-01T14:34:13.727Z</time></trkpt><trkpt lat="43.4608333" lon="10.534575"><ele>81.66666666666667</ele><time>2026-05-01T14:34:14.728Z</time></trkpt><trkpt lat="43.4609317" lon="10.5348083"><ele>81.0</ele><time>2026-05-01T14:34:15.728Z</time></trkpt><trkpt lat="43.4610417" lon="10.53502"><ele>81.0</ele><time>2026-05-01T14:34:16.726Z</time></trkpt><trkpt lat="43.4611667" lon="10.5352183"><ele>81.0</ele><time>2026-05-01T14:34:17.728Z</time></trkpt><trkpt lat="43.4613083" lon="10.5353933"><ele>81.0</ele><time>2026-05-01T14:34:18.727Z</time></trkpt><trkpt lat="43.4614667" lon="10.53555"><ele>83.0</ele><time>2026-05-01T14:34:19.726Z</time></trkpt><trkpt lat="43.46163" lon="10.535695"><ele>85.0</ele><time>2026-05-01T14:34:20.727Z</time></trkpt><trkpt lat="43.4617917" lon="10.535835"><ele>87.0</ele><time>2026-05-01T14:34:21.727Z</time></trkpt><trkpt lat="43.461945" lon="10.5359667"><ele>87.0</ele><time>2026-05-01T14:34:22.727Z</time></trkpt><trkpt lat="43.4620883" lon="10.53609"><ele>87.0</ele><time>2026-05-01T14:34:23.728Z</time></trkpt><trkpt lat="43.46221" lon="10.5362217"><ele>87.0</ele><time>2026-05-01T14:34:24.726Z</time></trkpt><trkpt lat="43.4623117" lon="10.536375"><ele>89.66666666666667</ele><time>2026-05-01T14:34:25.727Z</time></trkpt><trkpt lat="43.4623883" lon="10.53655"><ele>92.33333333333334</ele><time>2026-05-01T14:34:26.727Z</time></trkpt><trkpt lat="43.4624517" lon="10.5367383"><ele>95.0</ele><time>2026-05-01T14:34:27.726Z</time></trkpt><trkpt lat="43.46252" lon="10.5369283"><ele>97.0</ele><time>2026-05-01T14:34:28.726Z</time></trkpt><trkpt lat="43.4626083" lon="10.5371067"><ele>99.0</ele><time>2026-05-01T14:34:29.728Z</time></trkpt><trkpt lat="43.4627167" lon="10.5372717"><ele>101.0</ele><time>2026-05-01T14:34:30.727Z</time></trkpt><trkpt lat="43.46284" lon="10.5374367"><ele>101.33333333333333</ele><time>2026-05-01T14:34:31.727Z</time></trkpt><trkpt lat="43.462965" lon="10.5376117"><ele>101.66666666666666</ele><time>2026-05-01T14:34:32.728Z</time></trkpt><trkpt lat="43.4630917" lon="10.53779"><ele>102.0</ele><time>2026-05-01T14:34:33.728Z</time></trkpt><trkpt lat="43.46322" lon="10.537975"><ele>102.33333333333334</ele><time>2026-05-01T14:34:34.726Z</time></trkpt><trkpt lat="43.4633483" lon="10.5381617"><ele>102.66666666666667</ele><time>2026-05-01T14:34:35.728Z</time></trkpt><trkpt lat="43.4634733" lon="10.538345"><ele>103.0</ele><time>2026-05-01T14:34:36.727Z</time></trkpt><trkpt lat="43.463595" lon="10.5385267"><ele>103.0</ele><time>2026-05-01T14:34:37.728Z</time></trkpt><trkpt lat="43.46371" lon="10.5387133"><ele>103.0</ele><time>2026-05-01T14:34:38.726Z</time></trkpt><trkpt lat="43.4638183" lon="10.5389"><ele>103.0</ele><time>2026-05-01T14:34:39.726Z</time></trkpt><trkpt lat="43.463925" lon="10.539105"><ele>104.0</ele><time>2026-05-01T14:34:40.727Z</time></trkpt><trkpt lat="43.4640283" lon="10.5393183"><ele>105.0</ele><time>2026-05-01T14:34:41.728Z</time></trkpt><trkpt lat="43.46413" lon="10.5395333"><ele>106.0</ele><time>2026-05-01T14:34:42.727Z</time></trkpt><trkpt lat="43.4642317" lon="10.539755"><ele>106.0</ele><time>2026-05-01T14:34:43.727Z</time></trkpt><trkpt lat="43.4643383" lon="10.5399833"><ele>106.0</ele><time>2026-05-01T14:34:44.728Z</time></trkpt><trkpt lat="43.4644533" lon="10.5402067"><ele>106.0</ele><time>2026-05-01T14:34:45.727Z</time></trkpt><trkpt lat="43.4645667" lon="10.5404383"><ele>107.0</ele><time>2026-05-01T14:34:46.726Z</time></trkpt><trkpt lat="43.4646767" lon="10.540675"><ele>108.0</ele><time>2026-05-01T14:34:47.726Z</time></trkpt><trkpt lat="43.4647817" lon="10.5409067"><ele>109.0</ele><time>2026-05-01T14:34:48.728Z</time></trkpt><trkpt lat="43.464885" lon="10.5411383"><ele>110.0</ele><time>2026-05-01T14:34:49.727Z</time></trkpt><trkpt lat="43.4649683" lon="10.541375"><ele>111.0</ele><time>2026-05-01T14:34:50.727Z</time></trkpt><trkpt lat="43.465045" lon="10.541615"><ele>112.0</ele><time>2026-05-01T14:34:51.726Z</time></trkpt><trkpt lat="43.4651117" lon="10.5418717"><ele>112.0</ele><time>2026-05-01T14:34:52.726Z</time></trkpt><trkpt lat="43.465185" lon="10.542125"><ele>112.0</ele><time>2026-05-01T14:34:53.728Z</time></trkpt><trkpt lat="43.46527" lon="10.5423783"><ele>112.0</ele><time>2026-05-01T14:34:54.727Z</time></trkpt><trkpt lat="43.465365" lon="10.5426167"><ele>113.66666666666667</ele><time>2026-05-01T14:34:55.728Z</time></trkpt><trkpt lat="43.4654667" lon="10.5428567"><ele>115.33333333333334</ele><time>2026-05-01T14:34:56.727Z</time></trkpt><trkpt lat="43.4655717" lon="10.5430967"><ele>117.0</ele><time>2026-05-01T14:34:57.729Z</time></trkpt><trkpt lat="43.46568" lon="10.5433317"><ele>117.0</ele><time>2026-05-01T14:34:58.728Z</time></trkpt><trkpt lat="43.4657933" lon="10.543565"><ele>117.0</ele><time>2026-05-01T14:34:59.728Z</time></trkpt><trkpt lat="43.4659083" lon="10.5437933"><ele>117.0</ele><time>2026-05-01T14:35:00.727Z</time></trkpt><trkpt lat="43.466025" lon="10.5440217"><ele>117.66666666666666</ele><time>2026-05-01T14:35:01.729Z</time></trkpt><trkpt lat="43.46614" lon="10.5442533"><ele>118.33333333333333</ele><time>2026-05-01T14:35:02.728Z</time></trkpt><trkpt lat="43.4662517" lon="10.54449"><ele>119.0</ele><time>2026-05-01T14:35:03.728Z</time></trkpt><trkpt lat="43.466365" lon="10.5447183"><ele>120.66666666666666</ele><time>2026-05-01T14:35:04.727Z</time></trkpt><trkpt lat="43.46648" lon="10.5449417"><ele>122.33333333333334</ele><time>2026-05-01T14:35:05.727Z</time></trkpt><trkpt lat="43.4666083" lon="10.5451417"><ele>124.0</ele><time>2026-05-01T14:35:06.727Z</time></trkpt><trkpt lat="43.4667367" lon="10.545325"><ele>124.0</ele><time>2026-05-01T14:35:07.728Z</time></trkpt><trkpt lat="43.46685" lon="10.5455083"><ele>124.0</ele><time>2026-05-01T14:35:08.728Z</time></trkpt><trkpt lat="43.4669517" lon="10.54571"><ele>124.0</ele><time>2026-05-01T14:35:09.727Z</time></trkpt><trkpt lat="43.4670467" lon="10.54592"><ele>123.66666666666667</ele><time>2026-05-01T14:35:10.728Z</time></trkpt><trkpt lat="43.4671267" lon="10.5461367"><ele>123.33333333333334</ele><time>2026-05-01T14:35:11.728Z</time></trkpt><trkpt lat="43.46719" lon="10.5463567"><ele>123.0</ele><time>2026-05-01T14:35:12.727Z</time></trkpt><trkpt lat="43.4672417" lon="10.5465817"><ele>124.0</ele><time>2026-05-01T14:35:13.726Z</time></trkpt><trkpt lat="43.46728" lon="10.54681"><ele>125.0</ele><time>2026-05-01T14:35:14.728Z</time></trkpt><trkpt lat="43.4673" lon="10.5470483"><ele>126.0</ele><time>2026-05-01T14:35:15.728Z</time></trkpt><trkpt lat="43.4673067" lon="10.5472933"><ele>127.33333333333334</ele><time>2026-05-01T14:35:16.728Z</time></trkpt><trkpt lat="43.4673083" lon="10.5475467"><ele>128.66666666666669</ele><time>2026-05-01T14:35:17.727Z</time></trkpt><trkpt lat="43.4673133" lon="10.5478033"><ele>130.0</ele><time>2026-05-01T14:35:18.727Z</time></trkpt><trkpt lat="43.46732" lon="10.5480617"><ele>131.33333333333334</ele><time>2026-05-01T14:35:19.728Z</time></trkpt><trkpt lat="43.46734" lon="10.548315"><ele>132.66666666666666</ele><time>2026-05-01T14:35:20.728Z</time></trkpt><trkpt lat="43.4673767" lon="10.5485617"><ele>134.0</ele><time>2026-05-01T14:35:21.727Z</time></trkpt><trkpt lat="43.4674267" lon="10.5488017"><ele>135.66666666666666</ele><time>2026-05-01T14:35:22.728Z</time></trkpt><trkpt lat="43.467475" lon="10.549035"><ele>137.33333333333334</ele><time>2026-05-01T14:35:23.727Z</time></trkpt><trkpt lat="43.4675133" lon="10.5492617"><ele>139.0</ele><time>2026-05-01T14:35:24.728Z</time></trkpt><trkpt lat="43.4675417" lon="10.549495"><ele>140.0</ele><time>2026-05-01T14:35:25.727Z</time></trkpt><trkpt lat="43.4675633" lon="10.549735"><ele>141.0</ele><time>2026-05-01T14:35:26.728Z</time></trkpt><trkpt lat="43.46758" lon="10.5499817"><ele>142.0</ele><time>2026-05-01T14:35:27.727Z</time></trkpt><trkpt lat="43.4675983" lon="10.5502367"><ele>143.0</ele><time>2026-05-01T14:35:28.727Z</time></trkpt><trkpt lat="43.46762" lon="10.5504967"><ele>144.0</ele><time>2026-05-01T14:35:29.728Z</time></trkpt><trkpt lat="43.4676367" lon="10.5507583"><ele>145.0</ele><time>2026-05-01T14:35:30.727Z</time></trkpt><trkpt lat="43.4676433" lon="10.55102"><ele>145.66666666666669</ele><time>2026-05-01T14:35:31.728Z</time></trkpt><trkpt lat="43.4676433" lon="10.5512833"><ele>146.33333333333334</ele><time>2026-05-01T14:35:32.728Z</time></trkpt><trkpt lat="43.4676433" lon="10.5515467"><ele>147.0</ele><time>2026-05-01T14:35:33.727Z</time></trkpt><trkpt lat="43.4676467" lon="10.55181"><ele>147.66666666666666</ele><time>2026-05-01T14:35:34.727Z</time></trkpt><trkpt lat="43.467655" lon="10.55207"><ele>148.33333333333331</ele><time>2026-05-01T14:35:35.728Z</time></trkpt><trkpt lat="43.467665" lon="10.5523233"><ele>149.0</ele><time>2026-05-01T14:35:36.728Z</time></trkpt><trkpt lat="43.4676767" lon="10.5525733"><ele>149.0</ele><time>2026-05-01T14:35:37.728Z</time></trkpt><trkpt lat="43.4676867" lon="10.5528217"><ele>149.0</ele><time>2026-05-01T14:35:38.728Z</time></trkpt><trkpt lat="43.4677" lon="10.5530633"><ele>149.0</ele><time>2026-05-01T14:35:39.727Z</time></trkpt><trkpt lat="43.467715" lon="10.5532983"><ele>149.33333333333331</ele><time>2026-05-01T14:35:40.726Z</time></trkpt><trkpt lat="43.467725" lon="10.5535333"><ele>149.66666666666666</ele><time>2026-05-01T14:35:41.728Z</time></trkpt><trkpt lat="43.4677367" lon="10.55377"><ele>150.0</ele><time>2026-05-01T14:35:42.728Z</time></trkpt><trkpt lat="43.4677417" lon="10.554005"><ele>151.0</ele><time>2026-05-01T14:35:43.728Z</time></trkpt><trkpt lat="43.4677467" lon="10.55424"><ele>152.0</ele><time>2026-05-01T14:35:44.726Z</time></trkpt><trkpt lat="43.4677567" lon="10.5544717"><ele>153.0</ele><time>2026-05-01T14:35:45.727Z</time></trkpt><trkpt lat="43.4677683" lon="10.5546917"><ele>153.0</ele><time>2026-05-01T14:35:46.726Z</time></trkpt><trkpt lat="43.4677833" lon="10.5549033"><ele>153.0</ele><time>2026-05-01T14:35:47.727Z</time></trkpt><trkpt lat="43.4678033" lon="10.5551067"><ele>153.0</ele><time>2026-05-01T14:35:48.726Z</time></trkpt><trkpt lat="43.4678233" lon="10.5553017"><ele>153.0</ele><time>2026-05-01T14:35:49.729Z</time></trkpt><trkpt lat="43.467835" lon="10.5554867"><ele>152.8</ele><time>2026-05-01T14:35:50.728Z</time></trkpt><trkpt lat="43.4678383" lon="10.555655"><ele>152.60000000000002</ele><time>2026-05-01T14:35:51.728Z</time></trkpt><trkpt lat="43.4678417" lon="10.5558117"><ele>152.39999999999998</ele><time>2026-05-01T14:35:52.727Z</time></trkpt><trkpt lat="43.4678333" lon="10.55596"><ele>152.2</ele><time>2026-05-01T14:35:53.728Z</time></trkpt><trkpt lat="43.46782" lon="10.5560983"><ele>152.0</ele><time>2026-05-01T14:35:54.728Z</time></trkpt><trkpt lat="43.4677983" lon="10.55622"><ele>153.2</ele><time>2026-05-01T14:35:55.726Z</time></trkpt><trkpt lat="43.4677733" lon="10.5563133"><ele>154.39999999999998</ele><time>2026-05-01T14:35:56.728Z</time></trkpt><trkpt lat="43.4677567" lon="10.5564517"><ele>155.60000000000002</ele><time>2026-05-01T14:35:58.728Z</time></trkpt><trkpt lat="43.467825" lon="10.5565883"><ele>156.8</ele><time>2026-05-01T14:36:00.727Z</time></trkpt><trkpt lat="43.46788" lon="10.556685"><ele>158.0</ele><time>2026-05-01T14:36:01.727Z</time></trkpt><trkpt lat="43.4679333" lon="10.556795"><ele>157.75</ele><time>2026-05-01T14:36:02.728Z</time></trkpt><trkpt lat="43.4679917" lon="10.5569233"><ele>157.5</ele><time>2026-05-01T14:36:03.727Z</time></trkpt><trkpt lat="43.4680583" lon="10.557065"><ele>157.25</ele><time>2026-05-01T14:36:04.728Z</time></trkpt><trkpt lat="43.4681433" lon="10.5571883"><ele>157.0</ele><time>2026-05-01T14:36:05.728Z</time></trkpt><trkpt lat="43.4682483" lon="10.5572867"><ele>160.5</ele><time>2026-05-01T14:36:06.727Z</time></trkpt><trkpt lat="43.4683683" lon="10.5573583"><ele>164.0</ele><time>2026-05-01T14:36:07.727Z</time></trkpt><trkpt lat="43.4684917" lon="10.5574067"><ele>167.5</ele><time>2026-05-01T14:36:08.728Z</time></trkpt><trkpt lat="43.4686033" lon="10.5573917"><ele>171.0</ele><time>2026-05-01T14:36:09.728Z</time></trkpt><trkpt lat="43.4687133" lon="10.5573417"><ele>170.75</ele><time>2026-05-01T14:36:10.727Z</time></trkpt><trkpt lat="43.468815" lon="10.55727"><ele>170.5</ele><time>2026-05-01T14:36:11.728Z</time></trkpt><trkpt lat="43.4689183" lon="10.5572517"><ele>170.25</ele><time>2026-05-01T14:36:12.728Z</time></trkpt><trkpt lat="43.469035" lon="10.557295"><ele>170.0</ele><time>2026-05-01T14:36:13.727Z</time></trkpt><trkpt lat="43.469165" lon="10.557375"><ele>170.0</ele><time>2026-05-01T14:36:14.729Z</time></trkpt><trkpt lat="43.4693" lon="10.5574717"><ele>170.0</ele><time>2026-05-01T14:36:15.728Z</time></trkpt><trkpt lat="43.4694333" lon="10.5575717"><ele>170.0</ele><time>2026-05-01T14:36:16.727Z</time></trkpt><trkpt lat="43.4695517" lon="10.55769"><ele>168.25</ele><time>2026-05-01T14:36:17.728Z</time></trkpt><trkpt lat="43.4696567" lon="10.55782"><ele>166.5</ele><time>2026-05-01T14:36:18.727Z</time></trkpt><trkpt lat="43.4697383" lon="10.5579917"><ele>164.75</ele><time>2026-05-01T14:36:19.728Z</time></trkpt><trkpt lat="43.469815" lon="10.55817"><ele>163.0</ele><time>2026-05-01T14:36:20.728Z</time></trkpt><trkpt lat="43.4698783" lon="10.558355"><ele>167.66666666666669</ele><time>2026-05-01T14:36:21.727Z</time></trkpt><trkpt lat="43.469935" lon="10.5585467"><ele>172.33333333333334</ele><time>2026-05-01T14:36:22.728Z</time></trkpt><trkpt lat="43.469985" lon="10.5587483"><ele>177.0</ele><time>2026-05-01T14:36:23.728Z</time></trkpt><trkpt lat="43.4700317" lon="10.55896"><ele>180.33333333333334</ele><time>2026-05-01T14:36:24.727Z</time></trkpt><trkpt lat="43.4700717" lon="10.55917"><ele>183.66666666666669</ele><time>2026-05-01T14:36:25.727Z</time></trkpt><trkpt lat="43.470095" lon="10.5593817"><ele>187.0</ele><time>2026-05-01T14:36:26.728Z</time></trkpt><trkpt lat="43.4701033" lon="10.5596"><ele>188.5</ele><time>2026-05-01T14:36:27.727Z</time></trkpt><trkpt lat="43.4701067" lon="10.5598083"><ele>190.0</ele><time>2026-05-01T14:36:28.728Z</time></trkpt><trkpt lat="43.4701033" lon="10.5600017"><ele>191.5</ele><time>2026-05-01T14:36:29.729Z</time></trkpt><trkpt lat="43.4700817" lon="10.5601767"><ele>193.0</ele><time>2026-05-01T14:36:30.728Z</time></trkpt><trkpt lat="43.4700567" lon="10.56034"><ele>191.75</ele><time>2026-05-01T14:36:31.729Z</time></trkpt><trkpt lat="43.4700267" lon="10.5604933"><ele>190.5</ele><time>2026-05-01T14:36:32.728Z</time></trkpt><trkpt lat="43.4699983" lon="10.5606617"><ele>189.25</ele><time>2026-05-01T14:36:33.728Z</time></trkpt><trkpt lat="43.47" lon="10.5608383"><ele>188.0</ele><time>2026-05-01T14:36:34.728Z</time></trkpt><trkpt lat="43.4700333" lon="10.5610167"><ele>188.0</ele><time>2026-05-01T14:36:35.727Z</time></trkpt><trkpt lat="43.4700867" lon="10.5611967"><ele>188.0</ele><time>2026-05-01T14:36:36.728Z</time></trkpt><trkpt lat="43.4701567" lon="10.56138"><ele>188.0</ele><time>2026-05-01T14:36:37.727Z</time></trkpt><trkpt lat="43.47023" lon="10.561565"><ele>188.0</ele><time>2026-05-01T14:36:38.728Z</time></trkpt><trkpt lat="43.4703" lon="10.56174"><ele>187.75</ele><time>2026-05-01T14:36:39.726Z</time></trkpt><trkpt lat="43.4703783" lon="10.56191"><ele>187.5</ele><time>2026-05-01T14:36:40.728Z</time></trkpt><trkpt lat="43.4704633" lon="10.56207"><ele>187.25</ele><time>2026-05-01T14:36:41.727Z</time></trkpt><trkpt lat="43.470555" lon="10.56222"><ele>187.0</ele><time>2026-05-01T14:36:42.728Z</time></trkpt><trkpt lat="43.47066" lon="10.5623567"><ele>187.0</ele><time>2026-05-01T14:36:43.726Z</time></trkpt><trkpt lat="43.4707767" lon="10.5624633"><ele>187.0</ele><time>2026-05-01T14:36:44.727Z</time></trkpt><trkpt lat="43.4708883" lon="10.5625633"><ele>187.0</ele><time>2026-05-01T14:36:45.728Z</time></trkpt><trkpt lat="43.4709967" lon="10.56267"><ele>187.0</ele><time>2026-05-01T14:36:46.728Z</time></trkpt><trkpt lat="43.4710983" lon="10.5627833"><ele>186.0</ele><time>2026-05-01T14:36:47.727Z</time></trkpt><trkpt lat="43.4711983" lon="10.5629033"><ele>185.0</ele><time>2026-05-01T14:36:48.727Z</time></trkpt><trkpt lat="43.471285" lon="10.5630267"><ele>184.0</ele><time>2026-05-01T14:36:49.728Z</time></trkpt><trkpt lat="43.4713717" lon="10.5631467"><ele>183.0</ele><time>2026-05-01T14:36:50.728Z</time></trkpt><trkpt lat="43.47145" lon="10.5632483"><ele>185.0</ele><time>2026-05-01T14:36:51.727Z</time></trkpt><trkpt lat="43.4715283" lon="10.56335"><ele>187.0</ele><time>2026-05-01T14:36:52.728Z</time></trkpt><trkpt lat="43.4715967" lon="10.5634533"><ele>189.0</ele><time>2026-05-01T14:36:53.727Z</time></trkpt><trkpt lat="43.4716467" lon="10.5635783"><ele>191.0</ele><time>2026-05-01T14:36:54.727Z</time></trkpt><trkpt lat="43.4716833" lon="10.5637217"><ele>193.0</ele><time>2026-05-01T14:36:55.728Z</time></trkpt><trkpt lat="43.471715" lon="10.56388"><ele>193.0</ele><time>2026-05-01T14:36:56.727Z</time></trkpt><trkpt lat="43.471745" lon="10.564025"><ele>193.0</ele><time>2026-05-01T14:36:57.728Z</time></trkpt><trkpt lat="43.4717733" lon="10.5641633"><ele>193.0</ele><time>2026-05-01T14:36:58.728Z</time></trkpt><trkpt lat="43.4718067" lon="10.5642933"><ele>193.0</ele><time>2026-05-01T14:36:59.728Z</time></trkpt><trkpt lat="43.4718383" lon="10.5644167"><ele>193.0</ele><time>2026-05-01T14:37:00.727Z</time></trkpt><trkpt lat="43.471875" lon="10.5645367"><ele>192.49999999999997</ele><time>2026-05-01T14:37:01.728Z</time></trkpt><trkpt lat="43.4719317" lon="10.5646433"><ele>192.0</ele><time>2026-05-01T14:37:02.727Z</time></trkpt><trkpt lat="43.4719917" lon="10.5647317"><ele>191.5</ele><time>2026-05-01T14:37:03.726Z</time></trkpt><trkpt lat="43.4720567" lon="10.5648117"><ele>191.0</ele><time>2026-05-01T14:37:04.728Z</time></trkpt><trkpt lat="43.472135" lon="10.5648733"><ele>190.5</ele><time>2026-05-01T14:37:05.728Z</time></trkpt><trkpt lat="43.47221" lon="10.5649367"><ele>190.0</ele><time>2026-05-01T14:37:06.728Z</time></trkpt><trkpt lat="43.4722817" lon="10.56499"><ele>191.28571428571428</ele><time>2026-05-01T14:37:07.727Z</time></trkpt><trkpt lat="43.472345" lon="10.5650433"><ele>192.57142857142858</ele><time>2026-05-01T14:37:08.728Z</time></trkpt><trkpt lat="43.47241" lon="10.5650817"><ele>193.85714285714283</ele><time>2026-05-01T14:37:09.727Z</time></trkpt><trkpt lat="43.47248" lon="10.56512"><ele>195.14285714285714</ele><time>2026-05-01T14:37:10.727Z</time></trkpt><trkpt lat="43.4725467" lon="10.5651367"><ele>196.42857142857142</ele><time>2026-05-01T14:37:11.728Z</time></trkpt><trkpt lat="43.472625" lon="10.56512"><ele>197.7142857142857</ele><time>2026-05-01T14:37:12.727Z</time></trkpt><trkpt lat="43.4726967" lon="10.5651083"><ele>199.0</ele><time>2026-05-01T14:37:13.727Z</time></trkpt><trkpt lat="43.4727667" lon="10.5651133"><ele>199.0</ele><time>2026-05-01T14:37:14.73Z</time></trkpt><trkpt lat="43.472835" lon="10.56513"><ele>199.0</ele><time>2026-05-01T14:37:15.727Z</time></trkpt><trkpt lat="43.47291" lon="10.56518"><ele>199.0</ele><time>2026-05-01T14:37:16.728Z</time></trkpt><trkpt lat="43.4730017" lon="10.5652833"><ele>199.0</ele><time>2026-05-01T14:37:17.727Z</time></trkpt><trkpt lat="43.4731183" lon="10.5654633"><ele>199.0</ele><time>2026-05-01T14:37:18.727Z</time></trkpt><trkpt lat="43.4732383" lon="10.5656267"><ele>199.25</ele><time>2026-05-01T14:37:19.728Z</time></trkpt><trkpt lat="43.4733483" lon="10.5657717"><ele>199.5</ele><time>2026-05-01T14:37:20.727Z</time></trkpt><trkpt lat="43.4734483" lon="10.5659017"><ele>199.75</ele><time>2026-05-01T14:37:21.728Z</time></trkpt><trkpt lat="43.4735433" lon="10.5660267"><ele>200.0</ele><time>2026-05-01T14:37:22.728Z</time></trkpt><trkpt lat="43.473625" lon="10.5661767"><ele>200.75</ele><time>2026-05-01T14:37:23.728Z</time></trkpt><trkpt lat="43.473685" lon="10.566345"><ele>201.5</ele><time>2026-05-01T14:37:24.728Z</time></trkpt><trkpt lat="43.47374" lon="10.5665267"><ele>202.25</ele><time>2026-05-01T14:37:25.728Z</time></trkpt><trkpt lat="43.473795" lon="10.5667067"><ele>203.0</ele><time>2026-05-01T14:37:26.727Z</time></trkpt><trkpt lat="43.4738533" lon="10.5668683"><ele>203.0</ele><time>2026-05-01T14:37:27.728Z</time></trkpt><trkpt lat="43.4739217" lon="10.5670117"><ele>203.0</ele><time>2026-05-01T14:37:28.729Z</time></trkpt><trkpt lat="43.4739867" lon="10.5671167"><ele>203.0</ele><time>2026-05-01T14:37:29.728Z</time></trkpt><trkpt lat="43.474035" lon="10.5671833"><ele>203.0</ele><time>2026-05-01T14:37:30.728Z</time></trkpt><trkpt lat="43.474095" lon="10.5672267"><ele>203.0</ele><time>2026-05-01T14:37:31.728Z</time></trkpt><trkpt lat="43.4741917" lon="10.5672333"><ele>203.0</ele><time>2026-05-01T14:37:33.728Z</time></trkpt><trkpt lat="43.474215" lon="10.5671333"><ele>203.0</ele><time>2026-05-01T14:37:34.727Z</time></trkpt><trkpt lat="43.4742067" lon="10.566975"><ele>203.0</ele><time>2026-05-01T14:37:35.728Z</time></trkpt><trkpt lat="43.4741517" lon="10.56673"><ele>203.0</ele><time>2026-05-01T14:37:36.729Z</time></trkpt><trkpt lat="43.4741567" lon="10.5665167"><ele>203.0</ele><time>2026-05-01T14:37:37.729Z</time></trkpt><trkpt lat="43.4742067" lon="10.5663317"><ele>203.0</ele><time>2026-05-01T14:37:38.729Z</time></trkpt><trkpt lat="43.474265" lon="10.56617"><ele>203.0</ele><time>2026-05-01T14:37:39.728Z</time></trkpt><trkpt lat="43.4743333" lon="10.566035"><ele>203.0</ele><time>2026-05-01T14:37:40.729Z</time></trkpt><trkpt lat="43.4744383" lon="10.565955"><ele>199.0</ele><time>2026-05-01T14:37:41.729Z</time></trkpt><trkpt lat="43.4745817" lon="10.5658817"><ele>195.0</ele><time>2026-05-01T14:37:42.729Z</time></trkpt><trkpt lat="43.4747367" lon="10.565805"><ele>191.0</ele><time>2026-05-01T14:37:43.729Z</time></trkpt><trkpt lat="43.4748917" lon="10.56572"><ele>191.0</ele><time>2026-05-01T14:37:44.729Z</time></trkpt><trkpt lat="43.4750433" lon="10.5656283"><ele>191.0</ele><time>2026-05-01T14:37:45.729Z</time></trkpt><trkpt lat="43.4752" lon="10.5655367"><ele>191.0</ele><time>2026-05-01T14:37:46.729Z</time></trkpt><trkpt lat="43.4753517" lon="10.56547"><ele>192.33333333333331</ele><time>2026-05-01T14:37:47.729Z</time></trkpt><trkpt lat="43.4755117" lon="10.5654367"><ele>193.66666666666666</ele><time>2026-05-01T14:37:48.728Z</time></trkpt><trkpt lat="43.4756733" lon="10.56541"><ele>195.0</ele><time>2026-05-01T14:37:49.73Z</time></trkpt><trkpt lat="43.475835" lon="10.56536"><ele>193.66666666666666</ele><time>2026-05-01T14:37:50.729Z</time></trkpt><trkpt lat="43.4759933" lon="10.5652767"><ele>192.33333333333331</ele><time>2026-05-01T14:37:51.727Z</time></trkpt><trkpt lat="43.4761483" lon="10.5651633"><ele>191.0</ele><time>2026-05-01T14:37:52.728Z</time></trkpt><trkpt lat="43.4762833" lon="10.565005"><ele>191.0</ele><time>2026-05-01T14:37:53.728Z</time></trkpt><trkpt lat="43.4763883" lon="10.5648217"><ele>191.0</ele><time>2026-05-01T14:37:54.729Z</time></trkpt><trkpt lat="43.47648" lon="10.5646383"><ele>191.0</ele><time>2026-05-01T14:37:55.728Z</time></trkpt><trkpt lat="43.4765767" lon="10.56447"><ele>187.0</ele><time>2026-05-01T14:37:56.729Z</time></trkpt><trkpt lat="43.476685" lon="10.564335"><ele>183.0</ele><time>2026-05-01T14:37:57.729Z</time></trkpt><trkpt lat="43.4768017" lon="10.56424"><ele>179.0</ele><time>2026-05-01T14:37:58.729Z</time></trkpt><trkpt lat="43.476915" lon="10.5641833"><ele>175.0</ele><time>2026-05-01T14:37:59.728Z</time></trkpt><trkpt lat="43.477035" lon="10.5641783"><ele>177.25</ele><time>2026-05-01T14:38:00.727Z</time></trkpt><trkpt lat="43.47716" lon="10.564195"><ele>179.5</ele><time>2026-05-01T14:38:01.727Z</time></trkpt><trkpt lat="43.4772883" lon="10.5641833"><ele>181.75</ele><time>2026-05-01T14:38:02.727Z</time></trkpt><trkpt lat="43.477405" lon="10.56411"><ele>184.0</ele><time>2026-05-01T14:38:03.728Z</time></trkpt><trkpt lat="43.4775" lon="10.5639767"><ele>184.0</ele><time>2026-05-01T14:38:04.729Z</time></trkpt><trkpt lat="43.477585" lon="10.5637867"><ele>184.0</ele><time>2026-05-01T14:38:05.728Z</time></trkpt><trkpt lat="43.47767" lon="10.5635783"><ele>184.0</ele><time>2026-05-01T14:38:06.728Z</time></trkpt><trkpt lat="43.4777717" lon="10.5633733"><ele>184.0</ele><time>2026-05-01T14:38:07.728Z</time></trkpt><trkpt lat="43.4778817" lon="10.5631783"><ele>184.0</ele><time>2026-05-01T14:38:08.73Z</time></trkpt><trkpt lat="43.4779933" lon="10.56299"><ele>184.0</ele><time>2026-05-01T14:38:09.729Z</time></trkpt><trkpt lat="43.4781033" lon="10.5628017"><ele>184.0</ele><time>2026-05-01T14:38:10.728Z</time></trkpt><trkpt lat="43.4782033" lon="10.5626267"><ele>184.0</ele><time>2026-05-01T14:38:11.728Z</time></trkpt><trkpt lat="43.4782917" lon="10.5624767"><ele>184.0</ele><time>2026-05-01T14:38:12.727Z</time></trkpt><trkpt lat="43.4783767" lon="10.5623617"><ele>184.0</ele><time>2026-05-01T14:38:13.73Z</time></trkpt><trkpt lat="43.47848" lon="10.5622883"><ele>184.0</ele><time>2026-05-01T14:38:14.729Z</time></trkpt><trkpt lat="43.478595" lon="10.5622667"><ele>184.0</ele><time>2026-05-01T14:38:15.727Z</time></trkpt><trkpt lat="43.4787267" lon="10.562285"><ele>184.0</ele><time>2026-05-01T14:38:16.727Z</time></trkpt><trkpt lat="43.4788783" lon="10.5623333"><ele>184.0</ele><time>2026-05-01T14:38:17.728Z</time></trkpt><trkpt lat="43.479035" lon="10.5623717"><ele>185.0</ele><time>2026-05-01T14:38:18.728Z</time></trkpt><trkpt lat="43.4791983" lon="10.562405"><ele>186.0</ele><time>2026-05-01T14:38:19.729Z</time></trkpt><trkpt lat="43.4793667" lon="10.56242"><ele>187.0</ele><time>2026-05-01T14:38:20.728Z</time></trkpt><trkpt lat="43.47953" lon="10.5624217"><ele>188.0</ele><time>2026-05-01T14:38:21.728Z</time></trkpt><trkpt lat="43.4796867" lon="10.5624133"><ele>189.0</ele><time>2026-05-01T14:38:22.727Z</time></trkpt><trkpt lat="43.4798383" lon="10.56238"><ele>190.0</ele><time>2026-05-01T14:38:23.729Z</time></trkpt><trkpt lat="43.4799917" lon="10.56232"><ele>190.0</ele><time>2026-05-01T14:38:24.728Z</time></trkpt><trkpt lat="43.480135" lon="10.5622283"><ele>190.0</ele><time>2026-05-01T14:38:25.728Z</time></trkpt><trkpt lat="43.48028" lon="10.56213"><ele>190.0</ele><time>2026-05-01T14:38:26.73Z</time></trkpt><trkpt lat="43.480425" lon="10.5620567"><ele>185.33333333333334</ele><time>2026-05-01T14:38:27.728Z</time></trkpt><trkpt lat="43.4805683" lon="10.5619983"><ele>180.66666666666666</ele><time>2026-05-01T14:38:28.728Z</time></trkpt><trkpt lat="43.4807217" lon="10.5619683"><ele>176.0</ele><time>2026-05-01T14:38:29.729Z</time></trkpt><trkpt lat="43.48088" lon="10.5619583"><ele>176.0</ele><time>2026-05-01T14:38:30.727Z</time></trkpt><trkpt lat="43.481035" lon="10.5619283"><ele>176.0</ele><time>2026-05-01T14:38:31.729Z</time></trkpt><trkpt lat="43.48118" lon="10.5618517"><ele>176.0</ele><time>2026-05-01T14:38:32.73Z</time></trkpt><trkpt lat="43.4813117" lon="10.5617483"><ele>176.75</ele><time>2026-05-01T14:38:33.73Z</time></trkpt><trkpt lat="43.4814317" lon="10.56164"><ele>177.5</ele><time>2026-05-01T14:38:34.729Z</time></trkpt><trkpt lat="43.4815467" lon="10.56155"><ele>178.25</ele><time>2026-05-01T14:38:35.728Z</time></trkpt><trkpt lat="43.4816633" lon="10.5614967"><ele>179.0</ele><time>2026-05-01T14:38:36.73Z</time></trkpt><trkpt lat="43.481765" lon="10.56149"><ele>179.0</ele><time>2026-05-01T14:38:37.73Z</time></trkpt><trkpt lat="43.4818517" lon="10.56154"><ele>179.0</ele><time>2026-05-01T14:38:38.727Z</time></trkpt><trkpt lat="43.481935" lon="10.56165"><ele>179.0</ele><time>2026-05-01T14:38:39.727Z</time></trkpt><trkpt lat="43.4820167" lon="10.5617817"><ele>179.0</ele><time>2026-05-01T14:38:40.728Z</time></trkpt><trkpt lat="43.4821133" lon="10.5618983"><ele>177.25</ele><time>2026-05-01T14:38:41.729Z</time></trkpt><trkpt lat="43.4822317" lon="10.5619883"><ele>175.5</ele><time>2026-05-01T14:38:42.728Z</time></trkpt><trkpt lat="43.482375" lon="10.5620317"><ele>173.75</ele><time>2026-05-01T14:38:43.728Z</time></trkpt><trkpt lat="43.48253" lon="10.5620467"><ele>172.0</ele><time>2026-05-01T14:38:44.728Z</time></trkpt><trkpt lat="43.4826933" lon="10.56206"><ele>176.0</ele><time>2026-05-01T14:38:45.728Z</time></trkpt><trkpt lat="43.4828567" lon="10.562085"><ele>180.0</ele><time>2026-05-01T14:38:46.73Z</time></trkpt><trkpt lat="43.4830133" lon="10.5621317"><ele>184.0</ele><time>2026-05-01T14:38:47.728Z</time></trkpt><trkpt lat="43.4831667" lon="10.5621867"><ele>184.0</ele><time>2026-05-01T14:38:48.728Z</time></trkpt><trkpt lat="43.4833167" lon="10.5622633"><ele>184.0</ele><time>2026-05-01T14:38:49.728Z</time></trkpt><trkpt lat="43.4834683" lon="10.562355"><ele>184.0</ele><time>2026-05-01T14:38:50.73Z</time></trkpt><trkpt lat="43.4836133" lon="10.5624667"><ele>184.0</ele><time>2026-05-01T14:38:51.727Z</time></trkpt><trkpt lat="43.4837467" lon="10.562595"><ele>184.0</ele><time>2026-05-01T14:38:52.726Z</time></trkpt><trkpt lat="43.4838667" lon="10.5627333"><ele>184.0</ele><time>2026-05-01T14:38:53.727Z</time></trkpt><trkpt lat="43.4839767" lon="10.562875"><ele>184.0</ele><time>2026-05-01T14:38:54.727Z</time></trkpt><trkpt lat="43.48408" lon="10.5629833"><ele>184.0</ele><time>2026-05-01T14:38:55.726Z</time></trkpt><trkpt lat="43.4841767" lon="10.5630633"><ele>184.0</ele><time>2026-05-01T14:38:56.727Z</time></trkpt><trkpt lat="43.4842617" lon="10.56309"><ele>184.0</ele><time>2026-05-01T14:38:57.728Z</time></trkpt><trkpt lat="43.4843367" lon="10.56306"><ele>184.0</ele><time>2026-05-01T14:38:58.728Z</time></trkpt><trkpt lat="43.484405" lon="10.562985"><ele>184.0</ele><time>2026-05-01T14:38:59.728Z</time></trkpt><trkpt lat="43.4844667" lon="10.5628733"><ele>184.0</ele><time>2026-05-01T14:39:00.726Z</time></trkpt><trkpt lat="43.484545" lon="10.5627167"><ele>184.0</ele><time>2026-05-01T14:39:01.727Z</time></trkpt><trkpt lat="43.4846317" lon="10.56259"><ele>184.0</ele><time>2026-05-01T14:39:02.728Z</time></trkpt><trkpt lat="43.484735" lon="10.5624817"><ele>183.5</ele><time>2026-05-01T14:39:03.727Z</time></trkpt><trkpt lat="43.4848583" lon="10.5623917"><ele>183.0</ele><time>2026-05-01T14:39:04.726Z</time></trkpt><trkpt lat="43.4849933" lon="10.5623133"><ele>182.5</ele><time>2026-05-01T14:39:05.727Z</time></trkpt><trkpt lat="43.4851333" lon="10.5622383"><ele>182.0</ele><time>2026-05-01T14:39:06.728Z</time></trkpt><trkpt lat="43.4852683" lon="10.5621783"><ele>182.0</ele><time>2026-05-01T14:39:07.727Z</time></trkpt><trkpt lat="43.485395" lon="10.56211"><ele>182.0</ele><time>2026-05-01T14:39:08.729Z</time></trkpt><trkpt lat="43.485515" lon="10.5620517"><ele>182.0</ele><time>2026-05-01T14:39:09.726Z</time></trkpt><trkpt lat="43.4856283" lon="10.56201"><ele>182.0</ele><time>2026-05-01T14:39:10.728Z</time></trkpt><trkpt lat="43.4857417" lon="10.5619767"><ele>183.5</ele><time>2026-05-01T14:39:11.727Z</time></trkpt><trkpt lat="43.4858533" lon="10.56198"><ele>185.0</ele><time>2026-05-01T14:39:12.729Z</time></trkpt><trkpt lat="43.4859717" lon="10.5620333"><ele>186.5</ele><time>2026-05-01T14:39:13.727Z</time></trkpt><trkpt lat="43.4860933" lon="10.5621117"><ele>188.0</ele><time>2026-05-01T14:39:14.727Z</time></trkpt><trkpt lat="43.4862117" lon="10.5622017"><ele>183.5</ele><time>2026-05-01T14:39:15.727Z</time></trkpt><trkpt lat="43.4863217" lon="10.5622933"><ele>179.0</ele><time>2026-05-01T14:39:16.727Z</time></trkpt><trkpt lat="43.48642" lon="10.562385"><ele>174.5</ele><time>2026-05-01T14:39:17.728Z</time></trkpt><trkpt lat="43.4865083" lon="10.5624933"><ele>170.0</ele><time>2026-05-01T14:39:18.727Z</time></trkpt><trkpt lat="43.486575" lon="10.5626183"><ele>170.0</ele><time>2026-05-01T14:39:19.728Z</time></trkpt><trkpt lat="43.4866083" lon="10.56277"><ele>170.0</ele><time>2026-05-01T14:39:20.728Z</time></trkpt><trkpt lat="43.48664" lon="10.5629283"><ele>170.0</ele><time>2026-05-01T14:39:21.727Z</time></trkpt><trkpt lat="43.4866767" lon="10.5630883"><ele>170.0</ele><time>2026-05-01T14:39:22.729Z</time></trkpt><trkpt lat="43.486725" lon="10.5632033"><ele>170.6</ele><time>2026-05-01T14:39:23.727Z</time></trkpt><trkpt lat="43.4867967" lon="10.5632567"><ele>171.2</ele><time>2026-05-01T14:39:24.726Z</time></trkpt><trkpt lat="43.4869083" lon="10.5632583"><ele>171.8</ele><time>2026-05-01T14:39:25.728Z</time></trkpt><trkpt lat="43.4870283" lon="10.56325"><ele>172.4</ele><time>2026-05-01T14:39:26.728Z</time></trkpt><trkpt lat="43.4871567" lon="10.5632483"><ele>173.0</ele><time>2026-05-01T14:39:27.728Z</time></trkpt><trkpt lat="43.48728" lon="10.5632317"><ele>173.0</ele><time>2026-05-01T14:39:28.727Z</time></trkpt><trkpt lat="43.4873883" lon="10.5631867"><ele>173.0</ele><time>2026-05-01T14:39:29.727Z</time></trkpt><trkpt lat="43.487475" lon="10.5630983"><ele>173.0</ele><time>2026-05-01T14:39:30.727Z</time></trkpt><trkpt lat="43.4875433" lon="10.5629683"><ele>173.0</ele><time>2026-05-01T14:39:31.728Z</time></trkpt><trkpt lat="43.48762" lon="10.5628133"><ele>170.66666666666666</ele><time>2026-05-01T14:39:32.728Z</time></trkpt><trkpt lat="43.4877033" lon="10.562635"><ele>168.33333333333334</ele><time>2026-05-01T14:39:33.726Z</time></trkpt><trkpt lat="43.487805" lon="10.562465"><ele>166.0</ele><time>2026-05-01T14:39:34.727Z</time></trkpt><trkpt lat="43.487915" lon="10.5623067"><ele>168.0</ele><time>2026-05-01T14:39:35.727Z</time></trkpt><trkpt lat="43.488035" lon="10.56215"><ele>170.0</ele><time>2026-05-01T14:39:36.727Z</time></trkpt><trkpt lat="43.48816" lon="10.5620033"><ele>172.0</ele><time>2026-05-01T14:39:37.727Z</time></trkpt><trkpt lat="43.4882867" lon="10.5618683"><ele>172.0</ele><time>2026-05-01T14:39:38.728Z</time></trkpt><trkpt lat="43.4884167" lon="10.561745"><ele>172.0</ele><time>2026-05-01T14:39:39.726Z</time></trkpt><trkpt lat="43.4885483" lon="10.5616367"><ele>172.0</ele><time>2026-05-01T14:39:40.728Z</time></trkpt><trkpt lat="43.48867" lon="10.5615533"><ele>172.0</ele><time>2026-05-01T14:39:41.726Z</time></trkpt><trkpt lat="43.4887867" lon="10.5615017"><ele>172.25</ele><time>2026-05-01T14:39:42.728Z</time></trkpt><trkpt lat="43.4888967" lon="10.5614983"><ele>172.5</ele><time>2026-05-01T14:39:43.727Z</time></trkpt><trkpt lat="43.4889983" lon="10.561545"><ele>172.75</ele><time>2026-05-01T14:39:44.727Z</time></trkpt><trkpt lat="43.4890833" lon="10.561645"><ele>173.0</ele><time>2026-05-01T14:39:45.727Z</time></trkpt><trkpt lat="43.4891583" lon="10.56181"><ele>173.0</ele><time>2026-05-01T14:39:46.727Z</time></trkpt><trkpt lat="43.489225" lon="10.5619783"><ele>173.0</ele><time>2026-05-01T14:39:47.728Z</time></trkpt><trkpt lat="43.4893033" lon="10.562125"><ele>173.0</ele><time>2026-05-01T14:39:48.727Z</time></trkpt><trkpt lat="43.4893833" lon="10.5622317"><ele>173.0</ele><time>2026-05-01T14:39:49.728Z</time></trkpt><trkpt lat="43.489475" lon="10.56229"><ele>173.0</ele><time>2026-05-01T14:39:50.728Z</time></trkpt><trkpt lat="43.4895667" lon="10.5622833"><ele>173.0</ele><time>2026-05-01T14:39:51.727Z</time></trkpt><trkpt lat="43.4896617" lon="10.5622183"><ele>173.0</ele><time>2026-05-01T14:39:52.727Z</time></trkpt><trkpt lat="43.489745" lon="10.5620867"><ele>173.0</ele><time>2026-05-01T14:39:53.727Z</time></trkpt><trkpt lat="43.4898217" lon="10.56194"><ele>173.0</ele><time>2026-05-01T14:39:54.726Z</time></trkpt><trkpt lat="43.489915" lon="10.5618017"><ele>173.0</ele><time>2026-05-01T14:39:55.728Z</time></trkpt><trkpt lat="43.4900167" lon="10.5616733"><ele>173.0</ele><time>2026-05-01T14:39:56.727Z</time></trkpt><trkpt lat="43.4901583" lon="10.5616033"><ele>173.0</ele><time>2026-05-01T14:39:57.728Z</time></trkpt><trkpt lat="43.4903017" lon="10.56156"><ele>174.75</ele><time>2026-05-01T14:39:58.729Z</time></trkpt><trkpt lat="43.4904517" lon="10.5615367"><ele>176.5</ele><time>2026-05-01T14:39:59.728Z</time></trkpt><trkpt lat="43.4905917" lon="10.56149"><ele>178.25</ele><time>2026-05-01T14:40:00.728Z</time></trkpt><trkpt lat="43.4907083" lon="10.5614133"><ele>180.0</ele><time>2026-05-01T14:40:01.728Z</time></trkpt><trkpt lat="43.4908067" lon="10.5612967"><ele>175.5</ele><time>2026-05-01T14:40:02.728Z</time></trkpt><trkpt lat="43.4908917" lon="10.5611433"><ele>171.0</ele><time>2026-05-01T14:40:03.727Z</time></trkpt><trkpt lat="43.4909717" lon="10.5609733"><ele>166.5</ele><time>2026-05-01T14:40:04.728Z</time></trkpt><trkpt lat="43.491055" lon="10.5608083"><ele>162.0</ele><time>2026-05-01T14:40:05.727Z</time></trkpt><trkpt lat="43.491145" lon="10.560665"><ele>168.0</ele><time>2026-05-01T14:40:06.728Z</time></trkpt><trkpt lat="43.4912667" lon="10.5605533"><ele>174.0</ele><time>2026-05-01T14:40:07.727Z</time></trkpt><trkpt lat="43.4914067" lon="10.5604633"><ele>180.0</ele><time>2026-05-01T14:40:08.727Z</time></trkpt><trkpt lat="43.49155" lon="10.5603767"><ele>173.0</ele><time>2026-05-01T14:40:09.727Z</time></trkpt><trkpt lat="43.491695" lon="10.5602833"><ele>166.0</ele><time>2026-05-01T14:40:10.727Z</time></trkpt><trkpt lat="43.4918267" lon="10.56017"><ele>159.0</ele><time>2026-05-01T14:40:11.726Z</time></trkpt><trkpt lat="43.4919467" lon="10.5600267"><ele>159.0</ele><time>2026-05-01T14:40:12.727Z</time></trkpt><trkpt lat="43.4920567" lon="10.5598667"><ele>159.0</ele><time>2026-05-01T14:40:13.727Z</time></trkpt><trkpt lat="43.4921517" lon="10.5596917"><ele>159.0</ele><time>2026-05-01T14:40:14.728Z</time></trkpt><trkpt lat="43.4922467" lon="10.5595117"><ele>159.0</ele><time>2026-05-01T14:40:15.727Z</time></trkpt><trkpt lat="43.4923333" lon="10.5593433"><ele>159.0</ele><time>2026-05-01T14:40:16.729Z</time></trkpt><trkpt lat="43.4924167" lon="10.559185"><ele>159.0</ele><time>2026-05-01T14:40:17.729Z</time></trkpt><trkpt lat="43.4925033" lon="10.55906"><ele>159.0</ele><time>2026-05-01T14:40:18.726Z</time></trkpt><trkpt lat="43.4926183" lon="10.558985"><ele>159.0</ele><time>2026-05-01T14:40:19.726Z</time></trkpt><trkpt lat="43.4927483" lon="10.5589433"><ele>159.0</ele><time>2026-05-01T14:40:20.726Z</time></trkpt><trkpt lat="43.492895" lon="10.5589367"><ele>159.0</ele><time>2026-05-01T14:40:21.727Z</time></trkpt><trkpt lat="43.4930533" lon="10.5589483"><ele>159.0</ele><time>2026-05-01T14:40:22.726Z</time></trkpt><trkpt lat="43.4932117" lon="10.55894"><ele>159.33333333333334</ele><time>2026-05-01T14:40:23.728Z</time></trkpt><trkpt lat="43.493365" lon="10.5589117"><ele>159.66666666666669</ele><time>2026-05-01T14:40:24.729Z</time></trkpt><trkpt lat="43.4935183" lon="10.5588917"><ele>160.0</ele><time>2026-05-01T14:40:25.728Z</time></trkpt><trkpt lat="43.4936683" lon="10.558915"><ele>159.33333333333334</ele><time>2026-05-01T14:40:26.726Z</time></trkpt><trkpt lat="43.4938183" lon="10.5589717"><ele>158.66666666666666</ele><time>2026-05-01T14:40:27.727Z</time></trkpt><trkpt lat="43.4939667" lon="10.5590433"><ele>158.0</ele><time>2026-05-01T14:40:28.727Z</time></trkpt><trkpt lat="43.4941167" lon="10.5591133"><ele>158.0</ele><time>2026-05-01T14:40:29.728Z</time></trkpt><trkpt lat="43.4942783" lon="10.5591517"><ele>158.0</ele><time>2026-05-01T14:40:30.727Z</time></trkpt><trkpt lat="43.494445" lon="10.559155"><ele>158.0</ele><time>2026-05-01T14:40:31.728Z</time></trkpt><trkpt lat="43.494605" lon="10.5591117"><ele>157.66666666666666</ele><time>2026-05-01T14:40:32.727Z</time></trkpt><trkpt lat="43.49476" lon="10.5590567"><ele>157.33333333333334</ele><time>2026-05-01T14:40:33.728Z</time></trkpt><trkpt lat="43.4949033" lon="10.5590067"><ele>157.0</ele><time>2026-05-01T14:40:34.726Z</time></trkpt><trkpt lat="43.4950467" lon="10.5589883"><ele>157.0</ele><time>2026-05-01T14:40:35.728Z</time></trkpt><trkpt lat="43.4951867" lon="10.5590017"><ele>157.0</ele><time>2026-05-01T14:40:36.728Z</time></trkpt><trkpt lat="43.4953267" lon="10.5590433"><ele>157.0</ele><time>2026-05-01T14:40:37.729Z</time></trkpt><trkpt lat="43.495465" lon="10.559075"><ele>157.0</ele><time>2026-05-01T14:40:38.729Z</time></trkpt><trkpt lat="43.4956033" lon="10.5590817"><ele>157.66666666666669</ele><time>2026-05-01T14:40:39.727Z</time></trkpt><trkpt lat="43.49573" lon="10.559055"><ele>158.33333333333334</ele><time>2026-05-01T14:40:40.728Z</time></trkpt><trkpt lat="43.49587" lon="10.5589633"><ele>159.0</ele><time>2026-05-01T14:40:41.727Z</time></trkpt><trkpt lat="43.4960083" lon="10.5588267"><ele>155.33333333333334</ele><time>2026-05-01T14:40:42.729Z</time></trkpt><trkpt lat="43.4961317" lon="10.5586767"><ele>151.66666666666669</ele><time>2026-05-01T14:40:43.728Z</time></trkpt><trkpt lat="43.4962433" lon="10.5585233"><ele>148.0</ele><time>2026-05-01T14:40:44.728Z</time></trkpt><trkpt lat="43.4963667" lon="10.5583917"><ele>148.0</ele><time>2026-05-01T14:40:45.729Z</time></trkpt><trkpt lat="43.4964967" lon="10.558295"><ele>148.0</ele><time>2026-05-01T14:40:46.728Z</time></trkpt><trkpt lat="43.4966333" lon="10.5582133"><ele>148.0</ele><time>2026-05-01T14:40:47.728Z</time></trkpt><trkpt lat="43.4967767" lon="10.5581833"><ele>148.0</ele><time>2026-05-01T14:40:48.729Z</time></trkpt><trkpt lat="43.4969333" lon="10.55815"><ele>148.0</ele><time>2026-05-01T14:40:49.728Z</time></trkpt><trkpt lat="43.4970833" lon="10.55811"><ele>148.0</ele><time>2026-05-01T14:40:50.727Z</time></trkpt><trkpt lat="43.4972333" lon="10.5580283"><ele>148.0</ele><time>2026-05-01T14:40:51.727Z</time></trkpt><trkpt lat="43.4973817" lon="10.557945"><ele>149.33333333333334</ele><time>2026-05-01T14:40:52.726Z</time></trkpt><trkpt lat="43.49753" lon="10.5578883"><ele>150.66666666666666</ele><time>2026-05-01T14:40:53.726Z</time></trkpt><trkpt lat="43.4976917" lon="10.557845"><ele>152.0</ele><time>2026-05-01T14:40:54.726Z</time></trkpt><trkpt lat="43.497855" lon="10.5578183"><ele>145.66666666666666</ele><time>2026-05-01T14:40:55.726Z</time></trkpt><trkpt lat="43.4980117" lon="10.5578017"><ele>139.33333333333334</ele><time>2026-05-01T14:40:56.727Z</time></trkpt><trkpt lat="43.4981617" lon="10.5577967"><ele>133.0</ele><time>2026-05-01T14:40:57.725Z</time></trkpt><trkpt lat="43.49831" lon="10.5578183"><ele>139.0</ele><time>2026-05-01T14:40:58.727Z</time></trkpt><trkpt lat="43.4984567" lon="10.5578833"><ele>145.0</ele><time>2026-05-01T14:40:59.727Z</time></trkpt><trkpt lat="43.4985967" lon="10.5579717"><ele>151.0</ele><time>2026-05-01T14:41:00.727Z</time></trkpt><trkpt lat="43.49873" lon="10.55806"><ele>149.0</ele><time>2026-05-01T14:41:01.727Z</time></trkpt><trkpt lat="43.4988733" lon="10.5581517"><ele>147.0</ele><time>2026-05-01T14:41:02.729Z</time></trkpt><trkpt lat="43.4990383" lon="10.5581867"><ele>145.0</ele><time>2026-05-01T14:41:03.726Z</time></trkpt><trkpt lat="43.4992" lon="10.5581767"><ele>145.0</ele><time>2026-05-01T14:41:04.727Z</time></trkpt><trkpt lat="43.4993683" lon="10.558175"><ele>145.0</ele><time>2026-05-01T14:41:05.729Z</time></trkpt><trkpt lat="43.49952" lon="10.5581783"><ele>145.0</ele><time>2026-05-01T14:41:06.728Z</time></trkpt><trkpt lat="43.4996617" lon="10.558205"><ele>142.66666666666669</ele><time>2026-05-01T14:41:07.727Z</time></trkpt><trkpt lat="43.499805" lon="10.5582517"><ele>140.33333333333334</ele><time>2026-05-01T14:41:08.727Z</time></trkpt><trkpt lat="43.4999483" lon="10.55831"><ele>138.0</ele><time>2026-05-01T14:41:09.726Z</time></trkpt><trkpt lat="43.5001" lon="10.5583833"><ele>138.0</ele><time>2026-05-01T14:41:10.726Z</time></trkpt><trkpt lat="43.5002583" lon="10.5584517"><ele>138.0</ele><time>2026-05-01T14:41:11.728Z</time></trkpt><trkpt lat="43.5004233" lon="10.5585033"><ele>138.0</ele><time>2026-05-01T14:41:12.727Z</time></trkpt><trkpt lat="43.5005917" lon="10.5585283"><ele>136.0</ele><time>2026-05-01T14:41:13.728Z</time></trkpt><trkpt lat="43.5007683" lon="10.55853"><ele>134.0</ele><time>2026-05-01T14:41:14.728Z</time></trkpt><trkpt lat="43.5009417" lon="10.5584967"><ele>132.0</ele><time>2026-05-01T14:41:15.729Z</time></trkpt><trkpt lat="43.501115" lon="10.5584417"><ele>132.33333333333334</ele><time>2026-05-01T14:41:16.727Z</time></trkpt><trkpt lat="43.501285" lon="10.5583883"><ele>132.66666666666669</ele><time>2026-05-01T14:41:17.728Z</time></trkpt><trkpt lat="43.5014483" lon="10.5583333"><ele>133.0</ele><time>2026-05-01T14:41:18.728Z</time></trkpt><trkpt lat="43.501605" lon="10.5582917"><ele>133.0</ele><time>2026-05-01T14:41:19.728Z</time></trkpt><trkpt lat="43.50175" lon="10.5582967"><ele>133.0</ele><time>2026-05-01T14:41:20.729Z</time></trkpt><trkpt lat="43.5018867" lon="10.5583483"><ele>133.0</ele><time>2026-05-01T14:41:21.728Z</time></trkpt><trkpt lat="43.5020033" lon="10.5584533"><ele>133.0</ele><time>2026-05-01T14:41:22.727Z</time></trkpt><trkpt lat="43.502105" lon="10.5586017"><ele>132.33333333333334</ele><time>2026-05-01T14:41:23.727Z</time></trkpt><trkpt lat="43.5022033" lon="10.558775"><ele>131.66666666666666</ele><time>2026-05-01T14:41:24.728Z</time></trkpt><trkpt lat="43.502305" lon="10.5589717"><ele>131.0</ele><time>2026-05-01T14:41:25.731Z</time></trkpt><trkpt lat="43.50241" lon="10.55917"><ele>131.0</ele><time>2026-05-01T14:41:26.726Z</time></trkpt><trkpt lat="43.5025167" lon="10.55937"><ele>131.0</ele><time>2026-05-01T14:41:27.728Z</time></trkpt><trkpt lat="43.50262" lon="10.5595717"><ele>131.0</ele><time>2026-05-01T14:41:28.727Z</time></trkpt><trkpt lat="43.5027217" lon="10.559775"><ele>130.33333333333331</ele><time>2026-05-01T14:41:29.726Z</time></trkpt><trkpt lat="43.502825" lon="10.5599817"><ele>129.66666666666666</ele><time>2026-05-01T14:41:30.727Z</time></trkpt><trkpt lat="43.5029183" lon="10.5601783"><ele>129.0</ele><time>2026-05-01T14:41:31.729Z</time></trkpt><trkpt lat="43.5030083" lon="10.56034"><ele>129.4</ele><time>2026-05-01T14:41:32.728Z</time></trkpt><trkpt lat="43.5030767" lon="10.5604883"><ele>129.8</ele><time>2026-05-01T14:41:33.725Z</time></trkpt><trkpt lat="43.5031417" lon="10.56061"><ele>130.2</ele><time>2026-05-01T14:41:34.729Z</time></trkpt><trkpt lat="43.503215" lon="10.5606933"><ele>130.6</ele><time>2026-05-01T14:41:35.727Z</time></trkpt><trkpt lat="43.5032917" lon="10.5607267"><ele>131.0</ele><time>2026-05-01T14:41:36.728Z</time></trkpt><trkpt lat="43.5033817" lon="10.5607033"><ele>131.0</ele><time>2026-05-01T14:41:37.727Z</time></trkpt><trkpt lat="43.5034817" lon="10.56062"><ele>131.0</ele><time>2026-05-01T14:41:38.727Z</time></trkpt><trkpt lat="43.5035967" lon="10.5605033"><ele>131.0</ele><time>2026-05-01T14:41:39.728Z</time></trkpt><trkpt lat="43.5037233" lon="10.5603917"><ele>131.0</ele><time>2026-05-01T14:41:40.728Z</time></trkpt><trkpt lat="43.50386" lon="10.5602767"><ele>127.33333333333333</ele><time>2026-05-01T14:41:41.727Z</time></trkpt><trkpt lat="43.5040017" lon="10.5601683"><ele>123.66666666666666</ele><time>2026-05-01T14:41:42.728Z</time></trkpt><trkpt lat="43.504155" lon="10.56008"><ele>120.0</ele><time>2026-05-01T14:41:43.727Z</time></trkpt><trkpt lat="43.5043183" lon="10.5600067"><ele>120.0</ele><time>2026-05-01T14:41:44.728Z</time></trkpt><trkpt lat="43.50449" lon="10.5599467"><ele>120.0</ele><time>2026-05-01T14:41:45.727Z</time></trkpt><trkpt lat="43.5046583" lon="10.5598983"><ele>120.0</ele><time>2026-05-01T14:41:46.727Z</time></trkpt><trkpt lat="43.5048317" lon="10.559845"><ele>120.33333333333334</ele><time>2026-05-01T14:41:47.728Z</time></trkpt><trkpt lat="43.5050133" lon="10.5597917"><ele>120.66666666666667</ele><time>2026-05-01T14:41:48.726Z</time></trkpt><trkpt lat="43.5051933" lon="10.5597383"><ele>121.0</ele><time>2026-05-01T14:41:49.726Z</time></trkpt><trkpt lat="43.5053667" lon="10.5596683"><ele>121.66666666666667</ele><time>2026-05-01T14:41:50.729Z</time></trkpt><trkpt lat="43.50553" lon="10.55957"><ele>122.33333333333334</ele><time>2026-05-01T14:41:51.728Z</time></trkpt><trkpt lat="43.5056883" lon="10.5594467"><ele>123.0</ele><time>2026-05-01T14:41:52.727Z</time></trkpt><trkpt lat="43.5058417" lon="10.5593167"><ele>121.0</ele><time>2026-05-01T14:41:53.728Z</time></trkpt><trkpt lat="43.50599" lon="10.55919"><ele>119.0</ele><time>2026-05-01T14:41:54.729Z</time></trkpt><trkpt lat="43.5061367" lon="10.55909"><ele>117.0</ele><time>2026-05-01T14:41:55.728Z</time></trkpt><trkpt lat="43.5062933" lon="10.5590117"><ele>117.0</ele><time>2026-05-01T14:41:56.729Z</time></trkpt><trkpt lat="43.506455" lon="10.5589583"><ele>117.0</ele><time>2026-05-01T14:41:57.729Z</time></trkpt><trkpt lat="43.506625" lon="10.558915"><ele>117.0</ele><time>2026-05-01T14:41:58.727Z</time></trkpt><trkpt lat="43.5067983" lon="10.5588767"><ele>117.0</ele><time>2026-05-01T14:41:59.728Z</time></trkpt><trkpt lat="43.5069767" lon="10.5588417"><ele>117.0</ele><time>2026-05-01T14:42:00.729Z</time></trkpt><trkpt lat="43.5071583" lon="10.5588033"><ele>117.0</ele><time>2026-05-01T14:42:01.728Z</time></trkpt><trkpt lat="43.50734" lon="10.55877"><ele>117.33333333333334</ele><time>2026-05-01T14:42:02.729Z</time></trkpt><trkpt lat="43.5075183" lon="10.5587283"><ele>117.66666666666667</ele><time>2026-05-01T14:42:03.727Z</time></trkpt><trkpt lat="43.5076917" lon="10.5586417"><ele>118.0</ele><time>2026-05-01T14:42:04.729Z</time></trkpt><trkpt lat="43.5078533" lon="10.5585167"><ele>116.33333333333334</ele><time>2026-05-01T14:42:05.727Z</time></trkpt><trkpt lat="43.5080067" lon="10.55836"><ele>114.66666666666666</ele><time>2026-05-01T14:42:06.728Z</time></trkpt><trkpt lat="43.5081517" lon="10.5581883"><ele>113.0</ele><time>2026-05-01T14:42:07.727Z</time></trkpt><trkpt lat="43.508295" lon="10.55801"><ele>110.66666666666666</ele><time>2026-05-01T14:42:08.729Z</time></trkpt><trkpt lat="43.5084417" lon="10.5578283"><ele>108.33333333333334</ele><time>2026-05-01T14:42:09.726Z</time></trkpt><trkpt lat="43.50859" lon="10.5576567"><ele>106.0</ele><time>2026-05-01T14:42:10.727Z</time></trkpt><trkpt lat="43.50874" lon="10.557485"><ele>105.33333333333334</ele><time>2026-05-01T14:42:11.727Z</time></trkpt><trkpt lat="43.5088867" lon="10.55731"><ele>104.66666666666666</ele><time>2026-05-01T14:42:12.727Z</time></trkpt><trkpt lat="43.509035" lon="10.5571367"><ele>104.0</ele><time>2026-05-01T14:42:13.727Z</time></trkpt><trkpt lat="43.5091783" lon="10.55696"><ele>104.0</ele><time>2026-05-01T14:42:14.726Z</time></trkpt><trkpt lat="43.5093167" lon="10.5567883"><ele>104.0</ele><time>2026-05-01T14:42:15.727Z</time></trkpt><trkpt lat="43.50945" lon="10.5566283"><ele>104.0</ele><time>2026-05-01T14:42:16.727Z</time></trkpt><trkpt lat="43.5095917" lon="10.5564933"><ele>105.33333333333333</ele><time>2026-05-01T14:42:17.727Z</time></trkpt><trkpt lat="43.5097417" lon="10.5563883"><ele>106.66666666666666</ele><time>2026-05-01T14:42:18.726Z</time></trkpt><trkpt lat="43.5098983" lon="10.5562983"><ele>108.0</ele><time>2026-05-01T14:42:19.727Z</time></trkpt><trkpt lat="43.5100617" lon="10.5562267"><ele>106.33333333333334</ele><time>2026-05-01T14:42:20.727Z</time></trkpt><trkpt lat="43.5102333" lon="10.556175"><ele>104.66666666666667</ele><time>2026-05-01T14:42:21.727Z</time></trkpt><trkpt lat="43.5104017" lon="10.5561483"><ele>103.0</ele><time>2026-05-01T14:42:22.728Z</time></trkpt><trkpt lat="43.510565" lon="10.556115"><ele>103.0</ele><time>2026-05-01T14:42:23.728Z</time></trkpt><trkpt lat="43.510735" lon="10.5560867"><ele>103.0</ele><time>2026-05-01T14:42:24.728Z</time></trkpt><trkpt lat="43.510905" lon="10.556055"><ele>103.0</ele><time>2026-05-01T14:42:25.726Z</time></trkpt><trkpt lat="43.5110767" lon="10.5560183"><ele>103.0</ele><time>2026-05-01T14:42:26.728Z</time></trkpt><trkpt lat="43.5112533" lon="10.55599"><ele>103.0</ele><time>2026-05-01T14:42:27.727Z</time></trkpt><trkpt lat="43.5114283" lon="10.5559433"><ele>103.0</ele><time>2026-05-01T14:42:28.728Z</time></trkpt><trkpt lat="43.5116017" lon="10.555895"><ele>103.0</ele><time>2026-05-01T14:42:29.727Z</time></trkpt><trkpt lat="43.5117733" lon="10.5558383"><ele>103.0</ele><time>2026-05-01T14:42:30.728Z</time></trkpt><trkpt lat="43.5119467" lon="10.5557567"><ele>103.0</ele><time>2026-05-01T14:42:31.728Z</time></trkpt><trkpt lat="43.5121183" lon="10.5556617"><ele>101.33333333333334</ele><time>2026-05-01T14:42:32.729Z</time></trkpt><trkpt lat="43.5122833" lon="10.55556"><ele>99.66666666666666</ele><time>2026-05-01T14:42:33.729Z</time></trkpt><trkpt lat="43.5124367" lon="10.55547"><ele>98.0</ele><time>2026-05-01T14:42:34.725Z</time></trkpt><trkpt lat="43.512585" lon="10.5553717"><ele>98.66666666666666</ele><time>2026-05-01T14:42:35.728Z</time></trkpt><trkpt lat="43.51273" lon="10.5552917"><ele>99.33333333333334</ele><time>2026-05-01T14:42:36.727Z</time></trkpt><trkpt lat="43.5128783" lon="10.5552483"><ele>100.0</ele><time>2026-05-01T14:42:37.726Z</time></trkpt><trkpt lat="43.513025" lon="10.5552533"><ele>100.0</ele><time>2026-05-01T14:42:38.728Z</time></trkpt><trkpt lat="43.5131683" lon="10.5553083"><ele>100.0</ele><time>2026-05-01T14:42:39.728Z</time></trkpt><trkpt lat="43.5133033" lon="10.5554183"><ele>100.0</ele><time>2026-05-01T14:42:40.727Z</time></trkpt><trkpt lat="43.51342" lon="10.5555717"><ele>97.66666666666667</ele><time>2026-05-01T14:42:41.727Z</time></trkpt><trkpt lat="43.5135167" lon="10.555765"><ele>95.33333333333334</ele><time>2026-05-01T14:42:42.727Z</time></trkpt><trkpt lat="43.5136033" lon="10.5559517"><ele>93.0</ele><time>2026-05-01T14:42:43.727Z</time></trkpt><trkpt lat="43.5136917" lon="10.5561183"><ele>94.75</ele><time>2026-05-01T14:42:44.728Z</time></trkpt><trkpt lat="43.5137967" lon="10.5562533"><ele>96.5</ele><time>2026-05-01T14:42:45.728Z</time></trkpt><trkpt lat="43.5139217" lon="10.5563383"><ele>98.25</ele><time>2026-05-01T14:42:46.727Z</time></trkpt><trkpt lat="43.5140633" lon="10.5563767"><ele>100.0</ele><time>2026-05-01T14:42:47.728Z</time></trkpt><trkpt lat="43.5142117" lon="10.5563333"><ele>100.0</ele><time>2026-05-01T14:42:48.726Z</time></trkpt><trkpt lat="43.5143567" lon="10.5562333"><ele>100.0</ele><time>2026-05-01T14:42:49.729Z</time></trkpt><trkpt lat="43.514495" lon="10.5561067"><ele>100.0</ele><time>2026-05-01T14:42:50.728Z</time></trkpt><trkpt lat="43.514635" lon="10.5559717"><ele>99.33333333333334</ele><time>2026-05-01T14:42:51.727Z</time></trkpt><trkpt lat="43.514785" lon="10.555835"><ele>98.66666666666666</ele><time>2026-05-01T14:42:52.727Z</time></trkpt><trkpt lat="43.5149333" lon="10.555695"><ele>98.0</ele><time>2026-05-01T14:42:53.726Z</time></trkpt><trkpt lat="43.5150767" lon="10.5555633"><ele>98.0</ele><time>2026-05-01T14:42:54.728Z</time></trkpt><trkpt lat="43.5152217" lon="10.5554533"><ele>98.0</ele><time>2026-05-01T14:42:55.729Z</time></trkpt><trkpt lat="43.5153683" lon="10.5553867"><ele>98.0</ele><time>2026-05-01T14:42:56.728Z</time></trkpt><trkpt lat="43.5155133" lon="10.55538"><ele>98.75</ele><time>2026-05-01T14:42:57.726Z</time></trkpt><trkpt lat="43.5156533" lon="10.5554283"><ele>99.5</ele><time>2026-05-01T14:42:58.728Z</time></trkpt><trkpt lat="43.5157783" lon="10.5555183"><ele>100.25</ele><time>2026-05-01T14:42:59.729Z</time></trkpt><trkpt lat="43.51589" lon="10.5556283"><ele>101.0</ele><time>2026-05-01T14:43:00.728Z</time></trkpt><trkpt lat="43.5159833" lon="10.5557683"><ele>101.0</ele><time>2026-05-01T14:43:01.728Z</time></trkpt><trkpt lat="43.51605" lon="10.55595"><ele>101.0</ele><time>2026-05-01T14:43:02.729Z</time></trkpt><trkpt lat="43.5161067" lon="10.5561517"><ele>101.0</ele><time>2026-05-01T14:43:03.727Z</time></trkpt><trkpt lat="43.51616" lon="10.5563633"><ele>101.75</ele><time>2026-05-01T14:43:04.729Z</time></trkpt><trkpt lat="43.5162117" lon="10.5565683"><ele>102.5</ele><time>2026-05-01T14:43:05.728Z</time></trkpt><trkpt lat="43.51626" lon="10.55676"><ele>103.25</ele><time>2026-05-01T14:43:06.727Z</time></trkpt><trkpt lat="43.5163083" lon="10.5569217"><ele>104.0</ele><time>2026-05-01T14:43:07.729Z</time></trkpt><trkpt lat="43.516375" lon="10.5570517"><ele>101.75</ele><time>2026-05-01T14:43:08.728Z</time></trkpt><trkpt lat="43.5164567" lon="10.5571333"><ele>99.5</ele><time>2026-05-01T14:43:09.729Z</time></trkpt><trkpt lat="43.516565" lon="10.5571517"><ele>97.25</ele><time>2026-05-01T14:43:10.729Z</time></trkpt><trkpt lat="43.51667" lon="10.5571233"><ele>95.0</ele><time>2026-05-01T14:43:11.728Z</time></trkpt><trkpt lat="43.5167967" lon="10.5570617"><ele>96.0</ele><time>2026-05-01T14:43:12.728Z</time></trkpt><trkpt lat="43.5169333" lon="10.5569617"><ele>97.0</ele><time>2026-05-01T14:43:13.728Z</time></trkpt><trkpt lat="43.5170683" lon="10.5568433"><ele>98.0</ele><time>2026-05-01T14:43:14.729Z</time></trkpt><trkpt lat="43.5171733" lon="10.5566883"><ele>96.25</ele><time>2026-05-01T14:43:15.728Z</time></trkpt><trkpt lat="43.517275" lon="10.5565433"><ele>94.5</ele><time>2026-05-01T14:43:16.729Z</time></trkpt><trkpt lat="43.5173883" lon="10.5564167"><ele>92.75</ele><time>2026-05-01T14:43:17.728Z</time></trkpt><trkpt lat="43.5175217" lon="10.556325"><ele>91.0</ele><time>2026-05-01T14:43:18.727Z</time></trkpt><trkpt lat="43.5176683" lon="10.55624"><ele>91.33333333333333</ele><time>2026-05-01T14:43:19.728Z</time></trkpt><trkpt lat="43.517815" lon="10.5561683"><ele>91.66666666666667</ele><time>2026-05-01T14:43:20.728Z</time></trkpt><trkpt lat="43.5179683" lon="10.5561017"><ele>92.0</ele><time>2026-05-01T14:43:21.727Z</time></trkpt><trkpt lat="43.51813" lon="10.5560733"><ele>92.0</ele><time>2026-05-01T14:43:22.727Z</time></trkpt><trkpt lat="43.5182917" lon="10.5560867"><ele>92.0</ele><time>2026-05-01T14:43:23.726Z</time></trkpt><trkpt lat="43.518455" lon="10.5561367"><ele>92.0</ele><time>2026-05-01T14:43:24.729Z</time></trkpt><trkpt lat="43.51862" lon="10.5561983"><ele>88.33333333333334</ele><time>2026-05-01T14:43:25.729Z</time></trkpt><trkpt lat="43.51878" lon="10.5562833"><ele>84.66666666666667</ele><time>2026-05-01T14:43:26.728Z</time></trkpt><trkpt lat="43.5189267" lon="10.55636"><ele>81.0</ele><time>2026-05-01T14:43:27.729Z</time></trkpt><trkpt lat="43.51907" lon="10.5564133"><ele>81.0</ele><time>2026-05-01T14:43:28.728Z</time></trkpt><trkpt lat="43.5192033" lon="10.5564417"><ele>81.0</ele><time>2026-05-01T14:43:29.728Z</time></trkpt><trkpt lat="43.51933" lon="10.556425"><ele>81.0</ele><time>2026-05-01T14:43:30.728Z</time></trkpt><trkpt lat="43.5194217" lon="10.55634"><ele>81.0</ele><time>2026-05-01T14:43:31.727Z</time></trkpt><trkpt lat="43.5194833" lon="10.5561933"><ele>82.25</ele><time>2026-05-01T14:43:32.728Z</time></trkpt><trkpt lat="43.5195183" lon="10.5560217"><ele>83.5</ele><time>2026-05-01T14:43:33.727Z</time></trkpt><trkpt lat="43.5195317" lon="10.5558433"><ele>84.75</ele><time>2026-05-01T14:43:34.727Z</time></trkpt><trkpt lat="43.5195633" lon="10.5556767"><ele>86.0</ele><time>2026-05-01T14:43:35.729Z</time></trkpt><trkpt lat="43.5196133" lon="10.5555317"><ele>85.5</ele><time>2026-05-01T14:43:36.727Z</time></trkpt><trkpt lat="43.5197133" lon="10.5554433"><ele>85.0</ele><time>2026-05-01T14:43:37.728Z</time></trkpt><trkpt lat="43.5198367" lon="10.55537"><ele>84.5</ele><time>2026-05-01T14:43:38.727Z</time></trkpt><trkpt lat="43.5199583" lon="10.5553033"><ele>84.0</ele><time>2026-05-01T14:43:39.729Z</time></trkpt><trkpt lat="43.5200783" lon="10.5552517"><ele>84.0</ele><time>2026-05-01T14:43:40.729Z</time></trkpt><trkpt lat="43.5202067" lon="10.5552417"><ele>84.0</ele><time>2026-05-01T14:43:41.728Z</time></trkpt><trkpt lat="43.5203317" lon="10.555285"><ele>84.0</ele><time>2026-05-01T14:43:42.728Z</time></trkpt><trkpt lat="43.5204567" lon="10.5553467"><ele>84.0</ele><time>2026-05-01T14:43:43.728Z</time></trkpt><trkpt lat="43.52059" lon="10.5554033"><ele>83.5</ele><time>2026-05-01T14:43:44.729Z</time></trkpt><trkpt lat="43.5207317" lon="10.5554283"><ele>83.0</ele><time>2026-05-01T14:43:45.728Z</time></trkpt><trkpt lat="43.5208783" lon="10.5554067"><ele>82.5</ele><time>2026-05-01T14:43:46.728Z</time></trkpt><trkpt lat="43.5210117" lon="10.5553267"><ele>82.0</ele><time>2026-05-01T14:43:47.728Z</time></trkpt><trkpt lat="43.5211367" lon="10.55518"><ele>83.66666666666666</ele><time>2026-05-01T14:43:48.727Z</time></trkpt><trkpt lat="43.52126" lon="10.5550133"><ele>85.33333333333333</ele><time>2026-05-01T14:43:49.726Z</time></trkpt><trkpt lat="43.521385" lon="10.554855"><ele>87.0</ele><time>2026-05-01T14:43:50.727Z</time></trkpt><trkpt lat="43.5215067" lon="10.554705"><ele>87.0</ele><time>2026-05-01T14:43:51.727Z</time></trkpt><trkpt lat="43.5216267" lon="10.554565"><ele>87.0</ele><time>2026-05-01T14:43:52.729Z</time></trkpt><trkpt lat="43.521755" lon="10.5544467"><ele>87.0</ele><time>2026-05-01T14:43:53.727Z</time></trkpt><trkpt lat="43.5218883" lon="10.5543567"><ele>84.33333333333333</ele><time>2026-05-01T14:43:54.728Z</time></trkpt><trkpt lat="43.52203" lon="10.5543133"><ele>81.66666666666666</ele><time>2026-05-01T14:43:55.728Z</time></trkpt><trkpt lat="43.5221767" lon="10.5543267"><ele>79.0</ele><time>2026-05-01T14:43:56.727Z</time></trkpt><trkpt lat="43.5223267" lon="10.5543967"><ele>79.0</ele><time>2026-05-01T14:43:57.728Z</time></trkpt><trkpt lat="43.52246" lon="10.5544983"><ele>79.0</ele><time>2026-05-01T14:43:58.729Z</time></trkpt><trkpt lat="43.52259" lon="10.55459"><ele>79.0</ele><time>2026-05-01T14:43:59.729Z</time></trkpt><trkpt lat="43.5227333" lon="10.5546383"><ele>79.0</ele><time>2026-05-01T14:44:00.728Z</time></trkpt><trkpt lat="43.5228883" lon="10.5546383"><ele>81.66666666666666</ele><time>2026-05-01T14:44:01.728Z</time></trkpt><trkpt lat="43.5230467" lon="10.554585"><ele>84.33333333333333</ele><time>2026-05-01T14:44:02.728Z</time></trkpt><trkpt lat="43.523195" lon="10.5544783"><ele>87.0</ele><time>2026-05-01T14:44:03.728Z</time></trkpt><trkpt lat="43.52333" lon="10.5543383"><ele>87.0</ele><time>2026-05-01T14:44:04.729Z</time></trkpt><trkpt lat="43.52345" lon="10.5542"><ele>87.0</ele><time>2026-05-01T14:44:05.73Z</time></trkpt><trkpt lat="43.52357" lon="10.5540867"><ele>87.0</ele><time>2026-05-01T14:44:06.727Z</time></trkpt><trkpt lat="43.5236933" lon="10.553995"><ele>87.0</ele><time>2026-05-01T14:44:07.728Z</time></trkpt><trkpt lat="43.523825" lon="10.5539217"><ele>89.0</ele><time>2026-05-01T14:44:08.727Z</time></trkpt><trkpt lat="43.5239667" lon="10.5538617"><ele>91.0</ele><time>2026-05-01T14:44:09.728Z</time></trkpt><trkpt lat="43.52411" lon="10.5538133"><ele>93.0</ele><time>2026-05-01T14:44:10.729Z</time></trkpt><trkpt lat="43.524245" lon="10.553775"><ele>95.0</ele><time>2026-05-01T14:44:11.73Z</time></trkpt><trkpt lat="43.5243683" lon="10.5537533"><ele>95.0</ele><time>2026-05-01T14:44:12.729Z</time></trkpt><trkpt lat="43.5244783" lon="10.55375"><ele>95.0</ele><time>2026-05-01T14:44:13.727Z</time></trkpt><trkpt lat="43.52457" lon="10.5537583"><ele>95.0</ele><time>2026-05-01T14:44:14.729Z</time></trkpt><trkpt lat="43.5246483" lon="10.5537867"><ele>95.0</ele><time>2026-05-01T14:44:15.728Z</time></trkpt><trkpt lat="43.5247083" lon="10.5538367"><ele>95.0</ele><time>2026-05-01T14:44:16.728Z</time></trkpt><trkpt lat="43.5247567" lon="10.553905"><ele>95.0</ele><time>2026-05-01T14:44:17.726Z</time></trkpt><trkpt lat="43.5247967" lon="10.553995"><ele>94.8</ele><time>2026-05-01T14:44:18.728Z</time></trkpt><trkpt lat="43.524825" lon="10.5541067"><ele>94.6</ele><time>2026-05-01T14:44:19.728Z</time></trkpt><trkpt lat="43.52485" lon="10.554245"><ele>94.4</ele><time>2026-05-01T14:44:20.73Z</time></trkpt><trkpt lat="43.5248483" lon="10.5544167"><ele>94.2</ele><time>2026-05-01T14:44:21.729Z</time></trkpt><trkpt lat="43.5248267" lon="10.5546017"><ele>94.0</ele><time>2026-05-01T14:44:22.727Z</time></trkpt><trkpt lat="43.5247833" lon="10.554785"><ele>93.0</ele><time>2026-05-01T14:44:23.728Z</time></trkpt><trkpt lat="43.5247317" lon="10.5549733"><ele>92.0</ele><time>2026-05-01T14:44:24.729Z</time></trkpt><trkpt lat="43.5246783" lon="10.5551633"><ele>91.0</ele><time>2026-05-01T14:44:25.728Z</time></trkpt><trkpt lat="43.5246517" lon="10.5553633"><ele>90.0</ele><time>2026-05-01T14:44:26.727Z</time></trkpt><trkpt lat="43.524645" lon="10.555575"><ele>89.66666666666667</ele><time>2026-05-01T14:44:27.727Z</time></trkpt><trkpt lat="43.524635" lon="10.55579"><ele>89.33333333333334</ele><time>2026-05-01T14:44:28.728Z</time></trkpt><trkpt lat="43.5246067" lon="10.5560033"><ele>89.0</ele><time>2026-05-01T14:44:29.728Z</time></trkpt><trkpt lat="43.5245633" lon="10.5562083"><ele>91.0</ele><time>2026-05-01T14:44:30.728Z</time></trkpt><trkpt lat="43.5245217" lon="10.5563967"><ele>93.0</ele><time>2026-05-01T14:44:31.728Z</time></trkpt><trkpt lat="43.5244983" lon="10.55657"><ele>95.0</ele><time>2026-05-01T14:44:32.729Z</time></trkpt><trkpt lat="43.5244917" lon="10.55673"><ele>97.0</ele><time>2026-05-01T14:44:33.728Z</time></trkpt><trkpt lat="43.5245183" lon="10.5568783"><ele>96.6</ele><time>2026-05-01T14:44:34.727Z</time></trkpt><trkpt lat="43.524575" lon="10.5569983"><ele>96.19999999999999</ele><time>2026-05-01T14:44:35.727Z</time></trkpt><trkpt lat="43.5246517" lon="10.5570767"><ele>95.8</ele><time>2026-05-01T14:44:36.728Z</time></trkpt><trkpt lat="43.5247467" lon="10.557125"><ele>95.4</ele><time>2026-05-01T14:44:37.728Z</time></trkpt><trkpt lat="43.5248567" lon="10.5571133"><ele>95.0</ele><time>2026-05-01T14:44:38.726Z</time></trkpt><trkpt lat="43.5249567" lon="10.5570567"><ele>94.0</ele><time>2026-05-01T14:44:39.727Z</time></trkpt><trkpt lat="43.52504" lon="10.556985"><ele>93.0</ele><time>2026-05-01T14:44:40.728Z</time></trkpt><trkpt lat="43.5250883" lon="10.556765"><ele>92.0</ele><time>2026-05-01T14:44:41.727Z</time></trkpt><trkpt lat="43.5251417" lon="10.5565467"><ele>91.0</ele><time>2026-05-01T14:44:42.728Z</time></trkpt><trkpt lat="43.525205" lon="10.5563167"><ele>90.5</ele><time>2026-05-01T14:44:43.727Z</time></trkpt><trkpt lat="43.5252883" lon="10.55615"><ele>90.0</ele><time>2026-05-01T14:44:44.728Z</time></trkpt><trkpt lat="43.5253883" lon="10.55602"><ele>89.5</ele><time>2026-05-01T14:44:45.727Z</time></trkpt><trkpt lat="43.5255133" lon="10.5559483"><ele>89.0</ele><time>2026-05-01T14:44:46.727Z</time></trkpt><trkpt lat="43.5256467" lon="10.5559383"><ele>88.0</ele><time>2026-05-01T14:44:47.726Z</time></trkpt><trkpt lat="43.5257867" lon="10.555975"><ele>87.0</ele><time>2026-05-01T14:44:48.728Z</time></trkpt><trkpt lat="43.5259283" lon="10.5560483"><ele>86.0</ele><time>2026-05-01T14:44:49.728Z</time></trkpt><trkpt lat="43.5260767" lon="10.5561283"><ele>86.0</ele><time>2026-05-01T14:44:50.728Z</time></trkpt><trkpt lat="43.52622" lon="10.5562017"><ele>86.0</ele><time>2026-05-01T14:44:51.727Z</time></trkpt><trkpt lat="43.52636" lon="10.5562667"><ele>86.0</ele><time>2026-05-01T14:44:52.726Z</time></trkpt><trkpt lat="43.5264883" lon="10.5563317"><ele>86.0</ele><time>2026-05-01T14:44:53.727Z</time></trkpt><trkpt lat="43.5266" lon="10.556415"><ele>86.0</ele><time>2026-05-01T14:44:54.727Z</time></trkpt><trkpt lat="43.5266917" lon="10.5565283"><ele>86.0</ele><time>2026-05-01T14:44:55.728Z</time></trkpt><trkpt lat="43.5267633" lon="10.5566667"><ele>86.0</ele><time>2026-05-01T14:44:56.727Z</time></trkpt><trkpt lat="43.5267967" lon="10.55682"><ele>86.0</ele><time>2026-05-01T14:44:57.726Z</time></trkpt><trkpt lat="43.5268033" lon="10.5569933"><ele>86.25</ele><time>2026-05-01T14:44:58.726Z</time></trkpt><trkpt lat="43.5267883" lon="10.557185"><ele>86.5</ele><time>2026-05-01T14:44:59.726Z</time></trkpt><trkpt lat="43.52677" lon="10.5573867"><ele>86.75</ele><time>2026-05-01T14:45:00.728Z</time></trkpt><trkpt lat="43.526755" lon="10.5575967"><ele>87.0</ele><time>2026-05-01T14:45:01.729Z</time></trkpt><trkpt lat="43.5267367" lon="10.5578117"><ele>86.25</ele><time>2026-05-01T14:45:02.726Z</time></trkpt><trkpt lat="43.52672" lon="10.558025"><ele>85.5</ele><time>2026-05-01T14:45:03.726Z</time></trkpt><trkpt lat="43.5267067" lon="10.558235"><ele>84.75</ele><time>2026-05-01T14:45:04.728Z</time></trkpt><trkpt lat="43.5266933" lon="10.5584283"><ele>84.0</ele><time>2026-05-01T14:45:05.728Z</time></trkpt><trkpt lat="43.526705" lon="10.5585983"><ele>83.75</ele><time>2026-05-01T14:45:06.728Z</time></trkpt><trkpt lat="43.5267517" lon="10.5587433"><ele>83.5</ele><time>2026-05-01T14:45:07.728Z</time></trkpt><trkpt lat="43.526825" lon="10.558865"><ele>83.25</ele><time>2026-05-01T14:45:08.729Z</time></trkpt><trkpt lat="43.526935" lon="10.5589617"><ele>83.0</ele><time>2026-05-01T14:45:09.727Z</time></trkpt><trkpt lat="43.52706" lon="10.5590483"><ele>82.25</ele><time>2026-05-01T14:45:10.728Z</time></trkpt><trkpt lat="43.52719" lon="10.55913"><ele>81.5</ele><time>2026-05-01T14:45:11.728Z</time></trkpt><trkpt lat="43.5273167" lon="10.559205"><ele>80.75</ele><time>2026-05-01T14:45:12.728Z</time></trkpt><trkpt lat="43.5274433" lon="10.5592817"><ele>80.0</ele><time>2026-05-01T14:45:13.727Z</time></trkpt><trkpt lat="43.5275667" lon="10.559365"><ele>80.0</ele><time>2026-05-01T14:45:14.727Z</time></trkpt><trkpt lat="43.52769" lon="10.559455"><ele>80.0</ele><time>2026-05-01T14:45:15.727Z</time></trkpt><trkpt lat="43.5278033" lon="10.5595667"><ele>80.0</ele><time>2026-05-01T14:45:16.729Z</time></trkpt><trkpt lat="43.5279033" lon="10.5597067"><ele>80.0</ele><time>2026-05-01T14:45:17.727Z</time></trkpt><trkpt lat="43.527995" lon="10.55988"><ele>82.0</ele><time>2026-05-01T14:45:18.727Z</time></trkpt><trkpt lat="43.5280817" lon="10.5600633"><ele>84.0</ele><time>2026-05-01T14:45:19.727Z</time></trkpt><trkpt lat="43.52817" lon="10.5602517"><ele>86.0</ele><time>2026-05-01T14:45:20.726Z</time></trkpt><trkpt lat="43.5282583" lon="10.5604417"><ele>86.0</ele><time>2026-05-01T14:45:21.729Z</time></trkpt><trkpt lat="43.5283483" lon="10.5606183"><ele>86.0</ele><time>2026-05-01T14:45:22.727Z</time></trkpt><trkpt lat="43.5284383" lon="10.56077"><ele>86.0</ele><time>2026-05-01T14:45:23.727Z</time></trkpt><trkpt lat="43.528535" lon="10.5608983"><ele>86.0</ele><time>2026-05-01T14:45:24.727Z</time></trkpt><trkpt lat="43.52865" lon="10.5609983"><ele>87.25</ele><time>2026-05-01T14:45:25.727Z</time></trkpt><trkpt lat="43.5287717" lon="10.5610817"><ele>88.5</ele><time>2026-05-01T14:45:26.726Z</time></trkpt><trkpt lat="43.52889" lon="10.5611667"><ele>89.75</ele><time>2026-05-01T14:45:27.727Z</time></trkpt><trkpt lat="43.5289817" lon="10.5612967"><ele>91.0</ele><time>2026-05-01T14:45:28.726Z</time></trkpt><trkpt lat="43.529055" lon="10.5614483"><ele>92.0</ele><time>2026-05-01T14:45:29.728Z</time></trkpt><trkpt lat="43.52912" lon="10.561625"><ele>93.0</ele><time>2026-05-01T14:45:30.726Z</time></trkpt><trkpt lat="43.5291783" lon="10.5618167"><ele>94.0</ele><time>2026-05-01T14:45:31.727Z</time></trkpt><trkpt lat="43.5292283" lon="10.5620217"><ele>93.75</ele><time>2026-05-01T14:45:32.729Z</time></trkpt><trkpt lat="43.52927" lon="10.562215"><ele>93.5</ele><time>2026-05-01T14:45:33.727Z</time></trkpt><trkpt lat="43.5293133" lon="10.56239"><ele>93.25</ele><time>2026-05-01T14:45:34.726Z</time></trkpt><trkpt lat="43.5293683" lon="10.56255"><ele>93.0</ele><time>2026-05-01T14:45:35.727Z</time></trkpt><trkpt lat="43.5294483" lon="10.562705"><ele>93.0</ele><time>2026-05-01T14:45:36.727Z</time></trkpt><trkpt lat="43.529555" lon="10.5628483"><ele>93.0</ele><time>2026-05-01T14:45:37.728Z</time></trkpt><trkpt lat="43.529685" lon="10.5629733"><ele>93.0</ele><time>2026-05-01T14:45:38.728Z</time></trkpt><trkpt lat="43.5298267" lon="10.5630633"><ele>94.66666666666666</ele><time>2026-05-01T14:45:39.727Z</time></trkpt><trkpt lat="43.529975" lon="10.5631417"><ele>96.33333333333333</ele><time>2026-05-01T14:45:40.728Z</time></trkpt><trkpt lat="43.5301283" lon="10.5632267"><ele>98.0</ele><time>2026-05-01T14:45:41.729Z</time></trkpt><trkpt lat="43.53028" lon="10.5632983"><ele>99.66666666666666</ele><time>2026-05-01T14:45:42.728Z</time></trkpt><trkpt lat="43.5304317" lon="10.5633733"><ele>101.33333333333334</ele><time>2026-05-01T14:45:43.727Z</time></trkpt><trkpt lat="43.5305833" lon="10.563445"><ele>103.0</ele><time>2026-05-01T14:45:44.727Z</time></trkpt><trkpt lat="43.5307267" lon="10.5635117"><ele>103.0</ele><time>2026-05-01T14:45:45.727Z</time></trkpt><trkpt lat="43.5308617" lon="10.5635867"><ele>103.0</ele><time>2026-05-01T14:45:46.727Z</time></trkpt><trkpt lat="43.5309833" lon="10.563685"><ele>103.0</ele><time>2026-05-01T14:45:47.726Z</time></trkpt><trkpt lat="43.5310967" lon="10.5638117"><ele>103.0</ele><time>2026-05-01T14:45:48.728Z</time></trkpt><trkpt lat="43.5312033" lon="10.5639667"><ele>103.66666666666667</ele><time>2026-05-01T14:45:49.727Z</time></trkpt><trkpt lat="43.53131" lon="10.56416"><ele>104.33333333333334</ele><time>2026-05-01T14:45:50.728Z</time></trkpt><trkpt lat="43.53142" lon="10.5643683"><ele>105.0</ele><time>2026-05-01T14:45:51.727Z</time></trkpt><trkpt lat="43.5315283" lon="10.5645733"><ele>105.66666666666666</ele><time>2026-05-01T14:45:52.727Z</time></trkpt><trkpt lat="43.5316333" lon="10.564775"><ele>106.33333333333333</ele><time>2026-05-01T14:45:53.726Z</time></trkpt><trkpt lat="43.5317383" lon="10.56497"><ele>107.0</ele><time>2026-05-01T14:45:54.727Z</time></trkpt><trkpt lat="43.53184" lon="10.565165"><ele>107.0</ele><time>2026-05-01T14:45:55.727Z</time></trkpt><trkpt lat="43.5319383" lon="10.5653467"><ele>107.0</ele><time>2026-05-01T14:45:56.728Z</time></trkpt><trkpt lat="43.532035" lon="10.5655167"><ele>107.0</ele><time>2026-05-01T14:45:57.727Z</time></trkpt><trkpt lat="43.5321233" lon="10.5656717"><ele>108.25</ele><time>2026-05-01T14:45:58.728Z</time></trkpt><trkpt lat="43.5322067" lon="10.56582"><ele>109.5</ele><time>2026-05-01T14:45:59.727Z</time></trkpt><trkpt lat="43.5322917" lon="10.56597"><ele>110.75</ele><time>2026-05-01T14:46:00.728Z</time></trkpt><trkpt lat="43.5323733" lon="10.5661267"><ele>112.0</ele><time>2026-05-01T14:46:01.729Z</time></trkpt><trkpt lat="43.53245" lon="10.566285"><ele>112.33333333333334</ele><time>2026-05-01T14:46:02.727Z</time></trkpt><trkpt lat="43.53251" lon="10.5664633"><ele>112.66666666666666</ele><time>2026-05-01T14:46:03.727Z</time></trkpt><trkpt lat="43.5325567" lon="10.5666667"><ele>113.0</ele><time>2026-05-01T14:46:04.727Z</time></trkpt><trkpt lat="43.53259" lon="10.5669033"><ele>114.33333333333333</ele><time>2026-05-01T14:46:05.728Z</time></trkpt><trkpt lat="43.5326083" lon="10.5671567"><ele>115.66666666666666</ele><time>2026-05-01T14:46:06.727Z</time></trkpt><trkpt lat="43.5326067" lon="10.5674217"><ele>117.0</ele><time>2026-05-01T14:46:07.728Z</time></trkpt><trkpt lat="43.5325917" lon="10.5676733"><ele>118.0</ele><time>2026-05-01T14:46:08.727Z</time></trkpt><trkpt lat="43.532565" lon="10.5679033"><ele>119.0</ele><time>2026-05-01T14:46:09.728Z</time></trkpt><trkpt lat="43.5325167" lon="10.5681117"><ele>120.0</ele><time>2026-05-01T14:46:10.727Z</time></trkpt><trkpt lat="43.5324433" lon="10.568305"><ele>120.0</ele><time>2026-05-01T14:46:11.727Z</time></trkpt><trkpt lat="43.5323183" lon="10.5684617"><ele>120.0</ele><time>2026-05-01T14:46:12.727Z</time></trkpt><trkpt lat="43.5321717" lon="10.5686017"><ele>120.0</ele><time>2026-05-01T14:46:13.727Z</time></trkpt><trkpt lat="43.5320117" lon="10.5687467"><ele>123.66666666666666</ele><time>2026-05-01T14:46:14.728Z</time></trkpt><trkpt lat="43.5318483" lon="10.568895"><ele>127.33333333333333</ele><time>2026-05-01T14:46:15.727Z</time></trkpt><trkpt lat="43.531705" lon="10.569025"><ele>131.0</ele><time>2026-05-01T14:46:16.726Z</time></trkpt><trkpt lat="43.5315683" lon="10.56915"><ele>131.0</ele><time>2026-05-01T14:46:17.726Z</time></trkpt><trkpt lat="43.5314383" lon="10.5692467"><ele>131.0</ele><time>2026-05-01T14:46:18.728Z</time></trkpt><trkpt lat="43.531315" lon="10.5692833"><ele>131.0</ele><time>2026-05-01T14:46:19.727Z</time></trkpt><trkpt lat="43.531195" lon="10.56926"><ele>131.0</ele><time>2026-05-01T14:46:20.728Z</time></trkpt><trkpt lat="43.5310833" lon="10.5691667"><ele>130.5</ele><time>2026-05-01T14:46:21.727Z</time></trkpt><trkpt lat="43.5309733" lon="10.56903"><ele>130.0</ele><time>2026-05-01T14:46:22.727Z</time></trkpt><trkpt lat="43.53087" lon="10.5688817"><ele>129.5</ele><time>2026-05-01T14:46:23.729Z</time></trkpt><trkpt lat="43.53077" lon="10.5687467"><ele>129.0</ele><time>2026-05-01T14:46:24.728Z</time></trkpt><trkpt lat="43.53066" lon="10.5686417"><ele>129.0</ele><time>2026-05-01T14:46:25.727Z</time></trkpt><trkpt lat="43.5305283" lon="10.5685667"><ele>129.0</ele><time>2026-05-01T14:46:26.728Z</time></trkpt><trkpt lat="43.53039" lon="10.5685367"><ele>129.0</ele><time>2026-05-01T14:46:27.727Z</time></trkpt><trkpt lat="43.5302567" lon="10.568555"><ele>129.0</ele><time>2026-05-01T14:46:28.729Z</time></trkpt><trkpt lat="43.530145" lon="10.568625"><ele>130.75</ele><time>2026-05-01T14:46:29.726Z</time></trkpt><trkpt lat="43.5300533" lon="10.5687433"><ele>132.5</ele><time>2026-05-01T14:46:30.727Z</time></trkpt><trkpt lat="43.5299933" lon="10.5688933"><ele>134.25</ele><time>2026-05-01T14:46:31.727Z</time></trkpt><trkpt lat="43.5299717" lon="10.5690733"><ele>136.0</ele><time>2026-05-01T14:46:32.727Z</time></trkpt><trkpt lat="43.5299717" lon="10.5692683"><ele>136.0</ele><time>2026-05-01T14:46:33.727Z</time></trkpt><trkpt lat="43.53002" lon="10.5694883"><ele>136.0</ele><time>2026-05-01T14:46:34.727Z</time></trkpt><trkpt lat="43.5300817" lon="10.5697233"><ele>136.0</ele><time>2026-05-01T14:46:35.728Z</time></trkpt><trkpt lat="43.530145" lon="10.5699617"><ele>136.66666666666669</ele><time>2026-05-01T14:46:36.726Z</time></trkpt><trkpt lat="43.5302083" lon="10.5701833"><ele>137.33333333333334</ele><time>2026-05-01T14:46:37.728Z</time></trkpt><trkpt lat="43.5302883" lon="10.57038"><ele>138.0</ele><time>2026-05-01T14:46:38.729Z</time></trkpt><trkpt lat="43.5303883" lon="10.5705417"><ele>140.0</ele><time>2026-05-01T14:46:39.729Z</time></trkpt><trkpt lat="43.53051" lon="10.5706617"><ele>142.0</ele><time>2026-05-01T14:46:40.727Z</time></trkpt><trkpt lat="43.5306517" lon="10.57074"><ele>144.0</ele><time>2026-05-01T14:46:41.728Z</time></trkpt><trkpt lat="43.530815" lon="10.5708017"><ele>144.0</ele><time>2026-05-01T14:46:42.728Z</time></trkpt><trkpt lat="43.5309933" lon="10.5708517"><ele>144.0</ele><time>2026-05-01T14:46:43.727Z</time></trkpt><trkpt lat="43.531175" lon="10.57091"><ele>144.0</ele><time>2026-05-01T14:46:44.728Z</time></trkpt><trkpt lat="43.5313483" lon="10.5709983"><ele>145.0</ele><time>2026-05-01T14:46:45.726Z</time></trkpt><trkpt lat="43.53151" lon="10.5711217"><ele>146.0</ele><time>2026-05-01T14:46:46.727Z</time></trkpt><trkpt lat="43.53166" lon="10.5712767"><ele>147.0</ele><time>2026-05-01T14:46:47.727Z</time></trkpt><trkpt lat="43.5317967" lon="10.5714483"><ele>148.0</ele><time>2026-05-01T14:46:48.728Z</time></trkpt><trkpt lat="43.5319183" lon="10.5716167"><ele>149.0</ele><time>2026-05-01T14:46:49.728Z</time></trkpt><trkpt lat="43.5320317" lon="10.5717733"><ele>150.0</ele><time>2026-05-01T14:46:50.728Z</time></trkpt><trkpt lat="43.5321433" lon="10.571905"><ele>150.0</ele><time>2026-05-01T14:46:51.726Z</time></trkpt><trkpt lat="43.5322633" lon="10.5719883"><ele>150.0</ele><time>2026-05-01T14:46:52.727Z</time></trkpt><trkpt lat="43.5323967" lon="10.5720233"><ele>150.0</ele><time>2026-05-01T14:46:53.729Z</time></trkpt><trkpt lat="43.5325483" lon="10.5720167"><ele>150.0</ele><time>2026-05-01T14:46:54.727Z</time></trkpt><trkpt lat="43.5327017" lon="10.571985"><ele>150.0</ele><time>2026-05-01T14:46:55.727Z</time></trkpt><trkpt lat="43.5328683" lon="10.5719533"><ele>150.0</ele><time>2026-05-01T14:46:56.726Z</time></trkpt><trkpt lat="43.5330367" lon="10.57196"><ele>150.0</ele><time>2026-05-01T14:46:57.728Z</time></trkpt><trkpt lat="43.5332017" lon="10.5720033"><ele>155.33333333333334</ele><time>2026-05-01T14:46:58.726Z</time></trkpt><trkpt lat="43.533375" lon="10.5720767"><ele>160.66666666666669</ele><time>2026-05-01T14:46:59.728Z</time></trkpt><trkpt lat="43.53354" lon="10.5721517"><ele>166.0</ele><time>2026-05-01T14:47:00.729Z</time></trkpt><trkpt lat="43.5336933" lon="10.5722317"><ele>163.33333333333334</ele><time>2026-05-01T14:47:01.728Z</time></trkpt><trkpt lat="43.533835" lon="10.57232"><ele>160.66666666666666</ele><time>2026-05-01T14:47:02.728Z</time></trkpt><trkpt lat="43.53396" lon="10.57244"><ele>158.0</ele><time>2026-05-01T14:47:03.727Z</time></trkpt><trkpt lat="43.53406" lon="10.5725967"><ele>158.0</ele><time>2026-05-01T14:47:04.728Z</time></trkpt><trkpt lat="43.53415" lon="10.5727733"><ele>158.0</ele><time>2026-05-01T14:47:05.728Z</time></trkpt><trkpt lat="43.5342483" lon="10.5729317"><ele>158.0</ele><time>2026-05-01T14:47:06.727Z</time></trkpt><trkpt lat="43.5343433" lon="10.5730833"><ele>160.75</ele><time>2026-05-01T14:47:07.729Z</time></trkpt><trkpt lat="43.5344233" lon="10.5732433"><ele>163.5</ele><time>2026-05-01T14:47:08.727Z</time></trkpt><trkpt lat="43.53448" lon="10.5734217"><ele>166.25</ele><time>2026-05-01T14:47:09.727Z</time></trkpt><trkpt lat="43.5345133" lon="10.5736167"><ele>169.0</ele><time>2026-05-01T14:47:10.729Z</time></trkpt><trkpt lat="43.5345233" lon="10.573825"><ele>169.5</ele><time>2026-05-01T14:47:11.728Z</time></trkpt><trkpt lat="43.5345233" lon="10.5740367"><ele>170.0</ele><time>2026-05-01T14:47:12.727Z</time></trkpt><trkpt lat="43.5345117" lon="10.5742433"><ele>170.5</ele><time>2026-05-01T14:47:13.728Z</time></trkpt><trkpt lat="43.53448" lon="10.5744233"><ele>171.0</ele><time>2026-05-01T14:47:14.728Z</time></trkpt><trkpt lat="43.5344217" lon="10.5745833"><ele>171.0</ele><time>2026-05-01T14:47:15.728Z</time></trkpt><trkpt lat="43.5343383" lon="10.5747317"><ele>171.0</ele><time>2026-05-01T14:47:16.727Z</time></trkpt><trkpt lat="43.534245" lon="10.5748817"><ele>171.0</ele><time>2026-05-01T14:47:17.728Z</time></trkpt><trkpt lat="43.5341467" lon="10.5750383"><ele>171.0</ele><time>2026-05-01T14:47:18.726Z</time></trkpt><trkpt lat="43.534065" lon="10.575215"><ele>171.33333333333334</ele><time>2026-05-01T14:47:19.728Z</time></trkpt><trkpt lat="43.534" lon="10.57541"><ele>171.66666666666669</ele><time>2026-05-01T14:47:20.728Z</time></trkpt><trkpt lat="43.533955" lon="10.5756167"><ele>172.0</ele><time>2026-05-01T14:47:21.726Z</time></trkpt><trkpt lat="43.53394" lon="10.575835"><ele>172.0</ele><time>2026-05-01T14:47:22.726Z</time></trkpt><trkpt lat="43.533945" lon="10.57605"><ele>172.0</ele><time>2026-05-01T14:47:23.728Z</time></trkpt><trkpt lat="43.5339767" lon="10.57626"><ele>172.0</ele><time>2026-05-01T14:47:24.727Z</time></trkpt><trkpt lat="43.533995" lon="10.57647"><ele>172.25</ele><time>2026-05-01T14:47:25.729Z</time></trkpt><trkpt lat="43.5339983" lon="10.576675"><ele>172.5</ele><time>2026-05-01T14:47:26.728Z</time></trkpt><trkpt lat="43.5339883" lon="10.576855"><ele>172.75</ele><time>2026-05-01T14:47:27.728Z</time></trkpt><trkpt lat="43.53395" lon="10.577025"><ele>173.0</ele><time>2026-05-01T14:47:28.726Z</time></trkpt><trkpt lat="43.5338783" lon="10.5771767"><ele>173.0</ele><time>2026-05-01T14:47:29.728Z</time></trkpt><trkpt lat="43.5337867" lon="10.5773067"><ele>173.0</ele><time>2026-05-01T14:47:30.728Z</time></trkpt><trkpt lat="43.533705" lon="10.5774467"><ele>173.0</ele><time>2026-05-01T14:47:31.727Z</time></trkpt><trkpt lat="43.5336533" lon="10.577605"><ele>173.0</ele><time>2026-05-01T14:47:32.728Z</time></trkpt><trkpt lat="43.5336333" lon="10.57778"><ele>175.0</ele><time>2026-05-01T14:47:33.727Z</time></trkpt><trkpt lat="43.53366" lon="10.5779733"><ele>177.0</ele><time>2026-05-01T14:47:34.727Z</time></trkpt><trkpt lat="43.5337133" lon="10.5781817"><ele>179.0</ele><time>2026-05-01T14:47:35.727Z</time></trkpt><trkpt lat="43.533775" lon="10.578405"><ele>179.0</ele><time>2026-05-01T14:47:36.727Z</time></trkpt><trkpt lat="43.5338417" lon="10.5786233"><ele>179.0</ele><time>2026-05-01T14:47:37.725Z</time></trkpt><trkpt lat="43.5338867" lon="10.5788317"><ele>179.0</ele><time>2026-05-01T14:47:38.728Z</time></trkpt><trkpt lat="43.5339083" lon="10.5790383"><ele>180.66666666666666</ele><time>2026-05-01T14:47:39.728Z</time></trkpt><trkpt lat="43.5339017" lon="10.5792583"><ele>182.33333333333334</ele><time>2026-05-01T14:47:40.728Z</time></trkpt><trkpt lat="43.5338833" lon="10.5794833"><ele>184.0</ele><time>2026-05-01T14:47:41.728Z</time></trkpt><trkpt lat="43.5338767" lon="10.57971"><ele>185.66666666666669</ele><time>2026-05-01T14:47:42.729Z</time></trkpt><trkpt lat="43.5338783" lon="10.5799383"><ele>187.33333333333334</ele><time>2026-05-01T14:47:43.727Z</time></trkpt><trkpt lat="43.5339133" lon="10.5801667"><ele>189.0</ele><time>2026-05-01T14:47:44.727Z</time></trkpt><trkpt lat="43.5339633" lon="10.5803967"><ele>190.0</ele><time>2026-05-01T14:47:45.728Z</time></trkpt><trkpt lat="43.5340133" lon="10.5806183"><ele>191.0</ele><time>2026-05-01T14:47:46.729Z</time></trkpt><trkpt lat="43.5340467" lon="10.5808233"><ele>192.0</ele><time>2026-05-01T14:47:47.728Z</time></trkpt><trkpt lat="43.5340583" lon="10.5810283"><ele>192.66666666666669</ele><time>2026-05-01T14:47:48.729Z</time></trkpt><trkpt lat="43.5340417" lon="10.58123"><ele>193.33333333333334</ele><time>2026-05-01T14:47:49.727Z</time></trkpt><trkpt lat="43.53399" lon="10.5814333"><ele>194.0</ele><time>2026-05-01T14:47:50.728Z</time></trkpt><trkpt lat="43.5339267" lon="10.58163"><ele>194.0</ele><time>2026-05-01T14:47:51.727Z</time></trkpt><trkpt lat="43.5338583" lon="10.581815"><ele>194.0</ele><time>2026-05-01T14:47:52.729Z</time></trkpt><trkpt lat="43.533815" lon="10.5819933"><ele>194.0</ele><time>2026-05-01T14:47:53.729Z</time></trkpt><trkpt lat="43.5338117" lon="10.5821783"><ele>194.0</ele><time>2026-05-01T14:47:54.727Z</time></trkpt><trkpt lat="43.5338517" lon="10.5823433"><ele>195.25</ele><time>2026-05-01T14:47:55.727Z</time></trkpt><trkpt lat="43.5339283" lon="10.58249"><ele>196.5</ele><time>2026-05-01T14:47:56.728Z</time></trkpt><trkpt lat="43.5340233" lon="10.582625"><ele>197.75</ele><time>2026-05-01T14:47:57.727Z</time></trkpt><trkpt lat="43.5341283" lon="10.5827467"><ele>199.0</ele><time>2026-05-01T14:47:58.728Z</time></trkpt><trkpt lat="43.534245" lon="10.5828717"><ele>199.75</ele><time>2026-05-01T14:47:59.728Z</time></trkpt><trkpt lat="43.5343533" lon="10.5830033"><ele>200.5</ele><time>2026-05-01T14:48:00.728Z</time></trkpt><trkpt lat="43.5344583" lon="10.5831367"><ele>201.25</ele><time>2026-05-01T14:48:01.727Z</time></trkpt><trkpt lat="43.5345483" lon="10.583285"><ele>202.0</ele><time>2026-05-01T14:48:02.727Z</time></trkpt><trkpt lat="43.5346267" lon="10.58346"><ele>198.33333333333331</ele><time>2026-05-01T14:48:03.727Z</time></trkpt><trkpt lat="43.5346883" lon="10.583655"><ele>194.66666666666666</ele><time>2026-05-01T14:48:04.727Z</time></trkpt><trkpt lat="43.5347333" lon="10.58386"><ele>191.0</ele><time>2026-05-01T14:48:05.728Z</time></trkpt><trkpt lat="43.53476" lon="10.5840567"><ele>191.0</ele><time>2026-05-01T14:48:06.728Z</time></trkpt><trkpt lat="43.53478" lon="10.584245"><ele>191.0</ele><time>2026-05-01T14:48:07.728Z</time></trkpt><trkpt lat="43.5348017" lon="10.58442"><ele>191.0</ele><time>2026-05-01T14:48:08.729Z</time></trkpt><trkpt lat="43.53482" lon="10.5845817"><ele>191.0</ele><time>2026-05-01T14:48:09.728Z</time></trkpt><trkpt lat="43.5348217" lon="10.58473"><ele>192.0</ele><time>2026-05-01T14:48:10.726Z</time></trkpt><trkpt lat="43.5347867" lon="10.584855"><ele>193.0</ele><time>2026-05-01T14:48:11.728Z</time></trkpt><trkpt lat="43.5347183" lon="10.58496"><ele>194.0</ele><time>2026-05-01T14:48:12.728Z</time></trkpt><trkpt lat="43.53463" lon="10.585035"><ele>195.0</ele><time>2026-05-01T14:48:13.729Z</time></trkpt><trkpt lat="43.5345267" lon="10.5850983"><ele>196.0</ele><time>2026-05-01T14:48:14.728Z</time></trkpt><trkpt lat="43.5344117" lon="10.5851817"><ele>196.0</ele><time>2026-05-01T14:48:15.727Z</time></trkpt><trkpt lat="43.534295" lon="10.5852717"><ele>196.0</ele><time>2026-05-01T14:48:16.728Z</time></trkpt><trkpt lat="43.53418" lon="10.58537"><ele>196.0</ele><time>2026-05-01T14:48:17.728Z</time></trkpt><trkpt lat="43.534065" lon="10.5854717"><ele>196.0</ele><time>2026-05-01T14:48:18.727Z</time></trkpt><trkpt lat="43.5339467" lon="10.5855767"><ele>194.75</ele><time>2026-05-01T14:48:19.728Z</time></trkpt><trkpt lat="43.5338317" lon="10.585695"><ele>193.5</ele><time>2026-05-01T14:48:20.727Z</time></trkpt><trkpt lat="43.5337217" lon="10.5858167"><ele>192.25</ele><time>2026-05-01T14:48:21.729Z</time></trkpt><trkpt lat="43.5336233" lon="10.5859367"><ele>191.0</ele><time>2026-05-01T14:48:22.727Z</time></trkpt><trkpt lat="43.5335283" lon="10.58606"><ele>190.0</ele><time>2026-05-01T14:48:23.728Z</time></trkpt><trkpt lat="43.5334583" lon="10.58619"><ele>189.0</ele><time>2026-05-01T14:48:24.728Z</time></trkpt><trkpt lat="43.533425" lon="10.5863383"><ele>188.0</ele><time>2026-05-01T14:48:25.727Z</time></trkpt><trkpt lat="43.5334267" lon="10.5864983"><ele>187.0</ele><time>2026-05-01T14:48:26.727Z</time></trkpt><trkpt lat="43.53345" lon="10.5866533"><ele>187.0</ele><time>2026-05-01T14:48:27.727Z</time></trkpt><trkpt lat="43.5334933" lon="10.58678"><ele>187.0</ele><time>2026-05-01T14:48:28.729Z</time></trkpt><trkpt lat="43.533565" lon="10.5868617"><ele>187.0</ele><time>2026-05-01T14:48:29.727Z</time></trkpt><trkpt lat="43.533665" lon="10.5869067"><ele>187.0</ele><time>2026-05-01T14:48:30.728Z</time></trkpt><trkpt lat="43.533795" lon="10.5869483"><ele>187.0</ele><time>2026-05-01T14:48:31.727Z</time></trkpt><trkpt lat="43.53393" lon="10.58699"><ele>186.5</ele><time>2026-05-01T14:48:32.728Z</time></trkpt><trkpt lat="43.5340667" lon="10.5870333"><ele>186.0</ele><time>2026-05-01T14:48:33.726Z</time></trkpt><trkpt lat="43.5341983" lon="10.58708"><ele>185.5</ele><time>2026-05-01T14:48:34.728Z</time></trkpt><trkpt lat="43.5343183" lon="10.5871333"><ele>185.0</ele><time>2026-05-01T14:48:35.727Z</time></trkpt><trkpt lat="43.5344283" lon="10.58721"><ele>185.0</ele><time>2026-05-01T14:48:36.727Z</time></trkpt><trkpt lat="43.5345283" lon="10.5873167"><ele>185.0</ele><time>2026-05-01T14:48:37.727Z</time></trkpt><trkpt lat="43.5346267" lon="10.5874517"><ele>185.0</ele><time>2026-05-01T14:48:38.727Z</time></trkpt><trkpt lat="43.53473" lon="10.5875983"><ele>185.0</ele><time>2026-05-01T14:48:39.727Z</time></trkpt><trkpt lat="43.5348333" lon="10.5877433"><ele>183.5</ele><time>2026-05-01T14:48:40.727Z</time></trkpt><trkpt lat="43.5349383" lon="10.58788"><ele>182.0</ele><time>2026-05-01T14:48:41.728Z</time></trkpt><trkpt lat="43.535035" lon="10.5879917"><ele>180.5</ele><time>2026-05-01T14:48:42.728Z</time></trkpt><trkpt lat="43.5351167" lon="10.5880933"><ele>179.0</ele><time>2026-05-01T14:48:43.728Z</time></trkpt><trkpt lat="43.53518" lon="10.588205"><ele>179.0</ele><time>2026-05-01T14:48:44.728Z</time></trkpt><trkpt lat="43.5352233" lon="10.5883333"><ele>179.0</ele><time>2026-05-01T14:48:45.727Z</time></trkpt><trkpt lat="43.535215" lon="10.5884733"><ele>179.0</ele><time>2026-05-01T14:48:46.728Z</time></trkpt><trkpt lat="43.5351983" lon="10.588615"><ele>179.0</ele><time>2026-05-01T14:48:47.729Z</time></trkpt><trkpt lat="43.5351783" lon="10.5887617"><ele>179.0</ele><time>2026-05-01T14:48:48.727Z</time></trkpt><trkpt lat="43.5351817" lon="10.588915"><ele>179.39999999999998</ele><time>2026-05-01T14:48:49.728Z</time></trkpt><trkpt lat="43.5352067" lon="10.5890433"><ele>179.8</ele><time>2026-05-01T14:48:50.727Z</time></trkpt><trkpt lat="43.535265" lon="10.5891633"><ele>180.2</ele><time>2026-05-01T14:48:51.728Z</time></trkpt><trkpt lat="43.53533" lon="10.5892833"><ele>180.60000000000002</ele><time>2026-05-01T14:48:52.728Z</time></trkpt><trkpt lat="43.5354017" lon="10.5894033"><ele>181.0</ele><time>2026-05-01T14:48:53.726Z</time></trkpt><trkpt lat="43.53547" lon="10.5895317"><ele>179.8</ele><time>2026-05-01T14:48:54.726Z</time></trkpt><trkpt lat="43.5355217" lon="10.5896667"><ele>178.60000000000002</ele><time>2026-05-01T14:48:55.728Z</time></trkpt><trkpt lat="43.5355583" lon="10.5898017"><ele>177.4</ele><time>2026-05-01T14:48:56.727Z</time></trkpt><trkpt lat="43.5355767" lon="10.5899467"><ele>176.2</ele><time>2026-05-01T14:48:57.726Z</time></trkpt><trkpt lat="43.5355767" lon="10.5901"><ele>175.0</ele><time>2026-05-01T14:48:58.727Z</time></trkpt><trkpt lat="43.535565" lon="10.5902483"><ele>175.5</ele><time>2026-05-01T14:48:59.727Z</time></trkpt><trkpt lat="43.535535" lon="10.5904033"><ele>176.0</ele><time>2026-05-01T14:49:00.726Z</time></trkpt><trkpt lat="43.5354883" lon="10.590555"><ele>176.5</ele><time>2026-05-01T14:49:01.727Z</time></trkpt><trkpt lat="43.5354333" lon="10.5906933"><ele>177.0</ele><time>2026-05-01T14:49:02.727Z</time></trkpt><trkpt lat="43.5353767" lon="10.5908267"><ele>177.0</ele><time>2026-05-01T14:49:03.727Z</time></trkpt><trkpt lat="43.5353217" lon="10.5909517"><ele>177.0</ele><time>2026-05-01T14:49:04.728Z</time></trkpt><trkpt lat="43.5352817" lon="10.5910717"><ele>177.0</ele><time>2026-05-01T14:49:05.728Z</time></trkpt><trkpt lat="43.535265" lon="10.5911933"><ele>177.0</ele><time>2026-05-01T14:49:06.728Z</time></trkpt><trkpt lat="43.5352433" lon="10.5913283"><ele>177.0</ele><time>2026-05-01T14:49:07.727Z</time></trkpt><trkpt lat="43.5352567" lon="10.59146"><ele>177.0</ele><time>2026-05-01T14:49:08.728Z</time></trkpt><trkpt lat="43.53528" lon="10.5915917"><ele>177.0</ele><time>2026-05-01T14:49:09.726Z</time></trkpt><trkpt lat="43.5353233" lon="10.5917383"><ele>177.0</ele><time>2026-05-01T14:49:10.727Z</time></trkpt><trkpt lat="43.535365" lon="10.5919217"><ele>177.0</ele><time>2026-05-01T14:49:11.727Z</time></trkpt><trkpt lat="43.5354117" lon="10.5921233"><ele>180.0</ele><time>2026-05-01T14:49:12.727Z</time></trkpt><trkpt lat="43.535455" lon="10.5923433"><ele>183.0</ele><time>2026-05-01T14:49:13.728Z</time></trkpt><trkpt lat="43.5354967" lon="10.59256"><ele>186.0</ele><time>2026-05-01T14:49:14.726Z</time></trkpt><trkpt lat="43.535535" lon="10.5927883"><ele>183.33333333333334</ele><time>2026-05-01T14:49:15.726Z</time></trkpt><trkpt lat="43.535575" lon="10.5930217"><ele>180.66666666666669</ele><time>2026-05-01T14:49:16.727Z</time></trkpt><trkpt lat="43.53562" lon="10.593265"><ele>178.0</ele><time>2026-05-01T14:49:17.728Z</time></trkpt><trkpt lat="43.535665" lon="10.5935"><ele>177.33333333333334</ele><time>2026-05-01T14:49:18.726Z</time></trkpt><trkpt lat="43.535715" lon="10.5937267"><ele>176.66666666666666</ele><time>2026-05-01T14:49:19.727Z</time></trkpt><trkpt lat="43.5357683" lon="10.5939467"><ele>176.0</ele><time>2026-05-01T14:49:20.727Z</time></trkpt><trkpt lat="43.53584" lon="10.59415"><ele>176.0</ele><time>2026-05-01T14:49:21.726Z</time></trkpt><trkpt lat="43.535925" lon="10.5943333"><ele>176.0</ele><time>2026-05-01T14:49:22.727Z</time></trkpt><trkpt lat="43.53601" lon="10.5945117"><ele>176.0</ele><time>2026-05-01T14:49:23.726Z</time></trkpt><trkpt lat="43.5360833" lon="10.5946817"><ele>176.5</ele><time>2026-05-01T14:49:24.726Z</time></trkpt><trkpt lat="43.5361283" lon="10.5948567"><ele>177.0</ele><time>2026-05-01T14:49:25.726Z</time></trkpt><trkpt lat="43.5361567" lon="10.5950467"><ele>177.5</ele><time>2026-05-01T14:49:26.729Z</time></trkpt><trkpt lat="43.5361567" lon="10.5952517"><ele>178.0</ele><time>2026-05-01T14:49:27.727Z</time></trkpt><trkpt lat="43.5361383" lon="10.5954617"><ele>178.0</ele><time>2026-05-01T14:49:28.728Z</time></trkpt><trkpt lat="43.53611" lon="10.5956767"><ele>178.0</ele><time>2026-05-01T14:49:29.728Z</time></trkpt><trkpt lat="43.536085" lon="10.595895"><ele>178.0</ele><time>2026-05-01T14:49:30.728Z</time></trkpt><trkpt lat="43.53604" lon="10.59611"><ele>178.0</ele><time>2026-05-01T14:49:31.727Z</time></trkpt><trkpt lat="43.535995" lon="10.5963267"><ele>178.0</ele><time>2026-05-01T14:49:32.728Z</time></trkpt><trkpt lat="43.5359517" lon="10.596545"><ele>178.0</ele><time>2026-05-01T14:49:33.726Z</time></trkpt><trkpt lat="43.535905" lon="10.5967617"><ele>178.0</ele><time>2026-05-01T14:49:34.726Z</time></trkpt><trkpt lat="43.5358483" lon="10.5969767"><ele>178.0</ele><time>2026-05-01T14:49:35.726Z</time></trkpt><trkpt lat="43.5357817" lon="10.59719"><ele>178.0</ele><time>2026-05-01T14:49:36.726Z</time></trkpt><trkpt lat="43.535705" lon="10.5974067"><ele>178.33333333333334</ele><time>2026-05-01T14:49:37.727Z</time></trkpt><trkpt lat="43.5356267" lon="10.5976133"><ele>178.66666666666666</ele><time>2026-05-01T14:49:38.727Z</time></trkpt><trkpt lat="43.5355433" lon="10.5978317"><ele>179.0</ele><time>2026-05-01T14:49:39.725Z</time></trkpt><trkpt lat="43.5354633" lon="10.59805"><ele>180.0</ele><time>2026-05-01T14:49:40.727Z</time></trkpt><trkpt lat="43.5353933" lon="10.5982667"><ele>181.0</ele><time>2026-05-01T14:49:41.727Z</time></trkpt><trkpt lat="43.5353333" lon="10.59849"><ele>182.0</ele><time>2026-05-01T14:49:42.728Z</time></trkpt><trkpt lat="43.5352833" lon="10.5987217"><ele>183.0</ele><time>2026-05-01T14:49:43.727Z</time></trkpt><trkpt lat="43.5352433" lon="10.5989583"><ele>184.0</ele><time>2026-05-01T14:49:44.728Z</time></trkpt><trkpt lat="43.5352117" lon="10.5991933"><ele>185.0</ele><time>2026-05-01T14:49:45.727Z</time></trkpt><trkpt lat="43.5351783" lon="10.599425"><ele>185.0</ele><time>2026-05-01T14:49:46.727Z</time></trkpt><trkpt lat="43.53513" lon="10.5996367"><ele>185.0</ele><time>2026-05-01T14:49:47.728Z</time></trkpt><trkpt lat="43.5350567" lon="10.599845"><ele>185.0</ele><time>2026-05-01T14:49:48.728Z</time></trkpt><trkpt lat="43.534975" lon="10.60004"><ele>185.0</ele><time>2026-05-01T14:49:49.728Z</time></trkpt><trkpt lat="43.5348783" lon="10.6002233"><ele>185.0</ele><time>2026-05-01T14:49:50.728Z</time></trkpt><trkpt lat="43.53477" lon="10.6003983"><ele>185.0</ele><time>2026-05-01T14:49:51.727Z</time></trkpt><trkpt lat="43.5346433" lon="10.60056"><ele>186.33333333333331</ele><time>2026-05-01T14:49:52.726Z</time></trkpt><trkpt lat="43.5345183" lon="10.6007083"><ele>187.66666666666666</ele><time>2026-05-01T14:49:53.727Z</time></trkpt><trkpt lat="43.5343967" lon="10.6008383"><ele>189.0</ele><time>2026-05-01T14:49:54.727Z</time></trkpt><trkpt lat="43.534285" lon="10.6009533"><ele>189.0</ele><time>2026-05-01T14:49:55.728Z</time></trkpt><trkpt lat="43.5341667" lon="10.601035"><ele>189.0</ele><time>2026-05-01T14:49:56.728Z</time></trkpt><trkpt lat="43.534035" lon="10.6010867"><ele>189.0</ele><time>2026-05-01T14:49:57.726Z</time></trkpt><trkpt lat="43.5339033" lon="10.6011083"><ele>189.0</ele><time>2026-05-01T14:49:58.728Z</time></trkpt><trkpt lat="43.5337783" lon="10.6010867"><ele>192.0</ele><time>2026-05-01T14:49:59.728Z</time></trkpt><trkpt lat="43.5336467" lon="10.6010667"><ele>195.0</ele><time>2026-05-01T14:50:00.726Z</time></trkpt><trkpt lat="43.5335133" lon="10.6010483"><ele>198.0</ele><time>2026-05-01T14:50:01.725Z</time></trkpt><trkpt lat="43.533385" lon="10.6010217"><ele>201.0</ele><time>2026-05-01T14:50:02.726Z</time></trkpt><trkpt lat="43.5332533" lon="10.6010117"><ele>201.0</ele><time>2026-05-01T14:50:03.727Z</time></trkpt><trkpt lat="43.5331183" lon="10.6010217"><ele>201.0</ele><time>2026-05-01T14:50:04.726Z</time></trkpt><trkpt lat="43.5329783" lon="10.60106"><ele>201.0</ele><time>2026-05-01T14:50:05.726Z</time></trkpt><trkpt lat="43.532835" lon="10.6011117"><ele>201.0</ele><time>2026-05-01T14:50:06.728Z</time></trkpt><trkpt lat="43.5326783" lon="10.601185"><ele>196.66666666666666</ele><time>2026-05-01T14:50:07.727Z</time></trkpt><trkpt lat="43.532515" lon="10.6012733"><ele>192.33333333333331</ele><time>2026-05-01T14:50:08.728Z</time></trkpt><trkpt lat="43.5323583" lon="10.601365"><ele>188.0</ele><time>2026-05-01T14:50:09.727Z</time></trkpt><trkpt lat="43.5322083" lon="10.60147"><ele>188.0</ele><time>2026-05-01T14:50:10.727Z</time></trkpt><trkpt lat="43.5320617" lon="10.6015717"><ele>188.0</ele><time>2026-05-01T14:50:11.727Z</time></trkpt><trkpt lat="43.53191" lon="10.6016867"><ele>188.0</ele><time>2026-05-01T14:50:12.727Z</time></trkpt><trkpt lat="43.5317583" lon="10.6017833"><ele>185.66666666666666</ele><time>2026-05-01T14:50:13.727Z</time></trkpt><trkpt lat="43.53161" lon="10.60187"><ele>183.33333333333334</ele><time>2026-05-01T14:50:14.727Z</time></trkpt><trkpt lat="43.5314633" lon="10.601945"><ele>181.0</ele><time>2026-05-01T14:50:15.727Z</time></trkpt><trkpt lat="43.5313183" lon="10.60201"><ele>182.5</ele><time>2026-05-01T14:50:16.727Z</time></trkpt><trkpt lat="43.5311767" lon="10.60205"><ele>184.0</ele><time>2026-05-01T14:50:17.726Z</time></trkpt><trkpt lat="43.53103" lon="10.6020817"><ele>185.5</ele><time>2026-05-01T14:50:18.728Z</time></trkpt><trkpt lat="43.53089" lon="10.6020633"><ele>187.0</ele><time>2026-05-01T14:50:19.727Z</time></trkpt><trkpt lat="43.5307433" lon="10.6020017"><ele>189.66666666666669</ele><time>2026-05-01T14:50:20.727Z</time></trkpt><trkpt lat="43.5306067" lon="10.6019083"><ele>192.33333333333334</ele><time>2026-05-01T14:50:21.726Z</time></trkpt><trkpt lat="43.5304833" lon="10.6017817"><ele>195.0</ele><time>2026-05-01T14:50:22.727Z</time></trkpt><trkpt lat="43.53037" lon="10.6016283"><ele>195.0</ele><time>2026-05-01T14:50:23.728Z</time></trkpt><trkpt lat="43.5302567" lon="10.60146"><ele>195.0</ele><time>2026-05-01T14:50:24.727Z</time></trkpt><trkpt lat="43.5301417" lon="10.6012933"><ele>195.0</ele><time>2026-05-01T14:50:25.728Z</time></trkpt><trkpt lat="43.530025" lon="10.6011367"><ele>200.0</ele><time>2026-05-01T14:50:26.727Z</time></trkpt><trkpt lat="43.5298983" lon="10.600985"><ele>205.0</ele><time>2026-05-01T14:50:27.726Z</time></trkpt><trkpt lat="43.5297717" lon="10.6008383"><ele>210.0</ele><time>2026-05-01T14:50:28.726Z</time></trkpt><trkpt lat="43.5296433" lon="10.60071"><ele>209.25</ele><time>2026-05-01T14:50:29.727Z</time></trkpt><trkpt lat="43.5295233" lon="10.6006017"><ele>208.5</ele><time>2026-05-01T14:50:30.728Z</time></trkpt><trkpt lat="43.5294133" lon="10.6005117"><ele>207.75</ele><time>2026-05-01T14:50:31.727Z</time></trkpt><trkpt lat="43.5293033" lon="10.6004617"><ele>207.0</ele><time>2026-05-01T14:50:32.726Z</time></trkpt><trkpt lat="43.5292017" lon="10.6004467"><ele>207.0</ele><time>2026-05-01T14:50:33.727Z</time></trkpt><trkpt lat="43.529125" lon="10.6004867"><ele>207.0</ele><time>2026-05-01T14:50:34.727Z</time></trkpt><trkpt lat="43.529065" lon="10.6005467"><ele>207.0</ele><time>2026-05-01T14:50:35.727Z</time></trkpt><trkpt lat="43.5290583" lon="10.6006633"><ele>207.0</ele><time>2026-05-01T14:50:36.727Z</time></trkpt><trkpt lat="43.5290833" lon="10.60081"><ele>207.0</ele><time>2026-05-01T14:50:37.726Z</time></trkpt><trkpt lat="43.52911" lon="10.6009817"><ele>206.5</ele><time>2026-05-01T14:50:38.726Z</time></trkpt><trkpt lat="43.529145" lon="10.6011733"><ele>206.0</ele><time>2026-05-01T14:50:39.728Z</time></trkpt><trkpt lat="43.52918" lon="10.6013767"><ele>205.5</ele><time>2026-05-01T14:50:40.728Z</time></trkpt><trkpt lat="43.5292067" lon="10.6015767"><ele>205.0</ele><time>2026-05-01T14:50:41.728Z</time></trkpt><trkpt lat="43.529215" lon="10.6017767"><ele>205.0</ele><time>2026-05-01T14:50:42.727Z</time></trkpt><trkpt lat="43.5291983" lon="10.601975"><ele>205.0</ele><time>2026-05-01T14:50:43.727Z</time></trkpt><trkpt lat="43.5291633" lon="10.60218"><ele>205.0</ele><time>2026-05-01T14:50:44.727Z</time></trkpt><trkpt lat="43.5291267" lon="10.6023783"><ele>205.0</ele><time>2026-05-01T14:50:45.727Z</time></trkpt><trkpt lat="43.529075" lon="10.6025717"><ele>203.5</ele><time>2026-05-01T14:50:46.726Z</time></trkpt><trkpt lat="43.529005" lon="10.6027533"><ele>202.0</ele><time>2026-05-01T14:50:47.728Z</time></trkpt><trkpt lat="43.5289183" lon="10.6029133"><ele>200.5</ele><time>2026-05-01T14:50:48.728Z</time></trkpt><trkpt lat="43.5288317" lon="10.6030583"><ele>199.0</ele><time>2026-05-01T14:50:49.727Z</time></trkpt><trkpt lat="43.5287533" lon="10.603205"><ele>200.75</ele><time>2026-05-01T14:50:50.727Z</time></trkpt><trkpt lat="43.5286783" lon="10.60335"><ele>202.5</ele><time>2026-05-01T14:50:51.727Z</time></trkpt><trkpt lat="43.5285883" lon="10.6034733"><ele>204.25</ele><time>2026-05-01T14:50:52.727Z</time></trkpt><trkpt lat="43.5284817" lon="10.6035617"><ele>206.0</ele><time>2026-05-01T14:50:53.726Z</time></trkpt><trkpt lat="43.5283583" lon="10.603655"><ele>205.0</ele><time>2026-05-01T14:50:54.728Z</time></trkpt><trkpt lat="43.5282517" lon="10.6037283"><ele>204.0</ele><time>2026-05-01T14:50:55.726Z</time></trkpt><trkpt lat="43.5281717" lon="10.6038217"><ele>203.0</ele><time>2026-05-01T14:50:56.727Z</time></trkpt><trkpt lat="43.5281183" lon="10.603945"><ele>202.0</ele><time>2026-05-01T14:50:57.727Z</time></trkpt><trkpt lat="43.52811" lon="10.6041133"><ele>202.0</ele><time>2026-05-01T14:50:58.727Z</time></trkpt><trkpt lat="43.5281183" lon="10.6042967"><ele>202.0</ele><time>2026-05-01T14:50:59.726Z</time></trkpt><trkpt lat="43.5281283" lon="10.604485"><ele>202.0</ele><time>2026-05-01T14:51:00.727Z</time></trkpt><trkpt lat="43.528145" lon="10.6046767"><ele>202.0</ele><time>2026-05-01T14:51:01.726Z</time></trkpt><trkpt lat="43.528155" lon="10.6048433"><ele>203.0</ele><time>2026-05-01T14:51:02.726Z</time></trkpt><trkpt lat="43.5281517" lon="10.6049933"><ele>204.0</ele><time>2026-05-01T14:51:03.727Z</time></trkpt><trkpt lat="43.5281217" lon="10.6051133"><ele>205.0</ele><time>2026-05-01T14:51:04.726Z</time></trkpt><trkpt lat="43.5280617" lon="10.6052167"><ele>206.0</ele><time>2026-05-01T14:51:05.726Z</time></trkpt><trkpt lat="43.5279717" lon="10.6052967"><ele>207.0</ele><time>2026-05-01T14:51:06.726Z</time></trkpt><trkpt lat="43.5278583" lon="10.60536"><ele>202.0</ele><time>2026-05-01T14:51:07.726Z</time></trkpt><trkpt lat="43.52773" lon="10.6054033"><ele>197.0</ele><time>2026-05-01T14:51:08.728Z</time></trkpt><trkpt lat="43.5275867" lon="10.60543"><ele>192.0</ele><time>2026-05-01T14:51:09.728Z</time></trkpt><trkpt lat="43.52745" lon="10.60544"><ele>187.0</ele><time>2026-05-01T14:51:10.727Z</time></trkpt><trkpt lat="43.5273083" lon="10.6054467"><ele>187.0</ele><time>2026-05-01T14:51:11.727Z</time></trkpt><trkpt lat="43.52717" lon="10.6054533"><ele>187.0</ele><time>2026-05-01T14:51:12.726Z</time></trkpt><trkpt lat="43.5270383" lon="10.6054833"><ele>187.0</ele><time>2026-05-01T14:51:13.728Z</time></trkpt><trkpt lat="43.5269217" lon="10.6055333"><ele>187.0</ele><time>2026-05-01T14:51:14.728Z</time></trkpt><trkpt lat="43.5268167" lon="10.605595"><ele>187.5</ele><time>2026-05-01T14:51:15.727Z</time></trkpt><trkpt lat="43.5267267" lon="10.6056867"><ele>188.0</ele><time>2026-05-01T14:51:16.727Z</time></trkpt><trkpt lat="43.5266533" lon="10.6058133"><ele>188.5</ele><time>2026-05-01T14:51:17.726Z</time></trkpt><trkpt lat="43.526595" lon="10.6059783"><ele>189.0</ele><time>2026-05-01T14:51:18.727Z</time></trkpt><trkpt lat="43.5265567" lon="10.6061533"><ele>187.25</ele><time>2026-05-01T14:51:19.729Z</time></trkpt><trkpt lat="43.526545" lon="10.6063233"><ele>185.5</ele><time>2026-05-01T14:51:20.728Z</time></trkpt><trkpt lat="43.5265183" lon="10.6064883"><ele>183.75</ele><time>2026-05-01T14:51:21.726Z</time></trkpt><trkpt lat="43.5264483" lon="10.6066567"><ele>182.0</ele><time>2026-05-01T14:51:22.727Z</time></trkpt><trkpt lat="43.5263617" lon="10.6068217"><ele>182.0</ele><time>2026-05-01T14:51:23.727Z</time></trkpt><trkpt lat="43.5262533" lon="10.6069983"><ele>182.0</ele><time>2026-05-01T14:51:24.726Z</time></trkpt><trkpt lat="43.5261383" lon="10.6071883"><ele>182.0</ele><time>2026-05-01T14:51:25.727Z</time></trkpt><trkpt lat="43.5260233" lon="10.6073783"><ele>182.0</ele><time>2026-05-01T14:51:26.728Z</time></trkpt><trkpt lat="43.5259083" lon="10.6075517"><ele>182.0</ele><time>2026-05-01T14:51:27.727Z</time></trkpt><trkpt lat="43.5258" lon="10.607705"><ele>182.0</ele><time>2026-05-01T14:51:28.726Z</time></trkpt><trkpt lat="43.5257067" lon="10.60785"><ele>180.0</ele><time>2026-05-01T14:51:29.727Z</time></trkpt><trkpt lat="43.5256283" lon="10.6080083"><ele>178.0</ele><time>2026-05-01T14:51:30.726Z</time></trkpt><trkpt lat="43.525575" lon="10.6081717"><ele>176.0</ele><time>2026-05-01T14:51:31.727Z</time></trkpt><trkpt lat="43.525555" lon="10.6083533"><ele>174.0</ele><time>2026-05-01T14:51:32.727Z</time></trkpt><trkpt lat="43.52555" lon="10.60855"><ele>172.25</ele><time>2026-05-01T14:51:33.727Z</time></trkpt><trkpt lat="43.5255483" lon="10.6087467"><ele>170.5</ele><time>2026-05-01T14:51:34.726Z</time></trkpt><trkpt lat="43.5255417" lon="10.6089317"><ele>168.75</ele><time>2026-05-01T14:51:35.727Z</time></trkpt><trkpt lat="43.5255183" lon="10.609105"><ele>167.0</ele><time>2026-05-01T14:51:36.728Z</time></trkpt><trkpt lat="43.5254733" lon="10.6092633"><ele>167.0</ele><time>2026-05-01T14:51:37.727Z</time></trkpt><trkpt lat="43.5253967" lon="10.6094083"><ele>167.0</ele><time>2026-05-01T14:51:38.726Z</time></trkpt><trkpt lat="43.5252967" lon="10.609525"><ele>167.0</ele><time>2026-05-01T14:51:39.727Z</time></trkpt><trkpt lat="43.5251767" lon="10.6096283"><ele>167.0</ele><time>2026-05-01T14:51:40.727Z</time></trkpt><trkpt lat="43.525045" lon="10.6097317"><ele>168.5</ele><time>2026-05-01T14:51:41.727Z</time></trkpt><trkpt lat="43.5249117" lon="10.6098433"><ele>170.0</ele><time>2026-05-01T14:51:42.726Z</time></trkpt><trkpt lat="43.5247917" lon="10.609945"><ele>171.5</ele><time>2026-05-01T14:51:43.726Z</time></trkpt><trkpt lat="43.5246867" lon="10.610035"><ele>173.0</ele><time>2026-05-01T14:51:44.728Z</time></trkpt><trkpt lat="43.52456" lon="10.6100767"><ele>173.0</ele><time>2026-05-01T14:51:45.727Z</time></trkpt><trkpt lat="43.5244217" lon="10.6101033"><ele>173.0</ele><time>2026-05-01T14:51:46.726Z</time></trkpt><trkpt lat="43.5242833" lon="10.61008"><ele>173.0</ele><time>2026-05-01T14:51:47.727Z</time></trkpt><trkpt lat="43.5241417" lon="10.6100533"><ele>173.0</ele><time>2026-05-01T14:51:48.728Z</time></trkpt><trkpt lat="43.524" lon="10.610015"><ele>173.0</ele><time>2026-05-01T14:51:49.727Z</time></trkpt><trkpt lat="43.5238683" lon="10.6099567"><ele>173.0</ele><time>2026-05-01T14:51:50.727Z</time></trkpt><trkpt lat="43.5237517" lon="10.6098833"><ele>173.0</ele><time>2026-05-01T14:51:51.726Z</time></trkpt><trkpt lat="43.523645" lon="10.6098283"><ele>173.0</ele><time>2026-05-01T14:51:52.726Z</time></trkpt><trkpt lat="43.5235417" lon="10.6098067"><ele>172.2</ele><time>2026-05-01T14:51:53.726Z</time></trkpt><trkpt lat="43.5234483" lon="10.6098317"><ele>171.4</ele><time>2026-05-01T14:51:54.728Z</time></trkpt><trkpt lat="43.523375" lon="10.6099083"><ele>170.6</ele><time>2026-05-01T14:51:55.727Z</time></trkpt><trkpt lat="43.5233033" lon="10.6100433"><ele>169.79999999999998</ele><time>2026-05-01T14:51:56.727Z</time></trkpt><trkpt lat="43.52324" lon="10.6102117"><ele>169.0</ele><time>2026-05-01T14:51:57.728Z</time></trkpt><trkpt lat="43.5231817" lon="10.6103917"><ele>167.25</ele><time>2026-05-01T14:51:58.729Z</time></trkpt><trkpt lat="43.5231433" lon="10.6105717"><ele>165.5</ele><time>2026-05-01T14:51:59.727Z</time></trkpt><trkpt lat="43.5231267" lon="10.6107383"><ele>163.75</ele><time>2026-05-01T14:52:00.726Z</time></trkpt><trkpt lat="43.523135" lon="10.61089"><ele>162.0</ele><time>2026-05-01T14:52:01.727Z</time></trkpt><trkpt lat="43.5231783" lon="10.6110333"><ele>161.5</ele><time>2026-05-01T14:52:02.728Z</time></trkpt><trkpt lat="43.5232417" lon="10.6111683"><ele>161.0</ele><time>2026-05-01T14:52:03.726Z</time></trkpt><trkpt lat="43.5233483" lon="10.6113033"><ele>160.5</ele><time>2026-05-01T14:52:04.727Z</time></trkpt><trkpt lat="43.523455" lon="10.6114433"><ele>160.0</ele><time>2026-05-01T14:52:05.728Z</time></trkpt><trkpt lat="43.5235617" lon="10.61159"><ele>160.0</ele><time>2026-05-01T14:52:06.727Z</time></trkpt><trkpt lat="43.523665" lon="10.6117267"><ele>160.0</ele><time>2026-05-01T14:52:07.727Z</time></trkpt><trkpt lat="43.5237633" lon="10.6118633"><ele>160.0</ele><time>2026-05-01T14:52:08.728Z</time></trkpt><trkpt lat="43.5238467" lon="10.6120067"><ele>160.0</ele><time>2026-05-01T14:52:09.726Z</time></trkpt><trkpt lat="43.5239167" lon="10.61216"><ele>158.5</ele><time>2026-05-01T14:52:10.728Z</time></trkpt><trkpt lat="43.52397" lon="10.6123283"><ele>157.0</ele><time>2026-05-01T14:52:11.727Z</time></trkpt><trkpt lat="43.5240033" lon="10.6125133"><ele>155.5</ele><time>2026-05-01T14:52:12.727Z</time></trkpt><trkpt lat="43.5240117" lon="10.6127"><ele>154.0</ele><time>2026-05-01T14:52:13.726Z</time></trkpt><trkpt lat="43.5239983" lon="10.6128933"><ele>154.0</ele><time>2026-05-01T14:52:14.728Z</time></trkpt><trkpt lat="43.5239783" lon="10.6130917"><ele>154.0</ele><time>2026-05-01T14:52:15.726Z</time></trkpt><trkpt lat="43.5239617" lon="10.6132917"><ele>154.0</ele><time>2026-05-01T14:52:16.727Z</time></trkpt><trkpt lat="43.5239483" lon="10.6134867"><ele>154.0</ele><time>2026-05-01T14:52:17.728Z</time></trkpt><trkpt lat="43.523935" lon="10.6136783"><ele>153.75</ele><time>2026-05-01T14:52:18.726Z</time></trkpt><trkpt lat="43.5239217" lon="10.61387"><ele>153.5</ele><time>2026-05-01T14:52:19.727Z</time></trkpt><trkpt lat="43.5239083" lon="10.614055"><ele>153.25</ele><time>2026-05-01T14:52:20.728Z</time></trkpt><trkpt lat="43.523895" lon="10.61424"><ele>153.0</ele><time>2026-05-01T14:52:21.726Z</time></trkpt><trkpt lat="43.5238917" lon="10.6144233"><ele>152.5</ele><time>2026-05-01T14:52:22.727Z</time></trkpt><trkpt lat="43.5238783" lon="10.614605"><ele>152.0</ele><time>2026-05-01T14:52:23.727Z</time></trkpt><trkpt lat="43.5238683" lon="10.6148017"><ele>151.5</ele><time>2026-05-01T14:52:24.727Z</time></trkpt><trkpt lat="43.5238617" lon="10.6149883"><ele>151.0</ele><time>2026-05-01T14:52:25.728Z</time></trkpt><trkpt lat="43.5238417" lon="10.6151733"><ele>150.5</ele><time>2026-05-01T14:52:26.727Z</time></trkpt><trkpt lat="43.5238233" lon="10.6153533"><ele>150.0</ele><time>2026-05-01T14:52:27.727Z</time></trkpt><trkpt lat="43.523795" lon="10.6155217"><ele>149.5</ele><time>2026-05-01T14:52:28.727Z</time></trkpt><trkpt lat="43.52376" lon="10.6156883"><ele>149.0</ele><time>2026-05-01T14:52:29.727Z</time></trkpt><trkpt lat="43.52373" lon="10.6158633"><ele>149.0</ele><time>2026-05-01T14:52:30.728Z</time></trkpt><trkpt lat="43.5237033" lon="10.6160333"><ele>149.0</ele><time>2026-05-01T14:52:31.727Z</time></trkpt><trkpt lat="43.5236817" lon="10.6161967"><ele>149.0</ele><time>2026-05-01T14:52:32.727Z</time></trkpt><trkpt lat="43.5236533" lon="10.6163533"><ele>149.0</ele><time>2026-05-01T14:52:33.727Z</time></trkpt><trkpt lat="43.523615" lon="10.6164933"><ele>148.2</ele><time>2026-05-01T14:52:34.726Z</time></trkpt><trkpt lat="43.5235617" lon="10.6166117"><ele>147.4</ele><time>2026-05-01T14:52:35.728Z</time></trkpt><trkpt lat="43.5235" lon="10.6167133"><ele>146.6</ele><time>2026-05-01T14:52:36.728Z</time></trkpt><trkpt lat="43.5234333" lon="10.6168167"><ele>145.8</ele><time>2026-05-01T14:52:37.727Z</time></trkpt><trkpt lat="43.5233617" lon="10.6169133"><ele>145.0</ele><time>2026-05-01T14:52:38.728Z</time></trkpt><trkpt lat="43.5232883" lon="10.6170117"><ele>144.0</ele><time>2026-05-01T14:52:39.727Z</time></trkpt><trkpt lat="43.523215" lon="10.617115"><ele>143.0</ele><time>2026-05-01T14:52:40.728Z</time></trkpt><trkpt lat="43.52314" lon="10.61722"><ele>142.0</ele><time>2026-05-01T14:52:41.728Z</time></trkpt><trkpt lat="43.5230617" lon="10.6173333"><ele>141.0</ele><time>2026-05-01T14:52:42.728Z</time></trkpt><trkpt lat="43.52298" lon="10.617455"><ele>140.0</ele><time>2026-05-01T14:52:43.727Z</time></trkpt><trkpt lat="43.5229" lon="10.6175833"><ele>139.75</ele><time>2026-05-01T14:52:44.727Z</time></trkpt><trkpt lat="43.522815" lon="10.61772"><ele>139.5</ele><time>2026-05-01T14:52:45.727Z</time></trkpt><trkpt lat="43.5227333" lon="10.6178467"><ele>139.25</ele><time>2026-05-01T14:52:46.728Z</time></trkpt><trkpt lat="43.52265" lon="10.61797"><ele>139.0</ele><time>2026-05-01T14:52:47.726Z</time></trkpt><trkpt lat="43.5225683" lon="10.618095"><ele>138.4</ele><time>2026-05-01T14:52:48.727Z</time></trkpt><trkpt lat="43.5224883" lon="10.6182183"><ele>137.8</ele><time>2026-05-01T14:52:49.728Z</time></trkpt><trkpt lat="43.522415" lon="10.6183283"><ele>137.2</ele><time>2026-05-01T14:52:50.727Z</time></trkpt><trkpt lat="43.5223467" lon="10.6184333"><ele>136.6</ele><time>2026-05-01T14:52:51.727Z</time></trkpt><trkpt lat="43.522275" lon="10.6185383"><ele>136.0</ele><time>2026-05-01T14:52:52.727Z</time></trkpt><trkpt lat="43.5222" lon="10.6186517"><ele>135.0</ele><time>2026-05-01T14:52:53.728Z</time></trkpt><trkpt lat="43.5221167" lon="10.6187733"><ele>134.0</ele><time>2026-05-01T14:52:54.728Z</time></trkpt><trkpt lat="43.522025" lon="10.6189067"><ele>133.0</ele><time>2026-05-01T14:52:55.726Z</time></trkpt><trkpt lat="43.52193" lon="10.6190417"><ele>132.0</ele><time>2026-05-01T14:52:56.727Z</time></trkpt><trkpt lat="43.52184" lon="10.6191817"><ele>132.0</ele><time>2026-05-01T14:52:57.727Z</time></trkpt><trkpt lat="43.5217667" lon="10.6193417"><ele>132.0</ele><time>2026-05-01T14:52:58.727Z</time></trkpt><trkpt lat="43.5217267" lon="10.61952"><ele>132.0</ele><time>2026-05-01T14:52:59.728Z</time></trkpt><trkpt lat="43.5217133" lon="10.6197317"><ele>132.0</ele><time>2026-05-01T14:53:00.728Z</time></trkpt><trkpt lat="43.52172" lon="10.6199617"><ele>134.33333333333334</ele><time>2026-05-01T14:53:01.727Z</time></trkpt><trkpt lat="43.5217383" lon="10.6201917"><ele>136.66666666666669</ele><time>2026-05-01T14:53:02.727Z</time></trkpt><trkpt lat="43.521765" lon="10.6204283"><ele>139.0</ele><time>2026-05-01T14:53:03.726Z</time></trkpt><trkpt lat="43.52179" lon="10.62066"><ele>140.66666666666669</ele><time>2026-05-01T14:53:04.727Z</time></trkpt><trkpt lat="43.5218033" lon="10.6208867"><ele>142.33333333333334</ele><time>2026-05-01T14:53:05.728Z</time></trkpt><trkpt lat="43.5218133" lon="10.62111"><ele>144.0</ele><time>2026-05-01T14:53:06.728Z</time></trkpt><trkpt lat="43.5218117" lon="10.6213317"><ele>144.66666666666666</ele><time>2026-05-01T14:53:07.726Z</time></trkpt><trkpt lat="43.5217933" lon="10.6215517"><ele>145.33333333333331</ele><time>2026-05-01T14:53:08.728Z</time></trkpt><trkpt lat="43.5217433" lon="10.6217667"><ele>146.0</ele><time>2026-05-01T14:53:09.729Z</time></trkpt><trkpt lat="43.5216783" lon="10.6219683"><ele>147.33333333333331</ele><time>2026-05-01T14:53:10.727Z</time></trkpt><trkpt lat="43.5215767" lon="10.6221517"><ele>148.66666666666666</ele><time>2026-05-01T14:53:11.727Z</time></trkpt><trkpt lat="43.521455" lon="10.6223267"><ele>150.0</ele><time>2026-05-01T14:53:12.727Z</time></trkpt><trkpt lat="43.5213217" lon="10.6224967"><ele>151.33333333333334</ele><time>2026-05-01T14:53:13.728Z</time></trkpt><trkpt lat="43.5211817" lon="10.6226683"><ele>152.66666666666669</ele><time>2026-05-01T14:53:14.728Z</time></trkpt><trkpt lat="43.52104" lon="10.6228333"><ele>154.0</ele><time>2026-05-01T14:53:15.727Z</time></trkpt><trkpt lat="43.5208983" lon="10.623005"><ele>154.66666666666669</ele><time>2026-05-01T14:53:16.729Z</time></trkpt><trkpt lat="43.5207583" lon="10.62318"><ele>155.33333333333334</ele><time>2026-05-01T14:53:17.727Z</time></trkpt><trkpt lat="43.5206183" lon="10.6233533"><ele>156.0</ele><time>2026-05-01T14:53:18.728Z</time></trkpt><trkpt lat="43.5204783" lon="10.6235267"><ele>159.33333333333334</ele><time>2026-05-01T14:53:19.728Z</time></trkpt><trkpt lat="43.5203367" lon="10.6236967"><ele>162.66666666666669</ele><time>2026-05-01T14:53:20.729Z</time></trkpt><trkpt lat="43.5202" lon="10.6238683"><ele>166.0</ele><time>2026-05-01T14:53:21.729Z</time></trkpt><trkpt lat="43.5200633" lon="10.6240383"><ele>166.0</ele><time>2026-05-01T14:53:22.728Z</time></trkpt><trkpt lat="43.5199317" lon="10.6242017"><ele>166.0</ele><time>2026-05-01T14:53:23.727Z</time></trkpt><trkpt lat="43.5198017" lon="10.624365"><ele>166.0</ele><time>2026-05-01T14:53:24.728Z</time></trkpt><trkpt lat="43.5196717" lon="10.624525"><ele>168.0</ele><time>2026-05-01T14:53:25.728Z</time></trkpt><trkpt lat="43.5195467" lon="10.624675"><ele>170.0</ele><time>2026-05-01T14:53:26.728Z</time></trkpt><trkpt lat="43.5194167" lon="10.624825"><ele>172.0</ele><time>2026-05-01T14:53:27.728Z</time></trkpt><trkpt lat="43.5192833" lon="10.62497"><ele>172.0</ele><time>2026-05-01T14:53:28.727Z</time></trkpt><trkpt lat="43.5191417" lon="10.6251133"><ele>172.0</ele><time>2026-05-01T14:53:29.726Z</time></trkpt><trkpt lat="43.5189883" lon="10.62527"><ele>172.0</ele><time>2026-05-01T14:53:30.727Z</time></trkpt><trkpt lat="43.5188433" lon="10.6254383"><ele>171.0</ele><time>2026-05-01T14:53:31.727Z</time></trkpt><trkpt lat="43.5187" lon="10.6256383"><ele>170.0</ele><time>2026-05-01T14:53:32.728Z</time></trkpt><trkpt lat="43.5185667" lon="10.6258467"><ele>169.0</ele><time>2026-05-01T14:53:33.727Z</time></trkpt><trkpt lat="43.5184483" lon="10.626055"><ele>167.66666666666669</ele><time>2026-05-01T14:53:34.728Z</time></trkpt><trkpt lat="43.5183417" lon="10.6262583"><ele>166.33333333333334</ele><time>2026-05-01T14:53:35.729Z</time></trkpt><trkpt lat="43.5182483" lon="10.626455"><ele>165.0</ele><time>2026-05-01T14:53:36.726Z</time></trkpt><trkpt lat="43.51816" lon="10.62663"><ele>165.0</ele><time>2026-05-01T14:53:37.728Z</time></trkpt><trkpt lat="43.51807" lon="10.6267833"><ele>165.0</ele><time>2026-05-01T14:53:38.729Z</time></trkpt><trkpt lat="43.5179717" lon="10.6269083"><ele>165.0</ele><time>2026-05-01T14:53:39.728Z</time></trkpt><trkpt lat="43.5178533" lon="10.627005"><ele>165.0</ele><time>2026-05-01T14:53:40.728Z</time></trkpt><trkpt lat="43.517735" lon="10.627075"><ele>163.5</ele><time>2026-05-01T14:53:41.729Z</time></trkpt><trkpt lat="43.517625" lon="10.6271617"><ele>162.0</ele><time>2026-05-01T14:53:42.727Z</time></trkpt><trkpt lat="43.5175333" lon="10.6272867"><ele>160.5</ele><time>2026-05-01T14:53:43.727Z</time></trkpt><trkpt lat="43.51745" lon="10.627435"><ele>159.0</ele><time>2026-05-01T14:53:44.729Z</time></trkpt><trkpt lat="43.517365" lon="10.627595"><ele>159.0</ele><time>2026-05-01T14:53:45.728Z</time></trkpt><trkpt lat="43.5172633" lon="10.62774"><ele>159.0</ele><time>2026-05-01T14:53:46.727Z</time></trkpt><trkpt lat="43.5171533" lon="10.62787"><ele>159.0</ele><time>2026-05-01T14:53:47.728Z</time></trkpt><trkpt lat="43.5170283" lon="10.6279717"><ele>159.0</ele><time>2026-05-01T14:53:48.727Z</time></trkpt><trkpt lat="43.5169017" lon="10.628055"><ele>158.25</ele><time>2026-05-01T14:53:49.728Z</time></trkpt><trkpt lat="43.51678" lon="10.62814"><ele>157.5</ele><time>2026-05-01T14:53:50.729Z</time></trkpt><trkpt lat="43.516665" lon="10.6282317"><ele>156.75</ele><time>2026-05-01T14:53:51.728Z</time></trkpt><trkpt lat="43.5165617" lon="10.6283217"><ele>156.0</ele><time>2026-05-01T14:53:52.727Z</time></trkpt><trkpt lat="43.5164683" lon="10.6284083"><ele>156.0</ele><time>2026-05-01T14:53:53.729Z</time></trkpt><trkpt lat="43.5163833" lon="10.6284967"><ele>156.0</ele><time>2026-05-01T14:53:54.727Z</time></trkpt><trkpt lat="43.5163083" lon="10.62859"><ele>156.0</ele><time>2026-05-01T14:53:55.728Z</time></trkpt><trkpt lat="43.5162433" lon="10.6287067"><ele>156.0</ele><time>2026-05-01T14:53:56.728Z</time></trkpt><trkpt lat="43.5161967" lon="10.628845"><ele>156.0</ele><time>2026-05-01T14:53:57.727Z</time></trkpt><trkpt lat="43.5161767" lon="10.6289933"><ele>156.0</ele><time>2026-05-01T14:53:58.727Z</time></trkpt><trkpt lat="43.51617" lon="10.6291417"><ele>156.0</ele><time>2026-05-01T14:53:59.726Z</time></trkpt><trkpt lat="43.5161683" lon="10.6292817"><ele>156.0</ele><time>2026-05-01T14:54:00.727Z</time></trkpt><trkpt lat="43.51615" lon="10.6294183"><ele>156.0</ele><time>2026-05-01T14:54:01.729Z</time></trkpt><trkpt lat="43.5161133" lon="10.6295467"><ele>156.0</ele><time>2026-05-01T14:54:02.727Z</time></trkpt><trkpt lat="43.5160483" lon="10.6296683"><ele>154.2</ele><time>2026-05-01T14:54:03.729Z</time></trkpt><trkpt lat="43.5159717" lon="10.6297867"><ele>152.39999999999998</ele><time>2026-05-01T14:54:04.729Z</time></trkpt><trkpt lat="43.5159" lon="10.6298917"><ele>150.6</ele><time>2026-05-01T14:54:05.728Z</time></trkpt><trkpt lat="43.515825" lon="10.6299717"><ele>148.79999999999998</ele><time>2026-05-01T14:54:06.727Z</time></trkpt><trkpt lat="43.5157383" lon="10.6300267"><ele>147.0</ele><time>2026-05-01T14:54:07.727Z</time></trkpt><trkpt lat="43.515645" lon="10.6300483"><ele>147.0</ele><time>2026-05-01T14:54:08.729Z</time></trkpt><trkpt lat="43.5155533" lon="10.6300483"><ele>147.0</ele><time>2026-05-01T14:54:09.726Z</time></trkpt><trkpt lat="43.5154567" lon="10.6300433"><ele>147.0</ele><time>2026-05-01T14:54:10.728Z</time></trkpt><trkpt lat="43.5153667" lon="10.6300517"><ele>147.0</ele><time>2026-05-01T14:54:11.727Z</time></trkpt><trkpt lat="43.5152833" lon="10.63008"><ele>147.0</ele><time>2026-05-01T14:54:12.726Z</time></trkpt><trkpt lat="43.5152067" lon="10.6301283"><ele>147.0</ele><time>2026-05-01T14:54:13.726Z</time></trkpt><trkpt lat="43.5151467" lon="10.6301883"><ele>146.2</ele><time>2026-05-01T14:54:14.728Z</time></trkpt><trkpt lat="43.5151283" lon="10.6303467"><ele>145.39999999999998</ele><time>2026-05-01T14:54:15.728Z</time></trkpt><trkpt lat="43.5151233" lon="10.63049"><ele>144.60000000000002</ele><time>2026-05-01T14:54:16.728Z</time></trkpt><trkpt lat="43.51515" lon="10.630635"><ele>143.8</ele><time>2026-05-01T14:54:17.727Z</time></trkpt><trkpt lat="43.5151783" lon="10.630775"><ele>143.0</ele><time>2026-05-01T14:54:18.727Z</time></trkpt><trkpt lat="43.515215" lon="10.6309067"><ele>143.0</ele><time>2026-05-01T14:54:19.729Z</time></trkpt><trkpt lat="43.5152417" lon="10.6310317"><ele>143.0</ele><time>2026-05-01T14:54:20.728Z</time></trkpt><trkpt lat="43.515245" lon="10.63115"><ele>143.0</ele><time>2026-05-01T14:54:21.726Z</time></trkpt><trkpt lat="43.5152267" lon="10.6312683"><ele>143.0</ele><time>2026-05-01T14:54:22.727Z</time></trkpt><trkpt lat="43.515165" lon="10.6313483"><ele>143.0</ele><time>2026-05-01T14:54:23.728Z</time></trkpt><trkpt lat="43.51509" lon="10.6314067"><ele>143.0</ele><time>2026-05-01T14:54:24.727Z</time></trkpt><trkpt lat="43.515005" lon="10.6314233"><ele>143.4</ele><time>2026-05-01T14:54:25.727Z</time></trkpt><trkpt lat="43.5149067" lon="10.6313767"><ele>143.8</ele><time>2026-05-01T14:54:26.727Z</time></trkpt><trkpt lat="43.5148117" lon="10.6313133"><ele>144.2</ele><time>2026-05-01T14:54:27.727Z</time></trkpt><trkpt lat="43.514715" lon="10.6312517"><ele>144.6</ele><time>2026-05-01T14:54:28.728Z</time></trkpt><trkpt lat="43.514615" lon="10.6311933"><ele>145.0</ele><time>2026-05-01T14:54:29.728Z</time></trkpt><trkpt lat="43.5145117" lon="10.63114"><ele>145.0</ele><time>2026-05-01T14:54:30.727Z</time></trkpt><trkpt lat="43.5144017" lon="10.6310967"><ele>145.0</ele><time>2026-05-01T14:54:31.729Z</time></trkpt><trkpt lat="43.51428" lon="10.63109"><ele>145.0</ele><time>2026-05-01T14:54:32.728Z</time></trkpt><trkpt lat="43.5141583" lon="10.63112"><ele>145.0</ele><time>2026-05-01T14:54:33.729Z</time></trkpt><trkpt lat="43.51402" lon="10.6312017"><ele>141.33333333333334</ele><time>2026-05-01T14:54:34.727Z</time></trkpt><trkpt lat="43.5138733" lon="10.6313233"><ele>137.66666666666666</ele><time>2026-05-01T14:54:35.728Z</time></trkpt><trkpt lat="43.5137167" lon="10.6314533"><ele>134.0</ele><time>2026-05-01T14:54:36.727Z</time></trkpt><trkpt lat="43.51357" lon="10.6315933"><ele>134.0</ele><time>2026-05-01T14:54:37.727Z</time></trkpt><trkpt lat="43.5134333" lon="10.63173"><ele>134.0</ele><time>2026-05-01T14:54:38.728Z</time></trkpt><trkpt lat="43.5132967" lon="10.63184"><ele>134.0</ele><time>2026-05-01T14:54:39.727Z</time></trkpt><trkpt lat="43.5131633" lon="10.631905"><ele>134.0</ele><time>2026-05-01T14:54:40.728Z</time></trkpt><trkpt lat="43.5130383" lon="10.6319167"><ele>134.0</ele><time>2026-05-01T14:54:41.728Z</time></trkpt><trkpt lat="43.5129267" lon="10.6318683"><ele>134.0</ele><time>2026-05-01T14:54:42.727Z</time></trkpt><trkpt lat="43.5128367" lon="10.6317533"><ele>134.0</ele><time>2026-05-01T14:54:43.728Z</time></trkpt><trkpt lat="43.51274" lon="10.6316483"><ele>133.25</ele><time>2026-05-01T14:54:44.729Z</time></trkpt><trkpt lat="43.5126383" lon="10.631585"><ele>132.5</ele><time>2026-05-01T14:54:45.727Z</time></trkpt><trkpt lat="43.5125267" lon="10.63158"><ele>131.75</ele><time>2026-05-01T14:54:46.727Z</time></trkpt><trkpt lat="43.5124167" lon="10.631635"><ele>131.0</ele><time>2026-05-01T14:54:47.727Z</time></trkpt><trkpt lat="43.512295" lon="10.6317233"><ele>131.0</ele><time>2026-05-01T14:54:48.728Z</time></trkpt><trkpt lat="43.512155" lon="10.63183"><ele>131.0</ele><time>2026-05-01T14:54:49.727Z</time></trkpt><trkpt lat="43.5120083" lon="10.6319383"><ele>131.0</ele><time>2026-05-01T14:54:50.729Z</time></trkpt><trkpt lat="43.51187" lon="10.6320683"><ele>130.0</ele><time>2026-05-01T14:54:51.728Z</time></trkpt><trkpt lat="43.5117367" lon="10.6322067"><ele>129.0</ele><time>2026-05-01T14:54:52.728Z</time></trkpt><trkpt lat="43.5116033" lon="10.6323417"><ele>128.0</ele><time>2026-05-01T14:54:53.728Z</time></trkpt><trkpt lat="43.5114733" lon="10.6324517"><ele>128.0</ele><time>2026-05-01T14:54:54.728Z</time></trkpt><trkpt lat="43.51136" lon="10.632555"><ele>128.0</ele><time>2026-05-01T14:54:55.73Z</time></trkpt><trkpt lat="43.511275" lon="10.63267"><ele>128.0</ele><time>2026-05-01T14:54:56.728Z</time></trkpt><trkpt lat="43.51122" lon="10.6328167"><ele>128.0</ele><time>2026-05-01T14:54:57.728Z</time></trkpt><trkpt lat="43.5112033" lon="10.6329883"><ele>128.0</ele><time>2026-05-01T14:54:58.728Z</time></trkpt><trkpt lat="43.5112317" lon="10.633185"><ele>128.0</ele><time>2026-05-01T14:54:59.727Z</time></trkpt><trkpt lat="43.5113" lon="10.6333967"><ele>128.0</ele><time>2026-05-01T14:55:00.728Z</time></trkpt><trkpt lat="43.5113967" lon="10.6335983"><ele>130.33333333333331</ele><time>2026-05-01T14:55:01.727Z</time></trkpt><trkpt lat="43.5115083" lon="10.6337833"><ele>132.66666666666666</ele><time>2026-05-01T14:55:02.729Z</time></trkpt><trkpt lat="43.5116083" lon="10.6339583"><ele>135.0</ele><time>2026-05-01T14:55:03.728Z</time></trkpt><trkpt lat="43.5116817" lon="10.6341267"><ele>135.0</ele><time>2026-05-01T14:55:04.728Z</time></trkpt><trkpt lat="43.5117283" lon="10.6342933"><ele>135.0</ele><time>2026-05-01T14:55:05.726Z</time></trkpt><trkpt lat="43.5117417" lon="10.6344533"><ele>135.0</ele><time>2026-05-01T14:55:06.727Z</time></trkpt><trkpt lat="43.5117183" lon="10.6346017"><ele>135.0</ele><time>2026-05-01T14:55:07.728Z</time></trkpt><trkpt lat="43.511655" lon="10.6347383"><ele>135.75</ele><time>2026-05-01T14:55:08.728Z</time></trkpt><trkpt lat="43.5115567" lon="10.6348533"><ele>136.5</ele><time>2026-05-01T14:55:09.727Z</time></trkpt><trkpt lat="43.51143" lon="10.6349467"><ele>137.25</ele><time>2026-05-01T14:55:10.728Z</time></trkpt><trkpt lat="43.5112767" lon="10.63505"><ele>138.0</ele><time>2026-05-01T14:55:11.727Z</time></trkpt><trkpt lat="43.511125" lon="10.635145"><ele>139.0</ele><time>2026-05-01T14:55:12.726Z</time></trkpt><trkpt lat="43.510975" lon="10.6352267"><ele>140.0</ele><time>2026-05-01T14:55:13.726Z</time></trkpt><trkpt lat="43.5108267" lon="10.6352767"><ele>141.0</ele><time>2026-05-01T14:55:14.727Z</time></trkpt><trkpt lat="43.510675" lon="10.6352983"><ele>141.0</ele><time>2026-05-01T14:55:15.727Z</time></trkpt><trkpt lat="43.5105183" lon="10.63527"><ele>141.0</ele><time>2026-05-01T14:55:16.728Z</time></trkpt><trkpt lat="43.51036" lon="10.6352233"><ele>141.0</ele><time>2026-05-01T14:55:17.727Z</time></trkpt><trkpt lat="43.5102017" lon="10.6351567"><ele>140.33333333333334</ele><time>2026-05-01T14:55:18.727Z</time></trkpt><trkpt lat="43.5100483" lon="10.63508"><ele>139.66666666666669</ele><time>2026-05-01T14:55:19.727Z</time></trkpt><trkpt lat="43.5099" lon="10.63499"><ele>139.0</ele><time>2026-05-01T14:55:20.728Z</time></trkpt><trkpt lat="43.50976" lon="10.6348883"><ele>139.0</ele><time>2026-05-01T14:55:21.728Z</time></trkpt><trkpt lat="43.5096233" lon="10.6347683"><ele>139.0</ele><time>2026-05-01T14:55:22.727Z</time></trkpt><trkpt lat="43.5094883" lon="10.6346383"><ele>139.0</ele><time>2026-05-01T14:55:23.727Z</time></trkpt><trkpt lat="43.509355" lon="10.6345017"><ele>140.33333333333334</ele><time>2026-05-01T14:55:24.727Z</time></trkpt><trkpt lat="43.5092167" lon="10.6343633"><ele>141.66666666666666</ele><time>2026-05-01T14:55:25.727Z</time></trkpt><trkpt lat="43.50908" lon="10.63423"><ele>143.0</ele><time>2026-05-01T14:55:26.727Z</time></trkpt><trkpt lat="43.5089483" lon="10.6340967"><ele>143.0</ele><time>2026-05-01T14:55:27.726Z</time></trkpt><trkpt lat="43.5088233" lon="10.633955"><ele>143.0</ele><time>2026-05-01T14:55:28.726Z</time></trkpt><trkpt lat="43.5087133" lon="10.6338033"><ele>143.0</ele><time>2026-05-01T14:55:29.727Z</time></trkpt><trkpt lat="43.50862" lon="10.6336417"><ele>143.0</ele><time>2026-05-01T14:55:30.727Z</time></trkpt><trkpt lat="43.5085383" lon="10.6334717"><ele>143.0</ele><time>2026-05-01T14:55:31.726Z</time></trkpt><trkpt lat="43.5084683" lon="10.63332"><ele>143.0</ele><time>2026-05-01T14:55:32.726Z</time></trkpt><trkpt lat="43.508395" lon="10.633205"><ele>143.0</ele><time>2026-05-01T14:55:33.727Z</time></trkpt><trkpt lat="43.5083117" lon="10.6331333"><ele>143.0</ele><time>2026-05-01T14:55:34.727Z</time></trkpt><trkpt lat="43.508235" lon="10.6331033"><ele>143.0</ele><time>2026-05-01T14:55:35.727Z</time></trkpt><trkpt lat="43.5081417" lon="10.6331133"><ele>143.0</ele><time>2026-05-01T14:55:36.727Z</time></trkpt><trkpt lat="43.5080533" lon="10.63314"><ele>143.0</ele><time>2026-05-01T14:55:37.727Z</time></trkpt><trkpt lat="43.5079667" lon="10.6331933"><ele>143.0</ele><time>2026-05-01T14:55:38.727Z</time></trkpt><trkpt lat="43.50786" lon="10.6332467"><ele>141.8</ele><time>2026-05-01T14:55:39.727Z</time></trkpt><trkpt lat="43.50775" lon="10.6332667"><ele>140.60000000000002</ele><time>2026-05-01T14:55:40.726Z</time></trkpt><trkpt lat="43.50766" lon="10.6332333"><ele>139.39999999999998</ele><time>2026-05-01T14:55:41.726Z</time></trkpt><trkpt lat="43.5075967" lon="10.6331467"><ele>138.2</ele><time>2026-05-01T14:55:42.726Z</time></trkpt><trkpt lat="43.5075483" lon="10.6330067"><ele>137.0</ele><time>2026-05-01T14:55:43.726Z</time></trkpt><trkpt lat="43.50749" lon="10.6328567"><ele>137.75</ele><time>2026-05-01T14:55:44.727Z</time></trkpt><trkpt lat="43.5074167" lon="10.6327033"><ele>138.5</ele><time>2026-05-01T14:55:45.727Z</time></trkpt><trkpt lat="43.5073167" lon="10.6325717"><ele>139.25</ele><time>2026-05-01T14:55:46.725Z</time></trkpt><trkpt lat="43.5071983" lon="10.63246"><ele>140.0</ele><time>2026-05-01T14:55:47.727Z</time></trkpt><trkpt lat="43.5070617" lon="10.6323733"><ele>140.0</ele><time>2026-05-01T14:55:48.727Z</time></trkpt><trkpt lat="43.50691" lon="10.632315"><ele>140.0</ele><time>2026-05-01T14:55:49.728Z</time></trkpt><trkpt lat="43.506755" lon="10.6322667"><ele>140.0</ele><time>2026-05-01T14:55:50.728Z</time></trkpt><trkpt lat="43.5065967" lon="10.6322233"><ele>140.0</ele><time>2026-05-01T14:55:51.727Z</time></trkpt><trkpt lat="43.506435" lon="10.6321783"><ele>140.0</ele><time>2026-05-01T14:55:52.727Z</time></trkpt><trkpt lat="43.506275" lon="10.6321433"><ele>140.0</ele><time>2026-05-01T14:55:53.729Z</time></trkpt><trkpt lat="43.5061167" lon="10.6321217"><ele>140.0</ele><time>2026-05-01T14:55:54.726Z</time></trkpt><trkpt lat="43.50596" lon="10.63213"><ele>140.0</ele><time>2026-05-01T14:55:55.726Z</time></trkpt><trkpt lat="43.50581" lon="10.6321667"><ele>140.0</ele><time>2026-05-01T14:55:56.727Z</time></trkpt><trkpt lat="43.5056617" lon="10.6322367"><ele>140.0</ele><time>2026-05-01T14:55:57.727Z</time></trkpt><trkpt lat="43.505525" lon="10.6323"><ele>140.0</ele><time>2026-05-01T14:55:58.726Z</time></trkpt><trkpt lat="43.5053983" lon="10.6323667"><ele>140.0</ele><time>2026-05-01T14:55:59.727Z</time></trkpt><trkpt lat="43.5052883" lon="10.6324333"><ele>140.0</ele><time>2026-05-01T14:56:00.727Z</time></trkpt><trkpt lat="43.5051933" lon="10.6324883"><ele>141.4</ele><time>2026-05-01T14:56:01.726Z</time></trkpt><trkpt lat="43.5051233" lon="10.6325417"><ele>142.8</ele><time>2026-05-01T14:56:02.728Z</time></trkpt><trkpt lat="43.5050833" lon="10.6326433"><ele>144.2</ele><time>2026-05-01T14:56:03.727Z</time></trkpt><trkpt lat="43.505075" lon="10.63282"><ele>145.6</ele><time>2026-05-01T14:56:04.727Z</time></trkpt><trkpt lat="43.5050983" lon="10.6330217"><ele>147.0</ele><time>2026-05-01T14:56:05.727Z</time></trkpt><trkpt lat="43.50513" lon="10.6332417"><ele>147.66666666666666</ele><time>2026-05-01T14:56:06.727Z</time></trkpt><trkpt lat="43.5051583" lon="10.6334617"><ele>148.33333333333331</ele><time>2026-05-01T14:56:07.726Z</time></trkpt><trkpt lat="43.5051667" lon="10.6336717"><ele>149.0</ele><time>2026-05-01T14:56:08.728Z</time></trkpt><trkpt lat="43.5051483" lon="10.633885"><ele>149.0</ele><time>2026-05-01T14:56:09.727Z</time></trkpt><trkpt lat="43.5051183" lon="10.6341"><ele>149.0</ele><time>2026-05-01T14:56:10.728Z</time></trkpt><trkpt lat="43.505105" lon="10.6343217"><ele>149.0</ele><time>2026-05-01T14:56:11.728Z</time></trkpt><trkpt lat="43.5051233" lon="10.6345467"><ele>150.0</ele><time>2026-05-01T14:56:12.726Z</time></trkpt><trkpt lat="43.5051717" lon="10.63475"><ele>151.0</ele><time>2026-05-01T14:56:13.727Z</time></trkpt><trkpt lat="43.5052217" lon="10.6349333"><ele>152.0</ele><time>2026-05-01T14:56:14.727Z</time></trkpt><trkpt lat="43.50525" lon="10.635105"><ele>153.0</ele><time>2026-05-01T14:56:15.727Z</time></trkpt><trkpt lat="43.50524" lon="10.635285"><ele>154.0</ele><time>2026-05-01T14:56:16.727Z</time></trkpt><trkpt lat="43.50521" lon="10.6354683"><ele>155.0</ele><time>2026-05-01T14:56:17.727Z</time></trkpt><trkpt lat="43.5051783" lon="10.6356433"><ele>156.0</ele><time>2026-05-01T14:56:18.728Z</time></trkpt><trkpt lat="43.5051717" lon="10.6358233"><ele>157.0</ele><time>2026-05-01T14:56:19.728Z</time></trkpt><trkpt lat="43.5052233" lon="10.6359967"><ele>157.5</ele><time>2026-05-01T14:56:20.727Z</time></trkpt><trkpt lat="43.505285" lon="10.6361567"><ele>158.0</ele><time>2026-05-01T14:56:21.728Z</time></trkpt><trkpt lat="43.5053683" lon="10.636305"><ele>158.5</ele><time>2026-05-01T14:56:22.727Z</time></trkpt><trkpt lat="43.505425" lon="10.6364633"><ele>159.0</ele><time>2026-05-01T14:56:23.728Z</time></trkpt><trkpt lat="43.5054333" lon="10.6366183"><ele>159.0</ele><time>2026-05-01T14:56:24.728Z</time></trkpt><trkpt lat="43.5053983" lon="10.6367567"><ele>159.0</ele><time>2026-05-01T14:56:25.727Z</time></trkpt><trkpt lat="43.50534" lon="10.6368483"><ele>159.0</ele><time>2026-05-01T14:56:26.728Z</time></trkpt><trkpt lat="43.50527" lon="10.6368917"><ele>159.0</ele><time>2026-05-01T14:56:27.728Z</time></trkpt><trkpt lat="43.5051967" lon="10.6368667"><ele>159.0</ele><time>2026-05-01T14:56:28.728Z</time></trkpt><trkpt lat="43.5051317" lon="10.636775"><ele>159.0</ele><time>2026-05-01T14:56:29.727Z</time></trkpt><trkpt lat="43.5050883" lon="10.63664"><ele>159.0</ele><time>2026-05-01T14:56:30.727Z</time></trkpt><trkpt lat="43.5050533" lon="10.6364783"><ele>159.0</ele><time>2026-05-01T14:56:31.727Z</time></trkpt><trkpt lat="43.5049983" lon="10.6362917"><ele>159.0</ele><time>2026-05-01T14:56:32.726Z</time></trkpt><trkpt lat="43.5049217" lon="10.6361133"><ele>159.0</ele><time>2026-05-01T14:56:33.727Z</time></trkpt><trkpt lat="43.504825" lon="10.6359467"><ele>158.33333333333334</ele><time>2026-05-01T14:56:34.729Z</time></trkpt><trkpt lat="43.5047067" lon="10.6357867"><ele>157.66666666666669</ele><time>2026-05-01T14:56:35.728Z</time></trkpt><trkpt lat="43.5045817" lon="10.6356317"><ele>157.0</ele><time>2026-05-01T14:56:36.727Z</time></trkpt><trkpt lat="43.5044667" lon="10.6354867"><ele>159.5</ele><time>2026-05-01T14:56:37.728Z</time></trkpt><trkpt lat="43.5043583" lon="10.6353633"><ele>162.0</ele><time>2026-05-01T14:56:38.728Z</time></trkpt><trkpt lat="43.5042583" lon="10.6352783"><ele>164.5</ele><time>2026-05-01T14:56:39.727Z</time></trkpt><trkpt lat="43.5041617" lon="10.63524"><ele>167.0</ele><time>2026-05-01T14:56:40.727Z</time></trkpt><trkpt lat="43.5040683" lon="10.63526"><ele>167.0</ele><time>2026-05-01T14:56:41.728Z</time></trkpt><trkpt lat="43.5039917" lon="10.6353433"><ele>167.0</ele><time>2026-05-01T14:56:42.727Z</time></trkpt><trkpt lat="43.5039233" lon="10.6354617"><ele>167.0</ele><time>2026-05-01T14:56:43.727Z</time></trkpt><trkpt lat="43.5038817" lon="10.63564"><ele>167.0</ele><time>2026-05-01T14:56:44.729Z</time></trkpt><trkpt lat="43.50384" lon="10.63582"><ele>167.0</ele><time>2026-05-01T14:56:45.727Z</time></trkpt><trkpt lat="43.50378" lon="10.6359783"><ele>167.0</ele><time>2026-05-01T14:56:46.727Z</time></trkpt><trkpt lat="43.503695" lon="10.6361117"><ele>167.0</ele><time>2026-05-01T14:56:47.728Z</time></trkpt><trkpt lat="43.5035867" lon="10.6362267"><ele>167.0</ele><time>2026-05-01T14:56:48.727Z</time></trkpt><trkpt lat="43.50346" lon="10.6363367"><ele>168.25</ele><time>2026-05-01T14:56:49.727Z</time></trkpt><trkpt lat="43.503335" lon="10.6364367"><ele>169.5</ele><time>2026-05-01T14:56:50.727Z</time></trkpt><trkpt lat="43.5032083" lon="10.6365183"><ele>170.75</ele><time>2026-05-01T14:56:51.726Z</time></trkpt><trkpt lat="43.5030983" lon="10.6365783"><ele>172.0</ele><time>2026-05-01T14:56:52.728Z</time></trkpt><trkpt lat="43.5030033" lon="10.6366133"><ele>172.0</ele><time>2026-05-01T14:56:53.727Z</time></trkpt><trkpt lat="43.5029217" lon="10.6366367"><ele>172.0</ele><time>2026-05-01T14:56:54.727Z</time></trkpt><trkpt lat="43.5028417" lon="10.636745"><ele>172.0</ele><time>2026-05-01T14:56:56.728Z</time></trkpt><trkpt lat="43.5028233" lon="10.6368467"><ele>172.0</ele><time>2026-05-01T14:56:57.727Z</time></trkpt><trkpt lat="43.5028067" lon="10.636955"><ele>172.0</ele><time>2026-05-01T14:56:58.726Z</time></trkpt><trkpt lat="43.5027917" lon="10.6370917"><ele>173.0</ele><time>2026-05-01T14:56:59.728Z</time></trkpt><trkpt lat="43.5027983" lon="10.637275"><ele>174.0</ele><time>2026-05-01T14:57:00.727Z</time></trkpt><trkpt lat="43.5028317" lon="10.63745"><ele>175.0</ele><time>2026-05-01T14:57:01.728Z</time></trkpt><trkpt lat="43.5029" lon="10.6376333"><ele>176.0</ele><time>2026-05-01T14:57:02.728Z</time></trkpt><trkpt lat="43.5029833" lon="10.6378233"><ele>171.0</ele><time>2026-05-01T14:57:03.726Z</time></trkpt><trkpt lat="43.503075" lon="10.6380233"><ele>166.0</ele><time>2026-05-01T14:57:04.728Z</time></trkpt><trkpt lat="43.5031717" lon="10.6382233"><ele>161.0</ele><time>2026-05-01T14:57:05.728Z</time></trkpt><trkpt lat="43.503275" lon="10.638415"><ele>161.0</ele><time>2026-05-01T14:57:06.728Z</time></trkpt><trkpt lat="43.50337" lon="10.6386083"><ele>161.0</ele><time>2026-05-01T14:57:07.728Z</time></trkpt><trkpt lat="43.5034717" lon="10.6387967"><ele>161.0</ele><time>2026-05-01T14:57:08.728Z</time></trkpt><trkpt lat="43.5035633" lon="10.63898"><ele>159.0</ele><time>2026-05-01T14:57:09.727Z</time></trkpt><trkpt lat="43.5036517" lon="10.6391617"><ele>157.0</ele><time>2026-05-01T14:57:10.728Z</time></trkpt><trkpt lat="43.5037483" lon="10.6393267"><ele>155.0</ele><time>2026-05-01T14:57:11.728Z</time></trkpt><trkpt lat="43.5038667" lon="10.6394517"><ele>150.33333333333331</ele><time>2026-05-01T14:57:12.728Z</time></trkpt><trkpt lat="43.504" lon="10.6395333"><ele>145.66666666666666</ele><time>2026-05-01T14:57:13.728Z</time></trkpt><trkpt lat="43.504145" lon="10.6395967"><ele>141.0</ele><time>2026-05-01T14:57:14.728Z</time></trkpt><trkpt lat="43.5042967" lon="10.63966"><ele>141.0</ele><time>2026-05-01T14:57:15.727Z</time></trkpt><trkpt lat="43.50444" lon="10.63976"><ele>141.0</ele><time>2026-05-01T14:57:16.727Z</time></trkpt><trkpt lat="43.5045717" lon="10.6399067"><ele>141.0</ele><time>2026-05-01T14:57:17.728Z</time></trkpt><trkpt lat="43.5046933" lon="10.6400867"><ele>139.0</ele><time>2026-05-01T14:57:18.728Z</time></trkpt><trkpt lat="43.504805" lon="10.640285"><ele>137.0</ele><time>2026-05-01T14:57:19.727Z</time></trkpt><trkpt lat="43.50491" lon="10.6404917"><ele>135.0</ele><time>2026-05-01T14:57:20.728Z</time></trkpt><trkpt lat="43.5050083" lon="10.64069"><ele>134.0</ele><time>2026-05-01T14:57:21.727Z</time></trkpt><trkpt lat="43.505105" lon="10.6408767"><ele>133.0</ele><time>2026-05-01T14:57:22.728Z</time></trkpt><trkpt lat="43.5051967" lon="10.6410383"><ele>132.0</ele><time>2026-05-01T14:57:23.727Z</time></trkpt><trkpt lat="43.5053067" lon="10.6411683"><ele>130.75</ele><time>2026-05-01T14:57:24.727Z</time></trkpt><trkpt lat="43.5054317" lon="10.64124"><ele>129.5</ele><time>2026-05-01T14:57:25.728Z</time></trkpt><trkpt lat="43.5055633" lon="10.6412617"><ele>128.25</ele><time>2026-05-01T14:57:26.728Z</time></trkpt><trkpt lat="43.50568" lon="10.6412383"><ele>127.0</ele><time>2026-05-01T14:57:27.728Z</time></trkpt><trkpt lat="43.50579" lon="10.6411083"><ele>127.0</ele><time>2026-05-01T14:57:28.728Z</time></trkpt><trkpt lat="43.50588" lon="10.6409333"><ele>127.0</ele><time>2026-05-01T14:57:29.728Z</time></trkpt><trkpt lat="43.50597" lon="10.6407667"><ele>127.0</ele><time>2026-05-01T14:57:30.728Z</time></trkpt><trkpt lat="43.506075" lon="10.64065"><ele>127.0</ele><time>2026-05-01T14:57:31.727Z</time></trkpt><trkpt lat="43.5061967" lon="10.6405967"><ele>125.5</ele><time>2026-05-01T14:57:32.728Z</time></trkpt><trkpt lat="43.5063267" lon="10.6406133"><ele>124.0</ele><time>2026-05-01T14:57:33.729Z</time></trkpt><trkpt lat="43.5064583" lon="10.64069"><ele>122.5</ele><time>2026-05-01T14:57:34.728Z</time></trkpt><trkpt lat="43.506605" lon="10.6408067"><ele>121.0</ele><time>2026-05-01T14:57:35.728Z</time></trkpt><trkpt lat="43.50675" lon="10.640935"><ele>121.0</ele><time>2026-05-01T14:57:36.728Z</time></trkpt><trkpt lat="43.5068883" lon="10.64107"><ele>121.0</ele><time>2026-05-01T14:57:37.728Z</time></trkpt><trkpt lat="43.50701" lon="10.6412367"><ele>121.0</ele><time>2026-05-01T14:57:38.727Z</time></trkpt><trkpt lat="43.5071233" lon="10.6414283"><ele>118.33333333333334</ele><time>2026-05-01T14:57:39.728Z</time></trkpt><trkpt lat="43.50723" lon="10.6416367"><ele>115.66666666666666</ele><time>2026-05-01T14:57:40.728Z</time></trkpt><trkpt lat="43.5073383" lon="10.6418533"><ele>113.0</ele><time>2026-05-01T14:57:41.727Z</time></trkpt><trkpt lat="43.5074533" lon="10.6420783"><ele>112.33333333333333</ele><time>2026-05-01T14:57:42.727Z</time></trkpt><trkpt lat="43.5075733" lon="10.6423033"><ele>111.66666666666666</ele><time>2026-05-01T14:57:43.726Z</time></trkpt><trkpt lat="43.5076917" lon="10.6425283"><ele>111.0</ele><time>2026-05-01T14:57:44.727Z</time></trkpt><trkpt lat="43.5078117" lon="10.64276"><ele>110.0</ele><time>2026-05-01T14:57:45.729Z</time></trkpt><trkpt lat="43.50793" lon="10.6429917"><ele>109.0</ele><time>2026-05-01T14:57:46.728Z</time></trkpt><trkpt lat="43.5080517" lon="10.643225"><ele>108.0</ele><time>2026-05-01T14:57:47.728Z</time></trkpt><trkpt lat="43.5081733" lon="10.6434483"><ele>107.66666666666666</ele><time>2026-05-01T14:57:48.729Z</time></trkpt><trkpt lat="43.508295" lon="10.643675"><ele>107.33333333333333</ele><time>2026-05-01T14:57:49.728Z</time></trkpt><trkpt lat="43.5084167" lon="10.6439067"><ele>107.0</ele><time>2026-05-01T14:57:50.728Z</time></trkpt><trkpt lat="43.50854" lon="10.6441417"><ele>107.0</ele><time>2026-05-01T14:57:51.728Z</time></trkpt><trkpt lat="43.50866" lon="10.6443633"><ele>107.0</ele><time>2026-05-01T14:57:52.728Z</time></trkpt><trkpt lat="43.5087767" lon="10.6445883"><ele>107.0</ele><time>2026-05-01T14:57:53.728Z</time></trkpt><trkpt lat="43.5088867" lon="10.6448283"><ele>107.0</ele><time>2026-05-01T14:57:54.727Z</time></trkpt><trkpt lat="43.5089933" lon="10.6450783"><ele>107.0</ele><time>2026-05-01T14:57:55.728Z</time></trkpt><trkpt lat="43.5090867" lon="10.645325"><ele>107.0</ele><time>2026-05-01T14:57:56.728Z</time></trkpt><trkpt lat="43.509175" lon="10.6455783"><ele>106.66666666666666</ele><time>2026-05-01T14:57:57.727Z</time></trkpt><trkpt lat="43.5092583" lon="10.645835"><ele>106.33333333333334</ele><time>2026-05-01T14:57:58.727Z</time></trkpt><trkpt lat="43.5093383" lon="10.6460967"><ele>106.0</ele><time>2026-05-01T14:57:59.728Z</time></trkpt><trkpt lat="43.5094167" lon="10.6463617"><ele>104.66666666666667</ele><time>2026-05-01T14:58:00.728Z</time></trkpt><trkpt lat="43.509495" lon="10.646625"><ele>103.33333333333334</ele><time>2026-05-01T14:58:01.728Z</time></trkpt><trkpt lat="43.5095717" lon="10.6468817"><ele>102.0</ele><time>2026-05-01T14:58:02.728Z</time></trkpt><trkpt lat="43.50965" lon="10.647135"><ele>102.0</ele><time>2026-05-01T14:58:03.728Z</time></trkpt><trkpt lat="43.5097367" lon="10.6473817"><ele>102.0</ele><time>2026-05-01T14:58:04.726Z</time></trkpt><trkpt lat="43.50983" lon="10.647625"><ele>102.0</ele><time>2026-05-01T14:58:05.728Z</time></trkpt><trkpt lat="43.5099333" lon="10.6478617"><ele>102.33333333333334</ele><time>2026-05-01T14:58:06.728Z</time></trkpt><trkpt lat="43.5100517" lon="10.6480867"><ele>102.66666666666667</ele><time>2026-05-01T14:58:07.727Z</time></trkpt><trkpt lat="43.5101917" lon="10.6482933"><ele>103.0</ele><time>2026-05-01T14:58:08.728Z</time></trkpt><trkpt lat="43.5103417" lon="10.64849"><ele>101.33333333333334</ele><time>2026-05-01T14:58:09.727Z</time></trkpt><trkpt lat="43.5104967" lon="10.6486867"><ele>99.66666666666666</ele><time>2026-05-01T14:58:10.728Z</time></trkpt><trkpt lat="43.510645" lon="10.6488833"><ele>98.0</ele><time>2026-05-01T14:58:11.729Z</time></trkpt><trkpt lat="43.510785" lon="10.649105"><ele>98.0</ele><time>2026-05-01T14:58:12.727Z</time></trkpt><trkpt lat="43.5109083" lon="10.6493433"><ele>98.0</ele><time>2026-05-01T14:58:13.726Z</time></trkpt><trkpt lat="43.5110133" lon="10.6495883"><ele>98.0</ele><time>2026-05-01T14:58:14.728Z</time></trkpt><trkpt lat="43.5111017" lon="10.6498433"><ele>98.0</ele><time>2026-05-01T14:58:15.726Z</time></trkpt><trkpt lat="43.5111767" lon="10.6500967"><ele>98.0</ele><time>2026-05-01T14:58:16.728Z</time></trkpt><trkpt lat="43.5112517" lon="10.6503483"><ele>98.0</ele><time>2026-05-01T14:58:17.728Z</time></trkpt><trkpt lat="43.5113267" lon="10.6505967"><ele>94.0</ele><time>2026-05-01T14:58:18.728Z</time></trkpt><trkpt lat="43.5113967" lon="10.650845"><ele>90.0</ele><time>2026-05-01T14:58:19.727Z</time></trkpt><trkpt lat="43.5114633" lon="10.6510817"><ele>86.0</ele><time>2026-05-01T14:58:20.726Z</time></trkpt><trkpt lat="43.5115267" lon="10.6513033"><ele>86.0</ele><time>2026-05-01T14:58:21.728Z</time></trkpt><trkpt lat="43.5115867" lon="10.6515117"><ele>86.0</ele><time>2026-05-01T14:58:22.729Z</time></trkpt><trkpt lat="43.5116367" lon="10.6516967"><ele>86.0</ele><time>2026-05-01T14:58:23.728Z</time></trkpt><trkpt lat="43.5116733" lon="10.6518533"><ele>86.0</ele><time>2026-05-01T14:58:24.727Z</time></trkpt><trkpt lat="43.5117033" lon="10.6519933"><ele>86.0</ele><time>2026-05-01T14:58:25.727Z</time></trkpt><trkpt lat="43.511735" lon="10.652135"><ele>86.0</ele><time>2026-05-01T14:58:26.728Z</time></trkpt><trkpt lat="43.51178" lon="10.652305"><ele>86.0</ele><time>2026-05-01T14:58:27.728Z</time></trkpt><trkpt lat="43.51184" lon="10.6525133"><ele>86.0</ele><time>2026-05-01T14:58:28.727Z</time></trkpt><trkpt lat="43.511895" lon="10.6527617"><ele>85.0</ele><time>2026-05-01T14:58:29.728Z</time></trkpt><trkpt lat="43.511945" lon="10.6530233"><ele>84.0</ele><time>2026-05-01T14:58:30.728Z</time></trkpt><trkpt lat="43.5120017" lon="10.6532933"><ele>83.0</ele><time>2026-05-01T14:58:31.729Z</time></trkpt><trkpt lat="43.51206" lon="10.6535483"><ele>81.0</ele><time>2026-05-01T14:58:32.728Z</time></trkpt><trkpt lat="43.5121233" lon="10.6537917"><ele>79.0</ele><time>2026-05-01T14:58:33.727Z</time></trkpt><trkpt lat="43.51219" lon="10.653985"><ele>77.0</ele><time>2026-05-01T14:58:34.728Z</time></trkpt><trkpt lat="43.5122633" lon="10.6541433"><ele>77.0</ele><time>2026-05-01T14:58:35.729Z</time></trkpt><trkpt lat="43.5123433" lon="10.6542783"><ele>77.0</ele><time>2026-05-01T14:58:36.726Z</time></trkpt><trkpt lat="43.51244" lon="10.6544133"><ele>77.0</ele><time>2026-05-01T14:58:37.727Z</time></trkpt><trkpt lat="43.512555" lon="10.65454"><ele>77.0</ele><time>2026-05-01T14:58:38.726Z</time></trkpt><trkpt lat="43.512685" lon="10.654645"><ele>76.33333333333334</ele><time>2026-05-01T14:58:39.727Z</time></trkpt><trkpt lat="43.5128267" lon="10.6547467"><ele>75.66666666666667</ele><time>2026-05-01T14:58:40.726Z</time></trkpt><trkpt lat="43.51298" lon="10.65485"><ele>75.0</ele><time>2026-05-01T14:58:41.727Z</time></trkpt><trkpt lat="43.513135" lon="10.6549567"><ele>74.66666666666667</ele><time>2026-05-01T14:58:42.728Z</time></trkpt><trkpt lat="43.513295" lon="10.6550583"><ele>74.33333333333334</ele><time>2026-05-01T14:58:43.728Z</time></trkpt><trkpt lat="43.5134567" lon="10.6551667"><ele>74.0</ele><time>2026-05-01T14:58:44.727Z</time></trkpt><trkpt lat="43.5136183" lon="10.655275"><ele>73.33333333333334</ele><time>2026-05-01T14:58:45.728Z</time></trkpt><trkpt lat="43.5137833" lon="10.6553867"><ele>72.66666666666667</ele><time>2026-05-01T14:58:46.727Z</time></trkpt><trkpt lat="43.513945" lon="10.6555017"><ele>72.0</ele><time>2026-05-01T14:58:47.728Z</time></trkpt><trkpt lat="43.514105" lon="10.65561"><ele>72.0</ele><time>2026-05-01T14:58:48.728Z</time></trkpt><trkpt lat="43.51426" lon="10.6557233"><ele>72.0</ele><time>2026-05-01T14:58:49.727Z</time></trkpt><trkpt lat="43.51441" lon="10.6558533"><ele>72.0</ele><time>2026-05-01T14:58:50.728Z</time></trkpt><trkpt lat="43.5145467" lon="10.6560083"><ele>72.0</ele><time>2026-05-01T14:58:51.728Z</time></trkpt><trkpt lat="43.514675" lon="10.65618"><ele>72.0</ele><time>2026-05-01T14:58:52.727Z</time></trkpt><trkpt lat="43.5147917" lon="10.6563667"><ele>72.0</ele><time>2026-05-01T14:58:53.727Z</time></trkpt><trkpt lat="43.5148983" lon="10.6565683"><ele>72.0</ele><time>2026-05-01T14:58:54.728Z</time></trkpt><trkpt lat="43.5150017" lon="10.656785"><ele>72.0</ele><time>2026-05-01T14:58:55.728Z</time></trkpt><trkpt lat="43.51509" lon="10.657015"><ele>72.0</ele><time>2026-05-01T14:58:56.726Z</time></trkpt><trkpt lat="43.51517" lon="10.6572517"><ele>71.33333333333333</ele><time>2026-05-01T14:58:57.727Z</time></trkpt><trkpt lat="43.5152533" lon="10.6574867"><ele>70.66666666666666</ele><time>2026-05-01T14:58:58.727Z</time></trkpt><trkpt lat="43.5153367" lon="10.65772"><ele>70.0</ele><time>2026-05-01T14:58:59.728Z</time></trkpt><trkpt lat="43.5154217" lon="10.6579517"><ele>69.66666666666666</ele><time>2026-05-01T14:59:00.729Z</time></trkpt><trkpt lat="43.5154983" lon="10.658175"><ele>69.33333333333333</ele><time>2026-05-01T14:59:01.727Z</time></trkpt><trkpt lat="43.5155717" lon="10.6583867"><ele>69.0</ele><time>2026-05-01T14:59:02.726Z</time></trkpt><trkpt lat="43.5156483" lon="10.658585"><ele>70.0</ele><time>2026-05-01T14:59:03.728Z</time></trkpt><trkpt lat="43.5157333" lon="10.6587667"><ele>71.0</ele><time>2026-05-01T14:59:04.728Z</time></trkpt><trkpt lat="43.5158433" lon="10.658925"><ele>72.0</ele><time>2026-05-01T14:59:05.727Z</time></trkpt><trkpt lat="43.5159767" lon="10.6590567"><ele>72.0</ele><time>2026-05-01T14:59:06.726Z</time></trkpt><trkpt lat="43.51613" lon="10.65914"><ele>72.0</ele><time>2026-05-01T14:59:07.728Z</time></trkpt><trkpt lat="43.5162967" lon="10.6591917"><ele>72.0</ele><time>2026-05-01T14:59:08.728Z</time></trkpt><trkpt lat="43.5164717" lon="10.6592017"><ele>73.0</ele><time>2026-05-01T14:59:09.727Z</time></trkpt><trkpt lat="43.516645" lon="10.65918"><ele>74.0</ele><time>2026-05-01T14:59:10.728Z</time></trkpt><trkpt lat="43.5168183" lon="10.6591083"><ele>75.0</ele><time>2026-05-01T14:59:11.726Z</time></trkpt><trkpt lat="43.5169933" lon="10.659015"><ele>75.0</ele><time>2026-05-01T14:59:12.728Z</time></trkpt><trkpt lat="43.5171617" lon="10.6589017"><ele>75.0</ele><time>2026-05-01T14:59:13.727Z</time></trkpt><trkpt lat="43.517325" lon="10.6587767"><ele>75.0</ele><time>2026-05-01T14:59:14.727Z</time></trkpt><trkpt lat="43.5174867" lon="10.6586133"><ele>75.0</ele><time>2026-05-01T14:59:15.728Z</time></trkpt><trkpt lat="43.51764" lon="10.658435"><ele>75.0</ele><time>2026-05-01T14:59:16.726Z</time></trkpt><trkpt lat="43.5177833" lon="10.6582467"><ele>75.0</ele><time>2026-05-01T14:59:17.728Z</time></trkpt><trkpt lat="43.5179117" lon="10.658045"><ele>75.0</ele><time>2026-05-01T14:59:18.728Z</time></trkpt><trkpt lat="43.5180267" lon="10.657845"><ele>75.0</ele><time>2026-05-01T14:59:19.729Z</time></trkpt><trkpt lat="43.5181267" lon="10.6576433"><ele>75.0</ele><time>2026-05-01T14:59:20.728Z</time></trkpt><trkpt lat="43.51822" lon="10.65744"><ele>75.0</ele><time>2026-05-01T14:59:21.728Z</time></trkpt><trkpt lat="43.5183167" lon="10.6572317"><ele>75.0</ele><time>2026-05-01T14:59:22.727Z</time></trkpt><trkpt lat="43.5184183" lon="10.65704"><ele>75.0</ele><time>2026-05-01T14:59:23.727Z</time></trkpt><trkpt lat="43.5185333" lon="10.6568717"><ele>74.66666666666667</ele><time>2026-05-01T14:59:24.728Z</time></trkpt><trkpt lat="43.51867" lon="10.656735"><ele>74.33333333333334</ele><time>2026-05-01T14:59:25.728Z</time></trkpt><trkpt lat="43.5188217" lon="10.65665"><ele>74.0</ele><time>2026-05-01T14:59:26.728Z</time></trkpt><trkpt lat="43.51898" lon="10.6566167"><ele>74.0</ele><time>2026-05-01T14:59:27.727Z</time></trkpt><trkpt lat="43.5191333" lon="10.65663"><ele>74.0</ele><time>2026-05-01T14:59:28.727Z</time></trkpt><trkpt lat="43.5192817" lon="10.6566817"><ele>74.0</ele><time>2026-05-01T14:59:29.728Z</time></trkpt><trkpt lat="43.5194017" lon="10.6567933"><ele>74.0</ele><time>2026-05-01T14:59:30.727Z</time></trkpt><trkpt lat="43.5195067" lon="10.656945"><ele>74.0</ele><time>2026-05-01T14:59:31.728Z</time></trkpt><trkpt lat="43.51959" lon="10.6571283"><ele>74.0</ele><time>2026-05-01T14:59:32.728Z</time></trkpt><trkpt lat="43.5196383" lon="10.6573283"><ele>74.33333333333334</ele><time>2026-05-01T14:59:33.727Z</time></trkpt><trkpt lat="43.519655" lon="10.6575367"><ele>74.66666666666667</ele><time>2026-05-01T14:59:34.726Z</time></trkpt><trkpt lat="43.5196383" lon="10.657755"><ele>75.0</ele><time>2026-05-01T14:59:35.728Z</time></trkpt><trkpt lat="43.51961" lon="10.6579817"><ele>76.0</ele><time>2026-05-01T14:59:36.728Z</time></trkpt><trkpt lat="43.5195733" lon="10.6582133"><ele>77.0</ele><time>2026-05-01T14:59:37.727Z</time></trkpt><trkpt lat="43.5195367" lon="10.6584433"><ele>78.0</ele><time>2026-05-01T14:59:38.728Z</time></trkpt><trkpt lat="43.5195033" lon="10.658675"><ele>83.0</ele><time>2026-05-01T14:59:39.728Z</time></trkpt><trkpt lat="43.51948" lon="10.6589017"><ele>88.0</ele><time>2026-05-01T14:59:40.727Z</time></trkpt><trkpt lat="43.5194783" lon="10.65915"><ele>93.0</ele><time>2026-05-01T14:59:41.729Z</time></trkpt><trkpt lat="43.5194917" lon="10.65942"><ele>94.33333333333334</ele><time>2026-05-01T14:59:42.728Z</time></trkpt><trkpt lat="43.5195083" lon="10.6596917"><ele>95.66666666666667</ele><time>2026-05-01T14:59:43.727Z</time></trkpt><trkpt lat="43.5195117" lon="10.6599517"><ele>97.0</ele><time>2026-05-01T14:59:44.728Z</time></trkpt><trkpt lat="43.519495" lon="10.6602067"><ele>98.33333333333334</ele><time>2026-05-01T14:59:45.727Z</time></trkpt><trkpt lat="43.5194567" lon="10.6604483"><ele>99.66666666666666</ele><time>2026-05-01T14:59:46.728Z</time></trkpt><trkpt lat="43.5194" lon="10.6606817"><ele>101.0</ele><time>2026-05-01T14:59:47.728Z</time></trkpt><trkpt lat="43.51933" lon="10.660905"><ele>103.33333333333333</ele><time>2026-05-01T14:59:48.727Z</time></trkpt><trkpt lat="43.5192517" lon="10.6611283"><ele>105.66666666666666</ele><time>2026-05-01T14:59:49.728Z</time></trkpt><trkpt lat="43.5191817" lon="10.66135"><ele>108.0</ele><time>2026-05-01T14:59:50.727Z</time></trkpt><trkpt lat="43.5191283" lon="10.661575"><ele>108.0</ele><time>2026-05-01T14:59:51.727Z</time></trkpt><trkpt lat="43.5191033" lon="10.6618033"><ele>108.0</ele><time>2026-05-01T14:59:52.728Z</time></trkpt><trkpt lat="43.5191133" lon="10.6620417"><ele>108.0</ele><time>2026-05-01T14:59:53.728Z</time></trkpt><trkpt lat="43.5191567" lon="10.6622783"><ele>111.33333333333334</ele><time>2026-05-01T14:59:54.728Z</time></trkpt><trkpt lat="43.5192317" lon="10.6624983"><ele>114.66666666666667</ele><time>2026-05-01T14:59:55.728Z</time></trkpt><trkpt lat="43.5193383" lon="10.6626783"><ele>118.0</ele><time>2026-05-01T14:59:56.728Z</time></trkpt><trkpt lat="43.5194633" lon="10.6628233"><ele>116.0</ele><time>2026-05-01T14:59:57.726Z</time></trkpt><trkpt lat="43.51958" lon="10.66296"><ele>114.0</ele><time>2026-05-01T14:59:58.729Z</time></trkpt><trkpt lat="43.5196733" lon="10.6631183"><ele>112.0</ele><time>2026-05-01T14:59:59.727Z</time></trkpt><trkpt lat="43.519735" lon="10.6633067"><ele>112.0</ele><time>2026-05-01T15:00:00.728Z</time></trkpt><trkpt lat="43.519765" lon="10.6635"><ele>112.0</ele><time>2026-05-01T15:00:01.728Z</time></trkpt><trkpt lat="43.51974" lon="10.66371"><ele>112.0</ele><time>2026-05-01T15:00:02.729Z</time></trkpt><trkpt lat="43.5197083" lon="10.6639267"><ele>115.0</ele><time>2026-05-01T15:00:03.727Z</time></trkpt><trkpt lat="43.5197033" lon="10.664155"><ele>118.0</ele><time>2026-05-01T15:00:04.726Z</time></trkpt><trkpt lat="43.51973" lon="10.6643783"><ele>121.0</ele><time>2026-05-01T15:00:05.727Z</time></trkpt><trkpt lat="43.519765" lon="10.6645933"><ele>122.33333333333334</ele><time>2026-05-01T15:00:06.727Z</time></trkpt><trkpt lat="43.5197933" lon="10.6648067"><ele>123.66666666666666</ele><time>2026-05-01T15:00:07.727Z</time></trkpt><trkpt lat="43.5197967" lon="10.6650367"><ele>125.0</ele><time>2026-05-01T15:00:08.728Z</time></trkpt><trkpt lat="43.5197867" lon="10.6652783"><ele>125.33333333333333</ele><time>2026-05-01T15:00:09.727Z</time></trkpt><trkpt lat="43.51978" lon="10.6655233"><ele>125.66666666666666</ele><time>2026-05-01T15:00:10.727Z</time></trkpt><trkpt lat="43.5198" lon="10.6657533"><ele>126.0</ele><time>2026-05-01T15:00:11.728Z</time></trkpt><trkpt lat="43.5198417" lon="10.6659583"><ele>126.5</ele><time>2026-05-01T15:00:12.728Z</time></trkpt><trkpt lat="43.5199017" lon="10.6661467"><ele>127.0</ele><time>2026-05-01T15:00:13.728Z</time></trkpt><trkpt lat="43.5199867" lon="10.666315"><ele>127.5</ele><time>2026-05-01T15:00:14.729Z</time></trkpt><trkpt lat="43.5200933" lon="10.6664633"><ele>128.0</ele><time>2026-05-01T15:00:15.729Z</time></trkpt><trkpt lat="43.5202117" lon="10.6666117"><ele>128.0</ele><time>2026-05-01T15:00:16.728Z</time></trkpt><trkpt lat="43.520325" lon="10.66677"><ele>128.0</ele><time>2026-05-01T15:00:17.728Z</time></trkpt><trkpt lat="43.5204083" lon="10.6669483"><ele>128.0</ele><time>2026-05-01T15:00:18.727Z</time></trkpt><trkpt lat="43.5204567" lon="10.6671517"><ele>128.66666666666666</ele><time>2026-05-01T15:00:19.729Z</time></trkpt><trkpt lat="43.5204733" lon="10.6673633"><ele>129.33333333333334</ele><time>2026-05-01T15:00:20.727Z</time></trkpt><trkpt lat="43.5204583" lon="10.6675867"><ele>130.0</ele><time>2026-05-01T15:00:21.728Z</time></trkpt><trkpt lat="43.5204367" lon="10.667815"><ele>132.0</ele><time>2026-05-01T15:00:22.727Z</time></trkpt><trkpt lat="43.52042" lon="10.6680467"><ele>134.0</ele><time>2026-05-01T15:00:23.727Z</time></trkpt><trkpt lat="43.5204267" lon="10.6682783"><ele>136.0</ele><time>2026-05-01T15:00:24.726Z</time></trkpt><trkpt lat="43.5204633" lon="10.6684967"><ele>138.33333333333334</ele><time>2026-05-01T15:00:25.727Z</time></trkpt><trkpt lat="43.5205217" lon="10.6687067"><ele>140.66666666666666</ele><time>2026-05-01T15:00:26.727Z</time></trkpt><trkpt lat="43.5205917" lon="10.6689017"><ele>143.0</ele><time>2026-05-01T15:00:27.729Z</time></trkpt><trkpt lat="43.5206683" lon="10.6690817"><ele>143.0</ele><time>2026-05-01T15:00:28.728Z</time></trkpt><trkpt lat="43.5207417" lon="10.66925"><ele>143.0</ele><time>2026-05-01T15:00:29.728Z</time></trkpt><trkpt lat="43.52081" lon="10.6694117"><ele>143.0</ele><time>2026-05-01T15:00:30.729Z</time></trkpt><trkpt lat="43.52087" lon="10.6695633"><ele>143.0</ele><time>2026-05-01T15:00:31.728Z</time></trkpt><trkpt lat="43.520915" lon="10.6697183"><ele>145.25</ele><time>2026-05-01T15:00:32.726Z</time></trkpt><trkpt lat="43.5209467" lon="10.6698833"><ele>147.5</ele><time>2026-05-01T15:00:33.727Z</time></trkpt><trkpt lat="43.520955" lon="10.6700683"><ele>149.75</ele><time>2026-05-01T15:00:34.726Z</time></trkpt><trkpt lat="43.5209417" lon="10.6702633"><ele>152.0</ele><time>2026-05-01T15:00:35.726Z</time></trkpt><trkpt lat="43.5209133" lon="10.6704617"><ele>155.0</ele><time>2026-05-01T15:00:36.727Z</time></trkpt><trkpt lat="43.5208683" lon="10.670665"><ele>158.0</ele><time>2026-05-01T15:00:37.726Z</time></trkpt><trkpt lat="43.5208133" lon="10.6708633"><ele>161.0</ele><time>2026-05-01T15:00:38.728Z</time></trkpt><trkpt lat="43.5207383" lon="10.6710517"><ele>161.33333333333331</ele><time>2026-05-01T15:00:39.726Z</time></trkpt><trkpt lat="43.5206383" lon="10.6712317"><ele>161.66666666666666</ele><time>2026-05-01T15:00:40.727Z</time></trkpt><trkpt lat="43.52052" lon="10.6713917"><ele>162.0</ele><time>2026-05-01T15:00:41.727Z</time></trkpt><trkpt lat="43.520385" lon="10.6715383"><ele>162.0</ele><time>2026-05-01T15:00:42.728Z</time></trkpt><trkpt lat="43.5202483" lon="10.67167"><ele>162.0</ele><time>2026-05-01T15:00:43.728Z</time></trkpt><trkpt lat="43.5201167" lon="10.6717983"><ele>162.0</ele><time>2026-05-01T15:00:44.728Z</time></trkpt><trkpt lat="43.5199933" lon="10.6719367"><ele>166.33333333333334</ele><time>2026-05-01T15:00:45.726Z</time></trkpt><trkpt lat="43.5198967" lon="10.6720933"><ele>170.66666666666669</ele><time>2026-05-01T15:00:46.726Z</time></trkpt><trkpt lat="43.5198233" lon="10.6722667"><ele>175.0</ele><time>2026-05-01T15:00:47.726Z</time></trkpt><trkpt lat="43.519785" lon="10.6724817"><ele>175.0</ele><time>2026-05-01T15:00:48.727Z</time></trkpt><trkpt lat="43.519765" lon="10.6727083"><ele>175.0</ele><time>2026-05-01T15:00:49.727Z</time></trkpt><trkpt lat="43.519745" lon="10.6729433"><ele>175.0</ele><time>2026-05-01T15:00:50.727Z</time></trkpt><trkpt lat="43.519735" lon="10.6731733"><ele>174.75</ele><time>2026-05-01T15:00:51.727Z</time></trkpt><trkpt lat="43.5197317" lon="10.67338"><ele>174.5</ele><time>2026-05-01T15:00:52.727Z</time></trkpt><trkpt lat="43.5197417" lon="10.6735767"><ele>174.25</ele><time>2026-05-01T15:00:53.728Z</time></trkpt><trkpt lat="43.519785" lon="10.6737567"><ele>174.0</ele><time>2026-05-01T15:00:54.727Z</time></trkpt><trkpt lat="43.519865" lon="10.6739133"><ele>170.66666666666666</ele><time>2026-05-01T15:00:55.727Z</time></trkpt><trkpt lat="43.5199633" lon="10.6740583"><ele>167.33333333333331</ele><time>2026-05-01T15:00:56.727Z</time></trkpt><trkpt lat="43.52009" lon="10.6741867"><ele>164.0</ele><time>2026-05-01T15:00:57.726Z</time></trkpt><trkpt lat="43.5202333" lon="10.6743083"><ele>164.0</ele><time>2026-05-01T15:00:58.728Z</time></trkpt><trkpt lat="43.52038" lon="10.674425"><ele>164.0</ele><time>2026-05-01T15:00:59.727Z</time></trkpt><trkpt lat="43.5205283" lon="10.6745367"><ele>164.0</ele><time>2026-05-01T15:01:00.728Z</time></trkpt><trkpt lat="43.52067" lon="10.674635"><ele>164.25</ele><time>2026-05-01T15:01:01.727Z</time></trkpt><trkpt lat="43.5207983" lon="10.6747317"><ele>164.5</ele><time>2026-05-01T15:01:02.726Z</time></trkpt><trkpt lat="43.5209183" lon="10.674825"><ele>164.75</ele><time>2026-05-01T15:01:03.726Z</time></trkpt><trkpt lat="43.5210433" lon="10.6749033"><ele>165.0</ele><time>2026-05-01T15:01:04.727Z</time></trkpt><trkpt lat="43.5211667" lon="10.6749717"><ele>163.0</ele><time>2026-05-01T15:01:05.728Z</time></trkpt><trkpt lat="43.521295" lon="10.6750417"><ele>161.0</ele><time>2026-05-01T15:01:06.727Z</time></trkpt><trkpt lat="43.5214267" lon="10.67513"><ele>159.0</ele><time>2026-05-01T15:01:07.727Z</time></trkpt><trkpt lat="43.52156" lon="10.6752283"><ele>157.0</ele><time>2026-05-01T15:01:08.727Z</time></trkpt><trkpt lat="43.5216833" lon="10.6753617"><ele>157.0</ele><time>2026-05-01T15:01:09.728Z</time></trkpt><trkpt lat="43.5218017" lon="10.6755017"><ele>157.0</ele><time>2026-05-01T15:01:10.726Z</time></trkpt><trkpt lat="43.5219317" lon="10.6756233"><ele>157.0</ele><time>2026-05-01T15:01:11.726Z</time></trkpt><trkpt lat="43.5220317" lon="10.675755"><ele>158.0</ele><time>2026-05-01T15:01:12.727Z</time></trkpt><trkpt lat="43.52212" lon="10.67588"><ele>159.0</ele><time>2026-05-01T15:01:13.727Z</time></trkpt><trkpt lat="43.5222" lon="10.6760017"><ele>160.0</ele><time>2026-05-01T15:01:14.727Z</time></trkpt><trkpt lat="43.5222783" lon="10.6761033"><ele>161.0</ele><time>2026-05-01T15:01:15.727Z</time></trkpt><trkpt lat="43.522365" lon="10.6761983"><ele>161.0</ele><time>2026-05-01T15:01:16.727Z</time></trkpt><trkpt lat="43.522465" lon="10.676295"><ele>161.0</ele><time>2026-05-01T15:01:17.728Z</time></trkpt><trkpt lat="43.5225817" lon="10.6763783"><ele>161.0</ele><time>2026-05-01T15:01:18.726Z</time></trkpt><trkpt lat="43.5227083" lon="10.67645"><ele>161.0</ele><time>2026-05-01T15:01:19.727Z</time></trkpt><trkpt lat="43.52283" lon="10.6765333"><ele>162.75</ele><time>2026-05-01T15:01:20.727Z</time></trkpt><trkpt lat="43.52295" lon="10.6766217"><ele>164.5</ele><time>2026-05-01T15:01:21.727Z</time></trkpt><trkpt lat="43.52307" lon="10.67671"><ele>166.25</ele><time>2026-05-01T15:01:22.729Z</time></trkpt><trkpt lat="43.5231933" lon="10.676775"><ele>168.0</ele><time>2026-05-01T15:01:23.728Z</time></trkpt><trkpt lat="43.52331" lon="10.6768433"><ele>168.0</ele><time>2026-05-01T15:01:24.727Z</time></trkpt><trkpt lat="43.5234117" lon="10.6769233"><ele>168.0</ele><time>2026-05-01T15:01:25.727Z</time></trkpt><trkpt lat="43.5234917" lon="10.677025"><ele>168.0</ele><time>2026-05-01T15:01:26.728Z</time></trkpt><trkpt lat="43.5235383" lon="10.6771633"><ele>168.0</ele><time>2026-05-01T15:01:27.728Z</time></trkpt><trkpt lat="43.5235617" lon="10.6773267"><ele>162.33333333333334</ele><time>2026-05-01T15:01:28.729Z</time></trkpt><trkpt lat="43.5235783" lon="10.677525"><ele>156.66666666666669</ele><time>2026-05-01T15:01:29.727Z</time></trkpt><trkpt lat="43.523595" lon="10.6777267"><ele>151.0</ele><time>2026-05-01T15:01:30.727Z</time></trkpt><trkpt lat="43.5236217" lon="10.6779567"><ele>147.66666666666669</ele><time>2026-05-01T15:01:31.726Z</time></trkpt><trkpt lat="43.5236483" lon="10.6781833"><ele>144.33333333333334</ele><time>2026-05-01T15:01:32.727Z</time></trkpt><trkpt lat="43.5236733" lon="10.6784217"><ele>141.0</ele><time>2026-05-01T15:01:33.727Z</time></trkpt><trkpt lat="43.5237067" lon="10.6786483"><ele>149.66666666666666</ele><time>2026-05-01T15:01:34.728Z</time></trkpt><trkpt lat="43.523735" lon="10.678885"><ele>158.33333333333331</ele><time>2026-05-01T15:01:35.726Z</time></trkpt><trkpt lat="43.5237583" lon="10.679125"><ele>167.0</ele><time>2026-05-01T15:01:36.726Z</time></trkpt><trkpt lat="43.52378" lon="10.679355"><ele>165.5</ele><time>2026-05-01T15:01:37.727Z</time></trkpt><trkpt lat="43.5238017" lon="10.6795717"><ele>164.0</ele><time>2026-05-01T15:01:38.729Z</time></trkpt><trkpt lat="43.5238233" lon="10.6797767"><ele>162.5</ele><time>2026-05-01T15:01:39.727Z</time></trkpt><trkpt lat="43.5238583" lon="10.6799583"><ele>161.0</ele><time>2026-05-01T15:01:40.729Z</time></trkpt><trkpt lat="43.5239067" lon="10.6801183"><ele>161.0</ele><time>2026-05-01T15:01:41.727Z</time></trkpt><trkpt lat="43.5239867" lon="10.6802617"><ele>161.0</ele><time>2026-05-01T15:01:42.727Z</time></trkpt><trkpt lat="43.5240917" lon="10.6803917"><ele>161.0</ele><time>2026-05-01T15:01:43.727Z</time></trkpt><trkpt lat="43.524185" lon="10.6805267"><ele>161.0</ele><time>2026-05-01T15:01:44.728Z</time></trkpt><trkpt lat="43.5242717" lon="10.68068"><ele>157.25</ele><time>2026-05-01T15:01:45.726Z</time></trkpt><trkpt lat="43.5243383" lon="10.68085"><ele>153.5</ele><time>2026-05-01T15:01:46.727Z</time></trkpt><trkpt lat="43.5243683" lon="10.6810467"><ele>149.75</ele><time>2026-05-01T15:01:47.726Z</time></trkpt><trkpt lat="43.5243783" lon="10.6812667"><ele>146.0</ele><time>2026-05-01T15:01:48.727Z</time></trkpt><trkpt lat="43.524385" lon="10.6815"><ele>145.66666666666666</ele><time>2026-05-01T15:01:49.728Z</time></trkpt><trkpt lat="43.5243883" lon="10.6817417"><ele>145.33333333333334</ele><time>2026-05-01T15:01:50.728Z</time></trkpt><trkpt lat="43.5243933" lon="10.6819817"><ele>145.0</ele><time>2026-05-01T15:01:51.728Z</time></trkpt><trkpt lat="43.5244017" lon="10.6822117"><ele>145.0</ele><time>2026-05-01T15:01:52.727Z</time></trkpt><trkpt lat="43.5244183" lon="10.6824367"><ele>145.0</ele><time>2026-05-01T15:01:53.728Z</time></trkpt><trkpt lat="43.5244383" lon="10.6826483"><ele>145.0</ele><time>2026-05-01T15:01:54.728Z</time></trkpt><trkpt lat="43.5244617" lon="10.6828567"><ele>145.0</ele><time>2026-05-01T15:01:55.726Z</time></trkpt><trkpt lat="43.5244867" lon="10.683055"><ele>145.0</ele><time>2026-05-01T15:01:56.727Z</time></trkpt><trkpt lat="43.5245067" lon="10.68324"><ele>145.0</ele><time>2026-05-01T15:01:57.727Z</time></trkpt><trkpt lat="43.5245183" lon="10.6833967"><ele>145.0</ele><time>2026-05-01T15:01:58.726Z</time></trkpt><trkpt lat="43.5245267" lon="10.6835317"><ele>144.5</ele><time>2026-05-01T15:01:59.727Z</time></trkpt><trkpt lat="43.52453" lon="10.683655"><ele>144.0</ele><time>2026-05-01T15:02:00.727Z</time></trkpt><trkpt lat="43.5245267" lon="10.6837767"><ele>143.5</ele><time>2026-05-01T15:02:01.728Z</time></trkpt><trkpt lat="43.52452" lon="10.6839017"><ele>143.0</ele><time>2026-05-01T15:02:02.727Z</time></trkpt><trkpt lat="43.5245117" lon="10.6840217"><ele>142.5</ele><time>2026-05-01T15:02:03.727Z</time></trkpt><trkpt lat="43.5245" lon="10.6841383"><ele>142.0</ele><time>2026-05-01T15:02:04.727Z</time></trkpt><trkpt lat="43.5245017" lon="10.6842583"><ele>142.0</ele><time>2026-05-01T15:02:05.727Z</time></trkpt><trkpt lat="43.5245033" lon="10.68437"><ele>142.0</ele><time>2026-05-01T15:02:06.727Z</time></trkpt><trkpt lat="43.5245217" lon="10.6844683"><ele>142.0</ele><time>2026-05-01T15:02:07.728Z</time></trkpt><trkpt lat="43.524605" lon="10.684525"><ele>142.0</ele><time>2026-05-01T15:02:08.728Z</time></trkpt><trkpt lat="43.5246967" lon="10.6845733"><ele>142.0</ele><time>2026-05-01T15:02:09.728Z</time></trkpt><trkpt lat="43.5248067" lon="10.6845883"><ele>142.6</ele><time>2026-05-01T15:02:10.727Z</time></trkpt><trkpt lat="43.5249183" lon="10.6846167"><ele>143.2</ele><time>2026-05-01T15:02:11.728Z</time></trkpt><trkpt lat="43.52502" lon="10.6846583"><ele>143.8</ele><time>2026-05-01T15:02:12.726Z</time></trkpt><trkpt lat="43.5251083" lon="10.6847167"><ele>144.4</ele><time>2026-05-01T15:02:13.727Z</time></trkpt><trkpt lat="43.5251883" lon="10.684785"><ele>145.0</ele><time>2026-05-01T15:02:14.729Z</time></trkpt><trkpt lat="43.5252517" lon="10.6848917"><ele>145.0</ele><time>2026-05-01T15:02:15.726Z</time></trkpt><trkpt lat="43.5253017" lon="10.6850233"><ele>145.0</ele><time>2026-05-01T15:02:16.728Z</time></trkpt><trkpt lat="43.5253383" lon="10.6851767"><ele>145.0</ele><time>2026-05-01T15:02:17.728Z</time></trkpt><trkpt lat="43.5253717" lon="10.6853383"><ele>145.0</ele><time>2026-05-01T15:02:18.729Z</time></trkpt><trkpt lat="43.525405" lon="10.6855017"><ele>146.0</ele><time>2026-05-01T15:02:19.729Z</time></trkpt><trkpt lat="43.5254417" lon="10.6856633"><ele>147.0</ele><time>2026-05-01T15:02:20.727Z</time></trkpt><trkpt lat="43.5254867" lon="10.6858367"><ele>148.0</ele><time>2026-05-01T15:02:21.728Z</time></trkpt><trkpt lat="43.5255333" lon="10.686005"><ele>149.0</ele><time>2026-05-01T15:02:22.726Z</time></trkpt><trkpt lat="43.5255633" lon="10.6861817"><ele>146.0</ele><time>2026-05-01T15:02:23.727Z</time></trkpt><trkpt lat="43.525585" lon="10.686355"><ele>143.0</ele><time>2026-05-01T15:02:24.726Z</time></trkpt><trkpt lat="43.5256" lon="10.6865367"><ele>140.0</ele><time>2026-05-01T15:02:25.727Z</time></trkpt><trkpt lat="43.5255967" lon="10.6867283"><ele>137.0</ele><time>2026-05-01T15:02:26.728Z</time></trkpt><trkpt lat="43.5255817" lon="10.6869117"><ele>135.25</ele><time>2026-05-01T15:02:27.727Z</time></trkpt><trkpt lat="43.52555" lon="10.6870917"><ele>133.5</ele><time>2026-05-01T15:02:28.726Z</time></trkpt><trkpt lat="43.5255067" lon="10.68727"><ele>131.75</ele><time>2026-05-01T15:02:29.726Z</time></trkpt><trkpt lat="43.52545" lon="10.6874417"><ele>130.0</ele><time>2026-05-01T15:02:30.726Z</time></trkpt><trkpt lat="43.5253917" lon="10.68761"><ele>127.75</ele><time>2026-05-01T15:02:31.728Z</time></trkpt><trkpt lat="43.52534" lon="10.6877767"><ele>125.5</ele><time>2026-05-01T15:02:32.728Z</time></trkpt><trkpt lat="43.5252967" lon="10.6879383"><ele>123.25</ele><time>2026-05-01T15:02:33.728Z</time></trkpt><trkpt lat="43.5252583" lon="10.6881017"><ele>121.0</ele><time>2026-05-01T15:02:34.728Z</time></trkpt><trkpt lat="43.5252133" lon="10.6882733"><ele>121.0</ele><time>2026-05-01T15:02:35.726Z</time></trkpt><trkpt lat="43.52518" lon="10.6884483"><ele>121.0</ele><time>2026-05-01T15:02:36.727Z</time></trkpt><trkpt lat="43.52515" lon="10.68863"><ele>121.0</ele><time>2026-05-01T15:02:37.728Z</time></trkpt><trkpt lat="43.5251317" lon="10.6888067"><ele>121.0</ele><time>2026-05-01T15:02:38.728Z</time></trkpt><trkpt lat="43.5251083" lon="10.6889883"><ele>120.75</ele><time>2026-05-01T15:02:39.726Z</time></trkpt><trkpt lat="43.52509" lon="10.6891667"><ele>120.5</ele><time>2026-05-01T15:02:40.729Z</time></trkpt><trkpt lat="43.525065" lon="10.689345"><ele>120.25</ele><time>2026-05-01T15:02:41.728Z</time></trkpt><trkpt lat="43.5250317" lon="10.6895233"><ele>120.0</ele><time>2026-05-01T15:02:42.727Z</time></trkpt><trkpt lat="43.52501" lon="10.6896967"><ele>120.0</ele><time>2026-05-01T15:02:43.727Z</time></trkpt><trkpt lat="43.5249983" lon="10.6898717"><ele>120.0</ele><time>2026-05-01T15:02:44.728Z</time></trkpt><trkpt lat="43.5249917" lon="10.6900533"><ele>120.0</ele><time>2026-05-01T15:02:45.728Z</time></trkpt><trkpt lat="43.5250017" lon="10.69023"><ele>120.0</ele><time>2026-05-01T15:02:46.728Z</time></trkpt><trkpt lat="43.525025" lon="10.69041"><ele>119.0</ele><time>2026-05-01T15:02:47.728Z</time></trkpt><trkpt lat="43.525055" lon="10.69059"><ele>118.0</ele><time>2026-05-01T15:02:48.727Z</time></trkpt><trkpt lat="43.5250833" lon="10.6907717"><ele>117.0</ele><time>2026-05-01T15:02:49.727Z</time></trkpt><trkpt lat="43.5251067" lon="10.6909517"><ele>116.0</ele><time>2026-05-01T15:02:50.727Z</time></trkpt><trkpt lat="43.52513" lon="10.691135"><ele>114.5</ele><time>2026-05-01T15:02:51.727Z</time></trkpt><trkpt lat="43.5251617" lon="10.6913167"><ele>113.0</ele><time>2026-05-01T15:02:52.726Z</time></trkpt><trkpt lat="43.5252017" lon="10.6914917"><ele>111.5</ele><time>2026-05-01T15:02:53.728Z</time></trkpt><trkpt lat="43.5252517" lon="10.69165"><ele>110.0</ele><time>2026-05-01T15:02:54.727Z</time></trkpt><trkpt lat="43.5253033" lon="10.6918167"><ele>107.75</ele><time>2026-05-01T15:02:55.726Z</time></trkpt><trkpt lat="43.5253367" lon="10.6919883"><ele>105.5</ele><time>2026-05-01T15:02:56.729Z</time></trkpt><trkpt lat="43.5253617" lon="10.69217"><ele>103.25</ele><time>2026-05-01T15:02:57.727Z</time></trkpt><trkpt lat="43.52538" lon="10.6923617"><ele>101.0</ele><time>2026-05-01T15:02:58.727Z</time></trkpt><trkpt lat="43.525395" lon="10.69255"><ele>102.25</ele><time>2026-05-01T15:02:59.728Z</time></trkpt><trkpt lat="43.5254083" lon="10.6927283"><ele>103.5</ele><time>2026-05-01T15:03:00.728Z</time></trkpt><trkpt lat="43.5254183" lon="10.69291"><ele>104.75</ele><time>2026-05-01T15:03:01.727Z</time></trkpt><trkpt lat="43.5254267" lon="10.693095"><ele>106.0</ele><time>2026-05-01T15:03:02.728Z</time></trkpt><trkpt lat="43.5254433" lon="10.6932533"><ele>106.25</ele><time>2026-05-01T15:03:03.728Z</time></trkpt><trkpt lat="43.5254783" lon="10.6934017"><ele>106.5</ele><time>2026-05-01T15:03:04.727Z</time></trkpt><trkpt lat="43.5255333" lon="10.6935567"><ele>106.75</ele><time>2026-05-01T15:03:05.728Z</time></trkpt><trkpt lat="43.5255967" lon="10.6937083"><ele>107.0</ele><time>2026-05-01T15:03:06.727Z</time></trkpt><trkpt lat="43.52567" lon="10.693875"><ele>107.0</ele><time>2026-05-01T15:03:07.727Z</time></trkpt><trkpt lat="43.525745" lon="10.6940433"><ele>107.0</ele><time>2026-05-01T15:03:08.727Z</time></trkpt><trkpt lat="43.5258083" lon="10.6942083"><ele>107.0</ele><time>2026-05-01T15:03:09.727Z</time></trkpt><trkpt lat="43.52585" lon="10.694385"><ele>107.0</ele><time>2026-05-01T15:03:10.728Z</time></trkpt><trkpt lat="43.52587" lon="10.6945733"><ele>106.5</ele><time>2026-05-01T15:03:11.728Z</time></trkpt><trkpt lat="43.5258733" lon="10.6947517"><ele>106.0</ele><time>2026-05-01T15:03:12.727Z</time></trkpt><trkpt lat="43.525855" lon="10.6949183"><ele>105.5</ele><time>2026-05-01T15:03:13.73Z</time></trkpt><trkpt lat="43.5258083" lon="10.6950733"><ele>105.0</ele><time>2026-05-01T15:03:14.728Z</time></trkpt><trkpt lat="43.525745" lon="10.6952017"><ele>104.0</ele><time>2026-05-01T15:03:15.727Z</time></trkpt><trkpt lat="43.5256867" lon="10.6953167"><ele>103.0</ele><time>2026-05-01T15:03:16.728Z</time></trkpt><trkpt lat="43.525645" lon="10.6954417"><ele>102.0</ele><time>2026-05-01T15:03:17.727Z</time></trkpt><trkpt lat="43.5256433" lon="10.69558"><ele>101.0</ele><time>2026-05-01T15:03:18.728Z</time></trkpt><trkpt lat="43.5256717" lon="10.6957283"><ele>100.0</ele><time>2026-05-01T15:03:19.726Z</time></trkpt><trkpt lat="43.5257067" lon="10.6958817"><ele>100.0</ele><time>2026-05-01T15:03:20.729Z</time></trkpt><trkpt lat="43.52574" lon="10.6960533"><ele>100.0</ele><time>2026-05-01T15:03:21.728Z</time></trkpt><trkpt lat="43.5257567" lon="10.6962383"><ele>100.0</ele><time>2026-05-01T15:03:22.728Z</time></trkpt><trkpt lat="43.52575" lon="10.6964267"><ele>100.0</ele><time>2026-05-01T15:03:23.728Z</time></trkpt><trkpt lat="43.5257283" lon="10.6966183"><ele>98.75</ele><time>2026-05-01T15:03:24.729Z</time></trkpt><trkpt lat="43.5257" lon="10.6968017"><ele>97.5</ele><time>2026-05-01T15:03:25.728Z</time></trkpt><trkpt lat="43.525665" lon="10.6969783"><ele>96.25</ele><time>2026-05-01T15:03:26.729Z</time></trkpt><trkpt lat="43.5256133" lon="10.6971417"><ele>95.0</ele><time>2026-05-01T15:03:27.729Z</time></trkpt><trkpt lat="43.5255483" lon="10.6972883"><ele>94.5</ele><time>2026-05-01T15:03:28.729Z</time></trkpt><trkpt lat="43.5254817" lon="10.69743"><ele>94.0</ele><time>2026-05-01T15:03:29.728Z</time></trkpt><trkpt lat="43.525425" lon="10.6975867"><ele>93.5</ele><time>2026-05-01T15:03:30.728Z</time></trkpt><trkpt lat="43.5253967" lon="10.6977717"><ele>93.0</ele><time>2026-05-01T15:03:31.727Z</time></trkpt><trkpt lat="43.5253933" lon="10.697955"><ele>92.0</ele><time>2026-05-01T15:03:32.728Z</time></trkpt><trkpt lat="43.5254183" lon="10.69813"><ele>91.0</ele><time>2026-05-01T15:03:33.727Z</time></trkpt><trkpt lat="43.5254633" lon="10.698305"><ele>90.0</ele><time>2026-05-01T15:03:34.728Z</time></trkpt><trkpt lat="43.525495" lon="10.6984817"><ele>89.0</ele><time>2026-05-01T15:03:35.728Z</time></trkpt><trkpt lat="43.5255117" lon="10.698665"><ele>88.25</ele><time>2026-05-01T15:03:36.728Z</time></trkpt><trkpt lat="43.5255017" lon="10.6988517"><ele>87.5</ele><time>2026-05-01T15:03:37.728Z</time></trkpt><trkpt lat="43.52547" lon="10.699035"><ele>86.75</ele><time>2026-05-01T15:03:38.727Z</time></trkpt><trkpt lat="43.5254217" lon="10.6992033"><ele>86.0</ele><time>2026-05-01T15:03:39.728Z</time></trkpt><trkpt lat="43.5253567" lon="10.69935"><ele>81.2</ele><time>2026-05-01T15:03:40.727Z</time></trkpt><trkpt lat="43.5253133" lon="10.69948"><ele>76.39999999999999</ele><time>2026-05-01T15:03:41.728Z</time></trkpt><trkpt lat="43.525285" lon="10.6996083"><ele>71.6</ele><time>2026-05-01T15:03:42.728Z</time></trkpt><trkpt lat="43.525295" lon="10.6997383"><ele>66.8</ele><time>2026-05-01T15:03:43.726Z</time></trkpt><trkpt lat="43.52534" lon="10.69988"><ele>62.0</ele><time>2026-05-01T15:03:44.728Z</time></trkpt><trkpt lat="43.525395" lon="10.7000333"><ele>63.0</ele><time>2026-05-01T15:03:45.728Z</time></trkpt><trkpt lat="43.5254483" lon="10.7002"><ele>64.0</ele><time>2026-05-01T15:03:46.727Z</time></trkpt><trkpt lat="43.525505" lon="10.7003667"><ele>65.0</ele><time>2026-05-01T15:03:47.728Z</time></trkpt><trkpt lat="43.5255633" lon="10.7005133"><ele>66.0</ele><time>2026-05-01T15:03:48.728Z</time></trkpt><trkpt lat="43.5256117" lon="10.70068"><ele>66.0</ele><time>2026-05-01T15:03:49.728Z</time></trkpt><trkpt lat="43.52565" lon="10.700845"><ele>66.0</ele><time>2026-05-01T15:03:50.729Z</time></trkpt><trkpt lat="43.525685" lon="10.7010183"><ele>66.0</ele><time>2026-05-01T15:03:51.726Z</time></trkpt><trkpt lat="43.5257117" lon="10.7011917"><ele>66.0</ele><time>2026-05-01T15:03:52.728Z</time></trkpt><trkpt lat="43.5257267" lon="10.7013583"><ele>64.5</ele><time>2026-05-01T15:03:53.726Z</time></trkpt><trkpt lat="43.5257333" lon="10.7015267"><ele>63.0</ele><time>2026-05-01T15:03:54.727Z</time></trkpt><trkpt lat="43.5257383" lon="10.7016883"><ele>61.5</ele><time>2026-05-01T15:03:55.727Z</time></trkpt><trkpt lat="43.52575" lon="10.7018467"><ele>60.0</ele><time>2026-05-01T15:03:56.729Z</time></trkpt><trkpt lat="43.5257683" lon="10.7019883"><ele>59.4</ele><time>2026-05-01T15:03:57.726Z</time></trkpt><trkpt lat="43.5258" lon="10.7021217"><ele>58.8</ele><time>2026-05-01T15:03:58.728Z</time></trkpt><trkpt lat="43.525835" lon="10.702245"><ele>58.2</ele><time>2026-05-01T15:03:59.728Z</time></trkpt><trkpt lat="43.5258733" lon="10.7023467"><ele>57.6</ele><time>2026-05-01T15:04:00.727Z</time></trkpt><trkpt lat="43.5259067" lon="10.702435"><ele>57.0</ele><time>2026-05-01T15:04:01.728Z</time></trkpt><trkpt lat="43.5259517" lon="10.70256"><ele>57.0</ele><time>2026-05-01T15:04:03.729Z</time></trkpt><trkpt lat="43.52598" lon="10.7026433"><ele>57.0</ele><time>2026-05-01T15:04:05.727Z</time></trkpt><trkpt lat="43.5260333" lon="10.7027117"><ele>57.0</ele><time>2026-05-01T15:04:09.727Z</time></trkpt><trkpt lat="43.52614" lon="10.7026683"><ele>57.0</ele><time>2026-05-01T15:04:11.727Z</time></trkpt><trkpt lat="43.5262217" lon="10.7026033"><ele>57.0</ele><time>2026-05-01T15:04:12.727Z</time></trkpt><trkpt lat="43.5263167" lon="10.70253"><ele>56.75</ele><time>2026-05-01T15:04:13.728Z</time></trkpt><trkpt lat="43.5264333" lon="10.70245"><ele>56.5</ele><time>2026-05-01T15:04:14.727Z</time></trkpt><trkpt lat="43.52656" lon="10.70239"><ele>56.25</ele><time>2026-05-01T15:04:15.728Z</time></trkpt><trkpt lat="43.5267" lon="10.7023433"><ele>56.0</ele><time>2026-05-01T15:04:16.729Z</time></trkpt><trkpt lat="43.5268467" lon="10.70232"><ele>56.0</ele><time>2026-05-01T15:04:17.727Z</time></trkpt><trkpt lat="43.526995" lon="10.7023067"><ele>56.0</ele><time>2026-05-01T15:04:18.729Z</time></trkpt><trkpt lat="43.5271433" lon="10.702295"><ele>56.0</ele><time>2026-05-01T15:04:19.727Z</time></trkpt><trkpt lat="43.5273017" lon="10.702285"><ele>56.0</ele><time>2026-05-01T15:04:20.727Z</time></trkpt><trkpt lat="43.5274667" lon="10.7022717"><ele>56.0</ele><time>2026-05-01T15:04:21.728Z</time></trkpt><trkpt lat="43.5276433" lon="10.7022617"><ele>56.0</ele><time>2026-05-01T15:04:22.728Z</time></trkpt><trkpt lat="43.5278217" lon="10.7022567"><ele>56.66666666666667</ele><time>2026-05-01T15:04:23.728Z</time></trkpt><trkpt lat="43.527995" lon="10.7022533"><ele>57.33333333333333</ele><time>2026-05-01T15:04:24.728Z</time></trkpt><trkpt lat="43.5281633" lon="10.70225"><ele>58.0</ele><time>2026-05-01T15:04:25.728Z</time></trkpt><trkpt lat="43.52833" lon="10.7022433"><ele>58.0</ele><time>2026-05-01T15:04:26.727Z</time></trkpt><trkpt lat="43.5284967" lon="10.7022383"><ele>58.0</ele><time>2026-05-01T15:04:27.727Z</time></trkpt><trkpt lat="43.528665" lon="10.70223"><ele>58.0</ele><time>2026-05-01T15:04:28.728Z</time></trkpt><trkpt lat="43.5288367" lon="10.7022217"><ele>57.0</ele><time>2026-05-01T15:04:29.729Z</time></trkpt><trkpt lat="43.52901" lon="10.7022133"><ele>56.0</ele><time>2026-05-01T15:04:30.727Z</time></trkpt><trkpt lat="43.5291867" lon="10.7022"><ele>55.0</ele><time>2026-05-01T15:04:31.728Z</time></trkpt><trkpt lat="43.529365" lon="10.702185"><ele>55.0</ele><time>2026-05-01T15:04:32.728Z</time></trkpt><trkpt lat="43.5295417" lon="10.702165"><ele>55.0</ele><time>2026-05-01T15:04:33.728Z</time></trkpt><trkpt lat="43.5297183" lon="10.702145"><ele>55.0</ele><time>2026-05-01T15:04:34.728Z</time></trkpt><trkpt lat="43.5298967" lon="10.70212"><ele>55.0</ele><time>2026-05-01T15:04:35.728Z</time></trkpt><trkpt lat="43.5300733" lon="10.7021"><ele>55.0</ele><time>2026-05-01T15:04:36.727Z</time></trkpt><trkpt lat="43.53025" lon="10.7020733"><ele>55.0</ele><time>2026-05-01T15:04:37.727Z</time></trkpt><trkpt lat="43.5304233" lon="10.70205"><ele>55.0</ele><time>2026-05-01T15:04:38.729Z</time></trkpt><trkpt lat="43.5305967" lon="10.702025"><ele>55.0</ele><time>2026-05-01T15:04:39.726Z</time></trkpt><trkpt lat="43.5307667" lon="10.7019967"><ele>55.0</ele><time>2026-05-01T15:04:40.726Z</time></trkpt><trkpt lat="43.5309383" lon="10.7019667"><ele>55.0</ele><time>2026-05-01T15:04:41.728Z</time></trkpt><trkpt lat="43.5311067" lon="10.70194"><ele>55.0</ele><time>2026-05-01T15:04:42.729Z</time></trkpt><trkpt lat="43.5312783" lon="10.7019067"><ele>55.0</ele><time>2026-05-01T15:04:43.728Z</time></trkpt><trkpt lat="43.5314483" lon="10.7018733"><ele>55.0</ele><time>2026-05-01T15:04:44.728Z</time></trkpt><trkpt lat="43.5316183" lon="10.701835"><ele>55.0</ele><time>2026-05-01T15:04:45.726Z</time></trkpt><trkpt lat="43.5317917" lon="10.7017967"><ele>55.0</ele><time>2026-05-01T15:04:46.726Z</time></trkpt><trkpt lat="43.5319633" lon="10.70176"><ele>55.0</ele><time>2026-05-01T15:04:47.726Z</time></trkpt><trkpt lat="43.532135" lon="10.7017233"><ele>55.0</ele><time>2026-05-01T15:04:48.728Z</time></trkpt><trkpt lat="43.532305" lon="10.7016883"><ele>55.0</ele><time>2026-05-01T15:04:49.728Z</time></trkpt><trkpt lat="43.5324767" lon="10.7016517"><ele>55.0</ele><time>2026-05-01T15:04:50.728Z</time></trkpt><trkpt lat="43.532655" lon="10.70162"><ele>55.0</ele><time>2026-05-01T15:04:51.728Z</time></trkpt><trkpt lat="43.5328317" lon="10.7015817"><ele>55.0</ele><time>2026-05-01T15:04:52.727Z</time></trkpt><trkpt lat="43.5330117" lon="10.70155"><ele>55.33333333333333</ele><time>2026-05-01T15:04:53.728Z</time></trkpt><trkpt lat="43.5331917" lon="10.7015167"><ele>55.66666666666667</ele><time>2026-05-01T15:04:54.728Z</time></trkpt><trkpt lat="43.53337" lon="10.7014717"><ele>56.0</ele><time>2026-05-01T15:04:55.727Z</time></trkpt><trkpt lat="43.5335467" lon="10.7014333"><ele>56.0</ele><time>2026-05-01T15:04:56.728Z</time></trkpt><trkpt lat="43.5337183" lon="10.7013917"><ele>56.0</ele><time>2026-05-01T15:04:57.727Z</time></trkpt><trkpt lat="43.53389" lon="10.7013533"><ele>56.0</ele><time>2026-05-01T15:04:58.728Z</time></trkpt><trkpt lat="43.5340633" lon="10.7013183"><ele>56.0</ele><time>2026-05-01T15:04:59.728Z</time></trkpt><trkpt lat="43.5342367" lon="10.701285"><ele>56.0</ele><time>2026-05-01T15:05:00.728Z</time></trkpt><trkpt lat="43.534415" lon="10.7012533"><ele>56.0</ele><time>2026-05-01T15:05:01.728Z</time></trkpt><trkpt lat="43.5345933" lon="10.701215"><ele>56.0</ele><time>2026-05-01T15:05:02.728Z</time></trkpt><trkpt lat="43.5347733" lon="10.7011833"><ele>56.0</ele><time>2026-05-01T15:05:03.727Z</time></trkpt><trkpt lat="43.5349517" lon="10.7011467"><ele>56.0</ele><time>2026-05-01T15:05:04.727Z</time></trkpt><trkpt lat="43.5351317" lon="10.7011167"><ele>56.333333333333336</ele><time>2026-05-01T15:05:05.729Z</time></trkpt><trkpt lat="43.535305" lon="10.7010733"><ele>56.66666666666667</ele><time>2026-05-01T15:05:06.728Z</time></trkpt><trkpt lat="43.535475" lon="10.70103"><ele>57.0</ele><time>2026-05-01T15:05:07.727Z</time></trkpt><trkpt lat="43.5356433" lon="10.70099"><ele>57.0</ele><time>2026-05-01T15:05:08.728Z</time></trkpt><trkpt lat="43.535805" lon="10.7009517"><ele>57.0</ele><time>2026-05-01T15:05:09.728Z</time></trkpt><trkpt lat="43.5359633" lon="10.7009117"><ele>57.0</ele><time>2026-05-01T15:05:10.727Z</time></trkpt><trkpt lat="43.53612" lon="10.7008817"><ele>56.33333333333333</ele><time>2026-05-01T15:05:11.728Z</time></trkpt><trkpt lat="43.5362783" lon="10.7008467"><ele>55.666666666666664</ele><time>2026-05-01T15:05:12.728Z</time></trkpt><trkpt lat="43.5364367" lon="10.700815"><ele>55.0</ele><time>2026-05-01T15:05:13.728Z</time></trkpt><trkpt lat="43.5365917" lon="10.70078"><ele>55.0</ele><time>2026-05-01T15:05:14.729Z</time></trkpt><trkpt lat="43.5367467" lon="10.7007483"><ele>55.0</ele><time>2026-05-01T15:05:15.728Z</time></trkpt><trkpt lat="43.5369033" lon="10.7007217"><ele>55.0</ele><time>2026-05-01T15:05:16.728Z</time></trkpt><trkpt lat="43.5370567" lon="10.700695"><ele>55.666666666666664</ele><time>2026-05-01T15:05:17.728Z</time></trkpt><trkpt lat="43.5372067" lon="10.700665"><ele>56.33333333333333</ele><time>2026-05-01T15:05:18.728Z</time></trkpt><trkpt lat="43.53736" lon="10.7006367"><ele>57.0</ele><time>2026-05-01T15:05:19.729Z</time></trkpt><trkpt lat="43.5375117" lon="10.7006117"><ele>57.0</ele><time>2026-05-01T15:05:20.727Z</time></trkpt><trkpt lat="43.5376617" lon="10.7005917"><ele>57.0</ele><time>2026-05-01T15:05:21.727Z</time></trkpt><trkpt lat="43.5378133" lon="10.7005733"><ele>57.0</ele><time>2026-05-01T15:05:22.729Z</time></trkpt><trkpt lat="43.5379683" lon="10.70055"><ele>57.0</ele><time>2026-05-01T15:05:23.728Z</time></trkpt><trkpt lat="43.5381267" lon="10.7005233"><ele>57.0</ele><time>2026-05-01T15:05:24.729Z</time></trkpt><trkpt lat="43.538285" lon="10.7005017"><ele>57.0</ele><time>2026-05-01T15:05:25.729Z</time></trkpt><trkpt lat="43.538445" lon="10.700485"><ele>57.0</ele><time>2026-05-01T15:05:26.728Z</time></trkpt><trkpt lat="43.538605" lon="10.7004683"><ele>57.0</ele><time>2026-05-01T15:05:27.729Z</time></trkpt><trkpt lat="43.538765" lon="10.70045"><ele>57.0</ele><time>2026-05-01T15:05:28.729Z</time></trkpt><trkpt lat="43.538915" lon="10.7004267"><ele>56.75</ele><time>2026-05-01T15:05:29.729Z</time></trkpt><trkpt lat="43.5390583" lon="10.7004067"><ele>56.5</ele><time>2026-05-01T15:05:30.729Z</time></trkpt><trkpt lat="43.5391933" lon="10.7003883"><ele>56.25</ele><time>2026-05-01T15:05:31.728Z</time></trkpt><trkpt lat="43.5393233" lon="10.7003717"><ele>56.0</ele><time>2026-05-01T15:05:32.729Z</time></trkpt><trkpt lat="43.5394467" lon="10.7003583"><ele>56.25</ele><time>2026-05-01T15:05:33.728Z</time></trkpt><trkpt lat="43.5395667" lon="10.700345"><ele>56.5</ele><time>2026-05-01T15:05:34.727Z</time></trkpt><trkpt lat="43.539685" lon="10.7003317"><ele>56.75</ele><time>2026-05-01T15:05:35.728Z</time></trkpt><trkpt lat="43.5398033" lon="10.700315"><ele>57.0</ele><time>2026-05-01T15:05:36.728Z</time></trkpt><trkpt lat="43.53992" lon="10.7002983"><ele>57.0</ele><time>2026-05-01T15:05:37.728Z</time></trkpt><trkpt lat="43.5400367" lon="10.7002867"><ele>57.0</ele><time>2026-05-01T15:05:38.729Z</time></trkpt><trkpt lat="43.54015" lon="10.70027"><ele>57.0</ele><time>2026-05-01T15:05:39.727Z</time></trkpt><trkpt lat="43.5402633" lon="10.7002517"><ele>57.0</ele><time>2026-05-01T15:05:40.727Z</time></trkpt><trkpt lat="43.5403817" lon="10.7002283"><ele>57.25</ele><time>2026-05-01T15:05:41.728Z</time></trkpt><trkpt lat="43.5405" lon="10.700205"><ele>57.5</ele><time>2026-05-01T15:05:42.728Z</time></trkpt><trkpt lat="43.5406183" lon="10.7001867"><ele>57.75</ele><time>2026-05-01T15:05:43.729Z</time></trkpt><trkpt lat="43.5407367" lon="10.7001683"><ele>58.0</ele><time>2026-05-01T15:05:44.728Z</time></trkpt><trkpt lat="43.5408517" lon="10.70015"><ele>58.0</ele><time>2026-05-01T15:05:45.727Z</time></trkpt><trkpt lat="43.5409633" lon="10.70013"><ele>58.0</ele><time>2026-05-01T15:05:46.728Z</time></trkpt><trkpt lat="43.541065" lon="10.7001183"><ele>58.0</ele><time>2026-05-01T15:05:47.728Z</time></trkpt><trkpt lat="43.5411583" lon="10.7001067"><ele>58.0</ele><time>2026-05-01T15:05:48.727Z</time></trkpt><trkpt lat="43.5412467" lon="10.7000983"><ele>58.0</ele><time>2026-05-01T15:05:49.728Z</time></trkpt><trkpt lat="43.541325" lon="10.7000917"><ele>57.71428571428572</ele><time>2026-05-01T15:05:50.729Z</time></trkpt><trkpt lat="43.5413983" lon="10.7000867"><ele>57.42857142857143</ele><time>2026-05-01T15:05:51.728Z</time></trkpt><trkpt lat="43.5414683" lon="10.7000867"><ele>57.142857142857146</ele><time>2026-05-01T15:05:52.728Z</time></trkpt><trkpt lat="43.5415367" lon="10.7000883"><ele>56.85714285714286</ele><time>2026-05-01T15:05:53.728Z</time></trkpt><trkpt lat="43.5416067" lon="10.7000983"><ele>56.57142857142857</ele><time>2026-05-01T15:05:54.729Z</time></trkpt><trkpt lat="43.541675" lon="10.700135"><ele>56.285714285714285</ele><time>2026-05-01T15:05:55.729Z</time></trkpt><trkpt lat="43.5417233" lon="10.70021"><ele>56.0</ele><time>2026-05-01T15:05:56.728Z</time></trkpt><trkpt lat="43.5417633" lon="10.700305"><ele>56.0</ele><time>2026-05-01T15:05:57.728Z</time></trkpt><trkpt lat="43.541795" lon="10.70042"><ele>55.99999999999999</ele><time>2026-05-01T15:05:58.728Z</time></trkpt><trkpt lat="43.541825" lon="10.7005483"><ele>55.99999999999999</ele><time>2026-05-01T15:05:59.728Z</time></trkpt><trkpt lat="43.5418433" lon="10.7006933"><ele>56.0</ele><time>2026-05-01T15:06:00.727Z</time></trkpt><trkpt lat="43.5418583" lon="10.7008433"><ele>56.0</ele><time>2026-05-01T15:06:01.727Z</time></trkpt><trkpt lat="43.5418767" lon="10.7009967"><ele>55.5</ele><time>2026-05-01T15:06:02.728Z</time></trkpt><trkpt lat="43.5418967" lon="10.701145"><ele>55.0</ele><time>2026-05-01T15:06:03.728Z</time></trkpt><trkpt lat="43.5419183" lon="10.701295"><ele>54.5</ele><time>2026-05-01T15:06:04.729Z</time></trkpt><trkpt lat="43.54194" lon="10.7014533"><ele>54.0</ele><time>2026-05-01T15:06:05.728Z</time></trkpt><trkpt lat="43.5419617" lon="10.70161"><ele>54.0</ele><time>2026-05-01T15:06:06.728Z</time></trkpt><trkpt lat="43.5419817" lon="10.701755"><ele>54.00000000000001</ele><time>2026-05-01T15:06:07.727Z</time></trkpt><trkpt lat="43.5420017" lon="10.7018967"><ele>54.00000000000001</ele><time>2026-05-01T15:06:08.728Z</time></trkpt><trkpt lat="43.542025" lon="10.7020417"><ele>54.0</ele><time>2026-05-01T15:06:09.728Z</time></trkpt><trkpt lat="43.542045" lon="10.7022017"><ele>54.0</ele><time>2026-05-01T15:06:10.727Z</time></trkpt><trkpt lat="43.542065" lon="10.7023633"><ele>54.0</ele><time>2026-05-01T15:06:11.727Z</time></trkpt><trkpt lat="43.5420883" lon="10.7025283"><ele>54.0</ele><time>2026-05-01T15:06:12.729Z</time></trkpt><trkpt lat="43.5421083" lon="10.7027033"><ele>54.0</ele><time>2026-05-01T15:06:13.728Z</time></trkpt><trkpt lat="43.5421283" lon="10.7028767"><ele>54.0</ele><time>2026-05-01T15:06:14.729Z</time></trkpt><trkpt lat="43.5421483" lon="10.7030533"><ele>53.25</ele><time>2026-05-01T15:06:15.729Z</time></trkpt><trkpt lat="43.5421683" lon="10.703235"><ele>52.5</ele><time>2026-05-01T15:06:16.727Z</time></trkpt><trkpt lat="43.54219" lon="10.703415"><ele>51.75</ele><time>2026-05-01T15:06:17.728Z</time></trkpt><trkpt lat="43.54221" lon="10.7035983"><ele>51.0</ele><time>2026-05-01T15:06:18.728Z</time></trkpt><trkpt lat="43.5422317" lon="10.70379"><ele>51.0</ele><time>2026-05-01T15:06:19.727Z</time></trkpt><trkpt lat="43.542255" lon="10.7039783"><ele>51.0</ele><time>2026-05-01T15:06:20.727Z</time></trkpt><trkpt lat="43.5422817" lon="10.704165"><ele>51.0</ele><time>2026-05-01T15:06:21.728Z</time></trkpt><trkpt lat="43.5423083" lon="10.7043533"><ele>51.0</ele><time>2026-05-01T15:06:22.727Z</time></trkpt><trkpt lat="43.5423333" lon="10.7045417"><ele>50.75</ele><time>2026-05-01T15:06:23.728Z</time></trkpt><trkpt lat="43.5423583" lon="10.7047283"><ele>50.5</ele><time>2026-05-01T15:06:24.729Z</time></trkpt><trkpt lat="43.542385" lon="10.704915"><ele>50.25</ele><time>2026-05-01T15:06:25.727Z</time></trkpt><trkpt lat="43.5424133" lon="10.7051083"><ele>50.0</ele><time>2026-05-01T15:06:26.729Z</time></trkpt><trkpt lat="43.5424417" lon="10.705305"><ele>50.0</ele><time>2026-05-01T15:06:27.728Z</time></trkpt><trkpt lat="43.54247" lon="10.7055067"><ele>50.0</ele><time>2026-05-01T15:06:28.728Z</time></trkpt><trkpt lat="43.5424983" lon="10.7057117"><ele>50.0</ele><time>2026-05-01T15:06:29.729Z</time></trkpt><trkpt lat="43.542525" lon="10.7059183"><ele>50.333333333333336</ele><time>2026-05-01T15:06:30.729Z</time></trkpt><trkpt lat="43.5425517" lon="10.7061267"><ele>50.66666666666667</ele><time>2026-05-01T15:06:31.728Z</time></trkpt><trkpt lat="43.5425783" lon="10.706335"><ele>51.0</ele><time>2026-05-01T15:06:32.729Z</time></trkpt><trkpt lat="43.5426067" lon="10.7065433"><ele>51.0</ele><time>2026-05-01T15:06:33.728Z</time></trkpt><trkpt lat="43.5426367" lon="10.7067467"><ele>51.0</ele><time>2026-05-01T15:06:34.728Z</time></trkpt><trkpt lat="43.5426683" lon="10.7069483"><ele>51.0</ele><time>2026-05-01T15:06:35.728Z</time></trkpt><trkpt lat="43.5426983" lon="10.7071517"><ele>50.33333333333333</ele><time>2026-05-01T15:06:36.727Z</time></trkpt><trkpt lat="43.5427283" lon="10.7073533"><ele>49.666666666666664</ele><time>2026-05-01T15:06:37.729Z</time></trkpt><trkpt lat="43.542755" lon="10.7075567"><ele>49.0</ele><time>2026-05-01T15:06:38.728Z</time></trkpt><trkpt lat="43.54278" lon="10.70777"><ele>48.666666666666664</ele><time>2026-05-01T15:06:39.728Z</time></trkpt><trkpt lat="43.5428067" lon="10.707985"><ele>48.33333333333333</ele><time>2026-05-01T15:06:40.729Z</time></trkpt><trkpt lat="43.5428333" lon="10.708195"><ele>48.0</ele><time>2026-05-01T15:06:41.727Z</time></trkpt><trkpt lat="43.5428583" lon="10.7084067"><ele>48.33333333333333</ele><time>2026-05-01T15:06:42.727Z</time></trkpt><trkpt lat="43.5428883" lon="10.7086217"><ele>48.666666666666664</ele><time>2026-05-01T15:06:43.727Z</time></trkpt><trkpt lat="43.5429183" lon="10.7088417"><ele>49.0</ele><time>2026-05-01T15:06:44.729Z</time></trkpt><trkpt lat="43.54295" lon="10.7090633"><ele>49.0</ele><time>2026-05-01T15:06:45.727Z</time></trkpt><trkpt lat="43.54298" lon="10.7092867"><ele>49.0</ele><time>2026-05-01T15:06:46.728Z</time></trkpt><trkpt lat="43.54301" lon="10.7095083"><ele>49.0</ele><time>2026-05-01T15:06:47.727Z</time></trkpt><trkpt lat="43.5430417" lon="10.7097283"><ele>48.666666666666664</ele><time>2026-05-01T15:06:48.729Z</time></trkpt><trkpt lat="43.5430733" lon="10.7099583"><ele>48.33333333333333</ele><time>2026-05-01T15:06:49.728Z</time></trkpt><trkpt lat="43.5431" lon="10.7101917"><ele>48.0</ele><time>2026-05-01T15:06:50.728Z</time></trkpt><trkpt lat="43.5431333" lon="10.71042"><ele>47.0</ele><time>2026-05-01T15:06:51.727Z</time></trkpt><trkpt lat="43.54316" lon="10.710645"><ele>46.0</ele><time>2026-05-01T15:06:52.728Z</time></trkpt><trkpt lat="43.543185" lon="10.7108817"><ele>45.0</ele><time>2026-05-01T15:06:53.729Z</time></trkpt><trkpt lat="43.5432117" lon="10.71112"><ele>44.333333333333336</ele><time>2026-05-01T15:06:54.728Z</time></trkpt><trkpt lat="43.5432417" lon="10.7113567"><ele>43.66666666666667</ele><time>2026-05-01T15:06:55.729Z</time></trkpt><trkpt lat="43.543275" lon="10.711585"><ele>43.0</ele><time>2026-05-01T15:06:56.729Z</time></trkpt><trkpt lat="43.5433" lon="10.7118083"><ele>43.0</ele><time>2026-05-01T15:06:57.729Z</time></trkpt><trkpt lat="43.5433283" lon="10.7120267"><ele>43.0</ele><time>2026-05-01T15:06:58.728Z</time></trkpt><trkpt lat="43.5433567" lon="10.7122367"><ele>43.0</ele><time>2026-05-01T15:06:59.728Z</time></trkpt><trkpt lat="43.5433817" lon="10.7124367"><ele>43.0</ele><time>2026-05-01T15:07:00.728Z</time></trkpt><trkpt lat="43.543405" lon="10.7126367"><ele>43.0</ele><time>2026-05-01T15:07:01.728Z</time></trkpt><trkpt lat="43.54343" lon="10.712835"><ele>43.0</ele><time>2026-05-01T15:07:02.728Z</time></trkpt><trkpt lat="43.543465" lon="10.71304"><ele>43.0</ele><time>2026-05-01T15:07:03.729Z</time></trkpt><trkpt lat="43.5434933" lon="10.713245"><ele>42.66666666666667</ele><time>2026-05-01T15:07:04.727Z</time></trkpt><trkpt lat="43.54352" lon="10.7134533"><ele>42.333333333333336</ele><time>2026-05-01T15:07:05.727Z</time></trkpt><trkpt lat="43.543545" lon="10.713665"><ele>42.0</ele><time>2026-05-01T15:07:06.726Z</time></trkpt><trkpt lat="43.5435717" lon="10.7138783"><ele>41.75</ele><time>2026-05-01T15:07:07.728Z</time></trkpt><trkpt lat="43.5436" lon="10.7140883"><ele>41.5</ele><time>2026-05-01T15:07:08.728Z</time></trkpt><trkpt lat="43.5436267" lon="10.7142933"><ele>41.25</ele><time>2026-05-01T15:07:09.727Z</time></trkpt><trkpt lat="43.5436533" lon="10.7144833"><ele>41.0</ele><time>2026-05-01T15:07:10.728Z</time></trkpt><trkpt lat="43.5436867" lon="10.71465"><ele>43.599999999999994</ele><time>2026-05-01T15:07:11.729Z</time></trkpt><trkpt lat="43.5437317" lon="10.71479"><ele>46.2</ele><time>2026-05-01T15:07:12.728Z</time></trkpt><trkpt lat="43.5438067" lon="10.7148817"><ele>48.800000000000004</ele><time>2026-05-01T15:07:13.727Z</time></trkpt><trkpt lat="43.5438933" lon="10.7149333"><ele>51.400000000000006</ele><time>2026-05-01T15:07:14.73Z</time></trkpt><trkpt lat="43.5439967" lon="10.7149483"><ele>54.0</ele><time>2026-05-01T15:07:15.728Z</time></trkpt><trkpt lat="43.5441033" lon="10.7149517"><ele>54.0</ele><time>2026-05-01T15:07:16.73Z</time></trkpt><trkpt lat="43.544205" lon="10.714955"><ele>54.0</ele><time>2026-05-01T15:07:17.728Z</time></trkpt><trkpt lat="43.5442967" lon="10.7149617"><ele>54.0</ele><time>2026-05-01T15:07:18.729Z</time></trkpt><trkpt lat="43.5443733" lon="10.7149617"><ele>54.0</ele><time>2026-05-01T15:07:19.729Z</time></trkpt><trkpt lat="43.5444383" lon="10.7149583"><ele>54.0</ele><time>2026-05-01T15:07:20.728Z</time></trkpt><trkpt lat="43.544545" lon="10.7149467"><ele>54.0</ele><time>2026-05-01T15:07:22.728Z</time></trkpt><trkpt lat="43.544625" lon="10.71495"><ele>54.5</ele><time>2026-05-01T15:07:24.728Z</time></trkpt><trkpt lat="43.544725" lon="10.7149583"><ele>55.0</ele><time>2026-05-01T15:07:26.727Z</time></trkpt><trkpt lat="43.5447933" lon="10.71496"><ele>55.5</ele><time>2026-05-01T15:07:27.727Z</time></trkpt><trkpt lat="43.5448733" lon="10.7149617"><ele>56.0</ele><time>2026-05-01T15:07:28.727Z</time></trkpt><trkpt lat="43.5449617" lon="10.7149667"><ele>56.5</ele><time>2026-05-01T15:07:29.728Z</time></trkpt><trkpt lat="43.54506" lon="10.71497"><ele>57.0</ele><time>2026-05-01T15:07:30.729Z</time></trkpt><trkpt lat="43.545165" lon="10.7149633"><ele>57.0</ele><time>2026-05-01T15:07:31.729Z</time></trkpt><trkpt lat="43.54528" lon="10.71496"><ele>57.0</ele><time>2026-05-01T15:07:32.729Z</time></trkpt><trkpt lat="43.5453967" lon="10.7149433"><ele>57.0</ele><time>2026-05-01T15:07:33.728Z</time></trkpt><trkpt lat="43.5455167" lon="10.7149267"><ele>57.0</ele><time>2026-05-01T15:07:34.728Z</time></trkpt><trkpt lat="43.5456317" lon="10.7149183"><ele>57.0</ele><time>2026-05-01T15:07:35.729Z</time></trkpt><trkpt lat="43.5457267" lon="10.714935"><ele>57.0</ele><time>2026-05-01T15:07:36.728Z</time></trkpt><trkpt lat="43.5457967" lon="10.7149883"><ele>57.0</ele><time>2026-05-01T15:07:37.728Z</time></trkpt><trkpt lat="43.5458317" lon="10.7151517"><ele>57.0</ele><time>2026-05-01T15:07:39.728Z</time></trkpt><trkpt lat="43.5457933" lon="10.7152367"><ele>57.0</ele><time>2026-05-01T15:07:40.727Z</time></trkpt><trkpt lat="43.545725" lon="10.71531"><ele>59.25</ele><time>2026-05-01T15:07:41.728Z</time></trkpt><trkpt lat="43.5456183" lon="10.715375"><ele>61.5</ele><time>2026-05-01T15:07:42.728Z</time></trkpt><trkpt lat="43.5455033" lon="10.7154317"><ele>63.75</ele><time>2026-05-01T15:07:43.727Z</time></trkpt><trkpt lat="43.5453833" lon="10.71549"><ele>66.0</ele><time>2026-05-01T15:07:44.729Z</time></trkpt><trkpt lat="43.5452617" lon="10.7155617"><ele>66.0</ele><time>2026-05-01T15:07:45.728Z</time></trkpt><trkpt lat="43.5451367" lon="10.71563"><ele>66.0</ele><time>2026-05-01T15:07:46.728Z</time></trkpt><trkpt lat="43.5450117" lon="10.7156983"><ele>66.0</ele><time>2026-05-01T15:07:47.729Z</time></trkpt><trkpt lat="43.5449" lon="10.7157667"><ele>66.0</ele><time>2026-05-01T15:07:48.729Z</time></trkpt><trkpt lat="43.54482" lon="10.715845"><ele>66.0</ele><time>2026-05-01T15:07:49.726Z</time></trkpt><trkpt lat="43.5447617" lon="10.7159367"><ele>66.0</ele><time>2026-05-01T15:07:50.728Z</time></trkpt><trkpt lat="43.5447533" lon="10.7160433"><ele>66.0</ele><time>2026-05-01T15:07:51.727Z</time></trkpt><trkpt lat="43.5447883" lon="10.7161467"><ele>66.0</ele><time>2026-05-01T15:07:52.727Z</time></trkpt><trkpt lat="43.544865" lon="10.71621"><ele>66.0</ele><time>2026-05-01T15:07:53.727Z</time></trkpt><trkpt lat="43.544955" lon="10.716245"><ele>66.0</ele><time>2026-05-01T15:07:54.728Z</time></trkpt><trkpt lat="43.5450683" lon="10.7162717"><ele>69.75</ele><time>2026-05-01T15:07:55.727Z</time></trkpt><trkpt lat="43.545195" lon="10.7162867"><ele>73.5</ele><time>2026-05-01T15:07:56.73Z</time></trkpt><trkpt lat="43.5453267" lon="10.7163233"><ele>77.25</ele><time>2026-05-01T15:07:57.729Z</time></trkpt><trkpt lat="43.5454517" lon="10.7163533"><ele>81.0</ele><time>2026-05-01T15:07:58.729Z</time></trkpt><trkpt lat="43.5455733" lon="10.7163767"><ele>81.33333333333333</ele><time>2026-05-01T15:07:59.729Z</time></trkpt><trkpt lat="43.5456883" lon="10.716405"><ele>81.66666666666667</ele><time>2026-05-01T15:08:00.727Z</time></trkpt><trkpt lat="43.545785" lon="10.7164433"><ele>82.0</ele><time>2026-05-01T15:08:01.727Z</time></trkpt><trkpt lat="43.54585" lon="10.7165133"><ele>82.33333333333334</ele><time>2026-05-01T15:08:02.729Z</time></trkpt><trkpt lat="43.5458883" lon="10.7165917"><ele>82.66666666666667</ele><time>2026-05-01T15:08:03.729Z</time></trkpt><trkpt lat="43.5458683" lon="10.7166833"><ele>83.0</ele><time>2026-05-01T15:08:04.726Z</time></trkpt><trkpt lat="43.5458117" lon="10.716755"><ele>83.0</ele><time>2026-05-01T15:08:05.728Z</time></trkpt><trkpt lat="43.54574" lon="10.71681"><ele>83.0</ele><time>2026-05-01T15:08:06.729Z</time></trkpt><trkpt lat="43.54565" lon="10.7168383"><ele>83.0</ele><time>2026-05-01T15:08:07.729Z</time></trkpt><trkpt lat="43.5455433" lon="10.7168633"><ele>83.0</ele><time>2026-05-01T15:08:08.728Z</time></trkpt><trkpt lat="43.5454383" lon="10.7168817"><ele>83.0</ele><time>2026-05-01T15:08:09.727Z</time></trkpt><trkpt lat="43.545335" lon="10.7169083"><ele>85.0</ele><time>2026-05-01T15:08:10.727Z</time></trkpt><trkpt lat="43.5452433" lon="10.7169283"><ele>87.0</ele><time>2026-05-01T15:08:11.729Z</time></trkpt><trkpt lat="43.5451483" lon="10.716955"><ele>89.0</ele><time>2026-05-01T15:08:12.729Z</time></trkpt><trkpt lat="43.545055" lon="10.7169783"><ele>91.0</ele><time>2026-05-01T15:08:13.727Z</time></trkpt><trkpt lat="43.5449533" lon="10.7170017"><ele>93.0</ele><time>2026-05-01T15:08:14.728Z</time></trkpt><trkpt lat="43.54485" lon="10.71703"><ele>93.0</ele><time>2026-05-01T15:08:15.727Z</time></trkpt><trkpt lat="43.54475" lon="10.7170567"><ele>93.0</ele><time>2026-05-01T15:08:16.728Z</time></trkpt><trkpt lat="43.54465" lon="10.7170967"><ele>93.0</ele><time>2026-05-01T15:08:17.727Z</time></trkpt><trkpt lat="43.5445667" lon="10.7171533"><ele>93.0</ele><time>2026-05-01T15:08:18.727Z</time></trkpt><trkpt lat="43.5445017" lon="10.7172217"><ele>93.0</ele><time>2026-05-01T15:08:19.729Z</time></trkpt><trkpt lat="43.5444667" lon="10.7173033"><ele>93.0</ele><time>2026-05-01T15:08:20.727Z</time></trkpt><trkpt lat="43.5444767" lon="10.7174567"><ele>93.0</ele><time>2026-05-01T15:08:22.726Z</time></trkpt><trkpt lat="43.5446067" lon="10.7175017"><ele>93.0</ele><time>2026-05-01T15:08:23.727Z</time></trkpt><trkpt lat="43.5447217" lon="10.71754"><ele>93.0</ele><time>2026-05-01T15:08:24.728Z</time></trkpt><trkpt lat="43.5448317" lon="10.717565"><ele>93.0</ele><time>2026-05-01T15:08:25.726Z</time></trkpt><trkpt lat="43.5449533" lon="10.717585"><ele>93.0</ele><time>2026-05-01T15:08:26.726Z</time></trkpt><trkpt lat="43.5450767" lon="10.7175867"><ele>93.0</ele><time>2026-05-01T15:08:27.728Z</time></trkpt><trkpt lat="43.5451933" lon="10.7175983"><ele>93.0</ele><time>2026-05-01T15:08:28.728Z</time></trkpt><trkpt lat="43.5453067" lon="10.7176217"><ele>93.0</ele><time>2026-05-01T15:08:29.727Z</time></trkpt><trkpt lat="43.5454233" lon="10.7176433"><ele>92.5</ele><time>2026-05-01T15:08:30.727Z</time></trkpt><trkpt lat="43.5455483" lon="10.7176633"><ele>92.0</ele><time>2026-05-01T15:08:31.728Z</time></trkpt><trkpt lat="43.5456767" lon="10.7176833"><ele>91.5</ele><time>2026-05-01T15:08:32.729Z</time></trkpt><trkpt lat="43.5458017" lon="10.717705"><ele>91.0</ele><time>2026-05-01T15:08:33.726Z</time></trkpt><trkpt lat="43.5459167" lon="10.71772"><ele>93.0</ele><time>2026-05-01T15:08:34.728Z</time></trkpt><trkpt lat="43.54603" lon="10.7177583"><ele>95.0</ele><time>2026-05-01T15:08:35.727Z</time></trkpt><trkpt lat="43.5461317" lon="10.7178017"><ele>97.0</ele><time>2026-05-01T15:08:36.726Z</time></trkpt><trkpt lat="43.546215" lon="10.7178817"><ele>99.0</ele><time>2026-05-01T15:08:37.727Z</time></trkpt><trkpt lat="43.546275" lon="10.7179867"><ele>101.0</ele><time>2026-05-01T15:08:38.726Z</time></trkpt><trkpt lat="43.5463183" lon="10.71811"><ele>101.19999999999999</ele><time>2026-05-01T15:08:39.727Z</time></trkpt><trkpt lat="43.5463583" lon="10.718245"><ele>101.39999999999999</ele><time>2026-05-01T15:08:40.727Z</time></trkpt><trkpt lat="43.5463983" lon="10.718385"><ele>101.6</ele><time>2026-05-01T15:08:41.727Z</time></trkpt><trkpt lat="43.5464367" lon="10.718525"><ele>101.8</ele><time>2026-05-01T15:08:42.728Z</time></trkpt><trkpt lat="43.546475" lon="10.718665"><ele>102.0</ele><time>2026-05-01T15:08:43.726Z</time></trkpt><trkpt lat="43.546515" lon="10.71879"><ele>103.33333333333333</ele><time>2026-05-01T15:08:44.728Z</time></trkpt><trkpt lat="43.5465433" lon="10.718905"><ele>104.66666666666666</ele><time>2026-05-01T15:08:45.726Z</time></trkpt><trkpt lat="43.546565" lon="10.7190083"><ele>106.0</ele><time>2026-05-01T15:08:46.726Z</time></trkpt><trkpt lat="43.54658" lon="10.719095"><ele>107.33333333333333</ele><time>2026-05-01T15:08:47.727Z</time></trkpt><trkpt lat="43.5465817" lon="10.7192433"><ele>108.66666666666666</ele><time>2026-05-01T15:08:49.727Z</time></trkpt><trkpt lat="43.5466033" lon="10.7193633"><ele>110.0</ele><time>2026-05-01T15:08:51.728Z</time></trkpt><trkpt lat="43.5466667" lon="10.719405"><ele>109.99999999999999</ele><time>2026-05-01T15:08:53.728Z</time></trkpt><trkpt lat="43.5467317" lon="10.719415"><ele>110.0</ele><time>2026-05-01T15:08:55.727Z</time></trkpt><trkpt lat="43.546795" lon="10.7194"><ele>110.0</ele><time>2026-05-01T15:09:14.726Z</time></trkpt><trkpt lat="43.5469067" lon="10.7193867"><ele>110.0</ele><time>2026-05-01T15:09:16.729Z</time></trkpt><trkpt lat="43.5470367" lon="10.7193683"><ele>109.99999999999999</ele><time>2026-05-01T15:09:18.728Z</time></trkpt><trkpt lat="43.5471083" lon="10.71936"><ele>110.0</ele><time>2026-05-01T15:09:19.728Z</time></trkpt><trkpt lat="43.5471883" lon="10.7193583"><ele>109.66666666666666</ele><time>2026-05-01T15:09:20.727Z</time></trkpt><trkpt lat="43.5472717" lon="10.7193533"><ele>109.33333333333333</ele><time>2026-05-01T15:09:21.728Z</time></trkpt><trkpt lat="43.5473567" lon="10.7193433"><ele>109.0</ele><time>2026-05-01T15:09:22.728Z</time></trkpt><trkpt lat="43.5474433" lon="10.7193217"><ele>108.66666666666666</ele><time>2026-05-01T15:09:23.728Z</time></trkpt><trkpt lat="43.5475267" lon="10.7193117"><ele>108.33333333333333</ele><time>2026-05-01T15:09:24.728Z</time></trkpt><trkpt lat="43.5476083" lon="10.7193"><ele>108.0</ele><time>2026-05-01T15:09:25.727Z</time></trkpt><trkpt lat="43.5476933" lon="10.7192983"><ele>108.0</ele><time>2026-05-01T15:09:26.727Z</time></trkpt><trkpt lat="43.547775" lon="10.7193033"><ele>108.0</ele><time>2026-05-01T15:09:27.727Z</time></trkpt><trkpt lat="43.5478583" lon="10.7193033"><ele>108.0</ele><time>2026-05-01T15:09:28.726Z</time></trkpt><trkpt lat="43.54794" lon="10.7193017"><ele>108.0</ele><time>2026-05-01T15:09:29.728Z</time></trkpt><trkpt lat="43.5480233" lon="10.7192917"><ele>108.0</ele><time>2026-05-01T15:09:30.729Z</time></trkpt><trkpt lat="43.5481117" lon="10.719285"><ele>108.0</ele><time>2026-05-01T15:09:31.728Z</time></trkpt><trkpt lat="43.5482033" lon="10.7192867"><ele>109.2</ele><time>2026-05-01T15:09:32.728Z</time></trkpt><trkpt lat="43.5483" lon="10.7192933"><ele>110.4</ele><time>2026-05-01T15:09:33.729Z</time></trkpt><trkpt lat="43.5483983" lon="10.7192933"><ele>111.60000000000001</ele><time>2026-05-01T15:09:34.727Z</time></trkpt><trkpt lat="43.5484983" lon="10.7192983"><ele>112.80000000000001</ele><time>2026-05-01T15:09:35.728Z</time></trkpt><trkpt lat="43.5486" lon="10.7193033"><ele>114.0</ele><time>2026-05-01T15:09:36.728Z</time></trkpt><trkpt lat="43.5487033" lon="10.71931"><ele>114.4</ele><time>2026-05-01T15:09:37.727Z</time></trkpt><trkpt lat="43.5488067" lon="10.7193283"><ele>114.80000000000001</ele><time>2026-05-01T15:09:38.728Z</time></trkpt><trkpt lat="43.5489067" lon="10.71935"><ele>115.19999999999999</ele><time>2026-05-01T15:09:39.728Z</time></trkpt><trkpt lat="43.5490083" lon="10.7193867"><ele>115.6</ele><time>2026-05-01T15:09:40.726Z</time></trkpt><trkpt lat="43.5491067" lon="10.71943"><ele>116.0</ele><time>2026-05-01T15:09:41.728Z</time></trkpt><trkpt lat="43.5491967" lon="10.71948"><ele>117.16666666666666</ele><time>2026-05-01T15:09:42.728Z</time></trkpt><trkpt lat="43.5492717" lon="10.7195367"><ele>118.33333333333333</ele><time>2026-05-01T15:09:43.725Z</time></trkpt><trkpt lat="43.54934" lon="10.7196217"><ele>119.5</ele><time>2026-05-01T15:09:44.727Z</time></trkpt><trkpt lat="43.549395" lon="10.7197117"><ele>120.66666666666666</ele><time>2026-05-01T15:09:45.727Z</time></trkpt><trkpt lat="43.5494517" lon="10.7198117"><ele>121.83333333333333</ele><time>2026-05-01T15:09:46.727Z</time></trkpt><trkpt lat="43.54951" lon="10.7199083"><ele>123.0</ele><time>2026-05-01T15:09:47.728Z</time></trkpt><trkpt lat="43.5495717" lon="10.7200083"><ele>123.0</ele><time>2026-05-01T15:09:48.727Z</time></trkpt><trkpt lat="43.549625" lon="10.7201033"><ele>123.00000000000001</ele><time>2026-05-01T15:09:49.727Z</time></trkpt><trkpt lat="43.5496683" lon="10.720215"><ele>123.00000000000001</ele><time>2026-05-01T15:09:50.727Z</time></trkpt><trkpt lat="43.549685" lon="10.720335"><ele>123.0</ele><time>2026-05-01T15:09:51.726Z</time></trkpt><trkpt lat="43.5496867" lon="10.720455"><ele>123.0</ele><time>2026-05-01T15:09:52.726Z</time></trkpt><trkpt lat="43.5496833" lon="10.7205933"><ele>124.0</ele><time>2026-05-01T15:09:53.726Z</time></trkpt><trkpt lat="43.54967" lon="10.72074"><ele>125.00000000000001</ele><time>2026-05-01T15:09:54.728Z</time></trkpt><trkpt lat="43.5496617" lon="10.7208717"><ele>126.00000000000001</ele><time>2026-05-01T15:09:55.728Z</time></trkpt><trkpt lat="43.5496467" lon="10.720995"><ele>127.0</ele><time>2026-05-01T15:09:56.728Z</time></trkpt><trkpt lat="43.549635" lon="10.7211117"><ele>128.0</ele><time>2026-05-01T15:09:57.727Z</time></trkpt><trkpt lat="43.5496267" lon="10.7212183"><ele>129.0</ele><time>2026-05-01T15:09:58.727Z</time></trkpt><trkpt lat="43.5496183" lon="10.7213117"><ele>130.0</ele><time>2026-05-01T15:09:59.728Z</time></trkpt><trkpt lat="43.549595" lon="10.7214417"><ele>131.0</ele><time>2026-05-01T15:10:01.728Z</time></trkpt><trkpt lat="43.5495817" lon="10.7215367"><ele>132.0</ele><time>2026-05-01T15:10:03.728Z</time></trkpt><trkpt lat="43.54959" lon="10.72165"><ele>133.0</ele><time>2026-05-01T15:10:05.728Z</time></trkpt><trkpt lat="43.5496133" lon="10.7217717"><ele>134.0</ele><time>2026-05-01T15:10:07.728Z</time></trkpt><trkpt lat="43.5496483" lon="10.7218717"><ele>134.4</ele><time>2026-05-01T15:10:15.728Z</time></trkpt><trkpt lat="43.5496967" lon="10.7219767"><ele>134.8</ele><time>2026-05-01T15:10:18.727Z</time></trkpt><trkpt lat="43.5497333" lon="10.7220833"><ele>135.2</ele><time>2026-05-01T15:10:20.726Z</time></trkpt><trkpt lat="43.549765" lon="10.7222067"><ele>135.6</ele><time>2026-05-01T15:10:22.727Z</time></trkpt><trkpt lat="43.5497833" lon="10.7223483"><ele>136.0</ele><time>2026-05-01T15:10:24.727Z</time></trkpt><trkpt lat="43.5498033" lon="10.7225217"><ele>136.0</ele><time>2026-05-01T15:10:26.727Z</time></trkpt><trkpt lat="43.549815" lon="10.7226233"><ele>136.0</ele><time>2026-05-01T15:10:27.726Z</time></trkpt><trkpt lat="43.5498283" lon="10.722725"><ele>136.0</ele><time>2026-05-01T15:10:28.728Z</time></trkpt><trkpt lat="43.54983" lon="10.7228183"><ele>136.0</ele><time>2026-05-01T15:10:29.727Z</time></trkpt><trkpt lat="43.5498383" lon="10.7229083"><ele>136.0</ele><time>2026-05-01T15:10:30.727Z</time></trkpt><trkpt lat="43.5498667" lon="10.7230117"><ele>136.0</ele><time>2026-05-01T15:10:31.728Z</time></trkpt><trkpt lat="43.5499083" lon="10.723125"><ele>135.4</ele><time>2026-05-01T15:10:32.728Z</time></trkpt><trkpt lat="43.5499467" lon="10.7232533"><ele>134.8</ele><time>2026-05-01T15:10:33.728Z</time></trkpt><trkpt lat="43.5499733" lon="10.7234017"><ele>134.20000000000002</ele><time>2026-05-01T15:10:34.729Z</time></trkpt><trkpt lat="43.54999" lon="10.7235383"><ele>133.6</ele><time>2026-05-01T15:10:35.728Z</time></trkpt><trkpt lat="43.5500217" lon="10.7236617"><ele>133.0</ele><time>2026-05-01T15:10:36.728Z</time></trkpt><trkpt lat="43.5500783" lon="10.72378"><ele>131.6</ele><time>2026-05-01T15:10:37.728Z</time></trkpt><trkpt lat="43.5501383" lon="10.7239033"><ele>130.20000000000002</ele><time>2026-05-01T15:10:38.727Z</time></trkpt><trkpt lat="43.5502083" lon="10.7240183"><ele>128.8</ele><time>2026-05-01T15:10:39.727Z</time></trkpt><trkpt lat="43.550255" lon="10.724135"><ele>127.4</ele><time>2026-05-01T15:10:40.728Z</time></trkpt><trkpt lat="43.5503333" lon="10.7242167"><ele>126.0</ele><time>2026-05-01T15:10:41.727Z</time></trkpt><trkpt lat="43.550425" lon="10.7242833"><ele>126.0</ele><time>2026-05-01T15:10:42.728Z</time></trkpt><trkpt lat="43.5505367" lon="10.72432"><ele>126.0</ele><time>2026-05-01T15:10:43.727Z</time></trkpt><trkpt lat="43.550665" lon="10.7243433"><ele>126.0</ele><time>2026-05-01T15:10:44.728Z</time></trkpt><trkpt lat="43.5508183" lon="10.72438"><ele>126.0</ele><time>2026-05-01T15:10:45.727Z</time></trkpt><trkpt lat="43.551015" lon="10.7244283"><ele>118.33333333333334</ele><time>2026-05-01T15:10:46.728Z</time></trkpt><trkpt lat="43.5512067" lon="10.7244883"><ele>110.66666666666667</ele><time>2026-05-01T15:10:47.727Z</time></trkpt><trkpt lat="43.5513983" lon="10.7245483"><ele>103.0</ele><time>2026-05-01T15:10:48.727Z</time></trkpt><trkpt lat="43.5515717" lon="10.7245917"><ele>102.33333333333334</ele><time>2026-05-01T15:10:49.727Z</time></trkpt><trkpt lat="43.5517333" lon="10.724635"><ele>101.66666666666666</ele><time>2026-05-01T15:10:50.728Z</time></trkpt><trkpt lat="43.5518917" lon="10.7246317"><ele>101.0</ele><time>2026-05-01T15:10:51.728Z</time></trkpt><trkpt lat="43.5520417" lon="10.7246167"><ele>99.0</ele><time>2026-05-01T15:10:52.727Z</time></trkpt><trkpt lat="43.5522017" lon="10.72458"><ele>97.0</ele><time>2026-05-01T15:10:53.728Z</time></trkpt><trkpt lat="43.5523717" lon="10.7245483"><ele>95.0</ele><time>2026-05-01T15:10:54.728Z</time></trkpt><trkpt lat="43.55253" lon="10.7245583"><ele>95.0</ele><time>2026-05-01T15:10:55.728Z</time></trkpt><trkpt lat="43.5526883" lon="10.72459"><ele>95.0</ele><time>2026-05-01T15:10:56.727Z</time></trkpt><trkpt lat="43.5528533" lon="10.7246317"><ele>95.0</ele><time>2026-05-01T15:10:57.728Z</time></trkpt><trkpt lat="43.55302" lon="10.7246767"><ele>92.0</ele><time>2026-05-01T15:10:58.727Z</time></trkpt><trkpt lat="43.5531883" lon="10.7247267"><ele>89.0</ele><time>2026-05-01T15:10:59.728Z</time></trkpt><trkpt lat="43.5533683" lon="10.7247817"><ele>86.0</ele><time>2026-05-01T15:11:00.728Z</time></trkpt><trkpt lat="43.5535483" lon="10.7248283"><ele>84.33333333333334</ele><time>2026-05-01T15:11:01.727Z</time></trkpt><trkpt lat="43.553735" lon="10.7248683"><ele>82.66666666666667</ele><time>2026-05-01T15:11:02.728Z</time></trkpt><trkpt lat="43.5539217" lon="10.7249183"><ele>81.0</ele><time>2026-05-01T15:11:03.727Z</time></trkpt><trkpt lat="43.55411" lon="10.72496"><ele>81.0</ele><time>2026-05-01T15:11:04.727Z</time></trkpt><trkpt lat="43.554295" lon="10.7249833"><ele>81.0</ele><time>2026-05-01T15:11:05.728Z</time></trkpt><trkpt lat="43.55448" lon="10.7249917"><ele>81.0</ele><time>2026-05-01T15:11:06.728Z</time></trkpt><trkpt lat="43.55468" lon="10.7249533"><ele>78.0</ele><time>2026-05-01T15:11:07.727Z</time></trkpt><trkpt lat="43.5548617" lon="10.7249367"><ele>75.0</ele><time>2026-05-01T15:11:08.728Z</time></trkpt><trkpt lat="43.555045" lon="10.7249183"><ele>72.0</ele><time>2026-05-01T15:11:09.727Z</time></trkpt><trkpt lat="43.5552333" lon="10.7249"><ele>70.33333333333333</ele><time>2026-05-01T15:11:10.728Z</time></trkpt><trkpt lat="43.5554167" lon="10.72489"><ele>68.66666666666666</ele><time>2026-05-01T15:11:11.728Z</time></trkpt><trkpt lat="43.5555983" lon="10.72489"><ele>67.0</ele><time>2026-05-01T15:11:12.728Z</time></trkpt><trkpt lat="43.555785" lon="10.7248967"><ele>67.0</ele><time>2026-05-01T15:11:13.728Z</time></trkpt><trkpt lat="43.5559717" lon="10.7249283"><ele>67.0</ele><time>2026-05-01T15:11:14.728Z</time></trkpt><trkpt lat="43.5561583" lon="10.7249833"><ele>67.0</ele><time>2026-05-01T15:11:15.729Z</time></trkpt><trkpt lat="43.556345" lon="10.7250533"><ele>66.33333333333333</ele><time>2026-05-01T15:11:16.727Z</time></trkpt><trkpt lat="43.556525" lon="10.7251283"><ele>65.66666666666667</ele><time>2026-05-01T15:11:17.729Z</time></trkpt><trkpt lat="43.5567" lon="10.7251967"><ele>65.0</ele><time>2026-05-01T15:11:18.728Z</time></trkpt><trkpt lat="43.5568717" lon="10.7252617"><ele>60.0</ele><time>2026-05-01T15:11:19.729Z</time></trkpt><trkpt lat="43.55704" lon="10.7253367"><ele>55.0</ele><time>2026-05-01T15:11:20.729Z</time></trkpt><trkpt lat="43.5571983" lon="10.725435"><ele>50.0</ele><time>2026-05-01T15:11:21.728Z</time></trkpt><trkpt lat="43.55735" lon="10.725565"><ele>50.0</ele><time>2026-05-01T15:11:22.728Z</time></trkpt><trkpt lat="43.5574833" lon="10.7257317"><ele>50.0</ele><time>2026-05-01T15:11:23.729Z</time></trkpt><trkpt lat="43.5576067" lon="10.72592"><ele>50.0</ele><time>2026-05-01T15:11:24.727Z</time></trkpt><trkpt lat="43.5577267" lon="10.726125"><ele>49.333333333333336</ele><time>2026-05-01T15:11:25.729Z</time></trkpt><trkpt lat="43.5578517" lon="10.7263267"><ele>48.66666666666667</ele><time>2026-05-01T15:11:26.73Z</time></trkpt><trkpt lat="43.5579767" lon="10.72653"><ele>48.0</ele><time>2026-05-01T15:11:27.729Z</time></trkpt><trkpt lat="43.558105" lon="10.7267367"><ele>47.666666666666664</ele><time>2026-05-01T15:11:28.727Z</time></trkpt><trkpt lat="43.558235" lon="10.726945"><ele>47.33333333333333</ele><time>2026-05-01T15:11:29.728Z</time></trkpt><trkpt lat="43.5583683" lon="10.7271583"><ele>47.0</ele><time>2026-05-01T15:11:30.728Z</time></trkpt><trkpt lat="43.5585" lon="10.7273683"><ele>47.0</ele><time>2026-05-01T15:11:31.727Z</time></trkpt><trkpt lat="43.5586317" lon="10.7275833"><ele>47.0</ele><time>2026-05-01T15:11:32.728Z</time></trkpt><trkpt lat="43.5587633" lon="10.727795"><ele>47.0</ele><time>2026-05-01T15:11:33.727Z</time></trkpt><trkpt lat="43.5588933" lon="10.7279967"><ele>47.0</ele><time>2026-05-01T15:11:34.729Z</time></trkpt><trkpt lat="43.5590183" lon="10.7282017"><ele>47.0</ele><time>2026-05-01T15:11:35.727Z</time></trkpt><trkpt lat="43.5591433" lon="10.7284033"><ele>47.0</ele><time>2026-05-01T15:11:36.729Z</time></trkpt><trkpt lat="43.5592567" lon="10.728585"><ele>47.666666666666664</ele><time>2026-05-01T15:11:37.727Z</time></trkpt><trkpt lat="43.5593667" lon="10.7287633"><ele>48.33333333333333</ele><time>2026-05-01T15:11:38.728Z</time></trkpt><trkpt lat="43.5594767" lon="10.72894"><ele>49.0</ele><time>2026-05-01T15:11:39.727Z</time></trkpt><trkpt lat="43.5595883" lon="10.72912"><ele>47.666666666666664</ele><time>2026-05-01T15:11:40.728Z</time></trkpt><trkpt lat="43.5597017" lon="10.7292967"><ele>46.33333333333333</ele><time>2026-05-01T15:11:41.729Z</time></trkpt><trkpt lat="43.559815" lon="10.729475"><ele>45.0</ele><time>2026-05-01T15:11:42.727Z</time></trkpt><trkpt lat="43.5599283" lon="10.72965"><ele>45.0</ele><time>2026-05-01T15:11:43.727Z</time></trkpt><trkpt lat="43.5600383" lon="10.7298317"><ele>45.0</ele><time>2026-05-01T15:11:44.728Z</time></trkpt><trkpt lat="43.5601533" lon="10.73002"><ele>45.0</ele><time>2026-05-01T15:11:45.727Z</time></trkpt><trkpt lat="43.5602717" lon="10.730205"><ele>45.0</ele><time>2026-05-01T15:11:46.728Z</time></trkpt><trkpt lat="43.5603883" lon="10.7303933"><ele>45.0</ele><time>2026-05-01T15:11:47.728Z</time></trkpt><trkpt lat="43.5605117" lon="10.730585"><ele>45.0</ele><time>2026-05-01T15:11:48.728Z</time></trkpt><trkpt lat="43.5606317" lon="10.7307767"><ele>45.0</ele><time>2026-05-01T15:11:49.726Z</time></trkpt><trkpt lat="43.5607483" lon="10.7309667"><ele>45.0</ele><time>2026-05-01T15:11:50.727Z</time></trkpt><trkpt lat="43.5608683" lon="10.73116"><ele>45.0</ele><time>2026-05-01T15:11:51.727Z</time></trkpt><trkpt lat="43.5609933" lon="10.731355"><ele>45.0</ele><time>2026-05-01T15:11:52.727Z</time></trkpt><trkpt lat="43.5611167" lon="10.73155"><ele>45.0</ele><time>2026-05-01T15:11:53.726Z</time></trkpt><trkpt lat="43.56124" lon="10.7317483"><ele>45.0</ele><time>2026-05-01T15:11:54.728Z</time></trkpt><trkpt lat="43.5613617" lon="10.7319467"><ele>45.0</ele><time>2026-05-01T15:11:55.727Z</time></trkpt><trkpt lat="43.5614817" lon="10.7321383"><ele>45.0</ele><time>2026-05-01T15:11:56.728Z</time></trkpt><trkpt lat="43.5616017" lon="10.7323283"><ele>45.0</ele><time>2026-05-01T15:11:57.725Z</time></trkpt><trkpt lat="43.5617283" lon="10.7325233"><ele>45.0</ele><time>2026-05-01T15:11:58.727Z</time></trkpt><trkpt lat="43.5618517" lon="10.7327183"><ele>45.0</ele><time>2026-05-01T15:11:59.727Z</time></trkpt><trkpt lat="43.5619817" lon="10.7329083"><ele>45.0</ele><time>2026-05-01T15:12:00.727Z</time></trkpt><trkpt lat="43.5621067" lon="10.7331033"><ele>45.666666666666664</ele><time>2026-05-01T15:12:01.728Z</time></trkpt><trkpt lat="43.5622317" lon="10.7333"><ele>46.33333333333333</ele><time>2026-05-01T15:12:02.727Z</time></trkpt><trkpt lat="43.5623533" lon="10.7335"><ele>47.0</ele><time>2026-05-01T15:12:03.728Z</time></trkpt><trkpt lat="43.5624783" lon="10.7337033"><ele>47.0</ele><time>2026-05-01T15:12:04.726Z</time></trkpt><trkpt lat="43.5626067" lon="10.7339083"><ele>47.0</ele><time>2026-05-01T15:12:05.728Z</time></trkpt><trkpt lat="43.5627333" lon="10.7341183"><ele>47.0</ele><time>2026-05-01T15:12:06.727Z</time></trkpt><trkpt lat="43.5628617" lon="10.7343233"><ele>47.33333333333333</ele><time>2026-05-01T15:12:07.728Z</time></trkpt><trkpt lat="43.5629867" lon="10.7345333"><ele>47.666666666666664</ele><time>2026-05-01T15:12:08.728Z</time></trkpt><trkpt lat="43.5631017" lon="10.73475"><ele>48.0</ele><time>2026-05-01T15:12:09.726Z</time></trkpt><trkpt lat="43.56321" lon="10.7349883"><ele>47.666666666666664</ele><time>2026-05-01T15:12:10.727Z</time></trkpt><trkpt lat="43.5633133" lon="10.7352267"><ele>47.33333333333333</ele><time>2026-05-01T15:12:11.727Z</time></trkpt><trkpt lat="43.563415" lon="10.7354667"><ele>47.0</ele><time>2026-05-01T15:12:12.727Z</time></trkpt><trkpt lat="43.5635167" lon="10.7357033"><ele>47.0</ele><time>2026-05-01T15:12:13.727Z</time></trkpt><trkpt lat="43.5636233" lon="10.7359483"><ele>47.0</ele><time>2026-05-01T15:12:14.728Z</time></trkpt><trkpt lat="43.5637267" lon="10.7361867"><ele>47.0</ele><time>2026-05-01T15:12:15.727Z</time></trkpt><trkpt lat="43.5638267" lon="10.7364267"><ele>47.33333333333333</ele><time>2026-05-01T15:12:16.727Z</time></trkpt><trkpt lat="43.563925" lon="10.7366617"><ele>47.666666666666664</ele><time>2026-05-01T15:12:17.727Z</time></trkpt><trkpt lat="43.564025" lon="10.7368967"><ele>48.0</ele><time>2026-05-01T15:12:18.726Z</time></trkpt><trkpt lat="43.5641217" lon="10.73713"><ele>48.0</ele><time>2026-05-01T15:12:19.728Z</time></trkpt><trkpt lat="43.5642133" lon="10.7373533"><ele>48.0</ele><time>2026-05-01T15:12:20.728Z</time></trkpt><trkpt lat="43.5643083" lon="10.7375733"><ele>48.0</ele><time>2026-05-01T15:12:21.727Z</time></trkpt><trkpt lat="43.564395" lon="10.7377867"><ele>48.0</ele><time>2026-05-01T15:12:22.726Z</time></trkpt><trkpt lat="43.5644817" lon="10.7379933"><ele>48.0</ele><time>2026-05-01T15:12:23.728Z</time></trkpt><trkpt lat="43.5645617" lon="10.7381833"><ele>48.0</ele><time>2026-05-01T15:12:24.727Z</time></trkpt><trkpt lat="43.5646317" lon="10.73836"><ele>48.25</ele><time>2026-05-01T15:12:25.729Z</time></trkpt><trkpt lat="43.5647033" lon="10.73853"><ele>48.5</ele><time>2026-05-01T15:12:26.727Z</time></trkpt><trkpt lat="43.56478" lon="10.7386867"><ele>48.75</ele><time>2026-05-01T15:12:27.727Z</time></trkpt><trkpt lat="43.5648567" lon="10.7388167"><ele>49.0</ele><time>2026-05-01T15:12:28.728Z</time></trkpt><trkpt lat="43.5649333" lon="10.7389383"><ele>49.400000000000006</ele><time>2026-05-01T15:12:29.727Z</time></trkpt><trkpt lat="43.5650033" lon="10.7390467"><ele>49.8</ele><time>2026-05-01T15:12:30.728Z</time></trkpt><trkpt lat="43.5650667" lon="10.7391567"><ele>50.2</ele><time>2026-05-01T15:12:31.728Z</time></trkpt><trkpt lat="43.5650867" lon="10.73927"><ele>50.599999999999994</ele><time>2026-05-01T15:12:32.727Z</time></trkpt><trkpt lat="43.5650867" lon="10.739395"><ele>51.0</ele><time>2026-05-01T15:12:33.728Z</time></trkpt><trkpt lat="43.5650417" lon="10.7395233"><ele>51.5</ele><time>2026-05-01T15:12:34.727Z</time></trkpt><trkpt lat="43.5649783" lon="10.7396567"><ele>52.0</ele><time>2026-05-01T15:12:35.727Z</time></trkpt><trkpt lat="43.5648883" lon="10.7398117"><ele>52.5</ele><time>2026-05-01T15:12:36.727Z</time></trkpt><trkpt lat="43.5647783" lon="10.7399917"><ele>53.0</ele><time>2026-05-01T15:12:37.726Z</time></trkpt><trkpt lat="43.5646567" lon="10.7401867"><ele>53.0</ele><time>2026-05-01T15:12:38.727Z</time></trkpt><trkpt lat="43.5645317" lon="10.7403983"><ele>53.0</ele><time>2026-05-01T15:12:39.727Z</time></trkpt><trkpt lat="43.5644017" lon="10.740625"><ele>53.0</ele><time>2026-05-01T15:12:40.727Z</time></trkpt><trkpt lat="43.56427" lon="10.74086"><ele>54.333333333333336</ele><time>2026-05-01T15:12:41.727Z</time></trkpt><trkpt lat="43.5641317" lon="10.7411"><ele>55.66666666666667</ele><time>2026-05-01T15:12:42.727Z</time></trkpt><trkpt lat="43.5639933" lon="10.7413467"><ele>57.0</ele><time>2026-05-01T15:12:43.727Z</time></trkpt><trkpt lat="43.5638583" lon="10.7415933"><ele>57.0</ele><time>2026-05-01T15:12:44.729Z</time></trkpt><trkpt lat="43.5637183" lon="10.74184"><ele>57.0</ele><time>2026-05-01T15:12:45.727Z</time></trkpt><trkpt lat="43.5635833" lon="10.74209"><ele>56.0</ele><time>2026-05-01T15:12:46.727Z</time></trkpt><trkpt lat="43.5634467" lon="10.74234"><ele>55.0</ele><time>2026-05-01T15:12:47.728Z</time></trkpt><trkpt lat="43.563305" lon="10.74259"><ele>56.5</ele><time>2026-05-01T15:12:48.727Z</time></trkpt><trkpt lat="43.563165" lon="10.74284"><ele>58.0</ele><time>2026-05-01T15:12:49.729Z</time></trkpt><trkpt lat="43.5630217" lon="10.7430917"><ele>58.0</ele><time>2026-05-01T15:12:50.726Z</time></trkpt><trkpt lat="43.56288" lon="10.74334"><ele>58.0</ele><time>2026-05-01T15:12:51.727Z</time></trkpt><trkpt lat="43.5627383" lon="10.7435833"><ele>57.0</ele><time>2026-05-01T15:12:52.729Z</time></trkpt><trkpt lat="43.5626033" lon="10.743825"><ele>56.0</ele><time>2026-05-01T15:12:53.727Z</time></trkpt><trkpt lat="43.5624783" lon="10.744085"><ele>55.0</ele><time>2026-05-01T15:12:54.728Z</time></trkpt><trkpt lat="43.5623667" lon="10.7443583"><ele>56.0</ele><time>2026-05-01T15:12:55.727Z</time></trkpt><trkpt lat="43.56228" lon="10.7446383"><ele>57.0</ele><time>2026-05-01T15:12:56.73Z</time></trkpt><trkpt lat="43.56221" lon="10.7449317"><ele>58.0</ele><time>2026-05-01T15:12:57.725Z</time></trkpt><trkpt lat="43.5621667" lon="10.7452333"><ele>58.0</ele><time>2026-05-01T15:12:58.726Z</time></trkpt><trkpt lat="43.5621433" lon="10.7455417"><ele>58.0</ele><time>2026-05-01T15:12:59.727Z</time></trkpt><trkpt lat="43.5621483" lon="10.7458767"><ele>56.666666666666664</ele><time>2026-05-01T15:13:00.728Z</time></trkpt><trkpt lat="43.5621467" lon="10.7461833"><ele>55.33333333333333</ele><time>2026-05-01T15:13:01.729Z</time></trkpt><trkpt lat="43.5621633" lon="10.7464883"><ele>54.0</ele><time>2026-05-01T15:13:02.727Z</time></trkpt><trkpt lat="43.5622017" lon="10.7467883"><ele>53.33333333333333</ele><time>2026-05-01T15:13:03.726Z</time></trkpt><trkpt lat="43.5622567" lon="10.7470717"><ele>52.666666666666664</ele><time>2026-05-01T15:13:04.728Z</time></trkpt><trkpt lat="43.5623283" lon="10.7473483"><ele>52.0</ele><time>2026-05-01T15:13:05.726Z</time></trkpt><trkpt lat="43.5624183" lon="10.7476167"><ele>52.33333333333333</ele><time>2026-05-01T15:13:06.726Z</time></trkpt><trkpt lat="43.562515" lon="10.7478917"><ele>52.66666666666667</ele><time>2026-05-01T15:13:07.728Z</time></trkpt><trkpt lat="43.56261" lon="10.74817"><ele>53.0</ele><time>2026-05-01T15:13:08.726Z</time></trkpt><trkpt lat="43.5627017" lon="10.7484467"><ele>52.66666666666667</ele><time>2026-05-01T15:13:09.728Z</time></trkpt><trkpt lat="43.562795" lon="10.74872"><ele>52.33333333333333</ele><time>2026-05-01T15:13:10.726Z</time></trkpt><trkpt lat="43.56289" lon="10.7489983"><ele>52.0</ele><time>2026-05-01T15:13:11.728Z</time></trkpt><trkpt lat="43.5629883" lon="10.7492783"><ele>54.5</ele><time>2026-05-01T15:13:12.727Z</time></trkpt><trkpt lat="43.5630867" lon="10.7495633"><ele>57.0</ele><time>2026-05-01T15:13:13.727Z</time></trkpt><trkpt lat="43.5631833" lon="10.74984"><ele>57.0</ele><time>2026-05-01T15:13:14.727Z</time></trkpt><trkpt lat="43.5632817" lon="10.7501183"><ele>57.0</ele><time>2026-05-01T15:13:15.727Z</time></trkpt><trkpt lat="43.5633833" lon="10.7503967"><ele>55.0</ele><time>2026-05-01T15:13:16.727Z</time></trkpt><trkpt lat="43.56348" lon="10.75068"><ele>53.0</ele><time>2026-05-01T15:13:17.727Z</time></trkpt><trkpt lat="43.563575" lon="10.7509633"><ele>53.0</ele><time>2026-05-01T15:13:18.726Z</time></trkpt><trkpt lat="43.5636667" lon="10.7512433"><ele>53.0</ele><time>2026-05-01T15:13:19.728Z</time></trkpt><trkpt lat="43.5637583" lon="10.75152"><ele>53.0</ele><time>2026-05-01T15:13:20.727Z</time></trkpt><trkpt lat="43.56385" lon="10.7517967"><ele>55.333333333333336</ele><time>2026-05-01T15:13:21.727Z</time></trkpt><trkpt lat="43.5639417" lon="10.752075"><ele>57.66666666666667</ele><time>2026-05-01T15:13:22.727Z</time></trkpt><trkpt lat="43.56403" lon="10.7523483"><ele>60.0</ele><time>2026-05-01T15:13:23.727Z</time></trkpt><trkpt lat="43.5641217" lon="10.7526183"><ele>58.0</ele><time>2026-05-01T15:13:24.727Z</time></trkpt><trkpt lat="43.5642283" lon="10.7528733"><ele>56.0</ele><time>2026-05-01T15:13:25.727Z</time></trkpt><trkpt lat="43.56435" lon="10.7531183"><ele>54.0</ele><time>2026-05-01T15:13:26.729Z</time></trkpt><trkpt lat="43.5644867" lon="10.7533467"><ele>55.0</ele><time>2026-05-01T15:13:27.728Z</time></trkpt><trkpt lat="43.5646383" lon="10.7535533"><ele>56.0</ele><time>2026-05-01T15:13:28.727Z</time></trkpt><trkpt lat="43.5648117" lon="10.7537467"><ele>57.0</ele><time>2026-05-01T15:13:29.728Z</time></trkpt><trkpt lat="43.564995" lon="10.7539217"><ele>57.0</ele><time>2026-05-01T15:13:30.727Z</time></trkpt><trkpt lat="43.5651783" lon="10.7541"><ele>57.0</ele><time>2026-05-01T15:13:31.728Z</time></trkpt><trkpt lat="43.565365" lon="10.754265"><ele>57.0</ele><time>2026-05-01T15:13:32.728Z</time></trkpt><trkpt lat="43.5655517" lon="10.7544317"><ele>56.66666666666667</ele><time>2026-05-01T15:13:33.728Z</time></trkpt><trkpt lat="43.5657383" lon="10.7545983"><ele>56.333333333333336</ele><time>2026-05-01T15:13:34.727Z</time></trkpt><trkpt lat="43.56593" lon="10.754755"><ele>56.0</ele><time>2026-05-01T15:13:35.727Z</time></trkpt><trkpt lat="43.5661233" lon="10.7549067"><ele>56.66666666666667</ele><time>2026-05-01T15:13:36.728Z</time></trkpt><trkpt lat="43.5663117" lon="10.7550567"><ele>57.33333333333333</ele><time>2026-05-01T15:13:37.727Z</time></trkpt><trkpt lat="43.5665017" lon="10.7552067"><ele>58.0</ele><time>2026-05-01T15:13:38.726Z</time></trkpt><trkpt lat="43.5666883" lon="10.755365"><ele>58.0</ele><time>2026-05-01T15:13:39.727Z</time></trkpt><trkpt lat="43.5668767" lon="10.7555217"><ele>58.0</ele><time>2026-05-01T15:13:40.727Z</time></trkpt><trkpt lat="43.567065" lon="10.7556767"><ele>58.0</ele><time>2026-05-01T15:13:41.727Z</time></trkpt><trkpt lat="43.5672517" lon="10.7558317"><ele>58.0</ele><time>2026-05-01T15:13:42.728Z</time></trkpt><trkpt lat="43.5674383" lon="10.7559867"><ele>58.0</ele><time>2026-05-01T15:13:43.727Z</time></trkpt><trkpt lat="43.5676233" lon="10.756135"><ele>58.0</ele><time>2026-05-01T15:13:44.728Z</time></trkpt><trkpt lat="43.5678067" lon="10.7562833"><ele>58.33333333333333</ele><time>2026-05-01T15:13:45.727Z</time></trkpt><trkpt lat="43.5679917" lon="10.7564367"><ele>58.66666666666667</ele><time>2026-05-01T15:13:46.726Z</time></trkpt><trkpt lat="43.568175" lon="10.7565917"><ele>59.0</ele><time>2026-05-01T15:13:47.727Z</time></trkpt><trkpt lat="43.5683617" lon="10.7567383"><ele>58.333333333333336</ele><time>2026-05-01T15:13:48.726Z</time></trkpt><trkpt lat="43.5685467" lon="10.756885"><ele>57.66666666666667</ele><time>2026-05-01T15:13:49.726Z</time></trkpt><trkpt lat="43.5687317" lon="10.7570383"><ele>57.0</ele><time>2026-05-01T15:13:50.727Z</time></trkpt><trkpt lat="43.5689167" lon="10.7571883"><ele>57.0</ele><time>2026-05-01T15:13:51.727Z</time></trkpt><trkpt lat="43.5691033" lon="10.757345"><ele>57.0</ele><time>2026-05-01T15:13:52.728Z</time></trkpt><trkpt lat="43.56929" lon="10.7575033"><ele>57.0</ele><time>2026-05-01T15:13:53.727Z</time></trkpt><trkpt lat="43.5694767" lon="10.7576583"><ele>58.0</ele><time>2026-05-01T15:13:54.727Z</time></trkpt><trkpt lat="43.5696617" lon="10.75781"><ele>59.0</ele><time>2026-05-01T15:13:55.727Z</time></trkpt><trkpt lat="43.5698467" lon="10.7579583"><ele>60.0</ele><time>2026-05-01T15:13:56.729Z</time></trkpt><trkpt lat="43.5700333" lon="10.75811"><ele>60.0</ele><time>2026-05-01T15:13:57.727Z</time></trkpt><trkpt lat="43.5702233" lon="10.758265"><ele>60.0</ele><time>2026-05-01T15:13:58.728Z</time></trkpt><trkpt lat="43.5704117" lon="10.7584217"><ele>60.0</ele><time>2026-05-01T15:13:59.726Z</time></trkpt><trkpt lat="43.5706017" lon="10.7585867"><ele>59.33333333333333</ele><time>2026-05-01T15:14:00.727Z</time></trkpt><trkpt lat="43.5707883" lon="10.7587533"><ele>58.666666666666664</ele><time>2026-05-01T15:14:01.729Z</time></trkpt><trkpt lat="43.57097" lon="10.7589133"><ele>58.0</ele><time>2026-05-01T15:14:02.728Z</time></trkpt><trkpt lat="43.5711467" lon="10.7590867"><ele>58.33333333333333</ele><time>2026-05-01T15:14:03.727Z</time></trkpt><trkpt lat="43.5713183" lon="10.759265"><ele>58.66666666666667</ele><time>2026-05-01T15:14:04.728Z</time></trkpt><trkpt lat="43.571485" lon="10.7594583"><ele>59.0</ele><time>2026-05-01T15:14:05.727Z</time></trkpt><trkpt lat="43.5716433" lon="10.7596583"><ele>59.0</ele><time>2026-05-01T15:14:06.726Z</time></trkpt><trkpt lat="43.5717933" lon="10.75987"><ele>59.0</ele><time>2026-05-01T15:14:07.728Z</time></trkpt><trkpt lat="43.5719417" lon="10.7600883"><ele>59.0</ele><time>2026-05-01T15:14:08.729Z</time></trkpt><trkpt lat="43.5720917" lon="10.760305"><ele>59.333333333333336</ele><time>2026-05-01T15:14:09.728Z</time></trkpt><trkpt lat="43.572245" lon="10.7605267"><ele>59.66666666666667</ele><time>2026-05-01T15:14:10.728Z</time></trkpt><trkpt lat="43.572395" lon="10.7607433"><ele>60.0</ele><time>2026-05-01T15:14:11.727Z</time></trkpt><trkpt lat="43.572545" lon="10.7609617"><ele>59.33333333333333</ele><time>2026-05-01T15:14:12.727Z</time></trkpt><trkpt lat="43.5726983" lon="10.7611833"><ele>58.666666666666664</ele><time>2026-05-01T15:14:13.727Z</time></trkpt><trkpt lat="43.57285" lon="10.7614067"><ele>58.0</ele><time>2026-05-01T15:14:14.726Z</time></trkpt><trkpt lat="43.5730033" lon="10.76163"><ele>58.0</ele><time>2026-05-01T15:14:15.727Z</time></trkpt><trkpt lat="43.5731533" lon="10.7618517"><ele>58.0</ele><time>2026-05-01T15:14:16.727Z</time></trkpt><trkpt lat="43.5733083" lon="10.762085"><ele>58.0</ele><time>2026-05-01T15:14:17.728Z</time></trkpt><trkpt lat="43.57346" lon="10.7623133"><ele>58.0</ele><time>2026-05-01T15:14:18.728Z</time></trkpt><trkpt lat="43.5736133" lon="10.7625417"><ele>58.0</ele><time>2026-05-01T15:14:19.728Z</time></trkpt><trkpt lat="43.5737683" lon="10.762765"><ele>60.0</ele><time>2026-05-01T15:14:20.729Z</time></trkpt><trkpt lat="43.5739167" lon="10.7629783"><ele>62.0</ele><time>2026-05-01T15:14:21.727Z</time></trkpt><trkpt lat="43.5740633" lon="10.763195"><ele>64.0</ele><time>2026-05-01T15:14:22.727Z</time></trkpt><trkpt lat="43.5742133" lon="10.7634117"><ele>64.0</ele><time>2026-05-01T15:14:23.727Z</time></trkpt><trkpt lat="43.5743667" lon="10.76363"><ele>64.0</ele><time>2026-05-01T15:14:24.729Z</time></trkpt><trkpt lat="43.5745283" lon="10.76386"><ele>64.0</ele><time>2026-05-01T15:14:25.728Z</time></trkpt><trkpt lat="43.5746967" lon="10.7640917"><ele>64.0</ele><time>2026-05-01T15:14:26.728Z</time></trkpt><trkpt lat="43.5748767" lon="10.76433"><ele>62.0</ele><time>2026-05-01T15:14:27.726Z</time></trkpt><trkpt lat="43.57506" lon="10.7645667"><ele>60.0</ele><time>2026-05-01T15:14:28.727Z</time></trkpt><trkpt lat="43.575245" lon="10.7648017"><ele>60.0</ele><time>2026-05-01T15:14:29.727Z</time></trkpt><trkpt lat="43.57544" lon="10.765045"><ele>60.0</ele><time>2026-05-01T15:14:30.726Z</time></trkpt><trkpt lat="43.5756367" lon="10.76529"><ele>60.0</ele><time>2026-05-01T15:14:31.728Z</time></trkpt><trkpt lat="43.575835" lon="10.7655383"><ele>60.0</ele><time>2026-05-01T15:14:32.728Z</time></trkpt><trkpt lat="43.5760317" lon="10.7657883"><ele>60.0</ele><time>2026-05-01T15:14:33.727Z</time></trkpt><trkpt lat="43.5762233" lon="10.7660467"><ele>60.0</ele><time>2026-05-01T15:14:34.727Z</time></trkpt><trkpt lat="43.57641" lon="10.7663017"><ele>60.0</ele><time>2026-05-01T15:14:35.728Z</time></trkpt><trkpt lat="43.576595" lon="10.7665517"><ele>60.0</ele><time>2026-05-01T15:14:36.728Z</time></trkpt><trkpt lat="43.5767783" lon="10.7667933"><ele>59.5</ele><time>2026-05-01T15:14:37.728Z</time></trkpt><trkpt lat="43.5769583" lon="10.76703"><ele>59.0</ele><time>2026-05-01T15:14:38.729Z</time></trkpt><trkpt lat="43.5771367" lon="10.7672633"><ele>61.0</ele><time>2026-05-01T15:14:39.727Z</time></trkpt><trkpt lat="43.5773117" lon="10.7674917"><ele>63.0</ele><time>2026-05-01T15:14:40.728Z</time></trkpt><trkpt lat="43.5774783" lon="10.7677067"><ele>63.0</ele><time>2026-05-01T15:14:41.726Z</time></trkpt><trkpt lat="43.57764" lon="10.76792"><ele>63.0</ele><time>2026-05-01T15:14:42.728Z</time></trkpt><trkpt lat="43.5777967" lon="10.76814"><ele>63.0</ele><time>2026-05-01T15:14:43.728Z</time></trkpt><trkpt lat="43.577935" lon="10.768375"><ele>63.0</ele><time>2026-05-01T15:14:44.728Z</time></trkpt><trkpt lat="43.5780617" lon="10.7686283"><ele>63.0</ele><time>2026-05-01T15:14:45.727Z</time></trkpt><trkpt lat="43.5781833" lon="10.7689"><ele>63.0</ele><time>2026-05-01T15:14:46.727Z</time></trkpt><trkpt lat="43.578305" lon="10.76917"><ele>63.0</ele><time>2026-05-01T15:14:47.727Z</time></trkpt><trkpt lat="43.57844" lon="10.76945"><ele>62.5</ele><time>2026-05-01T15:14:48.728Z</time></trkpt><trkpt lat="43.57857" lon="10.7697217"><ele>62.0</ele><time>2026-05-01T15:14:49.727Z</time></trkpt><trkpt lat="43.5786983" lon="10.7700033"><ele>62.5</ele><time>2026-05-01T15:14:50.727Z</time></trkpt><trkpt lat="43.5788283" lon="10.770295"><ele>63.0</ele><time>2026-05-01T15:14:51.726Z</time></trkpt><trkpt lat="43.5789567" lon="10.7705867"><ele>63.0</ele><time>2026-05-01T15:14:52.728Z</time></trkpt><trkpt lat="43.5790883" lon="10.7708767"><ele>63.0</ele><time>2026-05-01T15:14:53.727Z</time></trkpt><trkpt lat="43.5792217" lon="10.77117"><ele>63.0</ele><time>2026-05-01T15:14:54.728Z</time></trkpt><trkpt lat="43.5793533" lon="10.7714633"><ele>63.0</ele><time>2026-05-01T15:14:55.728Z</time></trkpt><trkpt lat="43.5794867" lon="10.77176"><ele>65.0</ele><time>2026-05-01T15:14:56.727Z</time></trkpt><trkpt lat="43.5796233" lon="10.7720533"><ele>67.0</ele><time>2026-05-01T15:14:57.726Z</time></trkpt><trkpt lat="43.57976" lon="10.7723483"><ele>67.0</ele><time>2026-05-01T15:14:58.728Z</time></trkpt><trkpt lat="43.5799" lon="10.772635"><ele>67.0</ele><time>2026-05-01T15:14:59.726Z</time></trkpt><trkpt lat="43.58004" lon="10.7729267"><ele>65.0</ele><time>2026-05-01T15:15:00.728Z</time></trkpt><trkpt lat="43.5801833" lon="10.7732117"><ele>63.0</ele><time>2026-05-01T15:15:01.729Z</time></trkpt><trkpt lat="43.5803283" lon="10.773495"><ele>64.5</ele><time>2026-05-01T15:15:02.728Z</time></trkpt><trkpt lat="43.5804683" lon="10.7737783"><ele>66.0</ele><time>2026-05-01T15:15:03.727Z</time></trkpt><trkpt lat="43.58061" lon="10.7740533"><ele>66.0</ele><time>2026-05-01T15:15:04.727Z</time></trkpt><trkpt lat="43.580745" lon="10.7743267"><ele>66.0</ele><time>2026-05-01T15:15:05.727Z</time></trkpt><trkpt lat="43.5808717" lon="10.7745917"><ele>66.33333333333333</ele><time>2026-05-01T15:15:06.728Z</time></trkpt><trkpt lat="43.580995" lon="10.77485"><ele>66.66666666666666</ele><time>2026-05-01T15:15:07.727Z</time></trkpt><trkpt lat="43.58112" lon="10.775105"><ele>67.0</ele><time>2026-05-01T15:15:08.728Z</time></trkpt><trkpt lat="43.5812467" lon="10.7753617"><ele>67.0</ele><time>2026-05-01T15:15:09.727Z</time></trkpt><trkpt lat="43.5813717" lon="10.7756133"><ele>67.0</ele><time>2026-05-01T15:15:10.728Z</time></trkpt><trkpt lat="43.5815017" lon="10.77587"><ele>67.0</ele><time>2026-05-01T15:15:11.728Z</time></trkpt><trkpt lat="43.5816283" lon="10.77613"><ele>65.5</ele><time>2026-05-01T15:15:12.727Z</time></trkpt><trkpt lat="43.5817583" lon="10.7763933"><ele>64.0</ele><time>2026-05-01T15:15:13.727Z</time></trkpt><trkpt lat="43.5818883" lon="10.7766533"><ele>63.0</ele><time>2026-05-01T15:15:14.728Z</time></trkpt><trkpt lat="43.58202" lon="10.77691"><ele>62.0</ele><time>2026-05-01T15:15:15.728Z</time></trkpt><trkpt lat="43.5821417" lon="10.7771833"><ele>62.0</ele><time>2026-05-01T15:15:16.726Z</time></trkpt><trkpt lat="43.5822533" lon="10.77747"><ele>62.0</ele><time>2026-05-01T15:15:17.727Z</time></trkpt><trkpt lat="43.5823617" lon="10.777755"><ele>61.5</ele><time>2026-05-01T15:15:18.727Z</time></trkpt><trkpt lat="43.5824767" lon="10.7780383"><ele>61.0</ele><time>2026-05-01T15:15:19.728Z</time></trkpt><trkpt lat="43.582595" lon="10.778325"><ele>62.0</ele><time>2026-05-01T15:15:20.728Z</time></trkpt><trkpt lat="43.5827133" lon="10.7786133"><ele>63.0</ele><time>2026-05-01T15:15:21.727Z</time></trkpt><trkpt lat="43.582835" lon="10.7789"><ele>63.5</ele><time>2026-05-01T15:15:22.728Z</time></trkpt><trkpt lat="43.5829567" lon="10.7791883"><ele>64.0</ele><time>2026-05-01T15:15:23.728Z</time></trkpt><trkpt lat="43.5830783" lon="10.7794833"><ele>64.0</ele><time>2026-05-01T15:15:24.727Z</time></trkpt><trkpt lat="43.5831983" lon="10.779775"><ele>64.0</ele><time>2026-05-01T15:15:25.727Z</time></trkpt><trkpt lat="43.583315" lon="10.78007"><ele>63.5</ele><time>2026-05-01T15:15:26.729Z</time></trkpt><trkpt lat="43.5834333" lon="10.780365"><ele>63.0</ele><time>2026-05-01T15:15:27.728Z</time></trkpt><trkpt lat="43.5835533" lon="10.78065"><ele>63.0</ele><time>2026-05-01T15:15:28.729Z</time></trkpt><trkpt lat="43.583675" lon="10.78093"><ele>63.0</ele><time>2026-05-01T15:15:29.728Z</time></trkpt><trkpt lat="43.58379" lon="10.7812067"><ele>64.0</ele><time>2026-05-01T15:15:30.728Z</time></trkpt><trkpt lat="43.5839" lon="10.7814733"><ele>65.0</ele><time>2026-05-01T15:15:31.728Z</time></trkpt><trkpt lat="43.584" lon="10.7817433"><ele>66.0</ele><time>2026-05-01T15:15:32.727Z</time></trkpt><trkpt lat="43.58407" lon="10.7820133"><ele>66.0</ele><time>2026-05-01T15:15:33.728Z</time></trkpt><trkpt lat="43.5841083" lon="10.782285"><ele>66.0</ele><time>2026-05-01T15:15:34.727Z</time></trkpt><trkpt lat="43.5841067" lon="10.78256"><ele>66.0</ele><time>2026-05-01T15:15:35.727Z</time></trkpt><trkpt lat="43.58408" lon="10.7828383"><ele>66.0</ele><time>2026-05-01T15:15:36.728Z</time></trkpt><trkpt lat="43.58405" lon="10.78312"><ele>66.0</ele><time>2026-05-01T15:15:37.727Z</time></trkpt><trkpt lat="43.5840133" lon="10.7834117"><ele>66.0</ele><time>2026-05-01T15:15:38.729Z</time></trkpt><trkpt lat="43.58398" lon="10.7837067"><ele>66.0</ele><time>2026-05-01T15:15:39.729Z</time></trkpt><trkpt lat="43.5839467" lon="10.7840083"><ele>66.0</ele><time>2026-05-01T15:15:40.727Z</time></trkpt><trkpt lat="43.5839117" lon="10.7843133"><ele>66.0</ele><time>2026-05-01T15:15:41.728Z</time></trkpt><trkpt lat="43.5838767" lon="10.78462"><ele>66.0</ele><time>2026-05-01T15:15:42.728Z</time></trkpt><trkpt lat="43.5838433" lon="10.784925"><ele>66.0</ele><time>2026-05-01T15:15:43.727Z</time></trkpt><trkpt lat="43.5838083" lon="10.7852317"><ele>66.0</ele><time>2026-05-01T15:15:44.73Z</time></trkpt><trkpt lat="43.5837717" lon="10.7855367"><ele>66.0</ele><time>2026-05-01T15:15:45.727Z</time></trkpt><trkpt lat="43.5837333" lon="10.7858417"><ele>66.0</ele><time>2026-05-01T15:15:46.729Z</time></trkpt><trkpt lat="43.5836983" lon="10.7861433"><ele>66.0</ele><time>2026-05-01T15:15:47.728Z</time></trkpt><trkpt lat="43.5836633" lon="10.786445"><ele>66.0</ele><time>2026-05-01T15:15:48.728Z</time></trkpt><trkpt lat="43.58363" lon="10.786745"><ele>66.0</ele><time>2026-05-01T15:15:49.728Z</time></trkpt><trkpt lat="43.5835917" lon="10.7870383"><ele>66.0</ele><time>2026-05-01T15:15:50.727Z</time></trkpt><trkpt lat="43.5835517" lon="10.7873267"><ele>66.33333333333333</ele><time>2026-05-01T15:15:51.728Z</time></trkpt><trkpt lat="43.58352" lon="10.78761"><ele>66.66666666666666</ele><time>2026-05-01T15:15:52.73Z</time></trkpt><trkpt lat="43.5834833" lon="10.7878883"><ele>67.0</ele><time>2026-05-01T15:15:53.727Z</time></trkpt><trkpt lat="43.5834517" lon="10.7881617"><ele>67.0</ele><time>2026-05-01T15:15:54.728Z</time></trkpt><trkpt lat="43.5834233" lon="10.7884317"><ele>67.0</ele><time>2026-05-01T15:15:55.729Z</time></trkpt><trkpt lat="43.583395" lon="10.7887017"><ele>67.0</ele><time>2026-05-01T15:15:56.728Z</time></trkpt><trkpt lat="43.5833667" lon="10.7889683"><ele>67.33333333333333</ele><time>2026-05-01T15:15:57.727Z</time></trkpt><trkpt lat="43.5833383" lon="10.7892283"><ele>67.66666666666667</ele><time>2026-05-01T15:15:58.727Z</time></trkpt><trkpt lat="43.5833017" lon="10.7894833"><ele>68.0</ele><time>2026-05-01T15:15:59.728Z</time></trkpt><trkpt lat="43.5832533" lon="10.789735"><ele>69.0</ele><time>2026-05-01T15:16:00.728Z</time></trkpt><trkpt lat="43.5831933" lon="10.7899817"><ele>70.0</ele><time>2026-05-01T15:16:01.728Z</time></trkpt><trkpt lat="43.5831267" lon="10.79023"><ele>71.0</ele><time>2026-05-01T15:16:02.73Z</time></trkpt><trkpt lat="43.583055" lon="10.7904833"><ele>71.0</ele><time>2026-05-01T15:16:03.726Z</time></trkpt><trkpt lat="43.5829833" lon="10.79074"><ele>71.0</ele><time>2026-05-01T15:16:04.727Z</time></trkpt><trkpt lat="43.5829067" lon="10.7910033"><ele>71.0</ele><time>2026-05-01T15:16:05.728Z</time></trkpt><trkpt lat="43.58283" lon="10.7912733"><ele>71.0</ele><time>2026-05-01T15:16:06.728Z</time></trkpt><trkpt lat="43.58275" lon="10.791555"><ele>71.0</ele><time>2026-05-01T15:16:07.728Z</time></trkpt><trkpt lat="43.5826733" lon="10.7918417"><ele>71.0</ele><time>2026-05-01T15:16:08.727Z</time></trkpt><trkpt lat="43.5825933" lon="10.7921317"><ele>71.33333333333334</ele><time>2026-05-01T15:16:09.728Z</time></trkpt><trkpt lat="43.582515" lon="10.7924233"><ele>71.66666666666667</ele><time>2026-05-01T15:16:10.727Z</time></trkpt><trkpt lat="43.58244" lon="10.792715"><ele>72.0</ele><time>2026-05-01T15:16:11.728Z</time></trkpt><trkpt lat="43.5823633" lon="10.793"><ele>72.0</ele><time>2026-05-01T15:16:12.727Z</time></trkpt><trkpt lat="43.5822817" lon="10.7932967"><ele>72.0</ele><time>2026-05-01T15:16:13.728Z</time></trkpt><trkpt lat="43.5822" lon="10.793585"><ele>72.66666666666667</ele><time>2026-05-01T15:16:14.728Z</time></trkpt><trkpt lat="43.5821217" lon="10.7938583"><ele>73.33333333333334</ele><time>2026-05-01T15:16:15.728Z</time></trkpt><trkpt lat="43.582045" lon="10.7941167"><ele>74.0</ele><time>2026-05-01T15:16:16.728Z</time></trkpt><trkpt lat="43.5819617" lon="10.79435"><ele>74.0</ele><time>2026-05-01T15:16:17.728Z</time></trkpt><trkpt lat="43.5818533" lon="10.794565"><ele>74.0</ele><time>2026-05-01T15:16:18.728Z</time></trkpt><trkpt lat="43.58172" lon="10.7947567"><ele>74.0</ele><time>2026-05-01T15:16:19.728Z</time></trkpt><trkpt lat="43.5815683" lon="10.7949283"><ele>74.0</ele><time>2026-05-01T15:16:20.729Z</time></trkpt><trkpt lat="43.581405" lon="10.795095"><ele>74.0</ele><time>2026-05-01T15:16:21.728Z</time></trkpt><trkpt lat="43.5812317" lon="10.7952667"><ele>74.0</ele><time>2026-05-01T15:16:22.728Z</time></trkpt><trkpt lat="43.5810583" lon="10.7954383"><ele>74.0</ele><time>2026-05-01T15:16:23.729Z</time></trkpt><trkpt lat="43.58088" lon="10.79562"><ele>74.0</ele><time>2026-05-01T15:16:24.728Z</time></trkpt><trkpt lat="43.5806983" lon="10.7958033"><ele>74.0</ele><time>2026-05-01T15:16:25.728Z</time></trkpt><trkpt lat="43.58052" lon="10.7959917"><ele>75.0</ele><time>2026-05-01T15:16:26.728Z</time></trkpt><trkpt lat="43.5803517" lon="10.7961967"><ele>76.0</ele><time>2026-05-01T15:16:27.728Z</time></trkpt><trkpt lat="43.5801967" lon="10.79642"><ele>77.0</ele><time>2026-05-01T15:16:28.727Z</time></trkpt><trkpt lat="43.5800333" lon="10.796675"><ele>84.0</ele><time>2026-05-01T15:16:29.727Z</time></trkpt><trkpt lat="43.5798767" lon="10.7969333"><ele>91.0</ele><time>2026-05-01T15:16:30.729Z</time></trkpt><trkpt lat="43.5797167" lon="10.79719"><ele>91.0</ele><time>2026-05-01T15:16:31.729Z</time></trkpt><trkpt lat="43.5795783" lon="10.797425"><ele>91.0</ele><time>2026-05-01T15:16:32.728Z</time></trkpt><trkpt lat="43.5794333" lon="10.7976617"><ele>91.0</ele><time>2026-05-01T15:16:33.727Z</time></trkpt><trkpt lat="43.5793017" lon="10.797875"><ele>87.33333333333333</ele><time>2026-05-01T15:16:34.729Z</time></trkpt><trkpt lat="43.5791883" lon="10.7981167"><ele>83.66666666666667</ele><time>2026-05-01T15:16:35.728Z</time></trkpt><trkpt lat="43.5790967" lon="10.7983783"><ele>80.0</ele><time>2026-05-01T15:16:36.728Z</time></trkpt><trkpt lat="43.5790333" lon="10.79867"><ele>80.0</ele><time>2026-05-01T15:16:37.729Z</time></trkpt><trkpt lat="43.57898" lon="10.7989617"><ele>80.0</ele><time>2026-05-01T15:16:38.728Z</time></trkpt><trkpt lat="43.57893" lon="10.79924"><ele>80.0</ele><time>2026-05-01T15:16:39.727Z</time></trkpt><trkpt lat="43.57888" lon="10.7995033"><ele>80.0</ele><time>2026-05-01T15:16:40.727Z</time></trkpt><trkpt lat="43.5788317" lon="10.79975"><ele>80.0</ele><time>2026-05-01T15:16:41.728Z</time></trkpt><trkpt lat="43.57878" lon="10.799995"><ele>80.0</ele><time>2026-05-01T15:16:42.73Z</time></trkpt><trkpt lat="43.578715" lon="10.8002317"><ele>79.66666666666667</ele><time>2026-05-01T15:16:43.727Z</time></trkpt><trkpt lat="43.57864" lon="10.800475"><ele>79.33333333333333</ele><time>2026-05-01T15:16:44.728Z</time></trkpt><trkpt lat="43.5785533" lon="10.8007133"><ele>79.0</ele><time>2026-05-01T15:16:45.727Z</time></trkpt><trkpt lat="43.5784517" lon="10.800955"><ele>80.33333333333333</ele><time>2026-05-01T15:16:46.729Z</time></trkpt><trkpt lat="43.5783367" lon="10.8012"><ele>81.66666666666667</ele><time>2026-05-01T15:16:47.729Z</time></trkpt><trkpt lat="43.5782217" lon="10.8014433"><ele>83.0</ele><time>2026-05-01T15:16:48.728Z</time></trkpt><trkpt lat="43.5781083" lon="10.80169"><ele>84.66666666666667</ele><time>2026-05-01T15:16:49.729Z</time></trkpt><trkpt lat="43.5779983" lon="10.80194"><ele>86.33333333333333</ele><time>2026-05-01T15:16:50.727Z</time></trkpt><trkpt lat="43.577885" lon="10.8021967"><ele>88.0</ele><time>2026-05-01T15:16:51.727Z</time></trkpt><trkpt lat="43.5777667" lon="10.8024583"><ele>87.33333333333333</ele><time>2026-05-01T15:16:52.728Z</time></trkpt><trkpt lat="43.57765" lon="10.8027133"><ele>86.66666666666667</ele><time>2026-05-01T15:16:53.727Z</time></trkpt><trkpt lat="43.5775333" lon="10.8029583"><ele>86.0</ele><time>2026-05-01T15:16:54.728Z</time></trkpt><trkpt lat="43.577425" lon="10.803195"><ele>86.0</ele><time>2026-05-01T15:16:55.729Z</time></trkpt><trkpt lat="43.5773233" lon="10.8034283"><ele>86.0</ele><time>2026-05-01T15:16:56.728Z</time></trkpt><trkpt lat="43.5772583" lon="10.8036583"><ele>86.0</ele><time>2026-05-01T15:16:57.727Z</time></trkpt><trkpt lat="43.5772183" lon="10.8039033"><ele>86.66666666666667</ele><time>2026-05-01T15:16:58.727Z</time></trkpt><trkpt lat="43.57724" lon="10.8041633"><ele>87.33333333333333</ele><time>2026-05-01T15:16:59.726Z</time></trkpt><trkpt lat="43.577255" lon="10.8044617"><ele>88.0</ele><time>2026-05-01T15:17:00.727Z</time></trkpt><trkpt lat="43.5772917" lon="10.8047517"><ele>88.0</ele><time>2026-05-01T15:17:01.73Z</time></trkpt><trkpt lat="43.577325" lon="10.80505"><ele>88.0</ele><time>2026-05-01T15:17:02.73Z</time></trkpt><trkpt lat="43.5773633" lon="10.8053533"><ele>88.0</ele><time>2026-05-01T15:17:03.729Z</time></trkpt><trkpt lat="43.5773933" lon="10.805665"><ele>87.0</ele><time>2026-05-01T15:17:04.728Z</time></trkpt><trkpt lat="43.5774383" lon="10.8059683"><ele>86.0</ele><time>2026-05-01T15:17:05.73Z</time></trkpt><trkpt lat="43.5774767" lon="10.80626"><ele>85.0</ele><time>2026-05-01T15:17:06.729Z</time></trkpt><trkpt lat="43.57751" lon="10.806535"><ele>83.66666666666666</ele><time>2026-05-01T15:17:07.728Z</time></trkpt><trkpt lat="43.5775383" lon="10.8068083"><ele>82.33333333333333</ele><time>2026-05-01T15:17:08.729Z</time></trkpt><trkpt lat="43.5775433" lon="10.8070883"><ele>81.0</ele><time>2026-05-01T15:17:09.729Z</time></trkpt><trkpt lat="43.5775217" lon="10.80737"><ele>80.0</ele><time>2026-05-01T15:17:10.73Z</time></trkpt><trkpt lat="43.5774717" lon="10.8076483"><ele>79.0</ele><time>2026-05-01T15:17:11.728Z</time></trkpt><trkpt lat="43.57741" lon="10.8079333"><ele>78.0</ele><time>2026-05-01T15:17:12.728Z</time></trkpt><trkpt lat="43.5773483" lon="10.80822"><ele>77.33333333333333</ele><time>2026-05-01T15:17:13.729Z</time></trkpt><trkpt lat="43.5772833" lon="10.808505"><ele>76.66666666666666</ele><time>2026-05-01T15:17:14.728Z</time></trkpt><trkpt lat="43.5772167" lon="10.8087967"><ele>76.0</ele><time>2026-05-01T15:17:15.727Z</time></trkpt><trkpt lat="43.5771567" lon="10.8090917"><ele>76.5</ele><time>2026-05-01T15:17:16.729Z</time></trkpt><trkpt lat="43.5770917" lon="10.80939"><ele>77.0</ele><time>2026-05-01T15:17:17.729Z</time></trkpt><trkpt lat="43.5770233" lon="10.8096883"><ele>77.0</ele><time>2026-05-01T15:17:18.727Z</time></trkpt><trkpt lat="43.5769367" lon="10.8099667"><ele>77.0</ele><time>2026-05-01T15:17:19.726Z</time></trkpt><trkpt lat="43.5768333" lon="10.81023"><ele>77.0</ele><time>2026-05-01T15:17:20.728Z</time></trkpt><trkpt lat="43.5767083" lon="10.8104817"><ele>77.0</ele><time>2026-05-01T15:17:21.727Z</time></trkpt><trkpt lat="43.57657" lon="10.8107233"><ele>77.0</ele><time>2026-05-01T15:17:22.726Z</time></trkpt><trkpt lat="43.5764333" lon="10.8109583"><ele>77.0</ele><time>2026-05-01T15:17:23.728Z</time></trkpt><trkpt lat="43.5762917" lon="10.8112017"><ele>78.0</ele><time>2026-05-01T15:17:24.728Z</time></trkpt><trkpt lat="43.576155" lon="10.8114417"><ele>79.0</ele><time>2026-05-01T15:17:25.726Z</time></trkpt><trkpt lat="43.5760117" lon="10.8116783"><ele>80.0</ele><time>2026-05-01T15:17:26.727Z</time></trkpt><trkpt lat="43.5758717" lon="10.81192"><ele>80.0</ele><time>2026-05-01T15:17:27.729Z</time></trkpt><trkpt lat="43.5757317" lon="10.81217"><ele>80.0</ele><time>2026-05-01T15:17:28.727Z</time></trkpt><trkpt lat="43.5756" lon="10.8124167"><ele>79.5</ele><time>2026-05-01T15:17:29.726Z</time></trkpt><trkpt lat="43.5754617" lon="10.812665"><ele>79.0</ele><time>2026-05-01T15:17:30.822Z</time></trkpt><trkpt lat="43.57532" lon="10.81291"><ele>81.5</ele><time>2026-05-01T15:17:31.728Z</time></trkpt><trkpt lat="43.5751817" lon="10.8131517"><ele>84.0</ele><time>2026-05-01T15:17:32.727Z</time></trkpt><trkpt lat="43.5750367" lon="10.8134017"><ele>82.5</ele><time>2026-05-01T15:17:33.728Z</time></trkpt><trkpt lat="43.574895" lon="10.8136533"><ele>81.0</ele><time>2026-05-01T15:17:34.726Z</time></trkpt><trkpt lat="43.5747517" lon="10.8139017"><ele>81.0</ele><time>2026-05-01T15:17:35.727Z</time></trkpt><trkpt lat="43.5746217" lon="10.81415"><ele>81.0</ele><time>2026-05-01T15:17:36.726Z</time></trkpt><trkpt lat="43.5744917" lon="10.81439"><ele>81.0</ele><time>2026-05-01T15:17:37.727Z</time></trkpt><trkpt lat="43.57436" lon="10.81463"><ele>83.66666666666667</ele><time>2026-05-01T15:17:38.727Z</time></trkpt><trkpt lat="43.5742333" lon="10.8148683"><ele>86.33333333333334</ele><time>2026-05-01T15:17:39.728Z</time></trkpt><trkpt lat="43.5741017" lon="10.815105"><ele>89.0</ele><time>2026-05-01T15:17:40.727Z</time></trkpt><trkpt lat="43.57397" lon="10.8153367"><ele>89.66666666666667</ele><time>2026-05-01T15:17:41.728Z</time></trkpt><trkpt lat="43.57384" lon="10.815575"><ele>90.33333333333333</ele><time>2026-05-01T15:17:42.726Z</time></trkpt><trkpt lat="43.5737117" lon="10.8158167"><ele>91.0</ele><time>2026-05-01T15:17:43.728Z</time></trkpt><trkpt lat="43.5736033" lon="10.81608"><ele>94.0</ele><time>2026-05-01T15:17:44.729Z</time></trkpt><trkpt lat="43.57352" lon="10.8163683"><ele>97.0</ele><time>2026-05-01T15:17:45.727Z</time></trkpt><trkpt lat="43.5734567" lon="10.816675"><ele>98.5</ele><time>2026-05-01T15:17:46.726Z</time></trkpt><trkpt lat="43.5733967" lon="10.816995"><ele>100.0</ele><time>2026-05-01T15:17:47.728Z</time></trkpt><trkpt lat="43.5733383" lon="10.8173217"><ele>100.0</ele><time>2026-05-01T15:17:48.729Z</time></trkpt><trkpt lat="43.5732783" lon="10.8176467"><ele>100.0</ele><time>2026-05-01T15:17:49.729Z</time></trkpt><trkpt lat="43.5732083" lon="10.817975"><ele>102.5</ele><time>2026-05-01T15:17:50.729Z</time></trkpt><trkpt lat="43.573135" lon="10.8182983"><ele>105.0</ele><time>2026-05-01T15:17:51.729Z</time></trkpt><trkpt lat="43.57307" lon="10.8186033"><ele>106.33333333333334</ele><time>2026-05-01T15:17:52.727Z</time></trkpt><trkpt lat="43.5730117" lon="10.8188833"><ele>107.66666666666667</ele><time>2026-05-01T15:17:53.727Z</time></trkpt><trkpt lat="43.5729567" lon="10.8191417"><ele>109.0</ele><time>2026-05-01T15:17:54.728Z</time></trkpt><trkpt lat="43.5729" lon="10.81938"><ele>112.0</ele><time>2026-05-01T15:17:55.727Z</time></trkpt><trkpt lat="43.5728433" lon="10.8195967"><ele>115.0</ele><time>2026-05-01T15:17:56.728Z</time></trkpt><trkpt lat="43.57277" lon="10.8197983"><ele>118.0</ele><time>2026-05-01T15:17:57.729Z</time></trkpt><trkpt lat="43.57267" lon="10.8199767"><ele>118.0</ele><time>2026-05-01T15:17:58.727Z</time></trkpt><trkpt lat="43.5725433" lon="10.8201133"><ele>118.0</ele><time>2026-05-01T15:17:59.729Z</time></trkpt><trkpt lat="43.5723833" lon="10.8201883"><ele>118.0</ele><time>2026-05-01T15:18:00.727Z</time></trkpt><trkpt lat="43.5721883" lon="10.8202117"><ele>116.0</ele><time>2026-05-01T15:18:01.728Z</time></trkpt><trkpt lat="43.5719917" lon="10.8202217"><ele>114.0</ele><time>2026-05-01T15:18:02.726Z</time></trkpt><trkpt lat="43.5717817" lon="10.8202433"><ele>112.0</ele><time>2026-05-01T15:18:03.727Z</time></trkpt><trkpt lat="43.57157" lon="10.820265"><ele>112.0</ele><time>2026-05-01T15:18:04.728Z</time></trkpt><trkpt lat="43.57136" lon="10.8202833"><ele>112.0</ele><time>2026-05-01T15:18:05.728Z</time></trkpt><trkpt lat="43.5711517" lon="10.8202783"><ele>112.0</ele><time>2026-05-01T15:18:06.729Z</time></trkpt><trkpt lat="43.57097" lon="10.8202833"><ele>116.0</ele><time>2026-05-01T15:18:07.728Z</time></trkpt><trkpt lat="43.5708067" lon="10.820325"><ele>120.0</ele><time>2026-05-01T15:18:08.728Z</time></trkpt><trkpt lat="43.5706567" lon="10.8204233"><ele>124.0</ele><time>2026-05-01T15:18:09.727Z</time></trkpt><trkpt lat="43.5705233" lon="10.8205667"><ele>124.0</ele><time>2026-05-01T15:18:10.728Z</time></trkpt><trkpt lat="43.57041" lon="10.8207317"><ele>124.0</ele><time>2026-05-01T15:18:11.728Z</time></trkpt><trkpt lat="43.5703133" lon="10.8209283"><ele>124.0</ele><time>2026-05-01T15:18:12.727Z</time></trkpt><trkpt lat="43.5702267" lon="10.82115"><ele>128.0</ele><time>2026-05-01T15:18:13.727Z</time></trkpt><trkpt lat="43.5701433" lon="10.82139"><ele>132.0</ele><time>2026-05-01T15:18:14.728Z</time></trkpt><trkpt lat="43.5700633" lon="10.8216483"><ele>136.0</ele><time>2026-05-01T15:18:15.729Z</time></trkpt><trkpt lat="43.5700017" lon="10.8219183"><ele>136.0</ele><time>2026-05-01T15:18:16.728Z</time></trkpt><trkpt lat="43.5699383" lon="10.8221967"><ele>136.0</ele><time>2026-05-01T15:18:17.728Z</time></trkpt><trkpt lat="43.5699033" lon="10.822485"><ele>136.0</ele><time>2026-05-01T15:18:18.727Z</time></trkpt><trkpt lat="43.5698483" lon="10.822765"><ele>135.66666666666669</ele><time>2026-05-01T15:18:19.727Z</time></trkpt><trkpt lat="43.569785" lon="10.8230333"><ele>135.33333333333334</ele><time>2026-05-01T15:18:20.727Z</time></trkpt><trkpt lat="43.56971" lon="10.8232867"><ele>135.0</ele><time>2026-05-01T15:18:21.726Z</time></trkpt><trkpt lat="43.5696267" lon="10.8235233"><ele>137.0</ele><time>2026-05-01T15:18:22.727Z</time></trkpt><trkpt lat="43.56953" lon="10.8237467"><ele>139.0</ele><time>2026-05-01T15:18:23.728Z</time></trkpt><trkpt lat="43.56942" lon="10.8239633"><ele>141.0</ele><time>2026-05-01T15:18:24.727Z</time></trkpt><trkpt lat="43.5692933" lon="10.8241733"><ele>139.66666666666666</ele><time>2026-05-01T15:18:25.727Z</time></trkpt><trkpt lat="43.569175" lon="10.824365"><ele>138.33333333333331</ele><time>2026-05-01T15:18:26.727Z</time></trkpt><trkpt lat="43.5690667" lon="10.82454"><ele>137.0</ele><time>2026-05-01T15:18:27.726Z</time></trkpt><trkpt lat="43.5689733" lon="10.82471"><ele>137.0</ele><time>2026-05-01T15:18:28.729Z</time></trkpt><trkpt lat="43.56887" lon="10.824875"><ele>137.0</ele><time>2026-05-01T15:18:29.726Z</time></trkpt><trkpt lat="43.5687533" lon="10.8250383"><ele>137.0</ele><time>2026-05-01T15:18:30.726Z</time></trkpt><trkpt lat="43.5686383" lon="10.8252217"><ele>138.66666666666666</ele><time>2026-05-01T15:18:31.728Z</time></trkpt><trkpt lat="43.5685333" lon="10.8254317"><ele>140.33333333333334</ele><time>2026-05-01T15:18:32.728Z</time></trkpt><trkpt lat="43.56845" lon="10.8256633"><ele>142.0</ele><time>2026-05-01T15:18:33.728Z</time></trkpt><trkpt lat="43.568385" lon="10.825925"><ele>144.33333333333334</ele><time>2026-05-01T15:18:34.728Z</time></trkpt><trkpt lat="43.5683383" lon="10.8261933"><ele>146.66666666666666</ele><time>2026-05-01T15:18:35.729Z</time></trkpt><trkpt lat="43.568295" lon="10.82647"><ele>149.0</ele><time>2026-05-01T15:18:36.728Z</time></trkpt><trkpt lat="43.568245" lon="10.8267483"><ele>150.66666666666666</ele><time>2026-05-01T15:18:37.728Z</time></trkpt><trkpt lat="43.568205" lon="10.8270217"><ele>152.33333333333334</ele><time>2026-05-01T15:18:38.727Z</time></trkpt><trkpt lat="43.56816" lon="10.827285"><ele>154.0</ele><time>2026-05-01T15:18:39.728Z</time></trkpt><trkpt lat="43.5681133" lon="10.8275467"><ele>155.0</ele><time>2026-05-01T15:18:40.727Z</time></trkpt><trkpt lat="43.5680633" lon="10.8278117"><ele>156.0</ele><time>2026-05-01T15:18:41.728Z</time></trkpt><trkpt lat="43.5679983" lon="10.828085"><ele>157.0</ele><time>2026-05-01T15:18:42.727Z</time></trkpt><trkpt lat="43.5679283" lon="10.82836"><ele>153.0</ele><time>2026-05-01T15:18:43.728Z</time></trkpt><trkpt lat="43.5678583" lon="10.8286283"><ele>149.0</ele><time>2026-05-01T15:18:44.729Z</time></trkpt><trkpt lat="43.5677783" lon="10.8288817"><ele>145.0</ele><time>2026-05-01T15:18:45.728Z</time></trkpt><trkpt lat="43.5676967" lon="10.8291267"><ele>145.33333333333334</ele><time>2026-05-01T15:18:46.728Z</time></trkpt><trkpt lat="43.5675783" lon="10.8293333"><ele>145.66666666666666</ele><time>2026-05-01T15:18:47.727Z</time></trkpt><trkpt lat="43.5674217" lon="10.8295133"><ele>146.0</ele><time>2026-05-01T15:18:48.726Z</time></trkpt><trkpt lat="43.56725" lon="10.8296767"><ele>146.0</ele><time>2026-05-01T15:18:49.729Z</time></trkpt><trkpt lat="43.567065" lon="10.8298317"><ele>146.0</ele><time>2026-05-01T15:18:50.726Z</time></trkpt><trkpt lat="43.5668733" lon="10.8299867"><ele>146.0</ele><time>2026-05-01T15:18:51.725Z</time></trkpt><trkpt lat="43.5666867" lon="10.83015"><ele>145.0</ele><time>2026-05-01T15:18:52.821Z</time></trkpt><trkpt lat="43.5665117" lon="10.830325"><ele>144.0</ele><time>2026-05-01T15:18:53.726Z</time></trkpt><trkpt lat="43.5663467" lon="10.8305283"><ele>143.0</ele><time>2026-05-01T15:18:54.729Z</time></trkpt><trkpt lat="43.5662117" lon="10.83076"><ele>147.0</ele><time>2026-05-01T15:18:55.726Z</time></trkpt><trkpt lat="43.5660683" lon="10.831025"><ele>151.0</ele><time>2026-05-01T15:18:56.726Z</time></trkpt><trkpt lat="43.5659317" lon="10.831295"><ele>151.0</ele><time>2026-05-01T15:18:57.727Z</time></trkpt><trkpt lat="43.5658117" lon="10.8315567"><ele>151.0</ele><time>2026-05-01T15:18:58.729Z</time></trkpt><trkpt lat="43.5656883" lon="10.8318083"><ele>151.0</ele><time>2026-05-01T15:18:59.727Z</time></trkpt><trkpt lat="43.5655733" lon="10.832055"><ele>152.33333333333334</ele><time>2026-05-01T15:19:00.73Z</time></trkpt><trkpt lat="43.565475" lon="10.8323083"><ele>153.66666666666666</ele><time>2026-05-01T15:19:01.725Z</time></trkpt><trkpt lat="43.565395" lon="10.8325717"><ele>155.0</ele><time>2026-05-01T15:19:02.727Z</time></trkpt><trkpt lat="43.5653167" lon="10.832845"><ele>155.0</ele><time>2026-05-01T15:19:03.725Z</time></trkpt><trkpt lat="43.5652267" lon="10.8331267"><ele>155.0</ele><time>2026-05-01T15:19:04.727Z</time></trkpt><trkpt lat="43.5651383" lon="10.833415"><ele>157.5</ele><time>2026-05-01T15:19:05.727Z</time></trkpt><trkpt lat="43.565045" lon="10.8337033"><ele>160.0</ele><time>2026-05-01T15:19:06.727Z</time></trkpt><trkpt lat="43.5649517" lon="10.834"><ele>160.0</ele><time>2026-05-01T15:19:07.728Z</time></trkpt><trkpt lat="43.5648583" lon="10.8342933"><ele>160.0</ele><time>2026-05-01T15:19:08.727Z</time></trkpt><trkpt lat="43.56477" lon="10.8345783"><ele>162.66666666666669</ele><time>2026-05-01T15:19:09.727Z</time></trkpt><trkpt lat="43.5646917" lon="10.8348583"><ele>165.33333333333334</ele><time>2026-05-01T15:19:10.727Z</time></trkpt><trkpt lat="43.5646083" lon="10.835125"><ele>168.0</ele><time>2026-05-01T15:19:11.728Z</time></trkpt><trkpt lat="43.5645483" lon="10.8353967"><ele>171.66666666666666</ele><time>2026-05-01T15:19:12.726Z</time></trkpt><trkpt lat="43.564525" lon="10.83568"><ele>175.33333333333331</ele><time>2026-05-01T15:19:13.727Z</time></trkpt><trkpt lat="43.5645133" lon="10.8359667"><ele>179.0</ele><time>2026-05-01T15:19:14.728Z</time></trkpt><trkpt lat="43.5644967" lon="10.8362467"><ele>179.66666666666666</ele><time>2026-05-01T15:19:15.727Z</time></trkpt><trkpt lat="43.564465" lon="10.8365"><ele>180.33333333333334</ele><time>2026-05-01T15:19:16.727Z</time></trkpt><trkpt lat="43.5644183" lon="10.83674"><ele>181.0</ele><time>2026-05-01T15:19:17.727Z</time></trkpt><trkpt lat="43.56435" lon="10.8369767"><ele>181.0</ele><time>2026-05-01T15:19:18.728Z</time></trkpt><trkpt lat="43.564265" lon="10.8372067"><ele>181.0</ele><time>2026-05-01T15:19:19.727Z</time></trkpt><trkpt lat="43.5641733" lon="10.8374433"><ele>181.0</ele><time>2026-05-01T15:19:20.728Z</time></trkpt><trkpt lat="43.5640733" lon="10.8376867"><ele>181.33333333333334</ele><time>2026-05-01T15:19:21.727Z</time></trkpt><trkpt lat="43.5639783" lon="10.837945"><ele>181.66666666666666</ele><time>2026-05-01T15:19:22.728Z</time></trkpt><trkpt lat="43.56389" lon="10.838225"><ele>182.0</ele><time>2026-05-01T15:19:23.727Z</time></trkpt><trkpt lat="43.5638183" lon="10.83853"><ele>182.0</ele><time>2026-05-01T15:19:24.726Z</time></trkpt><trkpt lat="43.5637617" lon="10.8388517"><ele>182.0</ele><time>2026-05-01T15:19:25.728Z</time></trkpt><trkpt lat="43.5637117" lon="10.8391783"><ele>184.5</ele><time>2026-05-01T15:19:26.726Z</time></trkpt><trkpt lat="43.5636683" lon="10.8395017"><ele>187.0</ele><time>2026-05-01T15:19:27.727Z</time></trkpt><trkpt lat="43.563615" lon="10.8398167"><ele>187.0</ele><time>2026-05-01T15:19:28.728Z</time></trkpt><trkpt lat="43.56355" lon="10.8401183"><ele>187.0</ele><time>2026-05-01T15:19:29.727Z</time></trkpt><trkpt lat="43.5634667" lon="10.840405"><ele>189.0</ele><time>2026-05-01T15:19:30.727Z</time></trkpt><trkpt lat="43.5633567" lon="10.8406733"><ele>191.0</ele><time>2026-05-01T15:19:31.728Z</time></trkpt><trkpt lat="43.5632367" lon="10.8409433"><ele>191.5</ele><time>2026-05-01T15:19:32.728Z</time></trkpt><trkpt lat="43.56311" lon="10.841215"><ele>192.0</ele><time>2026-05-01T15:19:33.725Z</time></trkpt><trkpt lat="43.5629867" lon="10.8414783"><ele>192.0</ele><time>2026-05-01T15:19:34.726Z</time></trkpt><trkpt lat="43.562875" lon="10.841725"><ele>192.0</ele><time>2026-05-01T15:19:35.726Z</time></trkpt><trkpt lat="43.5627733" lon="10.8419467"><ele>192.0</ele><time>2026-05-01T15:19:36.727Z</time></trkpt><trkpt lat="43.5626783" lon="10.84214"><ele>194.33333333333331</ele><time>2026-05-01T15:19:37.728Z</time></trkpt><trkpt lat="43.5625733" lon="10.842305"><ele>196.66666666666666</ele><time>2026-05-01T15:19:38.728Z</time></trkpt><trkpt lat="43.5624467" lon="10.8424433"><ele>199.0</ele><time>2026-05-01T15:19:39.727Z</time></trkpt><trkpt lat="43.5623017" lon="10.8425483"><ele>198.33333333333331</ele><time>2026-05-01T15:19:40.726Z</time></trkpt><trkpt lat="43.5621333" lon="10.842635"><ele>197.66666666666669</ele><time>2026-05-01T15:19:41.726Z</time></trkpt><trkpt lat="43.56195" lon="10.842725"><ele>197.0</ele><time>2026-05-01T15:19:42.728Z</time></trkpt><trkpt lat="43.5617533" lon="10.8428167"><ele>195.0</ele><time>2026-05-01T15:19:43.728Z</time></trkpt><trkpt lat="43.56155" lon="10.8429167"><ele>193.0</ele><time>2026-05-01T15:19:44.727Z</time></trkpt><trkpt lat="43.5613417" lon="10.843025"><ele>191.0</ele><time>2026-05-01T15:19:45.728Z</time></trkpt><trkpt lat="43.5611367" lon="10.8431483"><ele>190.5</ele><time>2026-05-01T15:19:46.728Z</time></trkpt><trkpt lat="43.5609333" lon="10.8432933"><ele>190.0</ele><time>2026-05-01T15:19:47.727Z</time></trkpt><trkpt lat="43.5607333" lon="10.843445"><ele>189.5</ele><time>2026-05-01T15:19:48.728Z</time></trkpt><trkpt lat="43.5605333" lon="10.8435983"><ele>189.0</ele><time>2026-05-01T15:19:49.728Z</time></trkpt><trkpt lat="43.560335" lon="10.843745"><ele>190.66666666666669</ele><time>2026-05-01T15:19:50.728Z</time></trkpt><trkpt lat="43.5601433" lon="10.8438817"><ele>192.33333333333334</ele><time>2026-05-01T15:19:51.726Z</time></trkpt><trkpt lat="43.5599583" lon="10.8440167"><ele>194.0</ele><time>2026-05-01T15:19:52.728Z</time></trkpt><trkpt lat="43.55978" lon="10.8441533"><ele>194.0</ele><time>2026-05-01T15:19:53.727Z</time></trkpt><trkpt lat="43.5595983" lon="10.84429"><ele>194.0</ele><time>2026-05-01T15:19:54.727Z</time></trkpt><trkpt lat="43.55943" lon="10.8444317"><ele>194.0</ele><time>2026-05-01T15:19:55.726Z</time></trkpt><trkpt lat="43.5592883" lon="10.8445883"><ele>193.66666666666669</ele><time>2026-05-01T15:19:56.727Z</time></trkpt><trkpt lat="43.559175" lon="10.84477"><ele>193.33333333333331</ele><time>2026-05-01T15:19:57.727Z</time></trkpt><trkpt lat="43.5590917" lon="10.84497"><ele>193.0</ele><time>2026-05-01T15:19:58.728Z</time></trkpt><trkpt lat="43.559035" lon="10.845205"><ele>193.0</ele><time>2026-05-01T15:19:59.727Z</time></trkpt><trkpt lat="43.5589917" lon="10.8454667"><ele>193.0</ele><time>2026-05-01T15:20:00.727Z</time></trkpt><trkpt lat="43.5589433" lon="10.8457333"><ele>193.0</ele><time>2026-05-01T15:20:01.727Z</time></trkpt><trkpt lat="43.5589017" lon="10.8460133"><ele>194.33333333333331</ele><time>2026-05-01T15:20:02.728Z</time></trkpt><trkpt lat="43.558855" lon="10.8462983"><ele>195.66666666666669</ele><time>2026-05-01T15:20:03.728Z</time></trkpt><trkpt lat="43.5588183" lon="10.8465817"><ele>197.0</ele><time>2026-05-01T15:20:04.728Z</time></trkpt><trkpt lat="43.5587833" lon="10.8468517"><ele>196.66666666666669</ele><time>2026-05-01T15:20:05.728Z</time></trkpt><trkpt lat="43.558745" lon="10.8471"><ele>196.33333333333331</ele><time>2026-05-01T15:20:06.727Z</time></trkpt><trkpt lat="43.5587067" lon="10.8473317"><ele>196.0</ele><time>2026-05-01T15:20:07.728Z</time></trkpt><trkpt lat="43.5586933" lon="10.847545"><ele>197.0</ele><time>2026-05-01T15:20:08.728Z</time></trkpt><trkpt lat="43.55867" lon="10.84774"><ele>198.0</ele><time>2026-05-01T15:20:09.727Z</time></trkpt><trkpt lat="43.55865" lon="10.84792"><ele>199.0</ele><time>2026-05-01T15:20:10.726Z</time></trkpt><trkpt lat="43.5586233" lon="10.84809"><ele>200.0</ele><time>2026-05-01T15:20:11.728Z</time></trkpt><trkpt lat="43.5585767" lon="10.8482517"><ele>200.0</ele><time>2026-05-01T15:20:12.727Z</time></trkpt><trkpt lat="43.5585067" lon="10.8484033"><ele>200.0</ele><time>2026-05-01T15:20:13.726Z</time></trkpt><trkpt lat="43.5584217" lon="10.8485433"><ele>200.0</ele><time>2026-05-01T15:20:14.728Z</time></trkpt><trkpt lat="43.5583183" lon="10.8486617"><ele>200.0</ele><time>2026-05-01T15:20:15.728Z</time></trkpt><trkpt lat="43.5581933" lon="10.8487533"><ele>200.66666666666669</ele><time>2026-05-01T15:20:16.726Z</time></trkpt><trkpt lat="43.55805" lon="10.8488117"><ele>201.33333333333331</ele><time>2026-05-01T15:20:17.727Z</time></trkpt><trkpt lat="43.5579" lon="10.8488367"><ele>202.0</ele><time>2026-05-01T15:20:18.728Z</time></trkpt><trkpt lat="43.557745" lon="10.8488283"><ele>204.0</ele><time>2026-05-01T15:20:19.727Z</time></trkpt><trkpt lat="43.5576" lon="10.8487883"><ele>206.0</ele><time>2026-05-01T15:20:20.728Z</time></trkpt><trkpt lat="43.5574633" lon="10.848725"><ele>208.0</ele><time>2026-05-01T15:20:21.727Z</time></trkpt><trkpt lat="43.5573267" lon="10.8486567"><ele>210.0</ele><time>2026-05-01T15:20:22.727Z</time></trkpt><trkpt lat="43.557185" lon="10.8485983"><ele>210.0</ele><time>2026-05-01T15:20:23.728Z</time></trkpt><trkpt lat="43.55704" lon="10.8485433"><ele>210.0</ele><time>2026-05-01T15:20:24.728Z</time></trkpt><trkpt lat="43.5569" lon="10.8484867"><ele>210.0</ele><time>2026-05-01T15:20:25.728Z</time></trkpt><trkpt lat="43.55676" lon="10.8484567"><ele>210.0</ele><time>2026-05-01T15:20:26.727Z</time></trkpt><trkpt lat="43.55662" lon="10.848455"><ele>211.5</ele><time>2026-05-01T15:20:27.727Z</time></trkpt><trkpt lat="43.5564817" lon="10.8484767"><ele>213.0</ele><time>2026-05-01T15:20:28.728Z</time></trkpt><trkpt lat="43.5563417" lon="10.8485317"><ele>214.5</ele><time>2026-05-01T15:20:29.726Z</time></trkpt><trkpt lat="43.5562017" lon="10.8486033"><ele>216.0</ele><time>2026-05-01T15:20:30.727Z</time></trkpt><trkpt lat="43.5560667" lon="10.84868"><ele>216.0</ele><time>2026-05-01T15:20:31.728Z</time></trkpt><trkpt lat="43.5559417" lon="10.8487617"><ele>216.0</ele><time>2026-05-01T15:20:32.728Z</time></trkpt><trkpt lat="43.5558283" lon="10.8488583"><ele>216.0</ele><time>2026-05-01T15:20:33.727Z</time></trkpt><trkpt lat="43.5557267" lon="10.8489817"><ele>216.0</ele><time>2026-05-01T15:20:34.728Z</time></trkpt><trkpt lat="43.5556267" lon="10.84915"><ele>215.66666666666669</ele><time>2026-05-01T15:20:35.728Z</time></trkpt><trkpt lat="43.5555233" lon="10.8493467"><ele>215.33333333333334</ele><time>2026-05-01T15:20:36.728Z</time></trkpt><trkpt lat="43.5554" lon="10.849565"><ele>215.0</ele><time>2026-05-01T15:20:37.728Z</time></trkpt><trkpt lat="43.5552667" lon="10.8497717"><ele>214.0</ele><time>2026-05-01T15:20:38.729Z</time></trkpt><trkpt lat="43.5551133" lon="10.84997"><ele>213.0</ele><time>2026-05-01T15:20:39.727Z</time></trkpt><trkpt lat="43.55495" lon="10.8501483"><ele>212.0</ele><time>2026-05-01T15:20:40.727Z</time></trkpt><trkpt lat="43.55478" lon="10.8503183"><ele>211.33333333333334</ele><time>2026-05-01T15:20:41.728Z</time></trkpt><trkpt lat="43.5546133" lon="10.85047"><ele>210.66666666666669</ele><time>2026-05-01T15:20:42.727Z</time></trkpt><trkpt lat="43.5544483" lon="10.8505917"><ele>210.0</ele><time>2026-05-01T15:20:43.728Z</time></trkpt><trkpt lat="43.5542767" lon="10.850675"><ele>213.66666666666669</ele><time>2026-05-01T15:20:44.727Z</time></trkpt><trkpt lat="43.5540933" lon="10.850715"><ele>217.33333333333334</ele><time>2026-05-01T15:20:45.726Z</time></trkpt><trkpt lat="43.5539033" lon="10.8507133"><ele>221.0</ele><time>2026-05-01T15:20:46.728Z</time></trkpt><trkpt lat="43.5537133" lon="10.8506767"><ele>224.0</ele><time>2026-05-01T15:20:47.728Z</time></trkpt><trkpt lat="43.5535383" lon="10.85064"><ele>227.0</ele><time>2026-05-01T15:20:48.729Z</time></trkpt><trkpt lat="43.553365" lon="10.850635"><ele>230.0</ele><time>2026-05-01T15:20:49.728Z</time></trkpt><trkpt lat="43.553195" lon="10.8506733"><ele>230.0</ele><time>2026-05-01T15:20:50.728Z</time></trkpt><trkpt lat="43.5530367" lon="10.850765"><ele>230.0</ele><time>2026-05-01T15:20:51.726Z</time></trkpt><trkpt lat="43.5529017" lon="10.85089"><ele>230.0</ele><time>2026-05-01T15:20:52.727Z</time></trkpt><trkpt lat="43.5527783" lon="10.85104"><ele>232.33333333333334</ele><time>2026-05-01T15:20:53.729Z</time></trkpt><trkpt lat="43.55266" lon="10.8512083"><ele>234.66666666666669</ele><time>2026-05-01T15:20:54.73Z</time></trkpt><trkpt lat="43.5525433" lon="10.8513933"><ele>237.0</ele><time>2026-05-01T15:20:55.728Z</time></trkpt><trkpt lat="43.5524233" lon="10.8515883"><ele>237.0</ele><time>2026-05-01T15:20:56.729Z</time></trkpt><trkpt lat="43.5523" lon="10.8517883"><ele>237.0</ele><time>2026-05-01T15:20:57.728Z</time></trkpt><trkpt lat="43.55218" lon="10.8519833"><ele>237.0</ele><time>2026-05-01T15:20:58.728Z</time></trkpt><trkpt lat="43.5520567" lon="10.8521833"><ele>241.0</ele><time>2026-05-01T15:20:59.727Z</time></trkpt><trkpt lat="43.55193" lon="10.8523883"><ele>245.0</ele><time>2026-05-01T15:21:00.728Z</time></trkpt><trkpt lat="43.5517983" lon="10.8525883"><ele>249.0</ele><time>2026-05-01T15:21:01.728Z</time></trkpt><trkpt lat="43.5516617" lon="10.8527833"><ele>249.0</ele><time>2026-05-01T15:21:02.727Z</time></trkpt><trkpt lat="43.5515283" lon="10.8529783"><ele>249.0</ele><time>2026-05-01T15:21:03.726Z</time></trkpt><trkpt lat="43.5513983" lon="10.853175"><ele>249.0</ele><time>2026-05-01T15:21:04.728Z</time></trkpt><trkpt lat="43.5512733" lon="10.853375"><ele>251.0</ele><time>2026-05-01T15:21:05.728Z</time></trkpt><trkpt lat="43.5511583" lon="10.8535633"><ele>253.0</ele><time>2026-05-01T15:21:06.728Z</time></trkpt><trkpt lat="43.55105" lon="10.8537367"><ele>255.0</ele><time>2026-05-01T15:21:07.728Z</time></trkpt><trkpt lat="43.55094" lon="10.8539117"><ele>255.0</ele><time>2026-05-01T15:21:08.729Z</time></trkpt><trkpt lat="43.550845" lon="10.8540783"><ele>255.0</ele><time>2026-05-01T15:21:09.727Z</time></trkpt><trkpt lat="43.5507583" lon="10.854245"><ele>255.0</ele><time>2026-05-01T15:21:10.727Z</time></trkpt><trkpt lat="43.5506867" lon="10.8543967"><ele>255.0</ele><time>2026-05-01T15:21:11.727Z</time></trkpt><trkpt lat="43.5506267" lon="10.8545383"><ele>255.5</ele><time>2026-05-01T15:21:12.728Z</time></trkpt><trkpt lat="43.5505683" lon="10.8546767"><ele>256.0</ele><time>2026-05-01T15:21:13.726Z</time></trkpt><trkpt lat="43.5505133" lon="10.8548117"><ele>256.5</ele><time>2026-05-01T15:21:14.728Z</time></trkpt><trkpt lat="43.5504583" lon="10.8549517"><ele>257.0</ele><time>2026-05-01T15:21:15.726Z</time></trkpt><trkpt lat="43.5504" lon="10.8550933"><ele>256.4</ele><time>2026-05-01T15:21:16.726Z</time></trkpt><trkpt lat="43.5503433" lon="10.8552283"><ele>255.79999999999998</ele><time>2026-05-01T15:21:17.728Z</time></trkpt><trkpt lat="43.5502883" lon="10.8553567"><ele>255.2</ele><time>2026-05-01T15:21:18.727Z</time></trkpt><trkpt lat="43.5502367" lon="10.8554767"><ele>254.6</ele><time>2026-05-01T15:21:19.728Z</time></trkpt><trkpt lat="43.55019" lon="10.8555767"><ele>254.0</ele><time>2026-05-01T15:21:20.728Z</time></trkpt><trkpt lat="43.5501533" lon="10.8556617"><ele>254.0</ele><time>2026-05-01T15:21:21.727Z</time></trkpt><trkpt lat="43.5500817" lon="10.8557983"><ele>253.99999999999997</ele><time>2026-05-01T15:21:23.728Z</time></trkpt><trkpt lat="43.5500217" lon="10.8559367"><ele>253.99999999999997</ele><time>2026-05-01T15:21:25.728Z</time></trkpt><trkpt lat="43.55001" lon="10.8560967"><ele>254.0</ele><time>2026-05-01T15:21:27.728Z</time></trkpt><trkpt lat="43.5500333" lon="10.85619"><ele>254.0</ele><time>2026-05-01T15:21:28.727Z</time></trkpt><trkpt lat="43.5500567" lon="10.8562983"><ele>254.2</ele><time>2026-05-01T15:21:29.728Z</time></trkpt><trkpt lat="43.550065" lon="10.8564183"><ele>254.39999999999998</ele><time>2026-05-01T15:21:30.728Z</time></trkpt><trkpt lat="43.5500583" lon="10.856555"><ele>254.6</ele><time>2026-05-01T15:21:31.729Z</time></trkpt><trkpt lat="43.5500367" lon="10.8566867"><ele>254.8</ele><time>2026-05-01T15:21:32.729Z</time></trkpt><trkpt lat="43.5500083" lon="10.8568133"><ele>255.0</ele><time>2026-05-01T15:21:33.728Z</time></trkpt><trkpt lat="43.5499667" lon="10.8569317"><ele>254.2</ele><time>2026-05-01T15:21:34.727Z</time></trkpt><trkpt lat="43.5499117" lon="10.8570433"><ele>253.4</ele><time>2026-05-01T15:21:35.727Z</time></trkpt><trkpt lat="43.549845" lon="10.8571467"><ele>252.60000000000002</ele><time>2026-05-01T15:21:36.729Z</time></trkpt><trkpt lat="43.549765" lon="10.857235"><ele>251.8</ele><time>2026-05-01T15:21:37.726Z</time></trkpt><trkpt lat="43.5496667" lon="10.857305"><ele>251.0</ele><time>2026-05-01T15:21:38.73Z</time></trkpt><trkpt lat="43.5495567" lon="10.8573633"><ele>252.0</ele><time>2026-05-01T15:21:39.728Z</time></trkpt><trkpt lat="43.549445" lon="10.85741"><ele>253.0</ele><time>2026-05-01T15:21:40.727Z</time></trkpt><trkpt lat="43.5493317" lon="10.8574567"><ele>254.0</ele><time>2026-05-01T15:21:41.728Z</time></trkpt><trkpt lat="43.5492217" lon="10.8575067"><ele>255.0</ele><time>2026-05-01T15:21:42.729Z</time></trkpt><trkpt lat="43.54911" lon="10.8575733"><ele>253.5</ele><time>2026-05-01T15:21:43.729Z</time></trkpt><trkpt lat="43.5490067" lon="10.8576667"><ele>252.0</ele><time>2026-05-01T15:21:44.729Z</time></trkpt><trkpt lat="43.5489233" lon="10.8577817"><ele>250.5</ele><time>2026-05-01T15:21:45.726Z</time></trkpt><trkpt lat="43.5488633" lon="10.8579117"><ele>249.0</ele><time>2026-05-01T15:21:46.729Z</time></trkpt><trkpt lat="43.5488233" lon="10.85806"><ele>249.0</ele><time>2026-05-01T15:21:47.727Z</time></trkpt><trkpt lat="43.5487917" lon="10.8582233"><ele>249.0</ele><time>2026-05-01T15:21:48.728Z</time></trkpt><trkpt lat="43.54878" lon="10.8584017"><ele>249.0</ele><time>2026-05-01T15:21:49.727Z</time></trkpt><trkpt lat="43.5487683" lon="10.8585817"><ele>249.0</ele><time>2026-05-01T15:21:50.728Z</time></trkpt><trkpt lat="43.5487617" lon="10.858765"><ele>251.0</ele><time>2026-05-01T15:21:51.728Z</time></trkpt><trkpt lat="43.5487567" lon="10.858955"><ele>253.0</ele><time>2026-05-01T15:21:52.728Z</time></trkpt><trkpt lat="43.5487517" lon="10.8591417"><ele>255.0</ele><time>2026-05-01T15:21:53.728Z</time></trkpt><trkpt lat="43.54875" lon="10.8593267"><ele>257.0</ele><time>2026-05-01T15:21:54.728Z</time></trkpt><trkpt lat="43.54875" lon="10.85951"><ele>258.5</ele><time>2026-05-01T15:21:55.728Z</time></trkpt><trkpt lat="43.5487417" lon="10.8596917"><ele>260.0</ele><time>2026-05-01T15:21:56.728Z</time></trkpt><trkpt lat="43.548725" lon="10.8598717"><ele>261.5</ele><time>2026-05-01T15:21:57.728Z</time></trkpt><trkpt lat="43.5486967" lon="10.8600483"><ele>263.0</ele><time>2026-05-01T15:21:58.728Z</time></trkpt><trkpt lat="43.5486583" lon="10.8602233"><ele>263.0</ele><time>2026-05-01T15:21:59.73Z</time></trkpt><trkpt lat="43.54861" lon="10.8604"><ele>263.0</ele><time>2026-05-01T15:22:00.727Z</time></trkpt><trkpt lat="43.5485583" lon="10.860575"><ele>263.0</ele><time>2026-05-01T15:22:01.728Z</time></trkpt><trkpt lat="43.5485033" lon="10.86075"><ele>263.0</ele><time>2026-05-01T15:22:02.729Z</time></trkpt><trkpt lat="43.5484467" lon="10.8609217"><ele>263.5</ele><time>2026-05-01T15:22:03.728Z</time></trkpt><trkpt lat="43.548395" lon="10.8610883"><ele>264.0</ele><time>2026-05-01T15:22:04.727Z</time></trkpt><trkpt lat="43.5483433" lon="10.8612533"><ele>264.5</ele><time>2026-05-01T15:22:05.729Z</time></trkpt><trkpt lat="43.5482867" lon="10.8614283"><ele>265.0</ele><time>2026-05-01T15:22:06.728Z</time></trkpt><trkpt lat="43.5482267" lon="10.8616083"><ele>266.3333333333333</ele><time>2026-05-01T15:22:07.729Z</time></trkpt><trkpt lat="43.54817" lon="10.8617933"><ele>267.6666666666667</ele><time>2026-05-01T15:22:08.727Z</time></trkpt><trkpt lat="43.54811" lon="10.86198"><ele>269.0</ele><time>2026-05-01T15:22:09.728Z</time></trkpt><trkpt lat="43.5480433" lon="10.8621783"><ele>269.0</ele><time>2026-05-01T15:22:10.727Z</time></trkpt><trkpt lat="43.54798" lon="10.8623817"><ele>269.0</ele><time>2026-05-01T15:22:11.728Z</time></trkpt><trkpt lat="43.547915" lon="10.8625883"><ele>269.0</ele><time>2026-05-01T15:22:12.727Z</time></trkpt><trkpt lat="43.5478483" lon="10.8627917"><ele>265.0</ele><time>2026-05-01T15:22:13.727Z</time></trkpt><trkpt lat="43.5477833" lon="10.8629917"><ele>261.0</ele><time>2026-05-01T15:22:14.729Z</time></trkpt><trkpt lat="43.5477183" lon="10.8631917"><ele>257.0</ele><time>2026-05-01T15:22:15.728Z</time></trkpt><trkpt lat="43.5476517" lon="10.8633967"><ele>259.0</ele><time>2026-05-01T15:22:16.729Z</time></trkpt><trkpt lat="43.5475867" lon="10.8636017"><ele>261.0</ele><time>2026-05-01T15:22:17.728Z</time></trkpt><trkpt lat="43.5475117" lon="10.863795"><ele>263.0</ele><time>2026-05-01T15:22:18.728Z</time></trkpt><trkpt lat="43.54743" lon="10.8639717"><ele>263.0</ele><time>2026-05-01T15:22:19.728Z</time></trkpt><trkpt lat="43.5473317" lon="10.8641367"><ele>263.0</ele><time>2026-05-01T15:22:20.728Z</time></trkpt><trkpt lat="43.5472167" lon="10.8642917"><ele>263.0</ele><time>2026-05-01T15:22:21.727Z</time></trkpt><trkpt lat="43.5470883" lon="10.8644233"><ele>266.33333333333337</ele><time>2026-05-01T15:22:22.727Z</time></trkpt><trkpt lat="43.5469617" lon="10.86455"><ele>269.6666666666667</ele><time>2026-05-01T15:22:23.727Z</time></trkpt><trkpt lat="43.54682" lon="10.8646817"><ele>273.0</ele><time>2026-05-01T15:22:24.728Z</time></trkpt><trkpt lat="43.54668" lon="10.8648217"><ele>273.0</ele><time>2026-05-01T15:22:25.729Z</time></trkpt><trkpt lat="43.54654" lon="10.8649633"><ele>273.0</ele><time>2026-05-01T15:22:26.728Z</time></trkpt><trkpt lat="43.5464017" lon="10.8651"><ele>273.0</ele><time>2026-05-01T15:22:27.727Z</time></trkpt><trkpt lat="43.5462633" lon="10.8652417"><ele>274.0</ele><time>2026-05-01T15:22:28.727Z</time></trkpt><trkpt lat="43.5461183" lon="10.8653717"><ele>275.0</ele><time>2026-05-01T15:22:29.727Z</time></trkpt><trkpt lat="43.5459667" lon="10.8654917"><ele>276.0</ele><time>2026-05-01T15:22:30.728Z</time></trkpt><trkpt lat="43.5458033" lon="10.86561"><ele>276.0</ele><time>2026-05-01T15:22:31.729Z</time></trkpt><trkpt lat="43.545635" lon="10.8657383"><ele>276.0</ele><time>2026-05-01T15:22:32.727Z</time></trkpt><trkpt lat="43.5454733" lon="10.8658567"><ele>276.0</ele><time>2026-05-01T15:22:33.727Z</time></trkpt><trkpt lat="43.5453083" lon="10.8659833"><ele>276.6666666666667</ele><time>2026-05-01T15:22:34.729Z</time></trkpt><trkpt lat="43.5451483" lon="10.8661033"><ele>277.33333333333337</ele><time>2026-05-01T15:22:35.728Z</time></trkpt><trkpt lat="43.544985" lon="10.86623"><ele>278.0</ele><time>2026-05-01T15:22:36.727Z</time></trkpt><trkpt lat="43.54482" lon="10.8663533"><ele>278.0</ele><time>2026-05-01T15:22:37.727Z</time></trkpt><trkpt lat="43.5446583" lon="10.8664733"><ele>278.0</ele><time>2026-05-01T15:22:38.728Z</time></trkpt><trkpt lat="43.5445017" lon="10.866585"><ele>278.0</ele><time>2026-05-01T15:22:39.728Z</time></trkpt><trkpt lat="43.544355" lon="10.8666917"><ele>280.25</ele><time>2026-05-01T15:22:40.727Z</time></trkpt><trkpt lat="43.5442233" lon="10.8668083"><ele>282.5</ele><time>2026-05-01T15:22:41.728Z</time></trkpt><trkpt lat="43.544125" lon="10.8669317"><ele>284.75</ele><time>2026-05-01T15:22:42.728Z</time></trkpt><trkpt lat="43.544055" lon="10.8670917"><ele>287.0</ele><time>2026-05-01T15:22:43.728Z</time></trkpt><trkpt lat="43.5439967" lon="10.8672867"><ele>287.0</ele><time>2026-05-01T15:22:44.728Z</time></trkpt><trkpt lat="43.543945" lon="10.8674917"><ele>287.0</ele><time>2026-05-01T15:22:45.728Z</time></trkpt><trkpt lat="43.5438933" lon="10.8676983"><ele>287.0</ele><time>2026-05-01T15:22:46.729Z</time></trkpt><trkpt lat="43.5438483" lon="10.8679017"><ele>287.75</ele><time>2026-05-01T15:22:47.729Z</time></trkpt><trkpt lat="43.5438017" lon="10.8681017"><ele>288.5</ele><time>2026-05-01T15:22:48.728Z</time></trkpt><trkpt lat="43.543755" lon="10.8682983"><ele>289.25</ele><time>2026-05-01T15:22:49.728Z</time></trkpt><trkpt lat="43.54373" lon="10.8684917"><ele>290.0</ele><time>2026-05-01T15:22:50.728Z</time></trkpt><trkpt lat="43.5437283" lon="10.8686917"><ele>290.33333333333337</ele><time>2026-05-01T15:22:51.727Z</time></trkpt><trkpt lat="43.5437583" lon="10.868905"><ele>290.6666666666667</ele><time>2026-05-01T15:22:52.728Z</time></trkpt><trkpt lat="43.5438083" lon="10.8691333"><ele>291.0</ele><time>2026-05-01T15:22:53.728Z</time></trkpt><trkpt lat="43.5438633" lon="10.8693667"><ele>289.0</ele><time>2026-05-01T15:22:54.729Z</time></trkpt><trkpt lat="43.5439217" lon="10.8695983"><ele>287.0</ele><time>2026-05-01T15:22:55.728Z</time></trkpt><trkpt lat="43.5439733" lon="10.8698333"><ele>285.0</ele><time>2026-05-01T15:22:56.729Z</time></trkpt><trkpt lat="43.54402" lon="10.870065"><ele>284.0</ele><time>2026-05-01T15:22:57.728Z</time></trkpt><trkpt lat="43.544065" lon="10.870305"><ele>283.0</ele><time>2026-05-01T15:22:58.728Z</time></trkpt><trkpt lat="43.544095" lon="10.870535"><ele>282.0</ele><time>2026-05-01T15:22:59.728Z</time></trkpt><trkpt lat="43.5441117" lon="10.8707583"><ele>282.3333333333333</ele><time>2026-05-01T15:23:00.728Z</time></trkpt><trkpt lat="43.544125" lon="10.8709683"><ele>282.66666666666663</ele><time>2026-05-01T15:23:01.728Z</time></trkpt><trkpt lat="43.5441417" lon="10.87118"><ele>283.0</ele><time>2026-05-01T15:23:02.73Z</time></trkpt><trkpt lat="43.54415" lon="10.8713883"><ele>283.0</ele><time>2026-05-01T15:23:03.729Z</time></trkpt><trkpt lat="43.5441583" lon="10.8715867"><ele>283.0</ele><time>2026-05-01T15:23:04.728Z</time></trkpt><trkpt lat="43.5441617" lon="10.8717817"><ele>283.0</ele><time>2026-05-01T15:23:05.729Z</time></trkpt><trkpt lat="43.5441617" lon="10.8719583"><ele>283.0</ele><time>2026-05-01T15:23:06.728Z</time></trkpt><trkpt lat="43.544165" lon="10.8721217"><ele>283.4</ele><time>2026-05-01T15:23:07.729Z</time></trkpt><trkpt lat="43.5441617" lon="10.8722667"><ele>283.8</ele><time>2026-05-01T15:23:08.73Z</time></trkpt><trkpt lat="43.5441533" lon="10.8724133"><ele>284.2</ele><time>2026-05-01T15:23:09.729Z</time></trkpt><trkpt lat="43.544145" lon="10.8725683"><ele>284.6</ele><time>2026-05-01T15:23:10.727Z</time></trkpt><trkpt lat="43.54413" lon="10.8727217"><ele>285.0</ele><time>2026-05-01T15:23:11.727Z</time></trkpt><trkpt lat="43.5441017" lon="10.8728683"><ele>286.2</ele><time>2026-05-01T15:23:12.728Z</time></trkpt><trkpt lat="43.5440717" lon="10.8730017"><ele>287.4</ele><time>2026-05-01T15:23:13.727Z</time></trkpt><trkpt lat="43.544025" lon="10.87312"><ele>288.6</ele><time>2026-05-01T15:23:14.727Z</time></trkpt><trkpt lat="43.5439833" lon="10.873225"><ele>289.8</ele><time>2026-05-01T15:23:15.728Z</time></trkpt><trkpt lat="43.5439433" lon="10.8733283"><ele>291.0</ele><time>2026-05-01T15:23:16.728Z</time></trkpt><trkpt lat="43.54391" lon="10.8734283"><ele>293.0</ele><time>2026-05-01T15:23:17.728Z</time></trkpt><trkpt lat="43.5438733" lon="10.8735233"><ele>295.0</ele><time>2026-05-01T15:23:18.728Z</time></trkpt><trkpt lat="43.5438383" lon="10.87362"><ele>297.0</ele><time>2026-05-01T15:23:19.727Z</time></trkpt><trkpt lat="43.5437983" lon="10.8737183"><ele>299.0</ele><time>2026-05-01T15:23:20.73Z</time></trkpt><trkpt lat="43.5437717" lon="10.8738233"><ele>301.0</ele><time>2026-05-01T15:23:21.728Z</time></trkpt><trkpt lat="43.54375" lon="10.873935"><ele>303.0</ele><time>2026-05-01T15:23:22.728Z</time></trkpt><trkpt lat="43.54375" lon="10.8740783"><ele>304.0</ele><time>2026-05-01T15:23:23.728Z</time></trkpt><trkpt lat="43.5437667" lon="10.874275"><ele>305.0</ele><time>2026-05-01T15:23:24.728Z</time></trkpt><trkpt lat="43.5437867" lon="10.8745117"><ele>306.0</ele><time>2026-05-01T15:23:25.727Z</time></trkpt><trkpt lat="43.54381" lon="10.8747867"><ele>306.0</ele><time>2026-05-01T15:23:26.727Z</time></trkpt><trkpt lat="43.5438083" lon="10.8750733"><ele>306.0</ele><time>2026-05-01T15:23:27.727Z</time></trkpt><trkpt lat="43.5438033" lon="10.87539"><ele>306.0</ele><time>2026-05-01T15:23:28.728Z</time></trkpt><trkpt lat="43.5437783" lon="10.8757"><ele>305.3333333333333</ele><time>2026-05-01T15:23:29.727Z</time></trkpt><trkpt lat="43.5437483" lon="10.8760017"><ele>304.66666666666663</ele><time>2026-05-01T15:23:30.729Z</time></trkpt><trkpt lat="43.5437083" lon="10.8762783"><ele>304.0</ele><time>2026-05-01T15:23:31.728Z</time></trkpt><trkpt lat="43.5436667" lon="10.876545"><ele>305.66666666666663</ele><time>2026-05-01T15:23:32.729Z</time></trkpt><trkpt lat="43.5436083" lon="10.87678"><ele>307.3333333333333</ele><time>2026-05-01T15:23:33.728Z</time></trkpt><trkpt lat="43.54353" lon="10.877005"><ele>309.0</ele><time>2026-05-01T15:23:34.728Z</time></trkpt><trkpt lat="43.5434367" lon="10.8772183"><ele>309.0</ele><time>2026-05-01T15:23:35.729Z</time></trkpt><trkpt lat="43.5433317" lon="10.8774317"><ele>309.0</ele><time>2026-05-01T15:23:36.728Z</time></trkpt><trkpt lat="43.5432183" lon="10.8776467"><ele>309.0</ele><time>2026-05-01T15:23:37.729Z</time></trkpt><trkpt lat="43.5431117" lon="10.8778567"><ele>307.6666666666667</ele><time>2026-05-01T15:23:38.728Z</time></trkpt><trkpt lat="43.5430067" lon="10.87807"><ele>306.33333333333337</ele><time>2026-05-01T15:23:39.728Z</time></trkpt><trkpt lat="43.5428967" lon="10.8782917"><ele>305.0</ele><time>2026-05-01T15:23:40.728Z</time></trkpt><trkpt lat="43.5427833" lon="10.8785183"><ele>309.0</ele><time>2026-05-01T15:23:41.728Z</time></trkpt><trkpt lat="43.5426683" lon="10.878745"><ele>313.0</ele><time>2026-05-01T15:23:42.729Z</time></trkpt><trkpt lat="43.5425517" lon="10.8789783"><ele>317.0</ele><time>2026-05-01T15:23:43.728Z</time></trkpt><trkpt lat="43.5424433" lon="10.8792133"><ele>313.0</ele><time>2026-05-01T15:23:44.728Z</time></trkpt><trkpt lat="43.5423417" lon="10.8794367"><ele>309.0</ele><time>2026-05-01T15:23:45.728Z</time></trkpt><trkpt lat="43.5422367" lon="10.879645"><ele>305.0</ele><time>2026-05-01T15:23:46.728Z</time></trkpt><trkpt lat="43.5421417" lon="10.87983"><ele>304.25</ele><time>2026-05-01T15:23:47.728Z</time></trkpt><trkpt lat="43.54204" lon="10.8799733"><ele>303.5</ele><time>2026-05-01T15:23:48.729Z</time></trkpt><trkpt lat="43.5419267" lon="10.8800767"><ele>302.75</ele><time>2026-05-01T15:23:49.727Z</time></trkpt><trkpt lat="43.541795" lon="10.8801283"><ele>302.0</ele><time>2026-05-01T15:23:50.728Z</time></trkpt><trkpt lat="43.54164" lon="10.8801367"><ele>302.0</ele><time>2026-05-01T15:23:51.728Z</time></trkpt><trkpt lat="43.5414717" lon="10.880115"><ele>302.0</ele><time>2026-05-01T15:23:52.727Z</time></trkpt><trkpt lat="43.5412967" lon="10.880095"><ele>302.0</ele><time>2026-05-01T15:23:53.728Z</time></trkpt><trkpt lat="43.5411283" lon="10.880095"><ele>306.0</ele><time>2026-05-01T15:23:54.729Z</time></trkpt><trkpt lat="43.5409767" lon="10.880145"><ele>310.0</ele><time>2026-05-01T15:23:55.728Z</time></trkpt><trkpt lat="43.5408517" lon="10.8802283"><ele>314.0</ele><time>2026-05-01T15:23:56.729Z</time></trkpt><trkpt lat="43.54073" lon="10.8803717"><ele>314.0</ele><time>2026-05-01T15:23:57.727Z</time></trkpt><trkpt lat="43.5406267" lon="10.8805733"><ele>314.0</ele><time>2026-05-01T15:23:58.727Z</time></trkpt><trkpt lat="43.5405667" lon="10.8807767"><ele>314.0</ele><time>2026-05-01T15:23:59.727Z</time></trkpt><trkpt lat="43.5405067" lon="10.8810067"><ele>312.6666666666667</ele><time>2026-05-01T15:24:00.728Z</time></trkpt><trkpt lat="43.5404417" lon="10.8812467"><ele>311.3333333333333</ele><time>2026-05-01T15:24:01.728Z</time></trkpt><trkpt lat="43.54038" lon="10.8814883"><ele>310.0</ele><time>2026-05-01T15:24:02.729Z</time></trkpt><trkpt lat="43.54032" lon="10.8817383"><ele>311.0</ele><time>2026-05-01T15:24:03.729Z</time></trkpt><trkpt lat="43.540255" lon="10.8819883"><ele>312.0</ele><time>2026-05-01T15:24:04.727Z</time></trkpt><trkpt lat="43.54019" lon="10.8822483"><ele>313.0</ele><time>2026-05-01T15:24:05.728Z</time></trkpt><trkpt lat="43.54012" lon="10.8825183"><ele>315.3333333333333</ele><time>2026-05-01T15:24:06.729Z</time></trkpt><trkpt lat="43.5400417" lon="10.8827867"><ele>317.6666666666667</ele><time>2026-05-01T15:24:07.728Z</time></trkpt><trkpt lat="43.5399667" lon="10.88305"><ele>320.0</ele><time>2026-05-01T15:24:08.727Z</time></trkpt><trkpt lat="43.5398917" lon="10.8832967"><ele>320.6666666666667</ele><time>2026-05-01T15:24:09.728Z</time></trkpt><trkpt lat="43.5398233" lon="10.8835467"><ele>321.3333333333333</ele><time>2026-05-01T15:24:10.728Z</time></trkpt><trkpt lat="43.5397833" lon="10.8837967"><ele>322.0</ele><time>2026-05-01T15:24:11.729Z</time></trkpt><trkpt lat="43.5397617" lon="10.8840533"><ele>320.66666666666663</ele><time>2026-05-01T15:24:12.728Z</time></trkpt><trkpt lat="43.539745" lon="10.8843067"><ele>319.3333333333333</ele><time>2026-05-01T15:24:13.727Z</time></trkpt><trkpt lat="43.53972" lon="10.8845567"><ele>318.0</ele><time>2026-05-01T15:24:14.727Z</time></trkpt><trkpt lat="43.5396767" lon="10.8847917"><ele>318.0</ele><time>2026-05-01T15:24:15.728Z</time></trkpt><trkpt lat="43.5396233" lon="10.885015"><ele>318.0</ele><time>2026-05-01T15:24:16.728Z</time></trkpt><trkpt lat="43.539555" lon="10.8852117"><ele>318.0</ele><time>2026-05-01T15:24:17.728Z</time></trkpt><trkpt lat="43.539475" lon="10.88538"><ele>322.25</ele><time>2026-05-01T15:24:18.728Z</time></trkpt><trkpt lat="43.53938" lon="10.8855317"><ele>326.5</ele><time>2026-05-01T15:24:19.729Z</time></trkpt><trkpt lat="43.5392867" lon="10.88567"><ele>330.75</ele><time>2026-05-01T15:24:20.727Z</time></trkpt><trkpt lat="43.5392" lon="10.8857917"><ele>335.0</ele><time>2026-05-01T15:24:21.728Z</time></trkpt><trkpt lat="43.5391233" lon="10.8859017"><ele>333.25</ele><time>2026-05-01T15:24:22.728Z</time></trkpt><trkpt lat="43.5390333" lon="10.8860083"><ele>331.5</ele><time>2026-05-01T15:24:23.727Z</time></trkpt><trkpt lat="43.5389217" lon="10.8861"><ele>329.75</ele><time>2026-05-01T15:24:24.727Z</time></trkpt><trkpt lat="43.5387817" lon="10.886185"><ele>328.0</ele><time>2026-05-01T15:24:25.727Z</time></trkpt><trkpt lat="43.5386083" lon="10.8862333"><ele>328.0</ele><time>2026-05-01T15:24:26.729Z</time></trkpt><trkpt lat="43.5384017" lon="10.88626"><ele>328.0</ele><time>2026-05-01T15:24:27.727Z</time></trkpt><trkpt lat="43.5382217" lon="10.8862783"><ele>328.0</ele><time>2026-05-01T15:24:28.728Z</time></trkpt><trkpt lat="43.5380633" lon="10.8863083"><ele>328.0</ele><time>2026-05-01T15:24:29.727Z</time></trkpt><trkpt lat="43.5379333" lon="10.8863717"><ele>328.0</ele><time>2026-05-01T15:24:30.727Z</time></trkpt><trkpt lat="43.5378267" lon="10.8864783"><ele>328.0</ele><time>2026-05-01T15:24:31.728Z</time></trkpt><trkpt lat="43.5377467" lon="10.886615"><ele>328.0</ele><time>2026-05-01T15:24:32.728Z</time></trkpt><trkpt lat="43.5376917" lon="10.8867733"><ele>330.0</ele><time>2026-05-01T15:24:33.728Z</time></trkpt><trkpt lat="43.5376483" lon="10.8869483"><ele>332.0</ele><time>2026-05-01T15:24:34.728Z</time></trkpt><trkpt lat="43.53762" lon="10.8871117"><ele>334.0</ele><time>2026-05-01T15:24:35.728Z</time></trkpt><trkpt lat="43.5375967" lon="10.887265"><ele>336.0</ele><time>2026-05-01T15:24:36.728Z</time></trkpt><trkpt lat="43.5375717" lon="10.8874117"><ele>336.0</ele><time>2026-05-01T15:24:37.728Z</time></trkpt><trkpt lat="43.537555" lon="10.887565"><ele>336.0</ele><time>2026-05-01T15:24:38.728Z</time></trkpt><trkpt lat="43.5375317" lon="10.8877267"><ele>336.0</ele><time>2026-05-01T15:24:39.728Z</time></trkpt><trkpt lat="43.5374917" lon="10.8878817"><ele>336.0</ele><time>2026-05-01T15:24:40.727Z</time></trkpt><trkpt lat="43.5374483" lon="10.88803"><ele>335.75</ele><time>2026-05-01T15:24:41.728Z</time></trkpt><trkpt lat="43.5373933" lon="10.88817"><ele>335.5</ele><time>2026-05-01T15:24:42.727Z</time></trkpt><trkpt lat="43.53734" lon="10.8883017"><ele>335.25</ele><time>2026-05-01T15:24:43.728Z</time></trkpt><trkpt lat="43.5372683" lon="10.8884317"><ele>335.0</ele><time>2026-05-01T15:24:44.727Z</time></trkpt><trkpt lat="43.537195" lon="10.8885633"><ele>334.0</ele><time>2026-05-01T15:24:45.727Z</time></trkpt><trkpt lat="43.5371033" lon="10.8886933"><ele>333.0</ele><time>2026-05-01T15:24:46.727Z</time></trkpt><trkpt lat="43.5370017" lon="10.888815"><ele>332.0</ele><time>2026-05-01T15:24:47.727Z</time></trkpt><trkpt lat="43.536875" lon="10.8889233"><ele>331.0</ele><time>2026-05-01T15:24:48.727Z</time></trkpt><trkpt lat="43.5367167" lon="10.8890267"><ele>331.0</ele><time>2026-05-01T15:24:49.729Z</time></trkpt><trkpt lat="43.5365533" lon="10.8891217"><ele>331.0</ele><time>2026-05-01T15:24:50.728Z</time></trkpt><trkpt lat="43.5364067" lon="10.8892017"><ele>331.0</ele><time>2026-05-01T15:24:51.729Z</time></trkpt><trkpt lat="43.53627" lon="10.8893033"><ele>329.66666666666663</ele><time>2026-05-01T15:24:52.727Z</time></trkpt><trkpt lat="43.536145" lon="10.8894367"><ele>328.3333333333333</ele><time>2026-05-01T15:24:53.728Z</time></trkpt><trkpt lat="43.5360017" lon="10.88963"><ele>327.0</ele><time>2026-05-01T15:24:54.728Z</time></trkpt><trkpt lat="43.5358617" lon="10.8897967"><ele>327.0</ele><time>2026-05-01T15:24:55.728Z</time></trkpt><trkpt lat="43.535735" lon="10.8899667"><ele>327.0</ele><time>2026-05-01T15:24:56.729Z</time></trkpt><trkpt lat="43.5356183" lon="10.8901167"><ele>327.0</ele><time>2026-05-01T15:24:57.727Z</time></trkpt><trkpt lat="43.535505" lon="10.8902483"><ele>326.5</ele><time>2026-05-01T15:24:58.728Z</time></trkpt><trkpt lat="43.5354167" lon="10.89036"><ele>326.0</ele><time>2026-05-01T15:24:59.728Z</time></trkpt><trkpt lat="43.5353167" lon="10.89049"><ele>325.5</ele><time>2026-05-01T15:25:00.728Z</time></trkpt><trkpt lat="43.535215" lon="10.8906383"><ele>325.0</ele><time>2026-05-01T15:25:01.728Z</time></trkpt><trkpt lat="43.5350933" lon="10.8908117"><ele>323.3333333333333</ele><time>2026-05-01T15:25:02.728Z</time></trkpt><trkpt lat="43.5349617" lon="10.8909817"><ele>321.6666666666667</ele><time>2026-05-01T15:25:03.728Z</time></trkpt><trkpt lat="43.53481" lon="10.8911583"><ele>320.0</ele><time>2026-05-01T15:25:04.728Z</time></trkpt><trkpt lat="43.5346483" lon="10.89136"><ele>323.0</ele><time>2026-05-01T15:25:05.728Z</time></trkpt><trkpt lat="43.5344917" lon="10.8915583"><ele>326.0</ele><time>2026-05-01T15:25:06.727Z</time></trkpt><trkpt lat="43.534335" lon="10.8917583"><ele>329.0</ele><time>2026-05-01T15:25:07.727Z</time></trkpt><trkpt lat="43.53419" lon="10.8919417"><ele>329.0</ele><time>2026-05-01T15:25:08.728Z</time></trkpt><trkpt lat="43.5340667" lon="10.89211"><ele>329.0</ele><time>2026-05-01T15:25:09.728Z</time></trkpt><trkpt lat="43.5339317" lon="10.89226"><ele>329.0</ele><time>2026-05-01T15:25:10.727Z</time></trkpt><trkpt lat="43.533785" lon="10.89237"><ele>332.6666666666667</ele><time>2026-05-01T15:25:11.727Z</time></trkpt><trkpt lat="43.5336367" lon="10.8924267"><ele>336.3333333333333</ele><time>2026-05-01T15:25:12.728Z</time></trkpt><trkpt lat="43.5334633" lon="10.8924367"><ele>340.0</ele><time>2026-05-01T15:25:13.727Z</time></trkpt><trkpt lat="43.53328" lon="10.8924067"><ele>340.0</ele><time>2026-05-01T15:25:14.727Z</time></trkpt><trkpt lat="43.533085" lon="10.89235"><ele>340.0</ele><time>2026-05-01T15:25:15.728Z</time></trkpt><trkpt lat="43.532865" lon="10.8922833"><ele>340.0</ele><time>2026-05-01T15:25:16.727Z</time></trkpt><trkpt lat="43.53265" lon="10.8922083"><ele>340.0</ele><time>2026-05-01T15:25:17.728Z</time></trkpt><trkpt lat="43.5324283" lon="10.8921633"><ele>340.0</ele><time>2026-05-01T15:25:18.729Z</time></trkpt><trkpt lat="43.5322" lon="10.8921433"><ele>340.0</ele><time>2026-05-01T15:25:19.728Z</time></trkpt><trkpt lat="43.5319783" lon="10.89214"><ele>340.0</ele><time>2026-05-01T15:25:20.727Z</time></trkpt><trkpt lat="43.5317617" lon="10.8921367"><ele>340.0</ele><time>2026-05-01T15:25:21.728Z</time></trkpt><trkpt lat="43.531555" lon="10.8921417"><ele>340.0</ele><time>2026-05-01T15:25:22.727Z</time></trkpt><trkpt lat="43.5313667" lon="10.8921567"><ele>340.0</ele><time>2026-05-01T15:25:23.728Z</time></trkpt><trkpt lat="43.531195" lon="10.8921833"><ele>340.0</ele><time>2026-05-01T15:25:24.728Z</time></trkpt><trkpt lat="43.5310017" lon="10.89224"><ele>342.3333333333333</ele><time>2026-05-01T15:25:25.729Z</time></trkpt><trkpt lat="43.530815" lon="10.892305"><ele>344.6666666666667</ele><time>2026-05-01T15:25:26.728Z</time></trkpt><trkpt lat="43.5306267" lon="10.8923583"><ele>347.0</ele><time>2026-05-01T15:25:27.727Z</time></trkpt><trkpt lat="43.53043" lon="10.8924217"><ele>346.33333333333337</ele><time>2026-05-01T15:25:28.728Z</time></trkpt><trkpt lat="43.5302333" lon="10.892475"><ele>345.6666666666667</ele><time>2026-05-01T15:25:29.728Z</time></trkpt><trkpt lat="43.5300267" lon="10.8925333"><ele>345.0</ele><time>2026-05-01T15:25:30.728Z</time></trkpt><trkpt lat="43.5298267" lon="10.8925933"><ele>345.0</ele><time>2026-05-01T15:25:31.728Z</time></trkpt><trkpt lat="43.529635" lon="10.89267"><ele>345.0</ele><time>2026-05-01T15:25:32.726Z</time></trkpt><trkpt lat="43.529435" lon="10.892795"><ele>345.0</ele><time>2026-05-01T15:25:33.728Z</time></trkpt><trkpt lat="43.529245" lon="10.8929317"><ele>345.0</ele><time>2026-05-01T15:25:34.727Z</time></trkpt><trkpt lat="43.5290483" lon="10.8930783"><ele>345.0</ele><time>2026-05-01T15:25:35.727Z</time></trkpt><trkpt lat="43.5288683" lon="10.8932467"><ele>345.0</ele><time>2026-05-01T15:25:36.728Z</time></trkpt><trkpt lat="43.5286867" lon="10.89342"><ele>348.3333333333333</ele><time>2026-05-01T15:25:37.728Z</time></trkpt><trkpt lat="43.52851" lon="10.8935783"><ele>351.66666666666663</ele><time>2026-05-01T15:25:38.727Z</time></trkpt><trkpt lat="43.5283483" lon="10.8937267"><ele>355.0</ele><time>2026-05-01T15:25:39.725Z</time></trkpt><trkpt lat="43.5282067" lon="10.893855"><ele>355.0</ele><time>2026-05-01T15:25:40.727Z</time></trkpt><trkpt lat="43.5280867" lon="10.8939767"><ele>355.0</ele><time>2026-05-01T15:25:41.728Z</time></trkpt><trkpt lat="43.5280033" lon="10.8941"><ele>355.0</ele><time>2026-05-01T15:25:42.727Z</time></trkpt><trkpt lat="43.5279483" lon="10.8942433"><ele>355.0</ele><time>2026-05-01T15:25:43.729Z</time></trkpt><trkpt lat="43.52792" lon="10.8944033"><ele>358.66666666666663</ele><time>2026-05-01T15:25:44.728Z</time></trkpt><trkpt lat="43.5279283" lon="10.8945867"><ele>362.3333333333333</ele><time>2026-05-01T15:25:45.728Z</time></trkpt><trkpt lat="43.5279717" lon="10.894805"><ele>366.0</ele><time>2026-05-01T15:25:46.726Z</time></trkpt><trkpt lat="43.5279967" lon="10.8950183"><ele>368.25</ele><time>2026-05-01T15:25:47.727Z</time></trkpt><trkpt lat="43.527995" lon="10.8952267"><ele>370.5</ele><time>2026-05-01T15:25:48.728Z</time></trkpt><trkpt lat="43.5279617" lon="10.8954183"><ele>372.75</ele><time>2026-05-01T15:25:49.727Z</time></trkpt><trkpt lat="43.5278967" lon="10.8955933"><ele>375.0</ele><time>2026-05-01T15:25:50.728Z</time></trkpt><trkpt lat="43.5277783" lon="10.8957133"><ele>375.0</ele><time>2026-05-01T15:25:51.728Z</time></trkpt><trkpt lat="43.527665" lon="10.89583"><ele>375.0</ele><time>2026-05-01T15:25:52.728Z</time></trkpt><trkpt lat="43.5275567" lon="10.8959533"><ele>375.0</ele><time>2026-05-01T15:25:53.727Z</time></trkpt><trkpt lat="43.52747" lon="10.896095"><ele>375.0</ele><time>2026-05-01T15:25:54.728Z</time></trkpt><trkpt lat="43.527415" lon="10.896275"><ele>378.5</ele><time>2026-05-01T15:25:55.728Z</time></trkpt><trkpt lat="43.5273583" lon="10.8964417"><ele>382.0</ele><time>2026-05-01T15:25:56.727Z</time></trkpt><trkpt lat="43.52728" lon="10.896575"><ele>385.5</ele><time>2026-05-01T15:25:57.728Z</time></trkpt><trkpt lat="43.5271733" lon="10.8966467"><ele>389.0</ele><time>2026-05-01T15:25:58.727Z</time></trkpt><trkpt lat="43.5270567" lon="10.8966633"><ele>390.0</ele><time>2026-05-01T15:25:59.727Z</time></trkpt><trkpt lat="43.5269283" lon="10.89664"><ele>391.0</ele><time>2026-05-01T15:26:00.728Z</time></trkpt><trkpt lat="43.5267967" lon="10.8966067"><ele>392.0</ele><time>2026-05-01T15:26:01.727Z</time></trkpt><trkpt lat="43.5266717" lon="10.8965817"><ele>393.0</ele><time>2026-05-01T15:26:02.728Z</time></trkpt><trkpt lat="43.5265733" lon="10.89655"><ele>393.0</ele><time>2026-05-01T15:26:03.726Z</time></trkpt><trkpt lat="43.5264483" lon="10.896535"><ele>393.0</ele><time>2026-05-01T15:26:05.727Z</time></trkpt><trkpt lat="43.5263317" lon="10.89652"><ele>393.0</ele><time>2026-05-01T15:26:07.726Z</time></trkpt><trkpt lat="43.526265" lon="10.89658"><ele>393.0</ele><time>2026-05-01T15:26:09.728Z</time></trkpt><trkpt lat="43.5264067" lon="10.8966733"><ele>393.0</ele><time>2026-05-01T15:26:12.727Z</time></trkpt><trkpt lat="43.5265567" lon="10.8967"><ele>393.0</ele><time>2026-05-01T15:26:13.727Z</time></trkpt><trkpt lat="43.5267067" lon="10.8967517"><ele>393.0</ele><time>2026-05-01T15:26:14.727Z</time></trkpt><trkpt lat="43.52688" lon="10.8968267"><ele>393.33333333333337</ele><time>2026-05-01T15:26:15.726Z</time></trkpt><trkpt lat="43.527085" lon="10.8969117"><ele>393.6666666666667</ele><time>2026-05-01T15:26:16.727Z</time></trkpt><trkpt lat="43.5272983" lon="10.8969883"><ele>394.0</ele><time>2026-05-01T15:26:17.727Z</time></trkpt><trkpt lat="43.5275183" lon="10.89707"><ele>394.0</ele><time>2026-05-01T15:26:18.728Z</time></trkpt><trkpt lat="43.5277483" lon="10.8971567"><ele>394.0</ele><time>2026-05-01T15:26:19.728Z</time></trkpt><trkpt lat="43.5279883" lon="10.8972383"><ele>395.5</ele><time>2026-05-01T15:26:20.728Z</time></trkpt><trkpt lat="43.5282167" lon="10.8973133"><ele>397.0</ele><time>2026-05-01T15:26:21.727Z</time></trkpt><trkpt lat="43.528435" lon="10.89738"><ele>397.0</ele><time>2026-05-01T15:26:22.729Z</time></trkpt><trkpt lat="43.5286433" lon="10.8974683"><ele>397.0</ele><time>2026-05-01T15:26:23.727Z</time></trkpt><trkpt lat="43.5288333" lon="10.8975933"><ele>397.0</ele><time>2026-05-01T15:26:24.728Z</time></trkpt><trkpt lat="43.529005" lon="10.8977317"><ele>394.6666666666667</ele><time>2026-05-01T15:26:25.728Z</time></trkpt><trkpt lat="43.5291767" lon="10.8978667"><ele>392.33333333333337</ele><time>2026-05-01T15:26:26.728Z</time></trkpt><trkpt lat="43.5293583" lon="10.897995"><ele>390.0</ele><time>2026-05-01T15:26:27.726Z</time></trkpt><trkpt lat="43.5295467" lon="10.8981167"><ele>390.0</ele><time>2026-05-01T15:26:28.727Z</time></trkpt><trkpt lat="43.52973" lon="10.8982417"><ele>390.0</ele><time>2026-05-01T15:26:29.727Z</time></trkpt><trkpt lat="43.5298983" lon="10.8983683"><ele>390.0</ele><time>2026-05-01T15:26:30.728Z</time></trkpt><trkpt lat="43.53005" lon="10.8984967"><ele>390.0</ele><time>2026-05-01T15:26:31.727Z</time></trkpt><trkpt lat="43.5302" lon="10.898625"><ele>390.0</ele><time>2026-05-01T15:26:32.728Z</time></trkpt><trkpt lat="43.5303467" lon="10.89875"><ele>390.0</ele><time>2026-05-01T15:26:33.728Z</time></trkpt><trkpt lat="43.5304883" lon="10.8988633"><ele>387.3333333333333</ele><time>2026-05-01T15:26:34.729Z</time></trkpt><trkpt lat="43.5306317" lon="10.8989583"><ele>384.66666666666663</ele><time>2026-05-01T15:26:35.728Z</time></trkpt><trkpt lat="43.5307733" lon="10.899075"><ele>382.0</ele><time>2026-05-01T15:26:36.728Z</time></trkpt><trkpt lat="43.5309217" lon="10.8991767"><ele>380.0</ele><time>2026-05-01T15:26:37.728Z</time></trkpt><trkpt lat="43.5310667" lon="10.8992767"><ele>378.0</ele><time>2026-05-01T15:26:38.728Z</time></trkpt><trkpt lat="43.53121" lon="10.8993733"><ele>376.0</ele><time>2026-05-01T15:26:39.727Z</time></trkpt><trkpt lat="43.53135" lon="10.8994567"><ele>375.0</ele><time>2026-05-01T15:26:40.728Z</time></trkpt><trkpt lat="43.5314767" lon="10.89952"><ele>374.0</ele><time>2026-05-01T15:26:41.726Z</time></trkpt><trkpt lat="43.5316067" lon="10.8995783"><ele>373.0</ele><time>2026-05-01T15:26:42.727Z</time></trkpt><trkpt lat="43.531745" lon="10.8996017"><ele>372.0</ele><time>2026-05-01T15:26:43.727Z</time></trkpt><trkpt lat="43.5319133" lon="10.8995983"><ele>372.6666666666667</ele><time>2026-05-01T15:26:44.726Z</time></trkpt><trkpt lat="43.5321133" lon="10.8995833"><ele>373.33333333333337</ele><time>2026-05-01T15:26:45.726Z</time></trkpt><trkpt lat="43.5323283" lon="10.8995817"><ele>374.0</ele><time>2026-05-01T15:26:46.726Z</time></trkpt><trkpt lat="43.53254" lon="10.8995867"><ele>374.0</ele><time>2026-05-01T15:26:47.728Z</time></trkpt><trkpt lat="43.5327433" lon="10.8995933"><ele>374.0</ele><time>2026-05-01T15:26:48.728Z</time></trkpt><trkpt lat="43.532935" lon="10.8995883"><ele>374.0</ele><time>2026-05-01T15:26:49.728Z</time></trkpt><trkpt lat="43.5331033" lon="10.8995633"><ele>372.25</ele><time>2026-05-01T15:26:50.727Z</time></trkpt><trkpt lat="43.533245" lon="10.8995283"><ele>370.5</ele><time>2026-05-01T15:26:51.727Z</time></trkpt><trkpt lat="43.5333583" lon="10.8994533"><ele>368.75</ele><time>2026-05-01T15:26:52.727Z</time></trkpt><trkpt lat="43.533445" lon="10.8993333"><ele>367.0</ele><time>2026-05-01T15:26:53.728Z</time></trkpt><trkpt lat="43.5334933" lon="10.8992067"><ele>366.25</ele><time>2026-05-01T15:26:54.728Z</time></trkpt><trkpt lat="43.53349" lon="10.899035"><ele>365.5</ele><time>2026-05-01T15:26:55.727Z</time></trkpt><trkpt lat="43.533435" lon="10.8988733"><ele>364.75</ele><time>2026-05-01T15:26:56.728Z</time></trkpt><trkpt lat="43.53334" lon="10.8986933"><ele>364.0</ele><time>2026-05-01T15:26:57.727Z</time></trkpt><trkpt lat="43.533235" lon="10.8985067"><ele>361.66666666666663</ele><time>2026-05-01T15:26:58.727Z</time></trkpt><trkpt lat="43.53314" lon="10.89832"><ele>359.3333333333333</ele><time>2026-05-01T15:26:59.727Z</time></trkpt><trkpt lat="43.5330633" lon="10.8981417"><ele>357.0</ele><time>2026-05-01T15:27:00.727Z</time></trkpt><trkpt lat="43.5330183" lon="10.897965"><ele>357.0</ele><time>2026-05-01T15:27:01.728Z</time></trkpt><trkpt lat="43.53301" lon="10.8977833"><ele>357.0</ele><time>2026-05-01T15:27:02.728Z</time></trkpt><trkpt lat="43.5330467" lon="10.8975883"><ele>357.0</ele><time>2026-05-01T15:27:03.728Z</time></trkpt><trkpt lat="43.5331317" lon="10.8974133"><ele>357.0</ele><time>2026-05-01T15:27:04.728Z</time></trkpt><trkpt lat="43.5332417" lon="10.8972717"><ele>357.0</ele><time>2026-05-01T15:27:05.728Z</time></trkpt><trkpt lat="43.53337" lon="10.8971517"><ele>357.0</ele><time>2026-05-01T15:27:06.728Z</time></trkpt><trkpt lat="43.533515" lon="10.897085"><ele>357.0</ele><time>2026-05-01T15:27:07.727Z</time></trkpt><trkpt lat="43.5336783" lon="10.8970683"><ele>355.3333333333333</ele><time>2026-05-01T15:27:08.728Z</time></trkpt><trkpt lat="43.5338617" lon="10.8970917"><ele>353.66666666666663</ele><time>2026-05-01T15:27:09.728Z</time></trkpt><trkpt lat="43.53406" lon="10.8971167"><ele>352.0</ele><time>2026-05-01T15:27:10.727Z</time></trkpt><trkpt lat="43.5342583" lon="10.8971367"><ele>352.0</ele><time>2026-05-01T15:27:11.727Z</time></trkpt><trkpt lat="43.53445" lon="10.897135"><ele>352.0</ele><time>2026-05-01T15:27:12.728Z</time></trkpt><trkpt lat="43.5346433" lon="10.89715"><ele>352.0</ele><time>2026-05-01T15:27:13.729Z</time></trkpt><trkpt lat="43.53483" lon="10.8971833"><ele>350.3333333333333</ele><time>2026-05-01T15:27:14.728Z</time></trkpt><trkpt lat="43.535015" lon="10.8972433"><ele>348.6666666666667</ele><time>2026-05-01T15:27:15.726Z</time></trkpt><trkpt lat="43.5351933" lon="10.8973467"><ele>347.0</ele><time>2026-05-01T15:27:16.728Z</time></trkpt><trkpt lat="43.53536" lon="10.8974983"><ele>344.6666666666667</ele><time>2026-05-01T15:27:17.728Z</time></trkpt><trkpt lat="43.53552" lon="10.89768"><ele>342.3333333333333</ele><time>2026-05-01T15:27:18.728Z</time></trkpt><trkpt lat="43.5356867" lon="10.8978633"><ele>340.0</ele><time>2026-05-01T15:27:19.727Z</time></trkpt><trkpt lat="43.53586" lon="10.8980517"><ele>340.0</ele><time>2026-05-01T15:27:20.727Z</time></trkpt><trkpt lat="43.5360317" lon="10.898265"><ele>340.0</ele><time>2026-05-01T15:27:21.727Z</time></trkpt><trkpt lat="43.5362033" lon="10.8984667"><ele>338.3333333333333</ele><time>2026-05-01T15:27:22.726Z</time></trkpt><trkpt lat="43.5363667" lon="10.898655"><ele>336.6666666666667</ele><time>2026-05-01T15:27:23.729Z</time></trkpt><trkpt lat="43.5365267" lon="10.89884"><ele>335.0</ele><time>2026-05-01T15:27:24.727Z</time></trkpt><trkpt lat="43.5366883" lon="10.8990283"><ele>335.0</ele><time>2026-05-01T15:27:25.728Z</time></trkpt><trkpt lat="43.5368217" lon="10.8992333"><ele>335.0</ele><time>2026-05-01T15:27:26.728Z</time></trkpt><trkpt lat="43.5369267" lon="10.8994567"><ele>335.0</ele><time>2026-05-01T15:27:27.727Z</time></trkpt><trkpt lat="43.5370067" lon="10.8997117"><ele>336.33333333333337</ele><time>2026-05-01T15:27:28.727Z</time></trkpt><trkpt lat="43.5370717" lon="10.89998"><ele>337.6666666666667</ele><time>2026-05-01T15:27:29.728Z</time></trkpt><trkpt lat="43.53713" lon="10.9002617"><ele>339.0</ele><time>2026-05-01T15:27:30.728Z</time></trkpt><trkpt lat="43.5371867" lon="10.900545"><ele>336.3333333333333</ele><time>2026-05-01T15:27:31.728Z</time></trkpt><trkpt lat="43.5372317" lon="10.9008133"><ele>333.66666666666663</ele><time>2026-05-01T15:27:32.727Z</time></trkpt><trkpt lat="43.5372667" lon="10.9010717"><ele>331.0</ele><time>2026-05-01T15:27:33.727Z</time></trkpt><trkpt lat="43.537305" lon="10.9013067"><ele>327.3333333333333</ele><time>2026-05-01T15:27:34.727Z</time></trkpt><trkpt lat="43.5373483" lon="10.9015267"><ele>323.6666666666667</ele><time>2026-05-01T15:27:35.728Z</time></trkpt><trkpt lat="43.5374217" lon="10.9017167"><ele>320.0</ele><time>2026-05-01T15:27:36.728Z</time></trkpt><trkpt lat="43.5375417" lon="10.9018783"><ele>319.33333333333337</ele><time>2026-05-01T15:27:37.727Z</time></trkpt><trkpt lat="43.5376817" lon="10.9020067"><ele>318.6666666666667</ele><time>2026-05-01T15:27:38.728Z</time></trkpt><trkpt lat="43.53782" lon="10.90213"><ele>318.0</ele><time>2026-05-01T15:27:39.726Z</time></trkpt><trkpt lat="43.5379467" lon="10.9022617"><ele>318.0</ele><time>2026-05-01T15:27:40.728Z</time></trkpt><trkpt lat="43.5380567" lon="10.9024033"><ele>318.0</ele><time>2026-05-01T15:27:41.728Z</time></trkpt><trkpt lat="43.538145" lon="10.902585"><ele>318.0</ele><time>2026-05-01T15:27:42.73Z</time></trkpt><trkpt lat="43.5382117" lon="10.90281"><ele>315.6666666666667</ele><time>2026-05-01T15:27:43.728Z</time></trkpt><trkpt lat="43.53825" lon="10.903075"><ele>313.33333333333337</ele><time>2026-05-01T15:27:44.728Z</time></trkpt><trkpt lat="43.53829" lon="10.903335"><ele>311.0</ele><time>2026-05-01T15:27:45.727Z</time></trkpt><trkpt lat="43.5383233" lon="10.9035917"><ele>309.6666666666667</ele><time>2026-05-01T15:27:46.725Z</time></trkpt><trkpt lat="43.5383517" lon="10.9038283"><ele>308.3333333333333</ele><time>2026-05-01T15:27:47.728Z</time></trkpt><trkpt lat="43.53838" lon="10.904055"><ele>307.0</ele><time>2026-05-01T15:27:48.728Z</time></trkpt><trkpt lat="43.5383967" lon="10.9042667"><ele>304.0</ele><time>2026-05-01T15:27:49.727Z</time></trkpt><trkpt lat="43.5383917" lon="10.9044583"><ele>301.0</ele><time>2026-05-01T15:27:50.727Z</time></trkpt><trkpt lat="43.5383583" lon="10.9046317"><ele>298.0</ele><time>2026-05-01T15:27:51.728Z</time></trkpt><trkpt lat="43.53829" lon="10.90478"><ele>295.0</ele><time>2026-05-01T15:27:52.73Z</time></trkpt><trkpt lat="43.5381967" lon="10.904895"><ele>295.0</ele><time>2026-05-01T15:27:53.728Z</time></trkpt><trkpt lat="43.5380333" lon="10.9049867"><ele>295.0</ele><time>2026-05-01T15:27:54.728Z</time></trkpt><trkpt lat="43.5378533" lon="10.9050583"><ele>295.0</ele><time>2026-05-01T15:27:55.727Z</time></trkpt><trkpt lat="43.5377033" lon="10.9051167"><ele>292.0</ele><time>2026-05-01T15:27:56.73Z</time></trkpt><trkpt lat="43.5375567" lon="10.9051817"><ele>289.0</ele><time>2026-05-01T15:27:57.728Z</time></trkpt><trkpt lat="43.5374167" lon="10.905295"><ele>286.0</ele><time>2026-05-01T15:27:58.729Z</time></trkpt><trkpt lat="43.5372783" lon="10.9054567"><ele>286.0</ele><time>2026-05-01T15:27:59.729Z</time></trkpt><trkpt lat="43.5371367" lon="10.90563"><ele>286.0</ele><time>2026-05-01T15:28:00.729Z</time></trkpt><trkpt lat="43.536975" lon="10.905785"><ele>286.0</ele><time>2026-05-01T15:28:01.727Z</time></trkpt><trkpt lat="43.5368067" lon="10.905925"><ele>284.3333333333333</ele><time>2026-05-01T15:28:02.728Z</time></trkpt><trkpt lat="43.5366333" lon="10.9060917"><ele>282.6666666666667</ele><time>2026-05-01T15:28:03.728Z</time></trkpt><trkpt lat="43.53647" lon="10.9062233"><ele>281.0</ele><time>2026-05-01T15:28:04.728Z</time></trkpt><trkpt lat="43.5363167" lon="10.9063717"><ele>280.6666666666667</ele><time>2026-05-01T15:28:05.728Z</time></trkpt><trkpt lat="43.53617" lon="10.90656"><ele>280.3333333333333</ele><time>2026-05-01T15:28:06.728Z</time></trkpt><trkpt lat="43.5360317" lon="10.906765"><ele>280.0</ele><time>2026-05-01T15:28:07.727Z</time></trkpt><trkpt lat="43.5358933" lon="10.907"><ele>280.0</ele><time>2026-05-01T15:28:08.728Z</time></trkpt><trkpt lat="43.5357583" lon="10.90722"><ele>280.0</ele><time>2026-05-01T15:28:09.726Z</time></trkpt><trkpt lat="43.535625" lon="10.90742"><ele>280.0</ele><time>2026-05-01T15:28:10.727Z</time></trkpt><trkpt lat="43.535485" lon="10.9075983"><ele>279.75</ele><time>2026-05-01T15:28:11.728Z</time></trkpt><trkpt lat="43.53536" lon="10.9077583"><ele>279.5</ele><time>2026-05-01T15:28:12.728Z</time></trkpt><trkpt lat="43.53526" lon="10.9079"><ele>279.25</ele><time>2026-05-01T15:28:13.728Z</time></trkpt><trkpt lat="43.5351917" lon="10.9080383"><ele>279.0</ele><time>2026-05-01T15:28:14.729Z</time></trkpt><trkpt lat="43.5351417" lon="10.90817"><ele>279.0</ele><time>2026-05-01T15:28:15.727Z</time></trkpt><trkpt lat="43.5351183" lon="10.908305"><ele>279.0</ele><time>2026-05-01T15:28:16.727Z</time></trkpt><trkpt lat="43.535155" lon="10.90846"><ele>279.0</ele><time>2026-05-01T15:28:17.728Z</time></trkpt><trkpt lat="43.5352283" lon="10.9086367"><ele>279.0</ele><time>2026-05-01T15:28:18.728Z</time></trkpt><trkpt lat="43.5353867" lon="10.9088083"><ele>283.25</ele><time>2026-05-01T15:28:19.728Z</time></trkpt><trkpt lat="43.5354783" lon="10.9089383"><ele>287.5</ele><time>2026-05-01T15:28:20.729Z</time></trkpt><trkpt lat="43.5355833" lon="10.9090367"><ele>291.75</ele><time>2026-05-01T15:28:21.728Z</time></trkpt><trkpt lat="43.5357" lon="10.9090683"><ele>296.0</ele><time>2026-05-01T15:28:22.727Z</time></trkpt><trkpt lat="43.5358333" lon="10.90905"><ele>296.0</ele><time>2026-05-01T15:28:23.73Z</time></trkpt><trkpt lat="43.5359933" lon="10.908975"><ele>296.0</ele><time>2026-05-01T15:28:24.728Z</time></trkpt><trkpt lat="43.53618" lon="10.90881"><ele>296.0</ele><time>2026-05-01T15:28:25.729Z</time></trkpt><trkpt lat="43.5363367" lon="10.9086517"><ele>294.33333333333337</ele><time>2026-05-01T15:28:26.727Z</time></trkpt><trkpt lat="43.53645" lon="10.9084733"><ele>292.6666666666667</ele><time>2026-05-01T15:28:27.727Z</time></trkpt><trkpt lat="43.53653" lon="10.9082767"><ele>291.0</ele><time>2026-05-01T15:28:28.728Z</time></trkpt><trkpt lat="43.5366067" lon="10.90808"><ele>291.0</ele><time>2026-05-01T15:28:29.728Z</time></trkpt><trkpt lat="43.5367033" lon="10.9079417"><ele>291.0</ele><time>2026-05-01T15:28:30.727Z</time></trkpt><trkpt lat="43.536825" lon="10.907865"><ele>291.0</ele><time>2026-05-01T15:28:31.728Z</time></trkpt><trkpt lat="43.5369717" lon="10.9078617"><ele>291.0</ele><time>2026-05-01T15:28:32.729Z</time></trkpt><trkpt lat="43.5371467" lon="10.9078867"><ele>293.0</ele><time>2026-05-01T15:28:33.727Z</time></trkpt><trkpt lat="43.53734" lon="10.90792"><ele>295.0</ele><time>2026-05-01T15:28:34.73Z</time></trkpt><trkpt lat="43.5375483" lon="10.9079733"><ele>297.0</ele><time>2026-05-01T15:28:35.728Z</time></trkpt><trkpt lat="43.5377383" lon="10.90802"><ele>295.75</ele><time>2026-05-01T15:28:36.73Z</time></trkpt><trkpt lat="43.5379083" lon="10.9080483"><ele>294.5</ele><time>2026-05-01T15:28:37.729Z</time></trkpt><trkpt lat="43.5380433" lon="10.9080433"><ele>293.25</ele><time>2026-05-01T15:28:38.731Z</time></trkpt><trkpt lat="43.5381633" lon="10.9080183"><ele>292.0</ele><time>2026-05-01T15:28:39.729Z</time></trkpt><trkpt lat="43.5382933" lon="10.908"><ele>292.0</ele><time>2026-05-01T15:28:40.73Z</time></trkpt><trkpt lat="43.538345" lon="10.9078367"><ele>292.0</ele><time>2026-05-01T15:28:41.728Z</time></trkpt><trkpt lat="43.5383967" lon="10.90755"><ele>292.0</ele><time>2026-05-01T15:28:42.729Z</time></trkpt><trkpt lat="43.53846" lon="10.9073083"><ele>293.3333333333333</ele><time>2026-05-01T15:28:43.729Z</time></trkpt><trkpt lat="43.5385517" lon="10.9070883"><ele>294.6666666666667</ele><time>2026-05-01T15:28:44.729Z</time></trkpt><trkpt lat="43.538645" lon="10.9068683"><ele>296.0</ele><time>2026-05-01T15:28:45.729Z</time></trkpt><trkpt lat="43.5387567" lon="10.906665"><ele>296.0</ele><time>2026-05-01T15:28:46.729Z</time></trkpt><trkpt lat="43.5388817" lon="10.9064883"><ele>296.0</ele><time>2026-05-01T15:28:47.729Z</time></trkpt><trkpt lat="43.5390083" lon="10.90633"><ele>296.0</ele><time>2026-05-01T15:28:48.728Z</time></trkpt><trkpt lat="43.5391367" lon="10.9062"><ele>296.0</ele><time>2026-05-01T15:28:49.73Z</time></trkpt><trkpt lat="43.5392433" lon="10.906055"><ele>296.0</ele><time>2026-05-01T15:28:50.728Z</time></trkpt><trkpt lat="43.5393583" lon="10.9059583"><ele>296.0</ele><time>2026-05-01T15:28:51.728Z</time></trkpt><trkpt lat="43.5394917" lon="10.9059183"><ele>296.0</ele><time>2026-05-01T15:28:52.728Z</time></trkpt><trkpt lat="43.5396417" lon="10.9059517"><ele>297.5</ele><time>2026-05-01T15:28:53.726Z</time></trkpt><trkpt lat="43.5397967" lon="10.9060167"><ele>299.0</ele><time>2026-05-01T15:28:54.727Z</time></trkpt><trkpt lat="43.5399383" lon="10.90612"><ele>300.5</ele><time>2026-05-01T15:28:55.728Z</time></trkpt><trkpt lat="43.54004" lon="10.9061983"><ele>302.0</ele><time>2026-05-01T15:28:56.728Z</time></trkpt><trkpt lat="43.5401117" lon="10.9062483"><ele>302.0</ele><time>2026-05-01T15:28:57.728Z</time></trkpt><trkpt lat="43.5401933" lon="10.906325"><ele>302.0</ele><time>2026-05-01T15:28:59.729Z</time></trkpt><trkpt lat="43.5401283" lon="10.906375"><ele>302.0</ele><time>2026-05-01T15:29:05.728Z</time></trkpt><trkpt lat="43.5400533" lon="10.90648"><ele>302.0</ele><time>2026-05-01T15:29:07.729Z</time></trkpt><trkpt lat="43.5400033" lon="10.906585"><ele>302.0</ele><time>2026-05-01T15:29:08.728Z</time></trkpt><trkpt lat="43.539905" lon="10.9067783"><ele>306.33333333333337</ele><time>2026-05-01T15:29:09.728Z</time></trkpt><trkpt lat="43.5398017" lon="10.9069583"><ele>310.6666666666667</ele><time>2026-05-01T15:29:10.73Z</time></trkpt><trkpt lat="43.5397033" lon="10.90712"><ele>315.0</ele><time>2026-05-01T15:29:11.726Z</time></trkpt><trkpt lat="43.5396017" lon="10.907295"><ele>311.3333333333333</ele><time>2026-05-01T15:29:12.727Z</time></trkpt><trkpt lat="43.5394983" lon="10.90747"><ele>307.66666666666663</ele><time>2026-05-01T15:29:13.728Z</time></trkpt><trkpt lat="43.5394" lon="10.9076367"><ele>304.0</ele><time>2026-05-01T15:29:14.728Z</time></trkpt><trkpt lat="43.539315" lon="10.907785"><ele>304.0</ele><time>2026-05-01T15:29:15.727Z</time></trkpt><trkpt lat="43.5392633" lon="10.9079283"><ele>304.0</ele><time>2026-05-01T15:29:16.728Z</time></trkpt><trkpt lat="43.539245" lon="10.9080933"><ele>304.0</ele><time>2026-05-01T15:29:17.728Z</time></trkpt><trkpt lat="43.5392383" lon="10.9082633"><ele>304.0</ele><time>2026-05-01T15:29:18.728Z</time></trkpt><trkpt lat="43.5392883" lon="10.90847"><ele>305.0</ele><time>2026-05-01T15:29:19.728Z</time></trkpt><trkpt lat="43.5393583" lon="10.9086967"><ele>306.0</ele><time>2026-05-01T15:29:20.729Z</time></trkpt><trkpt lat="43.5394117" lon="10.9089333"><ele>307.0</ele><time>2026-05-01T15:29:21.729Z</time></trkpt><trkpt lat="43.53946" lon="10.90916"><ele>309.3333333333333</ele><time>2026-05-01T15:29:22.728Z</time></trkpt><trkpt lat="43.5395067" lon="10.9094017"><ele>311.6666666666667</ele><time>2026-05-01T15:29:23.728Z</time></trkpt><trkpt lat="43.5395467" lon="10.9096333"><ele>314.0</ele><time>2026-05-01T15:29:24.728Z</time></trkpt><trkpt lat="43.53958" lon="10.9098517"><ele>319.33333333333337</ele><time>2026-05-01T15:29:25.728Z</time></trkpt><trkpt lat="43.5396117" lon="10.9100717"><ele>324.6666666666667</ele><time>2026-05-01T15:29:26.728Z</time></trkpt><trkpt lat="43.5396367" lon="10.9102667"><ele>330.0</ele><time>2026-05-01T15:29:27.728Z</time></trkpt><trkpt lat="43.5396783" lon="10.9104617"><ele>330.0</ele><time>2026-05-01T15:29:28.728Z</time></trkpt><trkpt lat="43.539705" lon="10.9106633"><ele>330.0</ele><time>2026-05-01T15:29:29.726Z</time></trkpt><trkpt lat="43.5397817" lon="10.910855"><ele>330.0</ele><time>2026-05-01T15:29:30.727Z</time></trkpt><trkpt lat="43.5398583" lon="10.9110317"><ele>330.3333333333333</ele><time>2026-05-01T15:29:31.729Z</time></trkpt><trkpt lat="43.5399367" lon="10.9112217"><ele>330.66666666666663</ele><time>2026-05-01T15:29:32.728Z</time></trkpt><trkpt lat="43.5400067" lon="10.9114067"><ele>331.0</ele><time>2026-05-01T15:29:33.727Z</time></trkpt><trkpt lat="43.54005" lon="10.9116117"><ele>331.75</ele><time>2026-05-01T15:29:34.727Z</time></trkpt><trkpt lat="43.5400833" lon="10.9118167"><ele>332.5</ele><time>2026-05-01T15:29:35.726Z</time></trkpt><trkpt lat="43.5401067" lon="10.9120167"><ele>333.25</ele><time>2026-05-01T15:29:36.727Z</time></trkpt><trkpt lat="43.5401317" lon="10.9122"><ele>334.0</ele><time>2026-05-01T15:29:37.727Z</time></trkpt><trkpt lat="43.5401567" lon="10.9123583"><ele>334.0</ele><time>2026-05-01T15:29:38.727Z</time></trkpt><trkpt lat="43.5401733" lon="10.91251"><ele>334.0</ele><time>2026-05-01T15:29:39.726Z</time></trkpt><trkpt lat="43.54018" lon="10.912685"><ele>334.0</ele><time>2026-05-01T15:29:40.727Z</time></trkpt><trkpt lat="43.540175" lon="10.912885"><ele>334.0</ele><time>2026-05-01T15:29:41.726Z</time></trkpt><trkpt lat="43.5401883" lon="10.913065"><ele>335.5</ele><time>2026-05-01T15:29:42.728Z</time></trkpt><trkpt lat="43.5402067" lon="10.9132483"><ele>337.0</ele><time>2026-05-01T15:29:43.726Z</time></trkpt><trkpt lat="43.5402383" lon="10.913415"><ele>338.5</ele><time>2026-05-01T15:29:44.728Z</time></trkpt><trkpt lat="43.5402967" lon="10.9135833"><ele>340.0</ele><time>2026-05-01T15:29:45.727Z</time></trkpt><trkpt lat="43.5403667" lon="10.913735"><ele>343.6</ele><time>2026-05-01T15:29:46.727Z</time></trkpt><trkpt lat="43.5404383" lon="10.9138567"><ele>347.2</ele><time>2026-05-01T15:29:47.727Z</time></trkpt><trkpt lat="43.540485" lon="10.9139667"><ele>350.79999999999995</ele><time>2026-05-01T15:29:48.728Z</time></trkpt><trkpt lat="43.54048" lon="10.9140883"><ele>354.4</ele><time>2026-05-01T15:29:49.728Z</time></trkpt><trkpt lat="43.5404533" lon="10.914215"><ele>358.0</ele><time>2026-05-01T15:29:50.727Z</time></trkpt><trkpt lat="43.5404217" lon="10.9143633"><ele>357.5</ele><time>2026-05-01T15:29:51.726Z</time></trkpt><trkpt lat="43.5403817" lon="10.9145167"><ele>357.0</ele><time>2026-05-01T15:29:52.725Z</time></trkpt><trkpt lat="43.5403433" lon="10.914695"><ele>356.5</ele><time>2026-05-01T15:29:53.727Z</time></trkpt><trkpt lat="43.5402967" lon="10.9148767"><ele>356.0</ele><time>2026-05-01T15:29:54.725Z</time></trkpt><trkpt lat="43.5402517" lon="10.9150617"><ele>358.0</ele><time>2026-05-01T15:29:55.727Z</time></trkpt><trkpt lat="43.54021" lon="10.9152433"><ele>360.0</ele><time>2026-05-01T15:29:56.726Z</time></trkpt><trkpt lat="43.5401917" lon="10.9153867"><ele>362.0</ele><time>2026-05-01T15:29:57.726Z</time></trkpt><trkpt lat="43.5401933" lon="10.915525"><ele>364.0</ele><time>2026-05-01T15:29:58.727Z</time></trkpt><trkpt lat="43.54016" lon="10.915655"><ele>366.0</ele><time>2026-05-01T15:29:59.726Z</time></trkpt><trkpt lat="43.540095" lon="10.9157717"><ele>366.0</ele><time>2026-05-01T15:30:00.727Z</time></trkpt><trkpt lat="43.540015" lon="10.915895"><ele>366.0</ele><time>2026-05-01T15:30:01.726Z</time></trkpt><trkpt lat="43.53993" lon="10.9160383"><ele>366.0</ele><time>2026-05-01T15:30:02.727Z</time></trkpt><trkpt lat="43.539845" lon="10.9162"><ele>366.0</ele><time>2026-05-01T15:30:03.727Z</time></trkpt><trkpt lat="43.53976" lon="10.916365"><ele>368.0</ele><time>2026-05-01T15:30:04.727Z</time></trkpt><trkpt lat="43.5396817" lon="10.9165333"><ele>370.0</ele><time>2026-05-01T15:30:05.727Z</time></trkpt><trkpt lat="43.539615" lon="10.9167183"><ele>372.0</ele><time>2026-05-01T15:30:06.727Z</time></trkpt><trkpt lat="43.539555" lon="10.9169033"><ele>374.0</ele><time>2026-05-01T15:30:07.726Z</time></trkpt><trkpt lat="43.5395117" lon="10.9170967"><ele>375.25</ele><time>2026-05-01T15:30:08.726Z</time></trkpt><trkpt lat="43.5394783" lon="10.9172783"><ele>376.5</ele><time>2026-05-01T15:30:09.727Z</time></trkpt><trkpt lat="43.5394433" lon="10.9174367"><ele>377.75</ele><time>2026-05-01T15:30:10.726Z</time></trkpt><trkpt lat="43.5394" lon="10.9175783"><ele>379.0</ele><time>2026-05-01T15:30:11.727Z</time></trkpt><trkpt lat="43.5393417" lon="10.9177"><ele>380.0</ele><time>2026-05-01T15:30:12.728Z</time></trkpt><trkpt lat="43.53927" lon="10.9178033"><ele>381.0</ele><time>2026-05-01T15:30:13.727Z</time></trkpt><trkpt lat="43.5391633" lon="10.91791"><ele>382.0</ele><time>2026-05-01T15:30:14.727Z</time></trkpt><trkpt lat="43.5390467" lon="10.91802"><ele>383.0</ele><time>2026-05-01T15:30:15.727Z</time></trkpt><trkpt lat="43.538915" lon="10.9181417"><ele>383.0</ele><time>2026-05-01T15:30:16.727Z</time></trkpt><trkpt lat="43.5387767" lon="10.918265"><ele>383.0</ele><time>2026-05-01T15:30:17.726Z</time></trkpt><trkpt lat="43.5386383" lon="10.9183933"><ele>383.0</ele><time>2026-05-01T15:30:18.727Z</time></trkpt><trkpt lat="43.5385" lon="10.9185217"><ele>384.0</ele><time>2026-05-01T15:30:19.727Z</time></trkpt><trkpt lat="43.5383583" lon="10.9186483"><ele>385.0</ele><time>2026-05-01T15:30:20.727Z</time></trkpt><trkpt lat="43.538225" lon="10.918775"><ele>386.0</ele><time>2026-05-01T15:30:21.726Z</time></trkpt><trkpt lat="43.538105" lon="10.9188867"><ele>386.0</ele><time>2026-05-01T15:30:22.727Z</time></trkpt><trkpt lat="43.537995" lon="10.91899"><ele>386.0</ele><time>2026-05-01T15:30:23.726Z</time></trkpt><trkpt lat="43.537895" lon="10.91908"><ele>386.0</ele><time>2026-05-01T15:30:24.726Z</time></trkpt><trkpt lat="43.5378083" lon="10.9191667"><ele>386.0</ele><time>2026-05-01T15:30:25.728Z</time></trkpt><trkpt lat="43.537725" lon="10.9192483"><ele>387.20000000000005</ele><time>2026-05-01T15:30:26.728Z</time></trkpt><trkpt lat="43.537645" lon="10.9193233"><ele>388.40000000000003</ele><time>2026-05-01T15:30:27.727Z</time></trkpt><trkpt lat="43.5375683" lon="10.9193833"><ele>389.6</ele><time>2026-05-01T15:30:28.726Z</time></trkpt><trkpt lat="43.5374867" lon="10.91945"><ele>390.8</ele><time>2026-05-01T15:30:29.727Z</time></trkpt><trkpt lat="43.5373967" lon="10.919525"><ele>392.0</ele><time>2026-05-01T15:30:30.728Z</time></trkpt><trkpt lat="43.5373083" lon="10.9196"><ele>392.0</ele><time>2026-05-01T15:30:31.727Z</time></trkpt><trkpt lat="43.53722" lon="10.9196667"><ele>392.0</ele><time>2026-05-01T15:30:32.728Z</time></trkpt><trkpt lat="43.5371433" lon="10.91973"><ele>392.0</ele><time>2026-05-01T15:30:33.726Z</time></trkpt><trkpt lat="43.5370633" lon="10.9197967"><ele>392.0</ele><time>2026-05-01T15:30:34.727Z</time></trkpt><trkpt lat="43.5369917" lon="10.9198633"><ele>392.0</ele><time>2026-05-01T15:30:35.728Z</time></trkpt><trkpt lat="43.5369217" lon="10.9199333"><ele>393.0</ele><time>2026-05-01T15:30:36.726Z</time></trkpt><trkpt lat="43.5368583" lon="10.9199967"><ele>394.0</ele><time>2026-05-01T15:30:37.727Z</time></trkpt><trkpt lat="43.5367883" lon="10.9200567"><ele>395.0</ele><time>2026-05-01T15:30:38.727Z</time></trkpt><trkpt lat="43.536715" lon="10.9201167"><ele>396.0</ele><time>2026-05-01T15:30:39.727Z</time></trkpt><trkpt lat="43.5366367" lon="10.9201983"><ele>397.0</ele><time>2026-05-01T15:30:40.727Z</time></trkpt><trkpt lat="43.536555" lon="10.9202983"><ele>397.0</ele><time>2026-05-01T15:30:41.728Z</time></trkpt><trkpt lat="43.5364583" lon="10.9204233"><ele>397.0</ele><time>2026-05-01T15:30:42.727Z</time></trkpt><trkpt lat="43.5363717" lon="10.9205367"><ele>397.0</ele><time>2026-05-01T15:30:43.725Z</time></trkpt><trkpt lat="43.5362817" lon="10.9206683"><ele>397.0</ele><time>2026-05-01T15:30:44.727Z</time></trkpt><trkpt lat="43.5361817" lon="10.9208"><ele>399.5</ele><time>2026-05-01T15:30:45.727Z</time></trkpt><trkpt lat="43.5360733" lon="10.9209533"><ele>402.0</ele><time>2026-05-01T15:30:46.727Z</time></trkpt><trkpt lat="43.5359683" lon="10.921095"><ele>404.5</ele><time>2026-05-01T15:30:47.726Z</time></trkpt><trkpt lat="43.53587" lon="10.9212217"><ele>407.0</ele><time>2026-05-01T15:30:48.727Z</time></trkpt><trkpt lat="43.5357783" lon="10.9213433"><ele>407.0</ele><time>2026-05-01T15:30:49.729Z</time></trkpt><trkpt lat="43.53569" lon="10.9214683"><ele>407.0</ele><time>2026-05-01T15:30:50.728Z</time></trkpt><trkpt lat="43.5356017" lon="10.9216117"><ele>407.0</ele><time>2026-05-01T15:30:51.73Z</time></trkpt><trkpt lat="43.53553" lon="10.9217733"><ele>407.0</ele><time>2026-05-01T15:30:52.726Z</time></trkpt><trkpt lat="43.5354717" lon="10.9219367"><ele>407.25</ele><time>2026-05-01T15:30:53.728Z</time></trkpt><trkpt lat="43.5354283" lon="10.9221083"><ele>407.5</ele><time>2026-05-01T15:30:54.73Z</time></trkpt><trkpt lat="43.5354017" lon="10.9222917"><ele>407.75</ele><time>2026-05-01T15:30:55.728Z</time></trkpt><trkpt lat="43.5353883" lon="10.9224783"><ele>408.0</ele><time>2026-05-01T15:30:56.729Z</time></trkpt><trkpt lat="43.5354017" lon="10.9226767"><ele>408.0</ele><time>2026-05-01T15:30:57.728Z</time></trkpt><trkpt lat="43.5354133" lon="10.9228717"><ele>408.0</ele><time>2026-05-01T15:30:58.729Z</time></trkpt><trkpt lat="43.535435" lon="10.9230567"><ele>408.0</ele><time>2026-05-01T15:30:59.728Z</time></trkpt><trkpt lat="43.5354533" lon="10.9232217"><ele>408.0</ele><time>2026-05-01T15:31:00.729Z</time></trkpt><trkpt lat="43.5354667" lon="10.9233683"><ele>407.8333333333333</ele><time>2026-05-01T15:31:01.727Z</time></trkpt><trkpt lat="43.5354767" lon="10.92349"><ele>407.66666666666663</ele><time>2026-05-01T15:31:02.728Z</time></trkpt><trkpt lat="43.535485" lon="10.9235867"><ele>407.5</ele><time>2026-05-01T15:31:03.728Z</time></trkpt><trkpt lat="43.535505" lon="10.9237183"><ele>407.3333333333333</ele><time>2026-05-01T15:31:05.729Z</time></trkpt><trkpt lat="43.5355483" lon="10.92383"><ele>407.16666666666663</ele><time>2026-05-01T15:31:08.728Z</time></trkpt><trkpt lat="43.5356417" lon="10.9238717"><ele>407.0</ele><time>2026-05-01T15:31:10.727Z</time></trkpt><trkpt lat="43.53573" lon="10.9238567"><ele>407.0</ele><time>2026-05-01T15:31:11.728Z</time></trkpt><trkpt lat="43.5358383" lon="10.9238383"><ele>407.0</ele><time>2026-05-01T15:31:12.728Z</time></trkpt><trkpt lat="43.53596" lon="10.923855"><ele>407.0</ele><time>2026-05-01T15:31:13.727Z</time></trkpt><trkpt lat="43.5360917" lon="10.9238783"><ele>407.0</ele><time>2026-05-01T15:31:14.73Z</time></trkpt><trkpt lat="43.5362233" lon="10.923915"><ele>404.75</ele><time>2026-05-01T15:31:15.73Z</time></trkpt><trkpt lat="43.5363567" lon="10.9239617"><ele>402.5</ele><time>2026-05-01T15:31:16.728Z</time></trkpt><trkpt lat="43.536495" lon="10.9240267"><ele>400.25</ele><time>2026-05-01T15:31:17.729Z</time></trkpt><trkpt lat="43.5366317" lon="10.92411"><ele>398.0</ele><time>2026-05-01T15:31:18.729Z</time></trkpt><trkpt lat="43.5367717" lon="10.92421"><ele>397.0</ele><time>2026-05-01T15:31:19.729Z</time></trkpt><trkpt lat="43.536905" lon="10.9243183"><ele>396.0</ele><time>2026-05-01T15:31:20.728Z</time></trkpt><trkpt lat="43.5370383" lon="10.9244283"><ele>395.0</ele><time>2026-05-01T15:31:21.728Z</time></trkpt><trkpt lat="43.537175" lon="10.9245417"><ele>393.66666666666663</ele><time>2026-05-01T15:31:22.728Z</time></trkpt><trkpt lat="43.5373167" lon="10.9246583"><ele>392.33333333333337</ele><time>2026-05-01T15:31:23.729Z</time></trkpt><trkpt lat="43.5374567" lon="10.9247817"><ele>391.0</ele><time>2026-05-01T15:31:24.73Z</time></trkpt><trkpt lat="43.5375983" lon="10.9249083"><ele>391.0</ele><time>2026-05-01T15:31:25.73Z</time></trkpt><trkpt lat="43.5377383" lon="10.925035"><ele>391.0</ele><time>2026-05-01T15:31:26.731Z</time></trkpt><trkpt lat="43.5378833" lon="10.9251667"><ele>391.0</ele><time>2026-05-01T15:31:27.729Z</time></trkpt><trkpt lat="43.53803" lon="10.925295"><ele>388.0</ele><time>2026-05-01T15:31:28.728Z</time></trkpt><trkpt lat="43.5381783" lon="10.925425"><ele>385.0</ele><time>2026-05-01T15:31:29.728Z</time></trkpt><trkpt lat="43.53832" lon="10.9255467"><ele>382.0</ele><time>2026-05-01T15:31:30.729Z</time></trkpt><trkpt lat="43.5384633" lon="10.9256633"><ele>382.0</ele><time>2026-05-01T15:31:31.729Z</time></trkpt><trkpt lat="43.5386083" lon="10.925765"><ele>382.0</ele><time>2026-05-01T15:31:32.729Z</time></trkpt><trkpt lat="43.5387533" lon="10.9258533"><ele>382.0</ele><time>2026-05-01T15:31:33.729Z</time></trkpt><trkpt lat="43.5388983" lon="10.9259383"><ele>380.66666666666663</ele><time>2026-05-01T15:31:34.729Z</time></trkpt><trkpt lat="43.5390483" lon="10.9260183"><ele>379.3333333333333</ele><time>2026-05-01T15:31:35.729Z</time></trkpt><trkpt lat="43.5391967" lon="10.92611"><ele>378.0</ele><time>2026-05-01T15:31:36.727Z</time></trkpt><trkpt lat="43.539345" lon="10.926215"><ele>378.0</ele><time>2026-05-01T15:31:37.729Z</time></trkpt><trkpt lat="43.5394883" lon="10.92632"><ele>378.0</ele><time>2026-05-01T15:31:38.729Z</time></trkpt><trkpt lat="43.5396333" lon="10.926425"><ele>378.0</ele><time>2026-05-01T15:31:39.728Z</time></trkpt><trkpt lat="43.53978" lon="10.9265283"><ele>373.6666666666667</ele><time>2026-05-01T15:31:40.728Z</time></trkpt><trkpt lat="43.5399217" lon="10.9266433"><ele>369.33333333333337</ele><time>2026-05-01T15:31:41.729Z</time></trkpt><trkpt lat="43.540065" lon="10.9267533"><ele>365.0</ele><time>2026-05-01T15:31:42.729Z</time></trkpt><trkpt lat="43.5402067" lon="10.9268567"><ele>364.6666666666667</ele><time>2026-05-01T15:31:43.728Z</time></trkpt><trkpt lat="43.5403417" lon="10.92696"><ele>364.3333333333333</ele><time>2026-05-01T15:31:44.728Z</time></trkpt><trkpt lat="43.540475" lon="10.9270533"><ele>364.0</ele><time>2026-05-01T15:31:45.728Z</time></trkpt><trkpt lat="43.5406117" lon="10.9271583"><ele>361.66666666666663</ele><time>2026-05-01T15:31:46.729Z</time></trkpt><trkpt lat="43.5407517" lon="10.9272433"><ele>359.3333333333333</ele><time>2026-05-01T15:31:47.729Z</time></trkpt><trkpt lat="43.540905" lon="10.9272817"><ele>357.0</ele><time>2026-05-01T15:31:48.729Z</time></trkpt><trkpt lat="43.5410567" lon="10.9273"><ele>357.0</ele><time>2026-05-01T15:31:49.729Z</time></trkpt><trkpt lat="43.5412133" lon="10.9273083"><ele>357.0</ele><time>2026-05-01T15:31:50.73Z</time></trkpt><trkpt lat="43.5413633" lon="10.9273017"><ele>357.0</ele><time>2026-05-01T15:31:51.73Z</time></trkpt><trkpt lat="43.5415167" lon="10.9273083"><ele>355.0</ele><time>2026-05-01T15:31:52.728Z</time></trkpt><trkpt lat="43.541665" lon="10.9273433"><ele>353.0</ele><time>2026-05-01T15:31:53.728Z</time></trkpt><trkpt lat="43.5418117" lon="10.9273633"><ele>351.0</ele><time>2026-05-01T15:31:54.729Z</time></trkpt><trkpt lat="43.5419517" lon="10.9273867"><ele>349.0</ele><time>2026-05-01T15:31:55.729Z</time></trkpt><trkpt lat="43.5420917" lon="10.9273967"><ele>347.25</ele><time>2026-05-01T15:31:56.729Z</time></trkpt><trkpt lat="43.5422283" lon="10.9274133"><ele>345.5</ele><time>2026-05-01T15:31:57.728Z</time></trkpt><trkpt lat="43.5423633" lon="10.927435"><ele>343.75</ele><time>2026-05-01T15:31:58.728Z</time></trkpt><trkpt lat="43.5424983" lon="10.927465"><ele>342.0</ele><time>2026-05-01T15:31:59.729Z</time></trkpt><trkpt lat="43.5426417" lon="10.9274883"><ele>342.0</ele><time>2026-05-01T15:32:00.728Z</time></trkpt><trkpt lat="43.5427883" lon="10.92753"><ele>342.0</ele><time>2026-05-01T15:32:01.727Z</time></trkpt><trkpt lat="43.542935" lon="10.9275983"><ele>342.0</ele><time>2026-05-01T15:32:02.728Z</time></trkpt><trkpt lat="43.543085" lon="10.9276817"><ele>339.6666666666667</ele><time>2026-05-01T15:32:03.726Z</time></trkpt><trkpt lat="43.5432417" lon="10.9277733"><ele>337.33333333333337</ele><time>2026-05-01T15:32:04.729Z</time></trkpt><trkpt lat="43.5433967" lon="10.9278733"><ele>335.0</ele><time>2026-05-01T15:32:05.728Z</time></trkpt><trkpt lat="43.5435583" lon="10.92797"><ele>333.0</ele><time>2026-05-01T15:32:06.73Z</time></trkpt><trkpt lat="43.54372" lon="10.9280633"><ele>331.0</ele><time>2026-05-01T15:32:07.729Z</time></trkpt><trkpt lat="43.5438783" lon="10.928155"><ele>329.0</ele><time>2026-05-01T15:32:08.728Z</time></trkpt><trkpt lat="43.5440333" lon="10.9282467"><ele>329.0</ele><time>2026-05-01T15:32:09.728Z</time></trkpt><trkpt lat="43.5441867" lon="10.928345"><ele>329.0</ele><time>2026-05-01T15:32:10.728Z</time></trkpt><trkpt lat="43.544345" lon="10.9284333"><ele>329.0</ele><time>2026-05-01T15:32:11.728Z</time></trkpt><trkpt lat="43.5445067" lon="10.92851"><ele>324.0</ele><time>2026-05-01T15:32:12.728Z</time></trkpt><trkpt lat="43.54468" lon="10.9285683"><ele>319.0</ele><time>2026-05-01T15:32:13.728Z</time></trkpt><trkpt lat="43.54485" lon="10.928635"><ele>314.0</ele><time>2026-05-01T15:32:14.729Z</time></trkpt><trkpt lat="43.5450233" lon="10.9287"><ele>314.0</ele><time>2026-05-01T15:32:15.729Z</time></trkpt><trkpt lat="43.5452" lon="10.9287567"><ele>314.0</ele><time>2026-05-01T15:32:16.727Z</time></trkpt><trkpt lat="43.5453867" lon="10.9287883"><ele>314.0</ele><time>2026-05-01T15:32:17.728Z</time></trkpt><trkpt lat="43.5455883" lon="10.9288"><ele>312.6666666666667</ele><time>2026-05-01T15:32:18.729Z</time></trkpt><trkpt lat="43.5457883" lon="10.9288183"><ele>311.3333333333333</ele><time>2026-05-01T15:32:19.728Z</time></trkpt><trkpt lat="43.545995" lon="10.9288317"><ele>310.0</ele><time>2026-05-01T15:32:20.729Z</time></trkpt><trkpt lat="43.5461983" lon="10.9288417"><ele>307.3333333333333</ele><time>2026-05-01T15:32:21.728Z</time></trkpt><trkpt lat="43.5464017" lon="10.9288467"><ele>304.6666666666667</ele><time>2026-05-01T15:32:22.729Z</time></trkpt><trkpt lat="43.5465967" lon="10.9288533"><ele>302.0</ele><time>2026-05-01T15:32:23.728Z</time></trkpt><trkpt lat="43.5467867" lon="10.9288583"><ele>302.0</ele><time>2026-05-01T15:32:24.729Z</time></trkpt><trkpt lat="43.5469667" lon="10.9288667"><ele>302.0</ele><time>2026-05-01T15:32:25.729Z</time></trkpt><trkpt lat="43.547145" lon="10.92887"><ele>302.0</ele><time>2026-05-01T15:32:26.729Z</time></trkpt><trkpt lat="43.5473233" lon="10.9288733"><ele>300.0</ele><time>2026-05-01T15:32:27.729Z</time></trkpt><trkpt lat="43.5475" lon="10.928885"><ele>298.0</ele><time>2026-05-01T15:32:28.728Z</time></trkpt><trkpt lat="43.5476783" lon="10.92892"><ele>296.0</ele><time>2026-05-01T15:32:29.727Z</time></trkpt><trkpt lat="43.54786" lon="10.9289767"><ele>295.0</ele><time>2026-05-01T15:32:30.729Z</time></trkpt><trkpt lat="43.54804" lon="10.9290567"><ele>294.0</ele><time>2026-05-01T15:32:31.729Z</time></trkpt><trkpt lat="43.548215" lon="10.9291733"><ele>293.0</ele><time>2026-05-01T15:32:32.728Z</time></trkpt><trkpt lat="43.5483817" lon="10.9293167"><ele>289.0</ele><time>2026-05-01T15:32:33.728Z</time></trkpt><trkpt lat="43.5485367" lon="10.9294783"><ele>285.0</ele><time>2026-05-01T15:32:34.729Z</time></trkpt><trkpt lat="43.54868" lon="10.9296567"><ele>281.0</ele><time>2026-05-01T15:32:35.73Z</time></trkpt><trkpt lat="43.5488133" lon="10.92984"><ele>281.0</ele><time>2026-05-01T15:32:36.729Z</time></trkpt><trkpt lat="43.54895" lon="10.93002"><ele>281.0</ele><time>2026-05-01T15:32:37.729Z</time></trkpt><trkpt lat="43.54909" lon="10.9301967"><ele>281.0</ele><time>2026-05-01T15:32:38.73Z</time></trkpt><trkpt lat="43.54925" lon="10.93036"><ele>277.0</ele><time>2026-05-01T15:32:39.73Z</time></trkpt><trkpt lat="43.5494083" lon="10.9305117"><ele>273.0</ele><time>2026-05-01T15:32:40.729Z</time></trkpt><trkpt lat="43.5495767" lon="10.930645"><ele>269.0</ele><time>2026-05-01T15:32:41.728Z</time></trkpt><trkpt lat="43.549755" lon="10.9307617"><ele>268.6666666666667</ele><time>2026-05-01T15:32:42.73Z</time></trkpt><trkpt lat="43.5499417" lon="10.93087"><ele>268.3333333333333</ele><time>2026-05-01T15:32:43.728Z</time></trkpt><trkpt lat="43.5501367" lon="10.93098"><ele>268.0</ele><time>2026-05-01T15:32:44.73Z</time></trkpt><trkpt lat="43.5503267" lon="10.9310817"><ele>266.0</ele><time>2026-05-01T15:32:45.728Z</time></trkpt><trkpt lat="43.55051" lon="10.9311783"><ele>264.0</ele><time>2026-05-01T15:32:46.73Z</time></trkpt><trkpt lat="43.5506883" lon="10.9312683"><ele>262.0</ele><time>2026-05-01T15:32:47.728Z</time></trkpt><trkpt lat="43.55086" lon="10.931365"><ele>262.0</ele><time>2026-05-01T15:32:48.728Z</time></trkpt><trkpt lat="43.551025" lon="10.93147"><ele>262.0</ele><time>2026-05-01T15:32:49.729Z</time></trkpt><trkpt lat="43.5511833" lon="10.93159"><ele>262.0</ele><time>2026-05-01T15:32:50.73Z</time></trkpt><trkpt lat="43.55133" lon="10.93173"><ele>258.66666666666663</ele><time>2026-05-01T15:32:51.729Z</time></trkpt><trkpt lat="43.5514633" lon="10.9318883"><ele>255.33333333333331</ele><time>2026-05-01T15:32:52.729Z</time></trkpt><trkpt lat="43.5515917" lon="10.9320667"><ele>252.0</ele><time>2026-05-01T15:32:53.728Z</time></trkpt><trkpt lat="43.5517067" lon="10.9322667"><ele>252.0</ele><time>2026-05-01T15:32:54.729Z</time></trkpt><trkpt lat="43.5518083" lon="10.9324867"><ele>252.0</ele><time>2026-05-01T15:32:55.729Z</time></trkpt><trkpt lat="43.5518967" lon="10.9327283"><ele>252.0</ele><time>2026-05-01T15:32:56.73Z</time></trkpt><trkpt lat="43.551975" lon="10.93298"><ele>250.66666666666669</ele><time>2026-05-01T15:32:57.728Z</time></trkpt><trkpt lat="43.552055" lon="10.9332283"><ele>249.33333333333334</ele><time>2026-05-01T15:32:58.728Z</time></trkpt><trkpt lat="43.5521483" lon="10.9334867"><ele>248.0</ele><time>2026-05-01T15:32:59.729Z</time></trkpt><trkpt lat="43.5522583" lon="10.9337283"><ele>248.0</ele><time>2026-05-01T15:33:00.729Z</time></trkpt><trkpt lat="43.5523883" lon="10.933945"><ele>248.0</ele><time>2026-05-01T15:33:01.728Z</time></trkpt><trkpt lat="43.5525317" lon="10.9341467"><ele>248.0</ele><time>2026-05-01T15:33:02.73Z</time></trkpt><trkpt lat="43.552695" lon="10.9343233"><ele>247.33333333333334</ele><time>2026-05-01T15:33:03.73Z</time></trkpt><trkpt lat="43.5528633" lon="10.9344733"><ele>246.66666666666669</ele><time>2026-05-01T15:33:04.729Z</time></trkpt><trkpt lat="43.553045" lon="10.9345967"><ele>246.0</ele><time>2026-05-01T15:33:05.728Z</time></trkpt><trkpt lat="43.5532417" lon="10.93469"><ele>244.0</ele><time>2026-05-01T15:33:06.728Z</time></trkpt><trkpt lat="43.5534433" lon="10.9347617"><ele>242.0</ele><time>2026-05-01T15:33:07.729Z</time></trkpt><trkpt lat="43.5536483" lon="10.9348083"><ele>240.0</ele><time>2026-05-01T15:33:08.729Z</time></trkpt><trkpt lat="43.5538583" lon="10.93483"><ele>239.66666666666669</ele><time>2026-05-01T15:33:09.728Z</time></trkpt><trkpt lat="43.55407" lon="10.9348417"><ele>239.33333333333334</ele><time>2026-05-01T15:33:10.728Z</time></trkpt><trkpt lat="43.5542867" lon="10.93485"><ele>239.0</ele><time>2026-05-01T15:33:11.73Z</time></trkpt><trkpt lat="43.5545" lon="10.9348617"><ele>239.0</ele><time>2026-05-01T15:33:12.728Z</time></trkpt><trkpt lat="43.55471" lon="10.9348733"><ele>239.0</ele><time>2026-05-01T15:33:13.728Z</time></trkpt><trkpt lat="43.55492" lon="10.934885"><ele>239.0</ele><time>2026-05-01T15:33:14.73Z</time></trkpt><trkpt lat="43.5551317" lon="10.93489"><ele>239.0</ele><time>2026-05-01T15:33:15.729Z</time></trkpt><trkpt lat="43.5553433" lon="10.9349017"><ele>239.0</ele><time>2026-05-01T15:33:16.729Z</time></trkpt><trkpt lat="43.5555467" lon="10.9349517"><ele>239.0</ele><time>2026-05-01T15:33:17.728Z</time></trkpt><trkpt lat="43.5557417" lon="10.9350333"><ele>239.33333333333334</ele><time>2026-05-01T15:33:18.731Z</time></trkpt><trkpt lat="43.5559267" lon="10.935155"><ele>239.66666666666669</ele><time>2026-05-01T15:33:19.73Z</time></trkpt><trkpt lat="43.5560983" lon="10.9353117"><ele>240.0</ele><time>2026-05-01T15:33:20.729Z</time></trkpt><trkpt lat="43.5562467" lon="10.9355017"><ele>237.66666666666669</ele><time>2026-05-01T15:33:21.728Z</time></trkpt><trkpt lat="43.5563783" lon="10.935705"><ele>235.33333333333334</ele><time>2026-05-01T15:33:22.728Z</time></trkpt><trkpt lat="43.5564683" lon="10.9359667"><ele>233.0</ele><time>2026-05-01T15:33:23.728Z</time></trkpt><trkpt lat="43.556525" lon="10.9362483"><ele>232.33333333333334</ele><time>2026-05-01T15:33:24.728Z</time></trkpt><trkpt lat="43.5565567" lon="10.9365333"><ele>231.66666666666669</ele><time>2026-05-01T15:33:25.73Z</time></trkpt><trkpt lat="43.55658" lon="10.936815"><ele>231.0</ele><time>2026-05-01T15:33:26.728Z</time></trkpt><trkpt lat="43.5566017" lon="10.9370883"><ele>231.0</ele><time>2026-05-01T15:33:27.728Z</time></trkpt><trkpt lat="43.55664" lon="10.93735"><ele>231.0</ele><time>2026-05-01T15:33:28.729Z</time></trkpt><trkpt lat="43.556705" lon="10.9375967"><ele>231.0</ele><time>2026-05-01T15:33:29.729Z</time></trkpt><trkpt lat="43.5567933" lon="10.9378333"><ele>230.66666666666669</ele><time>2026-05-01T15:33:30.729Z</time></trkpt><trkpt lat="43.5569033" lon="10.93806"><ele>230.33333333333334</ele><time>2026-05-01T15:33:31.729Z</time></trkpt><trkpt lat="43.55703" lon="10.9382683"><ele>230.0</ele><time>2026-05-01T15:33:32.728Z</time></trkpt><trkpt lat="43.5571733" lon="10.9384517"><ele>229.33333333333334</ele><time>2026-05-01T15:33:33.729Z</time></trkpt><trkpt lat="43.5573233" lon="10.9385967"><ele>228.66666666666669</ele><time>2026-05-01T15:33:34.73Z</time></trkpt><trkpt lat="43.5574817" lon="10.938715"><ele>228.0</ele><time>2026-05-01T15:33:35.729Z</time></trkpt><trkpt lat="43.5576517" lon="10.938815"><ele>228.0</ele><time>2026-05-01T15:33:36.728Z</time></trkpt><trkpt lat="43.5578317" lon="10.9388867"><ele>228.0</ele><time>2026-05-01T15:33:37.728Z</time></trkpt><trkpt lat="43.5580317" lon="10.9389217"><ele>228.0</ele><time>2026-05-01T15:33:38.73Z</time></trkpt><trkpt lat="43.558255" lon="10.9389217"><ele>227.0</ele><time>2026-05-01T15:33:39.728Z</time></trkpt><trkpt lat="43.55849" lon="10.938905"><ele>226.0</ele><time>2026-05-01T15:33:40.729Z</time></trkpt><trkpt lat="43.5587283" lon="10.9388867"><ele>223.5</ele><time>2026-05-01T15:33:41.728Z</time></trkpt><trkpt lat="43.5589633" lon="10.9388733"><ele>221.0</ele><time>2026-05-01T15:33:42.729Z</time></trkpt><trkpt lat="43.55919" lon="10.93887"><ele>221.0</ele><time>2026-05-01T15:33:43.729Z</time></trkpt><trkpt lat="43.559415" lon="10.9388667"><ele>221.0</ele><time>2026-05-01T15:33:44.729Z</time></trkpt><trkpt lat="43.55963" lon="10.9388817"><ele>221.0</ele><time>2026-05-01T15:33:45.728Z</time></trkpt><trkpt lat="43.55984" lon="10.9389133"><ele>218.66666666666669</ele><time>2026-05-01T15:33:46.728Z</time></trkpt><trkpt lat="43.560045" lon="10.9389617"><ele>216.33333333333331</ele><time>2026-05-01T15:33:47.728Z</time></trkpt><trkpt lat="43.560245" lon="10.9390267"><ele>214.0</ele><time>2026-05-01T15:33:48.729Z</time></trkpt><trkpt lat="43.56044" lon="10.9391133"><ele>213.66666666666666</ele><time>2026-05-01T15:33:49.73Z</time></trkpt><trkpt lat="43.5606283" lon="10.9392017"><ele>213.33333333333331</ele><time>2026-05-01T15:33:50.729Z</time></trkpt><trkpt lat="43.5608117" lon="10.9392917"><ele>213.0</ele><time>2026-05-01T15:33:51.727Z</time></trkpt><trkpt lat="43.560995" lon="10.9393767"><ele>210.66666666666669</ele><time>2026-05-01T15:33:52.729Z</time></trkpt><trkpt lat="43.5611817" lon="10.939445"><ele>208.33333333333334</ele><time>2026-05-01T15:33:53.728Z</time></trkpt><trkpt lat="43.5613733" lon="10.9394867"><ele>206.0</ele><time>2026-05-01T15:33:54.729Z</time></trkpt><trkpt lat="43.5615717" lon="10.939515"><ele>203.0</ele><time>2026-05-01T15:33:55.728Z</time></trkpt><trkpt lat="43.5617717" lon="10.9395267"><ele>200.0</ele><time>2026-05-01T15:33:56.729Z</time></trkpt><trkpt lat="43.561975" lon="10.9395067"><ele>197.0</ele><time>2026-05-01T15:33:57.73Z</time></trkpt><trkpt lat="43.5621817" lon="10.939475"><ele>194.33333333333334</ele><time>2026-05-01T15:33:58.729Z</time></trkpt><trkpt lat="43.562395" lon="10.9394483"><ele>191.66666666666669</ele><time>2026-05-01T15:33:59.728Z</time></trkpt><trkpt lat="43.5626033" lon="10.93943"><ele>189.0</ele><time>2026-05-01T15:34:00.73Z</time></trkpt><trkpt lat="43.5628033" lon="10.939415"><ele>189.0</ele><time>2026-05-01T15:34:01.728Z</time></trkpt><trkpt lat="43.5629917" lon="10.93941"><ele>189.0</ele><time>2026-05-01T15:34:02.729Z</time></trkpt><trkpt lat="43.56317" lon="10.93941"><ele>189.0</ele><time>2026-05-01T15:34:03.728Z</time></trkpt><trkpt lat="43.563335" lon="10.9394133"><ele>189.0</ele><time>2026-05-01T15:34:04.729Z</time></trkpt><trkpt lat="43.5634867" lon="10.93942"><ele>189.0</ele><time>2026-05-01T15:34:05.729Z</time></trkpt><trkpt lat="43.563635" lon="10.9394317"><ele>189.0</ele><time>2026-05-01T15:34:06.728Z</time></trkpt><trkpt lat="43.5637883" lon="10.9394283"><ele>188.33333333333334</ele><time>2026-05-01T15:34:07.728Z</time></trkpt><trkpt lat="43.563965" lon="10.9394283"><ele>187.66666666666669</ele><time>2026-05-01T15:34:08.728Z</time></trkpt><trkpt lat="43.564165" lon="10.9394183"><ele>187.0</ele><time>2026-05-01T15:34:09.729Z</time></trkpt><trkpt lat="43.564375" lon="10.9393933"><ele>184.33333333333334</ele><time>2026-05-01T15:34:10.731Z</time></trkpt><trkpt lat="43.5645917" lon="10.939355"><ele>181.66666666666666</ele><time>2026-05-01T15:34:11.728Z</time></trkpt><trkpt lat="43.5648083" lon="10.9393017"><ele>179.0</ele><time>2026-05-01T15:34:12.728Z</time></trkpt><trkpt lat="43.5650217" lon="10.9392333"><ele>181.66666666666666</ele><time>2026-05-01T15:34:13.73Z</time></trkpt><trkpt lat="43.5652333" lon="10.9391583"><ele>184.33333333333334</ele><time>2026-05-01T15:34:14.729Z</time></trkpt><trkpt lat="43.5654417" lon="10.93907"><ele>187.0</ele><time>2026-05-01T15:34:15.727Z</time></trkpt><trkpt lat="43.56564" lon="10.93897"><ele>187.0</ele><time>2026-05-01T15:34:16.73Z</time></trkpt><trkpt lat="43.565835" lon="10.938865"><ele>187.0</ele><time>2026-05-01T15:34:17.73Z</time></trkpt><trkpt lat="43.5660333" lon="10.9387717"><ele>187.0</ele><time>2026-05-01T15:34:18.729Z</time></trkpt><trkpt lat="43.566235" lon="10.9387017"><ele>185.66666666666669</ele><time>2026-05-01T15:34:19.73Z</time></trkpt><trkpt lat="43.5664433" lon="10.9386633"><ele>184.33333333333334</ele><time>2026-05-01T15:34:20.73Z</time></trkpt><trkpt lat="43.56665" lon="10.9386383"><ele>183.0</ele><time>2026-05-01T15:34:21.729Z</time></trkpt><trkpt lat="43.5668533" lon="10.9386283"><ele>179.66666666666666</ele><time>2026-05-01T15:34:22.728Z</time></trkpt><trkpt lat="43.56705" lon="10.9386033"><ele>176.33333333333331</ele><time>2026-05-01T15:34:23.729Z</time></trkpt><trkpt lat="43.5672417" lon="10.9385467"><ele>173.0</ele><time>2026-05-01T15:34:24.73Z</time></trkpt><trkpt lat="43.5674333" lon="10.9384533"><ele>174.0</ele><time>2026-05-01T15:34:25.729Z</time></trkpt><trkpt lat="43.5676167" lon="10.9383383"><ele>175.0</ele><time>2026-05-01T15:34:26.729Z</time></trkpt><trkpt lat="43.5677883" lon="10.9381933"><ele>176.0</ele><time>2026-05-01T15:34:27.728Z</time></trkpt><trkpt lat="43.56795" lon="10.9380333"><ele>172.0</ele><time>2026-05-01T15:34:28.728Z</time></trkpt><trkpt lat="43.5680967" lon="10.9378717"><ele>168.0</ele><time>2026-05-01T15:34:29.729Z</time></trkpt><trkpt lat="43.5682433" lon="10.9377417"><ele>164.0</ele><time>2026-05-01T15:34:30.729Z</time></trkpt><trkpt lat="43.5684133" lon="10.93763"><ele>164.0</ele><time>2026-05-01T15:34:31.73Z</time></trkpt><trkpt lat="43.5685983" lon="10.9375533"><ele>164.0</ele><time>2026-05-01T15:34:32.729Z</time></trkpt><trkpt lat="43.56879" lon="10.9375317"><ele>164.0</ele><time>2026-05-01T15:34:33.73Z</time></trkpt><trkpt lat="43.5689833" lon="10.9375517"><ele>158.33333333333331</ele><time>2026-05-01T15:34:34.728Z</time></trkpt><trkpt lat="43.569175" lon="10.9376283"><ele>152.66666666666666</ele><time>2026-05-01T15:34:35.728Z</time></trkpt><trkpt lat="43.5693633" lon="10.93774"><ele>147.0</ele><time>2026-05-01T15:34:36.727Z</time></trkpt><trkpt lat="43.5695533" lon="10.9378717"><ele>144.66666666666666</ele><time>2026-05-01T15:34:37.729Z</time></trkpt><trkpt lat="43.5697467" lon="10.9380017"><ele>142.33333333333331</ele><time>2026-05-01T15:34:38.728Z</time></trkpt><trkpt lat="43.569945" lon="10.93813"><ele>140.0</ele><time>2026-05-01T15:34:39.728Z</time></trkpt><trkpt lat="43.5701433" lon="10.938255"><ele>138.66666666666666</ele><time>2026-05-01T15:34:40.728Z</time></trkpt><trkpt lat="43.5703383" lon="10.938385"><ele>137.33333333333334</ele><time>2026-05-01T15:34:41.729Z</time></trkpt><trkpt lat="43.5705283" lon="10.9385133"><ele>136.0</ele><time>2026-05-01T15:34:42.729Z</time></trkpt><trkpt lat="43.5707117" lon="10.9386383"><ele>136.0</ele><time>2026-05-01T15:34:43.73Z</time></trkpt><trkpt lat="43.5708783" lon="10.9387883"><ele>136.0</ele><time>2026-05-01T15:34:44.729Z</time></trkpt><trkpt lat="43.5710217" lon="10.9389667"><ele>136.0</ele><time>2026-05-01T15:34:45.729Z</time></trkpt><trkpt lat="43.5711383" lon="10.9391667"><ele>135.66666666666669</ele><time>2026-05-01T15:34:46.729Z</time></trkpt><trkpt lat="43.571235" lon="10.9393833"><ele>135.33333333333334</ele><time>2026-05-01T15:34:47.729Z</time></trkpt><trkpt lat="43.5713183" lon="10.9396217"><ele>135.0</ele><time>2026-05-01T15:34:48.73Z</time></trkpt><trkpt lat="43.5713967" lon="10.9398683"><ele>130.66666666666666</ele><time>2026-05-01T15:34:49.728Z</time></trkpt><trkpt lat="43.5714817" lon="10.9401167"><ele>126.33333333333333</ele><time>2026-05-01T15:34:50.729Z</time></trkpt><trkpt lat="43.5715917" lon="10.94035"><ele>122.0</ele><time>2026-05-01T15:34:51.727Z</time></trkpt><trkpt lat="43.571725" lon="10.9405633"><ele>122.0</ele><time>2026-05-01T15:34:52.729Z</time></trkpt><trkpt lat="43.5718767" lon="10.940755"><ele>122.0</ele><time>2026-05-01T15:34:53.729Z</time></trkpt><trkpt lat="43.5720433" lon="10.940925"><ele>122.0</ele><time>2026-05-01T15:34:54.73Z</time></trkpt><trkpt lat="43.5722217" lon="10.941095"><ele>119.33333333333333</ele><time>2026-05-01T15:34:55.729Z</time></trkpt><trkpt lat="43.5724017" lon="10.9412667"><ele>116.66666666666666</ele><time>2026-05-01T15:34:56.73Z</time></trkpt><trkpt lat="43.5725767" lon="10.941435"><ele>114.0</ele><time>2026-05-01T15:34:57.728Z</time></trkpt><trkpt lat="43.5727483" lon="10.9416"><ele>110.66666666666666</ele><time>2026-05-01T15:34:58.728Z</time></trkpt><trkpt lat="43.5729167" lon="10.9417617"><ele>107.33333333333333</ele><time>2026-05-01T15:34:59.729Z</time></trkpt><trkpt lat="43.5730833" lon="10.9419183"><ele>104.0</ele><time>2026-05-01T15:35:00.729Z</time></trkpt><trkpt lat="43.5732417" lon="10.9420717"><ele>104.0</ele><time>2026-05-01T15:35:01.728Z</time></trkpt><trkpt lat="43.5733933" lon="10.9422283"><ele>104.0</ele><time>2026-05-01T15:35:02.73Z</time></trkpt><trkpt lat="43.5735283" lon="10.9424117"><ele>104.0</ele><time>2026-05-01T15:35:03.728Z</time></trkpt><trkpt lat="43.57364" lon="10.9426317"><ele>101.66666666666666</ele><time>2026-05-01T15:35:04.73Z</time></trkpt><trkpt lat="43.5737317" lon="10.9428733"><ele>99.33333333333334</ele><time>2026-05-01T15:35:05.73Z</time></trkpt><trkpt lat="43.5738017" lon="10.9431317"><ele>97.0</ele><time>2026-05-01T15:35:06.729Z</time></trkpt><trkpt lat="43.5738583" lon="10.943405"><ele>95.33333333333334</ele><time>2026-05-01T15:35:07.728Z</time></trkpt><trkpt lat="43.5739217" lon="10.9436733"><ele>93.66666666666667</ele><time>2026-05-01T15:35:08.731Z</time></trkpt><trkpt lat="43.5740017" lon="10.9439433"><ele>92.0</ele><time>2026-05-01T15:35:09.729Z</time></trkpt><trkpt lat="43.5741017" lon="10.9442033"><ele>91.33333333333334</ele><time>2026-05-01T15:35:10.728Z</time></trkpt><trkpt lat="43.5742167" lon="10.9444367"><ele>90.66666666666667</ele><time>2026-05-01T15:35:11.727Z</time></trkpt><trkpt lat="43.5743617" lon="10.9446433"><ele>90.0</ele><time>2026-05-01T15:35:12.729Z</time></trkpt><trkpt lat="43.5745317" lon="10.9448167"><ele>90.0</ele><time>2026-05-01T15:35:13.73Z</time></trkpt><trkpt lat="43.5747083" lon="10.9449817"><ele>90.0</ele><time>2026-05-01T15:35:14.728Z</time></trkpt><trkpt lat="43.5748833" lon="10.9451583"><ele>90.0</ele><time>2026-05-01T15:35:15.728Z</time></trkpt><trkpt lat="43.5750583" lon="10.9453433"><ele>89.33333333333333</ele><time>2026-05-01T15:35:16.729Z</time></trkpt><trkpt lat="43.5752233" lon="10.9455517"><ele>88.66666666666666</ele><time>2026-05-01T15:35:17.729Z</time></trkpt><trkpt lat="43.575385" lon="10.94576"><ele>88.0</ele><time>2026-05-01T15:35:18.729Z</time></trkpt><trkpt lat="43.5755467" lon="10.945965"><ele>87.0</ele><time>2026-05-01T15:35:19.73Z</time></trkpt><trkpt lat="43.5757117" lon="10.94617"><ele>86.0</ele><time>2026-05-01T15:35:20.729Z</time></trkpt><trkpt lat="43.57588" lon="10.94638"><ele>85.0</ele><time>2026-05-01T15:35:21.728Z</time></trkpt><trkpt lat="43.576045" lon="10.9466"><ele>83.5</ele><time>2026-05-01T15:35:22.729Z</time></trkpt><trkpt lat="43.57621" lon="10.9468167"><ele>82.0</ele><time>2026-05-01T15:35:23.729Z</time></trkpt><trkpt lat="43.576375" lon="10.947035"><ele>82.0</ele><time>2026-05-01T15:35:24.729Z</time></trkpt><trkpt lat="43.576535" lon="10.9472483"><ele>82.0</ele><time>2026-05-01T15:35:25.728Z</time></trkpt><trkpt lat="43.5766867" lon="10.9474617"><ele>82.0</ele><time>2026-05-01T15:35:26.73Z</time></trkpt><trkpt lat="43.5768317" lon="10.9476867"><ele>81.33333333333333</ele><time>2026-05-01T15:35:27.729Z</time></trkpt><trkpt lat="43.5769617" lon="10.9479283"><ele>80.66666666666667</ele><time>2026-05-01T15:35:28.729Z</time></trkpt><trkpt lat="43.5770717" lon="10.94819"><ele>80.0</ele><time>2026-05-01T15:35:29.729Z</time></trkpt><trkpt lat="43.57716" lon="10.9484583"><ele>80.0</ele><time>2026-05-01T15:35:30.728Z</time></trkpt><trkpt lat="43.5772433" lon="10.9487383"><ele>80.0</ele><time>2026-05-01T15:35:31.728Z</time></trkpt><trkpt lat="43.5773267" lon="10.9490033"><ele>80.0</ele><time>2026-05-01T15:35:32.73Z</time></trkpt><trkpt lat="43.577415" lon="10.9492733"><ele>80.0</ele><time>2026-05-01T15:35:33.729Z</time></trkpt><trkpt lat="43.57751" lon="10.9495383"><ele>80.0</ele><time>2026-05-01T15:35:34.729Z</time></trkpt><trkpt lat="43.577625" lon="10.9497833"><ele>80.0</ele><time>2026-05-01T15:35:35.729Z</time></trkpt><trkpt lat="43.5777617" lon="10.9500083"><ele>81.33333333333334</ele><time>2026-05-01T15:35:36.729Z</time></trkpt><trkpt lat="43.5779183" lon="10.9502033"><ele>82.66666666666667</ele><time>2026-05-01T15:35:37.729Z</time></trkpt><trkpt lat="43.578095" lon="10.9503717"><ele>84.0</ele><time>2026-05-01T15:35:38.729Z</time></trkpt><trkpt lat="43.5782817" lon="10.95052"><ele>84.0</ele><time>2026-05-01T15:35:39.729Z</time></trkpt><trkpt lat="43.578475" lon="10.9506633"><ele>84.0</ele><time>2026-05-01T15:35:40.729Z</time></trkpt><trkpt lat="43.5786783" lon="10.9508083"><ele>84.0</ele><time>2026-05-01T15:35:41.73Z</time></trkpt><trkpt lat="43.578875" lon="10.950945"><ele>86.33333333333333</ele><time>2026-05-01T15:35:42.729Z</time></trkpt><trkpt lat="43.5790483" lon="10.9510917"><ele>88.66666666666666</ele><time>2026-05-01T15:35:43.728Z</time></trkpt><trkpt lat="43.579195" lon="10.9512583"><ele>91.0</ele><time>2026-05-01T15:35:44.73Z</time></trkpt><trkpt lat="43.57933" lon="10.9514467"><ele>91.0</ele><time>2026-05-01T15:35:45.73Z</time></trkpt><trkpt lat="43.5794467" lon="10.9516567"><ele>91.0</ele><time>2026-05-01T15:35:46.73Z</time></trkpt><trkpt lat="43.5795567" lon="10.9518883"><ele>91.0</ele><time>2026-05-01T15:35:47.73Z</time></trkpt><trkpt lat="43.57967" lon="10.952135"><ele>87.0</ele><time>2026-05-01T15:35:48.729Z</time></trkpt><trkpt lat="43.5797817" lon="10.9523783"><ele>83.0</ele><time>2026-05-01T15:35:49.729Z</time></trkpt><trkpt lat="43.5798967" lon="10.9526067"><ele>79.0</ele><time>2026-05-01T15:35:50.729Z</time></trkpt><trkpt lat="43.5800233" lon="10.9528317"><ele>77.0</ele><time>2026-05-01T15:35:51.728Z</time></trkpt><trkpt lat="43.5801683" lon="10.9530333"><ele>75.0</ele><time>2026-05-01T15:35:52.727Z</time></trkpt><trkpt lat="43.580335" lon="10.9532183"><ele>73.0</ele><time>2026-05-01T15:35:53.729Z</time></trkpt><trkpt lat="43.58051" lon="10.95339"><ele>72.0</ele><time>2026-05-01T15:35:54.729Z</time></trkpt><trkpt lat="43.5806967" lon="10.9535317"><ele>71.0</ele><time>2026-05-01T15:35:55.73Z</time></trkpt><trkpt lat="43.580895" lon="10.9536617"><ele>70.0</ele><time>2026-05-01T15:35:56.728Z</time></trkpt><trkpt lat="43.5811" lon="10.953795"><ele>68.66666666666666</ele><time>2026-05-01T15:35:57.728Z</time></trkpt><trkpt lat="43.58129" lon="10.9539533"><ele>67.33333333333333</ele><time>2026-05-01T15:35:58.729Z</time></trkpt><trkpt lat="43.5814617" lon="10.954145"><ele>66.0</ele><time>2026-05-01T15:35:59.73Z</time></trkpt><trkpt lat="43.5816083" lon="10.954365"><ele>65.33333333333333</ele><time>2026-05-01T15:36:00.729Z</time></trkpt><trkpt lat="43.581725" lon="10.9546117"><ele>64.66666666666666</ele><time>2026-05-01T15:36:01.729Z</time></trkpt><trkpt lat="43.581825" lon="10.954885"><ele>64.0</ele><time>2026-05-01T15:36:02.73Z</time></trkpt><trkpt lat="43.5819117" lon="10.9551767"><ele>64.0</ele><time>2026-05-01T15:36:03.729Z</time></trkpt><trkpt lat="43.5819967" lon="10.9554767"><ele>64.0</ele><time>2026-05-01T15:36:04.728Z</time></trkpt><trkpt lat="43.5820833" lon="10.9557867"><ele>64.0</ele><time>2026-05-01T15:36:05.727Z</time></trkpt><trkpt lat="43.5821717" lon="10.9561017"><ele>64.0</ele><time>2026-05-01T15:36:06.727Z</time></trkpt><trkpt lat="43.5822633" lon="10.9564217"><ele>64.0</ele><time>2026-05-01T15:36:07.726Z</time></trkpt><trkpt lat="43.5823517" lon="10.9567383"><ele>64.0</ele><time>2026-05-01T15:36:08.729Z</time></trkpt><trkpt lat="43.5824383" lon="10.9570633"><ele>64.0</ele><time>2026-05-01T15:36:09.729Z</time></trkpt><trkpt lat="43.5825317" lon="10.9573833"><ele>64.0</ele><time>2026-05-01T15:36:10.727Z</time></trkpt><trkpt lat="43.5826267" lon="10.9577033"><ele>63.0</ele><time>2026-05-01T15:36:11.728Z</time></trkpt><trkpt lat="43.5827167" lon="10.9580233"><ele>62.0</ele><time>2026-05-01T15:36:12.727Z</time></trkpt><trkpt lat="43.5828083" lon="10.9583433"><ele>62.0</ele><time>2026-05-01T15:36:13.727Z</time></trkpt><trkpt lat="43.5828983" lon="10.9586567"><ele>62.0</ele><time>2026-05-01T15:36:14.727Z</time></trkpt><trkpt lat="43.5829883" lon="10.95896"><ele>61.5</ele><time>2026-05-01T15:36:15.726Z</time></trkpt><trkpt lat="43.5830833" lon="10.95925"><ele>61.0</ele><time>2026-05-01T15:36:16.726Z</time></trkpt><trkpt lat="43.58318" lon="10.959535"><ele>61.0</ele><time>2026-05-01T15:36:17.727Z</time></trkpt><trkpt lat="43.5832833" lon="10.9598067"><ele>61.0</ele><time>2026-05-01T15:36:18.728Z</time></trkpt><trkpt lat="43.5834133" lon="10.9600517"><ele>61.0</ele><time>2026-05-01T15:36:19.727Z</time></trkpt><trkpt lat="43.58356" lon="10.9602733"><ele>61.666666666666664</ele><time>2026-05-01T15:36:20.727Z</time></trkpt><trkpt lat="43.5837233" lon="10.9604683"><ele>62.33333333333333</ele><time>2026-05-01T15:36:21.726Z</time></trkpt><trkpt lat="43.5839" lon="10.9606467"><ele>63.0</ele><time>2026-05-01T15:36:22.728Z</time></trkpt><trkpt lat="43.5840833" lon="10.9608133"><ele>62.0</ele><time>2026-05-01T15:36:23.727Z</time></trkpt><trkpt lat="43.5842683" lon="10.9609783"><ele>61.0</ele><time>2026-05-01T15:36:24.728Z</time></trkpt><trkpt lat="43.58445" lon="10.9611333"><ele>60.0</ele><time>2026-05-01T15:36:25.727Z</time></trkpt><trkpt lat="43.5846217" lon="10.9612867"><ele>60.0</ele><time>2026-05-01T15:36:26.726Z</time></trkpt><trkpt lat="43.5847867" lon="10.9614483"><ele>60.0</ele><time>2026-05-01T15:36:27.728Z</time></trkpt><trkpt lat="43.58494" lon="10.96159"><ele>60.0</ele><time>2026-05-01T15:36:28.727Z</time></trkpt><trkpt lat="43.5850817" lon="10.9617383"><ele>60.0</ele><time>2026-05-01T15:36:29.727Z</time></trkpt><trkpt lat="43.585215" lon="10.9618883"><ele>60.0</ele><time>2026-05-01T15:36:30.727Z</time></trkpt><trkpt lat="43.58533" lon="10.9620483"><ele>60.0</ele><time>2026-05-01T15:36:31.727Z</time></trkpt><trkpt lat="43.58544" lon="10.9622183"><ele>60.0</ele><time>2026-05-01T15:36:32.728Z</time></trkpt><trkpt lat="43.5855517" lon="10.9623967"><ele>60.0</ele><time>2026-05-01T15:36:33.727Z</time></trkpt><trkpt lat="43.585675" lon="10.9625883"><ele>60.0</ele><time>2026-05-01T15:36:34.727Z</time></trkpt><trkpt lat="43.5858067" lon="10.9627883"><ele>59.33333333333333</ele><time>2026-05-01T15:36:35.726Z</time></trkpt><trkpt lat="43.5859417" lon="10.9629917"><ele>58.666666666666664</ele><time>2026-05-01T15:36:36.727Z</time></trkpt><trkpt lat="43.5860667" lon="10.9632017"><ele>58.0</ele><time>2026-05-01T15:36:37.727Z</time></trkpt><trkpt lat="43.5861767" lon="10.96341"><ele>57.666666666666664</ele><time>2026-05-01T15:36:38.728Z</time></trkpt><trkpt lat="43.5862917" lon="10.9636167"><ele>57.33333333333333</ele><time>2026-05-01T15:36:39.728Z</time></trkpt><trkpt lat="43.586405" lon="10.963825"><ele>57.0</ele><time>2026-05-01T15:36:40.728Z</time></trkpt><trkpt lat="43.5865117" lon="10.9640317"><ele>56.66666666666667</ele><time>2026-05-01T15:36:41.728Z</time></trkpt><trkpt lat="43.586605" lon="10.964235"><ele>56.333333333333336</ele><time>2026-05-01T15:36:42.728Z</time></trkpt><trkpt lat="43.586685" lon="10.96445"><ele>56.0</ele><time>2026-05-01T15:36:43.728Z</time></trkpt><trkpt lat="43.58675" lon="10.9646767"><ele>56.0</ele><time>2026-05-01T15:36:44.729Z</time></trkpt><trkpt lat="43.586795" lon="10.964905"><ele>56.0</ele><time>2026-05-01T15:36:45.727Z</time></trkpt><trkpt lat="43.5868267" lon="10.96514"><ele>56.0</ele><time>2026-05-01T15:36:46.727Z</time></trkpt><trkpt lat="43.58684" lon="10.9653683"><ele>55.75</ele><time>2026-05-01T15:36:47.727Z</time></trkpt><trkpt lat="43.5868433" lon="10.965585"><ele>55.5</ele><time>2026-05-01T15:36:48.728Z</time></trkpt><trkpt lat="43.58683" lon="10.96579"><ele>55.25</ele><time>2026-05-01T15:36:49.728Z</time></trkpt><trkpt lat="43.586805" lon="10.9659833"><ele>55.0</ele><time>2026-05-01T15:36:50.727Z</time></trkpt><trkpt lat="43.58677" lon="10.96617"><ele>55.0</ele><time>2026-05-01T15:36:51.728Z</time></trkpt><trkpt lat="43.58672" lon="10.96634"><ele>55.0</ele><time>2026-05-01T15:36:52.726Z</time></trkpt><trkpt lat="43.58667" lon="10.9665"><ele>55.0</ele><time>2026-05-01T15:36:53.728Z</time></trkpt><trkpt lat="43.5866233" lon="10.9666467"><ele>55.0</ele><time>2026-05-01T15:36:54.727Z</time></trkpt><trkpt lat="43.58658" lon="10.9667883"><ele>55.0</ele><time>2026-05-01T15:36:55.727Z</time></trkpt><trkpt lat="43.5865367" lon="10.966925"><ele>55.0</ele><time>2026-05-01T15:36:56.729Z</time></trkpt><trkpt lat="43.5864933" lon="10.967065"><ele>55.0</ele><time>2026-05-01T15:36:57.726Z</time></trkpt><trkpt lat="43.5864533" lon="10.9672083"><ele>55.0</ele><time>2026-05-01T15:36:58.728Z</time></trkpt><trkpt lat="43.58641" lon="10.967355"><ele>55.0</ele><time>2026-05-01T15:36:59.727Z</time></trkpt><trkpt lat="43.5863667" lon="10.9674933"><ele>54.8</ele><time>2026-05-01T15:37:00.728Z</time></trkpt><trkpt lat="43.5863267" lon="10.967625"><ele>54.6</ele><time>2026-05-01T15:37:01.727Z</time></trkpt><trkpt lat="43.5862867" lon="10.9677533"><ele>54.400000000000006</ele><time>2026-05-01T15:37:02.729Z</time></trkpt><trkpt lat="43.58625" lon="10.9678633"><ele>54.2</ele><time>2026-05-01T15:37:03.726Z</time></trkpt><trkpt lat="43.5862167" lon="10.9679567"><ele>54.0</ele><time>2026-05-01T15:37:04.727Z</time></trkpt><trkpt lat="43.5861767" lon="10.9680733"><ele>54.0</ele><time>2026-05-01T15:37:06.729Z</time></trkpt><trkpt lat="43.5861517" lon="10.968155"><ele>54.0</ele><time>2026-05-01T15:37:15.727Z</time></trkpt><trkpt lat="43.5861617" lon="10.9682667"><ele>54.0</ele><time>2026-05-01T15:37:17.728Z</time></trkpt><trkpt lat="43.5861883" lon="10.968355"><ele>54.0</ele><time>2026-05-01T15:37:18.728Z</time></trkpt><trkpt lat="43.58623" lon="10.9684483"><ele>54.0</ele><time>2026-05-01T15:37:19.726Z</time></trkpt><trkpt lat="43.5862933" lon="10.9685467"><ele>54.0</ele><time>2026-05-01T15:37:20.728Z</time></trkpt><trkpt lat="43.5863933" lon="10.9686733"><ele>54.0</ele><time>2026-05-01T15:37:21.727Z</time></trkpt><trkpt lat="43.586515" lon="10.9687983"><ele>54.0</ele><time>2026-05-01T15:37:22.727Z</time></trkpt><trkpt lat="43.5866433" lon="10.968935"><ele>54.0</ele><time>2026-05-01T15:37:23.726Z</time></trkpt><trkpt lat="43.5867917" lon="10.96908"><ele>54.66666666666667</ele><time>2026-05-01T15:37:24.726Z</time></trkpt><trkpt lat="43.586945" lon="10.969235"><ele>55.333333333333336</ele><time>2026-05-01T15:37:25.728Z</time></trkpt><trkpt lat="43.58709" lon="10.9693883"><ele>56.0</ele><time>2026-05-01T15:37:26.728Z</time></trkpt><trkpt lat="43.5872433" lon="10.9695433"><ele>56.66666666666667</ele><time>2026-05-01T15:37:27.727Z</time></trkpt><trkpt lat="43.5873983" lon="10.969695"><ele>57.33333333333333</ele><time>2026-05-01T15:37:28.727Z</time></trkpt><trkpt lat="43.5875517" lon="10.9698483"><ele>58.0</ele><time>2026-05-01T15:37:29.727Z</time></trkpt><trkpt lat="43.5876933" lon="10.9700067"><ele>57.33333333333333</ele><time>2026-05-01T15:37:30.728Z</time></trkpt><trkpt lat="43.5878433" lon="10.9701717"><ele>56.66666666666667</ele><time>2026-05-01T15:37:31.727Z</time></trkpt><trkpt lat="43.5879933" lon="10.9703317"><ele>56.0</ele><time>2026-05-01T15:37:32.727Z</time></trkpt><trkpt lat="43.5881417" lon="10.9704833"><ele>55.333333333333336</ele><time>2026-05-01T15:37:33.728Z</time></trkpt><trkpt lat="43.5882833" lon="10.9706333"><ele>54.66666666666667</ele><time>2026-05-01T15:37:34.727Z</time></trkpt><trkpt lat="43.5884167" lon="10.9707733"><ele>54.0</ele><time>2026-05-01T15:37:35.726Z</time></trkpt><trkpt lat="43.5885433" lon="10.970905"><ele>54.0</ele><time>2026-05-01T15:37:36.728Z</time></trkpt><trkpt lat="43.5886667" lon="10.97103"><ele>54.0</ele><time>2026-05-01T15:37:37.728Z</time></trkpt><trkpt lat="43.5887867" lon="10.9711433"><ele>54.0</ele><time>2026-05-01T15:37:38.728Z</time></trkpt><trkpt lat="43.5889" lon="10.971245"><ele>54.0</ele><time>2026-05-01T15:37:39.728Z</time></trkpt><trkpt lat="43.5890033" lon="10.9713417"><ele>53.800000000000004</ele><time>2026-05-01T15:37:40.727Z</time></trkpt><trkpt lat="43.5890883" lon="10.9714333"><ele>53.60000000000001</ele><time>2026-05-01T15:37:41.727Z</time></trkpt><trkpt lat="43.5891567" lon="10.9715183"><ele>53.4</ele><time>2026-05-01T15:37:42.728Z</time></trkpt><trkpt lat="43.5892133" lon="10.9716033"><ele>53.2</ele><time>2026-05-01T15:37:43.727Z</time></trkpt><trkpt lat="43.5892633" lon="10.9716933"><ele>53.0</ele><time>2026-05-01T15:37:44.728Z</time></trkpt><trkpt lat="43.5893133" lon="10.9717883"><ele>52.833333333333336</ele><time>2026-05-01T15:37:45.726Z</time></trkpt><trkpt lat="43.5893667" lon="10.9718733"><ele>52.66666666666667</ele><time>2026-05-01T15:37:46.728Z</time></trkpt><trkpt lat="43.589435" lon="10.9719383"><ele>52.5</ele><time>2026-05-01T15:37:47.728Z</time></trkpt><trkpt lat="43.5895167" lon="10.9719717"><ele>52.33333333333333</ele><time>2026-05-01T15:37:48.728Z</time></trkpt><trkpt lat="43.5896033" lon="10.9719717"><ele>52.166666666666664</ele><time>2026-05-01T15:37:49.727Z</time></trkpt><trkpt lat="43.5897017" lon="10.9719517"><ele>52.0</ele><time>2026-05-01T15:37:50.728Z</time></trkpt><trkpt lat="43.58981" lon="10.9719367"><ele>52.0</ele><time>2026-05-01T15:37:51.728Z</time></trkpt><trkpt lat="43.589925" lon="10.971935"><ele>52.0</ele><time>2026-05-01T15:37:52.728Z</time></trkpt><trkpt lat="43.5900467" lon="10.9719433"><ele>52.0</ele><time>2026-05-01T15:37:53.727Z</time></trkpt><trkpt lat="43.5901733" lon="10.9719633"><ele>52.0</ele><time>2026-05-01T15:37:54.728Z</time></trkpt><trkpt lat="43.5903033" lon="10.9719883"><ele>52.0</ele><time>2026-05-01T15:37:55.726Z</time></trkpt><trkpt lat="43.59044" lon="10.9720183"><ele>52.0</ele><time>2026-05-01T15:37:56.728Z</time></trkpt><trkpt lat="43.5905817" lon="10.9720467"><ele>52.0</ele><time>2026-05-01T15:37:57.727Z</time></trkpt><trkpt lat="43.590725" lon="10.9720733"><ele>52.0</ele><time>2026-05-01T15:37:58.728Z</time></trkpt><trkpt lat="43.590865" lon="10.972095"><ele>52.0</ele><time>2026-05-01T15:37:59.73Z</time></trkpt><trkpt lat="43.5910033" lon="10.972125"><ele>52.0</ele><time>2026-05-01T15:38:00.728Z</time></trkpt><trkpt lat="43.5911433" lon="10.9721533"><ele>52.0</ele><time>2026-05-01T15:38:01.729Z</time></trkpt><trkpt lat="43.59128" lon="10.9721833"><ele>52.0</ele><time>2026-05-01T15:38:02.728Z</time></trkpt><trkpt lat="43.5914167" lon="10.9722083"><ele>51.5</ele><time>2026-05-01T15:38:03.729Z</time></trkpt><trkpt lat="43.5915567" lon="10.97223"><ele>51.0</ele><time>2026-05-01T15:38:04.727Z</time></trkpt><trkpt lat="43.5916933" lon="10.97225"><ele>50.5</ele><time>2026-05-01T15:38:05.727Z</time></trkpt><trkpt lat="43.5918267" lon="10.9722667"><ele>50.0</ele><time>2026-05-01T15:38:06.73Z</time></trkpt><trkpt lat="43.5919567" lon="10.9722817"><ele>50.2</ele><time>2026-05-01T15:38:07.726Z</time></trkpt><trkpt lat="43.5920817" lon="10.9722967"><ele>50.4</ele><time>2026-05-01T15:38:08.728Z</time></trkpt><trkpt lat="43.5921983" lon="10.972305"><ele>50.599999999999994</ele><time>2026-05-01T15:38:09.728Z</time></trkpt><trkpt lat="43.5923067" lon="10.97232"><ele>50.8</ele><time>2026-05-01T15:38:10.727Z</time></trkpt><trkpt lat="43.5924033" lon="10.9723417"><ele>51.0</ele><time>2026-05-01T15:38:11.728Z</time></trkpt><trkpt lat="43.5924933" lon="10.97238"><ele>51.0</ele><time>2026-05-01T15:38:12.728Z</time></trkpt><trkpt lat="43.5925817" lon="10.9724367"><ele>51.0</ele><time>2026-05-01T15:38:13.727Z</time></trkpt><trkpt lat="43.5926717" lon="10.972495"><ele>51.0</ele><time>2026-05-01T15:38:14.728Z</time></trkpt><trkpt lat="43.59277" lon="10.9725267"><ele>51.0</ele><time>2026-05-01T15:38:15.727Z</time></trkpt><trkpt lat="43.5928783" lon="10.9725183"><ele>51.0</ele><time>2026-05-01T15:38:16.728Z</time></trkpt><trkpt lat="43.5929883" lon="10.972465"><ele>50.75</ele><time>2026-05-01T15:38:17.728Z</time></trkpt><trkpt lat="43.5931083" lon="10.9724117"><ele>50.5</ele><time>2026-05-01T15:38:18.728Z</time></trkpt><trkpt lat="43.5932433" lon="10.9723683"><ele>50.25</ele><time>2026-05-01T15:38:19.728Z</time></trkpt><trkpt lat="43.5933967" lon="10.9723467"><ele>50.0</ele><time>2026-05-01T15:38:20.727Z</time></trkpt><trkpt lat="43.5935583" lon="10.9723317"><ele>50.333333333333336</ele><time>2026-05-01T15:38:21.728Z</time></trkpt><trkpt lat="43.5937333" lon="10.9723267"><ele>50.66666666666667</ele><time>2026-05-01T15:38:22.728Z</time></trkpt><trkpt lat="43.5939117" lon="10.9723233"><ele>51.0</ele><time>2026-05-01T15:38:23.727Z</time></trkpt><trkpt lat="43.5940917" lon="10.9723233"><ele>51.0</ele><time>2026-05-01T15:38:24.728Z</time></trkpt><trkpt lat="43.594275" lon="10.97232"><ele>51.0</ele><time>2026-05-01T15:38:25.728Z</time></trkpt><trkpt lat="43.5944617" lon="10.97232"><ele>51.0</ele><time>2026-05-01T15:38:26.728Z</time></trkpt><trkpt lat="43.5946483" lon="10.972315"><ele>51.33333333333333</ele><time>2026-05-01T15:38:27.728Z</time></trkpt><trkpt lat="43.5948367" lon="10.9723067"><ele>51.666666666666664</ele><time>2026-05-01T15:38:28.728Z</time></trkpt><trkpt lat="43.5950233" lon="10.9723017"><ele>52.0</ele><time>2026-05-01T15:38:29.727Z</time></trkpt><trkpt lat="43.59521" lon="10.972295"><ele>52.0</ele><time>2026-05-01T15:38:30.728Z</time></trkpt><trkpt lat="43.5954017" lon="10.972295"><ele>52.0</ele><time>2026-05-01T15:38:31.728Z</time></trkpt><trkpt lat="43.59559" lon="10.9723067"><ele>52.0</ele><time>2026-05-01T15:38:32.729Z</time></trkpt><trkpt lat="43.5957817" lon="10.9723317"><ele>52.0</ele><time>2026-05-01T15:38:33.728Z</time></trkpt><trkpt lat="43.5959767" lon="10.9723833"><ele>52.0</ele><time>2026-05-01T15:38:34.727Z</time></trkpt><trkpt lat="43.59617" lon="10.9724517"><ele>52.0</ele><time>2026-05-01T15:38:35.727Z</time></trkpt><trkpt lat="43.5963583" lon="10.97254"><ele>51.33333333333333</ele><time>2026-05-01T15:38:36.728Z</time></trkpt><trkpt lat="43.59654" lon="10.9726517"><ele>50.66666666666667</ele><time>2026-05-01T15:38:37.728Z</time></trkpt><trkpt lat="43.59671" lon="10.9727783"><ele>50.0</ele><time>2026-05-01T15:38:38.727Z</time></trkpt><trkpt lat="43.59687" lon="10.9729367"><ele>50.66666666666667</ele><time>2026-05-01T15:38:39.728Z</time></trkpt><trkpt lat="43.5970283" lon="10.9731083"><ele>51.33333333333333</ele><time>2026-05-01T15:38:40.728Z</time></trkpt><trkpt lat="43.5971883" lon="10.973275"><ele>52.0</ele><time>2026-05-01T15:38:41.728Z</time></trkpt><trkpt lat="43.59735" lon="10.9734483"><ele>52.666666666666664</ele><time>2026-05-01T15:38:42.729Z</time></trkpt><trkpt lat="43.5975133" lon="10.973625"><ele>53.33333333333333</ele><time>2026-05-01T15:38:43.727Z</time></trkpt><trkpt lat="43.5976817" lon="10.9738033"><ele>54.0</ele><time>2026-05-01T15:38:44.727Z</time></trkpt><trkpt lat="43.5978467" lon="10.973975"><ele>55.0</ele><time>2026-05-01T15:38:45.726Z</time></trkpt><trkpt lat="43.5980133" lon="10.974135"><ele>56.0</ele><time>2026-05-01T15:38:46.728Z</time></trkpt><trkpt lat="43.5981783" lon="10.9742733"><ele>57.0</ele><time>2026-05-01T15:38:47.727Z</time></trkpt><trkpt lat="43.59835" lon="10.974385"><ele>57.66666666666667</ele><time>2026-05-01T15:38:48.728Z</time></trkpt><trkpt lat="43.5985183" lon="10.9744883"><ele>58.333333333333336</ele><time>2026-05-01T15:38:49.728Z</time></trkpt><trkpt lat="43.5986933" lon="10.9745733"><ele>59.0</ele><time>2026-05-01T15:38:50.729Z</time></trkpt><trkpt lat="43.5988667" lon="10.974645"><ele>59.0</ele><time>2026-05-01T15:38:51.728Z</time></trkpt><trkpt lat="43.59904" lon="10.9747033"><ele>59.0</ele><time>2026-05-01T15:38:52.727Z</time></trkpt><trkpt lat="43.5992217" lon="10.974735"><ele>59.0</ele><time>2026-05-01T15:38:53.728Z</time></trkpt><trkpt lat="43.5994067" lon="10.9747567"><ele>59.66666666666667</ele><time>2026-05-01T15:38:54.728Z</time></trkpt><trkpt lat="43.599595" lon="10.974775"><ele>60.33333333333333</ele><time>2026-05-01T15:38:55.727Z</time></trkpt><trkpt lat="43.5997817" lon="10.974795"><ele>61.0</ele><time>2026-05-01T15:38:56.728Z</time></trkpt><trkpt lat="43.5999667" lon="10.9748117"><ele>61.0</ele><time>2026-05-01T15:38:57.727Z</time></trkpt><trkpt lat="43.60015" lon="10.9748283"><ele>61.0</ele><time>2026-05-01T15:38:58.728Z</time></trkpt><trkpt lat="43.6003317" lon="10.9748517"><ele>61.0</ele><time>2026-05-01T15:38:59.727Z</time></trkpt><trkpt lat="43.60051" lon="10.9748717"><ele>58.666666666666664</ele><time>2026-05-01T15:39:00.729Z</time></trkpt><trkpt lat="43.6006817" lon="10.974895"><ele>56.33333333333333</ele><time>2026-05-01T15:39:01.727Z</time></trkpt><trkpt lat="43.6008433" lon="10.9749167"><ele>54.0</ele><time>2026-05-01T15:39:02.728Z</time></trkpt><trkpt lat="43.6009967" lon="10.97495"><ele>54.0</ele><time>2026-05-01T15:39:03.728Z</time></trkpt><trkpt lat="43.6011417" lon="10.974965"><ele>54.0</ele><time>2026-05-01T15:39:04.728Z</time></trkpt><trkpt lat="43.6012767" lon="10.975"><ele>54.0</ele><time>2026-05-01T15:39:05.728Z</time></trkpt><trkpt lat="43.60141" lon="10.9750383"><ele>54.0</ele><time>2026-05-01T15:39:06.729Z</time></trkpt><trkpt lat="43.60154" lon="10.9750817"><ele>54.25</ele><time>2026-05-01T15:39:07.727Z</time></trkpt><trkpt lat="43.6016683" lon="10.9751183"><ele>54.5</ele><time>2026-05-01T15:39:08.728Z</time></trkpt><trkpt lat="43.6017983" lon="10.9751617"><ele>54.75</ele><time>2026-05-01T15:39:09.728Z</time></trkpt><trkpt lat="43.6019217" lon="10.9751967"><ele>55.0</ele><time>2026-05-01T15:39:10.728Z</time></trkpt><trkpt lat="43.6020383" lon="10.97523"><ele>55.0</ele><time>2026-05-01T15:39:11.728Z</time></trkpt><trkpt lat="43.602155" lon="10.9752667"><ele>55.0</ele><time>2026-05-01T15:39:12.728Z</time></trkpt><trkpt lat="43.6022683" lon="10.9753017"><ele>55.0</ele><time>2026-05-01T15:39:13.729Z</time></trkpt><trkpt lat="43.60238" lon="10.9753283"><ele>55.0</ele><time>2026-05-01T15:39:14.728Z</time></trkpt><trkpt lat="43.6024833" lon="10.97536"><ele>55.0</ele><time>2026-05-01T15:39:15.726Z</time></trkpt><trkpt lat="43.6025933" lon="10.975385"><ele>55.0</ele><time>2026-05-01T15:39:16.727Z</time></trkpt><trkpt lat="43.602705" lon="10.9754117"><ele>55.0</ele><time>2026-05-01T15:39:17.727Z</time></trkpt><trkpt lat="43.6028183" lon="10.975435"><ele>55.0</ele><time>2026-05-01T15:39:18.728Z</time></trkpt><trkpt lat="43.60293" lon="10.9754667"><ele>54.25</ele><time>2026-05-01T15:39:19.728Z</time></trkpt><trkpt lat="43.6030467" lon="10.9755017"><ele>53.5</ele><time>2026-05-01T15:39:20.729Z</time></trkpt><trkpt lat="43.603175" lon="10.9755417"><ele>52.75</ele><time>2026-05-01T15:39:21.728Z</time></trkpt><trkpt lat="43.6033183" lon="10.9755717"><ele>52.0</ele><time>2026-05-01T15:39:22.727Z</time></trkpt><trkpt lat="43.6034683" lon="10.9756117"><ele>52.0</ele><time>2026-05-01T15:39:23.728Z</time></trkpt><trkpt lat="43.6036183" lon="10.9756533"><ele>52.0</ele><time>2026-05-01T15:39:24.728Z</time></trkpt><trkpt lat="43.6037717" lon="10.975695"><ele>52.0</ele><time>2026-05-01T15:39:25.727Z</time></trkpt><trkpt lat="43.603925" lon="10.975735"><ele>52.0</ele><time>2026-05-01T15:39:26.728Z</time></trkpt><trkpt lat="43.6040767" lon="10.9757783"><ele>52.0</ele><time>2026-05-01T15:39:27.728Z</time></trkpt><trkpt lat="43.60423" lon="10.9758183"><ele>52.0</ele><time>2026-05-01T15:39:28.728Z</time></trkpt><trkpt lat="43.6043867" lon="10.9758583"><ele>51.666666666666664</ele><time>2026-05-01T15:39:29.728Z</time></trkpt><trkpt lat="43.6045433" lon="10.9758983"><ele>51.33333333333333</ele><time>2026-05-01T15:39:30.729Z</time></trkpt><trkpt lat="43.604695" lon="10.9759383"><ele>51.0</ele><time>2026-05-01T15:39:31.728Z</time></trkpt><trkpt lat="43.60485" lon="10.9759783"><ele>51.0</ele><time>2026-05-01T15:39:32.727Z</time></trkpt><trkpt lat="43.6050033" lon="10.9760133"><ele>51.0</ele><time>2026-05-01T15:39:33.728Z</time></trkpt><trkpt lat="43.6051567" lon="10.9760417"><ele>51.0</ele><time>2026-05-01T15:39:34.728Z</time></trkpt><trkpt lat="43.6053133" lon="10.9760617"><ele>51.33333333333333</ele><time>2026-05-01T15:39:35.727Z</time></trkpt><trkpt lat="43.6054717" lon="10.9760733"><ele>51.666666666666664</ele><time>2026-05-01T15:39:36.727Z</time></trkpt><trkpt lat="43.6056333" lon="10.97606"><ele>52.0</ele><time>2026-05-01T15:39:37.728Z</time></trkpt><trkpt lat="43.6057917" lon="10.9760267"><ele>52.0</ele><time>2026-05-01T15:39:38.729Z</time></trkpt><trkpt lat="43.6059433" lon="10.9759633"><ele>52.0</ele><time>2026-05-01T15:39:39.727Z</time></trkpt><trkpt lat="43.6060833" lon="10.9758767"><ele>52.0</ele><time>2026-05-01T15:39:40.729Z</time></trkpt><trkpt lat="43.606215" lon="10.9757633"><ele>54.0</ele><time>2026-05-01T15:39:41.727Z</time></trkpt><trkpt lat="43.606335" lon="10.975615"><ele>56.0</ele><time>2026-05-01T15:39:42.728Z</time></trkpt><trkpt lat="43.6064417" lon="10.9754433"><ele>58.0</ele><time>2026-05-01T15:39:43.728Z</time></trkpt><trkpt lat="43.6065433" lon="10.975255"><ele>58.0</ele><time>2026-05-01T15:39:44.729Z</time></trkpt><trkpt lat="43.6066283" lon="10.97505"><ele>58.0</ele><time>2026-05-01T15:39:45.727Z</time></trkpt><trkpt lat="43.6067017" lon="10.9748383"><ele>58.0</ele><time>2026-05-01T15:39:46.729Z</time></trkpt><trkpt lat="43.6067683" lon="10.9746217"><ele>61.0</ele><time>2026-05-01T15:39:47.728Z</time></trkpt><trkpt lat="43.6068367" lon="10.9744067"><ele>64.0</ele><time>2026-05-01T15:39:48.729Z</time></trkpt><trkpt lat="43.6069017" lon="10.9741967"><ele>67.0</ele><time>2026-05-01T15:39:49.728Z</time></trkpt><trkpt lat="43.6069783" lon="10.97399"><ele>69.33333333333333</ele><time>2026-05-01T15:39:50.728Z</time></trkpt><trkpt lat="43.607065" lon="10.9737967"><ele>71.66666666666667</ele><time>2026-05-01T15:39:51.728Z</time></trkpt><trkpt lat="43.6071567" lon="10.9736183"><ele>74.0</ele><time>2026-05-01T15:39:52.728Z</time></trkpt><trkpt lat="43.607245" lon="10.973455"><ele>78.5</ele><time>2026-05-01T15:39:53.729Z</time></trkpt><trkpt lat="43.60733" lon="10.9733067"><ele>83.0</ele><time>2026-05-01T15:39:54.728Z</time></trkpt><trkpt lat="43.6074133" lon="10.9731667"><ele>87.5</ele><time>2026-05-01T15:39:55.728Z</time></trkpt><trkpt lat="43.60751" lon="10.97301"><ele>92.0</ele><time>2026-05-01T15:39:56.727Z</time></trkpt><trkpt lat="43.6076217" lon="10.9728833"><ele>92.0</ele><time>2026-05-01T15:39:57.729Z</time></trkpt><trkpt lat="43.6077333" lon="10.972795"><ele>92.0</ele><time>2026-05-01T15:39:58.729Z</time></trkpt><trkpt lat="43.6078517" lon="10.9727633"><ele>92.0</ele><time>2026-05-01T15:39:59.728Z</time></trkpt><trkpt lat="43.6079783" lon="10.9727617"><ele>92.0</ele><time>2026-05-01T15:40:00.728Z</time></trkpt><trkpt lat="43.6081083" lon="10.9727917"><ele>92.0</ele><time>2026-05-01T15:40:01.728Z</time></trkpt><trkpt lat="43.60824" lon="10.9728433"><ele>92.0</ele><time>2026-05-01T15:40:02.729Z</time></trkpt><trkpt lat="43.608375" lon="10.97291"><ele>92.0</ele><time>2026-05-01T15:40:03.728Z</time></trkpt><trkpt lat="43.608515" lon="10.972985"><ele>92.0</ele><time>2026-05-01T15:40:04.728Z</time></trkpt><trkpt lat="43.6086617" lon="10.9730783"><ele>92.66666666666667</ele><time>2026-05-01T15:40:05.726Z</time></trkpt><trkpt lat="43.6088083" lon="10.9731817"><ele>93.33333333333333</ele><time>2026-05-01T15:40:06.727Z</time></trkpt><trkpt lat="43.60896" lon="10.9732967"><ele>94.0</ele><time>2026-05-01T15:40:07.726Z</time></trkpt><trkpt lat="43.6091117" lon="10.9734167"><ele>94.0</ele><time>2026-05-01T15:40:08.728Z</time></trkpt><trkpt lat="43.6092633" lon="10.97353"><ele>94.0</ele><time>2026-05-01T15:40:09.727Z</time></trkpt><trkpt lat="43.60942" lon="10.9736517"><ele>94.0</ele><time>2026-05-01T15:40:10.729Z</time></trkpt><trkpt lat="43.6095867" lon="10.97378"><ele>99.0</ele><time>2026-05-01T15:40:11.726Z</time></trkpt><trkpt lat="43.6097567" lon="10.9739183"><ele>104.0</ele><time>2026-05-01T15:40:12.727Z</time></trkpt><trkpt lat="43.609915" lon="10.9740483"><ele>109.0</ele><time>2026-05-01T15:40:13.728Z</time></trkpt><trkpt lat="43.610065" lon="10.9741817"><ele>110.0</ele><time>2026-05-01T15:40:14.729Z</time></trkpt><trkpt lat="43.6101917" lon="10.97432"><ele>111.0</ele><time>2026-05-01T15:40:15.727Z</time></trkpt><trkpt lat="43.610305" lon="10.9744633"><ele>112.0</ele><time>2026-05-01T15:40:16.727Z</time></trkpt><trkpt lat="43.610405" lon="10.974615"><ele>112.0</ele><time>2026-05-01T15:40:17.729Z</time></trkpt><trkpt lat="43.6105017" lon="10.97477"><ele>112.0</ele><time>2026-05-01T15:40:18.728Z</time></trkpt><trkpt lat="43.6105983" lon="10.974925"><ele>112.0</ele><time>2026-05-01T15:40:19.728Z</time></trkpt><trkpt lat="43.6107017" lon="10.97507"><ele>112.0</ele><time>2026-05-01T15:40:20.727Z</time></trkpt><trkpt lat="43.6108133" lon="10.9751933"><ele>112.5</ele><time>2026-05-01T15:40:21.727Z</time></trkpt><trkpt lat="43.6109283" lon="10.975295"><ele>113.0</ele><time>2026-05-01T15:40:22.727Z</time></trkpt><trkpt lat="43.6110467" lon="10.9753867"><ele>113.5</ele><time>2026-05-01T15:40:23.728Z</time></trkpt><trkpt lat="43.6111717" lon="10.975465"><ele>114.0</ele><time>2026-05-01T15:40:24.727Z</time></trkpt><trkpt lat="43.6112983" lon="10.9755433"><ele>114.0</ele><time>2026-05-01T15:40:25.728Z</time></trkpt><trkpt lat="43.6114367" lon="10.975635"><ele>114.0</ele><time>2026-05-01T15:40:26.727Z</time></trkpt><trkpt lat="43.6115917" lon="10.9757467"><ele>114.0</ele><time>2026-05-01T15:40:27.725Z</time></trkpt><trkpt lat="43.6117483" lon="10.9758783"><ele>115.0</ele><time>2026-05-01T15:40:28.729Z</time></trkpt><trkpt lat="43.6119017" lon="10.97603"><ele>116.0</ele><time>2026-05-01T15:40:29.729Z</time></trkpt><trkpt lat="43.6120483" lon="10.9762017"><ele>117.0</ele><time>2026-05-01T15:40:30.726Z</time></trkpt><trkpt lat="43.6121983" lon="10.9763967"><ele>117.66666666666666</ele><time>2026-05-01T15:40:31.727Z</time></trkpt><trkpt lat="43.61234" lon="10.9766067"><ele>118.33333333333333</ele><time>2026-05-01T15:40:32.728Z</time></trkpt><trkpt lat="43.612465" lon="10.9768183"><ele>119.0</ele><time>2026-05-01T15:40:33.728Z</time></trkpt><trkpt lat="43.6125783" lon="10.977045"><ele>119.66666666666666</ele><time>2026-05-01T15:40:34.727Z</time></trkpt><trkpt lat="43.61268" lon="10.977275"><ele>120.33333333333334</ele><time>2026-05-01T15:40:35.726Z</time></trkpt><trkpt lat="43.6127633" lon="10.97749"><ele>121.0</ele><time>2026-05-01T15:40:36.728Z</time></trkpt><trkpt lat="43.6128417" lon="10.977685"><ele>121.25</ele><time>2026-05-01T15:40:37.728Z</time></trkpt><trkpt lat="43.6129117" lon="10.9778717"><ele>121.5</ele><time>2026-05-01T15:40:38.728Z</time></trkpt><trkpt lat="43.61298" lon="10.97805"><ele>121.75</ele><time>2026-05-01T15:40:39.727Z</time></trkpt><trkpt lat="43.6130517" lon="10.97823"><ele>122.0</ele><time>2026-05-01T15:40:40.728Z</time></trkpt><trkpt lat="43.6131217" lon="10.9784067"><ele>120.66666666666666</ele><time>2026-05-01T15:40:41.728Z</time></trkpt><trkpt lat="43.6131983" lon="10.9785883"><ele>119.33333333333334</ele><time>2026-05-01T15:40:42.727Z</time></trkpt><trkpt lat="43.6132883" lon="10.9787633"><ele>118.0</ele><time>2026-05-01T15:40:43.728Z</time></trkpt><trkpt lat="43.6134017" lon="10.978935"><ele>118.0</ele><time>2026-05-01T15:40:44.728Z</time></trkpt><trkpt lat="43.6135517" lon="10.97911"><ele>118.0</ele><time>2026-05-01T15:40:45.726Z</time></trkpt><trkpt lat="43.6137183" lon="10.9792933"><ele>118.0</ele><time>2026-05-01T15:40:46.728Z</time></trkpt><trkpt lat="43.61389" lon="10.9794967"><ele>118.5</ele><time>2026-05-01T15:40:47.729Z</time></trkpt><trkpt lat="43.6140633" lon="10.9797033"><ele>119.0</ele><time>2026-05-01T15:40:48.727Z</time></trkpt><trkpt lat="43.6142333" lon="10.9799"><ele>118.33333333333333</ele><time>2026-05-01T15:40:49.728Z</time></trkpt><trkpt lat="43.6144017" lon="10.980095"><ele>117.66666666666666</ele><time>2026-05-01T15:40:50.728Z</time></trkpt><trkpt lat="43.614565" lon="10.98029"><ele>117.0</ele><time>2026-05-01T15:40:51.727Z</time></trkpt><trkpt lat="43.6147283" lon="10.9804917"><ele>122.0</ele><time>2026-05-01T15:40:52.727Z</time></trkpt><trkpt lat="43.614865" lon="10.9807183"><ele>127.0</ele><time>2026-05-01T15:40:53.728Z</time></trkpt><trkpt lat="43.6147183" lon="10.98125"><ele>130.5</ele><time>2026-05-01T15:40:55.313Z</time></trkpt><trkpt lat="43.61503" lon="10.9814883"><ele>134.0</ele><time>2026-05-01T15:40:56.73Z</time></trkpt><trkpt lat="43.6150917" lon="10.98178"><ele>134.33333333333331</ele><time>2026-05-01T15:40:57.729Z</time></trkpt><trkpt lat="43.6151383" lon="10.982065"><ele>134.66666666666666</ele><time>2026-05-01T15:40:58.73Z</time></trkpt><trkpt lat="43.6151867" lon="10.98237"><ele>135.0</ele><time>2026-05-01T15:40:59.73Z</time></trkpt><trkpt lat="43.61524" lon="10.9826483"><ele>135.0</ele><time>2026-05-01T15:41:00.729Z</time></trkpt><trkpt lat="43.61532" lon="10.98291"><ele>135.0</ele><time>2026-05-01T15:41:01.733Z</time></trkpt><trkpt lat="43.6154233" lon="10.98315"><ele>135.0</ele><time>2026-05-01T15:41:02.73Z</time></trkpt><trkpt lat="43.6155567" lon="10.9833617"><ele>134.0</ele><time>2026-05-01T15:41:03.728Z</time></trkpt><trkpt lat="43.6157083" lon="10.98355"><ele>133.0</ele><time>2026-05-01T15:41:04.727Z</time></trkpt><trkpt lat="43.6158783" lon="10.983705"><ele>132.0</ele><time>2026-05-01T15:41:05.728Z</time></trkpt><trkpt lat="43.6160667" lon="10.9838583"><ele>133.0</ele><time>2026-05-01T15:41:06.727Z</time></trkpt><trkpt lat="43.616265" lon="10.98401"><ele>134.0</ele><time>2026-05-01T15:41:07.728Z</time></trkpt><trkpt lat="43.616465" lon="10.9841567"><ele>127.5</ele><time>2026-05-01T15:41:08.73Z</time></trkpt><trkpt lat="43.6166683" lon="10.984295"><ele>121.0</ele><time>2026-05-01T15:41:09.727Z</time></trkpt><trkpt lat="43.616875" lon="10.98442"><ele>122.0</ele><time>2026-05-01T15:41:10.728Z</time></trkpt><trkpt lat="43.6170883" lon="10.984525"><ele>123.0</ele><time>2026-05-01T15:41:11.728Z</time></trkpt><trkpt lat="43.6172983" lon="10.9846067"><ele>124.0</ele><time>2026-05-01T15:41:12.728Z</time></trkpt><trkpt lat="43.6175033" lon="10.9846767"><ele>124.0</ele><time>2026-05-01T15:41:13.731Z</time></trkpt><trkpt lat="43.6177017" lon="10.984745"><ele>124.0</ele><time>2026-05-01T15:41:14.729Z</time></trkpt><trkpt lat="43.6179033" lon="10.9848167"><ele>124.0</ele><time>2026-05-01T15:41:15.729Z</time></trkpt><trkpt lat="43.6181033" lon="10.9849033"><ele>122.0</ele><time>2026-05-01T15:41:16.729Z</time></trkpt><trkpt lat="43.6182967" lon="10.9850167"><ele>120.0</ele><time>2026-05-01T15:41:17.731Z</time></trkpt><trkpt lat="43.618485" lon="10.985145"><ele>118.0</ele><time>2026-05-01T15:41:18.731Z</time></trkpt><trkpt lat="43.618655" lon="10.9852767"><ele>118.0</ele><time>2026-05-01T15:41:19.729Z</time></trkpt><trkpt lat="43.6188233" lon="10.9854083"><ele>118.0</ele><time>2026-05-01T15:41:20.729Z</time></trkpt><trkpt lat="43.6189967" lon="10.985535"><ele>118.0</ele><time>2026-05-01T15:41:21.729Z</time></trkpt><trkpt lat="43.6191683" lon="10.9856683"><ele>118.0</ele><time>2026-05-01T15:41:22.731Z</time></trkpt><trkpt lat="43.6193333" lon="10.98581"><ele>118.0</ele><time>2026-05-01T15:41:23.73Z</time></trkpt><trkpt lat="43.6194933" lon="10.98597"><ele>118.0</ele><time>2026-05-01T15:41:24.73Z</time></trkpt><trkpt lat="43.619635" lon="10.98615"><ele>118.66666666666667</ele><time>2026-05-01T15:41:25.73Z</time></trkpt><trkpt lat="43.6197733" lon="10.9863417"><ele>119.33333333333334</ele><time>2026-05-01T15:41:26.729Z</time></trkpt><trkpt lat="43.619905" lon="10.9865383"><ele>120.0</ele><time>2026-05-01T15:41:27.729Z</time></trkpt><trkpt lat="43.6200317" lon="10.9867367"><ele>120.66666666666666</ele><time>2026-05-01T15:41:28.729Z</time></trkpt><trkpt lat="43.6201633" lon="10.9869383"><ele>121.33333333333333</ele><time>2026-05-01T15:41:29.731Z</time></trkpt><trkpt lat="43.620295" lon="10.987135"><ele>122.0</ele><time>2026-05-01T15:41:30.729Z</time></trkpt><trkpt lat="43.6204217" lon="10.98733"><ele>123.0</ele><time>2026-05-01T15:41:31.729Z</time></trkpt><trkpt lat="43.6205467" lon="10.987515"><ele>124.0</ele><time>2026-05-01T15:41:32.729Z</time></trkpt><trkpt lat="43.6206717" lon="10.98769"><ele>125.0</ele><time>2026-05-01T15:41:33.729Z</time></trkpt><trkpt lat="43.6208017" lon="10.9878567"><ele>125.0</ele><time>2026-05-01T15:41:34.729Z</time></trkpt><trkpt lat="43.6209467" lon="10.988005"><ele>125.0</ele><time>2026-05-01T15:41:35.728Z</time></trkpt><trkpt lat="43.6211033" lon="10.98813"><ele>125.0</ele><time>2026-05-01T15:41:36.728Z</time></trkpt><trkpt lat="43.6212783" lon="10.9882233"><ele>123.33333333333333</ele><time>2026-05-01T15:41:37.728Z</time></trkpt><trkpt lat="43.621475" lon="10.9882867"><ele>121.66666666666666</ele><time>2026-05-01T15:41:38.73Z</time></trkpt><trkpt lat="43.6217117" lon="10.9883183"><ele>120.0</ele><time>2026-05-01T15:41:39.728Z</time></trkpt><trkpt lat="43.6219717" lon="10.98834"><ele>120.5</ele><time>2026-05-01T15:41:40.729Z</time></trkpt><trkpt lat="43.6222383" lon="10.9883733"><ele>121.0</ele><time>2026-05-01T15:41:41.728Z</time></trkpt><trkpt lat="43.6224933" lon="10.98841"><ele>121.0</ele><time>2026-05-01T15:41:42.73Z</time></trkpt><trkpt lat="43.6227367" lon="10.9884333"><ele>121.0</ele><time>2026-05-01T15:41:43.731Z</time></trkpt><trkpt lat="43.622975" lon="10.988445"><ele>118.66666666666667</ele><time>2026-05-01T15:41:44.73Z</time></trkpt><trkpt lat="43.6232033" lon="10.988465"><ele>116.33333333333334</ele><time>2026-05-01T15:41:45.729Z</time></trkpt><trkpt lat="43.6234183" lon="10.9885083"><ele>114.0</ele><time>2026-05-01T15:41:46.729Z</time></trkpt><trkpt lat="43.6236183" lon="10.9885967"><ele>114.33333333333334</ele><time>2026-05-01T15:41:47.728Z</time></trkpt><trkpt lat="43.623805" lon="10.9887267"><ele>114.66666666666667</ele><time>2026-05-01T15:41:48.73Z</time></trkpt><trkpt lat="43.6239617" lon="10.98892"><ele>115.0</ele><time>2026-05-01T15:41:49.729Z</time></trkpt><trkpt lat="43.6241067" lon="10.98913"><ele>115.0</ele><time>2026-05-01T15:41:50.729Z</time></trkpt><trkpt lat="43.6242583" lon="10.9893283"><ele>115.0</ele><time>2026-05-01T15:41:51.729Z</time></trkpt><trkpt lat="43.6244217" lon="10.9895067"><ele>115.0</ele><time>2026-05-01T15:41:52.731Z</time></trkpt><trkpt lat="43.6245933" lon="10.9896533"><ele>117.33333333333334</ele><time>2026-05-01T15:41:53.73Z</time></trkpt><trkpt lat="43.6247733" lon="10.9897733"><ele>119.66666666666666</ele><time>2026-05-01T15:41:54.729Z</time></trkpt><trkpt lat="43.6249617" lon="10.9898633"><ele>122.0</ele><time>2026-05-01T15:41:55.728Z</time></trkpt><trkpt lat="43.6251533" lon="10.9899117"><ele>122.0</ele><time>2026-05-01T15:41:56.729Z</time></trkpt><trkpt lat="43.625355" lon="10.989935"><ele>122.0</ele><time>2026-05-01T15:41:57.729Z</time></trkpt><trkpt lat="43.6255667" lon="10.9899367"><ele>122.0</ele><time>2026-05-01T15:41:58.729Z</time></trkpt><trkpt lat="43.6257833" lon="10.9899283"><ele>122.0</ele><time>2026-05-01T15:41:59.731Z</time></trkpt><trkpt lat="43.6259983" lon="10.989915"><ele>122.0</ele><time>2026-05-01T15:42:00.728Z</time></trkpt><trkpt lat="43.626205" lon="10.9898967"><ele>122.0</ele><time>2026-05-01T15:42:01.731Z</time></trkpt><trkpt lat="43.6264017" lon="10.98989"><ele>123.0</ele><time>2026-05-01T15:42:02.73Z</time></trkpt><trkpt lat="43.6265883" lon="10.9899117"><ele>124.0</ele><time>2026-05-01T15:42:03.73Z</time></trkpt><trkpt lat="43.6267683" lon="10.9899767"><ele>125.0</ele><time>2026-05-01T15:42:04.729Z</time></trkpt><trkpt lat="43.626945" lon="10.99008"><ele>126.66666666666666</ele><time>2026-05-01T15:42:05.73Z</time></trkpt><trkpt lat="43.6271217" lon="10.99021"><ele>128.33333333333334</ele><time>2026-05-01T15:42:06.729Z</time></trkpt><trkpt lat="43.6272983" lon="10.99035"><ele>130.0</ele><time>2026-05-01T15:42:07.728Z</time></trkpt><trkpt lat="43.627475" lon="10.9904967"><ele>130.0</ele><time>2026-05-01T15:42:08.729Z</time></trkpt><trkpt lat="43.6276417" lon="10.9906433"><ele>130.0</ele><time>2026-05-01T15:42:09.731Z</time></trkpt><trkpt lat="43.6277917" lon="10.9908067"><ele>130.0</ele><time>2026-05-01T15:42:10.73Z</time></trkpt><trkpt lat="43.62791" lon="10.991"><ele>132.0</ele><time>2026-05-01T15:42:11.73Z</time></trkpt><trkpt lat="43.62799" lon="10.991235"><ele>134.0</ele><time>2026-05-01T15:42:12.728Z</time></trkpt><trkpt lat="43.6280483" lon="10.9914933"><ele>136.0</ele><time>2026-05-01T15:42:13.73Z</time></trkpt><trkpt lat="43.6280983" lon="10.9917683"><ele>136.66666666666669</ele><time>2026-05-01T15:42:14.73Z</time></trkpt><trkpt lat="43.6281367" lon="10.992055"><ele>137.33333333333334</ele><time>2026-05-01T15:42:15.73Z</time></trkpt><trkpt lat="43.62818" lon="10.99235"><ele>138.0</ele><time>2026-05-01T15:42:16.728Z</time></trkpt><trkpt lat="43.6282317" lon="10.9926433"><ele>138.66666666666666</ele><time>2026-05-01T15:42:17.729Z</time></trkpt><trkpt lat="43.6282817" lon="10.9929283"><ele>139.33333333333331</ele><time>2026-05-01T15:42:18.73Z</time></trkpt><trkpt lat="43.6283333" lon="10.99319"><ele>140.0</ele><time>2026-05-01T15:42:19.73Z</time></trkpt><trkpt lat="43.6283933" lon="10.99343"><ele>139.0</ele><time>2026-05-01T15:42:20.731Z</time></trkpt><trkpt lat="43.62847" lon="10.99366"><ele>138.0</ele><time>2026-05-01T15:42:21.73Z</time></trkpt><trkpt lat="43.628565" lon="10.9938883"><ele>137.0</ele><time>2026-05-01T15:42:22.729Z</time></trkpt><trkpt lat="43.628675" lon="10.9941233"><ele>139.66666666666666</ele><time>2026-05-01T15:42:23.729Z</time></trkpt><trkpt lat="43.6288" lon="10.9943733"><ele>142.33333333333334</ele><time>2026-05-01T15:42:24.731Z</time></trkpt><trkpt lat="43.628925" lon="10.9946317"><ele>145.0</ele><time>2026-05-01T15:42:25.73Z</time></trkpt><trkpt lat="43.62905" lon="10.9948867"><ele>144.66666666666669</ele><time>2026-05-01T15:42:26.73Z</time></trkpt><trkpt lat="43.6291783" lon="10.99513"><ele>144.33333333333334</ele><time>2026-05-01T15:42:27.73Z</time></trkpt><trkpt lat="43.6293183" lon="10.9953583"><ele>144.0</ele><time>2026-05-01T15:42:28.729Z</time></trkpt><trkpt lat="43.62947" lon="10.995575"><ele>145.0</ele><time>2026-05-01T15:42:29.73Z</time></trkpt><trkpt lat="43.629635" lon="10.9957917"><ele>146.0</ele><time>2026-05-01T15:42:30.729Z</time></trkpt><trkpt lat="43.6298" lon="10.9960117"><ele>143.5</ele><time>2026-05-01T15:42:31.73Z</time></trkpt><trkpt lat="43.629965" lon="10.9962283"><ele>141.0</ele><time>2026-05-01T15:42:32.729Z</time></trkpt><trkpt lat="43.6301317" lon="10.9964433"><ele>141.0</ele><time>2026-05-01T15:42:33.73Z</time></trkpt><trkpt lat="43.6302983" lon="10.99666"><ele>141.0</ele><time>2026-05-01T15:42:34.73Z</time></trkpt><trkpt lat="43.6304733" lon="10.996895"><ele>142.0</ele><time>2026-05-01T15:42:35.729Z</time></trkpt><trkpt lat="43.6306367" lon="10.997125"><ele>143.0</ele><time>2026-05-01T15:42:36.731Z</time></trkpt><trkpt lat="43.6307717" lon="10.9973733"><ele>143.5</ele><time>2026-05-01T15:42:37.729Z</time></trkpt><trkpt lat="43.6308833" lon="10.9976567"><ele>144.0</ele><time>2026-05-01T15:42:38.729Z</time></trkpt><trkpt lat="43.6309783" lon="10.99795"><ele>144.0</ele><time>2026-05-01T15:42:39.73Z</time></trkpt><trkpt lat="43.6310717" lon="10.9982483"><ele>144.0</ele><time>2026-05-01T15:42:40.73Z</time></trkpt><trkpt lat="43.6311683" lon="10.9985367"><ele>146.5</ele><time>2026-05-01T15:42:41.73Z</time></trkpt><trkpt lat="43.6312667" lon="10.9988233"><ele>149.0</ele><time>2026-05-01T15:42:42.729Z</time></trkpt><trkpt lat="43.6313617" lon="10.99911"><ele>148.0</ele><time>2026-05-01T15:42:43.728Z</time></trkpt><trkpt lat="43.63147" lon="10.9993817"><ele>147.0</ele><time>2026-05-01T15:42:44.729Z</time></trkpt><trkpt lat="43.6315933" lon="10.999645"><ele>147.0</ele><time>2026-05-01T15:42:45.728Z</time></trkpt><trkpt lat="43.6317217" lon="10.9998967"><ele>147.0</ele><time>2026-05-01T15:42:46.728Z</time></trkpt><trkpt lat="43.6318533" lon="11.00014"><ele>147.0</ele><time>2026-05-01T15:42:47.728Z</time></trkpt><trkpt lat="43.63199" lon="11.0003783"><ele>148.33333333333334</ele><time>2026-05-01T15:42:48.727Z</time></trkpt><trkpt lat="43.6321233" lon="11.0006117"><ele>149.66666666666669</ele><time>2026-05-01T15:42:49.728Z</time></trkpt><trkpt lat="43.6322483" lon="11.0008283"><ele>151.0</ele><time>2026-05-01T15:42:50.727Z</time></trkpt><trkpt lat="43.6323683" lon="11.0010433"><ele>151.66666666666669</ele><time>2026-05-01T15:42:51.728Z</time></trkpt><trkpt lat="43.632495" lon="11.0012583"><ele>152.33333333333334</ele><time>2026-05-01T15:42:52.729Z</time></trkpt><trkpt lat="43.6326217" lon="11.0014767"><ele>153.0</ele><time>2026-05-01T15:42:53.729Z</time></trkpt><trkpt lat="43.6327483" lon="11.0016883"><ele>157.33333333333334</ele><time>2026-05-01T15:42:54.728Z</time></trkpt><trkpt lat="43.63287" lon="11.001905"><ele>161.66666666666669</ele><time>2026-05-01T15:42:55.728Z</time></trkpt><trkpt lat="43.6329817" lon="11.0021217"><ele>166.0</ele><time>2026-05-01T15:42:56.729Z</time></trkpt><trkpt lat="43.6331" lon="11.0023383"><ele>165.0</ele><time>2026-05-01T15:42:57.728Z</time></trkpt><trkpt lat="43.6332117" lon="11.002545"><ele>164.0</ele><time>2026-05-01T15:42:58.729Z</time></trkpt><trkpt lat="43.633315" lon="11.002755"><ele>163.0</ele><time>2026-05-01T15:42:59.727Z</time></trkpt><trkpt lat="43.6334" lon="11.0029717"><ele>163.0</ele><time>2026-05-01T15:43:00.729Z</time></trkpt><trkpt lat="43.6334633" lon="11.0032033"><ele>163.0</ele><time>2026-05-01T15:43:01.729Z</time></trkpt><trkpt lat="43.6335117" lon="11.0034467"><ele>163.0</ele><time>2026-05-01T15:43:02.729Z</time></trkpt><trkpt lat="43.63353" lon="11.0036833"><ele>163.33333333333334</ele><time>2026-05-01T15:43:03.728Z</time></trkpt><trkpt lat="43.6335217" lon="11.00393"><ele>163.66666666666666</ele><time>2026-05-01T15:43:04.729Z</time></trkpt><trkpt lat="43.6335083" lon="11.0041617"><ele>164.0</ele><time>2026-05-01T15:43:05.727Z</time></trkpt><trkpt lat="43.6334867" lon="11.004375"><ele>163.66666666666666</ele><time>2026-05-01T15:43:06.729Z</time></trkpt><trkpt lat="43.6334983" lon="11.004615"><ele>163.33333333333334</ele><time>2026-05-01T15:43:07.728Z</time></trkpt><trkpt lat="43.6335317" lon="11.0048383"><ele>163.0</ele><time>2026-05-01T15:43:08.73Z</time></trkpt><trkpt lat="43.6335933" lon="11.0050617"><ele>165.33333333333334</ele><time>2026-05-01T15:43:09.728Z</time></trkpt><trkpt lat="43.63369" lon="11.0052733"><ele>167.66666666666666</ele><time>2026-05-01T15:43:10.729Z</time></trkpt><trkpt lat="43.633815" lon="11.0054583"><ele>170.0</ele><time>2026-05-01T15:43:11.728Z</time></trkpt><trkpt lat="43.6339533" lon="11.005615"><ele>170.0</ele><time>2026-05-01T15:43:12.729Z</time></trkpt><trkpt lat="43.6341217" lon="11.0057283"><ele>170.0</ele><time>2026-05-01T15:43:13.728Z</time></trkpt><trkpt lat="43.6342967" lon="11.0058117"><ele>170.0</ele><time>2026-05-01T15:43:14.728Z</time></trkpt><trkpt lat="43.634485" lon="11.0058617"><ele>167.66666666666666</ele><time>2026-05-01T15:43:15.728Z</time></trkpt><trkpt lat="43.6346817" lon="11.0059017"><ele>165.33333333333334</ele><time>2026-05-01T15:43:16.727Z</time></trkpt><trkpt lat="43.6348833" lon="11.00594"><ele>163.0</ele><time>2026-05-01T15:43:17.729Z</time></trkpt><trkpt lat="43.63508" lon="11.0060217"><ele>163.0</ele><time>2026-05-01T15:43:18.729Z</time></trkpt><trkpt lat="43.6352767" lon="11.0061433"><ele>163.0</ele><time>2026-05-01T15:43:19.729Z</time></trkpt><trkpt lat="43.63547" lon="11.0062933"><ele>163.0</ele><time>2026-05-01T15:43:20.729Z</time></trkpt><trkpt lat="43.635645" lon="11.0064733"><ele>158.33333333333334</ele><time>2026-05-01T15:43:21.729Z</time></trkpt><trkpt lat="43.6358017" lon="11.006685"><ele>153.66666666666666</ele><time>2026-05-01T15:43:22.729Z</time></trkpt><trkpt lat="43.63595" lon="11.00692"><ele>149.0</ele><time>2026-05-01T15:43:23.728Z</time></trkpt><trkpt lat="43.6360983" lon="11.0071783"><ele>145.0</ele><time>2026-05-01T15:43:24.729Z</time></trkpt><trkpt lat="43.6362417" lon="11.00743"><ele>141.0</ele><time>2026-05-01T15:43:25.728Z</time></trkpt><trkpt lat="43.63638" lon="11.0076717"><ele>141.0</ele><time>2026-05-01T15:43:26.728Z</time></trkpt><trkpt lat="43.6365333" lon="11.0078967"><ele>141.0</ele><time>2026-05-01T15:43:27.728Z</time></trkpt><trkpt lat="43.6366917" lon="11.0081067"><ele>141.0</ele><time>2026-05-01T15:43:28.727Z</time></trkpt><trkpt lat="43.6368567" lon="11.008305"><ele>140.5</ele><time>2026-05-01T15:43:29.727Z</time></trkpt><trkpt lat="43.6370383" lon="11.0085"><ele>140.0</ele><time>2026-05-01T15:43:30.727Z</time></trkpt><trkpt lat="43.637215" lon="11.0086967"><ele>140.0</ele><time>2026-05-01T15:43:31.728Z</time></trkpt><trkpt lat="43.6373883" lon="11.0088867"><ele>140.0</ele><time>2026-05-01T15:43:32.728Z</time></trkpt><trkpt lat="43.637565" lon="11.0090783"><ele>140.0</ele><time>2026-05-01T15:43:33.729Z</time></trkpt><trkpt lat="43.6377383" lon="11.00927"><ele>145.0</ele><time>2026-05-01T15:43:34.727Z</time></trkpt><trkpt lat="43.6379083" lon="11.0094533"><ele>150.0</ele><time>2026-05-01T15:43:35.728Z</time></trkpt><trkpt lat="43.63808" lon="11.0096367"><ele>155.0</ele><time>2026-05-01T15:43:36.728Z</time></trkpt><trkpt lat="43.6382467" lon="11.0098183"><ele>154.33333333333331</ele><time>2026-05-01T15:43:37.728Z</time></trkpt><trkpt lat="43.6384" lon="11.01002"><ele>153.66666666666666</ele><time>2026-05-01T15:43:38.729Z</time></trkpt><trkpt lat="43.63853" lon="11.0102467"><ele>153.0</ele><time>2026-05-01T15:43:39.729Z</time></trkpt><trkpt lat="43.638635" lon="11.0104983"><ele>157.33333333333334</ele><time>2026-05-01T15:43:40.729Z</time></trkpt><trkpt lat="43.6387083" lon="11.0107733"><ele>161.66666666666669</ele><time>2026-05-01T15:43:41.727Z</time></trkpt><trkpt lat="43.6387483" lon="11.011065"><ele>166.0</ele><time>2026-05-01T15:43:42.728Z</time></trkpt><trkpt lat="43.6387683" lon="11.01137"><ele>166.33333333333334</ele><time>2026-05-01T15:43:43.729Z</time></trkpt><trkpt lat="43.6387817" lon="11.01168"><ele>166.66666666666666</ele><time>2026-05-01T15:43:44.729Z</time></trkpt><trkpt lat="43.6387933" lon="11.01199"><ele>167.0</ele><time>2026-05-01T15:43:45.728Z</time></trkpt><trkpt lat="43.6388017" lon="11.0122967"><ele>167.33333333333331</ele><time>2026-05-01T15:43:46.726Z</time></trkpt><trkpt lat="43.63881" lon="11.01259"><ele>167.66666666666666</ele><time>2026-05-01T15:43:47.729Z</time></trkpt><trkpt lat="43.6388083" lon="11.0128667"><ele>168.0</ele><time>2026-05-01T15:43:48.727Z</time></trkpt><trkpt lat="43.6387883" lon="11.0131267"><ele>169.33333333333334</ele><time>2026-05-01T15:43:49.727Z</time></trkpt><trkpt lat="43.6387367" lon="11.013375"><ele>170.66666666666669</ele><time>2026-05-01T15:43:50.728Z</time></trkpt><trkpt lat="43.6386467" lon="11.0136017"><ele>172.0</ele><time>2026-05-01T15:43:51.727Z</time></trkpt><trkpt lat="43.6385233" lon="11.013815"><ele>165.66666666666669</ele><time>2026-05-01T15:43:52.728Z</time></trkpt><trkpt lat="43.6383733" lon="11.013995"><ele>159.33333333333334</ele><time>2026-05-01T15:43:53.729Z</time></trkpt><trkpt lat="43.638195" lon="11.0141333"><ele>153.0</ele><time>2026-05-01T15:43:54.728Z</time></trkpt><trkpt lat="43.6379983" lon="11.01423"><ele>151.33333333333334</ele><time>2026-05-01T15:43:55.728Z</time></trkpt><trkpt lat="43.637785" lon="11.0142983"><ele>149.66666666666669</ele><time>2026-05-01T15:43:56.728Z</time></trkpt><trkpt lat="43.6375633" lon="11.014365"><ele>148.0</ele><time>2026-05-01T15:43:57.728Z</time></trkpt><trkpt lat="43.6373483" lon="11.0144283"><ele>148.0</ele><time>2026-05-01T15:43:58.728Z</time></trkpt><trkpt lat="43.637145" lon="11.014505"><ele>148.0</ele><time>2026-05-01T15:43:59.727Z</time></trkpt><trkpt lat="43.6369533" lon="11.01462"><ele>148.0</ele><time>2026-05-01T15:44:00.728Z</time></trkpt><trkpt lat="43.6367867" lon="11.014775"><ele>148.33333333333334</ele><time>2026-05-01T15:44:01.729Z</time></trkpt><trkpt lat="43.6366517" lon="11.0149683"><ele>148.66666666666666</ele><time>2026-05-01T15:44:02.727Z</time></trkpt><trkpt lat="43.6365483" lon="11.01518"><ele>149.0</ele><time>2026-05-01T15:44:03.728Z</time></trkpt><trkpt lat="43.636475" lon="11.0154"><ele>150.25</ele><time>2026-05-01T15:44:04.727Z</time></trkpt><trkpt lat="43.6364083" lon="11.0155883"><ele>151.5</ele><time>2026-05-01T15:44:05.73Z</time></trkpt><trkpt lat="43.6363317" lon="11.0157583"><ele>152.75</ele><time>2026-05-01T15:44:06.728Z</time></trkpt><trkpt lat="43.636235" lon="11.015905"><ele>154.0</ele><time>2026-05-01T15:44:07.728Z</time></trkpt><trkpt lat="43.6361283" lon="11.0160267"><ele>156.25</ele><time>2026-05-01T15:44:08.729Z</time></trkpt><trkpt lat="43.6360067" lon="11.0161217"><ele>158.5</ele><time>2026-05-01T15:44:09.727Z</time></trkpt><trkpt lat="43.6358867" lon="11.016215"><ele>160.75</ele><time>2026-05-01T15:44:10.729Z</time></trkpt><trkpt lat="43.6357633" lon="11.0163117"><ele>163.0</ele><time>2026-05-01T15:44:11.726Z</time></trkpt><trkpt lat="43.6356533" lon="11.0164167"><ele>163.0</ele><time>2026-05-01T15:44:12.73Z</time></trkpt><trkpt lat="43.6355433" lon="11.0165467"><ele>163.0</ele><time>2026-05-01T15:44:13.729Z</time></trkpt><trkpt lat="43.6354433" lon="11.01669"><ele>163.0</ele><time>2026-05-01T15:44:14.728Z</time></trkpt><trkpt lat="43.63535" lon="11.0168317"><ele>163.0</ele><time>2026-05-01T15:44:15.729Z</time></trkpt><trkpt lat="43.6352667" lon="11.0169767"><ele>162.4</ele><time>2026-05-01T15:44:16.728Z</time></trkpt><trkpt lat="43.6352067" lon="11.0171217"><ele>161.8</ele><time>2026-05-01T15:44:17.729Z</time></trkpt><trkpt lat="43.6351717" lon="11.0172733"><ele>161.2</ele><time>2026-05-01T15:44:18.728Z</time></trkpt><trkpt lat="43.635155" lon="11.017405"><ele>160.6</ele><time>2026-05-01T15:44:19.729Z</time></trkpt><trkpt lat="43.6351533" lon="11.0175267"><ele>160.0</ele><time>2026-05-01T15:44:20.728Z</time></trkpt><trkpt lat="43.6351433" lon="11.0176483"><ele>160.0</ele><time>2026-05-01T15:44:21.727Z</time></trkpt><trkpt lat="43.6351383" lon="11.0177717"><ele>160.0</ele><time>2026-05-01T15:44:22.728Z</time></trkpt><trkpt lat="43.6351417" lon="11.0179083"><ele>160.0</ele><time>2026-05-01T15:44:23.729Z</time></trkpt><trkpt lat="43.6351433" lon="11.0180717"><ele>160.0</ele><time>2026-05-01T15:44:24.729Z</time></trkpt><trkpt lat="43.635135" lon="11.018245"><ele>160.0</ele><time>2026-05-01T15:44:25.728Z</time></trkpt><trkpt lat="43.6351183" lon="11.018415"><ele>160.5</ele><time>2026-05-01T15:44:26.727Z</time></trkpt><trkpt lat="43.635105" lon="11.0185867"><ele>161.0</ele><time>2026-05-01T15:44:27.727Z</time></trkpt><trkpt lat="43.635085" lon="11.01875"><ele>161.5</ele><time>2026-05-01T15:44:28.727Z</time></trkpt><trkpt lat="43.635065" lon="11.0189183"><ele>162.0</ele><time>2026-05-01T15:44:29.727Z</time></trkpt><trkpt lat="43.6350517" lon="11.0190883"><ele>162.25</ele><time>2026-05-01T15:44:30.727Z</time></trkpt><trkpt lat="43.6350533" lon="11.0192717"><ele>162.5</ele><time>2026-05-01T15:44:31.727Z</time></trkpt><trkpt lat="43.6350683" lon="11.0194633"><ele>162.75</ele><time>2026-05-01T15:44:32.728Z</time></trkpt><trkpt lat="43.635075" lon="11.01965"><ele>163.0</ele><time>2026-05-01T15:44:33.727Z</time></trkpt><trkpt lat="43.635085" lon="11.0198467"><ele>162.33333333333334</ele><time>2026-05-01T15:44:34.727Z</time></trkpt><trkpt lat="43.63509" lon="11.02005"><ele>161.66666666666666</ele><time>2026-05-01T15:44:35.728Z</time></trkpt><trkpt lat="43.635095" lon="11.02026"><ele>161.0</ele><time>2026-05-01T15:44:36.727Z</time></trkpt><trkpt lat="43.6350983" lon="11.0204717"><ele>161.0</ele><time>2026-05-01T15:44:37.727Z</time></trkpt><trkpt lat="43.6351" lon="11.02069"><ele>161.0</ele><time>2026-05-01T15:44:38.727Z</time></trkpt><trkpt lat="43.6351067" lon="11.0209117"><ele>161.0</ele><time>2026-05-01T15:44:39.726Z</time></trkpt><trkpt lat="43.6351133" lon="11.0211317"><ele>159.33333333333331</ele><time>2026-05-01T15:44:40.727Z</time></trkpt><trkpt lat="43.6351183" lon="11.0213517"><ele>157.66666666666666</ele><time>2026-05-01T15:44:41.728Z</time></trkpt><trkpt lat="43.63513" lon="11.0215717"><ele>156.0</ele><time>2026-05-01T15:44:42.727Z</time></trkpt><trkpt lat="43.6351533" lon="11.0217933"><ele>154.0</ele><time>2026-05-01T15:44:43.727Z</time></trkpt><trkpt lat="43.63519" lon="11.02201"><ele>152.0</ele><time>2026-05-01T15:44:44.728Z</time></trkpt><trkpt lat="43.6352383" lon="11.0222133"><ele>150.0</ele><time>2026-05-01T15:44:45.727Z</time></trkpt><trkpt lat="43.6353167" lon="11.02241"><ele>148.0</ele><time>2026-05-01T15:44:46.727Z</time></trkpt><trkpt lat="43.6354117" lon="11.0225983"><ele>146.0</ele><time>2026-05-01T15:44:47.727Z</time></trkpt><trkpt lat="43.6355083" lon="11.0227833"><ele>144.0</ele><time>2026-05-01T15:44:48.728Z</time></trkpt><trkpt lat="43.6356083" lon="11.0229617"><ele>144.0</ele><time>2026-05-01T15:44:49.728Z</time></trkpt><trkpt lat="43.6357117" lon="11.0231383"><ele>144.0</ele><time>2026-05-01T15:44:50.729Z</time></trkpt><trkpt lat="43.6358217" lon="11.0233017"><ele>144.0</ele><time>2026-05-01T15:44:51.728Z</time></trkpt><trkpt lat="43.63594" lon="11.0234567"><ele>144.0</ele><time>2026-05-01T15:44:52.728Z</time></trkpt><trkpt lat="43.63606" lon="11.023605"><ele>144.0</ele><time>2026-05-01T15:44:53.727Z</time></trkpt><trkpt lat="43.6361783" lon="11.02375"><ele>144.0</ele><time>2026-05-01T15:44:54.728Z</time></trkpt><trkpt lat="43.6362983" lon="11.0238883"><ele>144.0</ele><time>2026-05-01T15:44:55.729Z</time></trkpt><trkpt lat="43.63643" lon="11.0240117"><ele>144.0</ele><time>2026-05-01T15:44:56.727Z</time></trkpt><trkpt lat="43.636565" lon="11.0241067"><ele>144.0</ele><time>2026-05-01T15:44:57.728Z</time></trkpt><trkpt lat="43.6366917" lon="11.0241833"><ele>144.0</ele><time>2026-05-01T15:44:58.727Z</time></trkpt><trkpt lat="43.6368217" lon="11.0242567"><ele>144.5</ele><time>2026-05-01T15:44:59.727Z</time></trkpt><trkpt lat="43.6369483" lon="11.0243317"><ele>145.0</ele><time>2026-05-01T15:45:00.727Z</time></trkpt><trkpt lat="43.63708" lon="11.02441"><ele>145.5</ele><time>2026-05-01T15:45:01.728Z</time></trkpt><trkpt lat="43.63721" lon="11.02451"><ele>146.0</ele><time>2026-05-01T15:45:02.728Z</time></trkpt><trkpt lat="43.637325" lon="11.0246367"><ele>146.0</ele><time>2026-05-01T15:45:03.727Z</time></trkpt><trkpt lat="43.6374283" lon="11.0247933"><ele>146.0</ele><time>2026-05-01T15:45:04.728Z</time></trkpt><trkpt lat="43.6375283" lon="11.0249633"><ele>146.0</ele><time>2026-05-01T15:45:05.729Z</time></trkpt><trkpt lat="43.6376233" lon="11.025145"><ele>145.66666666666666</ele><time>2026-05-01T15:45:06.729Z</time></trkpt><trkpt lat="43.6377183" lon="11.0253283"><ele>145.33333333333334</ele><time>2026-05-01T15:45:07.728Z</time></trkpt><trkpt lat="43.6378133" lon="11.0255167"><ele>145.0</ele><time>2026-05-01T15:45:08.728Z</time></trkpt><trkpt lat="43.6379083" lon="11.0257083"><ele>144.0</ele><time>2026-05-01T15:45:09.729Z</time></trkpt><trkpt lat="43.6380033" lon="11.025895"><ele>143.0</ele><time>2026-05-01T15:45:10.728Z</time></trkpt><trkpt lat="43.6381017" lon="11.02609"><ele>142.0</ele><time>2026-05-01T15:45:11.728Z</time></trkpt><trkpt lat="43.6382017" lon="11.02628"><ele>142.0</ele><time>2026-05-01T15:45:12.727Z</time></trkpt><trkpt lat="43.6382967" lon="11.0264683"><ele>142.0</ele><time>2026-05-01T15:45:13.728Z</time></trkpt><trkpt lat="43.6383883" lon="11.02665"><ele>142.0</ele><time>2026-05-01T15:45:14.729Z</time></trkpt><trkpt lat="43.638475" lon="11.026825"><ele>141.5</ele><time>2026-05-01T15:45:15.728Z</time></trkpt><trkpt lat="43.6385583" lon="11.0269967"><ele>141.0</ele><time>2026-05-01T15:45:16.729Z</time></trkpt><trkpt lat="43.638635" lon="11.027155"><ele>140.5</ele><time>2026-05-01T15:45:17.729Z</time></trkpt><trkpt lat="43.6387033" lon="11.0272967"><ele>140.0</ele><time>2026-05-01T15:45:18.729Z</time></trkpt><trkpt lat="43.6387667" lon="11.0274167"><ele>141.8</ele><time>2026-05-01T15:45:19.729Z</time></trkpt><trkpt lat="43.638835" lon="11.0275283"><ele>143.6</ele><time>2026-05-01T15:45:20.729Z</time></trkpt><trkpt lat="43.6388983" lon="11.0276417"><ele>145.4</ele><time>2026-05-01T15:45:21.729Z</time></trkpt><trkpt lat="43.6389583" lon="11.0277667"><ele>147.2</ele><time>2026-05-01T15:45:22.729Z</time></trkpt><trkpt lat="43.6390117" lon="11.0279117"><ele>149.0</ele><time>2026-05-01T15:45:23.728Z</time></trkpt><trkpt lat="43.639065" lon="11.0280717"><ele>149.0</ele><time>2026-05-01T15:45:24.728Z</time></trkpt><trkpt lat="43.639125" lon="11.0282433"><ele>149.0</ele><time>2026-05-01T15:45:25.729Z</time></trkpt><trkpt lat="43.6391917" lon="11.0284233"><ele>149.0</ele><time>2026-05-01T15:45:26.729Z</time></trkpt><trkpt lat="43.6392617" lon="11.0286033"><ele>149.0</ele><time>2026-05-01T15:45:27.728Z</time></trkpt><trkpt lat="43.6393333" lon="11.028785"><ele>150.33333333333331</ele><time>2026-05-01T15:45:28.728Z</time></trkpt><trkpt lat="43.6394083" lon="11.0289667"><ele>151.66666666666666</ele><time>2026-05-01T15:45:29.729Z</time></trkpt><trkpt lat="43.639485" lon="11.0291517"><ele>153.0</ele><time>2026-05-01T15:45:30.729Z</time></trkpt><trkpt lat="43.6395617" lon="11.0293417"><ele>153.0</ele><time>2026-05-01T15:45:31.729Z</time></trkpt><trkpt lat="43.6396333" lon="11.0295433"><ele>153.0</ele><time>2026-05-01T15:45:32.728Z</time></trkpt><trkpt lat="43.63971" lon="11.0297467"><ele>153.0</ele><time>2026-05-01T15:45:33.729Z</time></trkpt><trkpt lat="43.6397883" lon="11.029945"><ele>154.33333333333334</ele><time>2026-05-01T15:45:34.729Z</time></trkpt><trkpt lat="43.6398683" lon="11.0301617"><ele>155.66666666666669</ele><time>2026-05-01T15:45:35.728Z</time></trkpt><trkpt lat="43.6399483" lon="11.0303683"><ele>157.0</ele><time>2026-05-01T15:45:36.732Z</time></trkpt><trkpt lat="43.6400283" lon="11.0305783"><ele>157.0</ele><time>2026-05-01T15:45:37.729Z</time></trkpt><trkpt lat="43.6401117" lon="11.0307883"><ele>157.0</ele><time>2026-05-01T15:45:38.729Z</time></trkpt><trkpt lat="43.640195" lon="11.0309983"><ele>157.0</ele><time>2026-05-01T15:45:39.73Z</time></trkpt><trkpt lat="43.640275" lon="11.0312083"><ele>161.66666666666669</ele><time>2026-05-01T15:45:40.729Z</time></trkpt><trkpt lat="43.6403533" lon="11.031425"><ele>166.33333333333334</ele><time>2026-05-01T15:45:41.729Z</time></trkpt><trkpt lat="43.640435" lon="11.0316367"><ele>171.0</ele><time>2026-05-01T15:45:42.728Z</time></trkpt><trkpt lat="43.640515" lon="11.03185"><ele>173.0</ele><time>2026-05-01T15:45:43.73Z</time></trkpt><trkpt lat="43.6405983" lon="11.0320667"><ele>175.0</ele><time>2026-05-01T15:45:44.73Z</time></trkpt><trkpt lat="43.6406817" lon="11.0322817"><ele>177.0</ele><time>2026-05-01T15:45:45.728Z</time></trkpt><trkpt lat="43.640765" lon="11.0324967"><ele>178.0</ele><time>2026-05-01T15:45:46.729Z</time></trkpt><trkpt lat="43.64085" lon="11.0327167"><ele>179.0</ele><time>2026-05-01T15:45:47.73Z</time></trkpt><trkpt lat="43.640935" lon="11.0329367"><ele>180.0</ele><time>2026-05-01T15:45:48.729Z</time></trkpt><trkpt lat="43.64102" lon="11.0331533"><ele>181.0</ele><time>2026-05-01T15:45:49.729Z</time></trkpt><trkpt lat="43.641105" lon="11.0333717"><ele>182.0</ele><time>2026-05-01T15:45:50.729Z</time></trkpt><trkpt lat="43.6411883" lon="11.0335867"><ele>183.0</ele><time>2026-05-01T15:45:51.727Z</time></trkpt><trkpt lat="43.6412717" lon="11.0338083"><ele>184.33333333333334</ele><time>2026-05-01T15:45:52.728Z</time></trkpt><trkpt lat="43.64136" lon="11.034035"><ele>185.66666666666669</ele><time>2026-05-01T15:45:53.729Z</time></trkpt><trkpt lat="43.641455" lon="11.0342583"><ele>187.0</ele><time>2026-05-01T15:45:54.728Z</time></trkpt><trkpt lat="43.6415583" lon="11.0344767"><ele>187.0</ele><time>2026-05-01T15:45:55.728Z</time></trkpt><trkpt lat="43.6416667" lon="11.0347017"><ele>187.0</ele><time>2026-05-01T15:45:56.73Z</time></trkpt><trkpt lat="43.6420017" lon="11.0353833"><ele>186.66666666666669</ele><time>2026-05-01T15:45:59.728Z</time></trkpt><trkpt lat="43.6421183" lon="11.03562"><ele>186.33333333333334</ele><time>2026-05-01T15:46:00.728Z</time></trkpt><trkpt lat="43.6422367" lon="11.035855"><ele>186.0</ele><time>2026-05-01T15:46:01.728Z</time></trkpt><trkpt lat="43.6423467" lon="11.036085"><ele>186.0</ele><time>2026-05-01T15:46:02.727Z</time></trkpt><trkpt lat="43.6424583" lon="11.0363133"><ele>186.0</ele><time>2026-05-01T15:46:03.728Z</time></trkpt><trkpt lat="43.6425733" lon="11.0365517"><ele>186.0</ele><time>2026-05-01T15:46:04.729Z</time></trkpt><trkpt lat="43.6426867" lon="11.0367917"><ele>185.0</ele><time>2026-05-01T15:46:05.728Z</time></trkpt><trkpt lat="43.6428" lon="11.0370383"><ele>184.0</ele><time>2026-05-01T15:46:06.727Z</time></trkpt><trkpt lat="43.6429233" lon="11.0372833"><ele>183.0</ele><time>2026-05-01T15:46:07.728Z</time></trkpt><trkpt lat="43.6430383" lon="11.0375317"><ele>183.0</ele><time>2026-05-01T15:46:08.728Z</time></trkpt><trkpt lat="43.6431583" lon="11.03777"><ele>183.0</ele><time>2026-05-01T15:46:09.728Z</time></trkpt><trkpt lat="43.643265" lon="11.03801"><ele>183.0</ele><time>2026-05-01T15:46:10.728Z</time></trkpt><trkpt lat="43.643365" lon="11.03825"><ele>186.0</ele><time>2026-05-01T15:46:11.726Z</time></trkpt><trkpt lat="43.6434467" lon="11.038495"><ele>189.0</ele><time>2026-05-01T15:46:12.728Z</time></trkpt><trkpt lat="43.6435117" lon="11.0387417"><ele>192.0</ele><time>2026-05-01T15:46:13.727Z</time></trkpt><trkpt lat="43.6435667" lon="11.0389817"><ele>192.33333333333331</ele><time>2026-05-01T15:46:14.728Z</time></trkpt><trkpt lat="43.643615" lon="11.03922"><ele>192.66666666666666</ele><time>2026-05-01T15:46:15.728Z</time></trkpt><trkpt lat="43.6436683" lon="11.0394533"><ele>193.0</ele><time>2026-05-01T15:46:16.729Z</time></trkpt><trkpt lat="43.643735" lon="11.0396633"><ele>190.0</ele><time>2026-05-01T15:46:17.728Z</time></trkpt><trkpt lat="43.6438333" lon="11.0398583"><ele>187.0</ele><time>2026-05-01T15:46:18.727Z</time></trkpt><trkpt lat="43.6439667" lon="11.0400417"><ele>184.0</ele><time>2026-05-01T15:46:19.727Z</time></trkpt><trkpt lat="43.6441217" lon="11.0402117"><ele>184.0</ele><time>2026-05-01T15:46:20.729Z</time></trkpt><trkpt lat="43.6442767" lon="11.04037"><ele>184.0</ele><time>2026-05-01T15:46:21.728Z</time></trkpt><trkpt lat="43.6444367" lon="11.0405217"><ele>184.0</ele><time>2026-05-01T15:46:22.728Z</time></trkpt><trkpt lat="43.64459" lon="11.04066"><ele>185.66666666666669</ele><time>2026-05-01T15:46:23.727Z</time></trkpt><trkpt lat="43.64473" lon="11.0407883"><ele>187.33333333333334</ele><time>2026-05-01T15:46:24.728Z</time></trkpt><trkpt lat="43.6448517" lon="11.04092"><ele>189.0</ele><time>2026-05-01T15:46:25.729Z</time></trkpt><trkpt lat="43.644945" lon="11.0410667"><ele>189.0</ele><time>2026-05-01T15:46:26.729Z</time></trkpt><trkpt lat="43.645015" lon="11.0412383"><ele>189.0</ele><time>2026-05-01T15:46:27.728Z</time></trkpt><trkpt lat="43.645045" lon="11.04144"><ele>189.0</ele><time>2026-05-01T15:46:28.728Z</time></trkpt><trkpt lat="43.645035" lon="11.0416583"><ele>190.33333333333331</ele><time>2026-05-01T15:46:29.728Z</time></trkpt><trkpt lat="43.64501" lon="11.0418933"><ele>191.66666666666666</ele><time>2026-05-01T15:46:30.728Z</time></trkpt><trkpt lat="43.6449867" lon="11.042135"><ele>193.0</ele><time>2026-05-01T15:46:31.728Z</time></trkpt><trkpt lat="43.6449667" lon="11.0423767"><ele>193.66666666666666</ele><time>2026-05-01T15:46:32.727Z</time></trkpt><trkpt lat="43.6449533" lon="11.04261"><ele>194.33333333333331</ele><time>2026-05-01T15:46:33.728Z</time></trkpt><trkpt lat="43.6449417" lon="11.042845"><ele>195.0</ele><time>2026-05-01T15:46:34.727Z</time></trkpt><trkpt lat="43.644935" lon="11.0430683"><ele>195.0</ele><time>2026-05-01T15:46:35.729Z</time></trkpt><trkpt lat="43.6449233" lon="11.0432933"><ele>195.0</ele><time>2026-05-01T15:46:36.728Z</time></trkpt><trkpt lat="43.6449067" lon="11.04352"><ele>195.0</ele><time>2026-05-01T15:46:37.727Z</time></trkpt><trkpt lat="43.644885" lon="11.04374"><ele>194.33333333333331</ele><time>2026-05-01T15:46:38.729Z</time></trkpt><trkpt lat="43.6448567" lon="11.0439633"><ele>193.66666666666666</ele><time>2026-05-01T15:46:39.728Z</time></trkpt><trkpt lat="43.64483" lon="11.0441783"><ele>193.0</ele><time>2026-05-01T15:46:40.726Z</time></trkpt><trkpt lat="43.6448" lon="11.0443767"><ele>192.75</ele><time>2026-05-01T15:46:41.729Z</time></trkpt><trkpt lat="43.6447767" lon="11.0445633"><ele>192.5</ele><time>2026-05-01T15:46:42.727Z</time></trkpt><trkpt lat="43.6447533" lon="11.0447417"><ele>192.25</ele><time>2026-05-01T15:46:43.727Z</time></trkpt><trkpt lat="43.644735" lon="11.0449167"><ele>192.0</ele><time>2026-05-01T15:46:44.728Z</time></trkpt><trkpt lat="43.6447033" lon="11.0450783"><ele>191.75</ele><time>2026-05-01T15:46:45.727Z</time></trkpt><trkpt lat="43.644655" lon="11.045235"><ele>191.5</ele><time>2026-05-01T15:46:46.727Z</time></trkpt><trkpt lat="43.6445967" lon="11.0453883"><ele>191.25</ele><time>2026-05-01T15:46:47.727Z</time></trkpt><trkpt lat="43.6445367" lon="11.0455283"><ele>191.0</ele><time>2026-05-01T15:46:48.728Z</time></trkpt><trkpt lat="43.6444867" lon="11.045655"><ele>190.8</ele><time>2026-05-01T15:46:49.728Z</time></trkpt><trkpt lat="43.6444417" lon="11.0457783"><ele>190.60000000000002</ele><time>2026-05-01T15:46:50.729Z</time></trkpt><trkpt lat="43.6444033" lon="11.04591"><ele>190.4</ele><time>2026-05-01T15:46:51.728Z</time></trkpt><trkpt lat="43.64437" lon="11.0460467"><ele>190.2</ele><time>2026-05-01T15:46:52.728Z</time></trkpt><trkpt lat="43.6443433" lon="11.0461867"><ele>190.0</ele><time>2026-05-01T15:46:53.727Z</time></trkpt><trkpt lat="43.6443183" lon="11.0463217"><ele>190.0</ele><time>2026-05-01T15:46:54.728Z</time></trkpt><trkpt lat="43.644295" lon="11.04645"><ele>190.0</ele><time>2026-05-01T15:46:55.728Z</time></trkpt><trkpt lat="43.64427" lon="11.0465917"><ele>190.0</ele><time>2026-05-01T15:46:56.729Z</time></trkpt><trkpt lat="43.644245" lon="11.0467517"><ele>190.0</ele><time>2026-05-01T15:46:57.728Z</time></trkpt><trkpt lat="43.6442117" lon="11.0469317"><ele>191.75</ele><time>2026-05-01T15:46:58.728Z</time></trkpt><trkpt lat="43.6441767" lon="11.0471267"><ele>193.5</ele><time>2026-05-01T15:46:59.728Z</time></trkpt><trkpt lat="43.64414" lon="11.0473233"><ele>195.25</ele><time>2026-05-01T15:47:00.729Z</time></trkpt><trkpt lat="43.6440933" lon="11.0475133"><ele>197.0</ele><time>2026-05-01T15:47:01.73Z</time></trkpt><trkpt lat="43.6440317" lon="11.0477017"><ele>198.25</ele><time>2026-05-01T15:47:02.728Z</time></trkpt><trkpt lat="43.643965" lon="11.04787"><ele>199.5</ele><time>2026-05-01T15:47:03.728Z</time></trkpt><trkpt lat="43.6439" lon="11.04803"><ele>200.75</ele><time>2026-05-01T15:47:04.73Z</time></trkpt><trkpt lat="43.6438317" lon="11.048195"><ele>202.0</ele><time>2026-05-01T15:47:05.729Z</time></trkpt><trkpt lat="43.6437733" lon="11.0483683"><ele>202.25</ele><time>2026-05-01T15:47:06.728Z</time></trkpt><trkpt lat="43.6437117" lon="11.0485517"><ele>202.5</ele><time>2026-05-01T15:47:07.728Z</time></trkpt><trkpt lat="43.6436533" lon="11.0487433"><ele>202.75</ele><time>2026-05-01T15:47:08.73Z</time></trkpt><trkpt lat="43.6436017" lon="11.0489383"><ele>203.0</ele><time>2026-05-01T15:47:09.729Z</time></trkpt><trkpt lat="43.6435533" lon="11.04913"><ele>203.0</ele><time>2026-05-01T15:47:10.729Z</time></trkpt><trkpt lat="43.6435117" lon="11.0493233"><ele>203.0</ele><time>2026-05-01T15:47:11.728Z</time></trkpt><trkpt lat="43.6434883" lon="11.0495233"><ele>203.0</ele><time>2026-05-01T15:47:12.728Z</time></trkpt><trkpt lat="43.6434767" lon="11.0497267"><ele>203.0</ele><time>2026-05-01T15:47:13.729Z</time></trkpt><trkpt lat="43.6434833" lon="11.0499333"><ele>203.0</ele><time>2026-05-01T15:47:14.729Z</time></trkpt><trkpt lat="43.6434967" lon="11.0501317"><ele>203.0</ele><time>2026-05-01T15:47:15.728Z</time></trkpt><trkpt lat="43.6435167" lon="11.0503133"><ele>203.0</ele><time>2026-05-01T15:47:16.729Z</time></trkpt><trkpt lat="43.643555" lon="11.0504933"><ele>203.0</ele><time>2026-05-01T15:47:17.728Z</time></trkpt><trkpt lat="43.6436033" lon="11.050645"><ele>204.0</ele><time>2026-05-01T15:47:18.73Z</time></trkpt><trkpt lat="43.6436583" lon="11.050775"><ele>205.0</ele><time>2026-05-01T15:47:19.73Z</time></trkpt><trkpt lat="43.6437133" lon="11.05089"><ele>206.0</ele><time>2026-05-01T15:47:20.729Z</time></trkpt><trkpt lat="43.6437667" lon="11.0509933"><ele>207.0</ele><time>2026-05-01T15:47:21.729Z</time></trkpt><trkpt lat="43.6438217" lon="11.051105"><ele>208.0</ele><time>2026-05-01T15:47:22.728Z</time></trkpt><trkpt lat="43.6438767" lon="11.0512217"><ele>208.4</ele><time>2026-05-01T15:47:23.729Z</time></trkpt><trkpt lat="43.6439267" lon="11.0513517"><ele>208.8</ele><time>2026-05-01T15:47:24.729Z</time></trkpt><trkpt lat="43.6439617" lon="11.0514933"><ele>209.2</ele><time>2026-05-01T15:47:25.729Z</time></trkpt><trkpt lat="43.64399" lon="11.0516383"><ele>209.6</ele><time>2026-05-01T15:47:26.73Z</time></trkpt><trkpt lat="43.6440083" lon="11.0517817"><ele>210.0</ele><time>2026-05-01T15:47:27.728Z</time></trkpt><trkpt lat="43.6440233" lon="11.0519183"><ele>210.0</ele><time>2026-05-01T15:47:28.728Z</time></trkpt><trkpt lat="43.6440333" lon="11.0520533"><ele>210.0</ele><time>2026-05-01T15:47:29.73Z</time></trkpt><trkpt lat="43.644045" lon="11.0521833"><ele>210.0</ele><time>2026-05-01T15:47:30.729Z</time></trkpt><trkpt lat="43.6440633" lon="11.0523233"><ele>210.0</ele><time>2026-05-01T15:47:31.73Z</time></trkpt><trkpt lat="43.644085" lon="11.0524683"><ele>210.0</ele><time>2026-05-01T15:47:32.73Z</time></trkpt><trkpt lat="43.6441067" lon="11.0526133"><ele>209.5</ele><time>2026-05-01T15:47:33.73Z</time></trkpt><trkpt lat="43.6441317" lon="11.052765"><ele>209.0</ele><time>2026-05-01T15:47:34.729Z</time></trkpt><trkpt lat="43.64416" lon="11.0529217"><ele>208.5</ele><time>2026-05-01T15:47:35.729Z</time></trkpt><trkpt lat="43.6441867" lon="11.0530767"><ele>208.0</ele><time>2026-05-01T15:47:36.729Z</time></trkpt><trkpt lat="43.6442133" lon="11.0532317"><ele>206.25</ele><time>2026-05-01T15:47:37.73Z</time></trkpt><trkpt lat="43.6442367" lon="11.053385"><ele>204.5</ele><time>2026-05-01T15:47:38.727Z</time></trkpt><trkpt lat="43.6442517" lon="11.0535383"><ele>202.75</ele><time>2026-05-01T15:47:39.727Z</time></trkpt><trkpt lat="43.6442567" lon="11.0536967"><ele>201.0</ele><time>2026-05-01T15:47:40.727Z</time></trkpt><trkpt lat="43.6442483" lon="11.0538617"><ele>201.0</ele><time>2026-05-01T15:47:41.728Z</time></trkpt><trkpt lat="43.6442383" lon="11.0540267"><ele>201.0</ele><time>2026-05-01T15:47:42.727Z</time></trkpt><trkpt lat="43.6442083" lon="11.05418"><ele>201.0</ele><time>2026-05-01T15:47:43.728Z</time></trkpt><trkpt lat="43.6441783" lon="11.05433"><ele>201.0</ele><time>2026-05-01T15:47:44.726Z</time></trkpt><trkpt lat="43.644145" lon="11.0544867"><ele>200.5</ele><time>2026-05-01T15:47:45.727Z</time></trkpt><trkpt lat="43.6441117" lon="11.0546533"><ele>200.0</ele><time>2026-05-01T15:47:46.727Z</time></trkpt><trkpt lat="43.64408" lon="11.0548383"><ele>199.5</ele><time>2026-05-01T15:47:47.727Z</time></trkpt><trkpt lat="43.6440583" lon="11.0550383"><ele>199.0</ele><time>2026-05-01T15:47:48.727Z</time></trkpt><trkpt lat="43.6440467" lon="11.05524"><ele>200.33333333333331</ele><time>2026-05-01T15:47:49.727Z</time></trkpt><trkpt lat="43.64405" lon="11.0554533"><ele>201.66666666666669</ele><time>2026-05-01T15:47:50.729Z</time></trkpt><trkpt lat="43.6440733" lon="11.05567"><ele>203.0</ele><time>2026-05-01T15:47:51.73Z</time></trkpt><trkpt lat="43.6441233" lon="11.0559083"><ele>204.66666666666669</ele><time>2026-05-01T15:47:52.728Z</time></trkpt><trkpt lat="43.6441867" lon="11.0561767"><ele>206.33333333333331</ele><time>2026-05-01T15:47:53.73Z</time></trkpt><trkpt lat="43.64426" lon="11.0564733"><ele>208.0</ele><time>2026-05-01T15:47:54.73Z</time></trkpt><trkpt lat="43.6443333" lon="11.0567817"><ele>208.33333333333331</ele><time>2026-05-01T15:47:55.729Z</time></trkpt><trkpt lat="43.644405" lon="11.057085"><ele>208.66666666666669</ele><time>2026-05-01T15:47:56.729Z</time></trkpt><trkpt lat="43.644475" lon="11.0573683"><ele>209.0</ele><time>2026-05-01T15:47:57.73Z</time></trkpt><trkpt lat="43.64453" lon="11.0576267"><ele>209.0</ele><time>2026-05-01T15:47:58.729Z</time></trkpt><trkpt lat="43.644585" lon="11.0578667"><ele>209.0</ele><time>2026-05-01T15:47:59.729Z</time></trkpt><trkpt lat="43.644645" lon="11.0580917"><ele>209.0</ele><time>2026-05-01T15:48:00.728Z</time></trkpt><trkpt lat="43.6447083" lon="11.0583033"><ele>211.33333333333334</ele><time>2026-05-01T15:48:01.728Z</time></trkpt><trkpt lat="43.6447783" lon="11.0585167"><ele>213.66666666666669</ele><time>2026-05-01T15:48:02.73Z</time></trkpt><trkpt lat="43.6448517" lon="11.0587233"><ele>216.0</ele><time>2026-05-01T15:48:03.73Z</time></trkpt><trkpt lat="43.6449217" lon="11.0589233"><ele>216.0</ele><time>2026-05-01T15:48:04.729Z</time></trkpt><trkpt lat="43.6449933" lon="11.0591167"><ele>216.0</ele><time>2026-05-01T15:48:05.729Z</time></trkpt><trkpt lat="43.64507" lon="11.059305"><ele>216.0</ele><time>2026-05-01T15:48:06.729Z</time></trkpt><trkpt lat="43.6451617" lon="11.0594883"><ele>215.0</ele><time>2026-05-01T15:48:07.728Z</time></trkpt><trkpt lat="43.6452433" lon="11.0596733"><ele>214.0</ele><time>2026-05-01T15:48:08.729Z</time></trkpt><trkpt lat="43.64532" lon="11.059855"><ele>213.0</ele><time>2026-05-01T15:48:09.73Z</time></trkpt><trkpt lat="43.6453883" lon="11.06003"><ele>216.0</ele><time>2026-05-01T15:48:10.73Z</time></trkpt><trkpt lat="43.6454533" lon="11.0602117"><ele>219.0</ele><time>2026-05-01T15:48:11.729Z</time></trkpt><trkpt lat="43.645515" lon="11.0603933"><ele>222.0</ele><time>2026-05-01T15:48:12.73Z</time></trkpt><trkpt lat="43.645575" lon="11.06058"><ele>225.0</ele><time>2026-05-01T15:48:13.729Z</time></trkpt><trkpt lat="43.64563" lon="11.06076"><ele>225.75</ele><time>2026-05-01T15:48:14.73Z</time></trkpt><trkpt lat="43.6456767" lon="11.0609217"><ele>226.5</ele><time>2026-05-01T15:48:15.729Z</time></trkpt><trkpt lat="43.6457167" lon="11.0610783"><ele>227.25</ele><time>2026-05-01T15:48:16.728Z</time></trkpt><trkpt lat="43.6457667" lon="11.06122"><ele>228.0</ele><time>2026-05-01T15:48:17.728Z</time></trkpt><trkpt lat="43.645815" lon="11.0613633"><ele>228.0</ele><time>2026-05-01T15:48:18.729Z</time></trkpt><trkpt lat="43.6458633" lon="11.06153"><ele>228.0</ele><time>2026-05-01T15:48:19.728Z</time></trkpt><trkpt lat="43.6459117" lon="11.061705"><ele>228.0</ele><time>2026-05-01T15:48:20.73Z</time></trkpt><trkpt lat="43.6459633" lon="11.06188"><ele>228.0</ele><time>2026-05-01T15:48:21.728Z</time></trkpt><trkpt lat="43.6460217" lon="11.062055"><ele>227.75</ele><time>2026-05-01T15:48:22.73Z</time></trkpt><trkpt lat="43.64606" lon="11.0622333"><ele>227.5</ele><time>2026-05-01T15:48:23.729Z</time></trkpt><trkpt lat="43.6460867" lon="11.0624233"><ele>227.25</ele><time>2026-05-01T15:48:24.73Z</time></trkpt><trkpt lat="43.6460983" lon="11.0626167"><ele>227.0</ele><time>2026-05-01T15:48:25.73Z</time></trkpt><trkpt lat="43.6460833" lon="11.0628133"><ele>227.33333333333334</ele><time>2026-05-01T15:48:26.73Z</time></trkpt><trkpt lat="43.6460583" lon="11.06301"><ele>227.66666666666669</ele><time>2026-05-01T15:48:27.73Z</time></trkpt><trkpt lat="43.6460267" lon="11.0632183"><ele>228.0</ele><time>2026-05-01T15:48:28.728Z</time></trkpt><trkpt lat="43.645995" lon="11.0634317"><ele>228.0</ele><time>2026-05-01T15:48:29.729Z</time></trkpt><trkpt lat="43.645965" lon="11.0636383"><ele>228.0</ele><time>2026-05-01T15:48:30.728Z</time></trkpt><trkpt lat="43.6459467" lon="11.0638367"><ele>228.0</ele><time>2026-05-01T15:48:31.729Z</time></trkpt><trkpt lat="43.6459317" lon="11.0640333"><ele>228.0</ele><time>2026-05-01T15:48:32.73Z</time></trkpt><trkpt lat="43.6459233" lon="11.0642167"><ele>229.0</ele><time>2026-05-01T15:48:33.729Z</time></trkpt><trkpt lat="43.6459217" lon="11.0643833"><ele>230.0</ele><time>2026-05-01T15:48:34.73Z</time></trkpt><trkpt lat="43.6459233" lon="11.0645433"><ele>231.0</ele><time>2026-05-01T15:48:35.728Z</time></trkpt><trkpt lat="43.64592" lon="11.0647033"><ele>232.0</ele><time>2026-05-01T15:48:36.729Z</time></trkpt><trkpt lat="43.64592" lon="11.0648717"><ele>232.25</ele><time>2026-05-01T15:48:37.728Z</time></trkpt><trkpt lat="43.6459183" lon="11.0650483"><ele>232.5</ele><time>2026-05-01T15:48:38.728Z</time></trkpt><trkpt lat="43.6459167" lon="11.0652367"><ele>232.75</ele><time>2026-05-01T15:48:39.728Z</time></trkpt><trkpt lat="43.6459167" lon="11.065425"><ele>233.0</ele><time>2026-05-01T15:48:40.727Z</time></trkpt><trkpt lat="43.645915" lon="11.06561"><ele>233.25</ele><time>2026-05-01T15:48:41.728Z</time></trkpt><trkpt lat="43.6459183" lon="11.0657883"><ele>233.5</ele><time>2026-05-01T15:48:42.728Z</time></trkpt><trkpt lat="43.6459133" lon="11.0659583"><ele>233.75</ele><time>2026-05-01T15:48:43.728Z</time></trkpt><trkpt lat="43.6459" lon="11.066125"><ele>234.0</ele><time>2026-05-01T15:48:44.728Z</time></trkpt><trkpt lat="43.64588" lon="11.0662883"><ele>234.0</ele><time>2026-05-01T15:48:45.729Z</time></trkpt><trkpt lat="43.645855" lon="11.0664433"><ele>234.0</ele><time>2026-05-01T15:48:46.728Z</time></trkpt><trkpt lat="43.645815" lon="11.0666017"><ele>234.0</ele><time>2026-05-01T15:48:47.728Z</time></trkpt><trkpt lat="43.64576" lon="11.0667633"><ele>234.0</ele><time>2026-05-01T15:48:48.728Z</time></trkpt><trkpt lat="43.6456967" lon="11.0669167"><ele>234.0</ele><time>2026-05-01T15:48:49.728Z</time></trkpt><trkpt lat="43.6456217" lon="11.0670683"><ele>234.0</ele><time>2026-05-01T15:48:50.728Z</time></trkpt><trkpt lat="43.6455417" lon="11.0672217"><ele>234.0</ele><time>2026-05-01T15:48:51.728Z</time></trkpt><trkpt lat="43.6454567" lon="11.0673783"><ele>234.0</ele><time>2026-05-01T15:48:52.726Z</time></trkpt><trkpt lat="43.6453717" lon="11.067545"><ele>232.0</ele><time>2026-05-01T15:48:53.726Z</time></trkpt><trkpt lat="43.64529" lon="11.067705"><ele>230.0</ele><time>2026-05-01T15:48:54.726Z</time></trkpt><trkpt lat="43.64521" lon="11.0678633"><ele>228.0</ele><time>2026-05-01T15:48:55.726Z</time></trkpt><trkpt lat="43.6451283" lon="11.068025"><ele>226.0</ele><time>2026-05-01T15:48:56.726Z</time></trkpt><trkpt lat="43.6450467" lon="11.0681883"><ele>226.75</ele><time>2026-05-01T15:48:57.726Z</time></trkpt><trkpt lat="43.6449783" lon="11.0683733"><ele>227.5</ele><time>2026-05-01T15:48:58.727Z</time></trkpt><trkpt lat="43.6449183" lon="11.06856"><ele>228.25</ele><time>2026-05-01T15:48:59.726Z</time></trkpt><trkpt lat="43.6448783" lon="11.068755"><ele>229.0</ele><time>2026-05-01T15:49:00.727Z</time></trkpt><trkpt lat="43.6448367" lon="11.0689533"><ele>228.75</ele><time>2026-05-01T15:49:01.727Z</time></trkpt><trkpt lat="43.6448017" lon="11.0691483"><ele>228.5</ele><time>2026-05-01T15:49:02.728Z</time></trkpt><trkpt lat="43.64477" lon="11.0693383"><ele>228.25</ele><time>2026-05-01T15:49:03.726Z</time></trkpt><trkpt lat="43.6447367" lon="11.0695317"><ele>228.0</ele><time>2026-05-01T15:49:04.728Z</time></trkpt><trkpt lat="43.644705" lon="11.0697183"><ele>228.0</ele><time>2026-05-01T15:49:05.727Z</time></trkpt><trkpt lat="43.6446667" lon="11.069905"><ele>228.0</ele><time>2026-05-01T15:49:06.727Z</time></trkpt><trkpt lat="43.6446133" lon="11.0700867"><ele>228.0</ele><time>2026-05-01T15:49:07.728Z</time></trkpt><trkpt lat="43.6445683" lon="11.0702767"><ele>228.0</ele><time>2026-05-01T15:49:08.726Z</time></trkpt><trkpt lat="43.6445217" lon="11.0704517"><ele>228.4</ele><time>2026-05-01T15:49:09.727Z</time></trkpt><trkpt lat="43.6444767" lon="11.0706117"><ele>228.8</ele><time>2026-05-01T15:49:10.726Z</time></trkpt><trkpt lat="43.6444367" lon="11.0707533"><ele>229.2</ele><time>2026-05-01T15:49:11.727Z</time></trkpt><trkpt lat="43.6443917" lon="11.0708733"><ele>229.6</ele><time>2026-05-01T15:49:12.728Z</time></trkpt><trkpt lat="43.6443633" lon="11.0709817"><ele>230.0</ele><time>2026-05-01T15:49:13.727Z</time></trkpt><trkpt lat="43.6443483" lon="11.0710917"><ele>230.16666666666669</ele><time>2026-05-01T15:49:14.727Z</time></trkpt><trkpt lat="43.6443617" lon="11.07119"><ele>230.33333333333334</ele><time>2026-05-01T15:49:15.727Z</time></trkpt><trkpt lat="43.64441" lon="11.0712533"><ele>230.5</ele><time>2026-05-01T15:49:16.729Z</time></trkpt><trkpt lat="43.64448" lon="11.0713117"><ele>230.66666666666669</ele><time>2026-05-01T15:49:17.728Z</time></trkpt><trkpt lat="43.6445667" lon="11.07138"><ele>230.83333333333334</ele><time>2026-05-01T15:49:18.729Z</time></trkpt><trkpt lat="43.6446517" lon="11.0714633"><ele>231.0</ele><time>2026-05-01T15:49:19.727Z</time></trkpt><trkpt lat="43.6447317" lon="11.071575"><ele>231.25</ele><time>2026-05-01T15:49:20.728Z</time></trkpt><trkpt lat="43.6447967" lon="11.07172"><ele>231.5</ele><time>2026-05-01T15:49:21.728Z</time></trkpt><trkpt lat="43.644855" lon="11.07188"><ele>231.75</ele><time>2026-05-01T15:49:22.727Z</time></trkpt><trkpt lat="43.6449017" lon="11.0720483"><ele>232.0</ele><time>2026-05-01T15:49:23.727Z</time></trkpt><trkpt lat="43.6449367" lon="11.0722083"><ele>232.0</ele><time>2026-05-01T15:49:24.728Z</time></trkpt><trkpt lat="43.6449567" lon="11.072365"><ele>232.0</ele><time>2026-05-01T15:49:25.728Z</time></trkpt><trkpt lat="43.6449817" lon="11.07251"><ele>232.0</ele><time>2026-05-01T15:49:26.728Z</time></trkpt><trkpt lat="43.645" lon="11.07265"><ele>232.0</ele><time>2026-05-01T15:49:27.727Z</time></trkpt><trkpt lat="43.64502" lon="11.07279"><ele>232.0</ele><time>2026-05-01T15:49:28.728Z</time></trkpt><trkpt lat="43.64504" lon="11.0729267"><ele>232.16666666666666</ele><time>2026-05-01T15:49:29.728Z</time></trkpt><trkpt lat="43.6450533" lon="11.0730533"><ele>232.33333333333331</ele><time>2026-05-01T15:49:30.727Z</time></trkpt><trkpt lat="43.6450633" lon="11.07317"><ele>232.5</ele><time>2026-05-01T15:49:31.73Z</time></trkpt><trkpt lat="43.6450617" lon="11.0732867"><ele>232.66666666666669</ele><time>2026-05-01T15:49:32.729Z</time></trkpt><trkpt lat="43.64505" lon="11.0733967"><ele>232.83333333333334</ele><time>2026-05-01T15:49:33.727Z</time></trkpt><trkpt lat="43.64505" lon="11.073505"><ele>233.0</ele><time>2026-05-01T15:49:34.727Z</time></trkpt><trkpt lat="43.64507" lon="11.0736117"><ele>233.33333333333334</ele><time>2026-05-01T15:49:35.729Z</time></trkpt><trkpt lat="43.6451067" lon="11.0737233"><ele>233.66666666666669</ele><time>2026-05-01T15:49:36.73Z</time></trkpt><trkpt lat="43.645135" lon="11.07382"><ele>234.0</ele><time>2026-05-01T15:49:37.728Z</time></trkpt><trkpt lat="43.6451567" lon="11.0739067"><ele>234.33333333333331</ele><time>2026-05-01T15:49:38.728Z</time></trkpt><trkpt lat="43.64518" lon="11.07406"><ele>234.66666666666666</ele><time>2026-05-01T15:49:40.728Z</time></trkpt><trkpt lat="43.6451917" lon="11.0741467"><ele>235.0</ele><time>2026-05-01T15:49:41.728Z</time></trkpt><trkpt lat="43.64521" lon="11.074255"><ele>235.75</ele><time>2026-05-01T15:49:42.729Z</time></trkpt><trkpt lat="43.645225" lon="11.0743867"><ele>236.5</ele><time>2026-05-01T15:49:43.728Z</time></trkpt><trkpt lat="43.6452433" lon="11.0745333"><ele>237.25</ele><time>2026-05-01T15:49:44.728Z</time></trkpt><trkpt lat="43.6452617" lon="11.0747017"><ele>238.0</ele><time>2026-05-01T15:49:45.728Z</time></trkpt><trkpt lat="43.645285" lon="11.0748833"><ele>235.75</ele><time>2026-05-01T15:49:46.729Z</time></trkpt><trkpt lat="43.6453083" lon="11.0750667"><ele>233.5</ele><time>2026-05-01T15:49:47.728Z</time></trkpt><trkpt lat="43.645335" lon="11.0752533"><ele>231.25</ele><time>2026-05-01T15:49:48.729Z</time></trkpt><trkpt lat="43.6453633" lon="11.075445"><ele>229.0</ele><time>2026-05-01T15:49:49.729Z</time></trkpt><trkpt lat="43.6453967" lon="11.0756367"><ele>228.33333333333331</ele><time>2026-05-01T15:49:50.729Z</time></trkpt><trkpt lat="43.645425" lon="11.0758383"><ele>227.66666666666669</ele><time>2026-05-01T15:49:51.728Z</time></trkpt><trkpt lat="43.6454533" lon="11.0760433"><ele>227.0</ele><time>2026-05-01T15:49:52.728Z</time></trkpt><trkpt lat="43.6454917" lon="11.076255"><ele>227.0</ele><time>2026-05-01T15:49:53.729Z</time></trkpt><trkpt lat="43.645525" lon="11.0764717"><ele>227.0</ele><time>2026-05-01T15:49:54.728Z</time></trkpt><trkpt lat="43.6455583" lon="11.0766917"><ele>227.0</ele><time>2026-05-01T15:49:55.728Z</time></trkpt><trkpt lat="43.6456117" lon="11.07691"><ele>227.33333333333334</ele><time>2026-05-01T15:49:56.728Z</time></trkpt><trkpt lat="43.64567" lon="11.0771317"><ele>227.66666666666669</ele><time>2026-05-01T15:49:57.728Z</time></trkpt><trkpt lat="43.6457283" lon="11.0773633"><ele>228.0</ele><time>2026-05-01T15:49:58.728Z</time></trkpt><trkpt lat="43.6457867" lon="11.0776033"><ele>227.33333333333331</ele><time>2026-05-01T15:49:59.729Z</time></trkpt><trkpt lat="43.6458417" lon="11.0778533"><ele>226.66666666666666</ele><time>2026-05-01T15:50:00.728Z</time></trkpt><trkpt lat="43.6458883" lon="11.0781033"><ele>226.0</ele><time>2026-05-01T15:50:01.728Z</time></trkpt><trkpt lat="43.6459317" lon="11.0783483"><ele>226.0</ele><time>2026-05-01T15:50:02.729Z</time></trkpt><trkpt lat="43.6459717" lon="11.07859"><ele>226.0</ele><time>2026-05-01T15:50:03.728Z</time></trkpt><trkpt lat="43.6460067" lon="11.0788317"><ele>226.0</ele><time>2026-05-01T15:50:04.727Z</time></trkpt><trkpt lat="43.6460433" lon="11.07906"><ele>225.75</ele><time>2026-05-01T15:50:05.727Z</time></trkpt><trkpt lat="43.646085" lon="11.0792683"><ele>225.5</ele><time>2026-05-01T15:50:06.729Z</time></trkpt><trkpt lat="43.64613" lon="11.0794667"><ele>225.25</ele><time>2026-05-01T15:50:07.73Z</time></trkpt><trkpt lat="43.6461833" lon="11.0796483"><ele>225.0</ele><time>2026-05-01T15:50:08.73Z</time></trkpt><trkpt lat="43.6462467" lon="11.0798183"><ele>220.66666666666669</ele><time>2026-05-01T15:50:09.728Z</time></trkpt><trkpt lat="43.6463333" lon="11.07999"><ele>216.33333333333334</ele><time>2026-05-01T15:50:10.727Z</time></trkpt><trkpt lat="43.64645" lon="11.0801683"><ele>212.0</ele><time>2026-05-01T15:50:11.729Z</time></trkpt><trkpt lat="43.64659" lon="11.080365"><ele>212.0</ele><time>2026-05-01T15:50:12.729Z</time></trkpt><trkpt lat="43.6467383" lon="11.08057"><ele>212.0</ele><time>2026-05-01T15:50:13.729Z</time></trkpt><trkpt lat="43.64689" lon="11.0807783"><ele>212.0</ele><time>2026-05-01T15:50:14.727Z</time></trkpt><trkpt lat="43.6470367" lon="11.080995"><ele>212.33333333333334</ele><time>2026-05-01T15:50:15.728Z</time></trkpt><trkpt lat="43.6471683" lon="11.081225"><ele>212.66666666666669</ele><time>2026-05-01T15:50:16.729Z</time></trkpt><trkpt lat="43.64727" lon="11.0814817"><ele>213.0</ele><time>2026-05-01T15:50:17.729Z</time></trkpt><trkpt lat="43.6473467" lon="11.08174"><ele>213.0</ele><time>2026-05-01T15:50:18.728Z</time></trkpt><trkpt lat="43.6474" lon="11.0819967"><ele>213.0</ele><time>2026-05-01T15:50:19.729Z</time></trkpt><trkpt lat="43.6474467" lon="11.082245"><ele>213.0</ele><time>2026-05-01T15:50:20.729Z</time></trkpt><trkpt lat="43.6475067" lon="11.0824867"><ele>212.33333333333331</ele><time>2026-05-01T15:50:21.728Z</time></trkpt><trkpt lat="43.6475767" lon="11.082725"><ele>211.66666666666666</ele><time>2026-05-01T15:50:22.729Z</time></trkpt><trkpt lat="43.6476517" lon="11.082965"><ele>211.0</ele><time>2026-05-01T15:50:23.729Z</time></trkpt><trkpt lat="43.6477267" lon="11.083205"><ele>206.66666666666666</ele><time>2026-05-01T15:50:24.729Z</time></trkpt><trkpt lat="43.6478017" lon="11.0834483"><ele>202.33333333333331</ele><time>2026-05-01T15:50:25.728Z</time></trkpt><trkpt lat="43.647875" lon="11.0836883"><ele>198.0</ele><time>2026-05-01T15:50:26.729Z</time></trkpt><trkpt lat="43.6479467" lon="11.083935"><ele>199.66666666666669</ele><time>2026-05-01T15:50:27.73Z</time></trkpt><trkpt lat="43.64802" lon="11.0841817"><ele>201.33333333333334</ele><time>2026-05-01T15:50:28.727Z</time></trkpt><trkpt lat="43.648095" lon="11.0844283"><ele>203.0</ele><time>2026-05-01T15:50:29.729Z</time></trkpt><trkpt lat="43.6481717" lon="11.0846683"><ele>203.0</ele><time>2026-05-01T15:50:30.728Z</time></trkpt><trkpt lat="43.6482433" lon="11.0848983"><ele>203.0</ele><time>2026-05-01T15:50:31.729Z</time></trkpt><trkpt lat="43.6483067" lon="11.08511"><ele>203.0</ele><time>2026-05-01T15:50:32.729Z</time></trkpt><trkpt lat="43.64837" lon="11.0853033"><ele>203.0</ele><time>2026-05-01T15:50:33.729Z</time></trkpt><trkpt lat="43.6484433" lon="11.0854833"><ele>203.0</ele><time>2026-05-01T15:50:34.728Z</time></trkpt><trkpt lat="43.64853" lon="11.08564"><ele>203.0</ele><time>2026-05-01T15:50:35.729Z</time></trkpt><trkpt lat="43.6486367" lon="11.0857633"><ele>203.0</ele><time>2026-05-01T15:50:36.728Z</time></trkpt><trkpt lat="43.6487683" lon="11.0858433"><ele>202.75</ele><time>2026-05-01T15:50:37.728Z</time></trkpt><trkpt lat="43.6489033" lon="11.0858683"><ele>202.5</ele><time>2026-05-01T15:50:38.729Z</time></trkpt><trkpt lat="43.6490233" lon="11.085855"><ele>202.25</ele><time>2026-05-01T15:50:39.729Z</time></trkpt><trkpt lat="43.6491317" lon="11.0857983"><ele>202.0</ele><time>2026-05-01T15:50:40.728Z</time></trkpt><trkpt lat="43.6492183" lon="11.0856983"><ele>202.0</ele><time>2026-05-01T15:50:41.728Z</time></trkpt><trkpt lat="43.64928" lon="11.085545"><ele>202.0</ele><time>2026-05-01T15:50:42.729Z</time></trkpt><trkpt lat="43.6493233" lon="11.08537"><ele>202.0</ele><time>2026-05-01T15:50:43.728Z</time></trkpt><trkpt lat="43.6493833" lon="11.0852"><ele>202.0</ele><time>2026-05-01T15:50:44.729Z</time></trkpt><trkpt lat="43.6494683" lon="11.0850433"><ele>199.0</ele><time>2026-05-01T15:50:45.729Z</time></trkpt><trkpt lat="43.649575" lon="11.0849317"><ele>196.0</ele><time>2026-05-01T15:50:46.729Z</time></trkpt><trkpt lat="43.6497" lon="11.084845"><ele>193.0</ele><time>2026-05-01T15:50:47.729Z</time></trkpt><trkpt lat="43.6498567" lon="11.0847883"><ele>190.0</ele><time>2026-05-01T15:50:48.728Z</time></trkpt><trkpt lat="43.6500217" lon="11.0847483"><ele>189.66666666666669</ele><time>2026-05-01T15:50:49.727Z</time></trkpt><trkpt lat="43.6501933" lon="11.0847167"><ele>189.33333333333334</ele><time>2026-05-01T15:50:50.727Z</time></trkpt><trkpt lat="43.6503667" lon="11.0846983"><ele>189.0</ele><time>2026-05-01T15:50:51.727Z</time></trkpt><trkpt lat="43.6505317" lon="11.084695"><ele>186.33333333333334</ele><time>2026-05-01T15:50:52.728Z</time></trkpt><trkpt lat="43.650695" lon="11.0846983"><ele>183.66666666666669</ele><time>2026-05-01T15:50:53.728Z</time></trkpt><trkpt lat="43.6508517" lon="11.0847117"><ele>181.0</ele><time>2026-05-01T15:50:54.728Z</time></trkpt><trkpt lat="43.6509983" lon="11.084735"><ele>181.0</ele><time>2026-05-01T15:50:55.727Z</time></trkpt><trkpt lat="43.6511217" lon="11.0847867"><ele>181.0</ele><time>2026-05-01T15:50:56.727Z</time></trkpt><trkpt lat="43.6512183" lon="11.0848667"><ele>181.0</ele><time>2026-05-01T15:50:57.728Z</time></trkpt><trkpt lat="43.6512833" lon="11.08498"><ele>181.0</ele><time>2026-05-01T15:50:58.727Z</time></trkpt><trkpt lat="43.651315" lon="11.0851083"><ele>181.0</ele><time>2026-05-01T15:50:59.727Z</time></trkpt><trkpt lat="43.6513117" lon="11.0852483"><ele>179.33333333333334</ele><time>2026-05-01T15:51:00.728Z</time></trkpt><trkpt lat="43.6512983" lon="11.085385"><ele>177.66666666666669</ele><time>2026-05-01T15:51:01.728Z</time></trkpt><trkpt lat="43.6512983" lon="11.0855133"><ele>176.0</ele><time>2026-05-01T15:51:02.728Z</time></trkpt><trkpt lat="43.651325" lon="11.085625"><ele>174.33333333333334</ele><time>2026-05-01T15:51:03.728Z</time></trkpt><trkpt lat="43.6513933" lon="11.0856917"><ele>172.66666666666666</ele><time>2026-05-01T15:51:04.728Z</time></trkpt><trkpt lat="43.6514617" lon="11.085715"><ele>171.0</ele><time>2026-05-01T15:51:05.728Z</time></trkpt><trkpt lat="43.6515517" lon="11.0856567"><ele>171.0</ele><time>2026-05-01T15:51:06.727Z</time></trkpt><trkpt lat="43.65165" lon="11.0855333"><ele>171.0</ele><time>2026-05-01T15:51:07.727Z</time></trkpt><trkpt lat="43.6517567" lon="11.0853867"><ele>171.0</ele><time>2026-05-01T15:51:08.729Z</time></trkpt><trkpt lat="43.6518733" lon="11.0852217"><ele>167.66666666666666</ele><time>2026-05-01T15:51:09.728Z</time></trkpt><trkpt lat="43.652" lon="11.08507"><ele>164.33333333333331</ele><time>2026-05-01T15:51:10.729Z</time></trkpt><trkpt lat="43.6521467" lon="11.0849583"><ele>161.0</ele><time>2026-05-01T15:51:11.728Z</time></trkpt><trkpt lat="43.6523033" lon="11.0848717"><ele>160.0</ele><time>2026-05-01T15:51:12.728Z</time></trkpt><trkpt lat="43.65246" lon="11.0847967"><ele>159.0</ele><time>2026-05-01T15:51:13.729Z</time></trkpt><trkpt lat="43.6526067" lon="11.0847283"><ele>158.0</ele><time>2026-05-01T15:51:14.73Z</time></trkpt><trkpt lat="43.652745" lon="11.0846633"><ele>156.0</ele><time>2026-05-01T15:51:15.729Z</time></trkpt><trkpt lat="43.6528733" lon="11.0846067"><ele>154.0</ele><time>2026-05-01T15:51:16.728Z</time></trkpt><trkpt lat="43.6529983" lon="11.0845767"><ele>152.0</ele><time>2026-05-01T15:51:17.728Z</time></trkpt><trkpt lat="43.6531183" lon="11.0845967"><ele>150.0</ele><time>2026-05-01T15:51:18.728Z</time></trkpt><trkpt lat="43.6532283" lon="11.0846517"><ele>150.0</ele><time>2026-05-01T15:51:19.729Z</time></trkpt><trkpt lat="43.653315" lon="11.0847583"><ele>150.0</ele><time>2026-05-01T15:51:20.729Z</time></trkpt><trkpt lat="43.6533683" lon="11.0849017"><ele>150.0</ele><time>2026-05-01T15:51:21.729Z</time></trkpt><trkpt lat="43.65339" lon="11.0850617"><ele>150.0</ele><time>2026-05-01T15:51:22.728Z</time></trkpt><trkpt lat="43.6533783" lon="11.0852183"><ele>151.0</ele><time>2026-05-01T15:51:23.729Z</time></trkpt><trkpt lat="43.6533283" lon="11.0853567"><ele>152.0</ele><time>2026-05-01T15:51:24.728Z</time></trkpt><trkpt lat="43.6532417" lon="11.0854783"><ele>153.0</ele><time>2026-05-01T15:51:25.729Z</time></trkpt><trkpt lat="43.6531217" lon="11.0855683"><ele>154.0</ele><time>2026-05-01T15:51:26.729Z</time></trkpt><trkpt lat="43.65299" lon="11.0856517"><ele>154.0</ele><time>2026-05-01T15:51:27.728Z</time></trkpt><trkpt lat="43.6528567" lon="11.08573"><ele>154.0</ele><time>2026-05-01T15:51:28.729Z</time></trkpt><trkpt lat="43.6527383" lon="11.08582"><ele>154.0</ele><time>2026-05-01T15:51:29.729Z</time></trkpt><trkpt lat="43.6526317" lon="11.0859167"><ele>154.0</ele><time>2026-05-01T15:51:30.73Z</time></trkpt><trkpt lat="43.652545" lon="11.0860333"><ele>154.75</ele><time>2026-05-01T15:51:31.727Z</time></trkpt><trkpt lat="43.6524867" lon="11.0862"><ele>155.5</ele><time>2026-05-01T15:51:32.729Z</time></trkpt><trkpt lat="43.65247" lon="11.0863967"><ele>156.25</ele><time>2026-05-01T15:51:33.729Z</time></trkpt><trkpt lat="43.6524533" lon="11.08659"><ele>157.0</ele><time>2026-05-01T15:51:34.728Z</time></trkpt><trkpt lat="43.6524283" lon="11.0867683"><ele>154.75</ele><time>2026-05-01T15:51:35.727Z</time></trkpt><trkpt lat="43.652395" lon="11.0869383"><ele>152.5</ele><time>2026-05-01T15:51:36.727Z</time></trkpt><trkpt lat="43.652325" lon="11.0870833"><ele>150.25</ele><time>2026-05-01T15:51:37.727Z</time></trkpt><trkpt lat="43.6522333" lon="11.0871883"><ele>148.0</ele><time>2026-05-01T15:51:38.727Z</time></trkpt><trkpt lat="43.6521317" lon="11.0872583"><ele>148.0</ele><time>2026-05-01T15:51:39.728Z</time></trkpt><trkpt lat="43.652025" lon="11.0873183"><ele>148.0</ele><time>2026-05-01T15:51:40.727Z</time></trkpt><trkpt lat="43.6519267" lon="11.0874017"><ele>148.0</ele><time>2026-05-01T15:51:41.728Z</time></trkpt><trkpt lat="43.6518483" lon="11.0875083"><ele>148.0</ele><time>2026-05-01T15:51:42.727Z</time></trkpt><trkpt lat="43.6517933" lon="11.0876317"><ele>148.0</ele><time>2026-05-01T15:51:43.727Z</time></trkpt><trkpt lat="43.65178" lon="11.0877667"><ele>148.0</ele><time>2026-05-01T15:51:44.728Z</time></trkpt><trkpt lat="43.6518117" lon="11.0878933"><ele>148.0</ele><time>2026-05-01T15:51:45.727Z</time></trkpt><trkpt lat="43.651855" lon="11.088"><ele>148.0</ele><time>2026-05-01T15:51:46.727Z</time></trkpt><trkpt lat="43.65192" lon="11.0880833"><ele>148.0</ele><time>2026-05-01T15:51:47.728Z</time></trkpt><trkpt lat="43.652045" lon="11.0880833"><ele>148.0</ele><time>2026-05-01T15:51:48.728Z</time></trkpt><trkpt lat="43.652175" lon="11.0880517"><ele>144.66666666666669</ele><time>2026-05-01T15:51:49.727Z</time></trkpt><trkpt lat="43.652315" lon="11.0879933"><ele>141.33333333333334</ele><time>2026-05-01T15:51:50.727Z</time></trkpt><trkpt lat="43.6524717" lon="11.0879117"><ele>138.0</ele><time>2026-05-01T15:51:51.727Z</time></trkpt><trkpt lat="43.6526433" lon="11.0877983"><ele>137.33333333333334</ele><time>2026-05-01T15:51:52.728Z</time></trkpt><trkpt lat="43.652825" lon="11.0876717"><ele>136.66666666666669</ele><time>2026-05-01T15:51:53.728Z</time></trkpt><trkpt lat="43.6530083" lon="11.0875317"><ele>136.0</ele><time>2026-05-01T15:51:54.728Z</time></trkpt><trkpt lat="43.65318" lon="11.087405"><ele>136.0</ele><time>2026-05-01T15:51:55.728Z</time></trkpt><trkpt lat="43.6533467" lon="11.08729"><ele>136.0</ele><time>2026-05-01T15:51:56.727Z</time></trkpt><trkpt lat="43.6535017" lon="11.0871783"><ele>136.0</ele><time>2026-05-01T15:51:57.728Z</time></trkpt><trkpt lat="43.6536567" lon="11.0870767"><ele>132.33333333333334</ele><time>2026-05-01T15:51:58.727Z</time></trkpt><trkpt lat="43.6538117" lon="11.08697"><ele>128.66666666666666</ele><time>2026-05-01T15:51:59.727Z</time></trkpt><trkpt lat="43.6539567" lon="11.0868683"><ele>125.0</ele><time>2026-05-01T15:52:00.728Z</time></trkpt><trkpt lat="43.654105" lon="11.0867617"><ele>125.0</ele><time>2026-05-01T15:52:01.728Z</time></trkpt><trkpt lat="43.654245" lon="11.0866617"><ele>125.0</ele><time>2026-05-01T15:52:02.727Z</time></trkpt><trkpt lat="43.65438" lon="11.08656"><ele>125.0</ele><time>2026-05-01T15:52:03.727Z</time></trkpt><trkpt lat="43.6545117" lon="11.0864583"><ele>123.0</ele><time>2026-05-01T15:52:04.728Z</time></trkpt><trkpt lat="43.65464" lon="11.0863483"><ele>121.0</ele><time>2026-05-01T15:52:05.727Z</time></trkpt><trkpt lat="43.65477" lon="11.086235"><ele>119.0</ele><time>2026-05-01T15:52:06.728Z</time></trkpt><trkpt lat="43.654895" lon="11.0861133"><ele>119.0</ele><time>2026-05-01T15:52:07.728Z</time></trkpt><trkpt lat="43.65502" lon="11.0859783"><ele>119.0</ele><time>2026-05-01T15:52:08.731Z</time></trkpt><trkpt lat="43.6551417" lon="11.0858517"><ele>119.0</ele><time>2026-05-01T15:52:09.729Z</time></trkpt><trkpt lat="43.655265" lon="11.0857133"><ele>116.5</ele><time>2026-05-01T15:52:10.729Z</time></trkpt><trkpt lat="43.655375" lon="11.085565"><ele>114.0</ele><time>2026-05-01T15:52:11.729Z</time></trkpt><trkpt lat="43.65547" lon="11.0854117"><ele>111.5</ele><time>2026-05-01T15:52:12.729Z</time></trkpt><trkpt lat="43.6555517" lon="11.085245"><ele>109.0</ele><time>2026-05-01T15:52:13.73Z</time></trkpt><trkpt lat="43.6556217" lon="11.0850733"><ele>109.0</ele><time>2026-05-01T15:52:14.731Z</time></trkpt><trkpt lat="43.655685" lon="11.0849033"><ele>109.0</ele><time>2026-05-01T15:52:15.729Z</time></trkpt><trkpt lat="43.65576" lon="11.084735"><ele>109.0</ele><time>2026-05-01T15:52:16.728Z</time></trkpt><trkpt lat="43.655835" lon="11.08459"><ele>109.0</ele><time>2026-05-01T15:52:17.73Z</time></trkpt><trkpt lat="43.6559217" lon="11.0844667"><ele>109.0</ele><time>2026-05-01T15:52:18.729Z</time></trkpt><trkpt lat="43.6560283" lon="11.08436"><ele>109.0</ele><time>2026-05-01T15:52:19.73Z</time></trkpt><trkpt lat="43.65615" lon="11.084265"><ele>109.0</ele><time>2026-05-01T15:52:20.728Z</time></trkpt><trkpt lat="43.656285" lon="11.0841783"><ele>109.0</ele><time>2026-05-01T15:52:21.729Z</time></trkpt><trkpt lat="43.656425" lon="11.08409"><ele>108.0</ele><time>2026-05-01T15:52:22.729Z</time></trkpt><trkpt lat="43.6565717" lon="11.0840117"><ele>107.0</ele><time>2026-05-01T15:52:23.728Z</time></trkpt><trkpt lat="43.6567217" lon="11.0839333"><ele>106.0</ele><time>2026-05-01T15:52:24.73Z</time></trkpt><trkpt lat="43.65688" lon="11.0838683"><ele>105.33333333333334</ele><time>2026-05-01T15:52:25.729Z</time></trkpt><trkpt lat="43.6570433" lon="11.0838133"><ele>104.66666666666666</ele><time>2026-05-01T15:52:26.73Z</time></trkpt><trkpt lat="43.6572067" lon="11.0837783"><ele>104.0</ele><time>2026-05-01T15:52:27.728Z</time></trkpt><trkpt lat="43.65737" lon="11.083765"><ele>104.0</ele><time>2026-05-01T15:52:28.729Z</time></trkpt><trkpt lat="43.6575333" lon="11.083765"><ele>104.0</ele><time>2026-05-01T15:52:29.73Z</time></trkpt><trkpt lat="43.6577083" lon="11.0837717"><ele>104.0</ele><time>2026-05-01T15:52:30.73Z</time></trkpt><trkpt lat="43.6578983" lon="11.0837917"><ele>103.33333333333333</ele><time>2026-05-01T15:52:31.729Z</time></trkpt><trkpt lat="43.6581033" lon="11.08382"><ele>102.66666666666666</ele><time>2026-05-01T15:52:32.729Z</time></trkpt><trkpt lat="43.6583167" lon="11.0838683"><ele>102.0</ele><time>2026-05-01T15:52:33.729Z</time></trkpt><trkpt lat="43.658525" lon="11.0839183"><ele>101.33333333333334</ele><time>2026-05-01T15:52:34.729Z</time></trkpt><trkpt lat="43.658725" lon="11.0839717"><ele>100.66666666666667</ele><time>2026-05-01T15:52:35.73Z</time></trkpt><trkpt lat="43.6589267" lon="11.0840333"><ele>100.0</ele><time>2026-05-01T15:52:36.73Z</time></trkpt><trkpt lat="43.6591183" lon="11.0840817"><ele>100.0</ele><time>2026-05-01T15:52:37.73Z</time></trkpt><trkpt lat="43.6592967" lon="11.0841367"><ele>100.0</ele><time>2026-05-01T15:52:38.729Z</time></trkpt><trkpt lat="43.6594683" lon="11.08418"><ele>100.0</ele><time>2026-05-01T15:52:39.729Z</time></trkpt><trkpt lat="43.6596417" lon="11.0842233"><ele>99.66666666666667</ele><time>2026-05-01T15:52:40.73Z</time></trkpt><trkpt lat="43.65981" lon="11.0842617"><ele>99.33333333333334</ele><time>2026-05-01T15:52:41.73Z</time></trkpt><trkpt lat="43.6599733" lon="11.0843"><ele>99.0</ele><time>2026-05-01T15:52:42.729Z</time></trkpt><trkpt lat="43.6601283" lon="11.0843267"><ele>99.0</ele><time>2026-05-01T15:52:43.729Z</time></trkpt><trkpt lat="43.66028" lon="11.0843467"><ele>99.0</ele><time>2026-05-01T15:52:44.728Z</time></trkpt><trkpt lat="43.6604217" lon="11.08436"><ele>99.0</ele><time>2026-05-01T15:52:45.729Z</time></trkpt><trkpt lat="43.66055" lon="11.0843683"><ele>99.0</ele><time>2026-05-01T15:52:46.728Z</time></trkpt><trkpt lat="43.6606617" lon="11.0843917"><ele>98.6</ele><time>2026-05-01T15:52:47.729Z</time></trkpt><trkpt lat="43.6607533" lon="11.0844483"><ele>98.2</ele><time>2026-05-01T15:52:48.73Z</time></trkpt><trkpt lat="43.66083" lon="11.0845317"><ele>97.8</ele><time>2026-05-01T15:52:49.729Z</time></trkpt><trkpt lat="43.6608767" lon="11.0846483"><ele>97.39999999999999</ele><time>2026-05-01T15:52:50.73Z</time></trkpt><trkpt lat="43.6609283" lon="11.084755"><ele>97.0</ele><time>2026-05-01T15:52:51.73Z</time></trkpt><trkpt lat="43.660995" lon="11.0848333"><ele>97.0</ele><time>2026-05-01T15:52:52.73Z</time></trkpt><trkpt lat="43.661065" lon="11.0848783"><ele>97.0</ele><time>2026-05-01T15:52:53.728Z</time></trkpt><trkpt lat="43.661155" lon="11.0848483"><ele>97.0</ele><time>2026-05-01T15:52:54.729Z</time></trkpt><trkpt lat="43.6612383" lon="11.0848"><ele>97.0</ele><time>2026-05-01T15:52:55.729Z</time></trkpt><trkpt lat="43.6613367" lon="11.0847267"><ele>97.0</ele><time>2026-05-01T15:52:56.73Z</time></trkpt><trkpt lat="43.6614683" lon="11.08465"><ele>98.0</ele><time>2026-05-01T15:52:57.729Z</time></trkpt><trkpt lat="43.66162" lon="11.0845967"><ele>99.0</ele><time>2026-05-01T15:52:58.729Z</time></trkpt><trkpt lat="43.6617883" lon="11.0845767"><ele>100.0</ele><time>2026-05-01T15:52:59.729Z</time></trkpt><trkpt lat="43.6619617" lon="11.08457"><ele>100.0</ele><time>2026-05-01T15:53:00.73Z</time></trkpt><trkpt lat="43.6621383" lon="11.0845717"><ele>100.0</ele><time>2026-05-01T15:53:01.73Z</time></trkpt><trkpt lat="43.662315" lon="11.0845717"><ele>100.0</ele><time>2026-05-01T15:53:02.73Z</time></trkpt><trkpt lat="43.66249" lon="11.0845583"><ele>100.0</ele><time>2026-05-01T15:53:03.729Z</time></trkpt><trkpt lat="43.66265" lon="11.0845667"><ele>100.0</ele><time>2026-05-01T15:53:04.73Z</time></trkpt><trkpt lat="43.6628017" lon="11.0845867"><ele>100.0</ele><time>2026-05-01T15:53:05.729Z</time></trkpt><trkpt lat="43.6629483" lon="11.0846133"><ele>99.25</ele><time>2026-05-01T15:53:06.73Z</time></trkpt><trkpt lat="43.6630933" lon="11.084655"><ele>98.5</ele><time>2026-05-01T15:53:07.728Z</time></trkpt><trkpt lat="43.66324" lon="11.0847"><ele>97.75</ele><time>2026-05-01T15:53:08.73Z</time></trkpt><trkpt lat="43.6633867" lon="11.0847483"><ele>97.0</ele><time>2026-05-01T15:53:09.729Z</time></trkpt><trkpt lat="43.6635333" lon="11.0847983"><ele>98.0</ele><time>2026-05-01T15:53:10.729Z</time></trkpt><trkpt lat="43.663675" lon="11.08483"><ele>99.0</ele><time>2026-05-01T15:53:11.729Z</time></trkpt><trkpt lat="43.6638133" lon="11.0848467"><ele>100.0</ele><time>2026-05-01T15:53:12.73Z</time></trkpt><trkpt lat="43.663955" lon="11.0848317"><ele>101.0</ele><time>2026-05-01T15:53:13.73Z</time></trkpt><trkpt lat="43.66409" lon="11.0847917"><ele>101.0</ele><time>2026-05-01T15:53:14.729Z</time></trkpt><trkpt lat="43.6642217" lon="11.0847267"><ele>101.0</ele><time>2026-05-01T15:53:15.728Z</time></trkpt><trkpt lat="43.6643417" lon="11.0846583"><ele>101.0</ele><time>2026-05-01T15:53:16.729Z</time></trkpt><trkpt lat="43.6644533" lon="11.0845733"><ele>101.0</ele><time>2026-05-01T15:53:17.728Z</time></trkpt><trkpt lat="43.6645633" lon="11.084485"><ele>102.25</ele><time>2026-05-01T15:53:18.729Z</time></trkpt><trkpt lat="43.6646733" lon="11.084385"><ele>103.5</ele><time>2026-05-01T15:53:19.731Z</time></trkpt><trkpt lat="43.664785" lon="11.08427"><ele>104.75</ele><time>2026-05-01T15:53:20.73Z</time></trkpt><trkpt lat="43.6648983" lon="11.0841467"><ele>106.0</ele><time>2026-05-01T15:53:21.729Z</time></trkpt><trkpt lat="43.6650117" lon="11.0840183"><ele>106.33333333333334</ele><time>2026-05-01T15:53:22.729Z</time></trkpt><trkpt lat="43.66513" lon="11.08388"><ele>106.66666666666666</ele><time>2026-05-01T15:53:23.73Z</time></trkpt><trkpt lat="43.6652483" lon="11.0837317"><ele>107.0</ele><time>2026-05-01T15:53:24.729Z</time></trkpt><trkpt lat="43.6653667" lon="11.0835883"><ele>108.0</ele><time>2026-05-01T15:53:25.729Z</time></trkpt><trkpt lat="43.6654933" lon="11.0834467"><ele>109.0</ele><time>2026-05-01T15:53:26.73Z</time></trkpt><trkpt lat="43.6656267" lon="11.0833083"><ele>110.0</ele><time>2026-05-01T15:53:27.729Z</time></trkpt><trkpt lat="43.6657617" lon="11.0831467"><ele>110.0</ele><time>2026-05-01T15:53:28.729Z</time></trkpt><trkpt lat="43.6659067" lon="11.0830317"><ele>110.0</ele><time>2026-05-01T15:53:29.729Z</time></trkpt><trkpt lat="43.6660633" lon="11.08294"><ele>110.0</ele><time>2026-05-01T15:53:30.729Z</time></trkpt><trkpt lat="43.6662367" lon="11.0828617"><ele>111.66666666666666</ele><time>2026-05-01T15:53:31.729Z</time></trkpt><trkpt lat="43.6664233" lon="11.082785"><ele>113.33333333333334</ele><time>2026-05-01T15:53:32.729Z</time></trkpt><trkpt lat="43.6666183" lon="11.0827017"><ele>115.0</ele><time>2026-05-01T15:53:33.73Z</time></trkpt><trkpt lat="43.666815" lon="11.0826167"><ele>115.33333333333334</ele><time>2026-05-01T15:53:34.728Z</time></trkpt><trkpt lat="43.6670033" lon="11.0825383"><ele>115.66666666666666</ele><time>2026-05-01T15:53:35.73Z</time></trkpt><trkpt lat="43.6671767" lon="11.08246"><ele>116.0</ele><time>2026-05-01T15:53:36.728Z</time></trkpt><trkpt lat="43.66734" lon="11.08238"><ele>116.0</ele><time>2026-05-01T15:53:37.73Z</time></trkpt><trkpt lat="43.6674867" lon="11.0823133"><ele>116.0</ele><time>2026-05-01T15:53:38.729Z</time></trkpt><trkpt lat="43.6676217" lon="11.0822667"><ele>116.0</ele><time>2026-05-01T15:53:39.73Z</time></trkpt><trkpt lat="43.6677383" lon="11.082275"><ele>116.0</ele><time>2026-05-01T15:53:40.729Z</time></trkpt><trkpt lat="43.6678333" lon="11.0823383"><ele>117.5</ele><time>2026-05-01T15:53:41.73Z</time></trkpt><trkpt lat="43.66789" lon="11.08247"><ele>119.0</ele><time>2026-05-01T15:53:42.728Z</time></trkpt><trkpt lat="43.66789" lon="11.0826333"><ele>120.5</ele><time>2026-05-01T15:53:43.728Z</time></trkpt><trkpt lat="43.6678567" lon="11.0827917"><ele>122.0</ele><time>2026-05-01T15:53:44.728Z</time></trkpt><trkpt lat="43.667755" lon="11.0829417"><ele>122.0</ele><time>2026-05-01T15:53:45.728Z</time></trkpt><trkpt lat="43.6676317" lon="11.0831033"><ele>122.0</ele><time>2026-05-01T15:53:46.727Z</time></trkpt><trkpt lat="43.6674933" lon="11.08329"><ele>122.0</ele><time>2026-05-01T15:53:47.728Z</time></trkpt><trkpt lat="43.6673483" lon="11.0834833"><ele>122.33333333333333</ele><time>2026-05-01T15:53:48.728Z</time></trkpt><trkpt lat="43.6672033" lon="11.0836783"><ele>122.66666666666666</ele><time>2026-05-01T15:53:49.726Z</time></trkpt><trkpt lat="43.6670467" lon="11.08388"><ele>123.0</ele><time>2026-05-01T15:53:50.728Z</time></trkpt><trkpt lat="43.66689" lon="11.0840833"><ele>125.66666666666666</ele><time>2026-05-01T15:53:51.727Z</time></trkpt><trkpt lat="43.6667417" lon="11.0842817"><ele>128.33333333333331</ele><time>2026-05-01T15:53:52.728Z</time></trkpt><trkpt lat="43.6666217" lon="11.0844867"><ele>131.0</ele><time>2026-05-01T15:53:53.728Z</time></trkpt><trkpt lat="43.66654" lon="11.0847033"><ele>134.0</ele><time>2026-05-01T15:53:54.728Z</time></trkpt><trkpt lat="43.6665033" lon="11.0849367"><ele>137.0</ele><time>2026-05-01T15:53:55.727Z</time></trkpt><trkpt lat="43.6665133" lon="11.085185"><ele>140.0</ele><time>2026-05-01T15:53:56.727Z</time></trkpt><trkpt lat="43.6665617" lon="11.0854367"><ele>140.0</ele><time>2026-05-01T15:53:57.727Z</time></trkpt><trkpt lat="43.6666317" lon="11.08571"><ele>140.0</ele><time>2026-05-01T15:53:58.728Z</time></trkpt><trkpt lat="43.6667067" lon="11.08599"><ele>140.0</ele><time>2026-05-01T15:53:59.728Z</time></trkpt><trkpt lat="43.66678" lon="11.0862783"><ele>139.66666666666666</ele><time>2026-05-01T15:54:00.728Z</time></trkpt><trkpt lat="43.6668667" lon="11.0865633"><ele>139.33333333333334</ele><time>2026-05-01T15:54:01.728Z</time></trkpt><trkpt lat="43.66698" lon="11.0868117"><ele>139.0</ele><time>2026-05-01T15:54:02.728Z</time></trkpt><trkpt lat="43.6671167" lon="11.087025"><ele>141.33333333333334</ele><time>2026-05-01T15:54:03.728Z</time></trkpt><trkpt lat="43.66727" lon="11.0872083"><ele>143.66666666666666</ele><time>2026-05-01T15:54:04.728Z</time></trkpt><trkpt lat="43.6674233" lon="11.0873833"><ele>146.0</ele><time>2026-05-01T15:54:05.727Z</time></trkpt><trkpt lat="43.66757" lon="11.087555"><ele>146.0</ele><time>2026-05-01T15:54:06.728Z</time></trkpt><trkpt lat="43.6677183" lon="11.087715"><ele>146.0</ele><time>2026-05-01T15:54:07.727Z</time></trkpt><trkpt lat="43.6678533" lon="11.087875"><ele>146.0</ele><time>2026-05-01T15:54:08.728Z</time></trkpt><trkpt lat="43.6679733" lon="11.0880317"><ele>150.33333333333331</ele><time>2026-05-01T15:54:09.727Z</time></trkpt><trkpt lat="43.6680783" lon="11.0881983"><ele>154.66666666666666</ele><time>2026-05-01T15:54:10.728Z</time></trkpt><trkpt lat="43.6681783" lon="11.0883617"><ele>159.0</ele><time>2026-05-01T15:54:11.728Z</time></trkpt><trkpt lat="43.6682817" lon="11.0885383"><ele>159.0</ele><time>2026-05-01T15:54:12.728Z</time></trkpt><trkpt lat="43.6684083" lon="11.0887083"><ele>159.0</ele><time>2026-05-01T15:54:13.729Z</time></trkpt><trkpt lat="43.6685617" lon="11.088875"><ele>159.0</ele><time>2026-05-01T15:54:14.727Z</time></trkpt><trkpt lat="43.6687217" lon="11.0890533"><ele>161.33333333333334</ele><time>2026-05-01T15:54:15.727Z</time></trkpt><trkpt lat="43.6688917" lon="11.0892333"><ele>163.66666666666669</ele><time>2026-05-01T15:54:16.728Z</time></trkpt><trkpt lat="43.66906" lon="11.0894183"><ele>166.0</ele><time>2026-05-01T15:54:17.728Z</time></trkpt><trkpt lat="43.6692167" lon="11.0895967"><ele>166.0</ele><time>2026-05-01T15:54:18.727Z</time></trkpt><trkpt lat="43.6693533" lon="11.0898083"><ele>166.0</ele><time>2026-05-01T15:54:19.728Z</time></trkpt><trkpt lat="43.6694683" lon="11.0900383"><ele>166.0</ele><time>2026-05-01T15:54:20.728Z</time></trkpt><trkpt lat="43.6695683" lon="11.0902667"><ele>166.33333333333334</ele><time>2026-05-01T15:54:21.728Z</time></trkpt><trkpt lat="43.66966" lon="11.0904783"><ele>166.66666666666666</ele><time>2026-05-01T15:54:22.728Z</time></trkpt><trkpt lat="43.6697617" lon="11.09065"><ele>167.0</ele><time>2026-05-01T15:54:23.728Z</time></trkpt><trkpt lat="43.66989" lon="11.0907917"><ele>167.0</ele><time>2026-05-01T15:54:24.728Z</time></trkpt><trkpt lat="43.6700583" lon="11.0908783"><ele>167.0</ele><time>2026-05-01T15:54:25.728Z</time></trkpt><trkpt lat="43.67023" lon="11.090955"><ele>167.0</ele><time>2026-05-01T15:54:26.729Z</time></trkpt><trkpt lat="43.6703967" lon="11.0910467"><ele>170.66666666666666</ele><time>2026-05-01T15:54:27.728Z</time></trkpt><trkpt lat="43.6705333" lon="11.0911683"><ele>174.33333333333334</ele><time>2026-05-01T15:54:28.728Z</time></trkpt><trkpt lat="43.6706367" lon="11.0913667"><ele>178.0</ele><time>2026-05-01T15:54:29.726Z</time></trkpt><trkpt lat="43.67073" lon="11.091595"><ele>178.0</ele><time>2026-05-01T15:54:30.728Z</time></trkpt><trkpt lat="43.6708167" lon="11.0918483"><ele>178.0</ele><time>2026-05-01T15:54:31.728Z</time></trkpt><trkpt lat="43.6708883" lon="11.092105"><ele>178.0</ele><time>2026-05-01T15:54:32.728Z</time></trkpt><trkpt lat="43.6709367" lon="11.09237"><ele>178.33333333333334</ele><time>2026-05-01T15:54:33.727Z</time></trkpt><trkpt lat="43.6709567" lon="11.0926267"><ele>178.66666666666666</ele><time>2026-05-01T15:54:34.729Z</time></trkpt><trkpt lat="43.6709583" lon="11.0928717"><ele>179.0</ele><time>2026-05-01T15:54:35.727Z</time></trkpt><trkpt lat="43.670935" lon="11.0931067"><ele>180.0</ele><time>2026-05-01T15:54:36.728Z</time></trkpt><trkpt lat="43.6708967" lon="11.093335"><ele>181.0</ele><time>2026-05-01T15:54:37.728Z</time></trkpt><trkpt lat="43.6708467" lon="11.09355"><ele>182.0</ele><time>2026-05-01T15:54:38.728Z</time></trkpt><trkpt lat="43.6707933" lon="11.093755"><ele>182.0</ele><time>2026-05-01T15:54:39.728Z</time></trkpt><trkpt lat="43.67074" lon="11.0939433"><ele>182.0</ele><time>2026-05-01T15:54:40.728Z</time></trkpt><trkpt lat="43.6706917" lon="11.09412"><ele>182.0</ele><time>2026-05-01T15:54:41.728Z</time></trkpt><trkpt lat="43.67064" lon="11.0942783"><ele>182.0</ele><time>2026-05-01T15:54:42.729Z</time></trkpt><trkpt lat="43.6705833" lon="11.09443"><ele>184.25</ele><time>2026-05-01T15:54:43.728Z</time></trkpt><trkpt lat="43.6705083" lon="11.094565"><ele>186.5</ele><time>2026-05-01T15:54:44.728Z</time></trkpt><trkpt lat="43.6704283" lon="11.0946917"><ele>188.75</ele><time>2026-05-01T15:54:45.728Z</time></trkpt><trkpt lat="43.67035" lon="11.0948117"><ele>191.0</ele><time>2026-05-01T15:54:46.728Z</time></trkpt><trkpt lat="43.6702833" lon="11.0949467"><ele>189.60000000000002</ele><time>2026-05-01T15:54:47.727Z</time></trkpt><trkpt lat="43.6702433" lon="11.0950817"><ele>188.2</ele><time>2026-05-01T15:54:48.727Z</time></trkpt><trkpt lat="43.6702333" lon="11.09523"><ele>186.8</ele><time>2026-05-01T15:54:49.728Z</time></trkpt><trkpt lat="43.670245" lon="11.0953833"><ele>185.39999999999998</ele><time>2026-05-01T15:54:50.727Z</time></trkpt><trkpt lat="43.67029" lon="11.0955383"><ele>184.0</ele><time>2026-05-01T15:54:51.727Z</time></trkpt><trkpt lat="43.6703617" lon="11.0957167"><ele>188.0</ele><time>2026-05-01T15:54:52.728Z</time></trkpt><trkpt lat="43.6704083" lon="11.0958783"><ele>192.0</ele><time>2026-05-01T15:54:53.728Z</time></trkpt><trkpt lat="43.6704333" lon="11.0960367"><ele>196.0</ele><time>2026-05-01T15:54:54.728Z</time></trkpt><trkpt lat="43.6704467" lon="11.096195"><ele>200.0</ele><time>2026-05-01T15:54:55.727Z</time></trkpt><trkpt lat="43.67045" lon="11.0963567"><ele>200.0</ele><time>2026-05-01T15:54:56.728Z</time></trkpt><trkpt lat="43.6704467" lon="11.0965233"><ele>200.0</ele><time>2026-05-01T15:54:57.727Z</time></trkpt><trkpt lat="43.6704367" lon="11.0966933"><ele>200.0</ele><time>2026-05-01T15:54:58.728Z</time></trkpt><trkpt lat="43.6704117" lon="11.0968633"><ele>200.0</ele><time>2026-05-01T15:54:59.727Z</time></trkpt><trkpt lat="43.670375" lon="11.0970267"><ele>200.25</ele><time>2026-05-01T15:55:00.728Z</time></trkpt><trkpt lat="43.6703267" lon="11.0971817"><ele>200.5</ele><time>2026-05-01T15:55:01.728Z</time></trkpt><trkpt lat="43.6702683" lon="11.0973317"><ele>200.75</ele><time>2026-05-01T15:55:02.728Z</time></trkpt><trkpt lat="43.67021" lon="11.097495"><ele>201.0</ele><time>2026-05-01T15:55:03.728Z</time></trkpt><trkpt lat="43.6701683" lon="11.09764"><ele>198.5</ele><time>2026-05-01T15:55:04.728Z</time></trkpt><trkpt lat="43.6701433" lon="11.0977983"><ele>196.0</ele><time>2026-05-01T15:55:05.728Z</time></trkpt><trkpt lat="43.6701483" lon="11.0979633"><ele>193.5</ele><time>2026-05-01T15:55:06.728Z</time></trkpt><trkpt lat="43.6701817" lon="11.0981117"><ele>191.0</ele><time>2026-05-01T15:55:07.727Z</time></trkpt><trkpt lat="43.67025" lon="11.098275"><ele>195.75</ele><time>2026-05-01T15:55:08.729Z</time></trkpt><trkpt lat="43.67032" lon="11.09842"><ele>200.5</ele><time>2026-05-01T15:55:09.728Z</time></trkpt><trkpt lat="43.6703967" lon="11.0985567"><ele>205.25</ele><time>2026-05-01T15:55:10.729Z</time></trkpt><trkpt lat="43.6704733" lon="11.0987033"><ele>210.0</ele><time>2026-05-01T15:55:11.728Z</time></trkpt><trkpt lat="43.67055" lon="11.0988533"><ele>210.0</ele><time>2026-05-01T15:55:12.727Z</time></trkpt><trkpt lat="43.6706367" lon="11.0989917"><ele>210.0</ele><time>2026-05-01T15:55:13.728Z</time></trkpt><trkpt lat="43.6707433" lon="11.099115"><ele>210.0</ele><time>2026-05-01T15:55:14.729Z</time></trkpt><trkpt lat="43.6708783" lon="11.09925"><ele>210.0</ele><time>2026-05-01T15:55:15.727Z</time></trkpt><trkpt lat="43.671025" lon="11.0994"><ele>211.33333333333331</ele><time>2026-05-01T15:55:16.727Z</time></trkpt><trkpt lat="43.6711833" lon="11.0995533"><ele>212.66666666666666</ele><time>2026-05-01T15:55:17.728Z</time></trkpt><trkpt lat="43.6713417" lon="11.0997117"><ele>214.0</ele><time>2026-05-01T15:55:18.728Z</time></trkpt><trkpt lat="43.6714967" lon="11.0998683"><ele>212.33333333333331</ele><time>2026-05-01T15:55:19.727Z</time></trkpt><trkpt lat="43.6716367" lon="11.1000383"><ele>210.66666666666669</ele><time>2026-05-01T15:55:20.729Z</time></trkpt><trkpt lat="43.6717583" lon="11.1002217"><ele>209.0</ele><time>2026-05-01T15:55:21.728Z</time></trkpt><trkpt lat="43.6718517" lon="11.100415"><ele>209.0</ele><time>2026-05-01T15:55:22.728Z</time></trkpt><trkpt lat="43.6719183" lon="11.1006233"><ele>209.0</ele><time>2026-05-01T15:55:23.728Z</time></trkpt><trkpt lat="43.671965" lon="11.1008467"><ele>209.0</ele><time>2026-05-01T15:55:24.727Z</time></trkpt><trkpt lat="43.6719833" lon="11.101085"><ele>211.33333333333334</ele><time>2026-05-01T15:55:25.728Z</time></trkpt><trkpt lat="43.671985" lon="11.101325"><ele>213.66666666666669</ele><time>2026-05-01T15:55:26.727Z</time></trkpt><trkpt lat="43.6719817" lon="11.1015667"><ele>216.0</ele><time>2026-05-01T15:55:27.726Z</time></trkpt><trkpt lat="43.67198" lon="11.10181"><ele>216.66666666666669</ele><time>2026-05-01T15:55:28.726Z</time></trkpt><trkpt lat="43.6719967" lon="11.1020417"><ele>217.33333333333334</ele><time>2026-05-01T15:55:29.726Z</time></trkpt><trkpt lat="43.6720383" lon="11.1022717"><ele>218.0</ele><time>2026-05-01T15:55:30.728Z</time></trkpt><trkpt lat="43.672105" lon="11.1025"><ele>218.0</ele><time>2026-05-01T15:55:31.729Z</time></trkpt><trkpt lat="43.6721767" lon="11.10271"><ele>218.0</ele><time>2026-05-01T15:55:32.73Z</time></trkpt><trkpt lat="43.6722433" lon="11.1029167"><ele>218.0</ele><time>2026-05-01T15:55:33.728Z</time></trkpt><trkpt lat="43.6723083" lon="11.10313"><ele>217.33333333333334</ele><time>2026-05-01T15:55:34.729Z</time></trkpt><trkpt lat="43.672365" lon="11.1033383"><ele>216.66666666666669</ele><time>2026-05-01T15:55:35.729Z</time></trkpt><trkpt lat="43.6724133" lon="11.1035417"><ele>216.0</ele><time>2026-05-01T15:55:36.729Z</time></trkpt><trkpt lat="43.672455" lon="11.1037383"><ele>216.0</ele><time>2026-05-01T15:55:37.729Z</time></trkpt><trkpt lat="43.67249" lon="11.1039133"><ele>216.0</ele><time>2026-05-01T15:55:38.729Z</time></trkpt><trkpt lat="43.6725233" lon="11.1040683"><ele>216.0</ele><time>2026-05-01T15:55:39.729Z</time></trkpt><trkpt lat="43.6725533" lon="11.10421"><ele>216.0</ele><time>2026-05-01T15:55:40.728Z</time></trkpt><trkpt lat="43.6725833" lon="11.1043417"><ele>215.60000000000002</ele><time>2026-05-01T15:55:41.728Z</time></trkpt><trkpt lat="43.6726117" lon="11.104475"><ele>215.20000000000002</ele><time>2026-05-01T15:55:42.729Z</time></trkpt><trkpt lat="43.6726433" lon="11.1046117"><ele>214.79999999999998</ele><time>2026-05-01T15:55:43.729Z</time></trkpt><trkpt lat="43.672675" lon="11.1047633"><ele>214.39999999999998</ele><time>2026-05-01T15:55:44.729Z</time></trkpt><trkpt lat="43.67271" lon="11.1049267"><ele>214.0</ele><time>2026-05-01T15:55:45.729Z</time></trkpt><trkpt lat="43.67275" lon="11.1050983"><ele>213.25</ele><time>2026-05-01T15:55:46.728Z</time></trkpt><trkpt lat="43.6727933" lon="11.1052767"><ele>212.5</ele><time>2026-05-01T15:55:47.729Z</time></trkpt><trkpt lat="43.67284" lon="11.1054567"><ele>211.75</ele><time>2026-05-01T15:55:48.73Z</time></trkpt><trkpt lat="43.672895" lon="11.105635"><ele>211.0</ele><time>2026-05-01T15:55:49.729Z</time></trkpt><trkpt lat="43.6729583" lon="11.105815"><ele>213.0</ele><time>2026-05-01T15:55:50.729Z</time></trkpt><trkpt lat="43.6730383" lon="11.1059933"><ele>215.0</ele><time>2026-05-01T15:55:51.728Z</time></trkpt><trkpt lat="43.6731183" lon="11.106175"><ele>217.0</ele><time>2026-05-01T15:55:52.727Z</time></trkpt><trkpt lat="43.6732017" lon="11.106355"><ele>217.0</ele><time>2026-05-01T15:55:53.729Z</time></trkpt><trkpt lat="43.673285" lon="11.1065367"><ele>217.0</ele><time>2026-05-01T15:55:54.729Z</time></trkpt><trkpt lat="43.673375" lon="11.10672"><ele>217.0</ele><time>2026-05-01T15:55:55.727Z</time></trkpt><trkpt lat="43.6734617" lon="11.1069067"><ele>216.0</ele><time>2026-05-01T15:55:56.729Z</time></trkpt><trkpt lat="43.67355" lon="11.1070967"><ele>215.0</ele><time>2026-05-01T15:55:57.728Z</time></trkpt><trkpt lat="43.67364" lon="11.1072867"><ele>214.0</ele><time>2026-05-01T15:55:58.729Z</time></trkpt><trkpt lat="43.6737067" lon="11.1074817"><ele>214.0</ele><time>2026-05-01T15:55:59.729Z</time></trkpt><trkpt lat="43.6737733" lon="11.1076683"><ele>214.0</ele><time>2026-05-01T15:56:00.728Z</time></trkpt><trkpt lat="43.67387" lon="11.1078567"><ele>214.0</ele><time>2026-05-01T15:56:01.729Z</time></trkpt><trkpt lat="43.67397" lon="11.1080517"><ele>214.66666666666666</ele><time>2026-05-01T15:56:02.729Z</time></trkpt><trkpt lat="43.6740617" lon="11.1082433"><ele>215.33333333333331</ele><time>2026-05-01T15:56:03.728Z</time></trkpt><trkpt lat="43.674155" lon="11.1084233"><ele>216.0</ele><time>2026-05-01T15:56:04.729Z</time></trkpt><trkpt lat="43.6742517" lon="11.1085917"><ele>216.0</ele><time>2026-05-01T15:56:05.726Z</time></trkpt><trkpt lat="43.6743583" lon="11.1087383"><ele>216.0</ele><time>2026-05-01T15:56:06.73Z</time></trkpt><trkpt lat="43.6744783" lon="11.1088617"><ele>216.0</ele><time>2026-05-01T15:56:07.729Z</time></trkpt><trkpt lat="43.67461" lon="11.1089617"><ele>214.0</ele><time>2026-05-01T15:56:08.729Z</time></trkpt><trkpt lat="43.6747617" lon="11.109045"><ele>212.0</ele><time>2026-05-01T15:56:09.729Z</time></trkpt><trkpt lat="43.674925" lon="11.1091217"><ele>210.0</ele><time>2026-05-01T15:56:10.729Z</time></trkpt><trkpt lat="43.67509" lon="11.1092133"><ele>208.33333333333331</ele><time>2026-05-01T15:56:11.728Z</time></trkpt><trkpt lat="43.67525" lon="11.1093133"><ele>206.66666666666666</ele><time>2026-05-01T15:56:12.729Z</time></trkpt><trkpt lat="43.6754033" lon="11.1094483"><ele>205.0</ele><time>2026-05-01T15:56:13.728Z</time></trkpt><trkpt lat="43.6755417" lon="11.1095967"><ele>202.33333333333331</ele><time>2026-05-01T15:56:14.73Z</time></trkpt><trkpt lat="43.67568" lon="11.1097717"><ele>199.66666666666669</ele><time>2026-05-01T15:56:15.729Z</time></trkpt><trkpt lat="43.6758167" lon="11.1099533"><ele>197.0</ele><time>2026-05-01T15:56:16.728Z</time></trkpt><trkpt lat="43.6759567" lon="11.1101367"><ele>197.0</ele><time>2026-05-01T15:56:17.729Z</time></trkpt><trkpt lat="43.6761017" lon="11.1103167"><ele>197.0</ele><time>2026-05-01T15:56:18.728Z</time></trkpt><trkpt lat="43.6762433" lon="11.11049"><ele>197.0</ele><time>2026-05-01T15:56:19.727Z</time></trkpt><trkpt lat="43.6763917" lon="11.1106617"><ele>195.0</ele><time>2026-05-01T15:56:20.729Z</time></trkpt><trkpt lat="43.6765517" lon="11.110815"><ele>193.0</ele><time>2026-05-01T15:56:21.728Z</time></trkpt><trkpt lat="43.6767083" lon="11.1109533"><ele>191.0</ele><time>2026-05-01T15:56:22.728Z</time></trkpt><trkpt lat="43.67687" lon="11.1110683"><ele>188.66666666666666</ele><time>2026-05-01T15:56:23.728Z</time></trkpt><trkpt lat="43.67703" lon="11.1111633"><ele>186.33333333333334</ele><time>2026-05-01T15:56:24.729Z</time></trkpt><trkpt lat="43.6771817" lon="11.1112583"><ele>184.0</ele><time>2026-05-01T15:56:25.73Z</time></trkpt><trkpt lat="43.6773267" lon="11.11135"><ele>184.0</ele><time>2026-05-01T15:56:26.73Z</time></trkpt><trkpt lat="43.6774633" lon="11.1114433"><ele>184.0</ele><time>2026-05-01T15:56:27.728Z</time></trkpt><trkpt lat="43.67759" lon="11.1115467"><ele>184.0</ele><time>2026-05-01T15:56:28.73Z</time></trkpt><trkpt lat="43.6777017" lon="11.1116783"><ele>184.0</ele><time>2026-05-01T15:56:29.73Z</time></trkpt><trkpt lat="43.6777983" lon="11.1118267"><ele>184.66666666666669</ele><time>2026-05-01T15:56:30.727Z</time></trkpt><trkpt lat="43.6778867" lon="11.11199"><ele>185.33333333333334</ele><time>2026-05-01T15:56:31.729Z</time></trkpt><trkpt lat="43.6779867" lon="11.1121483"><ele>186.0</ele><time>2026-05-01T15:56:32.729Z</time></trkpt><trkpt lat="43.6781017" lon="11.1123"><ele>185.0</ele><time>2026-05-01T15:56:33.729Z</time></trkpt><trkpt lat="43.67822" lon="11.11243"><ele>184.0</ele><time>2026-05-01T15:56:34.729Z</time></trkpt><trkpt lat="43.67834" lon="11.1125483"><ele>183.0</ele><time>2026-05-01T15:56:35.728Z</time></trkpt><trkpt lat="43.6784533" lon="11.11265"><ele>182.0</ele><time>2026-05-01T15:56:36.729Z</time></trkpt><trkpt lat="43.6785483" lon="11.11274"><ele>182.0</ele><time>2026-05-01T15:56:37.73Z</time></trkpt><trkpt lat="43.6786183" lon="11.1128333"><ele>182.0</ele><time>2026-05-01T15:56:38.73Z</time></trkpt><trkpt lat="43.6786517" lon="11.1129433"><ele>182.0</ele><time>2026-05-01T15:56:39.729Z</time></trkpt><trkpt lat="43.6786717" lon="11.11305"><ele>182.0</ele><time>2026-05-01T15:56:40.727Z</time></trkpt><trkpt lat="43.678635" lon="11.1131333"><ele>182.0</ele><time>2026-05-01T15:56:41.728Z</time></trkpt><trkpt lat="43.6785717" lon="11.1131917"><ele>182.0</ele><time>2026-05-01T15:56:42.728Z</time></trkpt><trkpt lat="43.678465" lon="11.1131817"><ele>182.0</ele><time>2026-05-01T15:56:43.728Z</time></trkpt><trkpt lat="43.6783567" lon="11.1131617"><ele>182.0</ele><time>2026-05-01T15:56:44.731Z</time></trkpt><trkpt lat="43.67822" lon="11.1130917"><ele>182.0</ele><time>2026-05-01T15:56:45.727Z</time></trkpt><trkpt lat="43.6780667" lon="11.1130167"><ele>182.0</ele><time>2026-05-01T15:56:46.728Z</time></trkpt><trkpt lat="43.6779017" lon="11.1129583"><ele>180.33333333333331</ele><time>2026-05-01T15:56:47.73Z</time></trkpt><trkpt lat="43.6777417" lon="11.11294"><ele>178.66666666666666</ele><time>2026-05-01T15:56:48.73Z</time></trkpt><trkpt lat="43.6775667" lon="11.1129567"><ele>177.0</ele><time>2026-05-01T15:56:49.729Z</time></trkpt><trkpt lat="43.6773617" lon="11.1129917"><ele>177.0</ele><time>2026-05-01T15:56:50.729Z</time></trkpt><trkpt lat="43.6771567" lon="11.113045"><ele>177.0</ele><time>2026-05-01T15:56:51.729Z</time></trkpt><trkpt lat="43.6769683" lon="11.1131133"><ele>177.0</ele><time>2026-05-01T15:56:52.73Z</time></trkpt><trkpt lat="43.6768" lon="11.1131883"><ele>177.0</ele><time>2026-05-01T15:56:53.728Z</time></trkpt><trkpt lat="43.6766533" lon="11.1132417"><ele>177.0</ele><time>2026-05-01T15:56:54.731Z</time></trkpt><trkpt lat="43.6765133" lon="11.11324"><ele>177.0</ele><time>2026-05-01T15:56:55.728Z</time></trkpt><trkpt lat="43.6763767" lon="11.1131783"><ele>177.0</ele><time>2026-05-01T15:56:56.728Z</time></trkpt><trkpt lat="43.676245" lon="11.1130667"><ele>177.0</ele><time>2026-05-01T15:56:57.729Z</time></trkpt><trkpt lat="43.6761317" lon="11.1129083"><ele>177.0</ele><time>2026-05-01T15:56:58.728Z</time></trkpt><trkpt lat="43.676025" lon="11.1127633"><ele>177.0</ele><time>2026-05-01T15:56:59.728Z</time></trkpt><trkpt lat="43.675915" lon="11.1126567"><ele>177.0</ele><time>2026-05-01T15:57:00.729Z</time></trkpt><trkpt lat="43.6758067" lon="11.1125667"><ele>175.0</ele><time>2026-05-01T15:57:01.729Z</time></trkpt><trkpt lat="43.6757033" lon="11.1125467"><ele>173.0</ele><time>2026-05-01T15:57:02.73Z</time></trkpt><trkpt lat="43.6756233" lon="11.1126033"><ele>171.0</ele><time>2026-05-01T15:57:03.729Z</time></trkpt><trkpt lat="43.675555" lon="11.1126717"><ele>169.0</ele><time>2026-05-01T15:57:04.729Z</time></trkpt><trkpt lat="43.6755083" lon="11.1128033"><ele>167.0</ele><time>2026-05-01T15:57:05.729Z</time></trkpt><trkpt lat="43.6756883" lon="11.1131317"><ele>163.33333333333331</ele><time>2026-05-01T15:57:06.729Z</time></trkpt><trkpt lat="43.6757983" lon="11.1133567"><ele>159.66666666666666</ele><time>2026-05-01T15:57:07.728Z</time></trkpt><trkpt lat="43.6759067" lon="11.1135783"><ele>156.0</ele><time>2026-05-01T15:57:08.728Z</time></trkpt><trkpt lat="43.6760317" lon="11.1137983"><ele>154.0</ele><time>2026-05-01T15:57:09.729Z</time></trkpt><trkpt lat="43.6761767" lon="11.1140017"><ele>152.0</ele><time>2026-05-01T15:57:10.728Z</time></trkpt><trkpt lat="43.6763383" lon="11.1141667"><ele>150.0</ele><time>2026-05-01T15:57:11.728Z</time></trkpt><trkpt lat="43.6765083" lon="11.1142983"><ele>150.0</ele><time>2026-05-01T15:57:12.728Z</time></trkpt><trkpt lat="43.6766983" lon="11.114395"><ele>150.0</ele><time>2026-05-01T15:57:13.729Z</time></trkpt><trkpt lat="43.6768867" lon="11.1144667"><ele>150.0</ele><time>2026-05-01T15:57:14.729Z</time></trkpt><trkpt lat="43.677065" lon="11.114525"><ele>150.66666666666666</ele><time>2026-05-01T15:57:15.73Z</time></trkpt><trkpt lat="43.67723" lon="11.114575"><ele>151.33333333333331</ele><time>2026-05-01T15:57:16.727Z</time></trkpt><trkpt lat="43.6773833" lon="11.11462"><ele>152.0</ele><time>2026-05-01T15:57:17.729Z</time></trkpt><trkpt lat="43.677515" lon="11.1146917"><ele>152.0</ele><time>2026-05-01T15:57:18.729Z</time></trkpt><trkpt lat="43.67762" lon="11.1148083"><ele>152.0</ele><time>2026-05-01T15:57:19.73Z</time></trkpt><trkpt lat="43.6776967" lon="11.1149733"><ele>152.0</ele><time>2026-05-01T15:57:20.728Z</time></trkpt><trkpt lat="43.6777433" lon="11.1151783"><ele>152.0</ele><time>2026-05-01T15:57:21.729Z</time></trkpt><trkpt lat="43.6777817" lon="11.1154083"><ele>153.0</ele><time>2026-05-01T15:57:22.731Z</time></trkpt><trkpt lat="43.677825" lon="11.1156567"><ele>154.0</ele><time>2026-05-01T15:57:23.73Z</time></trkpt><trkpt lat="43.67787" lon="11.1159133"><ele>155.0</ele><time>2026-05-01T15:57:24.731Z</time></trkpt><trkpt lat="43.6779183" lon="11.1161633"><ele>152.0</ele><time>2026-05-01T15:57:25.73Z</time></trkpt><trkpt lat="43.67798" lon="11.116405"><ele>149.0</ele><time>2026-05-01T15:57:26.729Z</time></trkpt><trkpt lat="43.67805" lon="11.1166367"><ele>146.0</ele><time>2026-05-01T15:57:27.729Z</time></trkpt><trkpt lat="43.6781233" lon="11.116855"><ele>142.66666666666666</ele><time>2026-05-01T15:57:28.729Z</time></trkpt><trkpt lat="43.6781983" lon="11.1170733"><ele>139.33333333333334</ele><time>2026-05-01T15:57:29.729Z</time></trkpt><trkpt lat="43.6782533" lon="11.1172867"><ele>136.0</ele><time>2026-05-01T15:57:30.728Z</time></trkpt><trkpt lat="43.6782867" lon="11.1175067"><ele>133.66666666666669</ele><time>2026-05-01T15:57:31.729Z</time></trkpt><trkpt lat="43.6782883" lon="11.1177317"><ele>131.33333333333334</ele><time>2026-05-01T15:57:32.729Z</time></trkpt><trkpt lat="43.6782667" lon="11.11796"><ele>129.0</ele><time>2026-05-01T15:57:33.729Z</time></trkpt><trkpt lat="43.6782433" lon="11.1181917"><ele>126.66666666666666</ele><time>2026-05-01T15:57:34.728Z</time></trkpt><trkpt lat="43.6782233" lon="11.11842"><ele>124.33333333333333</ele><time>2026-05-01T15:57:35.73Z</time></trkpt><trkpt lat="43.6782167" lon="11.1186433"><ele>122.0</ele><time>2026-05-01T15:57:36.729Z</time></trkpt><trkpt lat="43.678245" lon="11.1188617"><ele>119.0</ele><time>2026-05-01T15:57:37.73Z</time></trkpt><trkpt lat="43.678305" lon="11.1190717"><ele>116.0</ele><time>2026-05-01T15:57:38.73Z</time></trkpt><trkpt lat="43.6784033" lon="11.1192667"><ele>113.0</ele><time>2026-05-01T15:57:39.729Z</time></trkpt><trkpt lat="43.6785267" lon="11.1194417"><ele>113.66666666666666</ele><time>2026-05-01T15:57:40.728Z</time></trkpt><trkpt lat="43.6786517" lon="11.11961"><ele>114.33333333333334</ele><time>2026-05-01T15:57:41.728Z</time></trkpt><trkpt lat="43.6787817" lon="11.1197633"><ele>115.0</ele><time>2026-05-01T15:57:42.728Z</time></trkpt><trkpt lat="43.6789117" lon="11.1199067"><ele>111.33333333333334</ele><time>2026-05-01T15:57:43.729Z</time></trkpt><trkpt lat="43.6790383" lon="11.1200467"><ele>107.66666666666666</ele><time>2026-05-01T15:57:44.73Z</time></trkpt><trkpt lat="43.6791683" lon="11.1201817"><ele>104.0</ele><time>2026-05-01T15:57:45.73Z</time></trkpt><trkpt lat="43.6792933" lon="11.1203167"><ele>104.0</ele><time>2026-05-01T15:57:46.729Z</time></trkpt><trkpt lat="43.67942" lon="11.120455"><ele>104.0</ele><time>2026-05-01T15:57:47.728Z</time></trkpt><trkpt lat="43.679545" lon="11.1205933"><ele>104.0</ele><time>2026-05-01T15:57:48.729Z</time></trkpt><trkpt lat="43.6796717" lon="11.1207283"><ele>100.0</ele><time>2026-05-01T15:57:49.729Z</time></trkpt><trkpt lat="43.679795" lon="11.12086"><ele>96.0</ele><time>2026-05-01T15:57:50.729Z</time></trkpt><trkpt lat="43.6799167" lon="11.1209967"><ele>92.0</ele><time>2026-05-01T15:57:51.729Z</time></trkpt><trkpt lat="43.6800333" lon="11.1211317"><ele>92.0</ele><time>2026-05-01T15:57:52.728Z</time></trkpt><trkpt lat="43.6801567" lon="11.12127"><ele>92.0</ele><time>2026-05-01T15:57:53.73Z</time></trkpt><trkpt lat="43.6802717" lon="11.121395"><ele>92.0</ele><time>2026-05-01T15:57:54.728Z</time></trkpt><trkpt lat="43.6803867" lon="11.12152"><ele>89.75</ele><time>2026-05-01T15:57:55.728Z</time></trkpt><trkpt lat="43.6805" lon="11.1216483"><ele>87.5</ele><time>2026-05-01T15:57:56.73Z</time></trkpt><trkpt lat="43.68061" lon="11.1217733"><ele>85.25</ele><time>2026-05-01T15:57:57.728Z</time></trkpt><trkpt lat="43.6807267" lon="11.1219"><ele>83.0</ele><time>2026-05-01T15:57:58.729Z</time></trkpt><trkpt lat="43.6808383" lon="11.1220383"><ele>83.0</ele><time>2026-05-01T15:57:59.73Z</time></trkpt><trkpt lat="43.680945" lon="11.1221883"><ele>83.0</ele><time>2026-05-01T15:58:00.73Z</time></trkpt><trkpt lat="43.6810433" lon="11.1223517"><ele>83.0</ele><time>2026-05-01T15:58:01.73Z</time></trkpt><trkpt lat="43.6811317" lon="11.12252"><ele>82.5</ele><time>2026-05-01T15:58:02.73Z</time></trkpt><trkpt lat="43.68122" lon="11.1226833"><ele>82.0</ele><time>2026-05-01T15:58:03.729Z</time></trkpt><trkpt lat="43.6813067" lon="11.1228483"><ele>81.5</ele><time>2026-05-01T15:58:04.728Z</time></trkpt><trkpt lat="43.6813917" lon="11.1230133"><ele>81.0</ele><time>2026-05-01T15:58:05.729Z</time></trkpt><trkpt lat="43.6814867" lon="11.123175"><ele>79.75</ele><time>2026-05-01T15:58:06.728Z</time></trkpt><trkpt lat="43.6815783" lon="11.1233417"><ele>78.5</ele><time>2026-05-01T15:58:07.73Z</time></trkpt><trkpt lat="43.68167" lon="11.1235017"><ele>77.25</ele><time>2026-05-01T15:58:08.729Z</time></trkpt><trkpt lat="43.6817567" lon="11.1236533"><ele>76.0</ele><time>2026-05-01T15:58:09.73Z</time></trkpt><trkpt lat="43.68185" lon="11.1238033"><ele>76.0</ele><time>2026-05-01T15:58:10.729Z</time></trkpt><trkpt lat="43.6819467" lon="11.1239583"><ele>76.0</ele><time>2026-05-01T15:58:11.73Z</time></trkpt><trkpt lat="43.6820467" lon="11.1241133"><ele>76.0</ele><time>2026-05-01T15:58:12.729Z</time></trkpt><trkpt lat="43.6821517" lon="11.124265"><ele>76.0</ele><time>2026-05-01T15:58:13.728Z</time></trkpt><trkpt lat="43.682255" lon="11.1244183"><ele>76.0</ele><time>2026-05-01T15:58:14.728Z</time></trkpt><trkpt lat="43.68236" lon="11.1245717"><ele>76.0</ele><time>2026-05-01T15:58:15.729Z</time></trkpt><trkpt lat="43.6824633" lon="11.1247167"><ele>76.0</ele><time>2026-05-01T15:58:16.729Z</time></trkpt><trkpt lat="43.682565" lon="11.1248517"><ele>76.0</ele><time>2026-05-01T15:58:17.731Z</time></trkpt><trkpt lat="43.6826667" lon="11.12499"><ele>76.0</ele><time>2026-05-01T15:58:18.731Z</time></trkpt><trkpt lat="43.682765" lon="11.125125"><ele>76.0</ele><time>2026-05-01T15:58:19.73Z</time></trkpt><trkpt lat="43.6828633" lon="11.12526"><ele>76.0</ele><time>2026-05-01T15:58:20.731Z</time></trkpt><trkpt lat="43.6829517" lon="11.1253833"><ele>76.0</ele><time>2026-05-01T15:58:21.731Z</time></trkpt><trkpt lat="43.6830317" lon="11.1254917"><ele>76.0</ele><time>2026-05-01T15:58:22.732Z</time></trkpt><trkpt lat="43.6831067" lon="11.1255883"><ele>76.0</ele><time>2026-05-01T15:58:23.73Z</time></trkpt><trkpt lat="43.6831783" lon="11.1256867"><ele>76.0</ele><time>2026-05-01T15:58:24.729Z</time></trkpt><trkpt lat="43.6832533" lon="11.1257833"><ele>76.0</ele><time>2026-05-01T15:58:25.729Z</time></trkpt><trkpt lat="43.6833267" lon="11.1258817"><ele>76.0</ele><time>2026-05-01T15:58:26.729Z</time></trkpt><trkpt lat="43.6833983" lon="11.125985"><ele>76.0</ele><time>2026-05-01T15:58:27.727Z</time></trkpt><trkpt lat="43.68347" lon="11.126095"><ele>76.0</ele><time>2026-05-01T15:58:28.729Z</time></trkpt><trkpt lat="43.683535" lon="11.12622"><ele>76.0</ele><time>2026-05-01T15:58:29.728Z</time></trkpt><trkpt lat="43.683595" lon="11.12636"><ele>76.0</ele><time>2026-05-01T15:58:30.728Z</time></trkpt><trkpt lat="43.6836433" lon="11.126505"><ele>76.0</ele><time>2026-05-01T15:58:31.728Z</time></trkpt><trkpt lat="43.6836917" lon="11.1266483"><ele>76.0</ele><time>2026-05-01T15:58:32.728Z</time></trkpt><trkpt lat="43.6837417" lon="11.1267817"><ele>76.0</ele><time>2026-05-01T15:58:33.728Z</time></trkpt><trkpt lat="43.6837933" lon="11.1269083"><ele>76.0</ele><time>2026-05-01T15:58:34.728Z</time></trkpt><trkpt lat="43.6838467" lon="11.1270233"><ele>76.83333333333333</ele><time>2026-05-01T15:58:35.729Z</time></trkpt><trkpt lat="43.6838967" lon="11.1271217"><ele>77.66666666666666</ele><time>2026-05-01T15:58:36.727Z</time></trkpt><trkpt lat="43.6839483" lon="11.127215"><ele>78.5</ele><time>2026-05-01T15:58:37.727Z</time></trkpt><trkpt lat="43.6839983" lon="11.127295"><ele>79.33333333333333</ele><time>2026-05-01T15:58:38.728Z</time></trkpt><trkpt lat="43.6840433" lon="11.1273633"><ele>80.16666666666667</ele><time>2026-05-01T15:58:39.729Z</time></trkpt><trkpt lat="43.68411" lon="11.1274567"><ele>81.0</ele><time>2026-05-01T15:58:41.728Z</time></trkpt><trkpt lat="43.6841717" lon="11.1275467"><ele>81.16666666666667</ele><time>2026-05-01T15:58:44.728Z</time></trkpt><trkpt lat="43.6842067" lon="11.12763"><ele>81.33333333333333</ele><time>2026-05-01T15:58:46.727Z</time></trkpt><trkpt lat="43.6842567" lon="11.1277317"><ele>81.5</ele><time>2026-05-01T15:58:48.727Z</time></trkpt><trkpt lat="43.684295" lon="11.1278267"><ele>81.66666666666666</ele><time>2026-05-01T15:58:50.728Z</time></trkpt><trkpt lat="43.6843267" lon="11.127915"><ele>81.83333333333333</ele><time>2026-05-01T15:58:52.727Z</time></trkpt><trkpt lat="43.6843683" lon="11.1280283"><ele>82.0</ele><time>2026-05-01T15:58:54.727Z</time></trkpt><trkpt lat="43.68442" lon="11.1281467"><ele>82.33333333333333</ele><time>2026-05-01T15:58:56.728Z</time></trkpt><trkpt lat="43.6844967" lon="11.1282783"><ele>82.66666666666666</ele><time>2026-05-01T15:58:58.727Z</time></trkpt><trkpt lat="43.68454" lon="11.1283517"><ele>83.0</ele><time>2026-05-01T15:58:59.729Z</time></trkpt><trkpt lat="43.6845817" lon="11.1284333"><ele>83.33333333333333</ele><time>2026-05-01T15:59:00.727Z</time></trkpt><trkpt lat="43.68462" lon="11.1285233"><ele>83.66666666666667</ele><time>2026-05-01T15:59:01.727Z</time></trkpt><trkpt lat="43.684655" lon="11.1286267"><ele>84.0</ele><time>2026-05-01T15:59:02.728Z</time></trkpt><trkpt lat="43.6846867" lon="11.1287417"><ele>84.0</ele><time>2026-05-01T15:59:03.728Z</time></trkpt><trkpt lat="43.6847167" lon="11.1288617"><ele>84.0</ele><time>2026-05-01T15:59:04.728Z</time></trkpt><trkpt lat="43.68475" lon="11.128985"><ele>84.0</ele><time>2026-05-01T15:59:05.728Z</time></trkpt><trkpt lat="43.6847883" lon="11.1291033"><ele>84.0</ele><time>2026-05-01T15:59:06.728Z</time></trkpt><trkpt lat="43.6848333" lon="11.1292167"><ele>84.0</ele><time>2026-05-01T15:59:07.728Z</time></trkpt><trkpt lat="43.6848617" lon="11.129325"><ele>84.16666666666667</ele><time>2026-05-01T15:59:08.728Z</time></trkpt><trkpt lat="43.684905" lon="11.1294333"><ele>84.33333333333333</ele><time>2026-05-01T15:59:09.726Z</time></trkpt><trkpt lat="43.6849583" lon="11.1295333"><ele>84.5</ele><time>2026-05-01T15:59:10.727Z</time></trkpt><trkpt lat="43.685015" lon="11.1296267"><ele>84.66666666666666</ele><time>2026-05-01T15:59:11.727Z</time></trkpt><trkpt lat="43.6850767" lon="11.1297183"><ele>84.83333333333333</ele><time>2026-05-01T15:59:12.728Z</time></trkpt><trkpt lat="43.6851367" lon="11.1298033"><ele>85.0</ele><time>2026-05-01T15:59:13.728Z</time></trkpt><trkpt lat="43.685215" lon="11.12988"><ele>85.83333333333333</ele><time>2026-05-01T15:59:14.729Z</time></trkpt><trkpt lat="43.68529" lon="11.129955"><ele>86.66666666666666</ele><time>2026-05-01T15:59:15.727Z</time></trkpt><trkpt lat="43.68536" lon="11.1300283"><ele>87.5</ele><time>2026-05-01T15:59:16.726Z</time></trkpt><trkpt lat="43.6854333" lon="11.1301"><ele>88.33333333333333</ele><time>2026-05-01T15:59:17.727Z</time></trkpt><trkpt lat="43.685505" lon="11.1301683"><ele>89.16666666666667</ele><time>2026-05-01T15:59:18.727Z</time></trkpt><trkpt lat="43.6855733" lon="11.130235"><ele>90.0</ele><time>2026-05-01T15:59:19.727Z</time></trkpt><trkpt lat="43.68564" lon="11.1303017"><ele>90.0</ele><time>2026-05-01T15:59:20.727Z</time></trkpt><trkpt lat="43.6857083" lon="11.13037"><ele>90.0</ele><time>2026-05-01T15:59:21.728Z</time></trkpt><trkpt lat="43.68578" lon="11.130445"><ele>90.0</ele><time>2026-05-01T15:59:22.728Z</time></trkpt><trkpt lat="43.6858483" lon="11.1305167"><ele>90.0</ele><time>2026-05-01T15:59:23.727Z</time></trkpt><trkpt lat="43.6859217" lon="11.1305933"><ele>90.0</ele><time>2026-05-01T15:59:24.727Z</time></trkpt><trkpt lat="43.6859933" lon="11.1306667"><ele>90.0</ele><time>2026-05-01T15:59:25.727Z</time></trkpt><trkpt lat="43.6860583" lon="11.130735"><ele>90.8</ele><time>2026-05-01T15:59:26.728Z</time></trkpt><trkpt lat="43.6861283" lon="11.1308117"><ele>91.6</ele><time>2026-05-01T15:59:27.729Z</time></trkpt><trkpt lat="43.6862017" lon="11.130885"><ele>92.4</ele><time>2026-05-01T15:59:28.726Z</time></trkpt><trkpt lat="43.6862783" lon="11.1309633"><ele>93.2</ele><time>2026-05-01T15:59:29.728Z</time></trkpt><trkpt lat="43.686355" lon="11.131045"><ele>94.0</ele><time>2026-05-01T15:59:30.728Z</time></trkpt><trkpt lat="43.6864367" lon="11.131135"><ele>94.0</ele><time>2026-05-01T15:59:31.728Z</time></trkpt><trkpt lat="43.6865167" lon="11.13122"><ele>94.0</ele><time>2026-05-01T15:59:32.728Z</time></trkpt><trkpt lat="43.6865933" lon="11.1313183"><ele>94.0</ele><time>2026-05-01T15:59:33.727Z</time></trkpt><trkpt lat="43.6866733" lon="11.1314267"><ele>94.0</ele><time>2026-05-01T15:59:34.728Z</time></trkpt><trkpt lat="43.68675" lon="11.1315417"><ele>94.0</ele><time>2026-05-01T15:59:35.728Z</time></trkpt><trkpt lat="43.6868267" lon="11.131665"><ele>93.75</ele><time>2026-05-01T15:59:36.727Z</time></trkpt><trkpt lat="43.6868967" lon="11.1317983"><ele>93.5</ele><time>2026-05-01T15:59:37.728Z</time></trkpt><trkpt lat="43.68697" lon="11.1319333"><ele>93.25</ele><time>2026-05-01T15:59:38.728Z</time></trkpt><trkpt lat="43.6870483" lon="11.1320683"><ele>93.0</ele><time>2026-05-01T15:59:39.728Z</time></trkpt><trkpt lat="43.6871267" lon="11.1322017"><ele>93.80000000000001</ele><time>2026-05-01T15:59:40.729Z</time></trkpt><trkpt lat="43.6872017" lon="11.1323333"><ele>94.6</ele><time>2026-05-01T15:59:41.728Z</time></trkpt><trkpt lat="43.6872733" lon="11.1324617"><ele>95.4</ele><time>2026-05-01T15:59:42.728Z</time></trkpt><trkpt lat="43.687335" lon="11.1325817"><ele>96.19999999999999</ele><time>2026-05-01T15:59:43.728Z</time></trkpt><trkpt lat="43.68738" lon="11.1327"><ele>97.0</ele><time>2026-05-01T15:59:44.728Z</time></trkpt><trkpt lat="43.6874133" lon="11.132815"><ele>97.6</ele><time>2026-05-01T15:59:45.728Z</time></trkpt><trkpt lat="43.687435" lon="11.1329267"><ele>98.19999999999999</ele><time>2026-05-01T15:59:46.728Z</time></trkpt><trkpt lat="43.6874617" lon="11.13305"><ele>98.8</ele><time>2026-05-01T15:59:47.727Z</time></trkpt><trkpt lat="43.6874933" lon="11.1331867"><ele>99.4</ele><time>2026-05-01T15:59:48.727Z</time></trkpt><trkpt lat="43.6875217" lon="11.133325"><ele>100.0</ele><time>2026-05-01T15:59:49.728Z</time></trkpt><trkpt lat="43.6875433" lon="11.13347"><ele>100.00000000000001</ele><time>2026-05-01T15:59:50.728Z</time></trkpt><trkpt lat="43.6875683" lon="11.1336117"><ele>100.0</ele><time>2026-05-01T15:59:51.727Z</time></trkpt><trkpt lat="43.687595" lon="11.1337517"><ele>100.0</ele><time>2026-05-01T15:59:52.727Z</time></trkpt><trkpt lat="43.6876267" lon="11.133865"><ele>100.0</ele><time>2026-05-01T15:59:53.728Z</time></trkpt><trkpt lat="43.68766" lon="11.133965"><ele>100.00000000000001</ele><time>2026-05-01T15:59:54.727Z</time></trkpt><trkpt lat="43.6876917" lon="11.1340467"><ele>100.0</ele><time>2026-05-01T15:59:55.728Z</time></trkpt><trkpt lat="43.6877367" lon="11.1341567"><ele>101.2</ele><time>2026-05-01T15:59:57.729Z</time></trkpt><trkpt lat="43.687785" lon="11.1342967"><ele>102.4</ele><time>2026-05-01T15:59:59.728Z</time></trkpt><trkpt lat="43.6878183" lon="11.1344083"><ele>103.6</ele><time>2026-05-01T16:00:00.728Z</time></trkpt><trkpt lat="43.687865" lon="11.13453"><ele>104.8</ele><time>2026-05-01T16:00:01.729Z</time></trkpt><trkpt lat="43.6879333" lon="11.1346767"><ele>106.0</ele><time>2026-05-01T16:00:02.728Z</time></trkpt><trkpt lat="43.688" lon="11.1348367"><ele>106.25</ele><time>2026-05-01T16:00:03.729Z</time></trkpt><trkpt lat="43.6880683" lon="11.134975"><ele>106.5</ele><time>2026-05-01T16:00:04.727Z</time></trkpt><trkpt lat="43.68815" lon="11.1351267"><ele>106.75</ele><time>2026-05-01T16:00:05.728Z</time></trkpt><trkpt lat="43.6882317" lon="11.13528"><ele>107.0</ele><time>2026-05-01T16:00:06.728Z</time></trkpt><trkpt lat="43.68832" lon="11.1354417"><ele>107.0</ele><time>2026-05-01T16:00:07.728Z</time></trkpt><trkpt lat="43.68841" lon="11.1356133"><ele>107.0</ele><time>2026-05-01T16:00:08.728Z</time></trkpt><trkpt lat="43.6884983" lon="11.1357933"><ele>107.0</ele><time>2026-05-01T16:00:09.728Z</time></trkpt><trkpt lat="43.688585" lon="11.1359683"><ele>107.66666666666666</ele><time>2026-05-01T16:00:10.727Z</time></trkpt><trkpt lat="43.6886783" lon="11.1361417"><ele>108.33333333333334</ele><time>2026-05-01T16:00:11.728Z</time></trkpt><trkpt lat="43.6887817" lon="11.1363117"><ele>109.0</ele><time>2026-05-01T16:00:12.731Z</time></trkpt><trkpt lat="43.6888983" lon="11.136465"><ele>111.0</ele><time>2026-05-01T16:00:13.728Z</time></trkpt><trkpt lat="43.6890233" lon="11.1366017"><ele>113.0</ele><time>2026-05-01T16:00:14.729Z</time></trkpt><trkpt lat="43.68915" lon="11.1367333"><ele>115.0</ele><time>2026-05-01T16:00:15.728Z</time></trkpt><trkpt lat="43.689275" lon="11.13687"><ele>115.0</ele><time>2026-05-01T16:00:16.728Z</time></trkpt><trkpt lat="43.6893833" lon="11.1370067"><ele>115.0</ele><time>2026-05-01T16:00:17.73Z</time></trkpt><trkpt lat="43.689485" lon="11.1371533"><ele>115.0</ele><time>2026-05-01T16:00:18.73Z</time></trkpt><trkpt lat="43.6895583" lon="11.1373283"><ele>115.0</ele><time>2026-05-01T16:00:19.73Z</time></trkpt><trkpt lat="43.68962" lon="11.137505"><ele>115.66666666666667</ele><time>2026-05-01T16:00:20.73Z</time></trkpt><trkpt lat="43.6896733" lon="11.1377117"><ele>116.33333333333334</ele><time>2026-05-01T16:00:21.728Z</time></trkpt><trkpt lat="43.689735" lon="11.13792"><ele>117.0</ele><time>2026-05-01T16:00:22.73Z</time></trkpt><trkpt lat="43.68981" lon="11.1381333"><ele>118.33333333333334</ele><time>2026-05-01T16:00:23.728Z</time></trkpt><trkpt lat="43.6898933" lon="11.1383367"><ele>119.66666666666667</ele><time>2026-05-01T16:00:24.73Z</time></trkpt><trkpt lat="43.689985" lon="11.1385367"><ele>121.0</ele><time>2026-05-01T16:00:25.729Z</time></trkpt><trkpt lat="43.6900817" lon="11.1387417"><ele>121.0</ele><time>2026-05-01T16:00:26.73Z</time></trkpt><trkpt lat="43.6901633" lon="11.1389367"><ele>121.0</ele><time>2026-05-01T16:00:27.74Z</time></trkpt><trkpt lat="43.6902367" lon="11.1391267"><ele>121.0</ele><time>2026-05-01T16:00:28.728Z</time></trkpt><trkpt lat="43.6903017" lon="11.1393267"><ele>121.0</ele><time>2026-05-01T16:00:29.728Z</time></trkpt><trkpt lat="43.6903583" lon="11.1395283"><ele>121.0</ele><time>2026-05-01T16:00:30.728Z</time></trkpt><trkpt lat="43.6904067" lon="11.13974"><ele>121.0</ele><time>2026-05-01T16:00:31.728Z</time></trkpt><trkpt lat="43.6904667" lon="11.1399583"><ele>123.33333333333334</ele><time>2026-05-01T16:00:32.728Z</time></trkpt><trkpt lat="43.6905317" lon="11.140175"><ele>125.66666666666666</ele><time>2026-05-01T16:00:33.729Z</time></trkpt><trkpt lat="43.6906183" lon="11.140395"><ele>128.0</ele><time>2026-05-01T16:00:34.728Z</time></trkpt><trkpt lat="43.6907" lon="11.1406183"><ele>128.66666666666666</ele><time>2026-05-01T16:00:35.731Z</time></trkpt><trkpt lat="43.6907783" lon="11.14086"><ele>129.33333333333334</ele><time>2026-05-01T16:00:36.73Z</time></trkpt><trkpt lat="43.6908483" lon="11.141105"><ele>130.0</ele><time>2026-05-01T16:00:37.729Z</time></trkpt><trkpt lat="43.6909083" lon="11.1413483"><ele>132.0</ele><time>2026-05-01T16:00:38.731Z</time></trkpt><trkpt lat="43.690965" lon="11.141585"><ele>134.0</ele><time>2026-05-01T16:00:39.729Z</time></trkpt><trkpt lat="43.6910183" lon="11.14181"><ele>136.0</ele><time>2026-05-01T16:00:40.729Z</time></trkpt><trkpt lat="43.6910767" lon="11.1420217"><ele>135.33333333333334</ele><time>2026-05-01T16:00:41.729Z</time></trkpt><trkpt lat="43.6911583" lon="11.142205"><ele>134.66666666666666</ele><time>2026-05-01T16:00:42.729Z</time></trkpt><trkpt lat="43.69125" lon="11.1423733"><ele>134.0</ele><time>2026-05-01T16:00:43.728Z</time></trkpt><trkpt lat="43.6913483" lon="11.142525"><ele>136.5</ele><time>2026-05-01T16:00:44.728Z</time></trkpt><trkpt lat="43.69145" lon="11.1426617"><ele>139.0</ele><time>2026-05-01T16:00:45.729Z</time></trkpt><trkpt lat="43.6915417" lon="11.14281"><ele>141.5</ele><time>2026-05-01T16:00:46.73Z</time></trkpt><trkpt lat="43.6916383" lon="11.1429833"><ele>144.0</ele><time>2026-05-01T16:00:47.73Z</time></trkpt><trkpt lat="43.6917383" lon="11.143185"><ele>146.33333333333334</ele><time>2026-05-01T16:00:48.729Z</time></trkpt><trkpt lat="43.6918333" lon="11.1433967"><ele>148.66666666666669</ele><time>2026-05-01T16:00:49.729Z</time></trkpt><trkpt lat="43.6919317" lon="11.1436133"><ele>151.0</ele><time>2026-05-01T16:00:50.729Z</time></trkpt><trkpt lat="43.6920317" lon="11.1438333"><ele>156.66666666666669</ele><time>2026-05-01T16:00:51.73Z</time></trkpt><trkpt lat="43.6921233" lon="11.1440717"><ele>162.33333333333334</ele><time>2026-05-01T16:00:52.73Z</time></trkpt><trkpt lat="43.692205" lon="11.14431"><ele>168.0</ele><time>2026-05-01T16:00:53.729Z</time></trkpt><trkpt lat="43.6922833" lon="11.1445467"><ele>168.0</ele><time>2026-05-01T16:00:54.729Z</time></trkpt><trkpt lat="43.6923633" lon="11.1447717"><ele>168.0</ele><time>2026-05-01T16:00:55.73Z</time></trkpt><trkpt lat="43.6924533" lon="11.1450017"><ele>168.0</ele><time>2026-05-01T16:00:56.736Z</time></trkpt><trkpt lat="43.692555" lon="11.1452267"><ele>169.0</ele><time>2026-05-01T16:00:57.728Z</time></trkpt><trkpt lat="43.692665" lon="11.1454467"><ele>170.0</ele><time>2026-05-01T16:00:58.73Z</time></trkpt><trkpt lat="43.6927817" lon="11.1456517"><ele>171.0</ele><time>2026-05-01T16:00:59.729Z</time></trkpt><trkpt lat="43.692895" lon="11.145845"><ele>175.0</ele><time>2026-05-01T16:01:00.73Z</time></trkpt><trkpt lat="43.6930133" lon="11.1460417"><ele>179.0</ele><time>2026-05-01T16:01:01.729Z</time></trkpt><trkpt lat="43.6931217" lon="11.1462133"><ele>183.0</ele><time>2026-05-01T16:01:02.73Z</time></trkpt><trkpt lat="43.6932317" lon="11.1463867"><ele>184.33333333333334</ele><time>2026-05-01T16:01:03.728Z</time></trkpt><trkpt lat="43.693315" lon="11.1465617"><ele>185.66666666666669</ele><time>2026-05-01T16:01:04.729Z</time></trkpt><trkpt lat="43.69339" lon="11.1467483"><ele>187.0</ele><time>2026-05-01T16:01:05.729Z</time></trkpt><trkpt lat="43.69344" lon="11.14696"><ele>187.0</ele><time>2026-05-01T16:01:06.729Z</time></trkpt><trkpt lat="43.6934833" lon="11.1471833"><ele>187.0</ele><time>2026-05-01T16:01:07.73Z</time></trkpt><trkpt lat="43.6935183" lon="11.1474183"><ele>187.0</ele><time>2026-05-01T16:01:08.729Z</time></trkpt><trkpt lat="43.6935533" lon="11.1476683"><ele>185.0</ele><time>2026-05-01T16:01:09.728Z</time></trkpt><trkpt lat="43.6935917" lon="11.1479317"><ele>183.0</ele><time>2026-05-01T16:01:10.73Z</time></trkpt><trkpt lat="43.69363" lon="11.14821"><ele>181.0</ele><time>2026-05-01T16:01:11.728Z</time></trkpt><trkpt lat="43.69367" lon="11.148495"><ele>181.0</ele><time>2026-05-01T16:01:12.73Z</time></trkpt><trkpt lat="43.6937067" lon="11.148785"><ele>181.0</ele><time>2026-05-01T16:01:13.73Z</time></trkpt><trkpt lat="43.69374" lon="11.1490783"><ele>181.0</ele><time>2026-05-01T16:01:14.73Z</time></trkpt><trkpt lat="43.693775" lon="11.1493683"><ele>183.66666666666669</ele><time>2026-05-01T16:01:15.731Z</time></trkpt><trkpt lat="43.6938067" lon="11.149655"><ele>186.33333333333334</ele><time>2026-05-01T16:01:16.728Z</time></trkpt><trkpt lat="43.6938367" lon="11.1499217"><ele>189.0</ele><time>2026-05-01T16:01:17.729Z</time></trkpt><trkpt lat="43.6938667" lon="11.1501783"><ele>193.33333333333331</ele><time>2026-05-01T16:01:18.73Z</time></trkpt><trkpt lat="43.6939017" lon="11.1504133"><ele>197.66666666666666</ele><time>2026-05-01T16:01:19.729Z</time></trkpt><trkpt lat="43.6939517" lon="11.150635"><ele>202.0</ele><time>2026-05-01T16:01:20.731Z</time></trkpt><trkpt lat="43.6940167" lon="11.1508317"><ele>203.5</ele><time>2026-05-01T16:01:21.728Z</time></trkpt><trkpt lat="43.6940883" lon="11.1510033"><ele>205.0</ele><time>2026-05-01T16:01:22.731Z</time></trkpt><trkpt lat="43.69417" lon="11.1511467"><ele>206.5</ele><time>2026-05-01T16:01:23.729Z</time></trkpt><trkpt lat="43.6942433" lon="11.151295"><ele>208.0</ele><time>2026-05-01T16:01:24.729Z</time></trkpt><trkpt lat="43.6943133" lon="11.1514683"><ele>208.66666666666666</ele><time>2026-05-01T16:01:25.729Z</time></trkpt><trkpt lat="43.6943867" lon="11.1516633"><ele>209.33333333333331</ele><time>2026-05-01T16:01:26.728Z</time></trkpt><trkpt lat="43.6944467" lon="11.1518733"><ele>210.0</ele><time>2026-05-01T16:01:27.728Z</time></trkpt><trkpt lat="43.6944933" lon="11.152095"><ele>204.66666666666669</ele><time>2026-05-01T16:01:28.728Z</time></trkpt><trkpt lat="43.6945367" lon="11.1523133"><ele>199.33333333333334</ele><time>2026-05-01T16:01:29.729Z</time></trkpt><trkpt lat="43.6945783" lon="11.1525283"><ele>194.0</ele><time>2026-05-01T16:01:30.729Z</time></trkpt><trkpt lat="43.69463" lon="11.1527333"><ele>194.0</ele><time>2026-05-01T16:01:31.729Z</time></trkpt><trkpt lat="43.6947033" lon="11.1529233"><ele>194.0</ele><time>2026-05-01T16:01:32.728Z</time></trkpt><trkpt lat="43.694805" lon="11.1530867"><ele>194.0</ele><time>2026-05-01T16:01:33.729Z</time></trkpt><trkpt lat="43.6949333" lon="11.1532333"><ele>195.66666666666669</ele><time>2026-05-01T16:01:34.729Z</time></trkpt><trkpt lat="43.6950717" lon="11.1533717"><ele>197.33333333333331</ele><time>2026-05-01T16:01:35.729Z</time></trkpt><trkpt lat="43.69522" lon="11.1534817"><ele>199.0</ele><time>2026-05-01T16:01:36.731Z</time></trkpt><trkpt lat="43.69536" lon="11.153605"><ele>199.0</ele><time>2026-05-01T16:01:37.729Z</time></trkpt><trkpt lat="43.6954917" lon="11.1537417"><ele>199.0</ele><time>2026-05-01T16:01:38.729Z</time></trkpt><trkpt lat="43.6956017" lon="11.1539133"><ele>199.0</ele><time>2026-05-01T16:01:39.729Z</time></trkpt><trkpt lat="43.6957" lon="11.154105"><ele>201.0</ele><time>2026-05-01T16:01:40.73Z</time></trkpt><trkpt lat="43.695795" lon="11.154305"><ele>203.0</ele><time>2026-05-01T16:01:41.729Z</time></trkpt><trkpt lat="43.6958833" lon="11.1545033"><ele>205.0</ele><time>2026-05-01T16:01:42.73Z</time></trkpt><trkpt lat="43.695955" lon="11.15469"><ele>205.0</ele><time>2026-05-01T16:01:43.728Z</time></trkpt><trkpt lat="43.6960033" lon="11.1548733"><ele>205.0</ele><time>2026-05-01T16:01:44.729Z</time></trkpt><trkpt lat="43.6960117" lon="11.1550417"><ele>205.0</ele><time>2026-05-01T16:01:45.728Z</time></trkpt><trkpt lat="43.6959933" lon="11.155195"><ele>205.0</ele><time>2026-05-01T16:01:46.728Z</time></trkpt><trkpt lat="43.6959683" lon="11.1553383"><ele>205.0</ele><time>2026-05-01T16:01:47.73Z</time></trkpt><trkpt lat="43.6959383" lon="11.1554733"><ele>205.0</ele><time>2026-05-01T16:01:48.73Z</time></trkpt><trkpt lat="43.6959233" lon="11.1556"><ele>205.0</ele><time>2026-05-01T16:01:49.728Z</time></trkpt><trkpt lat="43.6959133" lon="11.15571"><ele>205.0</ele><time>2026-05-01T16:01:50.73Z</time></trkpt><trkpt lat="43.695915" lon="11.1558417"><ele>205.0</ele><time>2026-05-01T16:01:51.731Z</time></trkpt><trkpt lat="43.695905" lon="11.1559683"><ele>207.5</ele><time>2026-05-01T16:01:52.729Z</time></trkpt><trkpt lat="43.6959017" lon="11.15612"><ele>210.0</ele><time>2026-05-01T16:01:53.729Z</time></trkpt><trkpt lat="43.6959017" lon="11.1562783"><ele>212.5</ele><time>2026-05-01T16:01:54.73Z</time></trkpt><trkpt lat="43.6959067" lon="11.156455"><ele>215.0</ele><time>2026-05-01T16:01:55.728Z</time></trkpt><trkpt lat="43.695905" lon="11.1566417"><ele>217.5</ele><time>2026-05-01T16:01:56.73Z</time></trkpt><trkpt lat="43.6958917" lon="11.1568233"><ele>220.0</ele><time>2026-05-01T16:01:57.729Z</time></trkpt><trkpt lat="43.6958817" lon="11.1570417"><ele>222.5</ele><time>2026-05-01T16:01:58.729Z</time></trkpt><trkpt lat="43.6958733" lon="11.157215"><ele>225.0</ele><time>2026-05-01T16:01:59.729Z</time></trkpt><trkpt lat="43.6958667" lon="11.157375"><ele>226.2</ele><time>2026-05-01T16:02:00.728Z</time></trkpt><trkpt lat="43.6958767" lon="11.15755"><ele>227.4</ele><time>2026-05-01T16:02:01.73Z</time></trkpt><trkpt lat="43.695885" lon="11.1577117"><ele>228.60000000000002</ele><time>2026-05-01T16:02:02.729Z</time></trkpt><trkpt lat="43.69589" lon="11.1578533"><ele>229.8</ele><time>2026-05-01T16:02:03.727Z</time></trkpt><trkpt lat="43.6958983" lon="11.1579533"><ele>231.0</ele><time>2026-05-01T16:02:04.728Z</time></trkpt><trkpt lat="43.6959183" lon="11.1580367"><ele>231.0</ele><time>2026-05-01T16:02:05.729Z</time></trkpt><trkpt lat="43.6959417" lon="11.158135"><ele>231.0</ele><time>2026-05-01T16:02:06.728Z</time></trkpt><trkpt lat="43.6959733" lon="11.1582333"><ele>231.0</ele><time>2026-05-01T16:02:07.73Z</time></trkpt><trkpt lat="43.696" lon="11.1583433"><ele>231.0</ele><time>2026-05-01T16:02:08.729Z</time></trkpt><trkpt lat="43.6960333" lon="11.1584617"><ele>231.0</ele><time>2026-05-01T16:02:09.73Z</time></trkpt><trkpt lat="43.6960617" lon="11.1585767"><ele>231.0</ele><time>2026-05-01T16:02:10.73Z</time></trkpt><trkpt lat="43.6960883" lon="11.1586917"><ele>230.66666666666666</ele><time>2026-05-01T16:02:11.729Z</time></trkpt><trkpt lat="43.6961083" lon="11.1588067"><ele>230.33333333333331</ele><time>2026-05-01T16:02:12.728Z</time></trkpt><trkpt lat="43.696125" lon="11.158925"><ele>230.0</ele><time>2026-05-01T16:02:13.729Z</time></trkpt><trkpt lat="43.6961433" lon="11.1590367"><ele>229.66666666666666</ele><time>2026-05-01T16:02:14.73Z</time></trkpt><trkpt lat="43.696165" lon="11.1591367"><ele>229.33333333333331</ele><time>2026-05-01T16:02:15.729Z</time></trkpt><trkpt lat="43.6962" lon="11.1592317"><ele>229.0</ele><time>2026-05-01T16:02:16.729Z</time></trkpt><trkpt lat="43.6962433" lon="11.159325"><ele>230.16666666666666</ele><time>2026-05-01T16:02:17.73Z</time></trkpt><trkpt lat="43.6962917" lon="11.15942"><ele>231.33333333333331</ele><time>2026-05-01T16:02:18.728Z</time></trkpt><trkpt lat="43.6963433" lon="11.1594983"><ele>232.5</ele><time>2026-05-01T16:02:19.729Z</time></trkpt><trkpt lat="43.6964" lon="11.159575"><ele>233.66666666666669</ele><time>2026-05-01T16:02:20.73Z</time></trkpt><trkpt lat="43.69646" lon="11.1596533"><ele>234.83333333333334</ele><time>2026-05-01T16:02:21.729Z</time></trkpt><trkpt lat="43.6965233" lon="11.1597233"><ele>236.0</ele><time>2026-05-01T16:02:22.727Z</time></trkpt><trkpt lat="43.6965883" lon="11.1597867"><ele>236.00000000000003</ele><time>2026-05-01T16:02:23.728Z</time></trkpt><trkpt lat="43.6966583" lon="11.1598383"><ele>236.0</ele><time>2026-05-01T16:02:24.729Z</time></trkpt><trkpt lat="43.6967283" lon="11.1599"><ele>236.0</ele><time>2026-05-01T16:02:25.73Z</time></trkpt><trkpt lat="43.6968017" lon="11.1599433"><ele>236.0</ele><time>2026-05-01T16:02:26.73Z</time></trkpt><trkpt lat="43.696875" lon="11.160005"><ele>236.00000000000003</ele><time>2026-05-01T16:02:27.728Z</time></trkpt><trkpt lat="43.6969467" lon="11.1600883"><ele>236.0</ele><time>2026-05-01T16:02:28.728Z</time></trkpt><trkpt lat="43.6970283" lon="11.1601933"><ele>236.0</ele><time>2026-05-01T16:02:29.729Z</time></trkpt><trkpt lat="43.6971167" lon="11.160305"><ele>236.0</ele><time>2026-05-01T16:02:30.729Z</time></trkpt><trkpt lat="43.6972033" lon="11.16042"><ele>236.0</ele><time>2026-05-01T16:02:31.73Z</time></trkpt><trkpt lat="43.6972883" lon="11.1605"><ele>236.0</ele><time>2026-05-01T16:02:32.729Z</time></trkpt><trkpt lat="43.6973733" lon="11.1606067"><ele>235.8</ele><time>2026-05-01T16:02:33.73Z</time></trkpt><trkpt lat="43.6974583" lon="11.1607133"><ele>235.60000000000002</ele><time>2026-05-01T16:02:34.727Z</time></trkpt><trkpt lat="43.6975333" lon="11.1608133"><ele>235.4</ele><time>2026-05-01T16:02:35.728Z</time></trkpt><trkpt lat="43.6975933" lon="11.1609083"><ele>235.2</ele><time>2026-05-01T16:02:36.728Z</time></trkpt><trkpt lat="43.69765" lon="11.161025"><ele>235.0</ele><time>2026-05-01T16:02:37.728Z</time></trkpt><trkpt lat="43.6977083" lon="11.1611333"><ele>234.4</ele><time>2026-05-01T16:02:38.727Z</time></trkpt><trkpt lat="43.697755" lon="11.16126"><ele>233.8</ele><time>2026-05-01T16:02:39.728Z</time></trkpt><trkpt lat="43.697805" lon="11.1614017"><ele>233.2</ele><time>2026-05-01T16:02:40.728Z</time></trkpt><trkpt lat="43.6978517" lon="11.161545"><ele>232.6</ele><time>2026-05-01T16:02:41.729Z</time></trkpt><trkpt lat="43.6979" lon="11.161685"><ele>232.0</ele><time>2026-05-01T16:02:42.727Z</time></trkpt><trkpt lat="43.6979517" lon="11.161825"><ele>232.0</ele><time>2026-05-01T16:02:43.727Z</time></trkpt><trkpt lat="43.69801" lon="11.161965"><ele>232.0</ele><time>2026-05-01T16:02:44.728Z</time></trkpt><trkpt lat="43.698065" lon="11.1621033"><ele>232.0</ele><time>2026-05-01T16:02:45.727Z</time></trkpt><trkpt lat="43.6981283" lon="11.162235"><ele>232.0</ele><time>2026-05-01T16:02:46.727Z</time></trkpt><trkpt lat="43.6982" lon="11.162355"><ele>232.75</ele><time>2026-05-01T16:02:47.727Z</time></trkpt><trkpt lat="43.6982867" lon="11.1624533"><ele>233.5</ele><time>2026-05-01T16:02:48.727Z</time></trkpt><trkpt lat="43.6983933" lon="11.1625483"><ele>234.25</ele><time>2026-05-01T16:02:49.727Z</time></trkpt><trkpt lat="43.69851" lon="11.1626167"><ele>235.0</ele><time>2026-05-01T16:02:50.729Z</time></trkpt><trkpt lat="43.6986317" lon="11.16267"><ele>236.5</ele><time>2026-05-01T16:02:51.728Z</time></trkpt><trkpt lat="43.6987517" lon="11.1627083"><ele>238.0</ele><time>2026-05-01T16:02:52.728Z</time></trkpt><trkpt lat="43.698875" lon="11.1627317"><ele>239.5</ele><time>2026-05-01T16:02:53.728Z</time></trkpt><trkpt lat="43.699005" lon="11.1627483"><ele>241.0</ele><time>2026-05-01T16:02:54.729Z</time></trkpt><trkpt lat="43.6991367" lon="11.1627433"><ele>241.0</ele><time>2026-05-01T16:02:55.727Z</time></trkpt><trkpt lat="43.6992683" lon="11.1627267"><ele>241.0</ele><time>2026-05-01T16:02:56.729Z</time></trkpt><trkpt lat="43.69941" lon="11.162715"><ele>241.0</ele><time>2026-05-01T16:02:57.728Z</time></trkpt><trkpt lat="43.6995467" lon="11.162695"><ele>241.0</ele><time>2026-05-01T16:02:58.728Z</time></trkpt><trkpt lat="43.6996883" lon="11.16268"><ele>242.5</ele><time>2026-05-01T16:02:59.728Z</time></trkpt><trkpt lat="43.6998133" lon="11.162675"><ele>244.0</ele><time>2026-05-01T16:03:00.73Z</time></trkpt><trkpt lat="43.6999283" lon="11.1627"><ele>245.5</ele><time>2026-05-01T16:03:01.727Z</time></trkpt><trkpt lat="43.7000367" lon="11.1627367"><ele>247.0</ele><time>2026-05-01T16:03:02.727Z</time></trkpt><trkpt lat="43.700145" lon="11.1627967"><ele>246.5</ele><time>2026-05-01T16:03:03.726Z</time></trkpt><trkpt lat="43.7002567" lon="11.1628717"><ele>246.0</ele><time>2026-05-01T16:03:04.726Z</time></trkpt><trkpt lat="43.7003717" lon="11.16294"><ele>245.5</ele><time>2026-05-01T16:03:05.727Z</time></trkpt><trkpt lat="43.7004867" lon="11.1630083"><ele>245.0</ele><time>2026-05-01T16:03:06.727Z</time></trkpt><trkpt lat="43.7005983" lon="11.1630667"><ele>245.00000000000003</ele><time>2026-05-01T16:03:07.728Z</time></trkpt><trkpt lat="43.7007017" lon="11.1631233"><ele>245.0</ele><time>2026-05-01T16:03:08.728Z</time></trkpt><trkpt lat="43.70079" lon="11.1631717"><ele>245.0</ele><time>2026-05-01T16:03:09.728Z</time></trkpt><trkpt lat="43.7008633" lon="11.163215"><ele>245.0</ele><time>2026-05-01T16:03:10.727Z</time></trkpt><trkpt lat="43.700925" lon="11.1632517"><ele>245.00000000000003</ele><time>2026-05-01T16:03:11.727Z</time></trkpt><trkpt lat="43.7009783" lon="11.1633083"><ele>245.0</ele><time>2026-05-01T16:03:13.726Z</time></trkpt><trkpt lat="43.7009933" lon="11.1633983"><ele>245.0</ele><time>2026-05-01T16:03:15.728Z</time></trkpt><trkpt lat="43.7009667" lon="11.1635317"><ele>245.0</ele><time>2026-05-01T16:03:17.727Z</time></trkpt><trkpt lat="43.70085" lon="11.163805"><ele>245.0</ele><time>2026-05-01T16:03:19.981Z</time></trkpt><trkpt lat="43.700945" lon="11.163765"><ele>245.0</ele><time>2026-05-01T16:03:21.229Z</time></trkpt><trkpt lat="43.7009583" lon="11.1638933"><ele>245.0</ele><time>2026-05-01T16:03:24.73Z</time></trkpt><trkpt lat="43.7010267" lon="11.1639833"><ele>245.0</ele><time>2026-05-01T16:03:26.729Z</time></trkpt><trkpt lat="43.7010867" lon="11.1640133"><ele>245.0</ele><time>2026-05-01T16:03:28.727Z</time></trkpt><trkpt lat="43.7011522" lon="11.1639753"><ele>245.0</ele><time>2026-05-01T16:04:29.802Z</time></trkpt><trkpt lat="43.7011779" lon="11.1638934"><ele>245.0</ele><time>2026-05-01T16:07:53.805Z</time></trkpt><trkpt lat="43.7012976" lon="11.1637089"><ele>244.33333333333334</ele><time>2026-05-01T16:08:06.728Z</time></trkpt><trkpt lat="43.7012223" lon="11.1638106"><ele>243.66666666666669</ele><time>2026-05-01T16:08:07.74Z</time></trkpt><trkpt lat="43.7014273" lon="11.1635298"><ele>243.0</ele><time>2026-05-01T16:08:14.728Z</time></trkpt><trkpt lat="43.7014756" lon="11.1634652"><ele>243.0</ele><time>2026-05-01T16:08:15.752Z</time></trkpt><trkpt lat="43.7015167" lon="11.1633961"><ele>243.0</ele><time>2026-05-01T16:08:18.825Z</time></trkpt><trkpt lat="43.7013124" lon="11.1638136"><ele>243.0</ele><time>2026-05-01T16:08:33.623Z</time></trkpt><trkpt lat="43.7012281" lon="11.1639861"><ele>243.0</ele><time>2026-05-01T16:08:38.704Z</time></trkpt><trkpt lat="43.7012418" lon="11.1638992"><ele>243.0</ele><time>2026-05-01T16:10:48.809Z</time></trkpt><trkpt lat="43.7012603" lon="11.1637974"><ele>243.0</ele><time>2026-05-01T16:10:52.728Z</time></trkpt><trkpt lat="43.7012223" lon="11.1639954"><ele>243.0</ele><time>2026-05-01T16:11:48.311Z</time></trkpt><trkpt lat="43.701246" lon="11.1639137"><ele>243.0</ele><time>2026-05-01T17:00:42.774Z</time></trkpt><trkpt lat="43.701237" lon="11.1638225"><ele>243.0</ele><time>2026-05-01T17:00:52.815Z</time></trkpt><trkpt lat="43.7012595" lon="11.1637407"><ele>243.0</ele><time>2026-05-01T17:01:36.769Z</time></trkpt><trkpt lat="43.7012309" lon="11.1638192"><ele>243.0</ele><time>2026-05-01T17:02:51.765Z</time></trkpt><trkpt lat="43.701253" lon="11.1639015"><ele>243.0</ele><time>2026-05-01T17:03:44.733Z</time></trkpt><trkpt lat="43.7012661" lon="11.1638144"><ele>243.0</ele><time>2026-05-01T17:04:38.727Z</time></trkpt><trkpt lat="43.7012536" lon="11.1637277"><ele>243.0</ele><time>2026-05-01T17:04:57.779Z</time></trkpt><trkpt lat="43.7012696" lon="11.1636373"><ele>243.0</ele><time>2026-05-01T17:06:10.728Z</time></trkpt><trkpt lat="43.701222" lon="11.1636968"><ele>243.0</ele><time>2026-05-01T17:07:23.767Z</time></trkpt><trkpt lat="43.7012099" lon="11.1637863"><ele>243.0</ele><time>2026-05-01T17:07:33.728Z</time></trkpt><trkpt lat="43.7011871" lon="11.1638709"><ele>243.0</ele><time>2026-05-01T17:07:52.758Z</time></trkpt><trkpt lat="43.7011623" lon="11.1639524"><ele>243.0</ele><time>2026-05-01T17:08:19.804Z</time></trkpt><trkpt lat="43.7012284" lon="11.1639452"><ele>243.0</ele><time>2026-05-01T17:09:51.727Z</time></trkpt><trkpt lat="43.7011941" lon="11.1638699"><ele>243.0</ele><time>2026-05-01T17:10:51.732Z</time></trkpt><trkpt lat="43.7011892" lon="11.1639569"><ele>243.0</ele><time>2026-05-01T17:11:36.808Z</time></trkpt><trkpt lat="43.701166" lon="11.1638689"><ele>243.0</ele><time>2026-05-01T17:13:23.761Z</time></trkpt><trkpt lat="43.7011472" lon="11.163775"><ele>243.0</ele><time>2026-05-01T17:14:07.727Z</time></trkpt><trkpt lat="43.701175" lon="11.1638669"><ele>243.0</ele><time>2026-05-01T17:14:19.729Z</time></trkpt><trkpt lat="43.7011636" lon="11.163775"><ele>243.0</ele><time>2026-05-01T17:15:21.728Z</time></trkpt><trkpt lat="43.7011664" lon="11.1636618"><ele>243.0</ele><time>2026-05-01T17:15:32.727Z</time></trkpt><trkpt lat="43.7011958" lon="11.1635779"><ele>243.0</ele><time>2026-05-01T17:15:46.726Z</time></trkpt><trkpt lat="43.70123" lon="11.1634941"><ele>243.0</ele><time>2026-05-01T17:15:54.727Z</time></trkpt><trkpt lat="43.7012383" lon="11.1639811"><ele>243.0</ele><time>2026-05-01T17:16:25.555Z</time></trkpt><trkpt lat="43.7013021" lon="11.1639319"><ele>243.0</ele><time>2026-05-01T17:17:07.728Z</time></trkpt><trkpt lat="43.7012659" lon="11.1638064"><ele>243.0</ele><time>2026-05-01T17:17:16.727Z</time></trkpt><trkpt lat="43.701267" lon="11.1638942"><ele>243.0</ele><time>2026-05-01T17:18:01.728Z</time></trkpt><trkpt lat="43.7013441" lon="11.1638426"><ele>243.0</ele><time>2026-05-01T17:18:33.729Z</time></trkpt><trkpt lat="43.701408" lon="11.1638764"><ele>243.0</ele><time>2026-05-01T17:18:36.729Z</time></trkpt><trkpt lat="43.7014732" lon="11.1639237"><ele>243.0</ele><time>2026-05-01T17:18:39.727Z</time></trkpt><trkpt lat="43.7015341" lon="11.1639685"><ele>243.0</ele><time>2026-05-01T17:18:43.728Z</time></trkpt><trkpt lat="43.7014879" lon="11.1638804"><ele>243.0</ele><time>2026-05-01T17:19:03.728Z</time></trkpt><trkpt lat="43.7015501" lon="11.1637551"><ele>243.0</ele><time>2026-05-01T17:19:07.727Z</time></trkpt><trkpt lat="43.7015427" lon="11.1636433"><ele>243.0</ele><time>2026-05-01T17:19:10.727Z</time></trkpt><trkpt lat="43.7014992" lon="11.1635768"><ele>243.0</ele><time>2026-05-01T17:19:12.726Z</time></trkpt><trkpt lat="43.7014344" lon="11.1635214"><ele>243.0</ele><time>2026-05-01T17:19:15.726Z</time></trkpt><trkpt lat="43.7013664" lon="11.1635178"><ele>243.0</ele><time>2026-05-01T17:19:20.727Z</time></trkpt><trkpt lat="43.7013329" lon="11.1635948"><ele>243.0</ele><time>2026-05-01T17:19:27.728Z</time></trkpt><trkpt lat="43.7013215" lon="11.1636922"><ele>243.0</ele><time>2026-05-01T17:19:40.727Z</time></trkpt><trkpt lat="43.7012485" lon="11.1637174"><ele>243.0</ele><time>2026-05-01T17:19:44.727Z</time></trkpt><trkpt lat="43.7011397" lon="11.1637276"><ele>243.0</ele><time>2026-05-01T17:19:56.728Z</time></trkpt><trkpt lat="43.7012176" lon="11.1637375"><ele>243.0</ele><time>2026-05-01T17:20:08.728Z</time></trkpt><trkpt lat="43.7013014" lon="11.1637468"><ele>243.0</ele><time>2026-05-01T17:20:12.726Z</time></trkpt><trkpt lat="43.7012637" lon="11.1636688"><ele>243.0</ele><time>2026-05-01T17:20:29.727Z</time></trkpt><trkpt lat="43.701257" lon="11.1635766"><ele>243.0</ele><time>2026-05-01T17:20:38.728Z</time></trkpt><trkpt lat="43.7013151" lon="11.163543"><ele>243.0</ele><time>2026-05-01T17:20:43.728Z</time></trkpt><trkpt lat="43.701367" lon="11.1634841"><ele>243.0</ele><time>2026-05-01T17:21:01.725Z</time></trkpt><trkpt lat="43.7013477" lon="11.1635848"><ele>243.0</ele><time>2026-05-01T17:21:05.727Z</time></trkpt><trkpt lat="43.7013183" lon="11.1636657"><ele>243.0</ele><time>2026-05-01T17:21:09.727Z</time></trkpt><trkpt lat="43.7012482" lon="11.1637576"><ele>243.0</ele><time>2026-05-01T17:21:11.726Z</time></trkpt><trkpt lat="43.7011892" lon="11.163842"><ele>243.0</ele><time>2026-05-01T17:21:13.728Z</time></trkpt><trkpt lat="43.7011269" lon="11.1639202"><ele>243.0</ele><time>2026-05-01T17:21:16.727Z</time></trkpt><trkpt lat="43.7010682" lon="11.1639566"><ele>243.0</ele><time>2026-05-01T17:21:22.727Z</time></trkpt><trkpt lat="43.7012633" lon="11.1639636"><ele>19.0</ele><time>2026-05-01T17:21:49.403Z</time></trkpt><trkpt lat="43.717285" lon="10.7811967"><ele>240.0</ele><time>2026-05-01T17:23:27.728Z</time></trkpt><trkpt lat="43.6995023" lon="11.1644503"><ele>241.0</ele><time>2026-05-01T17:23:39.728Z</time></trkpt><trkpt lat="43.7003792" lon="11.164672"><ele>241.0</ele><time>2026-05-01T17:23:40.728Z</time></trkpt><trkpt lat="43.7006796" lon="11.1647494"><ele>241.0</ele><time>2026-05-01T17:23:41.727Z</time></trkpt><trkpt lat="43.7008688" lon="11.1644533"><ele>241.0</ele><time>2026-05-01T17:23:42.728Z</time></trkpt><trkpt lat="43.7009538" lon="11.1642944"><ele>241.00000000000003</ele><time>2026-05-01T17:23:43.727Z</time></trkpt><trkpt lat="43.7009896" lon="11.1642137"><ele>241.00000000000003</ele><time>2026-05-01T17:23:44.727Z</time></trkpt><trkpt lat="43.7010754" lon="11.1642091"><ele>241.0</ele><time>2026-05-01T17:24:24.785Z</time></trkpt><trkpt lat="43.7011001" lon="11.164101"><ele>241.0</ele><time>2026-05-01T17:24:27.727Z</time></trkpt><trkpt lat="43.7010583" lon="11.1641811"><ele>241.60000000000002</ele><time>2026-05-01T17:24:57.727Z</time></trkpt><trkpt lat="43.7011224" lon="11.1640499"><ele>242.20000000000002</ele><time>2026-05-01T17:25:33.728Z</time></trkpt><trkpt lat="43.7010235" lon="11.1639869"><ele>242.79999999999998</ele><time>2026-05-01T17:29:55.729Z</time></trkpt><trkpt lat="43.7009699" lon="11.1639102"><ele>243.39999999999998</ele><time>2026-05-01T17:29:57.729Z</time></trkpt><trkpt lat="43.7009057" lon="11.1638411"><ele>244.0</ele><time>2026-05-01T17:30:00.728Z</time></trkpt><trkpt lat="43.7009106" lon="11.1637447"><ele>244.16666666666666</ele><time>2026-05-01T17:30:03.728Z</time></trkpt><trkpt lat="43.7009292" lon="11.1636412"><ele>244.33333333333331</ele><time>2026-05-01T17:30:05.728Z</time></trkpt><trkpt lat="43.7009661" lon="11.1635234"><ele>244.5</ele><time>2026-05-01T17:30:07.726Z</time></trkpt><trkpt lat="43.7010053" lon="11.1634257"><ele>244.66666666666669</ele><time>2026-05-01T17:30:09.728Z</time></trkpt><trkpt lat="43.7010717" lon="11.1634012"><ele>244.83333333333334</ele><time>2026-05-01T17:30:12.726Z</time></trkpt><trkpt lat="43.70114" lon="11.16342"><ele>245.0</ele><time>2026-05-01T17:30:14.728Z</time></trkpt><trkpt lat="43.701235" lon="11.163465"><ele>244.66666666666669</ele><time>2026-05-01T17:30:16.727Z</time></trkpt><trkpt lat="43.7013333" lon="11.163555"><ele>244.33333333333334</ele><time>2026-05-01T17:30:18.728Z</time></trkpt><trkpt lat="43.7013817" lon="11.1636167"><ele>244.0</ele><time>2026-05-01T17:30:19.728Z</time></trkpt><trkpt lat="43.701435" lon="11.1637017"><ele>243.66666666666669</ele><time>2026-05-01T17:30:20.727Z</time></trkpt><trkpt lat="43.7014867" lon="11.1637833"><ele>243.33333333333334</ele><time>2026-05-01T17:30:21.728Z</time></trkpt><trkpt lat="43.7015317" lon="11.1638517"><ele>243.0</ele><time>2026-05-01T17:30:22.729Z</time></trkpt><trkpt lat="43.7015983" lon="11.16395"><ele>243.2</ele><time>2026-05-01T17:30:24.728Z</time></trkpt><trkpt lat="43.701685" lon="11.1640767"><ele>243.4</ele><time>2026-05-01T17:30:26.728Z</time></trkpt><trkpt lat="43.7017467" lon="11.1641717"><ele>243.59999999999997</ele><time>2026-05-01T17:30:27.728Z</time></trkpt><trkpt lat="43.7018183" lon="11.1642833"><ele>243.79999999999998</ele><time>2026-05-01T17:30:28.729Z</time></trkpt><trkpt lat="43.7019033" lon="11.1643967"><ele>244.0</ele><time>2026-05-01T17:30:29.729Z</time></trkpt><trkpt lat="43.701985" lon="11.1645217"><ele>243.66666666666666</ele><time>2026-05-01T17:30:30.727Z</time></trkpt><trkpt lat="43.7020633" lon="11.1646383"><ele>243.33333333333331</ele><time>2026-05-01T17:30:31.728Z</time></trkpt><trkpt lat="43.702125" lon="11.1647333"><ele>243.0</ele><time>2026-05-01T17:30:32.729Z</time></trkpt><trkpt lat="43.7021733" lon="11.1648083"><ele>242.66666666666669</ele><time>2026-05-01T17:30:33.727Z</time></trkpt><trkpt lat="43.702225" lon="11.1648867"><ele>242.33333333333334</ele><time>2026-05-01T17:30:34.727Z</time></trkpt><trkpt lat="43.70228" lon="11.16498"><ele>242.0</ele><time>2026-05-01T17:30:35.728Z</time></trkpt><trkpt lat="43.70234" lon="11.1650867"><ele>243.0</ele><time>2026-05-01T17:30:36.727Z</time></trkpt><trkpt lat="43.702395" lon="11.1652133"><ele>244.0</ele><time>2026-05-01T17:30:37.726Z</time></trkpt><trkpt lat="43.7024533" lon="11.1653517"><ele>245.0</ele><time>2026-05-01T17:30:38.729Z</time></trkpt><trkpt lat="43.702515" lon="11.1654917"><ele>246.0</ele><time>2026-05-01T17:30:39.727Z</time></trkpt><trkpt lat="43.7025683" lon="11.1656417"><ele>246.5</ele><time>2026-05-01T17:30:40.729Z</time></trkpt><trkpt lat="43.70262" lon="11.1658033"><ele>247.0</ele><time>2026-05-01T17:30:41.727Z</time></trkpt><trkpt lat="43.70267" lon="11.165965"><ele>247.5</ele><time>2026-05-01T17:30:42.728Z</time></trkpt><trkpt lat="43.7027233" lon="11.1661233"><ele>248.0</ele><time>2026-05-01T17:30:43.726Z</time></trkpt><trkpt lat="43.7027783" lon="11.1662867"><ele>248.25</ele><time>2026-05-01T17:30:44.728Z</time></trkpt><trkpt lat="43.70284" lon="11.166455"><ele>248.5</ele><time>2026-05-01T17:30:45.727Z</time></trkpt><trkpt lat="43.7029183" lon="11.166605"><ele>248.75</ele><time>2026-05-01T17:30:46.729Z</time></trkpt><trkpt lat="43.703" lon="11.16675"><ele>249.0</ele><time>2026-05-01T17:30:47.728Z</time></trkpt><trkpt lat="43.703095" lon="11.166885"><ele>250.75</ele><time>2026-05-01T17:30:48.727Z</time></trkpt><trkpt lat="43.7032" lon="11.167015"><ele>252.5</ele><time>2026-05-01T17:30:49.727Z</time></trkpt><trkpt lat="43.703305" lon="11.1671433"><ele>254.25</ele><time>2026-05-01T17:30:50.729Z</time></trkpt><trkpt lat="43.703405" lon="11.1672617"><ele>256.0</ele><time>2026-05-01T17:30:51.727Z</time></trkpt><trkpt lat="43.7035133" lon="11.167355"><ele>257.25</ele><time>2026-05-01T17:30:52.728Z</time></trkpt><trkpt lat="43.70363" lon="11.167435"><ele>258.5</ele><time>2026-05-01T17:30:53.728Z</time></trkpt><trkpt lat="43.7037533" lon="11.167505"><ele>259.75</ele><time>2026-05-01T17:30:54.728Z</time></trkpt><trkpt lat="43.703885" lon="11.1675783"><ele>261.0</ele><time>2026-05-01T17:30:55.727Z</time></trkpt><trkpt lat="43.7040217" lon="11.1676383"><ele>261.0</ele><time>2026-05-01T17:30:56.727Z</time></trkpt><trkpt lat="43.7041617" lon="11.1677083"><ele>261.0</ele><time>2026-05-01T17:30:57.727Z</time></trkpt><trkpt lat="43.7043033" lon="11.1677917"><ele>261.0</ele><time>2026-05-01T17:30:58.728Z</time></trkpt><trkpt lat="43.7044417" lon="11.16788"><ele>261.25</ele><time>2026-05-01T17:30:59.726Z</time></trkpt><trkpt lat="43.7045783" lon="11.16797"><ele>261.5</ele><time>2026-05-01T17:31:00.728Z</time></trkpt><trkpt lat="43.70471" lon="11.1680583"><ele>261.75</ele><time>2026-05-01T17:31:01.727Z</time></trkpt><trkpt lat="43.704835" lon="11.16815"><ele>262.0</ele><time>2026-05-01T17:31:02.727Z</time></trkpt><trkpt lat="43.704955" lon="11.1682433"><ele>262.5</ele><time>2026-05-01T17:31:03.727Z</time></trkpt><trkpt lat="43.7050733" lon="11.1683433"><ele>263.0</ele><time>2026-05-01T17:31:04.726Z</time></trkpt><trkpt lat="43.70519" lon="11.16844"><ele>263.5</ele><time>2026-05-01T17:31:05.728Z</time></trkpt><trkpt lat="43.7053217" lon="11.168515"><ele>264.0</ele><time>2026-05-01T17:31:06.728Z</time></trkpt><trkpt lat="43.705465" lon="11.16858"><ele>265.0</ele><time>2026-05-01T17:31:07.728Z</time></trkpt><trkpt lat="43.705615" lon="11.1686233"><ele>266.0</ele><time>2026-05-01T17:31:08.727Z</time></trkpt><trkpt lat="43.70575" lon="11.1686583"><ele>267.0</ele><time>2026-05-01T17:31:09.726Z</time></trkpt><trkpt lat="43.7058933" lon="11.1686817"><ele>268.0</ele><time>2026-05-01T17:31:10.726Z</time></trkpt><trkpt lat="43.7060433" lon="11.1686867"><ele>269.75</ele><time>2026-05-01T17:31:11.728Z</time></trkpt><trkpt lat="43.7061933" lon="11.1686767"><ele>271.5</ele><time>2026-05-01T17:31:12.727Z</time></trkpt><trkpt lat="43.7063233" lon="11.1686783"><ele>273.25</ele><time>2026-05-01T17:31:13.727Z</time></trkpt><trkpt lat="43.706455" lon="11.1686733"><ele>275.0</ele><time>2026-05-01T17:31:14.727Z</time></trkpt><trkpt lat="43.7065883" lon="11.1686783"><ele>275.0</ele><time>2026-05-01T17:31:15.727Z</time></trkpt><trkpt lat="43.7067133" lon="11.1687133"><ele>275.0</ele><time>2026-05-01T17:31:16.727Z</time></trkpt><trkpt lat="43.706835" lon="11.1687633"><ele>275.0</ele><time>2026-05-01T17:31:17.727Z</time></trkpt><trkpt lat="43.70697" lon="11.1688233"><ele>275.0</ele><time>2026-05-01T17:31:18.728Z</time></trkpt><trkpt lat="43.7071083" lon="11.1688817"><ele>275.0</ele><time>2026-05-01T17:31:19.726Z</time></trkpt><trkpt lat="43.70723" lon="11.1689567"><ele>275.0</ele><time>2026-05-01T17:31:20.728Z</time></trkpt><trkpt lat="43.7073267" lon="11.1690583"><ele>275.0</ele><time>2026-05-01T17:31:21.727Z</time></trkpt><trkpt lat="43.7074117" lon="11.1691833"><ele>275.0</ele><time>2026-05-01T17:31:22.728Z</time></trkpt><trkpt lat="43.7074883" lon="11.1693283"><ele>275.5</ele><time>2026-05-01T17:31:23.727Z</time></trkpt><trkpt lat="43.70755" lon="11.169485"><ele>276.0</ele><time>2026-05-01T17:31:24.728Z</time></trkpt><trkpt lat="43.7075967" lon="11.169665"><ele>276.5</ele><time>2026-05-01T17:31:25.727Z</time></trkpt><trkpt lat="43.7076417" lon="11.1698517"><ele>277.0</ele><time>2026-05-01T17:31:26.727Z</time></trkpt><trkpt lat="43.7076833" lon="11.1700467"><ele>278.25</ele><time>2026-05-01T17:31:27.727Z</time></trkpt><trkpt lat="43.7077217" lon="11.1702417"><ele>279.5</ele><time>2026-05-01T17:31:28.729Z</time></trkpt><trkpt lat="43.7077617" lon="11.1704383"><ele>280.75</ele><time>2026-05-01T17:31:29.726Z</time></trkpt><trkpt lat="43.7078017" lon="11.170635"><ele>282.0</ele><time>2026-05-01T17:31:30.727Z</time></trkpt><trkpt lat="43.7078317" lon="11.1708367"><ele>284.5</ele><time>2026-05-01T17:31:31.726Z</time></trkpt><trkpt lat="43.7078467" lon="11.1710383"><ele>287.0</ele><time>2026-05-01T17:31:32.728Z</time></trkpt><trkpt lat="43.7078633" lon="11.1712333"><ele>289.5</ele><time>2026-05-01T17:31:33.728Z</time></trkpt><trkpt lat="43.7078867" lon="11.1714183"><ele>292.0</ele><time>2026-05-01T17:31:34.726Z</time></trkpt><trkpt lat="43.707925" lon="11.17159"><ele>293.75</ele><time>2026-05-01T17:31:35.727Z</time></trkpt><trkpt lat="43.7079883" lon="11.171735"><ele>295.5</ele><time>2026-05-01T17:31:36.728Z</time></trkpt><trkpt lat="43.7080583" lon="11.17187"><ele>297.25</ele><time>2026-05-01T17:31:37.726Z</time></trkpt><trkpt lat="43.7081367" lon="11.171995"><ele>299.0</ele><time>2026-05-01T17:31:38.727Z</time></trkpt><trkpt lat="43.7082017" lon="11.1721267"><ele>299.0</ele><time>2026-05-01T17:31:39.728Z</time></trkpt><trkpt lat="43.7082433" lon="11.1722733"><ele>299.0</ele><time>2026-05-01T17:31:40.727Z</time></trkpt><trkpt lat="43.7082967" lon="11.1724183"><ele>299.0</ele><time>2026-05-01T17:31:41.727Z</time></trkpt><trkpt lat="43.7083367" lon="11.1725833"><ele>299.0</ele><time>2026-05-01T17:31:42.727Z</time></trkpt><trkpt lat="43.7083517" lon="11.1727717"><ele>299.25</ele><time>2026-05-01T17:31:43.727Z</time></trkpt><trkpt lat="43.7083783" lon="11.1729617"><ele>299.5</ele><time>2026-05-01T17:31:44.728Z</time></trkpt><trkpt lat="43.7084017" lon="11.1731617"><ele>299.75</ele><time>2026-05-01T17:31:45.727Z</time></trkpt><trkpt lat="43.7084167" lon="11.1733667"><ele>300.0</ele><time>2026-05-01T17:31:46.726Z</time></trkpt><trkpt lat="43.7084317" lon="11.1735733"><ele>298.5</ele><time>2026-05-01T17:31:47.728Z</time></trkpt><trkpt lat="43.7084417" lon="11.1737867"><ele>297.0</ele><time>2026-05-01T17:31:48.728Z</time></trkpt><trkpt lat="43.70846" lon="11.173975"><ele>295.5</ele><time>2026-05-01T17:31:49.728Z</time></trkpt><trkpt lat="43.70846" lon="11.1741533"><ele>294.0</ele><time>2026-05-01T17:31:50.728Z</time></trkpt><trkpt lat="43.7084717" lon="11.174315"><ele>291.75</ele><time>2026-05-01T17:31:51.728Z</time></trkpt><trkpt lat="43.70849" lon="11.1744633"><ele>289.5</ele><time>2026-05-01T17:31:52.728Z</time></trkpt><trkpt lat="43.7085017" lon="11.174615"><ele>287.25</ele><time>2026-05-01T17:31:53.727Z</time></trkpt><trkpt lat="43.7085133" lon="11.1747817"><ele>285.0</ele><time>2026-05-01T17:31:54.727Z</time></trkpt><trkpt lat="43.7085183" lon="11.174955"><ele>283.25</ele><time>2026-05-01T17:31:55.728Z</time></trkpt><trkpt lat="43.7085067" lon="11.1751367"><ele>281.5</ele><time>2026-05-01T17:31:56.729Z</time></trkpt><trkpt lat="43.708475" lon="11.1753183"><ele>279.75</ele><time>2026-05-01T17:31:57.727Z</time></trkpt><trkpt lat="43.708445" lon="11.175495"><ele>278.0</ele><time>2026-05-01T17:31:58.73Z</time></trkpt><trkpt lat="43.7084" lon="11.1756767"><ele>276.75</ele><time>2026-05-01T17:31:59.729Z</time></trkpt><trkpt lat="43.708335" lon="11.17586"><ele>275.5</ele><time>2026-05-01T17:32:00.729Z</time></trkpt><trkpt lat="43.70827" lon="11.1760367"><ele>274.25</ele><time>2026-05-01T17:32:01.729Z</time></trkpt><trkpt lat="43.70817" lon="11.1761867"><ele>273.0</ele><time>2026-05-01T17:32:02.73Z</time></trkpt><trkpt lat="43.7080617" lon="11.17633"><ele>273.0</ele><time>2026-05-01T17:32:03.727Z</time></trkpt><trkpt lat="43.70794" lon="11.176475"><ele>273.0</ele><time>2026-05-01T17:32:04.73Z</time></trkpt><trkpt lat="43.7078533" lon="11.176635"><ele>273.0</ele><time>2026-05-01T17:32:05.729Z</time></trkpt><trkpt lat="43.707765" lon="11.176805"><ele>272.0</ele><time>2026-05-01T17:32:06.729Z</time></trkpt><trkpt lat="43.7076817" lon="11.176995"><ele>271.0</ele><time>2026-05-01T17:32:07.729Z</time></trkpt><trkpt lat="43.7076083" lon="11.1771867"><ele>270.0</ele><time>2026-05-01T17:32:08.729Z</time></trkpt><trkpt lat="43.7075333" lon="11.1773783"><ele>270.0</ele><time>2026-05-01T17:32:09.73Z</time></trkpt><trkpt lat="43.7074583" lon="11.1775783"><ele>270.0</ele><time>2026-05-01T17:32:10.727Z</time></trkpt><trkpt lat="43.7074017" lon="11.17778"><ele>270.0</ele><time>2026-05-01T17:32:11.729Z</time></trkpt><trkpt lat="43.7073717" lon="11.177995"><ele>270.0</ele><time>2026-05-01T17:32:12.728Z</time></trkpt><trkpt lat="43.7073417" lon="11.17821"><ele>270.0</ele><time>2026-05-01T17:32:13.73Z</time></trkpt><trkpt lat="43.7072967" lon="11.178425"><ele>270.0</ele><time>2026-05-01T17:32:14.729Z</time></trkpt><trkpt lat="43.7072533" lon="11.178645"><ele>270.0</ele><time>2026-05-01T17:32:15.729Z</time></trkpt><trkpt lat="43.707215" lon="11.1788833"><ele>270.0</ele><time>2026-05-01T17:32:16.727Z</time></trkpt><trkpt lat="43.7071733" lon="11.1791183"><ele>270.0</ele><time>2026-05-01T17:32:17.728Z</time></trkpt><trkpt lat="43.70711" lon="11.1793533"><ele>268.6666666666667</ele><time>2026-05-01T17:32:18.728Z</time></trkpt><trkpt lat="43.70704" lon="11.179585"><ele>267.33333333333337</ele><time>2026-05-01T17:32:19.729Z</time></trkpt><trkpt lat="43.7069617" lon="11.1797983"><ele>266.0</ele><time>2026-05-01T17:32:20.728Z</time></trkpt><trkpt lat="43.7068883" lon="11.1800083"><ele>264.6666666666667</ele><time>2026-05-01T17:32:21.729Z</time></trkpt><trkpt lat="43.7068317" lon="11.1802183"><ele>263.3333333333333</ele><time>2026-05-01T17:32:22.729Z</time></trkpt><trkpt lat="43.7068017" lon="11.1804333"><ele>262.0</ele><time>2026-05-01T17:32:23.73Z</time></trkpt><trkpt lat="43.706795" lon="11.1806533"><ele>261.3333333333333</ele><time>2026-05-01T17:32:24.728Z</time></trkpt><trkpt lat="43.7068083" lon="11.1808683"><ele>260.6666666666667</ele><time>2026-05-01T17:32:25.728Z</time></trkpt><trkpt lat="43.706835" lon="11.1810717"><ele>260.0</ele><time>2026-05-01T17:32:26.729Z</time></trkpt><trkpt lat="43.7068633" lon="11.1812683"><ele>260.0</ele><time>2026-05-01T17:32:27.729Z</time></trkpt><trkpt lat="43.706875" lon="11.1814683"><ele>260.0</ele><time>2026-05-01T17:32:28.728Z</time></trkpt><trkpt lat="43.7068883" lon="11.1816617"><ele>260.0</ele><time>2026-05-01T17:32:29.728Z</time></trkpt><trkpt lat="43.7069133" lon="11.181845"><ele>260.0</ele><time>2026-05-01T17:32:30.73Z</time></trkpt><trkpt lat="43.7069383" lon="11.1820217"><ele>258.0</ele><time>2026-05-01T17:32:31.729Z</time></trkpt><trkpt lat="43.7069717" lon="11.18219"><ele>256.0</ele><time>2026-05-01T17:32:32.73Z</time></trkpt><trkpt lat="43.7070333" lon="11.1823483"><ele>254.0</ele><time>2026-05-01T17:32:33.729Z</time></trkpt><trkpt lat="43.7071267" lon="11.182495"><ele>252.0</ele><time>2026-05-01T17:32:34.729Z</time></trkpt><trkpt lat="43.707225" lon="11.1826517"><ele>250.33333333333331</ele><time>2026-05-01T17:32:35.729Z</time></trkpt><trkpt lat="43.7073133" lon="11.1828317"><ele>248.66666666666666</ele><time>2026-05-01T17:32:36.728Z</time></trkpt><trkpt lat="43.707385" lon="11.18303"><ele>247.0</ele><time>2026-05-01T17:32:37.729Z</time></trkpt><trkpt lat="43.7074483" lon="11.1832417"><ele>245.0</ele><time>2026-05-01T17:32:38.729Z</time></trkpt><trkpt lat="43.7075133" lon="11.18345"><ele>243.0</ele><time>2026-05-01T17:32:39.729Z</time></trkpt><trkpt lat="43.7075783" lon="11.18365"><ele>241.0</ele><time>2026-05-01T17:32:40.729Z</time></trkpt><trkpt lat="43.7076367" lon="11.1838467"><ele>239.0</ele><time>2026-05-01T17:32:41.73Z</time></trkpt><trkpt lat="43.7076867" lon="11.1840417"><ele>237.0</ele><time>2026-05-01T17:32:42.73Z</time></trkpt><trkpt lat="43.7077267" lon="11.1842433"><ele>235.0</ele><time>2026-05-01T17:32:43.729Z</time></trkpt><trkpt lat="43.7077583" lon="11.184455"><ele>233.0</ele><time>2026-05-01T17:32:44.729Z</time></trkpt><trkpt lat="43.7077817" lon="11.184675"><ele>231.0</ele><time>2026-05-01T17:32:45.729Z</time></trkpt><trkpt lat="43.707795" lon="11.1849017"><ele>229.0</ele><time>2026-05-01T17:32:46.728Z</time></trkpt><trkpt lat="43.7078133" lon="11.18513"><ele>228.33333333333331</ele><time>2026-05-01T17:32:47.728Z</time></trkpt><trkpt lat="43.7078417" lon="11.18535"><ele>227.66666666666669</ele><time>2026-05-01T17:32:48.729Z</time></trkpt><trkpt lat="43.7078817" lon="11.1855617"><ele>227.0</ele><time>2026-05-01T17:32:49.729Z</time></trkpt><trkpt lat="43.707935" lon="11.18576"><ele>225.25</ele><time>2026-05-01T17:32:50.73Z</time></trkpt><trkpt lat="43.7079833" lon="11.1859483"><ele>223.5</ele><time>2026-05-01T17:32:51.73Z</time></trkpt><trkpt lat="43.7080333" lon="11.18613"><ele>221.75</ele><time>2026-05-01T17:32:52.73Z</time></trkpt><trkpt lat="43.7080867" lon="11.1863017"><ele>220.0</ele><time>2026-05-01T17:32:53.729Z</time></trkpt><trkpt lat="43.7081433" lon="11.1864533"><ele>219.4</ele><time>2026-05-01T17:32:54.729Z</time></trkpt><trkpt lat="43.7081967" lon="11.18659"><ele>218.8</ele><time>2026-05-01T17:32:55.729Z</time></trkpt><trkpt lat="43.7082483" lon="11.186715"><ele>218.2</ele><time>2026-05-01T17:32:56.729Z</time></trkpt><trkpt lat="43.7082817" lon="11.1868317"><ele>217.6</ele><time>2026-05-01T17:32:57.728Z</time></trkpt><trkpt lat="43.708315" lon="11.1869183"><ele>217.0</ele><time>2026-05-01T17:32:58.731Z</time></trkpt><trkpt lat="43.7083483" lon="11.1870267"><ele>217.0</ele><time>2026-05-01T17:33:00.729Z</time></trkpt><trkpt lat="43.7084" lon="11.18712"><ele>217.0</ele><time>2026-05-01T17:33:07.729Z</time></trkpt><trkpt lat="43.7084533" lon="11.1871833"><ele>217.0</ele><time>2026-05-01T17:33:08.729Z</time></trkpt><trkpt lat="43.7085267" lon="11.18726"><ele>217.0</ele><time>2026-05-01T17:33:09.729Z</time></trkpt><trkpt lat="43.7086117" lon="11.1873417"><ele>217.0</ele><time>2026-05-01T17:33:10.728Z</time></trkpt><trkpt lat="43.7087117" lon="11.18743"><ele>216.0</ele><time>2026-05-01T17:33:11.73Z</time></trkpt><trkpt lat="43.70881" lon="11.1875267"><ele>215.0</ele><time>2026-05-01T17:33:12.728Z</time></trkpt><trkpt lat="43.7089033" lon="11.18763"><ele>214.0</ele><time>2026-05-01T17:33:13.729Z</time></trkpt><trkpt lat="43.70901" lon="11.187735"><ele>213.0</ele><time>2026-05-01T17:33:14.729Z</time></trkpt><trkpt lat="43.709125" lon="11.1878417"><ele>213.0</ele><time>2026-05-01T17:33:15.729Z</time></trkpt><trkpt lat="43.7092483" lon="11.187955"><ele>213.0</ele><time>2026-05-01T17:33:16.73Z</time></trkpt><trkpt lat="43.7093733" lon="11.188065"><ele>213.0</ele><time>2026-05-01T17:33:17.728Z</time></trkpt><trkpt lat="43.7094933" lon="11.1881717"><ele>213.0</ele><time>2026-05-01T17:33:18.727Z</time></trkpt><trkpt lat="43.7096233" lon="11.1882817"><ele>213.0</ele><time>2026-05-01T17:33:19.73Z</time></trkpt><trkpt lat="43.7097483" lon="11.18838"><ele>213.0</ele><time>2026-05-01T17:33:20.731Z</time></trkpt><trkpt lat="43.7098733" lon="11.1884783"><ele>213.0</ele><time>2026-05-01T17:33:21.729Z</time></trkpt><trkpt lat="43.7099933" lon="11.1885717"><ele>213.0</ele><time>2026-05-01T17:33:22.729Z</time></trkpt><trkpt lat="43.7101083" lon="11.1886617"><ele>213.0</ele><time>2026-05-01T17:33:23.729Z</time></trkpt><trkpt lat="43.7102183" lon="11.1887467"><ele>213.0</ele><time>2026-05-01T17:33:24.728Z</time></trkpt><trkpt lat="43.71033" lon="11.1888233"><ele>213.0</ele><time>2026-05-01T17:33:25.728Z</time></trkpt><trkpt lat="43.7104483" lon="11.1888817"><ele>213.0</ele><time>2026-05-01T17:33:26.729Z</time></trkpt><trkpt lat="43.71059" lon="11.1889317"><ele>213.33333333333331</ele><time>2026-05-01T17:33:27.729Z</time></trkpt><trkpt lat="43.71075" lon="11.1889817"><ele>213.66666666666666</ele><time>2026-05-01T17:33:28.729Z</time></trkpt><trkpt lat="43.710905" lon="11.18904"><ele>214.0</ele><time>2026-05-01T17:33:29.729Z</time></trkpt><trkpt lat="43.7110517" lon="11.1890883"><ele>214.5</ele><time>2026-05-01T17:33:30.728Z</time></trkpt><trkpt lat="43.7111867" lon="11.189135"><ele>215.0</ele><time>2026-05-01T17:33:31.729Z</time></trkpt><trkpt lat="43.71131" lon="11.189165"><ele>215.5</ele><time>2026-05-01T17:33:32.73Z</time></trkpt><trkpt lat="43.71147" lon="11.18916"><ele>216.0</ele><time>2026-05-01T17:33:33.729Z</time></trkpt><trkpt lat="43.711655" lon="11.1891483"><ele>216.0</ele><time>2026-05-01T17:33:34.728Z</time></trkpt><trkpt lat="43.7118433" lon="11.1891433"><ele>216.0</ele><time>2026-05-01T17:33:35.728Z</time></trkpt><trkpt lat="43.71203" lon="11.18913"><ele>216.0</ele><time>2026-05-01T17:33:36.731Z</time></trkpt><trkpt lat="43.7122067" lon="11.18909"><ele>215.33333333333331</ele><time>2026-05-01T17:33:37.728Z</time></trkpt><trkpt lat="43.7123683" lon="11.189"><ele>214.66666666666666</ele><time>2026-05-01T17:33:38.729Z</time></trkpt><trkpt lat="43.7124967" lon="11.18886"><ele>214.0</ele><time>2026-05-01T17:33:39.728Z</time></trkpt><trkpt lat="43.7125917" lon="11.1886533"><ele>214.0</ele><time>2026-05-01T17:33:40.729Z</time></trkpt><trkpt lat="43.712665" lon="11.1884083"><ele>214.0</ele><time>2026-05-01T17:33:41.73Z</time></trkpt><trkpt lat="43.7127367" lon="11.1881617"><ele>214.0</ele><time>2026-05-01T17:33:42.729Z</time></trkpt><trkpt lat="43.7128283" lon="11.1879317"><ele>213.66666666666666</ele><time>2026-05-01T17:33:43.73Z</time></trkpt><trkpt lat="43.7129483" lon="11.1877383"><ele>213.33333333333331</ele><time>2026-05-01T17:33:44.73Z</time></trkpt><trkpt lat="43.7130967" lon="11.1875817"><ele>213.0</ele><time>2026-05-01T17:33:45.729Z</time></trkpt><trkpt lat="43.7132717" lon="11.18747"><ele>213.0</ele><time>2026-05-01T17:33:46.73Z</time></trkpt><trkpt lat="43.7134867" lon="11.187415"><ele>213.0</ele><time>2026-05-01T17:33:47.73Z</time></trkpt><trkpt lat="43.71371" lon="11.18736"><ele>213.0</ele><time>2026-05-01T17:33:48.727Z</time></trkpt><trkpt lat="43.7139283" lon="11.18732"><ele>208.0</ele><time>2026-05-01T17:33:49.729Z</time></trkpt><trkpt lat="43.7141333" lon="11.1873083"><ele>203.0</ele><time>2026-05-01T17:33:50.728Z</time></trkpt><trkpt lat="43.7143217" lon="11.1873233"><ele>198.0</ele><time>2026-05-01T17:33:51.729Z</time></trkpt><trkpt lat="43.71452" lon="11.18742"><ele>196.66666666666669</ele><time>2026-05-01T17:33:52.728Z</time></trkpt><trkpt lat="43.7146917" lon="11.1875483"><ele>195.33333333333334</ele><time>2026-05-01T17:33:53.728Z</time></trkpt><trkpt lat="43.7148533" lon="11.1877217"><ele>194.0</ele><time>2026-05-01T17:33:54.728Z</time></trkpt><trkpt lat="43.715025" lon="11.1878517"><ele>194.0</ele><time>2026-05-01T17:33:55.729Z</time></trkpt><trkpt lat="43.7151983" lon="11.18799"><ele>194.0</ele><time>2026-05-01T17:33:56.728Z</time></trkpt><trkpt lat="43.7153733" lon="11.1881233"><ele>194.0</ele><time>2026-05-01T17:33:57.728Z</time></trkpt><trkpt lat="43.7155417" lon="11.188255"><ele>193.0</ele><time>2026-05-01T17:33:58.727Z</time></trkpt><trkpt lat="43.7156967" lon="11.188405"><ele>192.0</ele><time>2026-05-01T17:33:59.729Z</time></trkpt><trkpt lat="43.7158433" lon="11.188575"><ele>191.0</ele><time>2026-05-01T17:34:00.728Z</time></trkpt><trkpt lat="43.7159733" lon="11.1887683"><ele>187.0</ele><time>2026-05-01T17:34:01.727Z</time></trkpt><trkpt lat="43.716105" lon="11.188945"><ele>183.0</ele><time>2026-05-01T17:34:02.731Z</time></trkpt><trkpt lat="43.7162333" lon="11.1891083"><ele>179.0</ele><time>2026-05-01T17:34:03.728Z</time></trkpt><trkpt lat="43.71634" lon="11.189275"><ele>179.0</ele><time>2026-05-01T17:34:04.729Z</time></trkpt><trkpt lat="43.7164067" lon="11.1894833"><ele>179.0</ele><time>2026-05-01T17:34:05.727Z</time></trkpt><trkpt lat="43.7164517" lon="11.1897183"><ele>179.0</ele><time>2026-05-01T17:34:06.729Z</time></trkpt><trkpt lat="43.7164733" lon="11.1899733"><ele>179.0</ele><time>2026-05-01T17:34:07.729Z</time></trkpt><trkpt lat="43.71648" lon="11.190245"><ele>179.0</ele><time>2026-05-01T17:34:08.728Z</time></trkpt><trkpt lat="43.7164683" lon="11.1905133"><ele>179.0</ele><time>2026-05-01T17:34:09.729Z</time></trkpt><trkpt lat="43.7164283" lon="11.19078"><ele>179.0</ele><time>2026-05-01T17:34:10.729Z</time></trkpt><trkpt lat="43.7163583" lon="11.1910317"><ele>179.0</ele><time>2026-05-01T17:34:11.73Z</time></trkpt><trkpt lat="43.7163017" lon="11.19125"><ele>179.0</ele><time>2026-05-01T17:34:12.729Z</time></trkpt><trkpt lat="43.7162417" lon="11.1914583"><ele>179.0</ele><time>2026-05-01T17:34:13.729Z</time></trkpt><trkpt lat="43.7162183" lon="11.1916633"><ele>179.0</ele><time>2026-05-01T17:34:14.728Z</time></trkpt><trkpt lat="43.7162783" lon="11.1918633"><ele>179.0</ele><time>2026-05-01T17:34:15.728Z</time></trkpt><trkpt lat="43.7163167" lon="11.1920767"><ele>179.0</ele><time>2026-05-01T17:34:16.727Z</time></trkpt><trkpt lat="43.7164233" lon="11.192285"><ele>179.0</ele><time>2026-05-01T17:34:17.73Z</time></trkpt><trkpt lat="43.7165683" lon="11.1925183"><ele>179.0</ele><time>2026-05-01T17:34:18.729Z</time></trkpt><trkpt lat="43.7167417" lon="11.1927517"><ele>179.5</ele><time>2026-05-01T17:34:19.73Z</time></trkpt><trkpt lat="43.7169433" lon="11.1929783"><ele>180.0</ele><time>2026-05-01T17:34:20.728Z</time></trkpt><trkpt lat="43.71714" lon="11.193205"><ele>180.0</ele><time>2026-05-01T17:34:21.728Z</time></trkpt><trkpt lat="43.717365" lon="11.1934067"><ele>180.0</ele><time>2026-05-01T17:34:22.729Z</time></trkpt><trkpt lat="43.71759" lon="11.19358"><ele>181.5</ele><time>2026-05-01T17:34:23.73Z</time></trkpt><trkpt lat="43.7178083" lon="11.19373"><ele>183.0</ele><time>2026-05-01T17:34:24.728Z</time></trkpt><trkpt lat="43.7180033" lon="11.19387"><ele>183.0</ele><time>2026-05-01T17:34:25.73Z</time></trkpt><trkpt lat="43.71817" lon="11.193995"><ele>183.0</ele><time>2026-05-01T17:34:26.729Z</time></trkpt><trkpt lat="43.718315" lon="11.1940967"><ele>183.0</ele><time>2026-05-01T17:34:27.729Z</time></trkpt><trkpt lat="43.7184517" lon="11.19414"><ele>182.25</ele><time>2026-05-01T17:34:28.729Z</time></trkpt><trkpt lat="43.7185833" lon="11.1941283"><ele>181.5</ele><time>2026-05-01T17:34:29.729Z</time></trkpt><trkpt lat="43.71871" lon="11.194085"><ele>180.75</ele><time>2026-05-01T17:34:30.728Z</time></trkpt><trkpt lat="43.7188467" lon="11.1939733"><ele>180.0</ele><time>2026-05-01T17:34:31.73Z</time></trkpt><trkpt lat="43.7190017" lon="11.1938333"><ele>180.0</ele><time>2026-05-01T17:34:32.728Z</time></trkpt><trkpt lat="43.7191717" lon="11.1936883"><ele>180.0</ele><time>2026-05-01T17:34:33.728Z</time></trkpt><trkpt lat="43.7193467" lon="11.1935483"><ele>180.0</ele><time>2026-05-01T17:34:34.729Z</time></trkpt><trkpt lat="43.719525" lon="11.193405"><ele>179.33333333333334</ele><time>2026-05-01T17:34:35.728Z</time></trkpt><trkpt lat="43.7197067" lon="11.1932583"><ele>178.66666666666669</ele><time>2026-05-01T17:34:36.73Z</time></trkpt><trkpt lat="43.719885" lon="11.1931117"><ele>178.0</ele><time>2026-05-01T17:34:37.73Z</time></trkpt><trkpt lat="43.720055" lon="11.1929717"><ele>178.0</ele><time>2026-05-01T17:34:38.73Z</time></trkpt><trkpt lat="43.7202117" lon="11.1928583"><ele>178.0</ele><time>2026-05-01T17:34:39.729Z</time></trkpt><trkpt lat="43.72036" lon="11.192785"><ele>178.0</ele><time>2026-05-01T17:34:40.728Z</time></trkpt><trkpt lat="43.7204967" lon="11.1927717"><ele>179.5</ele><time>2026-05-01T17:34:41.728Z</time></trkpt><trkpt lat="43.7206217" lon="11.1928233"><ele>181.0</ele><time>2026-05-01T17:34:42.729Z</time></trkpt><trkpt lat="43.720725" lon="11.192935"><ele>182.5</ele><time>2026-05-01T17:34:43.729Z</time></trkpt><trkpt lat="43.7207983" lon="11.1930867"><ele>184.0</ele><time>2026-05-01T17:34:44.729Z</time></trkpt><trkpt lat="43.7208217" lon="11.1932733"><ele>184.0</ele><time>2026-05-01T17:34:45.728Z</time></trkpt><trkpt lat="43.720805" lon="11.193475"><ele>184.0</ele><time>2026-05-01T17:34:46.729Z</time></trkpt><trkpt lat="43.720745" lon="11.1937017"><ele>184.0</ele><time>2026-05-01T17:34:47.728Z</time></trkpt><trkpt lat="43.7206717" lon="11.1939433"><ele>182.0</ele><time>2026-05-01T17:34:48.729Z</time></trkpt><trkpt lat="43.72059" lon="11.1942"><ele>180.0</ele><time>2026-05-01T17:34:49.729Z</time></trkpt><trkpt lat="43.7205283" lon="11.1944683"><ele>178.0</ele><time>2026-05-01T17:34:50.729Z</time></trkpt><trkpt lat="43.720505" lon="11.194745"><ele>176.33333333333334</ele><time>2026-05-01T17:34:51.728Z</time></trkpt><trkpt lat="43.7205" lon="11.1950367"><ele>174.66666666666666</ele><time>2026-05-01T17:34:52.728Z</time></trkpt><trkpt lat="43.7205267" lon="11.1953483"><ele>173.0</ele><time>2026-05-01T17:34:53.728Z</time></trkpt><trkpt lat="43.720575" lon="11.195665"><ele>174.0</ele><time>2026-05-01T17:34:54.728Z</time></trkpt><trkpt lat="43.7206483" lon="11.19598"><ele>175.0</ele><time>2026-05-01T17:34:55.728Z</time></trkpt><trkpt lat="43.720715" lon="11.1962867"><ele>176.5</ele><time>2026-05-01T17:34:56.729Z</time></trkpt><trkpt lat="43.7207867" lon="11.196595"><ele>178.0</ele><time>2026-05-01T17:34:57.728Z</time></trkpt><trkpt lat="43.720855" lon="11.1969167"><ele>178.0</ele><time>2026-05-01T17:34:58.735Z</time></trkpt><trkpt lat="43.7209233" lon="11.19724"><ele>178.0</ele><time>2026-05-01T17:34:59.729Z</time></trkpt><trkpt lat="43.7209867" lon="11.1975517"><ele>179.0</ele><time>2026-05-01T17:35:00.728Z</time></trkpt><trkpt lat="43.72104" lon="11.1978467"><ele>180.0</ele><time>2026-05-01T17:35:01.729Z</time></trkpt><trkpt lat="43.7210933" lon="11.19813"><ele>181.0</ele><time>2026-05-01T17:35:02.73Z</time></trkpt><trkpt lat="43.7211667" lon="11.198395"><ele>178.66666666666669</ele><time>2026-05-01T17:35:03.729Z</time></trkpt><trkpt lat="43.721225" lon="11.19864"><ele>176.33333333333334</ele><time>2026-05-01T17:35:04.728Z</time></trkpt><trkpt lat="43.7213083" lon="11.1988483"><ele>174.0</ele><time>2026-05-01T17:35:05.729Z</time></trkpt><trkpt lat="43.721425" lon="11.19902"><ele>173.33333333333334</ele><time>2026-05-01T17:35:06.729Z</time></trkpt><trkpt lat="43.7215667" lon="11.19915"><ele>172.66666666666669</ele><time>2026-05-01T17:35:07.729Z</time></trkpt><trkpt lat="43.721735" lon="11.1992283"><ele>172.0</ele><time>2026-05-01T17:35:08.729Z</time></trkpt><trkpt lat="43.7219167" lon="11.1992667"><ele>171.33333333333334</ele><time>2026-05-01T17:35:09.729Z</time></trkpt><trkpt lat="43.72211" lon="11.19929"><ele>170.66666666666666</ele><time>2026-05-01T17:35:10.727Z</time></trkpt><trkpt lat="43.7223117" lon="11.199305"><ele>170.0</ele><time>2026-05-01T17:35:11.729Z</time></trkpt><trkpt lat="43.7225167" lon="11.19931"><ele>170.0</ele><time>2026-05-01T17:35:12.728Z</time></trkpt><trkpt lat="43.7227233" lon="11.1992933"><ele>170.0</ele><time>2026-05-01T17:35:13.729Z</time></trkpt><trkpt lat="43.722925" lon="11.1992417"><ele>170.0</ele><time>2026-05-01T17:35:14.729Z</time></trkpt><trkpt lat="43.7231167" lon="11.199145"><ele>171.66666666666666</ele><time>2026-05-01T17:35:15.729Z</time></trkpt><trkpt lat="43.7233017" lon="11.1990533"><ele>173.33333333333334</ele><time>2026-05-01T17:35:16.729Z</time></trkpt><trkpt lat="43.7234667" lon="11.1989567"><ele>175.0</ele><time>2026-05-01T17:35:17.728Z</time></trkpt><trkpt lat="43.72362" lon="11.198875"><ele>177.66666666666669</ele><time>2026-05-01T17:35:18.728Z</time></trkpt><trkpt lat="43.7237667" lon="11.1988183"><ele>180.33333333333334</ele><time>2026-05-01T17:35:19.73Z</time></trkpt><trkpt lat="43.7239217" lon="11.19879"><ele>183.0</ele><time>2026-05-01T17:35:20.728Z</time></trkpt><trkpt lat="43.7240717" lon="11.198775"><ele>183.0</ele><time>2026-05-01T17:35:21.73Z</time></trkpt><trkpt lat="43.7242183" lon="11.1987633"><ele>183.0</ele><time>2026-05-01T17:35:22.729Z</time></trkpt><trkpt lat="43.7243667" lon="11.198765"><ele>183.0</ele><time>2026-05-01T17:35:23.729Z</time></trkpt><trkpt lat="43.7245067" lon="11.1987983"><ele>183.0</ele><time>2026-05-01T17:35:24.728Z</time></trkpt><trkpt lat="43.724645" lon="11.1988817"><ele>181.33333333333334</ele><time>2026-05-01T17:35:25.729Z</time></trkpt><trkpt lat="43.7247867" lon="11.1990167"><ele>179.66666666666669</ele><time>2026-05-01T17:35:26.729Z</time></trkpt><trkpt lat="43.7249333" lon="11.19918"><ele>178.0</ele><time>2026-05-01T17:35:27.729Z</time></trkpt><trkpt lat="43.7250883" lon="11.1993533"><ele>178.0</ele><time>2026-05-01T17:35:28.729Z</time></trkpt><trkpt lat="43.7252433" lon="11.1995317"><ele>178.0</ele><time>2026-05-01T17:35:29.729Z</time></trkpt><trkpt lat="43.7253917" lon="11.1996983"><ele>178.0</ele><time>2026-05-01T17:35:30.728Z</time></trkpt><trkpt lat="43.7255317" lon="11.19985"><ele>178.0</ele><time>2026-05-01T17:35:31.729Z</time></trkpt><trkpt lat="43.7256633" lon="11.1999933"><ele>178.0</ele><time>2026-05-01T17:35:32.729Z</time></trkpt><trkpt lat="43.7257883" lon="11.200125"><ele>178.0</ele><time>2026-05-01T17:35:33.729Z</time></trkpt><trkpt lat="43.7259067" lon="11.2002433"><ele>178.0</ele><time>2026-05-01T17:35:34.728Z</time></trkpt><trkpt lat="43.7260233" lon="11.200345"><ele>178.0</ele><time>2026-05-01T17:35:35.728Z</time></trkpt><trkpt lat="43.7261367" lon="11.20044"><ele>178.0</ele><time>2026-05-01T17:35:36.729Z</time></trkpt><trkpt lat="43.7262417" lon="11.2005067"><ele>178.0</ele><time>2026-05-01T17:35:37.729Z</time></trkpt><trkpt lat="43.7263483" lon="11.2005667"><ele>178.25</ele><time>2026-05-01T17:35:38.729Z</time></trkpt><trkpt lat="43.7264567" lon="11.2006267"><ele>178.5</ele><time>2026-05-01T17:35:39.728Z</time></trkpt><trkpt lat="43.7265733" lon="11.20069"><ele>178.75</ele><time>2026-05-01T17:35:40.729Z</time></trkpt><trkpt lat="43.726695" lon="11.200765"><ele>179.0</ele><time>2026-05-01T17:35:41.728Z</time></trkpt><trkpt lat="43.7268117" lon="11.2008433"><ele>179.0</ele><time>2026-05-01T17:35:42.73Z</time></trkpt><trkpt lat="43.72692" lon="11.20093"><ele>179.0</ele><time>2026-05-01T17:35:43.727Z</time></trkpt><trkpt lat="43.727025" lon="11.2010333"><ele>179.0</ele><time>2026-05-01T17:35:44.728Z</time></trkpt><trkpt lat="43.7271183" lon="11.2011383"><ele>179.0</ele><time>2026-05-01T17:35:45.727Z</time></trkpt><trkpt lat="43.7272167" lon="11.20125"><ele>179.0</ele><time>2026-05-01T17:35:46.728Z</time></trkpt><trkpt lat="43.7273133" lon="11.2013683"><ele>179.0</ele><time>2026-05-01T17:35:47.728Z</time></trkpt><trkpt lat="43.7274117" lon="11.2014917"><ele>179.0</ele><time>2026-05-01T17:35:48.728Z</time></trkpt><trkpt lat="43.7275083" lon="11.2016217"><ele>179.0</ele><time>2026-05-01T17:35:49.728Z</time></trkpt><trkpt lat="43.72761" lon="11.2017517"><ele>175.75</ele><time>2026-05-01T17:35:50.728Z</time></trkpt><trkpt lat="43.7277167" lon="11.20188"><ele>172.5</ele><time>2026-05-01T17:35:51.727Z</time></trkpt><trkpt lat="43.7278233" lon="11.2020033"><ele>169.25</ele><time>2026-05-01T17:35:52.728Z</time></trkpt><trkpt lat="43.7279267" lon="11.2021233"><ele>166.0</ele><time>2026-05-01T17:35:53.728Z</time></trkpt><trkpt lat="43.7280283" lon="11.2022417"><ele>165.0</ele><time>2026-05-01T17:35:54.729Z</time></trkpt><trkpt lat="43.7281317" lon="11.2023617"><ele>164.0</ele><time>2026-05-01T17:35:55.728Z</time></trkpt><trkpt lat="43.7282417" lon="11.2024717"><ele>163.0</ele><time>2026-05-01T17:35:56.728Z</time></trkpt><trkpt lat="43.72835" lon="11.202575"><ele>162.0</ele><time>2026-05-01T17:35:57.727Z</time></trkpt><trkpt lat="43.72846" lon="11.2026733"><ele>161.0</ele><time>2026-05-01T17:35:58.727Z</time></trkpt><trkpt lat="43.7285683" lon="11.2027717"><ele>160.0</ele><time>2026-05-01T17:35:59.728Z</time></trkpt><trkpt lat="43.72868" lon="11.2028767"><ele>159.0</ele><time>2026-05-01T17:36:00.728Z</time></trkpt><trkpt lat="43.72879" lon="11.2029883"><ele>158.0</ele><time>2026-05-01T17:36:01.727Z</time></trkpt><trkpt lat="43.7288917" lon="11.2030983"><ele>160.25</ele><time>2026-05-01T17:36:02.729Z</time></trkpt><trkpt lat="43.7289833" lon="11.2032167"><ele>162.5</ele><time>2026-05-01T17:36:03.727Z</time></trkpt><trkpt lat="43.72907" lon="11.2033383"><ele>164.75</ele><time>2026-05-01T17:36:04.728Z</time></trkpt><trkpt lat="43.7291483" lon="11.2034567"><ele>167.0</ele><time>2026-05-01T17:36:05.728Z</time></trkpt><trkpt lat="43.7292267" lon="11.20357"><ele>167.0</ele><time>2026-05-01T17:36:06.727Z</time></trkpt><trkpt lat="43.729295" lon="11.20369"><ele>167.0</ele><time>2026-05-01T17:36:07.728Z</time></trkpt><trkpt lat="43.729365" lon="11.203795"><ele>167.0</ele><time>2026-05-01T17:36:08.727Z</time></trkpt><trkpt lat="43.7294317" lon="11.2038983"><ele>167.0</ele><time>2026-05-01T17:36:09.727Z</time></trkpt><trkpt lat="43.7295083" lon="11.204005"><ele>167.0</ele><time>2026-05-01T17:36:10.727Z</time></trkpt><trkpt lat="43.7295933" lon="11.20412"><ele>168.75</ele><time>2026-05-01T17:36:11.728Z</time></trkpt><trkpt lat="43.7296867" lon="11.204235"><ele>170.5</ele><time>2026-05-01T17:36:12.727Z</time></trkpt><trkpt lat="43.7297867" lon="11.20435"><ele>172.25</ele><time>2026-05-01T17:36:13.728Z</time></trkpt><trkpt lat="43.7298817" lon="11.2044717"><ele>174.0</ele><time>2026-05-01T17:36:14.728Z</time></trkpt><trkpt lat="43.72998" lon="11.2045917"><ele>174.0</ele><time>2026-05-01T17:36:15.727Z</time></trkpt><trkpt lat="43.730075" lon="11.20471"><ele>174.0</ele><time>2026-05-01T17:36:16.729Z</time></trkpt><trkpt lat="43.730175" lon="11.20483"><ele>174.0</ele><time>2026-05-01T17:36:17.729Z</time></trkpt><trkpt lat="43.7302767" lon="11.2049467"><ele>174.0</ele><time>2026-05-01T17:36:18.727Z</time></trkpt><trkpt lat="43.73038" lon="11.2050617"><ele>176.5</ele><time>2026-05-01T17:36:19.729Z</time></trkpt><trkpt lat="43.73049" lon="11.2051667"><ele>179.0</ele><time>2026-05-01T17:36:20.728Z</time></trkpt><trkpt lat="43.7305967" lon="11.205265"><ele>181.5</ele><time>2026-05-01T17:36:21.728Z</time></trkpt><trkpt lat="43.7307083" lon="11.20536"><ele>184.0</ele><time>2026-05-01T17:36:22.728Z</time></trkpt><trkpt lat="43.7308167" lon="11.20547"><ele>184.0</ele><time>2026-05-01T17:36:23.728Z</time></trkpt><trkpt lat="43.7309117" lon="11.2055967"><ele>184.0</ele><time>2026-05-01T17:36:24.728Z</time></trkpt><trkpt lat="43.7309967" lon="11.2057333"><ele>184.0</ele><time>2026-05-01T17:36:25.728Z</time></trkpt><trkpt lat="43.73107" lon="11.205875"><ele>184.0</ele><time>2026-05-01T17:36:26.727Z</time></trkpt><trkpt lat="43.73114" lon="11.2060183"><ele>184.0</ele><time>2026-05-01T17:36:27.727Z</time></trkpt><trkpt lat="43.7312017" lon="11.2061533"><ele>184.0</ele><time>2026-05-01T17:36:28.728Z</time></trkpt><trkpt lat="43.731255" lon="11.2062767"><ele>184.0</ele><time>2026-05-01T17:36:29.727Z</time></trkpt><trkpt lat="43.7313" lon="11.20639"><ele>184.0</ele><time>2026-05-01T17:36:30.727Z</time></trkpt><trkpt lat="43.731345" lon="11.20649"><ele>184.0</ele><time>2026-05-01T17:36:31.728Z</time></trkpt><trkpt lat="43.7313783" lon="11.20657"><ele>184.0</ele><time>2026-05-01T17:36:32.728Z</time></trkpt><trkpt lat="43.7314267" lon="11.2066617"><ele>184.0</ele><time>2026-05-01T17:36:34.728Z</time></trkpt><trkpt lat="43.7314933" lon="11.2066883"><ele>184.0</ele><time>2026-05-01T17:36:36.728Z</time></trkpt><trkpt lat="43.7316" lon="11.2066667"><ele>184.0</ele><time>2026-05-01T17:36:38.728Z</time></trkpt><trkpt lat="43.7316833" lon="11.2066517"><ele>184.0</ele><time>2026-05-01T17:36:39.728Z</time></trkpt><trkpt lat="43.73178" lon="11.2066283"><ele>184.0</ele><time>2026-05-01T17:36:40.728Z</time></trkpt><trkpt lat="43.7318783" lon="11.2066117"><ele>186.0</ele><time>2026-05-01T17:36:41.727Z</time></trkpt><trkpt lat="43.731985" lon="11.2065867"><ele>188.0</ele><time>2026-05-01T17:36:42.728Z</time></trkpt><trkpt lat="43.7320967" lon="11.2065683"><ele>190.0</ele><time>2026-05-01T17:36:43.728Z</time></trkpt><trkpt lat="43.73222" lon="11.2065367"><ele>192.0</ele><time>2026-05-01T17:36:44.727Z</time></trkpt><trkpt lat="43.7323433" lon="11.206515"><ele>192.0</ele><time>2026-05-01T17:36:45.729Z</time></trkpt><trkpt lat="43.7324633" lon="11.2064883"><ele>192.0</ele><time>2026-05-01T17:36:46.728Z</time></trkpt><trkpt lat="43.7325867" lon="11.206465"><ele>192.0</ele><time>2026-05-01T17:36:47.728Z</time></trkpt><trkpt lat="43.73271" lon="11.20644"><ele>192.0</ele><time>2026-05-01T17:36:48.727Z</time></trkpt><trkpt lat="43.7328383" lon="11.2064117"><ele>192.0</ele><time>2026-05-01T17:36:49.727Z</time></trkpt><trkpt lat="43.7329633" lon="11.206385"><ele>192.0</ele><time>2026-05-01T17:36:50.728Z</time></trkpt><trkpt lat="43.7330883" lon="11.2063467"><ele>192.0</ele><time>2026-05-01T17:36:51.728Z</time></trkpt><trkpt lat="43.7332117" lon="11.2063167"><ele>192.0</ele><time>2026-05-01T17:36:52.73Z</time></trkpt><trkpt lat="43.7333317" lon="11.206285"><ele>192.0</ele><time>2026-05-01T17:36:53.728Z</time></trkpt><trkpt lat="43.73344" lon="11.2062483"><ele>192.0</ele><time>2026-05-01T17:36:54.728Z</time></trkpt><trkpt lat="43.73354" lon="11.2062317"><ele>192.0</ele><time>2026-05-01T17:36:55.728Z</time></trkpt><trkpt lat="43.7336283" lon="11.2062083"><ele>192.0</ele><time>2026-05-01T17:36:56.729Z</time></trkpt><trkpt lat="43.7337067" lon="11.2061983"><ele>192.0</ele><time>2026-05-01T17:36:57.728Z</time></trkpt><trkpt lat="43.733775" lon="11.2061883"><ele>193.0</ele><time>2026-05-01T17:36:58.728Z</time></trkpt><trkpt lat="43.7338767" lon="11.2061917"><ele>194.0</ele><time>2026-05-01T17:37:00.728Z</time></trkpt><trkpt lat="43.73397" lon="11.2062317"><ele>195.0</ele><time>2026-05-01T17:37:02.73Z</time></trkpt><trkpt lat="43.7340617" lon="11.206315"><ele>196.0</ele><time>2026-05-01T17:37:04.728Z</time></trkpt><trkpt lat="43.7341267" lon="11.2063633"><ele>197.0</ele><time>2026-05-01T17:37:05.728Z</time></trkpt><trkpt lat="43.7342" lon="11.2064"><ele>197.00000000000003</ele><time>2026-05-01T17:37:06.728Z</time></trkpt><trkpt lat="43.7342733" lon="11.206435"><ele>197.0</ele><time>2026-05-01T17:37:07.729Z</time></trkpt><trkpt lat="43.73436" lon="11.20646"><ele>197.0</ele><time>2026-05-01T17:37:08.731Z</time></trkpt><trkpt lat="43.734445" lon="11.2064833"><ele>197.0</ele><time>2026-05-01T17:37:09.728Z</time></trkpt><trkpt lat="43.7345367" lon="11.2065"><ele>197.00000000000003</ele><time>2026-05-01T17:37:10.728Z</time></trkpt><trkpt lat="43.73463" lon="11.2065033"><ele>197.0</ele><time>2026-05-01T17:37:11.728Z</time></trkpt><trkpt lat="43.7347217" lon="11.2064917"><ele>195.2</ele><time>2026-05-01T17:37:12.73Z</time></trkpt><trkpt lat="43.7348183" lon="11.2064567"><ele>193.39999999999998</ele><time>2026-05-01T17:37:13.728Z</time></trkpt><trkpt lat="43.7349083" lon="11.206395"><ele>191.60000000000002</ele><time>2026-05-01T17:37:14.728Z</time></trkpt><trkpt lat="43.7349967" lon="11.2063233"><ele>189.8</ele><time>2026-05-01T17:37:15.73Z</time></trkpt><trkpt lat="43.735075" lon="11.20625"><ele>188.0</ele><time>2026-05-01T17:37:16.728Z</time></trkpt><trkpt lat="43.73516" lon="11.2061817"><ele>185.8</ele><time>2026-05-01T17:37:17.727Z</time></trkpt><trkpt lat="43.7352467" lon="11.20611"><ele>183.60000000000002</ele><time>2026-05-01T17:37:18.729Z</time></trkpt><trkpt lat="43.73534" lon="11.2060333"><ele>181.39999999999998</ele><time>2026-05-01T17:37:19.728Z</time></trkpt><trkpt lat="43.7354167" lon="11.20594"><ele>179.2</ele><time>2026-05-01T17:37:20.728Z</time></trkpt><trkpt lat="43.735495" lon="11.205845"><ele>177.0</ele><time>2026-05-01T17:37:21.728Z</time></trkpt><trkpt lat="43.7355817" lon="11.20575"><ele>177.0</ele><time>2026-05-01T17:37:22.728Z</time></trkpt><trkpt lat="43.7356717" lon="11.205665"><ele>177.0</ele><time>2026-05-01T17:37:23.727Z</time></trkpt><trkpt lat="43.7357683" lon="11.2055783"><ele>177.0</ele><time>2026-05-01T17:37:24.727Z</time></trkpt><trkpt lat="43.73586" lon="11.2054917"><ele>177.0</ele><time>2026-05-01T17:37:25.727Z</time></trkpt><trkpt lat="43.7359567" lon="11.2054017"><ele>177.33333333333334</ele><time>2026-05-01T17:37:26.731Z</time></trkpt><trkpt lat="43.73604" lon="11.2053083"><ele>177.66666666666666</ele><time>2026-05-01T17:37:27.727Z</time></trkpt><trkpt lat="43.7361083" lon="11.20522"><ele>178.0</ele><time>2026-05-01T17:37:28.728Z</time></trkpt><trkpt lat="43.7361683" lon="11.2051317"><ele>178.33333333333331</ele><time>2026-05-01T17:37:29.728Z</time></trkpt><trkpt lat="43.736225" lon="11.205065"><ele>178.66666666666666</ele><time>2026-05-01T17:37:30.727Z</time></trkpt><trkpt lat="43.736285" lon="11.2050033"><ele>179.0</ele><time>2026-05-01T17:37:31.728Z</time></trkpt><trkpt lat="43.7363483" lon="11.2049633"><ele>179.00000000000003</ele><time>2026-05-01T17:37:32.728Z</time></trkpt><trkpt lat="43.73642" lon="11.2049317"><ele>179.0</ele><time>2026-05-01T17:37:33.728Z</time></trkpt><trkpt lat="43.7364917" lon="11.2049083"><ele>179.0</ele><time>2026-05-01T17:37:34.729Z</time></trkpt><trkpt lat="43.7365767" lon="11.204895"><ele>179.0</ele><time>2026-05-01T17:37:35.73Z</time></trkpt><trkpt lat="43.73665" lon="11.204895"><ele>179.0</ele><time>2026-05-01T17:37:36.728Z</time></trkpt><trkpt lat="43.7367167" lon="11.204905"><ele>179.00000000000003</ele><time>2026-05-01T17:37:37.728Z</time></trkpt><trkpt lat="43.7367817" lon="11.204915"><ele>179.0</ele><time>2026-05-01T17:37:38.73Z</time></trkpt><trkpt lat="43.7368983" lon="11.2049667"><ele>179.2</ele><time>2026-05-01T17:37:40.728Z</time></trkpt><trkpt lat="43.7369817" lon="11.2050367"><ele>179.39999999999998</ele><time>2026-05-01T17:37:42.729Z</time></trkpt><trkpt lat="43.7370533" lon="11.2050567"><ele>179.6</ele><time>2026-05-01T17:37:44.73Z</time></trkpt><trkpt lat="43.7371233" lon="11.20501"><ele>179.8</ele><time>2026-05-01T17:37:46.727Z</time></trkpt><trkpt lat="43.73724" lon="11.204895"><ele>180.0</ele><time>2026-05-01T17:37:48.729Z</time></trkpt><trkpt lat="43.7373117" lon="11.20482"><ele>180.0</ele><time>2026-05-01T17:37:49.728Z</time></trkpt><trkpt lat="43.7373883" lon="11.20475"><ele>180.0</ele><time>2026-05-01T17:37:50.728Z</time></trkpt><trkpt lat="43.7374633" lon="11.204685"><ele>180.0</ele><time>2026-05-01T17:37:51.727Z</time></trkpt><trkpt lat="43.7375383" lon="11.2046083"><ele>180.0</ele><time>2026-05-01T17:37:52.728Z</time></trkpt><trkpt lat="43.737615" lon="11.2045167"><ele>180.0</ele><time>2026-05-01T17:37:53.727Z</time></trkpt><trkpt lat="43.73768" lon="11.204425"><ele>178.2</ele><time>2026-05-01T17:37:54.728Z</time></trkpt><trkpt lat="43.7377367" lon="11.2043217"><ele>176.4</ele><time>2026-05-01T17:37:55.727Z</time></trkpt><trkpt lat="43.737805" lon="11.204235"><ele>174.60000000000002</ele><time>2026-05-01T17:37:56.727Z</time></trkpt><trkpt lat="43.73788" lon="11.204155"><ele>172.8</ele><time>2026-05-01T17:37:57.729Z</time></trkpt><trkpt lat="43.73796" lon="11.2040817"><ele>171.0</ele><time>2026-05-01T17:37:58.73Z</time></trkpt><trkpt lat="43.73806" lon="11.2040167"><ele>171.0</ele><time>2026-05-01T17:37:59.728Z</time></trkpt><trkpt lat="43.73816" lon="11.203965"><ele>171.0</ele><time>2026-05-01T17:38:00.728Z</time></trkpt><trkpt lat="43.7382667" lon="11.203925"><ele>171.0</ele><time>2026-05-01T17:38:01.73Z</time></trkpt><trkpt lat="43.7383883" lon="11.2038917"><ele>171.0</ele><time>2026-05-01T17:38:02.728Z</time></trkpt><trkpt lat="43.7385067" lon="11.2038567"><ele>171.25</ele><time>2026-05-01T17:38:03.728Z</time></trkpt><trkpt lat="43.73864" lon="11.2038383"><ele>171.5</ele><time>2026-05-01T17:38:04.728Z</time></trkpt><trkpt lat="43.73875" lon="11.2038483"><ele>171.75</ele><time>2026-05-01T17:38:05.728Z</time></trkpt><trkpt lat="43.7388733" lon="11.2038567"><ele>172.0</ele><time>2026-05-01T17:38:06.729Z</time></trkpt><trkpt lat="43.738995" lon="11.2038733"><ele>172.0</ele><time>2026-05-01T17:38:07.728Z</time></trkpt><trkpt lat="43.7391317" lon="11.2038933"><ele>172.0</ele><time>2026-05-01T17:38:08.73Z</time></trkpt><trkpt lat="43.739275" lon="11.203905"><ele>172.0</ele><time>2026-05-01T17:38:09.727Z</time></trkpt><trkpt lat="43.7394267" lon="11.2039117"><ele>172.0</ele><time>2026-05-01T17:38:10.729Z</time></trkpt><trkpt lat="43.7395717" lon="11.2039317"><ele>172.0</ele><time>2026-05-01T17:38:11.728Z</time></trkpt><trkpt lat="43.73971" lon="11.2039617"><ele>172.0</ele><time>2026-05-01T17:38:12.73Z</time></trkpt><trkpt lat="43.7398433" lon="11.2039917"><ele>172.0</ele><time>2026-05-01T17:38:13.73Z</time></trkpt><trkpt lat="43.7399583" lon="11.2040317"><ele>172.0</ele><time>2026-05-01T17:38:14.728Z</time></trkpt><trkpt lat="43.7400867" lon="11.2040483"><ele>171.0</ele><time>2026-05-01T17:38:15.726Z</time></trkpt><trkpt lat="43.7402" lon="11.20405"><ele>170.0</ele><time>2026-05-01T17:38:16.726Z</time></trkpt><trkpt lat="43.7403033" lon="11.2040183"><ele>169.0</ele><time>2026-05-01T17:38:17.729Z</time></trkpt><trkpt lat="43.7404067" lon="11.2039617"><ele>168.0</ele><time>2026-05-01T17:38:18.728Z</time></trkpt><trkpt lat="43.7404967" lon="11.2039"><ele>167.0</ele><time>2026-05-01T17:38:19.727Z</time></trkpt><trkpt lat="43.740575" lon="11.2038367"><ele>166.16666666666666</ele><time>2026-05-01T17:38:20.728Z</time></trkpt><trkpt lat="43.7406517" lon="11.203785"><ele>165.33333333333331</ele><time>2026-05-01T17:38:21.728Z</time></trkpt><trkpt lat="43.7407317" lon="11.2037417"><ele>164.5</ele><time>2026-05-01T17:38:22.728Z</time></trkpt><trkpt lat="43.7408117" lon="11.2037367"><ele>163.66666666666666</ele><time>2026-05-01T17:38:23.731Z</time></trkpt><trkpt lat="43.7408917" lon="11.2037667"><ele>162.83333333333334</ele><time>2026-05-01T17:38:24.728Z</time></trkpt><trkpt lat="43.7409783" lon="11.2038267"><ele>162.0</ele><time>2026-05-01T17:38:25.73Z</time></trkpt><trkpt lat="43.74106" lon="11.2039"><ele>161.5</ele><time>2026-05-01T17:38:26.729Z</time></trkpt><trkpt lat="43.7411417" lon="11.2039733"><ele>161.0</ele><time>2026-05-01T17:38:27.729Z</time></trkpt><trkpt lat="43.7412233" lon="11.2040433"><ele>160.5</ele><time>2026-05-01T17:38:28.728Z</time></trkpt><trkpt lat="43.7413017" lon="11.204105"><ele>160.0</ele><time>2026-05-01T17:38:29.729Z</time></trkpt><trkpt lat="43.74138" lon="11.2041417"><ele>159.5</ele><time>2026-05-01T17:38:30.728Z</time></trkpt><trkpt lat="43.741455" lon="11.20416"><ele>159.0</ele><time>2026-05-01T17:38:31.728Z</time></trkpt><trkpt lat="43.7415417" lon="11.2041583"><ele>159.0</ele><time>2026-05-01T17:38:32.728Z</time></trkpt><trkpt lat="43.741645" lon="11.204135"><ele>159.0</ele><time>2026-05-01T17:38:33.729Z</time></trkpt><trkpt lat="43.7417483" lon="11.20412"><ele>159.0</ele><time>2026-05-01T17:38:34.729Z</time></trkpt><trkpt lat="43.7418533" lon="11.2041167"><ele>159.0</ele><time>2026-05-01T17:38:35.728Z</time></trkpt><trkpt lat="43.74196" lon="11.20412"><ele>159.0</ele><time>2026-05-01T17:38:36.73Z</time></trkpt><trkpt lat="43.7420617" lon="11.2041333"><ele>157.2</ele><time>2026-05-01T17:38:37.727Z</time></trkpt><trkpt lat="43.7421717" lon="11.2041433"><ele>155.4</ele><time>2026-05-01T17:38:38.729Z</time></trkpt><trkpt lat="43.7422833" lon="11.20415"><ele>153.6</ele><time>2026-05-01T17:38:39.728Z</time></trkpt><trkpt lat="43.7423917" lon="11.20417"><ele>151.8</ele><time>2026-05-01T17:38:40.729Z</time></trkpt><trkpt lat="43.74248" lon="11.204195"><ele>150.0</ele><time>2026-05-01T17:38:41.728Z</time></trkpt><trkpt lat="43.7425533" lon="11.204225"><ele>150.0</ele><time>2026-05-01T17:38:42.728Z</time></trkpt><trkpt lat="43.7426667" lon="11.2041767"><ele>150.0</ele><time>2026-05-01T17:38:44.73Z</time></trkpt><trkpt lat="43.7427333" lon="11.204075"><ele>150.0</ele><time>2026-05-01T17:38:46.728Z</time></trkpt><trkpt lat="43.7428217" lon="11.2040467"><ele>150.0</ele><time>2026-05-01T17:38:48.728Z</time></trkpt><trkpt lat="43.7429367" lon="11.204125"><ele>150.0</ele><time>2026-05-01T17:38:50.729Z</time></trkpt><trkpt lat="43.743015" lon="11.2041683"><ele>147.0</ele><time>2026-05-01T17:38:51.729Z</time></trkpt><trkpt lat="43.7430883" lon="11.2042"><ele>144.0</ele><time>2026-05-01T17:38:52.729Z</time></trkpt><trkpt lat="43.7431767" lon="11.2042083"><ele>141.0</ele><time>2026-05-01T17:38:53.729Z</time></trkpt><trkpt lat="43.7432717" lon="11.2042017"><ele>138.0</ele><time>2026-05-01T17:38:54.727Z</time></trkpt><trkpt lat="43.7434" lon="11.20416"><ele>135.0</ele><time>2026-05-01T17:38:55.728Z</time></trkpt><trkpt lat="43.74352" lon="11.20413"><ele>132.0</ele><time>2026-05-01T17:38:56.728Z</time></trkpt><trkpt lat="43.743635" lon="11.2040967"><ele>129.0</ele><time>2026-05-01T17:38:57.728Z</time></trkpt><trkpt lat="43.74375" lon="11.2040683"><ele>126.0</ele><time>2026-05-01T17:38:58.729Z</time></trkpt><trkpt lat="43.7438617" lon="11.2040467"><ele>123.0</ele><time>2026-05-01T17:38:59.728Z</time></trkpt><trkpt lat="43.7439717" lon="11.2040217"><ele>123.0</ele><time>2026-05-01T17:39:00.73Z</time></trkpt><trkpt lat="43.7440817" lon="11.2040033"><ele>123.00000000000001</ele><time>2026-05-01T17:39:01.728Z</time></trkpt><trkpt lat="43.74419" lon="11.2039767"><ele>123.00000000000001</ele><time>2026-05-01T17:39:02.728Z</time></trkpt><trkpt lat="43.7442967" lon="11.2039633"><ele>123.0</ele><time>2026-05-01T17:39:03.727Z</time></trkpt><trkpt lat="43.7443983" lon="11.2039583"><ele>123.0</ele><time>2026-05-01T17:39:04.727Z</time></trkpt><trkpt lat="43.7445033" lon="11.2039633"><ele>120.80000000000001</ele><time>2026-05-01T17:39:05.727Z</time></trkpt><trkpt lat="43.7446083" lon="11.2039867"><ele>118.60000000000001</ele><time>2026-05-01T17:39:06.728Z</time></trkpt><trkpt lat="43.7447117" lon="11.204015"><ele>116.39999999999999</ele><time>2026-05-01T17:39:07.727Z</time></trkpt><trkpt lat="43.7448083" lon="11.20405"><ele>114.19999999999999</ele><time>2026-05-01T17:39:08.728Z</time></trkpt><trkpt lat="43.7449017" lon="11.2040833"><ele>112.0</ele><time>2026-05-01T17:39:09.728Z</time></trkpt><trkpt lat="43.7449933" lon="11.20411"><ele>112.0</ele><time>2026-05-01T17:39:10.729Z</time></trkpt><trkpt lat="43.7450733" lon="11.2041283"><ele>111.99999999999999</ele><time>2026-05-01T17:39:11.729Z</time></trkpt><trkpt lat="43.74516" lon="11.2040917"><ele>111.99999999999999</ele><time>2026-05-01T17:39:12.728Z</time></trkpt><trkpt lat="43.7452433" lon="11.2040317"><ele>112.0</ele><time>2026-05-01T17:39:13.728Z</time></trkpt><trkpt lat="43.7453317" lon="11.2039667"><ele>112.0</ele><time>2026-05-01T17:39:14.729Z</time></trkpt><trkpt lat="43.7454283" lon="11.2038983"><ele>107.75</ele><time>2026-05-01T17:39:15.728Z</time></trkpt><trkpt lat="43.7455267" lon="11.2038233"><ele>103.5</ele><time>2026-05-01T17:39:16.729Z</time></trkpt><trkpt lat="43.745625" lon="11.20375"><ele>99.25</ele><time>2026-05-01T17:39:17.728Z</time></trkpt><trkpt lat="43.7457283" lon="11.2036833"><ele>95.0</ele><time>2026-05-01T17:39:18.728Z</time></trkpt><trkpt lat="43.74583" lon="11.2036167"><ele>95.0</ele><time>2026-05-01T17:39:19.73Z</time></trkpt><trkpt lat="43.7459283" lon="11.2035567"><ele>95.0</ele><time>2026-05-01T17:39:20.729Z</time></trkpt><trkpt lat="43.74603" lon="11.203495"><ele>95.0</ele><time>2026-05-01T17:39:21.728Z</time></trkpt><trkpt lat="43.74613" lon="11.20344"><ele>95.0</ele><time>2026-05-01T17:39:22.728Z</time></trkpt><trkpt lat="43.7462317" lon="11.2033817"><ele>95.0</ele><time>2026-05-01T17:39:23.729Z</time></trkpt><trkpt lat="43.7463283" lon="11.203335"><ele>93.4</ele><time>2026-05-01T17:39:24.728Z</time></trkpt><trkpt lat="43.7464233" lon="11.2032817"><ele>91.8</ele><time>2026-05-01T17:39:25.728Z</time></trkpt><trkpt lat="43.746515" lon="11.20323"><ele>90.19999999999999</ele><time>2026-05-01T17:39:26.728Z</time></trkpt><trkpt lat="43.7466033" lon="11.2031717"><ele>88.6</ele><time>2026-05-01T17:39:27.728Z</time></trkpt><trkpt lat="43.746695" lon="11.2031083"><ele>87.0</ele><time>2026-05-01T17:39:28.727Z</time></trkpt><trkpt lat="43.7467917" lon="11.20304"><ele>84.0</ele><time>2026-05-01T17:39:29.727Z</time></trkpt><trkpt lat="43.746885" lon="11.2029533"><ele>81.0</ele><time>2026-05-01T17:39:30.727Z</time></trkpt><trkpt lat="43.7469783" lon="11.20285"><ele>78.0</ele><time>2026-05-01T17:39:31.727Z</time></trkpt><trkpt lat="43.7470683" lon="11.2027333"><ele>75.0</ele><time>2026-05-01T17:39:32.727Z</time></trkpt><trkpt lat="43.7471533" lon="11.2026267"><ele>75.0</ele><time>2026-05-01T17:39:33.727Z</time></trkpt><trkpt lat="43.7472283" lon="11.20253"><ele>75.0</ele><time>2026-05-01T17:39:34.727Z</time></trkpt><trkpt lat="43.74729" lon="11.2024017"><ele>75.0</ele><time>2026-05-01T17:39:35.728Z</time></trkpt><trkpt lat="43.74734" lon="11.2022633"><ele>75.0</ele><time>2026-05-01T17:39:36.729Z</time></trkpt><trkpt lat="43.74738" lon="11.20211"><ele>75.0</ele><time>2026-05-01T17:39:37.73Z</time></trkpt><trkpt lat="43.7474117" lon="11.2019567"><ele>73.6</ele><time>2026-05-01T17:39:38.73Z</time></trkpt><trkpt lat="43.747445" lon="11.2018033"><ele>72.2</ele><time>2026-05-01T17:39:39.727Z</time></trkpt><trkpt lat="43.74748" lon="11.2016483"><ele>70.8</ele><time>2026-05-01T17:39:40.728Z</time></trkpt><trkpt lat="43.747505" lon="11.2015033"><ele>69.4</ele><time>2026-05-01T17:39:41.728Z</time></trkpt><trkpt lat="43.74753" lon="11.2013633"><ele>68.0</ele><time>2026-05-01T17:39:42.728Z</time></trkpt><trkpt lat="43.7475567" lon="11.201235"><ele>67.2</ele><time>2026-05-01T17:39:43.727Z</time></trkpt><trkpt lat="43.7475883" lon="11.2011183"><ele>66.4</ele><time>2026-05-01T17:39:44.727Z</time></trkpt><trkpt lat="43.7476267" lon="11.201015"><ele>65.60000000000001</ele><time>2026-05-01T17:39:45.732Z</time></trkpt><trkpt lat="43.74769" lon="11.2009267"><ele>64.8</ele><time>2026-05-01T17:39:46.729Z</time></trkpt><trkpt lat="43.7477783" lon="11.2008683"><ele>64.0</ele><time>2026-05-01T17:39:47.727Z</time></trkpt><trkpt lat="43.747875" lon="11.2008217"><ele>62.5</ele><time>2026-05-01T17:39:48.727Z</time></trkpt><trkpt lat="43.7480267" lon="11.2007883"><ele>61.0</ele><time>2026-05-01T17:39:49.729Z</time></trkpt><trkpt lat="43.7481617" lon="11.2007417"><ele>59.5</ele><time>2026-05-01T17:39:50.728Z</time></trkpt><trkpt lat="43.7482983" lon="11.2007"><ele>58.0</ele><time>2026-05-01T17:39:51.728Z</time></trkpt><trkpt lat="43.7484283" lon="11.2006583"><ele>57.0</ele><time>2026-05-01T17:39:52.73Z</time></trkpt><trkpt lat="43.7485583" lon="11.2006183"><ele>56.0</ele><time>2026-05-01T17:39:53.73Z</time></trkpt><trkpt lat="43.7486933" lon="11.2005617"><ele>55.0</ele><time>2026-05-01T17:39:54.727Z</time></trkpt><trkpt lat="43.7488283" lon="11.200485"><ele>54.0</ele><time>2026-05-01T17:39:55.73Z</time></trkpt><trkpt lat="43.7489567" lon="11.200395"><ele>54.0</ele><time>2026-05-01T17:39:56.728Z</time></trkpt><trkpt lat="43.7490733" lon="11.2002883"><ele>54.0</ele><time>2026-05-01T17:39:57.728Z</time></trkpt><trkpt lat="43.7491933" lon="11.2001883"><ele>54.0</ele><time>2026-05-01T17:39:58.727Z</time></trkpt><trkpt lat="43.74931" lon="11.2000983"><ele>54.0</ele><time>2026-05-01T17:39:59.728Z</time></trkpt><trkpt lat="43.749425" lon="11.2000083"><ele>54.25</ele><time>2026-05-01T17:40:00.73Z</time></trkpt><trkpt lat="43.7495433" lon="11.1999317"><ele>54.5</ele><time>2026-05-01T17:40:01.727Z</time></trkpt><trkpt lat="43.749655" lon="11.1998667"><ele>54.75</ele><time>2026-05-01T17:40:02.728Z</time></trkpt><trkpt lat="43.7497733" lon="11.1998033"><ele>55.0</ele><time>2026-05-01T17:40:03.727Z</time></trkpt><trkpt lat="43.7498567" lon="11.199735"><ele>55.0</ele><time>2026-05-01T17:40:04.728Z</time></trkpt><trkpt lat="43.7499267" lon="11.199645"><ele>55.0</ele><time>2026-05-01T17:40:05.727Z</time></trkpt><trkpt lat="43.7499967" lon="11.19954"><ele>55.0</ele><time>2026-05-01T17:40:06.727Z</time></trkpt><trkpt lat="43.750065" lon="11.1994283"><ele>55.0</ele><time>2026-05-01T17:40:07.727Z</time></trkpt><trkpt lat="43.7501433" lon="11.19931"><ele>55.0</ele><time>2026-05-01T17:40:08.73Z</time></trkpt><trkpt lat="43.7502317" lon="11.19919"><ele>55.0</ele><time>2026-05-01T17:40:09.727Z</time></trkpt><trkpt lat="43.7503233" lon="11.19907"><ele>55.0</ele><time>2026-05-01T17:40:10.728Z</time></trkpt><trkpt lat="43.7504167" lon="11.1989533"><ele>55.0</ele><time>2026-05-01T17:40:11.726Z</time></trkpt><trkpt lat="43.750505" lon="11.1988367"><ele>55.0</ele><time>2026-05-01T17:40:12.728Z</time></trkpt><trkpt lat="43.750585" lon="11.19873"><ele>55.0</ele><time>2026-05-01T17:40:13.729Z</time></trkpt><trkpt lat="43.7506567" lon="11.1986083"><ele>55.0</ele><time>2026-05-01T17:40:14.73Z</time></trkpt><trkpt lat="43.75072" lon="11.1984783"><ele>55.0</ele><time>2026-05-01T17:40:15.727Z</time></trkpt><trkpt lat="43.7507833" lon="11.1983267"><ele>55.0</ele><time>2026-05-01T17:40:16.728Z</time></trkpt><trkpt lat="43.7508483" lon="11.198195"><ele>53.4</ele><time>2026-05-01T17:40:17.729Z</time></trkpt><trkpt lat="43.7509183" lon="11.1980967"><ele>51.8</ele><time>2026-05-01T17:40:18.727Z</time></trkpt><trkpt lat="43.7510183" lon="11.1980083"><ele>50.2</ele><time>2026-05-01T17:40:19.728Z</time></trkpt><trkpt lat="43.7510933" lon="11.1979233"><ele>48.6</ele><time>2026-05-01T17:40:20.728Z</time></trkpt><trkpt lat="43.751145" lon="11.1978417"><ele>47.0</ele><time>2026-05-01T17:40:21.727Z</time></trkpt><trkpt lat="43.7512267" lon="11.1977583"><ele>47.0</ele><time>2026-05-01T17:40:22.727Z</time></trkpt><trkpt lat="43.751315" lon="11.197665"><ele>47.0</ele><time>2026-05-01T17:40:23.727Z</time></trkpt><trkpt lat="43.7513717" lon="11.1975667"><ele>47.0</ele><time>2026-05-01T17:40:24.727Z</time></trkpt><trkpt lat="43.7514183" lon="11.1974633"><ele>47.0</ele><time>2026-05-01T17:40:25.728Z</time></trkpt><trkpt lat="43.7514683" lon="11.1973717"><ele>47.0</ele><time>2026-05-01T17:40:26.727Z</time></trkpt><trkpt lat="43.751525" lon="11.1972783"><ele>47.400000000000006</ele><time>2026-05-01T17:40:27.727Z</time></trkpt><trkpt lat="43.7516167" lon="11.1972267"><ele>47.800000000000004</ele><time>2026-05-01T17:40:28.728Z</time></trkpt><trkpt lat="43.75169" lon="11.1971933"><ele>48.2</ele><time>2026-05-01T17:40:29.728Z</time></trkpt><trkpt lat="43.7518033" lon="11.1971167"><ele>48.6</ele><time>2026-05-01T17:40:31.727Z</time></trkpt><trkpt lat="43.7518533" lon="11.1969417"><ele>49.0</ele><time>2026-05-01T17:40:33.729Z</time></trkpt><trkpt lat="43.7518533" lon="11.1968183"><ele>49.0</ele><time>2026-05-01T17:40:34.728Z</time></trkpt><trkpt lat="43.7518267" lon="11.1966433"><ele>49.0</ele><time>2026-05-01T17:40:35.73Z</time></trkpt><trkpt lat="43.7518117" lon="11.196465"><ele>49.0</ele><time>2026-05-01T17:40:36.727Z</time></trkpt><trkpt lat="43.7518033" lon="11.1962917"><ele>49.0</ele><time>2026-05-01T17:40:37.728Z</time></trkpt><trkpt lat="43.75179" lon="11.1961133"><ele>49.25</ele><time>2026-05-01T17:40:38.728Z</time></trkpt><trkpt lat="43.7517833" lon="11.1959317"><ele>49.5</ele><time>2026-05-01T17:40:39.728Z</time></trkpt><trkpt lat="43.75178" lon="11.1957567"><ele>49.75</ele><time>2026-05-01T17:40:40.728Z</time></trkpt><trkpt lat="43.7517833" lon="11.1955833"><ele>50.0</ele><time>2026-05-01T17:40:41.728Z</time></trkpt><trkpt lat="43.751795" lon="11.1954017"><ele>50.0</ele><time>2026-05-01T17:40:42.728Z</time></trkpt><trkpt lat="43.75182" lon="11.1952267"><ele>50.0</ele><time>2026-05-01T17:40:43.728Z</time></trkpt><trkpt lat="43.7518617" lon="11.1950667"><ele>50.0</ele><time>2026-05-01T17:40:44.729Z</time></trkpt><trkpt lat="43.7519067" lon="11.1949117"><ele>50.0</ele><time>2026-05-01T17:40:45.729Z</time></trkpt><trkpt lat="43.751955" lon="11.1947517"><ele>49.0</ele><time>2026-05-01T17:40:46.728Z</time></trkpt><trkpt lat="43.7520133" lon="11.19462"><ele>48.0</ele><time>2026-05-01T17:40:47.729Z</time></trkpt><trkpt lat="43.7520683" lon="11.1945133"><ele>47.0</ele><time>2026-05-01T17:40:48.728Z</time></trkpt><trkpt lat="43.7521117" lon="11.1944167"><ele>46.0</ele><time>2026-05-01T17:40:49.729Z</time></trkpt><trkpt lat="43.75216" lon="11.194325"><ele>45.0</ele><time>2026-05-01T17:40:50.73Z</time></trkpt><trkpt lat="43.7522083" lon="11.1942317"><ele>45.0</ele><time>2026-05-01T17:40:51.728Z</time></trkpt><trkpt lat="43.75228" lon="11.1941233"><ele>45.0</ele><time>2026-05-01T17:40:52.728Z</time></trkpt><trkpt lat="43.7523717" lon="11.1940067"><ele>45.0</ele><time>2026-05-01T17:40:53.729Z</time></trkpt><trkpt lat="43.7524467" lon="11.193875"><ele>45.0</ele><time>2026-05-01T17:40:54.729Z</time></trkpt><trkpt lat="43.7525317" lon="11.19374"><ele>45.0</ele><time>2026-05-01T17:40:55.727Z</time></trkpt><trkpt lat="43.7526083" lon="11.1936"><ele>45.0</ele><time>2026-05-01T17:40:56.728Z</time></trkpt><trkpt lat="43.75269" lon="11.1934717"><ele>45.0</ele><time>2026-05-01T17:40:57.728Z</time></trkpt><trkpt lat="43.7527767" lon="11.1933483"><ele>45.0</ele><time>2026-05-01T17:40:58.727Z</time></trkpt><trkpt lat="43.7528733" lon="11.19323"><ele>45.2</ele><time>2026-05-01T17:40:59.728Z</time></trkpt><trkpt lat="43.7529767" lon="11.19313"><ele>45.4</ele><time>2026-05-01T17:41:00.727Z</time></trkpt><trkpt lat="43.753065" lon="11.1930567"><ele>45.599999999999994</ele><time>2026-05-01T17:41:01.729Z</time></trkpt><trkpt lat="43.75316" lon="11.192985"><ele>45.8</ele><time>2026-05-01T17:41:02.728Z</time></trkpt><trkpt lat="43.75324" lon="11.192925"><ele>46.0</ele><time>2026-05-01T17:41:03.728Z</time></trkpt><trkpt lat="43.7533083" lon="11.1928733"><ele>46.0</ele><time>2026-05-01T17:41:04.727Z</time></trkpt><trkpt lat="43.7533783" lon="11.1928233"><ele>46.0</ele><time>2026-05-01T17:41:05.73Z</time></trkpt><trkpt lat="43.7534517" lon="11.19277"><ele>46.0</ele><time>2026-05-01T17:41:06.728Z</time></trkpt><trkpt lat="43.7535217" lon="11.1927133"><ele>46.0</ele><time>2026-05-01T17:41:07.727Z</time></trkpt><trkpt lat="43.7535967" lon="11.1926517"><ele>46.0</ele><time>2026-05-01T17:41:08.729Z</time></trkpt><trkpt lat="43.7536767" lon="11.1925917"><ele>46.0</ele><time>2026-05-01T17:41:09.727Z</time></trkpt><trkpt lat="43.7537583" lon="11.1925317"><ele>46.16666666666667</ele><time>2026-05-01T17:41:10.728Z</time></trkpt><trkpt lat="43.7538283" lon="11.1924833"><ele>46.333333333333336</ele><time>2026-05-01T17:41:11.729Z</time></trkpt><trkpt lat="43.7538967" lon="11.1924417"><ele>46.5</ele><time>2026-05-01T17:41:12.728Z</time></trkpt><trkpt lat="43.7539617" lon="11.1924017"><ele>46.666666666666664</ele><time>2026-05-01T17:41:13.727Z</time></trkpt><trkpt lat="43.7540233" lon="11.1923633"><ele>46.83333333333333</ele><time>2026-05-01T17:41:14.728Z</time></trkpt><trkpt lat="43.7541217" lon="11.19231"><ele>47.0</ele><time>2026-05-01T17:41:16.728Z</time></trkpt><trkpt lat="43.7542083" lon="11.192275"><ele>47.25</ele><time>2026-05-01T17:41:18.728Z</time></trkpt><trkpt lat="43.7543017" lon="11.1923433"><ele>47.5</ele><time>2026-05-01T17:41:20.728Z</time></trkpt><trkpt lat="43.75434" lon="11.1924783"><ele>47.75</ele><time>2026-05-01T17:41:21.728Z</time></trkpt><trkpt lat="43.7543867" lon="11.1926117"><ele>48.0</ele><time>2026-05-01T17:41:22.727Z</time></trkpt><trkpt lat="43.7544517" lon="11.1927917"><ele>47.5</ele><time>2026-05-01T17:41:23.728Z</time></trkpt><trkpt lat="43.7545117" lon="11.1929467"><ele>47.0</ele><time>2026-05-01T17:41:24.73Z</time></trkpt><trkpt lat="43.7545717" lon="11.193085"><ele>46.5</ele><time>2026-05-01T17:41:25.729Z</time></trkpt><trkpt lat="43.754635" lon="11.1932267"><ele>46.0</ele><time>2026-05-01T17:41:26.728Z</time></trkpt><trkpt lat="43.7546883" lon="11.19336"><ele>45.5</ele><time>2026-05-01T17:41:27.728Z</time></trkpt><trkpt lat="43.7547483" lon="11.1935217"><ele>45.0</ele><time>2026-05-01T17:41:28.728Z</time></trkpt><trkpt lat="43.7548117" lon="11.1936767"><ele>44.5</ele><time>2026-05-01T17:41:29.727Z</time></trkpt><trkpt lat="43.7548817" lon="11.1938183"><ele>44.0</ele><time>2026-05-01T17:41:30.726Z</time></trkpt><trkpt lat="43.7549517" lon="11.19396"><ele>44.25</ele><time>2026-05-01T17:41:31.728Z</time></trkpt><trkpt lat="43.7550183" lon="11.194105"><ele>44.5</ele><time>2026-05-01T17:41:32.729Z</time></trkpt><trkpt lat="43.755085" lon="11.1942517"><ele>44.75</ele><time>2026-05-01T17:41:33.728Z</time></trkpt><trkpt lat="43.7551567" lon="11.1943967"><ele>45.0</ele><time>2026-05-01T17:41:34.729Z</time></trkpt><trkpt lat="43.7552367" lon="11.1945417"><ele>45.0</ele><time>2026-05-01T17:41:35.727Z</time></trkpt><trkpt lat="43.7553167" lon="11.1946883"><ele>45.0</ele><time>2026-05-01T17:41:36.728Z</time></trkpt><trkpt lat="43.7553917" lon="11.1948367"><ele>45.0</ele><time>2026-05-01T17:41:37.728Z</time></trkpt><trkpt lat="43.75546" lon="11.19499"><ele>45.0</ele><time>2026-05-01T17:41:38.729Z</time></trkpt><trkpt lat="43.7555183" lon="11.1951483"><ele>45.0</ele><time>2026-05-01T17:41:39.727Z</time></trkpt><trkpt lat="43.7555617" lon="11.1953217"><ele>45.0</ele><time>2026-05-01T17:41:40.729Z</time></trkpt><trkpt lat="43.7556133" lon="11.19549"><ele>45.0</ele><time>2026-05-01T17:41:41.728Z</time></trkpt><trkpt lat="43.7556717" lon="11.19566"><ele>45.0</ele><time>2026-05-01T17:41:42.727Z</time></trkpt><trkpt lat="43.7557333" lon="11.1958333"><ele>45.0</ele><time>2026-05-01T17:41:43.728Z</time></trkpt><trkpt lat="43.7557883" lon="11.19601"><ele>45.0</ele><time>2026-05-01T17:41:44.729Z</time></trkpt><trkpt lat="43.755845" lon="11.1961883"><ele>45.0</ele><time>2026-05-01T17:41:45.728Z</time></trkpt><trkpt lat="43.75592" lon="11.1963633"><ele>45.0</ele><time>2026-05-01T17:41:46.729Z</time></trkpt><trkpt lat="43.7560117" lon="11.196525"><ele>45.0</ele><time>2026-05-01T17:41:47.728Z</time></trkpt><trkpt lat="43.7560767" lon="11.196695"><ele>45.0</ele><time>2026-05-01T17:41:48.729Z</time></trkpt><trkpt lat="43.7561367" lon="11.19686"><ele>45.0</ele><time>2026-05-01T17:41:49.728Z</time></trkpt><trkpt lat="43.7561983" lon="11.1970167"><ele>45.0</ele><time>2026-05-01T17:41:50.729Z</time></trkpt><trkpt lat="43.756255" lon="11.1971733"><ele>45.0</ele><time>2026-05-01T17:41:51.728Z</time></trkpt><trkpt lat="43.75631" lon="11.1973167"><ele>45.0</ele><time>2026-05-01T17:41:52.728Z</time></trkpt><trkpt lat="43.7563667" lon="11.1974433"><ele>45.0</ele><time>2026-05-01T17:41:53.728Z</time></trkpt><trkpt lat="43.7564117" lon="11.1975533"><ele>45.0</ele><time>2026-05-01T17:41:54.729Z</time></trkpt><trkpt lat="43.75645" lon="11.197645"><ele>45.0</ele><time>2026-05-01T17:41:55.727Z</time></trkpt><trkpt lat="43.7564917" lon="11.1977133"><ele>45.6</ele><time>2026-05-01T17:41:56.729Z</time></trkpt><trkpt lat="43.7565417" lon="11.1977883"><ele>46.2</ele><time>2026-05-01T17:41:57.728Z</time></trkpt><trkpt lat="43.75659" lon="11.19789"><ele>46.8</ele><time>2026-05-01T17:41:58.729Z</time></trkpt><trkpt lat="43.7566517" lon="11.1980133"><ele>47.4</ele><time>2026-05-01T17:41:59.728Z</time></trkpt><trkpt lat="43.7567133" lon="11.1981367"><ele>48.0</ele><time>2026-05-01T17:42:00.728Z</time></trkpt><trkpt lat="43.7567683" lon="11.198245"><ele>48.0</ele><time>2026-05-01T17:42:01.728Z</time></trkpt><trkpt lat="43.756815" lon="11.1983233"><ele>48.0</ele><time>2026-05-01T17:42:02.728Z</time></trkpt><trkpt lat="43.7568633" lon="11.19841"><ele>48.0</ele><time>2026-05-01T17:42:04.729Z</time></trkpt><trkpt lat="43.7568733" lon="11.19851"><ele>48.0</ele><time>2026-05-01T17:43:09.727Z</time></trkpt><trkpt lat="43.7569833" lon="11.1986517"><ele>48.0</ele><time>2026-05-01T17:43:11.728Z</time></trkpt><trkpt lat="43.75704" lon="11.1987433"><ele>48.0</ele><time>2026-05-01T17:43:12.727Z</time></trkpt><trkpt lat="43.7570917" lon="11.1988533"><ele>48.0</ele><time>2026-05-01T17:43:13.728Z</time></trkpt><trkpt lat="43.7571483" lon="11.1989783"><ele>48.0</ele><time>2026-05-01T17:43:14.728Z</time></trkpt><trkpt lat="43.757215" lon="11.1991167"><ele>48.0</ele><time>2026-05-01T17:43:15.727Z</time></trkpt><trkpt lat="43.75728" lon="11.1992567"><ele>48.0</ele><time>2026-05-01T17:43:16.727Z</time></trkpt><trkpt lat="43.7573433" lon="11.1993883"><ele>47.75</ele><time>2026-05-01T17:43:17.726Z</time></trkpt><trkpt lat="43.757405" lon="11.199525"><ele>47.5</ele><time>2026-05-01T17:43:18.728Z</time></trkpt><trkpt lat="43.7574717" lon="11.199665"><ele>47.25</ele><time>2026-05-01T17:43:19.726Z</time></trkpt><trkpt lat="43.75754" lon="11.1998067"><ele>47.0</ele><time>2026-05-01T17:43:20.729Z</time></trkpt><trkpt lat="43.7576167" lon="11.1999383"><ele>46.75</ele><time>2026-05-01T17:43:21.73Z</time></trkpt><trkpt lat="43.7576983" lon="11.200065"><ele>46.5</ele><time>2026-05-01T17:43:22.729Z</time></trkpt><trkpt lat="43.7577733" lon="11.2002033"><ele>46.25</ele><time>2026-05-01T17:43:23.727Z</time></trkpt><trkpt lat="43.7578383" lon="11.2003383"><ele>46.0</ele><time>2026-05-01T17:43:24.728Z</time></trkpt><trkpt lat="43.7579" lon="11.2004733"><ele>46.0</ele><time>2026-05-01T17:43:25.73Z</time></trkpt><trkpt lat="43.7579633" lon="11.2006117"><ele>46.0</ele><time>2026-05-01T17:43:26.729Z</time></trkpt><trkpt lat="43.7580233" lon="11.2007583"><ele>46.0</ele><time>2026-05-01T17:43:27.728Z</time></trkpt><trkpt lat="43.7580867" lon="11.2008983"><ele>46.0</ele><time>2026-05-01T17:43:28.73Z</time></trkpt><trkpt lat="43.7581567" lon="11.20104"><ele>46.25</ele><time>2026-05-01T17:43:29.729Z</time></trkpt><trkpt lat="43.75822" lon="11.2011867"><ele>46.5</ele><time>2026-05-01T17:43:30.729Z</time></trkpt><trkpt lat="43.7582817" lon="11.201335"><ele>46.75</ele><time>2026-05-01T17:43:31.729Z</time></trkpt><trkpt lat="43.7583433" lon="11.2014867"><ele>47.0</ele><time>2026-05-01T17:43:32.729Z</time></trkpt><trkpt lat="43.7584117" lon="11.201635"><ele>47.0</ele><time>2026-05-01T17:43:33.729Z</time></trkpt><trkpt lat="43.7584833" lon="11.2017817"><ele>47.0</ele><time>2026-05-01T17:43:34.728Z</time></trkpt><trkpt lat="43.75855" lon="11.20193"><ele>47.0</ele><time>2026-05-01T17:43:35.728Z</time></trkpt><trkpt lat="43.7586017" lon="11.2020983"><ele>47.0</ele><time>2026-05-01T17:43:36.728Z</time></trkpt><trkpt lat="43.7586583" lon="11.2022483"><ele>47.0</ele><time>2026-05-01T17:43:37.729Z</time></trkpt><trkpt lat="43.7587217" lon="11.2023833"><ele>47.0</ele><time>2026-05-01T17:43:38.728Z</time></trkpt><trkpt lat="43.758775" lon="11.2025117"><ele>47.0</ele><time>2026-05-01T17:43:39.728Z</time></trkpt><trkpt lat="43.75882" lon="11.2026183"><ele>47.0</ele><time>2026-05-01T17:43:40.728Z</time></trkpt><trkpt lat="43.7588583" lon="11.202705"><ele>47.0</ele><time>2026-05-01T17:43:41.728Z</time></trkpt><trkpt lat="43.7589217" lon="11.2028433"><ele>47.0</ele><time>2026-05-01T17:43:43.728Z</time></trkpt><trkpt lat="43.7589567" lon="11.2029983"><ele>47.0</ele><time>2026-05-01T17:43:45.728Z</time></trkpt><trkpt lat="43.7589767" lon="11.2030883"><ele>47.0</ele><time>2026-05-01T17:43:46.729Z</time></trkpt><trkpt lat="43.7590083" lon="11.2031767"><ele>47.0</ele><time>2026-05-01T17:43:47.728Z</time></trkpt><trkpt lat="43.7590533" lon="11.2032683"><ele>47.0</ele><time>2026-05-01T17:43:48.728Z</time></trkpt><trkpt lat="43.7591117" lon="11.20335"><ele>47.0</ele><time>2026-05-01T17:43:49.728Z</time></trkpt><trkpt lat="43.7591917" lon="11.2034417"><ele>47.0</ele><time>2026-05-01T17:43:50.728Z</time></trkpt><trkpt lat="43.7592767" lon="11.203545"><ele>47.0</ele><time>2026-05-01T17:43:51.727Z</time></trkpt><trkpt lat="43.7593483" lon="11.2036517"><ele>47.0</ele><time>2026-05-01T17:43:52.729Z</time></trkpt><trkpt lat="43.7594133" lon="11.2037633"><ele>47.0</ele><time>2026-05-01T17:43:53.727Z</time></trkpt><trkpt lat="43.75947" lon="11.20388"><ele>47.0</ele><time>2026-05-01T17:43:54.728Z</time></trkpt><trkpt lat="43.7595283" lon="11.2039917"><ele>46.25</ele><time>2026-05-01T17:43:55.728Z</time></trkpt><trkpt lat="43.759605" lon="11.2041"><ele>45.5</ele><time>2026-05-01T17:43:56.729Z</time></trkpt><trkpt lat="43.7597033" lon="11.204245"><ele>44.75</ele><time>2026-05-01T17:43:57.729Z</time></trkpt><trkpt lat="43.7598133" lon="11.2044033"><ele>44.0</ele><time>2026-05-01T17:43:58.729Z</time></trkpt><trkpt lat="43.7599233" lon="11.204565"><ele>44.0</ele><time>2026-05-01T17:43:59.728Z</time></trkpt><trkpt lat="43.7600383" lon="11.2047283"><ele>44.0</ele><time>2026-05-01T17:44:00.728Z</time></trkpt><trkpt lat="43.7601517" lon="11.2048833"><ele>44.0</ele><time>2026-05-01T17:44:01.728Z</time></trkpt><trkpt lat="43.7602633" lon="11.20503"><ele>43.33333333333333</ele><time>2026-05-01T17:44:02.728Z</time></trkpt><trkpt lat="43.76039" lon="11.2051633"><ele>42.666666666666664</ele><time>2026-05-01T17:44:03.729Z</time></trkpt><trkpt lat="43.7605117" lon="11.2053017"><ele>42.0</ele><time>2026-05-01T17:44:04.728Z</time></trkpt><trkpt lat="43.7606233" lon="11.2054467"><ele>42.0</ele><time>2026-05-01T17:44:05.729Z</time></trkpt><trkpt lat="43.7607317" lon="11.2055933"><ele>42.0</ele><time>2026-05-01T17:44:06.728Z</time></trkpt><trkpt lat="43.760835" lon="11.2057383"><ele>42.0</ele><time>2026-05-01T17:44:07.729Z</time></trkpt><trkpt lat="43.7609317" lon="11.2058783"><ele>42.0</ele><time>2026-05-01T17:44:08.728Z</time></trkpt><trkpt lat="43.7610267" lon="11.2060183"><ele>42.0</ele><time>2026-05-01T17:44:09.728Z</time></trkpt><trkpt lat="43.7611133" lon="11.2061567"><ele>42.0</ele><time>2026-05-01T17:44:10.73Z</time></trkpt><trkpt lat="43.7612033" lon="11.2062867"><ele>42.0</ele><time>2026-05-01T17:44:11.728Z</time></trkpt><trkpt lat="43.76129" lon="11.2064067"><ele>42.0</ele><time>2026-05-01T17:44:12.728Z</time></trkpt><trkpt lat="43.76138" lon="11.2065083"><ele>42.0</ele><time>2026-05-01T17:44:13.728Z</time></trkpt><trkpt lat="43.7614767" lon="11.2065917"><ele>42.0</ele><time>2026-05-01T17:44:14.727Z</time></trkpt><trkpt lat="43.7615917" lon="11.2066683"><ele>42.0</ele><time>2026-05-01T17:44:15.727Z</time></trkpt><trkpt lat="43.761725" lon="11.2067583"><ele>42.0</ele><time>2026-05-01T17:44:16.725Z</time></trkpt><trkpt lat="43.76186" lon="11.2068533"><ele>42.0</ele><time>2026-05-01T17:44:17.727Z</time></trkpt><trkpt lat="43.7620017" lon="11.2069383"><ele>42.0</ele><time>2026-05-01T17:44:18.728Z</time></trkpt><trkpt lat="43.7621483" lon="11.2070233"><ele>42.0</ele><time>2026-05-01T17:44:19.728Z</time></trkpt><trkpt lat="43.76229" lon="11.2071167"><ele>42.0</ele><time>2026-05-01T17:44:20.727Z</time></trkpt><trkpt lat="43.7624367" lon="11.207215"><ele>42.0</ele><time>2026-05-01T17:44:21.727Z</time></trkpt><trkpt lat="43.7625783" lon="11.207315"><ele>42.0</ele><time>2026-05-01T17:44:22.726Z</time></trkpt><trkpt lat="43.7627117" lon="11.2074267"><ele>42.333333333333336</ele><time>2026-05-01T17:44:23.727Z</time></trkpt><trkpt lat="43.762835" lon="11.2075367"><ele>42.66666666666667</ele><time>2026-05-01T17:44:24.729Z</time></trkpt><trkpt lat="43.76296" lon="11.2076483"><ele>43.0</ele><time>2026-05-01T17:44:25.727Z</time></trkpt><trkpt lat="43.7630967" lon="11.2077533"><ele>43.0</ele><time>2026-05-01T17:44:26.728Z</time></trkpt><trkpt lat="43.76322" lon="11.2078717"><ele>43.0</ele><time>2026-05-01T17:44:27.728Z</time></trkpt><trkpt lat="43.7633433" lon="11.20798"><ele>43.0</ele><time>2026-05-01T17:44:28.727Z</time></trkpt><trkpt lat="43.7634567" lon="11.2080917"><ele>43.0</ele><time>2026-05-01T17:44:29.726Z</time></trkpt><trkpt lat="43.76356" lon="11.2081933"><ele>42.25</ele><time>2026-05-01T17:44:30.726Z</time></trkpt><trkpt lat="43.7636533" lon="11.2082983"><ele>41.5</ele><time>2026-05-01T17:44:31.728Z</time></trkpt><trkpt lat="43.76374" lon="11.2084167"><ele>40.75</ele><time>2026-05-01T17:44:32.729Z</time></trkpt><trkpt lat="43.76383" lon="11.2085417"><ele>40.0</ele><time>2026-05-01T17:44:33.727Z</time></trkpt><trkpt lat="43.7639283" lon="11.2086633"><ele>40.0</ele><time>2026-05-01T17:44:34.728Z</time></trkpt><trkpt lat="43.7640283" lon="11.2087983"><ele>40.0</ele><time>2026-05-01T17:44:35.727Z</time></trkpt><trkpt lat="43.7641283" lon="11.2089317"><ele>40.0</ele><time>2026-05-01T17:44:36.728Z</time></trkpt><trkpt lat="43.7642317" lon="11.2090683"><ele>40.0</ele><time>2026-05-01T17:44:37.728Z</time></trkpt><trkpt lat="43.76432" lon="11.20922"><ele>40.5</ele><time>2026-05-01T17:44:38.728Z</time></trkpt><trkpt lat="43.7644" lon="11.2093683"><ele>41.0</ele><time>2026-05-01T17:44:39.727Z</time></trkpt><trkpt lat="43.76448" lon="11.2095067"><ele>41.5</ele><time>2026-05-01T17:44:40.727Z</time></trkpt><trkpt lat="43.764555" lon="11.20963"><ele>42.0</ele><time>2026-05-01T17:44:41.727Z</time></trkpt><trkpt lat="43.764625" lon="11.2097367"><ele>42.166666666666664</ele><time>2026-05-01T17:44:42.727Z</time></trkpt><trkpt lat="43.7646983" lon="11.2098267"><ele>42.333333333333336</ele><time>2026-05-01T17:44:43.727Z</time></trkpt><trkpt lat="43.7647667" lon="11.20992"><ele>42.5</ele><time>2026-05-01T17:44:44.727Z</time></trkpt><trkpt lat="43.7648233" lon="11.2100017"><ele>42.66666666666667</ele><time>2026-05-01T17:44:45.727Z</time></trkpt><trkpt lat="43.764875" lon="11.2100667"><ele>42.833333333333336</ele><time>2026-05-01T17:44:46.726Z</time></trkpt><trkpt lat="43.7649567" lon="11.210125"><ele>43.0</ele><time>2026-05-01T17:44:48.727Z</time></trkpt><trkpt lat="43.7650783" lon="11.210035"><ele>43.0</ele><time>2026-05-01T17:44:50.727Z</time></trkpt><trkpt lat="43.7651667" lon="11.2099567"><ele>43.0</ele><time>2026-05-01T17:44:51.727Z</time></trkpt><trkpt lat="43.7652683" lon="11.2098767"><ele>43.0</ele><time>2026-05-01T17:44:52.726Z</time></trkpt><trkpt lat="43.7653467" lon="11.2097883"><ele>43.0</ele><time>2026-05-01T17:44:53.727Z</time></trkpt><trkpt lat="43.7654167" lon="11.2096967"><ele>43.0</ele><time>2026-05-01T17:44:54.727Z</time></trkpt><trkpt lat="43.7654833" lon="11.2096017"><ele>42.8</ele><time>2026-05-01T17:44:55.727Z</time></trkpt><trkpt lat="43.7655417" lon="11.2095167"><ele>42.599999999999994</ele><time>2026-05-01T17:44:56.726Z</time></trkpt><trkpt lat="43.7655967" lon="11.2094433"><ele>42.400000000000006</ele><time>2026-05-01T17:44:57.726Z</time></trkpt><trkpt lat="43.7656817" lon="11.2093233"><ele>42.2</ele><time>2026-05-01T17:44:59.728Z</time></trkpt><trkpt lat="43.7657517" lon="11.2092233"><ele>42.0</ele><time>2026-05-01T17:45:01.726Z</time></trkpt><trkpt lat="43.765815" lon="11.2091333"><ele>42.0</ele><time>2026-05-01T17:45:03.727Z</time></trkpt><trkpt lat="43.7659167" lon="11.2090333"><ele>42.0</ele><time>2026-05-01T17:45:05.726Z</time></trkpt><trkpt lat="43.765985" lon="11.2089817"><ele>42.0</ele><time>2026-05-01T17:45:06.728Z</time></trkpt><trkpt lat="43.7660617" lon="11.2089267"><ele>42.0</ele><time>2026-05-01T17:45:07.727Z</time></trkpt><trkpt lat="43.76615" lon="11.2088867"><ele>42.0</ele><time>2026-05-01T17:45:08.726Z</time></trkpt><trkpt lat="43.766235" lon="11.2088333"><ele>41.833333333333336</ele><time>2026-05-01T17:45:09.727Z</time></trkpt><trkpt lat="43.7663233" lon="11.208785"><ele>41.666666666666664</ele><time>2026-05-01T17:45:10.728Z</time></trkpt><trkpt lat="43.7663983" lon="11.208745"><ele>41.5</ele><time>2026-05-01T17:45:11.727Z</time></trkpt><trkpt lat="43.7664683" lon="11.208705"><ele>41.33333333333333</ele><time>2026-05-01T17:45:12.727Z</time></trkpt><trkpt lat="43.7665317" lon="11.2086767"><ele>41.166666666666664</ele><time>2026-05-01T17:45:13.726Z</time></trkpt><trkpt lat="43.766605" lon="11.2086517"><ele>41.0</ele><time>2026-05-01T17:45:15.729Z</time></trkpt><trkpt lat="43.7666833" lon="11.2086517"><ele>41.0</ele><time>2026-05-01T17:45:17.728Z</time></trkpt><trkpt lat="43.7668" lon="11.20872"><ele>41.0</ele><time>2026-05-01T17:45:19.727Z</time></trkpt><trkpt lat="43.76685" lon="11.2087833"><ele>41.0</ele><time>2026-05-01T17:45:20.727Z</time></trkpt><trkpt lat="43.7669383" lon="11.2088817"><ele>41.0</ele><time>2026-05-01T17:45:22.727Z</time></trkpt><trkpt lat="43.766995" lon="11.2089483"><ele>41.0</ele><time>2026-05-01T17:45:25.728Z</time></trkpt><trkpt lat="43.7670833" lon="11.2090633"><ele>41.166666666666664</ele><time>2026-05-01T17:45:56.726Z</time></trkpt><trkpt lat="43.7671383" lon="11.209125"><ele>41.33333333333333</ele><time>2026-05-01T17:45:57.725Z</time></trkpt><trkpt lat="43.76719" lon="11.209195"><ele>41.5</ele><time>2026-05-01T17:45:58.726Z</time></trkpt><trkpt lat="43.7672433" lon="11.2092583"><ele>41.666666666666664</ele><time>2026-05-01T17:45:59.726Z</time></trkpt><trkpt lat="43.767325" lon="11.2093367"><ele>41.833333333333336</ele><time>2026-05-01T17:46:01.726Z</time></trkpt><trkpt lat="43.767395" lon="11.2093933"><ele>42.0</ele><time>2026-05-01T17:46:03.726Z</time></trkpt><trkpt lat="43.76746" lon="11.209435"><ele>42.0</ele><time>2026-05-01T17:46:06.726Z</time></trkpt><trkpt lat="43.7675483" lon="11.2094417"><ele>42.0</ele><time>2026-05-01T17:46:10.726Z</time></trkpt><trkpt lat="43.7676167" lon="11.209445"><ele>42.0</ele><time>2026-05-01T17:46:48.728Z</time></trkpt><trkpt lat="43.7676233" lon="11.209285"><ele>42.0</ele><time>2026-05-01T17:46:51.729Z</time></trkpt><trkpt lat="43.7675667" lon="11.2092"><ele>42.0</ele><time>2026-05-01T17:46:52.729Z</time></trkpt><trkpt lat="43.7675017" lon="11.209115"><ele>42.0</ele><time>2026-05-01T17:46:53.728Z</time></trkpt><trkpt lat="43.76742" lon="11.2090317"><ele>42.0</ele><time>2026-05-01T17:46:54.728Z</time></trkpt><trkpt lat="43.7673267" lon="11.2089683"><ele>42.0</ele><time>2026-05-01T17:46:55.727Z</time></trkpt><trkpt lat="43.7672183" lon="11.2089183"><ele>42.0</ele><time>2026-05-01T17:46:56.729Z</time></trkpt><trkpt lat="43.7671083" lon="11.2088517"><ele>42.0</ele><time>2026-05-01T17:46:57.729Z</time></trkpt><trkpt lat="43.7670033" lon="11.208765"><ele>42.0</ele><time>2026-05-01T17:46:58.728Z</time></trkpt><trkpt lat="43.7669017" lon="11.2086633"><ele>42.0</ele><time>2026-05-01T17:46:59.729Z</time></trkpt><trkpt lat="43.7668017" lon="11.2085517"><ele>42.0</ele><time>2026-05-01T17:47:00.728Z</time></trkpt><trkpt lat="43.7666983" lon="11.2084233"><ele>42.0</ele><time>2026-05-01T17:47:01.728Z</time></trkpt><trkpt lat="43.7665883" lon="11.2082883"><ele>42.0</ele><time>2026-05-01T17:47:02.729Z</time></trkpt><trkpt lat="43.76648" lon="11.2081483"><ele>42.0</ele><time>2026-05-01T17:47:03.728Z</time></trkpt><trkpt lat="43.7663667" lon="11.20801"><ele>42.0</ele><time>2026-05-01T17:47:04.728Z</time></trkpt><trkpt lat="43.7662567" lon="11.207865"><ele>42.0</ele><time>2026-05-01T17:47:05.729Z</time></trkpt><trkpt lat="43.7661533" lon="11.20771"><ele>42.0</ele><time>2026-05-01T17:47:06.728Z</time></trkpt><trkpt lat="43.766055" lon="11.207545"><ele>42.0</ele><time>2026-05-01T17:47:07.729Z</time></trkpt><trkpt lat="43.7659583" lon="11.2073783"><ele>41.333333333333336</ele><time>2026-05-01T17:47:08.729Z</time></trkpt><trkpt lat="43.7658683" lon="11.2072083"><ele>40.66666666666667</ele><time>2026-05-01T17:47:09.728Z</time></trkpt><trkpt lat="43.7657733" lon="11.2070417"><ele>40.0</ele><time>2026-05-01T17:47:10.73Z</time></trkpt><trkpt lat="43.7656817" lon="11.2068733"><ele>40.0</ele><time>2026-05-01T17:47:11.729Z</time></trkpt><trkpt lat="43.76559" lon="11.2067067"><ele>40.0</ele><time>2026-05-01T17:47:12.728Z</time></trkpt><trkpt lat="43.7654917" lon="11.206545"><ele>40.0</ele><time>2026-05-01T17:47:13.727Z</time></trkpt><trkpt lat="43.7653983" lon="11.2063717"><ele>40.0</ele><time>2026-05-01T17:47:14.73Z</time></trkpt><trkpt lat="43.765315" lon="11.2061883"><ele>40.0</ele><time>2026-05-01T17:47:15.729Z</time></trkpt><trkpt lat="43.7652317" lon="11.2060033"><ele>40.0</ele><time>2026-05-01T17:47:16.728Z</time></trkpt><trkpt lat="43.7651667" lon="11.20581"><ele>40.0</ele><time>2026-05-01T17:47:17.73Z</time></trkpt><trkpt lat="43.76511" lon="11.2056083"><ele>40.0</ele><time>2026-05-01T17:47:18.727Z</time></trkpt><trkpt lat="43.7650667" lon="11.2054"><ele>40.0</ele><time>2026-05-01T17:47:19.729Z</time></trkpt><trkpt lat="43.76503" lon="11.2051883"><ele>40.0</ele><time>2026-05-01T17:47:20.729Z</time></trkpt><trkpt lat="43.7650017" lon="11.2049733"><ele>40.0</ele><time>2026-05-01T17:47:21.729Z</time></trkpt><trkpt lat="43.764975" lon="11.2047617"><ele>40.0</ele><time>2026-05-01T17:47:22.728Z</time></trkpt><trkpt lat="43.7649433" lon="11.2045417"><ele>40.333333333333336</ele><time>2026-05-01T17:47:23.729Z</time></trkpt><trkpt lat="43.7649133" lon="11.2043233"><ele>40.666666666666664</ele><time>2026-05-01T17:47:24.727Z</time></trkpt><trkpt lat="43.7648717" lon="11.2041117"><ele>41.0</ele><time>2026-05-01T17:47:25.729Z</time></trkpt><trkpt lat="43.7648467" lon="11.20391"><ele>41.0</ele><time>2026-05-01T17:47:26.727Z</time></trkpt><trkpt lat="43.7648233" lon="11.2037217"><ele>41.0</ele><time>2026-05-01T17:47:27.728Z</time></trkpt><trkpt lat="43.7648067" lon="11.20355"><ele>41.0</ele><time>2026-05-01T17:47:28.729Z</time></trkpt><trkpt lat="43.764795" lon="11.2033983"><ele>41.0</ele><time>2026-05-01T17:47:29.728Z</time></trkpt><trkpt lat="43.7647867" lon="11.20328"><ele>41.0</ele><time>2026-05-01T17:47:30.728Z</time></trkpt><trkpt lat="43.764785" lon="11.2031783"><ele>41.0</ele><time>2026-05-01T17:47:31.728Z</time></trkpt><trkpt lat="43.7648" lon="11.203075"><ele>41.0</ele><time>2026-05-01T17:47:33.727Z</time></trkpt><trkpt lat="43.7649017" lon="11.2031667"><ele>41.0</ele><time>2026-05-01T17:47:36.728Z</time></trkpt><trkpt lat="43.7649517" lon="11.2032267"><ele>41.0</ele><time>2026-05-01T17:47:37.729Z</time></trkpt><trkpt lat="43.7650017" lon="11.20329"><ele>41.0</ele><time>2026-05-01T17:47:38.729Z</time></trkpt><trkpt lat="43.76506" lon="11.20336"><ele>41.0</ele><time>2026-05-01T17:47:39.728Z</time></trkpt><trkpt lat="43.76511" lon="11.2034317"><ele>41.0</ele><time>2026-05-01T17:47:40.729Z</time></trkpt><trkpt lat="43.76515" lon="11.2035133"><ele>41.0</ele><time>2026-05-01T17:47:41.73Z</time></trkpt><trkpt lat="43.7651883" lon="11.20367"><ele>41.0</ele><time>2026-05-01T17:47:43.729Z</time></trkpt><trkpt lat="43.7652267" lon="11.2037883"><ele>41.0</ele><time>2026-05-01T17:47:45.729Z</time></trkpt><trkpt lat="43.7652783" lon="11.20371"><ele>41.0</ele><time>2026-05-01T17:47:49.729Z</time></trkpt><trkpt lat="43.7653533" lon="11.2035567"><ele>41.0</ele><time>2026-05-01T17:47:51.727Z</time></trkpt><trkpt lat="43.765395" lon="11.2034833"><ele>41.0</ele><time>2026-05-01T17:47:52.727Z</time></trkpt><trkpt lat="43.7654767" lon="11.203355"><ele>41.0</ele><time>2026-05-01T17:47:54.728Z</time></trkpt><trkpt lat="43.76552" lon="11.203285"><ele>41.0</ele><time>2026-05-01T17:47:55.728Z</time></trkpt><trkpt lat="43.7655633" lon="11.20319"><ele>41.0</ele><time>2026-05-01T17:47:56.729Z</time></trkpt><trkpt lat="43.7655983" lon="11.20309"><ele>41.0</ele><time>2026-05-01T17:47:57.729Z</time></trkpt><trkpt lat="43.765645" lon="11.203"><ele>41.0</ele><time>2026-05-01T17:47:58.728Z</time></trkpt><trkpt lat="43.7656867" lon="11.2029183"><ele>41.0</ele><time>2026-05-01T17:47:59.728Z</time></trkpt><trkpt lat="43.7657533" lon="11.2028033"><ele>41.0</ele><time>2026-05-01T17:48:01.729Z</time></trkpt><trkpt lat="43.7657667" lon="11.2026867"><ele>41.0</ele><time>2026-05-01T17:48:03.728Z</time></trkpt><trkpt lat="43.7657467" lon="11.2025833"><ele>41.0</ele><time>2026-05-01T17:48:05.729Z</time></trkpt><trkpt lat="43.7657467" lon="11.2024917"><ele>41.0</ele><time>2026-05-01T17:48:07.727Z</time></trkpt><trkpt lat="43.7657683" lon="11.2024083"><ele>41.0</ele><time>2026-05-01T17:48:10.727Z</time></trkpt><trkpt lat="43.7658867" lon="11.202315"><ele>41.0</ele><time>2026-05-01T17:48:41.727Z</time></trkpt><trkpt lat="43.7660083" lon="11.2023383"><ele>41.0</ele><time>2026-05-01T17:49:34.727Z</time></trkpt><trkpt lat="43.7659667" lon="11.2024067"><ele>41.0</ele><time>2026-05-01T17:51:05.728Z</time></trkpt><trkpt lat="43.7658833" lon="11.2023933"><ele>41.0</ele><time>2026-05-01T17:51:06.729Z</time></trkpt><trkpt lat="43.7658749" lon="11.2023065"><ele>40.0</ele><time>2026-05-01T17:51:22.795Z</time></trkpt><trkpt lat="43.7659141" lon="11.2022236"><ele>40.0</ele><time>2026-05-01T17:51:27.726Z</time></trkpt><trkpt lat="43.7659748" lon="11.2022469"><ele>40.0</ele><time>2026-05-01T17:51:32.787Z</time></trkpt></trkseg></trk></gpx>